<?xml version="1.0" encoding="UTF-8"?>
<gpx version="1.1" creator="https://www.youtrack.es" xsi:schemaLocation="http://www.topografix.com/GPX/1/1 http://www.topografix.com/GPX/1/1/gpx.xsd http://www.garmin.com/xmlschemas/GpxExtensions/v3 http://www.garmin.com/xmlschemas/GpxExtensionsv3.xsd http://www.garmin.com/xmlschemas/TrackPointExtension/v1 http://www.garmin.com/xmlschemas/TrackPointExtensionv1.xsd" xmlns:gpxtpx="http://www.garmin.com/xmlschemas/TrackPointExtension/v1" xmlns:gpxx="http://www.garmin.com/xmlschemas/GpxExtensions/v3" xmlns:xsi="http://www.w3.org/2001/XMLSchema-instance">
  <metadata>
    <author>
      <name>juan_md </name>
      <email id="juanensegovia" domain="gmail.com"/>
    </author>
    <link href="https://www.youtrack.es">
      <text>YouTrack.es</text>
    </link>
    <time>2026-05-08T05:11:28Z</time>
  </metadata>
  <trk>
    <src>https://www.youtrack.es</src>
    <link href="https://www.youtrack.es/ruta/25859-la-gran-vuelta">
      <text>YouTrack.es</text>
    </link>
    <trkseg>
      <trkpt lat="40.897765" lon="-4.171722">
        <ele>942.204305</ele>
        <time>2021-09-14T23:00:00.000Z</time>
      </trkpt>
      <trkpt lat="40.898065" lon="-4.171451">
        <ele>942.204305</ele>
        <time>2021-09-14T23:00:06.000Z</time>
      </trkpt>
      <trkpt lat="40.898134" lon="-4.171253">
        <ele>942.204305</ele>
        <time>2021-09-14T23:00:09.000Z</time>
      </trkpt>
      <trkpt lat="40.898162" lon="-4.170978">
        <ele>942.204305</ele>
        <time>2021-09-14T23:00:13.000Z</time>
      </trkpt>
      <trkpt lat="40.898247" lon="-4.170812">
        <ele>942.204305</ele>
        <time>2021-09-14T23:00:16.000Z</time>
      </trkpt>
      <trkpt lat="40.898282" lon="-4.17076"/>
      <trkpt lat="40.898356" lon="-4.170662">
        <ele>942.640487</ele>
        <time>2021-09-14T23:00:19.000Z</time>
      </trkpt>
      <trkpt lat="40.898504" lon="-4.170467">
        <ele>943.258677</ele>
        <time>2021-09-14T23:00:23.000Z</time>
      </trkpt>
      <trkpt lat="40.898578" lon="-4.170369">
        <ele>943.568562</ele>
        <time>2021-09-14T23:00:25.000Z</time>
      </trkpt>
      <trkpt lat="40.898684" lon="-4.17025"/>
      <trkpt lat="40.898799" lon="-4.170138">
        <ele>944.402638</ele>
        <time>2021-09-14T23:00:31.000Z</time>
      </trkpt>
      <trkpt lat="40.899115" lon="-4.169799">
        <ele>945.606704</ele>
        <time>2021-09-14T23:00:38.000Z</time>
      </trkpt>
      <trkpt lat="40.89931" lon="-4.169601"/>
      <trkpt lat="40.899457" lon="-4.16945"/>
      <trkpt lat="40.899548" lon="-4.169347">
        <ele>947.239447</ele>
        <time>2021-09-14T23:00:47.000Z</time>
      </trkpt>
      <trkpt lat="40.899718" lon="-4.169154">
        <ele>948.083098</ele>
        <time>2021-09-14T23:00:51.000Z</time>
      </trkpt>
      <trkpt lat="40.899799" lon="-4.16906"/>
      <trkpt lat="40.899917" lon="-4.168918">
        <ele>949.255288</ele>
        <time>2021-09-14T23:00:56.000Z</time>
      </trkpt>
      <trkpt lat="40.90018" lon="-4.168584"/>
      <trkpt lat="40.900217" lon="-4.168536">
        <ele>951.081517</ele>
        <time>2021-09-14T23:01:04.000Z</time>
      </trkpt>
      <trkpt lat="40.900393" lon="-4.168298">
        <ele>952.185334</ele>
        <time>2021-09-14T23:01:09.000Z</time>
      </trkpt>
      <trkpt lat="40.900463" lon="-4.168207">
        <ele>952.615764</ele>
        <time>2021-09-14T23:01:11.000Z</time>
      </trkpt>
      <trkpt lat="40.900569" lon="-4.168075">
        <ele>953.254230</ele>
        <time>2021-09-14T23:01:14.000Z</time>
      </trkpt>
      <trkpt lat="40.900698" lon="-4.167897">
        <ele>954.071746</ele>
        <time>2021-09-14T23:01:18.000Z</time>
      </trkpt>
      <trkpt lat="40.900764" lon="-4.167809">
        <ele>954.482724</ele>
        <time>2021-09-14T23:01:20.000Z</time>
      </trkpt>
      <trkpt lat="40.900795" lon="-4.167765">
        <ele>954.682132</ele>
        <time>2021-09-14T23:01:21.000Z</time>
      </trkpt>
      <trkpt lat="40.900967" lon="-4.167517">
        <ele>955.929705</ele>
        <time>2021-09-14T23:01:27.000Z</time>
      </trkpt>
      <trkpt lat="40.90102" lon="-4.167438"/>
      <trkpt lat="40.901102" lon="-4.167316">
        <ele>957.128943</ele>
        <time>2021-09-14T23:01:32.000Z</time>
      </trkpt>
      <trkpt lat="40.901229" lon="-4.167102">
        <ele>958.342410</ele>
        <time>2021-09-14T23:01:37.000Z</time>
      </trkpt>
      <trkpt lat="40.901279" lon="-4.167016">
        <ele>958.826308</ele>
        <time>2021-09-14T23:01:39.000Z</time>
      </trkpt>
      <trkpt lat="40.901402" lon="-4.166793">
        <ele>960.057531</ele>
        <time>2021-09-14T23:01:44.000Z</time>
      </trkpt>
      <trkpt lat="40.901424" lon="-4.166745">
        <ele>960.307891</ele>
        <time>2021-09-14T23:01:45.000Z</time>
      </trkpt>
      <trkpt lat="40.901442" lon="-4.166696">
        <ele>960.550871</ele>
        <time>2021-09-14T23:01:46.000Z</time>
      </trkpt>
      <trkpt lat="40.901475" lon="-4.166595">
        <ele>961.041608</ele>
        <time>2021-09-14T23:01:48.000Z</time>
      </trkpt>
      <trkpt lat="40.901486" lon="-4.166541">
        <ele>961.291036</ele>
        <time>2021-09-14T23:01:49.000Z</time>
      </trkpt>
      <trkpt lat="40.90149" lon="-4.16643"/>
      <trkpt lat="40.901488" lon="-4.166375">
        <ele>962.032229</ele>
        <time>2021-09-14T23:01:52.000Z</time>
      </trkpt>
      <trkpt lat="40.901464" lon="-4.166161">
        <ele>962.997100</ele>
        <time>2021-09-14T23:01:56.000Z</time>
      </trkpt>
      <trkpt lat="40.901444" lon="-4.166006">
        <ele>963.698388</ele>
        <time>2021-09-14T23:01:59.000Z</time>
      </trkpt>
      <trkpt lat="40.901438" lon="-4.165956">
        <ele>963.924177</ele>
        <time>2021-09-14T23:02:00.000Z</time>
      </trkpt>
      <trkpt lat="40.90143" lon="-4.165908"/>
      <trkpt lat="40.901401" lon="-4.165717">
        <ele>965.012258</ele>
        <time>2021-09-14T23:02:05.000Z</time>
      </trkpt>
      <trkpt lat="40.901374" lon="-4.165527">
        <ele>965.874490</ele>
        <time>2021-09-14T23:02:09.000Z</time>
      </trkpt>
      <trkpt lat="40.901341" lon="-4.165296">
        <ele>966.949810</ele>
        <time>2021-09-14T23:02:14.000Z</time>
      </trkpt>
      <trkpt lat="40.901311" lon="-4.165112">
        <ele>967.814530</ele>
        <time>2021-09-14T23:02:18.000Z</time>
      </trkpt>
      <trkpt lat="40.901298" lon="-4.165021">
        <ele>968.239976</ele>
        <time>2021-09-14T23:02:20.000Z</time>
      </trkpt>
      <trkpt lat="40.901282" lon="-4.164931">
        <ele>968.664710</ele>
        <time>2021-09-14T23:02:22.000Z</time>
      </trkpt>
      <trkpt lat="40.901247" lon="-4.164705">
        <ele>969.724501</ele>
        <time>2021-09-14T23:02:27.000Z</time>
      </trkpt>
      <trkpt lat="40.901234" lon="-4.164614">
        <ele>970.149947</ele>
        <time>2021-09-14T23:02:29.000Z</time>
      </trkpt>
      <trkpt lat="40.901214" lon="-4.164475">
        <ele>970.799967</ele>
        <time>2021-09-14T23:02:32.000Z</time>
      </trkpt>
      <trkpt lat="40.901181" lon="-4.164293">
        <ele>971.659779</ele>
        <time>2021-09-14T23:02:36.000Z</time>
      </trkpt>
      <trkpt lat="40.901175" lon="-4.164249">
        <ele>971.865174</ele>
        <time>2021-09-14T23:02:37.000Z</time>
      </trkpt>
      <trkpt lat="40.901138" lon="-4.164032">
        <ele>972.887103</ele>
        <time>2021-09-14T23:02:42.000Z</time>
      </trkpt>
      <trkpt lat="40.901129" lon="-4.16399"/>
      <trkpt lat="40.901104" lon="-4.163826">
        <ele>973.856223</ele>
        <time>2021-09-14T23:02:47.000Z</time>
      </trkpt>
      <trkpt lat="40.90109" lon="-4.163748"/>
      <trkpt lat="40.901054" lon="-4.163515">
        <ele>975.317029</ele>
        <time>2021-09-14T23:02:55.000Z</time>
      </trkpt>
      <trkpt lat="40.901029" lon="-4.163355">
        <ele>976.067597</ele>
        <time>2021-09-14T23:02:59.000Z</time>
      </trkpt>
      <trkpt lat="40.901012" lon="-4.163232">
        <ele>976.642018</ele>
        <time>2021-09-14T23:03:02.000Z</time>
      </trkpt>
      <trkpt lat="40.900986" lon="-4.163071">
        <ele>977.217757</ele>
        <time>2021-09-14T23:03:06.000Z</time>
      </trkpt>
      <trkpt lat="40.900971" lon="-4.162948">
        <ele>977.553527</ele>
        <time>2021-09-14T23:03:09.000Z</time>
      </trkpt>
      <trkpt lat="40.900945" lon="-4.162786">
        <ele>977.999848</ele>
        <time>2021-09-14T23:03:13.000Z</time>
      </trkpt>
      <trkpt lat="40.90093" lon="-4.162704"/>
      <trkpt lat="40.900885" lon="-4.162454">
        <ele>978.919805</ele>
        <time>2021-09-14T23:03:21.000Z</time>
      </trkpt>
      <trkpt lat="40.900871" lon="-4.162368">
        <ele>979.156889</ele>
        <time>2021-09-14T23:03:23.000Z</time>
      </trkpt>
      <trkpt lat="40.900836" lon="-4.162118">
        <ele>979.842096</ele>
        <time>2021-09-14T23:03:29.000Z</time>
      </trkpt>
      <trkpt lat="40.900827" lon="-4.162037">
        <ele>980.062736</ele>
        <time>2021-09-14T23:03:31.000Z</time>
      </trkpt>
      <trkpt lat="40.900793" lon="-4.161813">
        <ele>980.678466</ele>
        <time>2021-09-14T23:03:36.000Z</time>
      </trkpt>
      <trkpt lat="40.900777" lon="-4.161716">
        <ele>980.946033</ele>
        <time>2021-09-14T23:03:38.000Z</time>
      </trkpt>
      <trkpt lat="40.900741" lon="-4.161472">
        <ele>981.616022</ele>
        <time>2021-09-14T23:03:43.000Z</time>
      </trkpt>
      <trkpt lat="40.900708" lon="-4.16126"/>
      <trkpt lat="40.900634" lon="-4.160807">
        <ele>983.350185</ele>
        <time>2021-09-14T23:03:55.000Z</time>
      </trkpt>
      <trkpt lat="40.900555" lon="-4.160297">
        <ele>982.885522</ele>
        <time>2021-09-14T23:04:03.000Z</time>
      </trkpt>
      <trkpt lat="40.90053" lon="-4.160098"/>
      <trkpt lat="40.900488" lon="-4.159836">
        <ele>982.466416</ele>
        <time>2021-09-14T23:04:10.000Z</time>
      </trkpt>
      <trkpt lat="40.900411" lon="-4.159311">
        <ele>981.989085</ele>
        <time>2021-09-14T23:04:18.000Z</time>
      </trkpt>
      <trkpt lat="40.900403" lon="-4.159245">
        <ele>981.929423</ele>
        <time>2021-09-14T23:04:19.000Z</time>
      </trkpt>
      <trkpt lat="40.90036" lon="-4.158802"/>
      <trkpt lat="40.900369" lon="-4.158546">
        <ele>981.302033</ele>
        <time>2021-09-14T23:04:28.000Z</time>
      </trkpt>
      <trkpt lat="40.900402" lon="-4.158365">
        <ele>980.848279</ele>
        <time>2021-09-14T23:04:30.000Z</time>
      </trkpt>
      <trkpt lat="40.900584" lon="-4.157804">
        <ele>978.938574</ele>
        <time>2021-09-14T23:04:36.000Z</time>
      </trkpt>
      <trkpt lat="40.900743" lon="-4.157375">
        <ele>977.443953</ele>
        <time>2021-09-14T23:04:40.000Z</time>
      </trkpt>
      <trkpt lat="40.900771" lon="-4.157254">
        <ele>977.048109</ele>
        <time>2021-09-14T23:04:41.000Z</time>
      </trkpt>
      <trkpt lat="40.900778" lon="-4.157125">
        <ele>976.643542</ele>
        <time>2021-09-14T23:04:42.000Z</time>
      </trkpt>
      <trkpt lat="40.900756" lon="-4.156996">
        <ele>976.229869</ele>
        <time>2021-09-14T23:04:43.000Z</time>
      </trkpt>
      <trkpt lat="40.900641" lon="-4.156778">
        <ele>975.398275</ele>
        <time>2021-09-14T23:04:45.000Z</time>
      </trkpt>
      <trkpt lat="40.900488" lon="-4.15661"/>
      <trkpt lat="40.900413" lon="-4.156533">
        <ele>974.182510</ele>
        <time>2021-09-14T23:04:48.000Z</time>
      </trkpt>
      <trkpt lat="40.900269" lon="-4.156382">
        <ele>973.896129</ele>
        <time>2021-09-14T23:04:50.000Z</time>
      </trkpt>
      <trkpt lat="40.900201" lon="-4.156308">
        <ele>973.980713</ele>
        <time>2021-09-14T23:04:51.000Z</time>
      </trkpt>
      <trkpt lat="40.899944" lon="-4.156034">
        <ele>974.297788</ele>
        <time>2021-09-14T23:04:55.000Z</time>
      </trkpt>
      <trkpt lat="40.899823" lon="-4.15591"/>
      <trkpt lat="40.899378" lon="-4.155444">
        <ele>974.990020</ele>
        <time>2021-09-14T23:05:05.000Z</time>
      </trkpt>
      <trkpt lat="40.899327" lon="-4.155387">
        <ele>975.054156</ele>
        <time>2021-09-14T23:05:06.000Z</time>
      </trkpt>
      <trkpt lat="40.899057" lon="-4.155008">
        <ele>975.432324</ele>
        <time>2021-09-14T23:05:12.000Z</time>
      </trkpt>
      <trkpt lat="40.89896" lon="-4.15479"/>
      <trkpt lat="40.898888" lon="-4.15456"/>
      <trkpt lat="40.898751" lon="-4.154009">
        <ele>976.143186</ele>
        <time>2021-09-14T23:05:25.000Z</time>
      </trkpt>
      <trkpt lat="40.898735" lon="-4.153931">
        <ele>976.195450</ele>
        <time>2021-09-14T23:05:26.000Z</time>
      </trkpt>
      <trkpt lat="40.898635" lon="-4.15338"/>
      <trkpt lat="40.898634" lon="-4.153297">
        <ele>976.615568</ele>
        <time>2021-09-14T23:05:34.000Z</time>
      </trkpt>
      <trkpt lat="40.898697" lon="-4.152997">
        <ele>976.816915</ele>
        <time>2021-09-14T23:05:38.000Z</time>
      </trkpt>
      <trkpt lat="40.898878" lon="-4.152774">
        <ele>977.028513</ele>
        <time>2021-09-14T23:05:42.000Z</time>
      </trkpt>
      <trkpt lat="40.899043" lon="-4.152663">
        <ele>977.408300</ele>
        <time>2021-09-14T23:05:45.000Z</time>
      </trkpt>
      <trkpt lat="40.899213" lon="-4.152573">
        <ele>977.870819</ele>
        <time>2021-09-14T23:05:48.000Z</time>
      </trkpt>
      <trkpt lat="40.899371" lon="-4.152458">
        <ele>978.326332</ele>
        <time>2021-09-14T23:05:51.000Z</time>
      </trkpt>
      <trkpt lat="40.899464" lon="-4.152359">
        <ele>978.627849</ele>
        <time>2021-09-14T23:05:53.000Z</time>
      </trkpt>
      <trkpt lat="40.899536" lon="-4.152158">
        <ele>979.052526</ele>
        <time>2021-09-14T23:05:56.000Z</time>
      </trkpt>
      <trkpt lat="40.899498" lon="-4.151887">
        <ele>979.578767</ele>
        <time>2021-09-14T23:06:00.000Z</time>
      </trkpt>
      <trkpt lat="40.899473" lon="-4.151828">
        <ele>979.707907</ele>
        <time>2021-09-14T23:06:01.000Z</time>
      </trkpt>
      <trkpt lat="40.899448" lon="-4.151772">
        <ele>979.832082</ele>
        <time>2021-09-14T23:06:02.000Z</time>
      </trkpt>
      <trkpt lat="40.899303" lon="-4.151527">
        <ele>980.426187</ele>
        <time>2021-09-14T23:06:07.000Z</time>
      </trkpt>
      <trkpt lat="40.899182" lon="-4.151352">
        <ele>980.879018</ele>
        <time>2021-09-14T23:06:11.000Z</time>
      </trkpt>
      <trkpt lat="40.899084" lon="-4.151223">
        <ele>981.228218</ele>
        <time>2021-09-14T23:06:14.000Z</time>
      </trkpt>
      <trkpt lat="40.899023" lon="-4.151138">
        <ele>981.452002</ele>
        <time>2021-09-14T23:06:16.000Z</time>
      </trkpt>
      <trkpt lat="40.898862" lon="-4.150907">
        <ele>982.090506</ele>
        <time>2021-09-14T23:06:21.000Z</time>
      </trkpt>
      <trkpt lat="40.898775" lon="-4.150772">
        <ele>982.459256</ele>
        <time>2021-09-14T23:06:24.000Z</time>
      </trkpt>
      <trkpt lat="40.898645" lon="-4.150543">
        <ele>983.054542</ele>
        <time>2021-09-14T23:06:29.000Z</time>
      </trkpt>
      <trkpt lat="40.898575" lon="-4.150392">
        <ele>983.422733</ele>
        <time>2021-09-14T23:06:32.000Z</time>
      </trkpt>
      <trkpt lat="40.898554" lon="-4.150339">
        <ele>983.547115</ele>
        <time>2021-09-14T23:06:33.000Z</time>
      </trkpt>
      <trkpt lat="40.898512" lon="-4.150234">
        <ele>983.794041</ele>
        <time>2021-09-14T23:06:35.000Z</time>
      </trkpt>
      <trkpt lat="40.898425" lon="-4.149955">
        <ele>984.421374</ele>
        <time>2021-09-14T23:06:40.000Z</time>
      </trkpt>
      <trkpt lat="40.898397" lon="-4.149842">
        <ele>984.668551</ele>
        <time>2021-09-14T23:06:42.000Z</time>
      </trkpt>
      <trkpt lat="40.898346" lon="-4.149653">
        <ele>985.085685</ele>
        <time>2021-09-14T23:06:46.000Z</time>
      </trkpt>
      <trkpt lat="40.898347" lon="-4.149649">
        <ele>985.094442</ele>
        <time>2021-09-14T23:06:48.000Z</time>
      </trkpt>
      <trkpt lat="40.898347" lon="-4.149601">
        <ele>985.194214</ele>
        <time>2021-09-14T23:06:51.000Z</time>
      </trkpt>
      <trkpt lat="40.898341" lon="-4.149572">
        <ele>985.256710</ele>
        <time>2021-09-14T23:06:52.000Z</time>
      </trkpt>
      <trkpt lat="40.898295" lon="-4.149408">
        <ele>985.620310</ele>
        <time>2021-09-14T23:06:56.000Z</time>
      </trkpt>
      <trkpt lat="40.898285" lon="-4.149353">
        <ele>985.737893</ele>
        <time>2021-09-14T23:06:57.000Z</time>
      </trkpt>
      <trkpt lat="40.898217" lon="-4.148935">
        <ele>986.578960</ele>
        <time>2021-09-14T23:07:04.000Z</time>
      </trkpt>
      <trkpt lat="40.898257" lon="-4.14876"/>
      <trkpt lat="40.898281" lon="-4.148706">
        <ele>986.707676</ele>
        <time>2021-09-14T23:07:08.000Z</time>
      </trkpt>
      <trkpt lat="40.898455" lon="-4.148501">
        <ele>986.869310</ele>
        <time>2021-09-14T23:07:13.000Z</time>
      </trkpt>
      <trkpt lat="40.898501" lon="-4.148474">
        <ele>986.904221</ele>
        <time>2021-09-14T23:07:14.000Z</time>
      </trkpt>
      <trkpt lat="40.898789" lon="-4.14836"/>
      <trkpt lat="40.899159" lon="-4.148222">
        <ele>987.379445</ele>
        <time>2021-09-14T23:07:27.000Z</time>
      </trkpt>
      <trkpt lat="40.899346" lon="-4.148166">
        <ele>987.512453</ele>
        <time>2021-09-14T23:07:30.000Z</time>
      </trkpt>
      <trkpt lat="40.899657" lon="-4.148072">
        <ele>987.733759</ele>
        <time>2021-09-14T23:07:35.000Z</time>
      </trkpt>
      <trkpt lat="40.899897" lon="-4.147956">
        <ele>987.972415</ele>
        <time>2021-09-14T23:07:39.000Z</time>
      </trkpt>
      <trkpt lat="40.900003" lon="-4.147865">
        <ele>988.113693</ele>
        <time>2021-09-14T23:07:41.000Z</time>
      </trkpt>
      <trkpt lat="40.900136" lon="-4.147687">
        <ele>988.325209</ele>
        <time>2021-09-14T23:07:44.000Z</time>
      </trkpt>
      <trkpt lat="40.900209" lon="-4.147553">
        <ele>988.464797</ele>
        <time>2021-09-14T23:07:46.000Z</time>
      </trkpt>
      <trkpt lat="40.900237" lon="-4.147482">
        <ele>988.532473</ele>
        <time>2021-09-14T23:07:47.000Z</time>
      </trkpt>
      <trkpt lat="40.900301" lon="-4.147168">
        <ele>988.807306</ele>
        <time>2021-09-14T23:07:51.000Z</time>
      </trkpt>
      <trkpt lat="40.900306" lon="-4.147089">
        <ele>988.874301</ele>
        <time>2021-09-14T23:07:52.000Z</time>
      </trkpt>
      <trkpt lat="40.900302" lon="-4.146927">
        <ele>989.011276</ele>
        <time>2021-09-14T23:07:54.000Z</time>
      </trkpt>
      <trkpt lat="40.900277" lon="-4.146763">
        <ele>989.152659</ele>
        <time>2021-09-14T23:07:56.000Z</time>
      </trkpt>
      <trkpt lat="40.900204" lon="-4.14652"/>
      <trkpt lat="40.900134" lon="-4.146362">
        <ele>989.528407</ele>
        <time>2021-09-14T23:08:01.000Z</time>
      </trkpt>
      <trkpt lat="40.899868" lon="-4.145803">
        <ele>990.411155</ele>
        <time>2021-09-14T23:08:08.000Z</time>
      </trkpt>
      <trkpt lat="40.899737" lon="-4.145514">
        <ele>991.044656</ele>
        <time>2021-09-14T23:08:12.000Z</time>
      </trkpt>
      <trkpt lat="40.899622" lon="-4.145243">
        <ele>991.628910</ele>
        <time>2021-09-14T23:08:16.000Z</time>
      </trkpt>
      <trkpt lat="40.899577" lon="-4.145107">
        <ele>991.908003</ele>
        <time>2021-09-14T23:08:18.000Z</time>
      </trkpt>
      <trkpt lat="40.899541" lon="-4.14496"/>
      <trkpt lat="40.899515" lon="-4.144814">
        <ele>992.480477</ele>
        <time>2021-09-14T23:08:22.000Z</time>
      </trkpt>
      <trkpt lat="40.899502" lon="-4.144665">
        <ele>992.762445</ele>
        <time>2021-09-14T23:08:24.000Z</time>
      </trkpt>
      <trkpt lat="40.899506" lon="-4.144453">
        <ele>993.161112</ele>
        <time>2021-09-14T23:08:27.000Z</time>
      </trkpt>
      <trkpt lat="40.899545" lon="-4.144191">
        <ele>993.663111</ele>
        <time>2021-09-14T23:08:31.000Z</time>
      </trkpt>
      <trkpt lat="40.899581" lon="-4.144063">
        <ele>993.919858</ele>
        <time>2021-09-14T23:08:33.000Z</time>
      </trkpt>
      <trkpt lat="40.899626" lon="-4.143939">
        <ele>994.178443</ele>
        <time>2021-09-14T23:08:35.000Z</time>
      </trkpt>
      <trkpt lat="40.899655" lon="-4.14388"/>
      <trkpt lat="40.899721" lon="-4.143771">
        <ele>994.537010</ele>
        <time>2021-09-14T23:08:38.000Z</time>
      </trkpt>
      <trkpt lat="40.89982" lon="-4.143607"/>
      <trkpt lat="40.899984" lon="-4.143326">
        <ele>995.460463</ele>
        <time>2021-09-14T23:08:46.000Z</time>
      </trkpt>
      <trkpt lat="40.900018" lon="-4.14327"/>
      <trkpt lat="40.900289" lon="-4.142833">
        <ele>996.501915</ele>
        <time>2021-09-14T23:08:55.000Z</time>
      </trkpt>
      <trkpt lat="40.900324" lon="-4.142778">
        <ele>996.619446</ele>
        <time>2021-09-14T23:08:56.000Z</time>
      </trkpt>
      <trkpt lat="40.90036" lon="-4.142724"/>
      <trkpt lat="40.900587" lon="-4.142344">
        <ele>997.528917</ele>
        <time>2021-09-14T23:09:04.000Z</time>
      </trkpt>
      <trkpt lat="40.900619" lon="-4.14229"/>
      <trkpt lat="40.900871" lon="-4.141887">
        <ele>998.497428</ele>
        <time>2021-09-14T23:09:13.000Z</time>
      </trkpt>
      <trkpt lat="40.900903" lon="-4.14184"/>
      <trkpt lat="40.900999" lon="-4.141692">
        <ele>998.921462</ele>
        <time>2021-09-14T23:09:17.000Z</time>
      </trkpt>
      <trkpt lat="40.901071" lon="-4.141596">
        <ele>999.143491</ele>
        <time>2021-09-14T23:09:19.000Z</time>
      </trkpt>
      <trkpt lat="40.901104" lon="-4.14154"/>
      <trkpt lat="40.901368" lon="-4.141106">
        <ele>1000.174663</ele>
        <time>2021-09-14T23:09:28.000Z</time>
      </trkpt>
      <trkpt lat="40.901692" lon="-4.140567">
        <ele>1001.305276</ele>
        <time>2021-09-14T23:09:38.000Z</time>
      </trkpt>
      <trkpt lat="40.901981" lon="-4.140088">
        <ele>1002.523820</ele>
        <time>2021-09-14T23:09:47.000Z</time>
      </trkpt>
      <trkpt lat="40.90225" lon="-4.139603"/>
      <trkpt lat="40.902272" lon="-4.13955"/>
      <trkpt lat="40.902397" lon="-4.139184">
        <ele>1005.958113</ele>
        <time>2021-09-14T23:10:04.000Z</time>
      </trkpt>
      <trkpt lat="40.90245" lon="-4.138917"/>
      <trkpt lat="40.902467" lon="-4.138811">
        <ele>1007.199275</ele>
        <time>2021-09-14T23:10:11.000Z</time>
      </trkpt>
      <trkpt lat="40.902472" lon="-4.138698">
        <ele>1007.564744</ele>
        <time>2021-09-14T23:10:13.000Z</time>
      </trkpt>
      <trkpt lat="40.902476" lon="-4.138436">
        <ele>1008.410837</ele>
        <time>2021-09-14T23:10:18.000Z</time>
      </trkpt>
      <trkpt lat="40.902476" lon="-4.138384">
        <ele>1008.578730</ele>
        <time>2021-09-14T23:10:19.000Z</time>
      </trkpt>
      <trkpt lat="40.902463" lon="-4.138124">
        <ele>1009.420029</ele>
        <time>2021-09-14T23:10:24.000Z</time>
      </trkpt>
      <trkpt lat="40.902448" lon="-4.137865">
        <ele>1010.317018</ele>
        <time>2021-09-14T23:10:29.000Z</time>
      </trkpt>
      <trkpt lat="40.902445" lon="-4.137813">
        <ele>1010.505703</ele>
        <time>2021-09-14T23:10:30.000Z</time>
      </trkpt>
      <trkpt lat="40.902424" lon="-4.137497">
        <ele>1011.653408</ele>
        <time>2021-09-14T23:10:36.000Z</time>
      </trkpt>
      <trkpt lat="40.902418" lon="-4.13734"/>
      <trkpt lat="40.902407" lon="-4.137132">
        <ele>1012.976552</ele>
        <time>2021-09-14T23:10:43.000Z</time>
      </trkpt>
      <trkpt lat="40.902386" lon="-4.136875">
        <ele>1013.911802</ele>
        <time>2021-09-14T23:10:48.000Z</time>
      </trkpt>
      <trkpt lat="40.902383" lon="-4.136824">
        <ele>1014.096879</ele>
        <time>2021-09-14T23:10:49.000Z</time>
      </trkpt>
      <trkpt lat="40.902369" lon="-4.136518">
        <ele>1015.206021</ele>
        <time>2021-09-14T23:10:55.000Z</time>
      </trkpt>
      <trkpt lat="40.902365" lon="-4.136467">
        <ele>1015.391531</ele>
        <time>2021-09-14T23:10:56.000Z</time>
      </trkpt>
      <trkpt lat="40.90235" lon="-4.136261"/>
      <trkpt lat="40.902341" lon="-4.136055">
        <ele>1016.886853</ele>
        <time>2021-09-14T23:11:04.000Z</time>
      </trkpt>
      <trkpt lat="40.902328" lon="-4.135855">
        <ele>1017.613129</ele>
        <time>2021-09-14T23:11:08.000Z</time>
      </trkpt>
      <trkpt lat="40.902321" lon="-4.13555"/>
      <trkpt lat="40.902322" lon="-4.1355"/>
      <trkpt lat="40.902329" lon="-4.135211">
        <ele>1019.570961</ele>
        <time>2021-09-14T23:11:21.000Z</time>
      </trkpt>
      <trkpt lat="40.902336" lon="-4.135127">
        <ele>1019.803517</ele>
        <time>2021-09-14T23:11:23.000Z</time>
      </trkpt>
      <trkpt lat="40.902358" lon="-4.134943">
        <ele>1020.316155</ele>
        <time>2021-09-14T23:11:27.000Z</time>
      </trkpt>
      <trkpt lat="40.902376" lon="-4.134749">
        <ele>1020.854022</ele>
        <time>2021-09-14T23:11:31.000Z</time>
      </trkpt>
      <trkpt lat="40.902387" lon="-4.134639">
        <ele>1021.159364</ele>
        <time>2021-09-14T23:11:33.000Z</time>
      </trkpt>
      <trkpt lat="40.902399" lon="-4.134522">
        <ele>1021.484281</ele>
        <time>2021-09-14T23:11:35.000Z</time>
      </trkpt>
      <trkpt lat="40.902435" lon="-4.134409">
        <ele>1021.821735</ele>
        <time>2021-09-14T23:11:37.000Z</time>
      </trkpt>
      <trkpt lat="40.902462" lon="-4.134357">
        <ele>1021.995344</ele>
        <time>2021-09-14T23:11:38.000Z</time>
      </trkpt>
      <trkpt lat="40.902572" lon="-4.134227">
        <ele>1022.532348</ele>
        <time>2021-09-14T23:11:41.000Z</time>
      </trkpt>
      <trkpt lat="40.902687" lon="-4.134106">
        <ele>1023.067305</ele>
        <time>2021-09-14T23:11:44.000Z</time>
      </trkpt>
      <trkpt lat="40.902922" lon="-4.133869">
        <ele>1024.143130</ele>
        <time>2021-09-14T23:11:50.000Z</time>
      </trkpt>
      <trkpt lat="40.903043" lon="-4.13375"/>
      <trkpt lat="40.903342" lon="-4.133454">
        <ele>1025.925418</ele>
        <time>2021-09-14T23:12:00.000Z</time>
      </trkpt>
      <trkpt lat="40.903471" lon="-4.133324">
        <ele>1026.449146</ele>
        <time>2021-09-14T23:12:03.000Z</time>
      </trkpt>
      <trkpt lat="40.903772" lon="-4.133019">
        <ele>1027.673645</ele>
        <time>2021-09-14T23:12:10.000Z</time>
      </trkpt>
      <trkpt lat="40.903823" lon="-4.132967">
        <ele>1027.881597</ele>
        <time>2021-09-14T23:12:11.000Z</time>
      </trkpt>
      <trkpt lat="40.904113" lon="-4.132655">
        <ele>1029.088790</ele>
        <time>2021-09-14T23:12:17.000Z</time>
      </trkpt>
      <trkpt lat="40.904125" lon="-4.132589">
        <ele>1029.254496</ele>
        <time>2021-09-14T23:12:18.000Z</time>
      </trkpt>
      <trkpt lat="40.904107" lon="-4.132531">
        <ele>1029.407548</ele>
        <time>2021-09-14T23:12:19.000Z</time>
      </trkpt>
      <trkpt lat="40.904037" lon="-4.132446">
        <ele>1029.714411</ele>
        <time>2021-09-14T23:12:21.000Z</time>
      </trkpt>
      <trkpt lat="40.903813" lon="-4.132217">
        <ele>1030.628676</ele>
        <time>2021-09-14T23:12:26.000Z</time>
      </trkpt>
      <trkpt lat="40.903766" lon="-4.132166">
        <ele>1030.825221</ele>
        <time>2021-09-14T23:12:27.000Z</time>
      </trkpt>
      <trkpt lat="40.903539" lon="-4.131913">
        <ele>1031.786453</ele>
        <time>2021-09-14T23:12:32.000Z</time>
      </trkpt>
      <trkpt lat="40.903463" lon="-4.131821">
        <ele>1032.120060</ele>
        <time>2021-09-14T23:12:34.000Z</time>
      </trkpt>
      <trkpt lat="40.903451" lon="-4.131728">
        <ele>1032.350996</ele>
        <time>2021-09-14T23:12:36.000Z</time>
      </trkpt>
      <trkpt lat="40.903481" lon="-4.131701">
        <ele>1032.468501</ele>
        <time>2021-09-14T23:12:37.000Z</time>
      </trkpt>
      <trkpt lat="40.903567" lon="-4.131696">
        <ele>1032.747288</ele>
        <time>2021-09-14T23:12:39.000Z</time>
      </trkpt>
      <trkpt lat="40.903619" lon="-4.131694">
        <ele>1032.915765</ele>
        <time>2021-09-14T23:12:40.000Z</time>
      </trkpt>
      <trkpt lat="40.903673" lon="-4.131679">
        <ele>1033.094461</ele>
        <time>2021-09-14T23:12:41.000Z</time>
      </trkpt>
      <trkpt lat="40.903719" lon="-4.131648">
        <ele>1033.261648</ele>
        <time>2021-09-14T23:12:42.000Z</time>
      </trkpt>
      <trkpt lat="40.903758" lon="-4.131507">
        <ele>1033.629166</ele>
        <time>2021-09-14T23:12:45.000Z</time>
      </trkpt>
      <trkpt lat="40.903792" lon="-4.131352">
        <ele>1034.024224</ele>
        <time>2021-09-14T23:12:48.000Z</time>
      </trkpt>
      <trkpt lat="40.903827" lon="-4.131257">
        <ele>1034.282916</ele>
        <time>2021-09-14T23:12:50.000Z</time>
      </trkpt>
      <trkpt lat="40.903962" lon="-4.131055">
        <ele>1034.942936</ele>
        <time>2021-09-14T23:12:55.000Z</time>
      </trkpt>
      <trkpt lat="40.903994" lon="-4.131016">
        <ele>1035.083837</ele>
        <time>2021-09-14T23:12:56.000Z</time>
      </trkpt>
      <trkpt lat="40.904024" lon="-4.130975">
        <ele>1035.223520</ele>
        <time>2021-09-14T23:12:57.000Z</time>
      </trkpt>
      <trkpt lat="40.904097" lon="-4.13083"/>
      <trkpt lat="40.90412" lon="-4.130783"/>
      <trkpt lat="40.904196" lon="-4.130592">
        <ele>1036.315377</ele>
        <time>2021-09-14T23:13:05.000Z</time>
      </trkpt>
      <trkpt lat="40.904219" lon="-4.130551">
        <ele>1036.440357</ele>
        <time>2021-09-14T23:13:06.000Z</time>
      </trkpt>
      <trkpt lat="40.904326" lon="-4.130326">
        <ele>1037.186091</ele>
        <time>2021-09-14T23:13:11.000Z</time>
      </trkpt>
      <trkpt lat="40.904434" lon="-4.13015"/>
      <trkpt lat="40.904533" lon="-4.130045">
        <ele>1038.327358</ele>
        <time>2021-09-14T23:13:18.000Z</time>
      </trkpt>
      <trkpt lat="40.904569" lon="-4.130016">
        <ele>1038.488651</ele>
        <time>2021-09-14T23:13:19.000Z</time>
      </trkpt>
      <trkpt lat="40.904717" lon="-4.129928">
        <ele>1039.109590</ele>
        <time>2021-09-14T23:13:23.000Z</time>
      </trkpt>
      <trkpt lat="40.904915" lon="-4.129755">
        <ele>1040.017617</ele>
        <time>2021-09-14T23:13:29.000Z</time>
      </trkpt>
      <trkpt lat="40.904947" lon="-4.129673">
        <ele>1040.284537</ele>
        <time>2021-09-14T23:13:31.000Z</time>
      </trkpt>
      <trkpt lat="40.904961" lon="-4.129587">
        <ele>1040.538982</ele>
        <time>2021-09-14T23:13:33.000Z</time>
      </trkpt>
      <trkpt lat="40.905014" lon="-4.129417">
        <ele>1041.070868</ele>
        <time>2021-09-14T23:13:38.000Z</time>
      </trkpt>
      <trkpt lat="40.905129" lon="-4.129219">
        <ele>1041.793116</ele>
        <time>2021-09-14T23:13:44.000Z</time>
      </trkpt>
      <trkpt lat="40.905205" lon="-4.129041">
        <ele>1042.384422</ele>
        <time>2021-09-14T23:13:49.000Z</time>
      </trkpt>
      <trkpt lat="40.905186" lon="-4.128734">
        <ele>1043.275336</ele>
        <time>2021-09-14T23:13:57.000Z</time>
      </trkpt>
      <trkpt lat="40.905181" lon="-4.128695">
        <ele>1043.389748</ele>
        <time>2021-09-14T23:13:58.000Z</time>
      </trkpt>
      <trkpt lat="40.905162" lon="-4.128545">
        <ele>1043.806234</ele>
        <time>2021-09-14T23:14:02.000Z</time>
      </trkpt>
      <trkpt lat="40.905156" lon="-4.128433">
        <ele>1044.110908</ele>
        <time>2021-09-14T23:14:05.000Z</time>
      </trkpt>
      <trkpt lat="40.905186" lon="-4.128288">
        <ele>1044.518840</ele>
        <time>2021-09-14T23:14:09.000Z</time>
      </trkpt>
      <trkpt lat="40.905206" lon="-4.128261">
        <ele>1044.621425</ele>
        <time>2021-09-14T23:14:10.000Z</time>
      </trkpt>
      <trkpt lat="40.905275" lon="-4.128189">
        <ele>1044.936922</ele>
        <time>2021-09-14T23:14:13.000Z</time>
      </trkpt>
      <trkpt lat="40.905398" lon="-4.128093">
        <ele>1045.449630</ele>
        <time>2021-09-14T23:14:18.000Z</time>
      </trkpt>
      <trkpt lat="40.905525" lon="-4.127998">
        <ele>1045.973416</ele>
        <time>2021-09-14T23:14:24.000Z</time>
      </trkpt>
      <trkpt lat="40.90554" lon="-4.127968"/>
      <trkpt lat="40.90562" lon="-4.127779"/>
      <trkpt lat="40.905646" lon="-4.127732">
        <ele>1046.816866</ele>
        <time>2021-09-14T23:14:31.000Z</time>
      </trkpt>
      <trkpt lat="40.905684" lon="-4.127684">
        <ele>1047.005485</ele>
        <time>2021-09-14T23:14:32.000Z</time>
      </trkpt>
      <trkpt lat="40.905781" lon="-4.127609">
        <ele>1047.408843</ele>
        <time>2021-09-14T23:14:34.000Z</time>
      </trkpt>
      <trkpt lat="40.905943" lon="-4.127437">
        <ele>1048.154568</ele>
        <time>2021-09-14T23:14:38.000Z</time>
      </trkpt>
      <trkpt lat="40.905978" lon="-4.127394">
        <ele>1048.326044</ele>
        <time>2021-09-14T23:14:39.000Z</time>
      </trkpt>
      <trkpt lat="40.906137" lon="-4.127243">
        <ele>1049.028718</ele>
        <time>2021-09-14T23:14:43.000Z</time>
      </trkpt>
      <trkpt lat="40.906443" lon="-4.127015">
        <ele>1050.252876</ele>
        <time>2021-09-14T23:14:50.000Z</time>
      </trkpt>
      <trkpt lat="40.906523" lon="-4.126806">
        <ele>1050.827375</ele>
        <time>2021-09-14T23:14:54.000Z</time>
      </trkpt>
      <trkpt lat="40.906648" lon="-4.126564">
        <ele>1051.546168</ele>
        <time>2021-09-14T23:14:59.000Z</time>
      </trkpt>
      <trkpt lat="40.906712" lon="-4.126481">
        <ele>1051.836938</ele>
        <time>2021-09-14T23:15:01.000Z</time>
      </trkpt>
      <trkpt lat="40.906826" lon="-4.126391">
        <ele>1052.267665</ele>
        <time>2021-09-14T23:15:04.000Z</time>
      </trkpt>
      <trkpt lat="40.907019" lon="-4.126218">
        <ele>1053.024049</ele>
        <time>2021-09-14T23:15:10.000Z</time>
      </trkpt>
      <trkpt lat="40.907082" lon="-4.126044">
        <ele>1053.497170</ele>
        <time>2021-09-14T23:15:14.000Z</time>
      </trkpt>
      <trkpt lat="40.907089" lon="-4.125999">
        <ele>1053.609832</ele>
        <time>2021-09-14T23:15:15.000Z</time>
      </trkpt>
      <trkpt lat="40.907086" lon="-4.125827">
        <ele>1054.031724</ele>
        <time>2021-09-14T23:15:20.000Z</time>
      </trkpt>
      <trkpt lat="40.907041" lon="-4.125668">
        <ele>1054.448066</ele>
        <time>2021-09-14T23:15:24.000Z</time>
      </trkpt>
      <trkpt lat="40.907039" lon="-4.125653">
        <ele>1054.485417</ele>
        <time>2021-09-14T23:15:26.000Z</time>
      </trkpt>
      <trkpt lat="40.907031" lon="-4.125587">
        <ele>1054.649331</ele>
        <time>2021-09-14T23:15:33.000Z</time>
      </trkpt>
      <trkpt lat="40.907006" lon="-4.125486">
        <ele>1054.909949</ele>
        <time>2021-09-14T23:15:39.000Z</time>
      </trkpt>
      <trkpt lat="40.906963" lon="-4.125243">
        <ele>1055.521951</ele>
        <time>2021-09-14T23:15:45.000Z</time>
      </trkpt>
      <trkpt lat="40.906945" lon="-4.125111">
        <ele>1055.983209</ele>
        <time>2021-09-14T23:15:48.000Z</time>
      </trkpt>
      <trkpt lat="40.906891" lon="-4.124941">
        <ele>1056.997971</ele>
        <time>2021-09-14T23:15:52.000Z</time>
      </trkpt>
      <trkpt lat="40.906852" lon="-4.124818">
        <ele>1057.731982</ele>
        <time>2021-09-14T23:15:55.000Z</time>
      </trkpt>
      <trkpt lat="40.906813" lon="-4.124608">
        <ele>1058.921971</ele>
        <time>2021-09-14T23:16:00.000Z</time>
      </trkpt>
      <trkpt lat="40.906807" lon="-4.12457"/>
      <trkpt lat="40.906755" lon="-4.124422">
        <ele>1060.033734</ele>
        <time>2021-09-14T23:16:05.000Z</time>
      </trkpt>
      <trkpt lat="40.906749" lon="-4.124378">
        <ele>1060.279772</ele>
        <time>2021-09-14T23:16:06.000Z</time>
      </trkpt>
      <trkpt lat="40.906742" lon="-4.124217">
        <ele>1061.167206</ele>
        <time>2021-09-14T23:16:10.000Z</time>
      </trkpt>
      <trkpt lat="40.906694" lon="-4.124083">
        <ele>1061.983229</ele>
        <time>2021-09-14T23:16:14.000Z</time>
      </trkpt>
      <trkpt lat="40.906674" lon="-4.12406"/>
      <trkpt lat="40.906593" lon="-4.124026">
        <ele>1062.794907</ele>
        <time>2021-09-14T23:16:18.000Z</time>
      </trkpt>
      <trkpt lat="40.906538" lon="-4.124015">
        <ele>1063.199919</ele>
        <time>2021-09-14T23:16:20.000Z</time>
      </trkpt>
      <trkpt lat="40.906509" lon="-4.124013">
        <ele>1063.411359</ele>
        <time>2021-09-14T23:16:21.000Z</time>
      </trkpt>
      <trkpt lat="40.906393" lon="-4.123989">
        <ele>1064.266235</ele>
        <time>2021-09-14T23:16:25.000Z</time>
      </trkpt>
      <trkpt lat="40.906306" lon="-4.123978">
        <ele>1064.902581</ele>
        <time>2021-09-14T23:16:28.000Z</time>
      </trkpt>
      <trkpt lat="40.906275" lon="-4.123978">
        <ele>1065.128296</ele>
        <time>2021-09-14T23:16:29.000Z</time>
      </trkpt>
      <trkpt lat="40.906124" lon="-4.123961">
        <ele>1066.231722</ele>
        <time>2021-09-14T23:16:34.000Z</time>
      </trkpt>
      <trkpt lat="40.906027" lon="-4.12395"/>
      <trkpt lat="40.905971" lon="-4.123944">
        <ele>1067.349662</ele>
        <time>2021-09-14T23:16:39.000Z</time>
      </trkpt>
      <trkpt lat="40.905832" lon="-4.12393"/>
      <trkpt lat="40.905586" lon="-4.123924">
        <ele>1069.797000</ele>
        <time>2021-09-14T23:16:51.000Z</time>
      </trkpt>
      <trkpt lat="40.905377" lon="-4.123867">
        <ele>1070.926560</ele>
        <time>2021-09-14T23:16:57.000Z</time>
      </trkpt>
      <trkpt lat="40.905345" lon="-4.123848">
        <ele>1071.112220</ele>
        <time>2021-09-14T23:16:58.000Z</time>
      </trkpt>
      <trkpt lat="40.905228" lon="-4.123755">
        <ele>1071.834704</ele>
        <time>2021-09-14T23:17:02.000Z</time>
      </trkpt>
      <trkpt lat="40.905179" lon="-4.123703">
        <ele>1072.167197</ele>
        <time>2021-09-14T23:17:04.000Z</time>
      </trkpt>
      <trkpt lat="40.905073" lon="-4.123585">
        <ele>1072.900464</ele>
        <time>2021-09-14T23:17:08.000Z</time>
      </trkpt>
      <trkpt lat="40.904975" lon="-4.123451">
        <ele>1073.646445</ele>
        <time>2021-09-14T23:17:12.000Z</time>
      </trkpt>
      <trkpt lat="40.904949" lon="-4.123416">
        <ele>1073.842781</ele>
        <time>2021-09-14T23:17:13.000Z</time>
      </trkpt>
      <trkpt lat="40.904831" lon="-4.123223">
        <ele>1074.835919</ele>
        <time>2021-09-14T23:17:18.000Z</time>
      </trkpt>
      <trkpt lat="40.904807" lon="-4.123188">
        <ele>1075.024984</ele>
        <time>2021-09-14T23:17:19.000Z</time>
      </trkpt>
      <trkpt lat="40.904653" lon="-4.123081">
        <ele>1075.945717</ele>
        <time>2021-09-14T23:17:24.000Z</time>
      </trkpt>
      <trkpt lat="40.904619" lon="-4.12306"/>
      <trkpt lat="40.90451" lon="-4.122943"/>
      <trkpt lat="40.904485" lon="-4.122913">
        <ele>1077.065951</ele>
        <time>2021-09-14T23:17:30.000Z</time>
      </trkpt>
      <trkpt lat="40.904334" lon="-4.122728">
        <ele>1078.155288</ele>
        <time>2021-09-14T23:17:36.000Z</time>
      </trkpt>
      <trkpt lat="40.904282" lon="-4.12267"/>
      <trkpt lat="40.904112" lon="-4.122513">
        <ele>1079.471308</ele>
        <time>2021-09-14T23:17:44.000Z</time>
      </trkpt>
      <trkpt lat="40.903937" lon="-4.122325">
        <ele>1080.529706</ele>
        <time>2021-09-14T23:17:50.000Z</time>
      </trkpt>
      <trkpt lat="40.903726" lon="-4.122124">
        <ele>1081.750454</ele>
        <time>2021-09-14T23:17:57.000Z</time>
      </trkpt>
      <trkpt lat="40.90357" lon="-4.122001"/>
      <trkpt lat="40.903486" lon="-4.121912">
        <ele>1083.108368</ele>
        <time>2021-09-14T23:18:05.000Z</time>
      </trkpt>
      <trkpt lat="40.903303" lon="-4.121778">
        <ele>1084.090397</ele>
        <time>2021-09-14T23:18:11.000Z</time>
      </trkpt>
      <trkpt lat="40.903269" lon="-4.121758">
        <ele>1084.265099</ele>
        <time>2021-09-14T23:18:12.000Z</time>
      </trkpt>
      <trkpt lat="40.903131" lon="-4.121681">
        <ele>1084.968296</ele>
        <time>2021-09-14T23:18:16.000Z</time>
      </trkpt>
      <trkpt lat="40.90304" lon="-4.121619"/>
      <trkpt lat="40.902966" lon="-4.121571">
        <ele>1085.835833</ele>
        <time>2021-09-14T23:18:22.000Z</time>
      </trkpt>
      <trkpt lat="40.902918" lon="-4.12154"/>
      <trkpt lat="40.902803" lon="-4.121487">
        <ele>1086.658384</ele>
        <time>2021-09-14T23:18:28.000Z</time>
      </trkpt>
      <trkpt lat="40.902734" lon="-4.121452">
        <ele>1086.969553</ele>
        <time>2021-09-14T23:18:30.000Z</time>
      </trkpt>
      <trkpt lat="40.902634" lon="-4.12139"/>
      <trkpt lat="40.902484" lon="-4.121262">
        <ele>1088.082043</ele>
        <time>2021-09-14T23:18:38.000Z</time>
      </trkpt>
      <trkpt lat="40.902421" lon="-4.121212">
        <ele>1088.364915</ele>
        <time>2021-09-14T23:18:40.000Z</time>
      </trkpt>
      <trkpt lat="40.902231" lon="-4.121066">
        <ele>1089.210929</ele>
        <time>2021-09-14T23:18:46.000Z</time>
      </trkpt>
      <trkpt lat="40.902199" lon="-4.121043">
        <ele>1089.351149</ele>
        <time>2021-09-14T23:18:47.000Z</time>
      </trkpt>
      <trkpt lat="40.902046" lon="-4.120914">
        <ele>1090.049715</ele>
        <time>2021-09-14T23:18:52.000Z</time>
      </trkpt>
      <trkpt lat="40.901991" lon="-4.120853">
        <ele>1090.326053</ele>
        <time>2021-09-14T23:18:54.000Z</time>
      </trkpt>
      <trkpt lat="40.90186" lon="-4.120689"/>
      <trkpt lat="40.901761" lon="-4.120556">
        <ele>1091.563727</ele>
        <time>2021-09-14T23:19:03.000Z</time>
      </trkpt>
      <trkpt lat="40.901674" lon="-4.12042"/>
      <trkpt lat="40.901619" lon="-4.12036"/>
      <trkpt lat="40.901478" lon="-4.120223">
        <ele>1093.030316</ele>
        <time>2021-09-14T23:19:14.000Z</time>
      </trkpt>
      <trkpt lat="40.901451" lon="-4.120199">
        <ele>1093.155561</ele>
        <time>2021-09-14T23:19:15.000Z</time>
      </trkpt>
      <trkpt lat="40.901336" lon="-4.120029">
        <ele>1093.770435</ele>
        <time>2021-09-14T23:19:20.000Z</time>
      </trkpt>
      <trkpt lat="40.901304" lon="-4.119885">
        <ele>1093.962492</ele>
        <time>2021-09-14T23:19:23.000Z</time>
      </trkpt>
      <trkpt lat="40.901293" lon="-4.119779">
        <ele>1094.099400</ele>
        <time>2021-09-14T23:19:25.000Z</time>
      </trkpt>
      <trkpt lat="40.901264" lon="-4.119624">
        <ele>1094.303720</ele>
        <time>2021-09-14T23:19:28.000Z</time>
      </trkpt>
      <trkpt lat="40.901209" lon="-4.119547">
        <ele>1094.439283</ele>
        <time>2021-09-14T23:19:30.000Z</time>
      </trkpt>
      <trkpt lat="40.901133" lon="-4.119502">
        <ele>1094.580242</ele>
        <time>2021-09-14T23:19:32.000Z</time>
      </trkpt>
      <trkpt lat="40.901054" lon="-4.119463">
        <ele>1094.722990</ele>
        <time>2021-09-14T23:19:34.000Z</time>
      </trkpt>
      <trkpt lat="40.900975" lon="-4.119413">
        <ele>1094.871247</ele>
        <time>2021-09-14T23:19:36.000Z</time>
      </trkpt>
      <trkpt lat="40.900901" lon="-4.119352">
        <ele>1095.018850</ele>
        <time>2021-09-14T23:19:38.000Z</time>
      </trkpt>
      <trkpt lat="40.900745" lon="-4.119255">
        <ele>1095.310659</ele>
        <time>2021-09-14T23:19:42.000Z</time>
      </trkpt>
      <trkpt lat="40.900578" lon="-4.119184">
        <ele>1095.607615</ele>
        <time>2021-09-14T23:19:46.000Z</time>
      </trkpt>
      <trkpt lat="40.900537" lon="-4.119164">
        <ele>1095.681593</ele>
        <time>2021-09-14T23:19:47.000Z</time>
      </trkpt>
      <trkpt lat="40.900495" lon="-4.119148">
        <ele>1095.755585</ele>
        <time>2021-09-14T23:19:48.000Z</time>
      </trkpt>
      <trkpt lat="40.900451" lon="-4.119136">
        <ele>1095.831639</ele>
        <time>2021-09-14T23:19:49.000Z</time>
      </trkpt>
      <trkpt lat="40.900054" lon="-4.119019">
        <ele>1096.520203</ele>
        <time>2021-09-14T23:19:58.000Z</time>
      </trkpt>
      <trkpt lat="40.89978" lon="-4.118949"/>
      <trkpt lat="40.899734" lon="-4.118948">
        <ele>1097.139093</ele>
        <time>2021-09-14T23:20:05.000Z</time>
      </trkpt>
      <trkpt lat="40.899688" lon="-4.11895"/>
      <trkpt lat="40.899555" lon="-4.118964">
        <ele>1097.513826</ele>
        <time>2021-09-14T23:20:09.000Z</time>
      </trkpt>
      <trkpt lat="40.899469" lon="-4.118938">
        <ele>1097.698047</ele>
        <time>2021-09-14T23:20:11.000Z</time>
      </trkpt>
      <trkpt lat="40.899388" lon="-4.118885">
        <ele>1097.886756</ele>
        <time>2021-09-14T23:20:13.000Z</time>
      </trkpt>
      <trkpt lat="40.899348" lon="-4.118856">
        <ele>1097.982007</ele>
        <time>2021-09-14T23:20:14.000Z</time>
      </trkpt>
      <trkpt lat="40.899266" lon="-4.118807">
        <ele>1098.169904</ele>
        <time>2021-09-14T23:20:16.000Z</time>
      </trkpt>
      <trkpt lat="40.899229" lon="-4.118777">
        <ele>1098.260526</ele>
        <time>2021-09-14T23:20:17.000Z</time>
      </trkpt>
      <trkpt lat="40.899197" lon="-4.118738">
        <ele>1098.351384</ele>
        <time>2021-09-14T23:20:18.000Z</time>
      </trkpt>
      <trkpt lat="40.899135" lon="-4.118655">
        <ele>1098.535579</ele>
        <time>2021-09-14T23:20:20.000Z</time>
      </trkpt>
      <trkpt lat="40.899102" lon="-4.118617">
        <ele>1098.626940</ele>
        <time>2021-09-14T23:20:21.000Z</time>
      </trkpt>
      <trkpt lat="40.898861" lon="-4.118358">
        <ele>1099.275340</ele>
        <time>2021-09-14T23:20:28.000Z</time>
      </trkpt>
      <trkpt lat="40.898825" lon="-4.118325">
        <ele>1099.366801</ele>
        <time>2021-09-14T23:20:29.000Z</time>
      </trkpt>
      <trkpt lat="40.898786" lon="-4.118298">
        <ele>1099.458721</ele>
        <time>2021-09-14T23:20:30.000Z</time>
      </trkpt>
      <trkpt lat="40.898749" lon="-4.118269">
        <ele>1099.548529</ele>
        <time>2021-09-14T23:20:31.000Z</time>
      </trkpt>
      <trkpt lat="40.89868" lon="-4.118197"/>
      <trkpt lat="40.898396" lon="-4.117913">
        <ele>1100.475482</ele>
        <time>2021-09-14T23:20:41.000Z</time>
      </trkpt>
      <trkpt lat="40.898324" lon="-4.117841">
        <ele>1100.585764</ele>
        <time>2021-09-14T23:20:43.000Z</time>
      </trkpt>
      <trkpt lat="40.898151" lon="-4.117662">
        <ele>1100.770636</ele>
        <time>2021-09-14T23:20:48.000Z</time>
      </trkpt>
      <trkpt lat="40.898072" lon="-4.117611">
        <ele>1100.844629</ele>
        <time>2021-09-14T23:20:50.000Z</time>
      </trkpt>
      <trkpt lat="40.897986" lon="-4.11758"/>
      <trkpt lat="40.897898" lon="-4.117546">
        <ele>1100.996828</ele>
        <time>2021-09-14T23:20:54.000Z</time>
      </trkpt>
      <trkpt lat="40.897813" lon="-4.117499">
        <ele>1101.074375</ele>
        <time>2021-09-14T23:20:56.000Z</time>
      </trkpt>
      <trkpt lat="40.897773" lon="-4.117469">
        <ele>1101.113080</ele>
        <time>2021-09-14T23:20:57.000Z</time>
      </trkpt>
      <trkpt lat="40.897711" lon="-4.117382">
        <ele>1101.189158</ele>
        <time>2021-09-14T23:20:59.000Z</time>
      </trkpt>
      <trkpt lat="40.897681" lon="-4.117338">
        <ele>1101.226860</ele>
        <time>2021-09-14T23:21:00.000Z</time>
      </trkpt>
      <trkpt lat="40.897612" lon="-4.117266">
        <ele>1101.300833</ele>
        <time>2021-09-14T23:21:02.000Z</time>
      </trkpt>
      <trkpt lat="40.897574" lon="-4.117234">
        <ele>1101.338751</ele>
        <time>2021-09-14T23:21:03.000Z</time>
      </trkpt>
      <trkpt lat="40.897498" lon="-4.117171">
        <ele>1101.414245</ele>
        <time>2021-09-14T23:21:05.000Z</time>
      </trkpt>
      <trkpt lat="40.897306" lon="-4.116999">
        <ele>1101.609429</ele>
        <time>2021-09-14T23:21:10.000Z</time>
      </trkpt>
      <trkpt lat="40.897234" lon="-4.116919">
        <ele>1101.688575</ele>
        <time>2021-09-14T23:21:12.000Z</time>
      </trkpt>
      <trkpt lat="40.896993" lon="-4.116686">
        <ele>1101.939836</ele>
        <time>2021-09-14T23:21:18.000Z</time>
      </trkpt>
      <trkpt lat="40.896957" lon="-4.116634">
        <ele>1101.984702</ele>
        <time>2021-09-14T23:21:19.000Z</time>
      </trkpt>
      <trkpt lat="40.896866" lon="-4.116452">
        <ele>1101.937397</ele>
        <time>2021-09-14T23:21:22.000Z</time>
      </trkpt>
      <trkpt lat="40.896785" lon="-4.116355">
        <ele>1101.805772</ele>
        <time>2021-09-14T23:21:24.000Z</time>
      </trkpt>
      <trkpt lat="40.896499" lon="-4.116109">
        <ele>1101.394794</ele>
        <time>2021-09-14T23:21:30.000Z</time>
      </trkpt>
      <trkpt lat="40.896446" lon="-4.116078">
        <ele>1101.324981</ele>
        <time>2021-09-14T23:21:31.000Z</time>
      </trkpt>
      <trkpt lat="40.896339" lon="-4.116024">
        <ele>1101.187013</ele>
        <time>2021-09-14T23:21:33.000Z</time>
      </trkpt>
      <trkpt lat="40.896184" lon="-4.115938">
        <ele>1100.984521</ele>
        <time>2021-09-14T23:21:36.000Z</time>
      </trkpt>
      <trkpt lat="40.8961" lon="-4.115837"/>
      <trkpt lat="40.896067" lon="-4.115776">
        <ele>1100.779460</ele>
        <time>2021-09-14T23:21:39.000Z</time>
      </trkpt>
      <trkpt lat="40.896032" lon="-4.115718">
        <ele>1100.711875</ele>
        <time>2021-09-14T23:21:40.000Z</time>
      </trkpt>
      <trkpt lat="40.895893" lon="-4.115592">
        <ele>1100.508877</ele>
        <time>2021-09-14T23:21:43.000Z</time>
      </trkpt>
      <trkpt lat="40.895676" lon="-4.115483">
        <ele>1100.229239</ele>
        <time>2021-09-14T23:21:47.000Z</time>
      </trkpt>
      <trkpt lat="40.895573" lon="-4.115405">
        <ele>1100.086259</ele>
        <time>2021-09-14T23:21:49.000Z</time>
      </trkpt>
      <trkpt lat="40.89547" lon="-4.115325"/>
      <trkpt lat="40.895414" lon="-4.115296">
        <ele>1099.873008</ele>
        <time>2021-09-14T23:21:52.000Z</time>
      </trkpt>
      <trkpt lat="40.89524" lon="-4.115246"/>
      <trkpt lat="40.895182" lon="-4.11524"/>
      <trkpt lat="40.895126" lon="-4.115238">
        <ele>1099.627944</ele>
        <time>2021-09-14T23:21:57.000Z</time>
      </trkpt>
      <trkpt lat="40.89501" lon="-4.115229"/>
      <trkpt lat="40.894849" lon="-4.115154">
        <ele>1099.387379</ele>
        <time>2021-09-14T23:22:02.000Z</time>
      </trkpt>
      <trkpt lat="40.894576" lon="-4.115032">
        <ele>1099.145752</ele>
        <time>2021-09-14T23:22:07.000Z</time>
      </trkpt>
      <trkpt lat="40.894522" lon="-4.115013">
        <ele>1099.098897</ele>
        <time>2021-09-14T23:22:08.000Z</time>
      </trkpt>
      <trkpt lat="40.894414" lon="-4.114976">
        <ele>1099.005348</ele>
        <time>2021-09-14T23:22:10.000Z</time>
      </trkpt>
      <trkpt lat="40.89416" lon="-4.114816"/>
      <trkpt lat="40.894051" lon="-4.114775">
        <ele>1098.674426</ele>
        <time>2021-09-14T23:22:17.000Z</time>
      </trkpt>
      <trkpt lat="40.893887" lon="-4.11475"/>
      <trkpt lat="40.893782" lon="-4.114728">
        <ele>1098.446854</ele>
        <time>2021-09-14T23:22:22.000Z</time>
      </trkpt>
      <trkpt lat="40.893636" lon="-4.114635">
        <ele>1098.353938</ele>
        <time>2021-09-14T23:22:25.000Z</time>
      </trkpt>
      <trkpt lat="40.893536" lon="-4.114556">
        <ele>1098.325170</ele>
        <time>2021-09-14T23:22:27.000Z</time>
      </trkpt>
      <trkpt lat="40.893457" lon="-4.114434">
        <ele>1098.295178</ele>
        <time>2021-09-14T23:22:29.000Z</time>
      </trkpt>
      <trkpt lat="40.893352" lon="-4.114238">
        <ele>1098.250327</ele>
        <time>2021-09-14T23:22:32.000Z</time>
      </trkpt>
      <trkpt lat="40.893312" lon="-4.114087">
        <ele>1098.220454</ele>
        <time>2021-09-14T23:22:34.000Z</time>
      </trkpt>
      <trkpt lat="40.893299" lon="-4.113931">
        <ele>1098.191152</ele>
        <time>2021-09-14T23:22:36.000Z</time>
      </trkpt>
      <trkpt lat="40.89329" lon="-4.113639"/>
      <trkpt lat="40.893243" lon="-4.113388">
        <ele>1098.088311</ele>
        <time>2021-09-14T23:22:44.000Z</time>
      </trkpt>
      <trkpt lat="40.893199" lon="-4.113279">
        <ele>1098.065241</ele>
        <time>2021-09-14T23:22:46.000Z</time>
      </trkpt>
      <trkpt lat="40.893154" lon="-4.113197">
        <ele>1098.046323</ele>
        <time>2021-09-14T23:22:48.000Z</time>
      </trkpt>
      <trkpt lat="40.893085" lon="-4.113069">
        <ele>1098.016971</ele>
        <time>2021-09-14T23:22:51.000Z</time>
      </trkpt>
      <trkpt lat="40.892856" lon="-4.112669">
        <ele>1097.918370</ele>
        <time>2021-09-14T23:22:59.000Z</time>
      </trkpt>
      <trkpt lat="40.892818" lon="-4.112628">
        <ele>1097.892569</ele>
        <time>2021-09-14T23:23:00.000Z</time>
      </trkpt>
      <trkpt lat="40.892725" lon="-4.1126"/>
      <trkpt lat="40.89259" lon="-4.1127"/>
      <trkpt lat="40.892183" lon="-4.11308"/>
      <trkpt lat="40.891845" lon="-4.113373">
        <ele>1097.286229</ele>
        <time>2021-09-14T23:23:21.000Z</time>
      </trkpt>
      <trkpt lat="40.891588" lon="-4.11357"/>
      <trkpt lat="40.891541" lon="-4.113615">
        <ele>1097.099413</ele>
        <time>2021-09-14T23:23:27.000Z</time>
      </trkpt>
      <trkpt lat="40.891493" lon="-4.113661">
        <ele>1097.068226</ele>
        <time>2021-09-14T23:23:28.000Z</time>
      </trkpt>
      <trkpt lat="40.89134" lon="-4.113774"/>
      <trkpt lat="40.891231" lon="-4.113818">
        <ele>1097.156242</ele>
        <time>2021-09-14T23:23:33.000Z</time>
      </trkpt>
      <trkpt lat="40.89112" lon="-4.113839"/>
      <trkpt lat="40.891008" lon="-4.113845">
        <ele>1097.472926</ele>
        <time>2021-09-14T23:23:37.000Z</time>
      </trkpt>
      <trkpt lat="40.890894" lon="-4.11383"/>
      <trkpt lat="40.890495" lon="-4.113712">
        <ele>1098.212177</ele>
        <time>2021-09-14T23:23:46.000Z</time>
      </trkpt>
      <trkpt lat="40.890185" lon="-4.11355"/>
      <trkpt lat="40.889837" lon="-4.113412">
        <ele>1099.196055</ele>
        <time>2021-09-14T23:23:59.000Z</time>
      </trkpt>
      <trkpt lat="40.889487" lon="-4.11334"/>
      <trkpt lat="40.889437" lon="-4.113331">
        <ele>1099.836065</ele>
        <time>2021-09-14T23:24:07.000Z</time>
      </trkpt>
      <trkpt lat="40.889153" lon="-4.113284">
        <ele>1100.352820</ele>
        <time>2021-09-14T23:24:13.000Z</time>
      </trkpt>
      <trkpt lat="40.889057" lon="-4.113276">
        <ele>1100.526491</ele>
        <time>2021-09-14T23:24:15.000Z</time>
      </trkpt>
      <trkpt lat="40.888767" lon="-4.11324"/>
      <trkpt lat="40.88872" lon="-4.113219"/>
      <trkpt lat="40.888366" lon="-4.112992">
        <ele>1101.852235</ele>
        <time>2021-09-14T23:24:30.000Z</time>
      </trkpt>
      <trkpt lat="40.888018" lon="-4.112737">
        <ele>1102.570508</ele>
        <time>2021-09-14T23:24:38.000Z</time>
      </trkpt>
      <trkpt lat="40.887976" lon="-4.112702">
        <ele>1102.660132</ele>
        <time>2021-09-14T23:24:39.000Z</time>
      </trkpt>
      <trkpt lat="40.887486" lon="-4.112374">
        <ele>1103.731733</ele>
        <time>2021-09-14T23:24:50.000Z</time>
      </trkpt>
      <trkpt lat="40.887155" lon="-4.112248">
        <ele>1104.410028</ele>
        <time>2021-09-14T23:24:57.000Z</time>
      </trkpt>
      <trkpt lat="40.886977" lon="-4.112156">
        <ele>1104.786373</ele>
        <time>2021-09-14T23:25:01.000Z</time>
      </trkpt>
      <trkpt lat="40.886895" lon="-4.112097">
        <ele>1104.970201</ele>
        <time>2021-09-14T23:25:03.000Z</time>
      </trkpt>
      <trkpt lat="40.886608" lon="-4.111925">
        <ele>1105.590696</ele>
        <time>2021-09-14T23:25:10.000Z</time>
      </trkpt>
      <trkpt lat="40.886377" lon="-4.111883">
        <ele>1106.049882</ele>
        <time>2021-09-14T23:25:15.000Z</time>
      </trkpt>
      <trkpt lat="40.886286" lon="-4.111858">
        <ele>1106.232913</ele>
        <time>2021-09-14T23:25:17.000Z</time>
      </trkpt>
      <trkpt lat="40.88624" lon="-4.111846"/>
      <trkpt lat="40.88609" lon="-4.111708"/>
      <trkpt lat="40.885975" lon="-4.111752">
        <ele>1107.198984</ele>
        <time>2021-09-14T23:25:24.000Z</time>
      </trkpt>
      <trkpt lat="40.885756" lon="-4.111694">
        <ele>1107.902906</ele>
        <time>2021-09-14T23:25:29.000Z</time>
      </trkpt>
      <trkpt lat="40.88564" lon="-4.11168"/>
      <trkpt lat="40.885474" lon="-4.111619">
        <ele>1108.813020</ele>
        <time>2021-09-14T23:25:38.000Z</time>
      </trkpt>
      <trkpt lat="40.885434" lon="-4.111601">
        <ele>1108.946184</ele>
        <time>2021-09-14T23:25:40.000Z</time>
      </trkpt>
      <trkpt lat="40.885334" lon="-4.111548">
        <ele>1109.285713</ele>
        <time>2021-09-14T23:25:44.000Z</time>
      </trkpt>
      <trkpt lat="40.885123" lon="-4.111398">
        <ele>1110.040684</ele>
        <time>2021-09-14T23:25:51.000Z</time>
      </trkpt>
      <trkpt lat="40.885093" lon="-4.111384">
        <ele>1110.140947</ele>
        <time>2021-09-14T23:25:52.000Z</time>
      </trkpt>
      <trkpt lat="40.884991" lon="-4.111331">
        <ele>1110.486336</ele>
        <time>2021-09-14T23:25:56.000Z</time>
      </trkpt>
      <trkpt lat="40.884945" lon="-4.111318">
        <ele>1110.634587</ele>
        <time>2021-09-14T23:25:59.000Z</time>
      </trkpt>
      <trkpt lat="40.884942" lon="-4.111317">
        <ele>1110.644338</ele>
        <time>2021-09-14T23:26:00.000Z</time>
      </trkpt>
      <trkpt lat="40.88494" lon="-4.111316"/>
      <trkpt lat="40.884866" lon="-4.111305">
        <ele>1110.885771</ele>
        <time>2021-09-14T23:27:03.000Z</time>
      </trkpt>
      <trkpt lat="40.884811" lon="-4.111304">
        <ele>1111.059130</ele>
        <time>2021-09-14T23:27:06.000Z</time>
      </trkpt>
      <trkpt lat="40.884616" lon="-4.11134"/>
      <trkpt lat="40.884359" lon="-4.111407">
        <ele>1112.316708</ele>
        <time>2021-09-14T23:27:19.000Z</time>
      </trkpt>
      <trkpt lat="40.88406" lon="-4.1115"/>
      <trkpt lat="40.883916" lon="-4.111503">
        <ele>1113.228369</ele>
        <time>2021-09-14T23:27:29.000Z</time>
      </trkpt>
      <trkpt lat="40.883773" lon="-4.11148"/>
      <trkpt lat="40.88347" lon="-4.111352"/>
      <trkpt lat="40.883112" lon="-4.111251">
        <ele>1114.901837</ele>
        <time>2021-09-14T23:27:47.000Z</time>
      </trkpt>
      <trkpt lat="40.883023" lon="-4.111222">
        <ele>1115.087051</ele>
        <time>2021-09-14T23:27:49.000Z</time>
      </trkpt>
      <trkpt lat="40.882673" lon="-4.111138">
        <ele>1115.942451</ele>
        <time>2021-09-14T23:27:57.000Z</time>
      </trkpt>
      <trkpt lat="40.882585" lon="-4.111129">
        <ele>1116.248032</ele>
        <time>2021-09-14T23:27:59.000Z</time>
      </trkpt>
      <trkpt lat="40.88226" lon="-4.111096"/>
      <trkpt lat="40.882151" lon="-4.111095">
        <ele>1117.753936</ele>
        <time>2021-09-14T23:28:10.000Z</time>
      </trkpt>
      <trkpt lat="40.88195" lon="-4.111086"/>
      <trkpt lat="40.881885" lon="-4.111081">
        <ele>1118.675653</ele>
        <time>2021-09-14T23:28:18.000Z</time>
      </trkpt>
      <trkpt lat="40.881669" lon="-4.111081">
        <ele>1119.423483</ele>
        <time>2021-09-14T23:28:24.000Z</time>
      </trkpt>
      <trkpt lat="40.881452" lon="-4.111073">
        <ele>1120.175067</ele>
        <time>2021-09-14T23:28:30.000Z</time>
      </trkpt>
      <trkpt lat="40.8813" lon="-4.111051"/>
      <trkpt lat="40.881112" lon="-4.110969">
        <ele>1121.389828</ele>
        <time>2021-09-14T23:28:39.000Z</time>
      </trkpt>
      <trkpt lat="40.881075" lon="-4.110947">
        <ele>1121.530277</ele>
        <time>2021-09-14T23:28:40.000Z</time>
      </trkpt>
      <trkpt lat="40.880833" lon="-4.110773">
        <ele>1122.131356</ele>
        <time>2021-09-14T23:28:47.000Z</time>
      </trkpt>
      <trkpt lat="40.880796" lon="-4.11075"/>
      <trkpt lat="40.880614" lon="-4.110628">
        <ele>1122.513929</ele>
        <time>2021-09-14T23:28:53.000Z</time>
      </trkpt>
      <trkpt lat="40.88046" lon="-4.110556"/>
      <trkpt lat="40.880338" lon="-4.110537">
        <ele>1122.960949</ele>
        <time>2021-09-14T23:29:00.000Z</time>
      </trkpt>
      <trkpt lat="40.880252" lon="-4.11054"/>
      <trkpt lat="40.880207" lon="-4.110544">
        <ele>1123.165779</ele>
        <time>2021-09-14T23:29:03.000Z</time>
      </trkpt>
      <trkpt lat="40.879873" lon="-4.110558">
        <ele>1123.687754</ele>
        <time>2021-09-14T23:29:10.000Z</time>
      </trkpt>
      <trkpt lat="40.87956" lon="-4.110425"/>
      <trkpt lat="40.879273" lon="-4.110241">
        <ele>1124.696412</ele>
        <time>2021-09-14T23:29:24.000Z</time>
      </trkpt>
      <trkpt lat="40.879196" lon="-4.110174">
        <ele>1124.831294</ele>
        <time>2021-09-14T23:29:26.000Z</time>
      </trkpt>
      <trkpt lat="40.878866" lon="-4.109956">
        <ele>1125.371108</ele>
        <time>2021-09-14T23:29:34.000Z</time>
      </trkpt>
      <trkpt lat="40.878602" lon="-4.10976"/>
      <trkpt lat="40.878237" lon="-4.109376">
        <ele>1126.496681</ele>
        <time>2021-09-14T23:29:48.000Z</time>
      </trkpt>
      <trkpt lat="40.87816" lon="-4.10928"/>
      <trkpt lat="40.877873" lon="-4.108894">
        <ele>1127.250551</ele>
        <time>2021-09-14T23:29:58.000Z</time>
      </trkpt>
      <trkpt lat="40.877817" lon="-4.108785">
        <ele>1127.456616</ele>
        <time>2021-09-14T23:30:00.000Z</time>
      </trkpt>
      <trkpt lat="40.877714" lon="-4.108514">
        <ele>1127.970892</ele>
        <time>2021-09-14T23:30:05.000Z</time>
      </trkpt>
      <trkpt lat="40.877642" lon="-4.108305">
        <ele>1128.360308</ele>
        <time>2021-09-14T23:30:09.000Z</time>
      </trkpt>
      <trkpt lat="40.877598" lon="-4.108203">
        <ele>1128.559419</ele>
        <time>2021-09-14T23:30:11.000Z</time>
      </trkpt>
      <trkpt lat="40.877573" lon="-4.108154">
        <ele>1128.659646</ele>
        <time>2021-09-14T23:30:12.000Z</time>
      </trkpt>
      <trkpt lat="40.87739" lon="-4.107915"/>
      <trkpt lat="40.877355" lon="-4.107885">
        <ele>1129.329904</ele>
        <time>2021-09-14T23:30:19.000Z</time>
      </trkpt>
      <trkpt lat="40.877146" lon="-4.107752">
        <ele>1129.850008</ele>
        <time>2021-09-14T23:30:24.000Z</time>
      </trkpt>
      <trkpt lat="40.877099" lon="-4.107725">
        <ele>1129.964917</ele>
        <time>2021-09-14T23:30:25.000Z</time>
      </trkpt>
      <trkpt lat="40.876812" lon="-4.10756"/>
      <trkpt lat="40.876405" lon="-4.107243">
        <ele>1131.774897</ele>
        <time>2021-09-14T23:30:37.000Z</time>
      </trkpt>
      <trkpt lat="40.876214" lon="-4.106961">
        <ele>1132.493723</ele>
        <time>2021-09-14T23:30:42.000Z</time>
      </trkpt>
      <trkpt lat="40.876183" lon="-4.106904">
        <ele>1132.627036</ele>
        <time>2021-09-14T23:30:43.000Z</time>
      </trkpt>
      <trkpt lat="40.876012" lon="-4.106621">
        <ele>1133.314857</ele>
        <time>2021-09-14T23:30:48.000Z</time>
      </trkpt>
      <trkpt lat="40.875874" lon="-4.1064"/>
      <trkpt lat="40.875805" lon="-4.106309">
        <ele>1134.103748</ele>
        <time>2021-09-14T23:30:54.000Z</time>
      </trkpt>
      <trkpt lat="40.875734" lon="-4.106231">
        <ele>1134.335521</ele>
        <time>2021-09-14T23:30:56.000Z</time>
      </trkpt>
      <trkpt lat="40.875647" lon="-4.106076">
        <ele>1134.702042</ele>
        <time>2021-09-14T23:30:59.000Z</time>
      </trkpt>
      <trkpt lat="40.875442" lon="-4.105702">
        <ele>1135.579110</ele>
        <time>2021-09-14T23:31:06.000Z</time>
      </trkpt>
      <trkpt lat="40.875412" lon="-4.105651">
        <ele>1135.701795</ele>
        <time>2021-09-14T23:31:07.000Z</time>
      </trkpt>
      <trkpt lat="40.875268" lon="-4.105402">
        <ele>1136.854604</ele>
        <time>2021-09-14T23:31:12.000Z</time>
      </trkpt>
      <trkpt lat="40.875244" lon="-4.105288">
        <ele>1137.349346</ele>
        <time>2021-09-14T23:31:14.000Z</time>
      </trkpt>
      <trkpt lat="40.875236" lon="-4.105232">
        <ele>1137.587614</ele>
        <time>2021-09-14T23:31:15.000Z</time>
      </trkpt>
      <trkpt lat="40.875207" lon="-4.105123">
        <ele>1138.070710</ele>
        <time>2021-09-14T23:31:17.000Z</time>
      </trkpt>
      <trkpt lat="40.875165" lon="-4.10496"/>
      <trkpt lat="40.875148" lon="-4.104845">
        <ele>1139.280563</ele>
        <time>2021-09-14T23:31:22.000Z</time>
      </trkpt>
      <trkpt lat="40.875112" lon="-4.104508">
        <ele>1140.703493</ele>
        <time>2021-09-14T23:31:28.000Z</time>
      </trkpt>
      <trkpt lat="40.875038" lon="-4.104147">
        <ele>1142.267251</ele>
        <time>2021-09-14T23:31:35.000Z</time>
      </trkpt>
      <trkpt lat="40.875014" lon="-4.103833">
        <ele>1143.586723</ele>
        <time>2021-09-14T23:31:42.000Z</time>
      </trkpt>
      <trkpt lat="40.874968" lon="-4.10366"/>
      <trkpt lat="40.874947" lon="-4.103599">
        <ele>1144.633644</ele>
        <time>2021-09-14T23:31:49.000Z</time>
      </trkpt>
      <trkpt lat="40.874884" lon="-4.103513">
        <ele>1145.134261</ele>
        <time>2021-09-14T23:31:53.000Z</time>
      </trkpt>
      <trkpt lat="40.874836" lon="-4.103486">
        <ele>1145.422671</ele>
        <time>2021-09-14T23:31:55.000Z</time>
      </trkpt>
      <trkpt lat="40.874775" lon="-4.103433">
        <ele>1145.820835</ele>
        <time>2021-09-14T23:31:58.000Z</time>
      </trkpt>
      <trkpt lat="40.874756" lon="-4.103411">
        <ele>1145.944816</ele>
        <time>2021-09-14T23:31:59.000Z</time>
      </trkpt>
      <trkpt lat="40.874719" lon="-4.103364">
        <ele>1146.196688</ele>
        <time>2021-09-14T23:32:01.000Z</time>
      </trkpt>
      <trkpt lat="40.874649" lon="-4.103274">
        <ele>1146.675990</ele>
        <time>2021-09-14T23:32:05.000Z</time>
      </trkpt>
      <trkpt lat="40.87459" lon="-4.10322"/>
      <trkpt lat="40.874538" lon="-4.103188">
        <ele>1147.309830</ele>
        <time>2021-09-14T23:32:10.000Z</time>
      </trkpt>
      <trkpt lat="40.874456" lon="-4.103157">
        <ele>1147.728534</ele>
        <time>2021-09-14T23:32:13.000Z</time>
      </trkpt>
      <trkpt lat="40.874408" lon="-4.103128">
        <ele>1147.987615</ele>
        <time>2021-09-14T23:32:15.000Z</time>
      </trkpt>
      <trkpt lat="40.874386" lon="-4.103107">
        <ele>1148.120820</ele>
        <time>2021-09-14T23:32:16.000Z</time>
      </trkpt>
      <trkpt lat="40.874261" lon="-4.102994">
        <ele>1148.864178</ele>
        <time>2021-09-14T23:32:21.000Z</time>
      </trkpt>
      <trkpt lat="40.874242" lon="-4.102961">
        <ele>1149.018155</ele>
        <time>2021-09-14T23:32:22.000Z</time>
      </trkpt>
      <trkpt lat="40.874236" lon="-4.102926">
        <ele>1149.151383</ele>
        <time>2021-09-14T23:32:23.000Z</time>
      </trkpt>
      <trkpt lat="40.874242" lon="-4.102845">
        <ele>1149.453518</ele>
        <time>2021-09-14T23:32:25.000Z</time>
      </trkpt>
      <trkpt lat="40.87426" lon="-4.10276"/>
      <trkpt lat="40.874268" lon="-4.102683">
        <ele>1150.069737</ele>
        <time>2021-09-14T23:32:29.000Z</time>
      </trkpt>
      <trkpt lat="40.87427" lon="-4.10265"/>
      <trkpt lat="40.874299" lon="-4.102588">
        <ele>1150.463274</ele>
        <time>2021-09-14T23:32:32.000Z</time>
      </trkpt>
      <trkpt lat="40.874312" lon="-4.102509">
        <ele>1150.763410</ele>
        <time>2021-09-14T23:32:34.000Z</time>
      </trkpt>
      <trkpt lat="40.874231" lon="-4.102322">
        <ele>1151.563443</ele>
        <time>2021-09-14T23:32:39.000Z</time>
      </trkpt>
      <trkpt lat="40.874161" lon="-4.102225">
        <ele>1152.061210</ele>
        <time>2021-09-14T23:32:42.000Z</time>
      </trkpt>
      <trkpt lat="40.874063" lon="-4.102091">
        <ele>1152.753266</ele>
        <time>2021-09-14T23:32:46.000Z</time>
      </trkpt>
      <trkpt lat="40.873886" lon="-4.101818">
        <ele>1154.088268</ele>
        <time>2021-09-14T23:32:54.000Z</time>
      </trkpt>
      <trkpt lat="40.87382" lon="-4.101709"/>
      <trkpt lat="40.87367" lon="-4.101509"/>
      <trkpt lat="40.873558" lon="-4.10138"/>
      <trkpt lat="40.873407" lon="-4.10123"/>
      <trkpt lat="40.873181" lon="-4.101163">
        <ele>1156.457739</ele>
        <time>2021-09-14T23:33:19.000Z</time>
      </trkpt>
      <trkpt lat="40.87315" lon="-4.101151"/>
      <trkpt lat="40.873031" lon="-4.101075">
        <ele>1156.846813</ele>
        <time>2021-09-14T23:33:24.000Z</time>
      </trkpt>
      <trkpt lat="40.87289" lon="-4.101068"/>
      <trkpt lat="40.872853" lon="-4.101066">
        <ele>1157.268252</ele>
        <time>2021-09-14T23:33:29.000Z</time>
      </trkpt>
      <trkpt lat="40.872598" lon="-4.101059">
        <ele>1157.871687</ele>
        <time>2021-09-14T23:33:36.000Z</time>
      </trkpt>
      <trkpt lat="40.872533" lon="-4.101061">
        <ele>1158.025512</ele>
        <time>2021-09-14T23:33:38.000Z</time>
      </trkpt>
      <trkpt lat="40.872276" lon="-4.101061">
        <ele>1158.633549</ele>
        <time>2021-09-14T23:33:45.000Z</time>
      </trkpt>
      <trkpt lat="40.87195" lon="-4.100989"/>
      <trkpt lat="40.871586" lon="-4.100926">
        <ele>1160.019033</ele>
        <time>2021-09-14T23:33:59.000Z</time>
      </trkpt>
      <trkpt lat="40.871285" lon="-4.100902">
        <ele>1160.599325</ele>
        <time>2021-09-14T23:34:05.000Z</time>
      </trkpt>
      <trkpt lat="40.870852" lon="-4.100903">
        <ele>1161.432585</ele>
        <time>2021-09-14T23:34:14.000Z</time>
      </trkpt>
      <trkpt lat="40.870575" lon="-4.100908">
        <ele>1161.965690</ele>
        <time>2021-09-14T23:34:21.000Z</time>
      </trkpt>
      <trkpt lat="40.870297" lon="-4.100894">
        <ele>1162.536930</ele>
        <time>2021-09-14T23:34:28.000Z</time>
      </trkpt>
      <trkpt lat="40.870187" lon="-4.100887">
        <ele>1162.792096</ele>
        <time>2021-09-14T23:34:31.000Z</time>
      </trkpt>
      <trkpt lat="40.87" lon="-4.100866"/>
      <trkpt lat="40.869845" lon="-4.100874">
        <ele>1163.586346</ele>
        <time>2021-09-14T23:34:40.000Z</time>
      </trkpt>
      <trkpt lat="40.869729" lon="-4.100876">
        <ele>1163.855141</ele>
        <time>2021-09-14T23:34:43.000Z</time>
      </trkpt>
      <trkpt lat="40.869656" lon="-4.100877">
        <ele>1164.024292</ele>
        <time>2021-09-14T23:34:45.000Z</time>
      </trkpt>
      <trkpt lat="40.869469" lon="-4.100873">
        <ele>1164.457629</ele>
        <time>2021-09-14T23:34:50.000Z</time>
      </trkpt>
      <trkpt lat="40.869371" lon="-4.10088"/>
      <trkpt lat="40.869284" lon="-4.100901">
        <ele>1164.889937</ele>
        <time>2021-09-14T23:34:57.000Z</time>
      </trkpt>
      <trkpt lat="40.869279" lon="-4.100899">
        <ele>1164.902041</ele>
        <time>2021-09-14T23:34:58.000Z</time>
      </trkpt>
      <trkpt lat="40.869279" lon="-4.100899">
        <ele>1164.902041</ele>
        <time>2021-09-14T23:34:58.000Z</time>
      </trkpt>
      <trkpt lat="40.869248" lon="-4.100854">
        <ele>1165.008698</ele>
        <time>2021-09-14T23:36:16.000Z</time>
      </trkpt>
      <trkpt lat="40.86922" lon="-4.100826"/>
      <trkpt lat="40.869188" lon="-4.1008"/>
      <trkpt lat="40.86917" lon="-4.100759"/>
      <trkpt lat="40.869171" lon="-4.100689">
        <ele>1165.382794</ele>
        <time>2021-09-14T23:36:28.000Z</time>
      </trkpt>
      <trkpt lat="40.86926" lon="-4.100579"/>
      <trkpt lat="40.869328" lon="-4.100581">
        <ele>1165.822650</ele>
        <time>2021-09-14T23:36:34.000Z</time>
      </trkpt>
      <trkpt lat="40.869434" lon="-4.10059"/>
      <trkpt lat="40.869631" lon="-4.100585">
        <ele>1166.515148</ele>
        <time>2021-09-14T23:36:42.000Z</time>
      </trkpt>
      <trkpt lat="40.869721" lon="-4.100593">
        <ele>1166.659095</ele>
        <time>2021-09-14T23:36:44.000Z</time>
      </trkpt>
      <trkpt lat="40.870105" lon="-4.100596">
        <ele>1167.271900</ele>
        <time>2021-09-14T23:36:51.000Z</time>
      </trkpt>
      <trkpt lat="40.870232" lon="-4.100602">
        <ele>1167.474698</ele>
        <time>2021-09-14T23:36:53.000Z</time>
      </trkpt>
      <trkpt lat="40.87033" lon="-4.100548"/>
      <trkpt lat="40.870347" lon="-4.100445">
        <ele>1167.771342</ele>
        <time>2021-09-14T23:36:57.000Z</time>
      </trkpt>
      <trkpt lat="40.870268" lon="-4.100307">
        <ele>1167.980210</ele>
        <time>2021-09-14T23:37:00.000Z</time>
      </trkpt>
      <trkpt lat="40.870193" lon="-4.100218">
        <ele>1168.141020</ele>
        <time>2021-09-14T23:37:02.000Z</time>
      </trkpt>
      <trkpt lat="40.870048" lon="-4.100012">
        <ele>1168.480637</ele>
        <time>2021-09-14T23:37:06.000Z</time>
      </trkpt>
      <trkpt lat="40.869949" lon="-4.099795">
        <ele>1168.786468</ele>
        <time>2021-09-14T23:37:09.000Z</time>
      </trkpt>
      <trkpt lat="40.869921" lon="-4.099713">
        <ele>1168.895043</ele>
        <time>2021-09-14T23:37:10.000Z</time>
      </trkpt>
      <trkpt lat="40.869681" lon="-4.099075">
        <ele>1171.084287</ele>
        <time>2021-09-14T23:37:18.000Z</time>
      </trkpt>
      <trkpt lat="40.869655" lon="-4.098997">
        <ele>1171.536033</ele>
        <time>2021-09-14T23:37:19.000Z</time>
      </trkpt>
      <trkpt lat="40.869635" lon="-4.098919">
        <ele>1171.972517</ele>
        <time>2021-09-14T23:37:20.000Z</time>
      </trkpt>
      <trkpt lat="40.869623" lon="-4.098848">
        <ele>1172.358072</ele>
        <time>2021-09-14T23:37:21.000Z</time>
      </trkpt>
      <trkpt lat="40.869603" lon="-4.098721">
        <ele>1173.045559</ele>
        <time>2021-09-14T23:37:23.000Z</time>
      </trkpt>
      <trkpt lat="40.869604" lon="-4.098607">
        <ele>1173.649754</ele>
        <time>2021-09-14T23:37:25.000Z</time>
      </trkpt>
      <trkpt lat="40.8696" lon="-4.09851"/>
      <trkpt lat="40.869575" lon="-4.0984"/>
      <trkpt lat="40.869557" lon="-4.098345">
        <ele>1175.090896</ele>
        <time>2021-09-14T23:37:30.000Z</time>
      </trkpt>
      <trkpt lat="40.86954" lon="-4.098287"/>
      <trkpt lat="40.86953" lon="-4.098226"/>
      <trkpt lat="40.869517" lon="-4.098166">
        <ele>1176.082109</ele>
        <time>2021-09-14T23:37:33.000Z</time>
      </trkpt>
      <trkpt lat="40.869475" lon="-4.098069">
        <ele>1176.674475</ele>
        <time>2021-09-14T23:37:35.000Z</time>
      </trkpt>
      <trkpt lat="40.869442" lon="-4.098035">
        <ele>1176.967652</ele>
        <time>2021-09-14T23:37:36.000Z</time>
      </trkpt>
      <trkpt lat="40.869408" lon="-4.098005">
        <ele>1177.254103</ele>
        <time>2021-09-14T23:37:37.000Z</time>
      </trkpt>
      <trkpt lat="40.869383" lon="-4.097969">
        <ele>1177.513131</ele>
        <time>2021-09-14T23:37:38.000Z</time>
      </trkpt>
      <trkpt lat="40.869363" lon="-4.097878">
        <ele>1178.015351</ele>
        <time>2021-09-14T23:37:40.000Z</time>
      </trkpt>
      <trkpt lat="40.869353" lon="-4.097836">
        <ele>1178.248707</ele>
        <time>2021-09-14T23:37:41.000Z</time>
      </trkpt>
      <trkpt lat="40.869309" lon="-4.097646">
        <ele>1179.301792</ele>
        <time>2021-09-14T23:37:45.000Z</time>
      </trkpt>
      <trkpt lat="40.8693" lon="-4.097596"/>
      <trkpt lat="40.869267" lon="-4.097441">
        <ele>1180.427552</ele>
        <time>2021-09-14T23:37:49.000Z</time>
      </trkpt>
      <trkpt lat="40.869242" lon="-4.097343">
        <ele>1180.975670</ele>
        <time>2021-09-14T23:37:51.000Z</time>
      </trkpt>
      <trkpt lat="40.869184" lon="-4.097087">
        <ele>1182.279575</ele>
        <time>2021-09-14T23:37:56.000Z</time>
      </trkpt>
      <trkpt lat="40.869161" lon="-4.096992">
        <ele>1182.668010</ele>
        <time>2021-09-14T23:37:58.000Z</time>
      </trkpt>
      <trkpt lat="40.869151" lon="-4.096943">
        <ele>1182.865647</ele>
        <time>2021-09-14T23:37:59.000Z</time>
      </trkpt>
      <trkpt lat="40.869112" lon="-4.09674"/>
      <trkpt lat="40.869113" lon="-4.096689">
        <ele>1183.879924</ele>
        <time>2021-09-14T23:38:04.000Z</time>
      </trkpt>
      <trkpt lat="40.869115" lon="-4.096604">
        <ele>1184.211081</ele>
        <time>2021-09-14T23:38:06.000Z</time>
      </trkpt>
      <trkpt lat="40.869116" lon="-4.096499">
        <ele>1184.619993</ele>
        <time>2021-09-14T23:38:09.000Z</time>
      </trkpt>
      <trkpt lat="40.869124" lon="-4.096436">
        <ele>1184.868755</ele>
        <time>2021-09-14T23:38:11.000Z</time>
      </trkpt>
      <trkpt lat="40.869127" lon="-4.096363">
        <ele>1185.153443</ele>
        <time>2021-09-14T23:38:14.000Z</time>
      </trkpt>
      <trkpt lat="40.869125" lon="-4.096319">
        <ele>1185.325092</ele>
        <time>2021-09-14T23:38:16.000Z</time>
      </trkpt>
      <trkpt lat="40.869123" lon="-4.096299">
        <ele>1185.403652</ele>
        <time>2021-09-14T23:38:17.000Z</time>
      </trkpt>
      <trkpt lat="40.869115" lon="-4.096284">
        <ele>1185.475129</ele>
        <time>2021-09-14T23:38:18.000Z</time>
      </trkpt>
      <trkpt lat="40.869092" lon="-4.096275">
        <ele>1185.598644</ele>
        <time>2021-09-14T23:38:20.000Z</time>
      </trkpt>
      <trkpt lat="40.869102" lon="-4.096254">
        <ele>1185.695282</ele>
        <time>2021-09-14T23:38:24.000Z</time>
      </trkpt>
      <trkpt lat="40.86909" lon="-4.096279"/>
      <trkpt lat="40.86909" lon="-4.096231"/>
      <trkpt lat="40.86908" lon="-4.096213"/>
      <trkpt lat="40.869027" lon="-4.096174">
        <ele>1186.396816</ele>
        <time>2021-09-14T23:40:15.000Z</time>
      </trkpt>
      <trkpt lat="40.868992" lon="-4.096119">
        <ele>1186.676735</ele>
        <time>2021-09-14T23:40:17.000Z</time>
      </trkpt>
      <trkpt lat="40.868881" lon="-4.095876">
        <ele>1187.782239</ele>
        <time>2021-09-14T23:40:24.000Z</time>
      </trkpt>
      <trkpt lat="40.868765" lon="-4.095566">
        <ele>1189.129118</ele>
        <time>2021-09-14T23:40:31.000Z</time>
      </trkpt>
      <trkpt lat="40.868698" lon="-4.095329">
        <ele>1190.114404</ele>
        <time>2021-09-14T23:40:36.000Z</time>
      </trkpt>
      <trkpt lat="40.868671" lon="-4.095235">
        <ele>1190.505966</ele>
        <time>2021-09-14T23:40:38.000Z</time>
      </trkpt>
      <trkpt lat="40.868559" lon="-4.094973">
        <ele>1191.476471</ele>
        <time>2021-09-14T23:40:44.000Z</time>
      </trkpt>
      <trkpt lat="40.868462" lon="-4.094819">
        <ele>1191.905628</ele>
        <time>2021-09-14T23:40:48.000Z</time>
      </trkpt>
      <trkpt lat="40.868383" lon="-4.094719">
        <ele>1192.215286</ele>
        <time>2021-09-14T23:40:51.000Z</time>
      </trkpt>
      <trkpt lat="40.868315" lon="-4.094598">
        <ele>1192.538091</ele>
        <time>2021-09-14T23:40:54.000Z</time>
      </trkpt>
      <trkpt lat="40.868272" lon="-4.094459">
        <ele>1192.859668</ele>
        <time>2021-09-14T23:40:57.000Z</time>
      </trkpt>
      <trkpt lat="40.868249" lon="-4.094362">
        <ele>1193.077342</ele>
        <time>2021-09-14T23:40:59.000Z</time>
      </trkpt>
      <trkpt lat="40.868179" lon="-4.094079">
        <ele>1193.714913</ele>
        <time>2021-09-14T23:41:05.000Z</time>
      </trkpt>
      <trkpt lat="40.868082" lon="-4.093807">
        <ele>1194.358852</ele>
        <time>2021-09-14T23:41:11.000Z</time>
      </trkpt>
      <trkpt lat="40.867999" lon="-4.093576">
        <ele>1194.906481</ele>
        <time>2021-09-14T23:41:16.000Z</time>
      </trkpt>
      <trkpt lat="40.867945" lon="-4.093443">
        <ele>1195.229722</ele>
        <time>2021-09-14T23:41:19.000Z</time>
      </trkpt>
      <trkpt lat="40.867855" lon="-4.093181">
        <ele>1195.845904</ele>
        <time>2021-09-14T23:41:25.000Z</time>
      </trkpt>
      <trkpt lat="40.867806" lon="-4.092994">
        <ele>1196.269680</ele>
        <time>2021-09-14T23:41:29.000Z</time>
      </trkpt>
      <trkpt lat="40.867762" lon="-4.092864">
        <ele>1196.853674</ele>
        <time>2021-09-14T23:41:32.000Z</time>
      </trkpt>
      <trkpt lat="40.867672" lon="-4.09261"/>
      <trkpt lat="40.867645" lon="-4.092541">
        <ele>1198.472033</ele>
        <time>2021-09-14T23:41:41.000Z</time>
      </trkpt>
      <trkpt lat="40.867571" lon="-4.092371">
        <ele>1199.358280</ele>
        <time>2021-09-14T23:41:46.000Z</time>
      </trkpt>
      <trkpt lat="40.867532" lon="-4.092264">
        <ele>1199.894948</ele>
        <time>2021-09-14T23:41:49.000Z</time>
      </trkpt>
      <trkpt lat="40.867524" lon="-4.092225">
        <ele>1200.077524</ele>
        <time>2021-09-14T23:41:50.000Z</time>
      </trkpt>
      <trkpt lat="40.867505" lon="-4.091979">
        <ele>1201.194777</ele>
        <time>2021-09-14T23:41:56.000Z</time>
      </trkpt>
      <trkpt lat="40.867506" lon="-4.09171"/>
      <trkpt lat="40.867501" lon="-4.091599">
        <ele>1202.912588</ele>
        <time>2021-09-14T23:42:06.000Z</time>
      </trkpt>
      <trkpt lat="40.867451" lon="-4.091472">
        <ele>1203.559501</ele>
        <time>2021-09-14T23:42:10.000Z</time>
      </trkpt>
      <trkpt lat="40.867393" lon="-4.091387">
        <ele>1204.076776</ele>
        <time>2021-09-14T23:42:13.000Z</time>
      </trkpt>
      <trkpt lat="40.867321" lon="-4.09127"/>
      <trkpt lat="40.867251" lon="-4.091067">
        <ele>1205.766362</ele>
        <time>2021-09-14T23:42:23.000Z</time>
      </trkpt>
      <trkpt lat="40.867244" lon="-4.091031">
        <ele>1205.934308</ele>
        <time>2021-09-14T23:42:24.000Z</time>
      </trkpt>
      <trkpt lat="40.867225" lon="-4.090891">
        <ele>1206.576960</ele>
        <time>2021-09-14T23:42:28.000Z</time>
      </trkpt>
      <trkpt lat="40.867206" lon="-4.090785">
        <ele>1207.069158</ele>
        <time>2021-09-14T23:42:31.000Z</time>
      </trkpt>
      <trkpt lat="40.867167" lon="-4.090618">
        <ele>1208.238602</ele>
        <time>2021-09-14T23:42:36.000Z</time>
      </trkpt>
      <trkpt lat="40.867144" lon="-4.090558">
        <ele>1208.688758</ele>
        <time>2021-09-14T23:42:38.000Z</time>
      </trkpt>
      <trkpt lat="40.867095" lon="-4.090449">
        <ele>1209.537331</ele>
        <time>2021-09-14T23:42:42.000Z</time>
      </trkpt>
      <trkpt lat="40.867062" lon="-4.090364">
        <ele>1210.176730</ele>
        <time>2021-09-14T23:42:45.000Z</time>
      </trkpt>
      <trkpt lat="40.867054" lon="-4.090333">
        <ele>1210.395927</ele>
        <time>2021-09-14T23:42:46.000Z</time>
      </trkpt>
      <trkpt lat="40.867001" lon="-4.090152">
        <ele>1211.694807</ele>
        <time>2021-09-14T23:42:52.000Z</time>
      </trkpt>
      <trkpt lat="40.86699" lon="-4.090123"/>
      <trkpt lat="40.866949" lon="-4.090045">
        <ele>1212.547600</ele>
        <time>2021-09-14T23:42:56.000Z</time>
      </trkpt>
      <trkpt lat="40.866913" lon="-4.089965">
        <ele>1213.170574</ele>
        <time>2021-09-14T23:42:59.000Z</time>
      </trkpt>
      <trkpt lat="40.866887" lon="-4.089915">
        <ele>1213.576643</ele>
        <time>2021-09-14T23:43:01.000Z</time>
      </trkpt>
      <trkpt lat="40.866824" lon="-4.089753">
        <ele>1214.795693</ele>
        <time>2021-09-14T23:43:07.000Z</time>
      </trkpt>
      <trkpt lat="40.866819" lon="-4.089727">
        <ele>1214.975222</ele>
        <time>2021-09-14T23:43:08.000Z</time>
      </trkpt>
      <trkpt lat="40.866795" lon="-4.089632">
        <ele>1215.645499</ele>
        <time>2021-09-14T23:43:12.000Z</time>
      </trkpt>
      <trkpt lat="40.866783" lon="-4.089525">
        <ele>1216.369374</ele>
        <time>2021-09-14T23:43:16.000Z</time>
      </trkpt>
      <trkpt lat="40.866783" lon="-4.089497">
        <ele>1216.556750</ele>
        <time>2021-09-14T23:43:17.000Z</time>
      </trkpt>
      <trkpt lat="40.866778" lon="-4.089386">
        <ele>1217.300879</ele>
        <time>2021-09-14T23:43:21.000Z</time>
      </trkpt>
      <trkpt lat="40.866767" lon="-4.089298">
        <ele>1217.897767</ele>
        <time>2021-09-14T23:43:24.000Z</time>
      </trkpt>
      <trkpt lat="40.866754" lon="-4.089239">
        <ele>1218.309013</ele>
        <time>2021-09-14T23:43:26.000Z</time>
      </trkpt>
      <trkpt lat="40.866701" lon="-4.089077">
        <ele>1219.490220</ele>
        <time>2021-09-14T23:43:32.000Z</time>
      </trkpt>
      <trkpt lat="40.866693" lon="-4.089049">
        <ele>1219.690523</ele>
        <time>2021-09-14T23:43:33.000Z</time>
      </trkpt>
      <trkpt lat="40.866652" lon="-4.088946">
        <ele>1220.469457</ele>
        <time>2021-09-14T23:43:37.000Z</time>
      </trkpt>
      <trkpt lat="40.866625" lon="-4.088902">
        <ele>1220.848648</ele>
        <time>2021-09-14T23:43:39.000Z</time>
      </trkpt>
      <trkpt lat="40.866594" lon="-4.088856">
        <ele>1221.260976</ele>
        <time>2021-09-14T23:43:41.000Z</time>
      </trkpt>
      <trkpt lat="40.866555" lon="-4.08875"/>
      <trkpt lat="40.866548" lon="-4.088722">
        <ele>1222.247180</ele>
        <time>2021-09-14T23:43:46.000Z</time>
      </trkpt>
      <trkpt lat="40.866525" lon="-4.088579">
        <ele>1223.150270</ele>
        <time>2021-09-14T23:43:51.000Z</time>
      </trkpt>
      <trkpt lat="40.866521" lon="-4.088549">
        <ele>1223.290072</ele>
        <time>2021-09-14T23:43:52.000Z</time>
      </trkpt>
      <trkpt lat="40.866435" lon="-4.088444">
        <ele>1224.000413</ele>
        <time>2021-09-14T23:43:57.000Z</time>
      </trkpt>
      <trkpt lat="40.866298" lon="-4.088355">
        <ele>1224.926723</ele>
        <time>2021-09-14T23:44:03.000Z</time>
      </trkpt>
      <trkpt lat="40.866276" lon="-4.088342">
        <ele>1225.072957</ele>
        <time>2021-09-14T23:44:04.000Z</time>
      </trkpt>
      <trkpt lat="40.866108" lon="-4.088238">
        <ele>1226.198671</ele>
        <time>2021-09-14T23:44:11.000Z</time>
      </trkpt>
      <trkpt lat="40.866085" lon="-4.088222">
        <ele>1226.356386</ele>
        <time>2021-09-14T23:44:12.000Z</time>
      </trkpt>
      <trkpt lat="40.865941" lon="-4.088146">
        <ele>1227.297298</ele>
        <time>2021-09-14T23:44:18.000Z</time>
      </trkpt>
      <trkpt lat="40.865816" lon="-4.088045">
        <ele>1228.186280</ele>
        <time>2021-09-14T23:44:24.000Z</time>
      </trkpt>
      <trkpt lat="40.865739" lon="-4.087974">
        <ele>1228.755952</ele>
        <time>2021-09-14T23:44:28.000Z</time>
      </trkpt>
      <trkpt lat="40.865695" lon="-4.087944">
        <ele>1229.056376</ele>
        <time>2021-09-14T23:44:30.000Z</time>
      </trkpt>
      <trkpt lat="40.865611" lon="-4.08789"/>
      <trkpt lat="40.865522" lon="-4.08784"/>
      <trkpt lat="40.865499" lon="-4.087822">
        <ele>1230.372208</ele>
        <time>2021-09-14T23:44:39.000Z</time>
      </trkpt>
      <trkpt lat="40.865386" lon="-4.087737">
        <ele>1231.161150</ele>
        <time>2021-09-14T23:44:44.000Z</time>
      </trkpt>
      <trkpt lat="40.865315" lon="-4.087699">
        <ele>1231.625977</ele>
        <time>2021-09-14T23:44:47.000Z</time>
      </trkpt>
      <trkpt lat="40.86524" lon="-4.087612"/>
      <trkpt lat="40.865222" lon="-4.087592">
        <ele>1232.374112</ele>
        <time>2021-09-14T23:44:52.000Z</time>
      </trkpt>
      <trkpt lat="40.86515" lon="-4.087484"/>
      <trkpt lat="40.865136" lon="-4.087277">
        <ele>1234.020686</ele>
        <time>2021-09-14T23:45:04.000Z</time>
      </trkpt>
      <trkpt lat="40.865128" lon="-4.087199">
        <ele>1234.514280</ele>
        <time>2021-09-14T23:45:07.000Z</time>
      </trkpt>
      <trkpt lat="40.865107" lon="-4.087109">
        <ele>1235.104899</ele>
        <time>2021-09-14T23:45:11.000Z</time>
      </trkpt>
      <trkpt lat="40.865098" lon="-4.087087">
        <ele>1235.261746</ele>
        <time>2021-09-14T23:45:12.000Z</time>
      </trkpt>
      <trkpt lat="40.865043" lon="-4.086943">
        <ele>1236.273362</ele>
        <time>2021-09-14T23:45:18.000Z</time>
      </trkpt>
      <trkpt lat="40.865028" lon="-4.086917">
        <ele>1236.478427</ele>
        <time>2021-09-14T23:45:19.000Z</time>
      </trkpt>
      <trkpt lat="40.864959" lon="-4.086784">
        <ele>1237.489819</ele>
        <time>2021-09-14T23:45:24.000Z</time>
      </trkpt>
      <trkpt lat="40.864948" lon="-4.086755">
        <ele>1237.693263</ele>
        <time>2021-09-14T23:45:25.000Z</time>
      </trkpt>
      <trkpt lat="40.864907" lon="-4.0866"/>
      <trkpt lat="40.864901" lon="-4.086537">
        <ele>1239.121147</ele>
        <time>2021-09-14T23:45:32.000Z</time>
      </trkpt>
      <trkpt lat="40.864878" lon="-4.086417">
        <ele>1239.897429</ele>
        <time>2021-09-14T23:45:37.000Z</time>
      </trkpt>
      <trkpt lat="40.864869" lon="-4.086397">
        <ele>1240.043368</ele>
        <time>2021-09-14T23:45:38.000Z</time>
      </trkpt>
      <trkpt lat="40.864812" lon="-4.086277">
        <ele>1240.931978</ele>
        <time>2021-09-14T23:45:44.000Z</time>
      </trkpt>
      <trkpt lat="40.864795" lon="-4.086247">
        <ele>1241.167053</ele>
        <time>2021-09-14T23:45:46.000Z</time>
      </trkpt>
      <trkpt lat="40.864756" lon="-4.086175">
        <ele>1241.722413</ele>
        <time>2021-09-14T23:45:50.000Z</time>
      </trkpt>
      <trkpt lat="40.86472" lon="-4.086114"/>
      <trkpt lat="40.864704" lon="-4.086091">
        <ele>1242.403586</ele>
        <time>2021-09-14T23:45:54.000Z</time>
      </trkpt>
      <trkpt lat="40.864596" lon="-4.085994">
        <ele>1243.486150</ele>
        <time>2021-09-14T23:45:59.000Z</time>
      </trkpt>
      <trkpt lat="40.864574" lon="-4.085976">
        <ele>1243.700667</ele>
        <time>2021-09-14T23:46:00.000Z</time>
      </trkpt>
      <trkpt lat="40.864479" lon="-4.085824">
        <ele>1244.937206</ele>
        <time>2021-09-14T23:46:06.000Z</time>
      </trkpt>
      <trkpt lat="40.864476" lon="-4.085695">
        <ele>1245.746521</ele>
        <time>2021-09-14T23:46:10.000Z</time>
      </trkpt>
      <trkpt lat="40.864474" lon="-4.085636">
        <ele>1246.116869</ele>
        <time>2021-09-14T23:46:12.000Z</time>
      </trkpt>
      <trkpt lat="40.864457" lon="-4.085493">
        <ele>1247.024604</ele>
        <time>2021-09-14T23:46:17.000Z</time>
      </trkpt>
      <trkpt lat="40.864433" lon="-4.08541"/>
      <trkpt lat="40.864429" lon="-4.085381">
        <ele>1247.766681</ele>
        <time>2021-09-14T23:46:21.000Z</time>
      </trkpt>
      <trkpt lat="40.864424" lon="-4.085239">
        <ele>1248.658099</ele>
        <time>2021-09-14T23:46:26.000Z</time>
      </trkpt>
      <trkpt lat="40.864395" lon="-4.085036">
        <ele>1249.905800</ele>
        <time>2021-09-14T23:46:33.000Z</time>
      </trkpt>
      <trkpt lat="40.864362" lon="-4.08489"/>
      <trkpt lat="40.864296" lon="-4.084704">
        <ele>1252.055531</ele>
        <time>2021-09-14T23:46:45.000Z</time>
      </trkpt>
      <trkpt lat="40.864287" lon="-4.084676">
        <ele>1252.238305</ele>
        <time>2021-09-14T23:46:46.000Z</time>
      </trkpt>
      <trkpt lat="40.864265" lon="-4.08453"/>
      <trkpt lat="40.864263" lon="-4.084505">
        <ele>1253.283678</ele>
        <time>2021-09-14T23:46:52.000Z</time>
      </trkpt>
      <trkpt lat="40.864268" lon="-4.084368">
        <ele>1254.107673</ele>
        <time>2021-09-14T23:46:57.000Z</time>
      </trkpt>
      <trkpt lat="40.864262" lon="-4.084314">
        <ele>1254.435564</ele>
        <time>2021-09-14T23:46:59.000Z</time>
      </trkpt>
      <trkpt lat="40.864249" lon="-4.084254">
        <ele>1254.810519</ele>
        <time>2021-09-14T23:47:01.000Z</time>
      </trkpt>
      <trkpt lat="40.864196" lon="-4.084114">
        <ele>1255.751072</ele>
        <time>2021-09-14T23:47:06.000Z</time>
      </trkpt>
      <trkpt lat="40.864149" lon="-4.083965">
        <ele>1256.720943</ele>
        <time>2021-09-14T23:47:11.000Z</time>
      </trkpt>
      <trkpt lat="40.864122" lon="-4.083889">
        <ele>1257.225387</ele>
        <time>2021-09-14T23:47:14.000Z</time>
      </trkpt>
      <trkpt lat="40.864031" lon="-4.08371"/>
      <trkpt lat="40.863936" lon="-4.08354"/>
      <trkpt lat="40.863897" lon="-4.083448">
        <ele>1260.424597</ele>
        <time>2021-09-14T23:47:30.000Z</time>
      </trkpt>
      <trkpt lat="40.863793" lon="-4.083247">
        <ele>1261.887693</ele>
        <time>2021-09-14T23:47:37.000Z</time>
      </trkpt>
      <trkpt lat="40.863776" lon="-4.083221">
        <ele>1262.094175</ele>
        <time>2021-09-14T23:47:38.000Z</time>
      </trkpt>
      <trkpt lat="40.863635" lon="-4.083047">
        <ele>1263.962204</ele>
        <time>2021-09-14T23:47:46.000Z</time>
      </trkpt>
      <trkpt lat="40.863617" lon="-4.083029">
        <ele>1264.256650</ele>
        <time>2021-09-14T23:47:47.000Z</time>
      </trkpt>
      <trkpt lat="40.863575" lon="-4.082941">
        <ele>1265.283410</ele>
        <time>2021-09-14T23:47:51.000Z</time>
      </trkpt>
      <trkpt lat="40.863539" lon="-4.082862">
        <ele>1266.193486</ele>
        <time>2021-09-14T23:47:55.000Z</time>
      </trkpt>
      <trkpt lat="40.863518" lon="-4.082835">
        <ele>1266.575645</ele>
        <time>2021-09-14T23:47:57.000Z</time>
      </trkpt>
      <trkpt lat="40.863511" lon="-4.08282"/>
      <trkpt lat="40.863478" lon="-4.082758">
        <ele>1267.497647</ele>
        <time>2021-09-14T23:48:02.000Z</time>
      </trkpt>
      <trkpt lat="40.863467" lon="-4.082723">
        <ele>1267.871630</ele>
        <time>2021-09-14T23:48:04.000Z</time>
      </trkpt>
      <trkpt lat="40.863449" lon="-4.08267"/>
      <trkpt lat="40.863406" lon="-4.082616">
        <ele>1269.218627</ele>
        <time>2021-09-14T23:48:11.000Z</time>
      </trkpt>
      <trkpt lat="40.863395" lon="-4.0826"/>
      <trkpt lat="40.863375" lon="-4.082565">
        <ele>1269.864834</ele>
        <time>2021-09-14T23:48:14.000Z</time>
      </trkpt>
      <trkpt lat="40.863328" lon="-4.082508">
        <ele>1270.696913</ele>
        <time>2021-09-14T23:48:18.000Z</time>
      </trkpt>
      <trkpt lat="40.863314" lon="-4.08249"/>
      <trkpt lat="40.863259" lon="-4.082434">
        <ele>1271.857368</ele>
        <time>2021-09-14T23:48:23.000Z</time>
      </trkpt>
      <trkpt lat="40.863221" lon="-4.082385">
        <ele>1272.549879</ele>
        <time>2021-09-14T23:48:26.000Z</time>
      </trkpt>
      <trkpt lat="40.863185" lon="-4.082337">
        <ele>1273.216913</ele>
        <time>2021-09-14T23:48:29.000Z</time>
      </trkpt>
      <trkpt lat="40.863105" lon="-4.082247">
        <ele>1274.587343</ele>
        <time>2021-09-14T23:48:35.000Z</time>
      </trkpt>
      <trkpt lat="40.863051" lon="-4.082187">
        <ele>1275.507605</ele>
        <time>2021-09-14T23:48:39.000Z</time>
      </trkpt>
      <trkpt lat="40.863015" lon="-4.082127">
        <ele>1276.263327</ele>
        <time>2021-09-14T23:48:42.000Z</time>
      </trkpt>
      <trkpt lat="40.863005" lon="-4.082106">
        <ele>1276.508193</ele>
        <time>2021-09-14T23:48:43.000Z</time>
      </trkpt>
      <trkpt lat="40.862984" lon="-4.082047">
        <ele>1277.151611</ele>
        <time>2021-09-14T23:48:46.000Z</time>
      </trkpt>
      <trkpt lat="40.862961" lon="-4.081992">
        <ele>1277.771747</ele>
        <time>2021-09-14T23:48:49.000Z</time>
      </trkpt>
      <trkpt lat="40.862954" lon="-4.081974">
        <ele>1277.971463</ele>
        <time>2021-09-14T23:48:50.000Z</time>
      </trkpt>
      <trkpt lat="40.862928" lon="-4.081919">
        <ele>1278.611458</ele>
        <time>2021-09-14T23:48:54.000Z</time>
      </trkpt>
      <trkpt lat="40.862887" lon="-4.081889">
        <ele>1279.222831</ele>
        <time>2021-09-14T23:48:57.000Z</time>
      </trkpt>
      <trkpt lat="40.862853" lon="-4.081866">
        <ele>1279.721115</ele>
        <time>2021-09-14T23:48:59.000Z</time>
      </trkpt>
      <trkpt lat="40.86278" lon="-4.081796"/>
      <trkpt lat="40.862769" lon="-4.081778">
        <ele>1281.125989</ele>
        <time>2021-09-14T23:49:05.000Z</time>
      </trkpt>
      <trkpt lat="40.862741" lon="-4.081726">
        <ele>1281.755851</ele>
        <time>2021-09-14T23:49:08.000Z</time>
      </trkpt>
      <trkpt lat="40.862711" lon="-4.081662">
        <ele>1282.498819</ele>
        <time>2021-09-14T23:49:12.000Z</time>
      </trkpt>
      <trkpt lat="40.862702" lon="-4.081648">
        <ele>1282.680124</ele>
        <time>2021-09-14T23:49:13.000Z</time>
      </trkpt>
      <trkpt lat="40.862691" lon="-4.081614">
        <ele>1283.045019</ele>
        <time>2021-09-14T23:49:15.000Z</time>
      </trkpt>
      <trkpt lat="40.862671" lon="-4.081588">
        <ele>1283.410953</ele>
        <time>2021-09-14T23:49:17.000Z</time>
      </trkpt>
      <trkpt lat="40.862651" lon="-4.081577">
        <ele>1283.693569</ele>
        <time>2021-09-14T23:49:19.000Z</time>
      </trkpt>
      <trkpt lat="40.862647" lon="-4.081576">
        <ele>1283.746682</ele>
        <time>2021-09-14T23:49:21.000Z</time>
      </trkpt>
      <trkpt lat="40.862713" lon="-4.081376">
        <ele>1285.899823</ele>
        <time>2021-09-14T23:50:32.000Z</time>
      </trkpt>
      <trkpt lat="40.862699" lon="-4.081162">
        <ele>1287.622065</ele>
        <time>2021-09-14T23:50:40.000Z</time>
      </trkpt>
      <trkpt lat="40.862697" lon="-4.081141">
        <ele>1287.773656</ele>
        <time>2021-09-14T23:50:41.000Z</time>
      </trkpt>
      <trkpt lat="40.862667" lon="-4.081"/>
      <trkpt lat="40.862661" lon="-4.080973">
        <ele>1289.024256</ele>
        <time>2021-09-14T23:50:48.000Z</time>
      </trkpt>
      <trkpt lat="40.862636" lon="-4.080904">
        <ele>1289.572222</ele>
        <time>2021-09-14T23:50:51.000Z</time>
      </trkpt>
      <trkpt lat="40.862631" lon="-4.080882">
        <ele>1289.736748</ele>
        <time>2021-09-14T23:50:52.000Z</time>
      </trkpt>
      <trkpt lat="40.862632" lon="-4.080836">
        <ele>1290.066338</ele>
        <time>2021-09-14T23:50:54.000Z</time>
      </trkpt>
      <trkpt lat="40.862632" lon="-4.080815">
        <ele>1290.216741</ele>
        <time>2021-09-14T23:50:55.000Z</time>
      </trkpt>
      <trkpt lat="40.862648" lon="-4.080712">
        <ele>1290.969831</ele>
        <time>2021-09-14T23:51:00.000Z</time>
      </trkpt>
      <trkpt lat="40.862653" lon="-4.080674">
        <ele>1291.246077</ele>
        <time>2021-09-14T23:51:02.000Z</time>
      </trkpt>
      <trkpt lat="40.862654" lon="-4.080606">
        <ele>1291.733188</ele>
        <time>2021-09-14T23:51:05.000Z</time>
      </trkpt>
      <trkpt lat="40.862641" lon="-4.080546">
        <ele>1292.180198</ele>
        <time>2021-09-14T23:51:08.000Z</time>
      </trkpt>
      <trkpt lat="40.862633" lon="-4.080525">
        <ele>1292.348604</ele>
        <time>2021-09-14T23:51:09.000Z</time>
      </trkpt>
      <trkpt lat="40.862604" lon="-4.080425">
        <ele>1293.115658</ele>
        <time>2021-09-14T23:51:13.000Z</time>
      </trkpt>
      <trkpt lat="40.862591" lon="-4.080371">
        <ele>1293.521531</ele>
        <time>2021-09-14T23:51:15.000Z</time>
      </trkpt>
      <trkpt lat="40.862579" lon="-4.080314">
        <ele>1293.945289</ele>
        <time>2021-09-14T23:51:17.000Z</time>
      </trkpt>
      <trkpt lat="40.862557" lon="-4.080207">
        <ele>1294.739445</ele>
        <time>2021-09-14T23:51:21.000Z</time>
      </trkpt>
      <trkpt lat="40.862544" lon="-4.080158">
        <ele>1295.111353</ele>
        <time>2021-09-14T23:51:23.000Z</time>
      </trkpt>
      <trkpt lat="40.862539" lon="-4.080049">
        <ele>1295.893451</ele>
        <time>2021-09-14T23:51:27.000Z</time>
      </trkpt>
      <trkpt lat="40.862531" lon="-4.079955">
        <ele>1296.570934</ele>
        <time>2021-09-14T23:51:31.000Z</time>
      </trkpt>
      <trkpt lat="40.86253" lon="-4.079932"/>
      <trkpt lat="40.862507" lon="-4.079811">
        <ele>1297.629495</ele>
        <time>2021-09-14T23:51:37.000Z</time>
      </trkpt>
      <trkpt lat="40.862496" lon="-4.07979"/>
      <trkpt lat="40.862465" lon="-4.07968"/>
      <trkpt lat="40.862458" lon="-4.079616">
        <ele>1299.116338</ele>
        <time>2021-09-14T23:51:44.000Z</time>
      </trkpt>
      <trkpt lat="40.862474" lon="-4.07942"/>
      <trkpt lat="40.862475" lon="-4.079333">
        <ele>1301.151427</ele>
        <time>2021-09-14T23:51:51.000Z</time>
      </trkpt>
      <trkpt lat="40.862511" lon="-4.079138">
        <ele>1302.589037</ele>
        <time>2021-09-14T23:51:56.000Z</time>
      </trkpt>
      <trkpt lat="40.86258" lon="-4.078833"/>
      <trkpt lat="40.862591" lon="-4.078785">
        <ele>1304.053409</ele>
        <time>2021-09-14T23:52:04.000Z</time>
      </trkpt>
      <trkpt lat="40.862679" lon="-4.078454">
        <ele>1304.748987</ele>
        <time>2021-09-14T23:52:11.000Z</time>
      </trkpt>
      <trkpt lat="40.862763" lon="-4.078111">
        <ele>1305.463752</ele>
        <time>2021-09-14T23:52:18.000Z</time>
      </trkpt>
      <trkpt lat="40.862809" lon="-4.077908">
        <ele>1305.883878</ele>
        <time>2021-09-14T23:52:22.000Z</time>
      </trkpt>
      <trkpt lat="40.86284" lon="-4.077759"/>
      <trkpt lat="40.862904" lon="-4.077482">
        <ele>1306.764456</ele>
        <time>2021-09-14T23:52:31.000Z</time>
      </trkpt>
      <trkpt lat="40.862916" lon="-4.077438">
        <ele>1306.857185</ele>
        <time>2021-09-14T23:52:32.000Z</time>
      </trkpt>
      <trkpt lat="40.863009" lon="-4.077203">
        <ele>1307.383004</ele>
        <time>2021-09-14T23:52:38.000Z</time>
      </trkpt>
      <trkpt lat="40.863064" lon="-4.077087">
        <ele>1307.654432</ele>
        <time>2021-09-14T23:52:41.000Z</time>
      </trkpt>
      <trkpt lat="40.863185" lon="-4.076871">
        <ele>1308.187331</ele>
        <time>2021-09-14T23:52:47.000Z</time>
      </trkpt>
      <trkpt lat="40.863368" lon="-4.076644">
        <ele>1308.520043</ele>
        <time>2021-09-14T23:52:54.000Z</time>
      </trkpt>
      <trkpt lat="40.863393" lon="-4.076614">
        <ele>1308.553897</ele>
        <time>2021-09-14T23:52:55.000Z</time>
      </trkpt>
      <trkpt lat="40.863576" lon="-4.076396">
        <ele>1308.800894</ele>
        <time>2021-09-14T23:53:02.000Z</time>
      </trkpt>
      <trkpt lat="40.863829" lon="-4.076169">
        <ele>1309.107488</ele>
        <time>2021-09-14T23:53:10.000Z</time>
      </trkpt>
      <trkpt lat="40.863865" lon="-4.076142">
        <ele>1309.148991</ele>
        <time>2021-09-14T23:53:11.000Z</time>
      </trkpt>
      <trkpt lat="40.863984" lon="-4.076066">
        <ele>1309.281511</ele>
        <time>2021-09-14T23:53:14.000Z</time>
      </trkpt>
      <trkpt lat="40.86407" lon="-4.076023"/>
      <trkpt lat="40.864237" lon="-4.075932">
        <ele>1309.554836</ele>
        <time>2021-09-14T23:53:20.000Z</time>
      </trkpt>
      <trkpt lat="40.864351" lon="-4.075849">
        <ele>1309.685335</ele>
        <time>2021-09-14T23:53:23.000Z</time>
      </trkpt>
      <trkpt lat="40.864458" lon="-4.07577"/>
      <trkpt lat="40.864617" lon="-4.075663">
        <ele>1309.987128</ele>
        <time>2021-09-14T23:53:31.000Z</time>
      </trkpt>
      <trkpt lat="40.864702" lon="-4.075496">
        <ele>1310.224326</ele>
        <time>2021-09-14T23:53:36.000Z</time>
      </trkpt>
      <trkpt lat="40.864695" lon="-4.075236">
        <ele>1311.375759</ele>
        <time>2021-09-14T23:53:42.000Z</time>
      </trkpt>
      <trkpt lat="40.864673" lon="-4.07515"/>
      <trkpt lat="40.864612" lon="-4.074931">
        <ele>1312.810461</ele>
        <time>2021-09-14T23:53:49.000Z</time>
      </trkpt>
      <trkpt lat="40.864596" lon="-4.074842">
        <ele>1313.215332</ele>
        <time>2021-09-14T23:53:51.000Z</time>
      </trkpt>
      <trkpt lat="40.864545" lon="-4.074697">
        <ele>1313.923083</ele>
        <time>2021-09-14T23:53:55.000Z</time>
      </trkpt>
      <trkpt lat="40.864502" lon="-4.07464"/>
      <trkpt lat="40.864429" lon="-4.074571">
        <ele>1314.804541</ele>
        <time>2021-09-14T23:54:00.000Z</time>
      </trkpt>
      <trkpt lat="40.864402" lon="-4.074554">
        <ele>1314.979550</ele>
        <time>2021-09-14T23:54:01.000Z</time>
      </trkpt>
      <trkpt lat="40.864361" lon="-4.074522">
        <ele>1315.258171</ele>
        <time>2021-09-14T23:54:03.000Z</time>
      </trkpt>
      <trkpt lat="40.864306" lon="-4.074465">
        <ele>1315.667123</ele>
        <time>2021-09-14T23:54:06.000Z</time>
      </trkpt>
      <trkpt lat="40.864269" lon="-4.074431">
        <ele>1315.930808</ele>
        <time>2021-09-14T23:54:08.000Z</time>
      </trkpt>
      <trkpt lat="40.864188" lon="-4.074373">
        <ele>1316.469880</ele>
        <time>2021-09-14T23:54:12.000Z</time>
      </trkpt>
      <trkpt lat="40.864036" lon="-4.074245">
        <ele>1317.524492</ele>
        <time>2021-09-14T23:54:19.000Z</time>
      </trkpt>
      <trkpt lat="40.864017" lon="-4.074226">
        <ele>1317.663901</ele>
        <time>2021-09-14T23:54:20.000Z</time>
      </trkpt>
      <trkpt lat="40.863942" lon="-4.074158">
        <ele>1318.196088</ele>
        <time>2021-09-14T23:54:24.000Z</time>
      </trkpt>
      <trkpt lat="40.86389" lon="-4.074107"/>
      <trkpt lat="40.863834" lon="-4.074056">
        <ele>1318.972911</ele>
        <time>2021-09-14T23:54:30.000Z</time>
      </trkpt>
      <trkpt lat="40.863778" lon="-4.074"/>
      <trkpt lat="40.863702" lon="-4.073921">
        <ele>1319.949548</ele>
        <time>2021-09-14T23:54:37.000Z</time>
      </trkpt>
      <trkpt lat="40.863665" lon="-4.073869">
        <ele>1320.265543</ele>
        <time>2021-09-14T23:54:39.000Z</time>
      </trkpt>
      <trkpt lat="40.863594" lon="-4.073765">
        <ele>1320.704098</ele>
        <time>2021-09-14T23:54:43.000Z</time>
      </trkpt>
      <trkpt lat="40.863533" lon="-4.073684">
        <ele>1320.822935</ele>
        <time>2021-09-14T23:54:46.000Z</time>
      </trkpt>
      <trkpt lat="40.863459" lon="-4.073561">
        <ele>1320.986332</ele>
        <time>2021-09-14T23:54:50.000Z</time>
      </trkpt>
      <trkpt lat="40.863403" lon="-4.073473">
        <ele>1321.105895</ele>
        <time>2021-09-14T23:54:53.000Z</time>
      </trkpt>
      <trkpt lat="40.863315" lon="-4.073239">
        <ele>1321.377579</ele>
        <time>2021-09-14T23:54:59.000Z</time>
      </trkpt>
      <trkpt lat="40.86332" lon="-4.072911"/>
      <trkpt lat="40.863389" lon="-4.072646">
        <ele>1322.010002</ele>
        <time>2021-09-14T23:55:11.000Z</time>
      </trkpt>
      <trkpt lat="40.863502" lon="-4.072219">
        <ele>1322.480304</ele>
        <time>2021-09-14T23:55:18.000Z</time>
      </trkpt>
      <trkpt lat="40.863561" lon="-4.071927">
        <ele>1322.794514</ele>
        <time>2021-09-14T23:55:23.000Z</time>
      </trkpt>
      <trkpt lat="40.863574" lon="-4.071645">
        <ele>1323.088225</ele>
        <time>2021-09-14T23:55:28.000Z</time>
      </trkpt>
      <trkpt lat="40.863566" lon="-4.071526">
        <ele>1323.338632</ele>
        <time>2021-09-14T23:55:30.000Z</time>
      </trkpt>
      <trkpt lat="40.863565" lon="-4.071465">
        <ele>1323.489482</ele>
        <time>2021-09-14T23:55:31.000Z</time>
      </trkpt>
      <trkpt lat="40.863551" lon="-4.071215">
        <ele>1324.109266</ele>
        <time>2021-09-14T23:55:35.000Z</time>
      </trkpt>
      <trkpt lat="40.863542" lon="-4.071093">
        <ele>1324.412326</ele>
        <time>2021-09-14T23:55:37.000Z</time>
      </trkpt>
      <trkpt lat="40.86354" lon="-4.070644"/>
      <trkpt lat="40.863568" lon="-4.070364">
        <ele>1326.220726</ele>
        <time>2021-09-14T23:55:51.000Z</time>
      </trkpt>
      <trkpt lat="40.863573" lon="-4.070277">
        <ele>1326.436442</ele>
        <time>2021-09-14T23:55:53.000Z</time>
      </trkpt>
      <trkpt lat="40.863591" lon="-4.070139">
        <ele>1326.782665</ele>
        <time>2021-09-14T23:55:56.000Z</time>
      </trkpt>
      <trkpt lat="40.863625" lon="-4.069956">
        <ele>1327.248561</ele>
        <time>2021-09-14T23:56:00.000Z</time>
      </trkpt>
      <trkpt lat="40.863619" lon="-4.069815">
        <ele>1327.597716</ele>
        <time>2021-09-14T23:56:03.000Z</time>
      </trkpt>
      <trkpt lat="40.863614" lon="-4.069766">
        <ele>1327.719959</ele>
        <time>2021-09-14T23:56:04.000Z</time>
      </trkpt>
      <trkpt lat="40.863601" lon="-4.069435">
        <ele>1328.539415</ele>
        <time>2021-09-14T23:56:11.000Z</time>
      </trkpt>
      <trkpt lat="40.863591" lon="-4.069349">
        <ele>1328.754536</ele>
        <time>2021-09-14T23:56:13.000Z</time>
      </trkpt>
      <trkpt lat="40.863568" lon="-4.069108">
        <ele>1329.028394</ele>
        <time>2021-09-14T23:56:19.000Z</time>
      </trkpt>
      <trkpt lat="40.86356" lon="-4.069068"/>
      <trkpt lat="40.863511" lon="-4.068808">
        <ele>1329.087756</ele>
        <time>2021-09-14T23:56:27.000Z</time>
      </trkpt>
      <trkpt lat="40.863501" lon="-4.068773">
        <ele>1329.094936</ele>
        <time>2021-09-14T23:56:28.000Z</time>
      </trkpt>
      <trkpt lat="40.863431" lon="-4.068529">
        <ele>1329.145017</ele>
        <time>2021-09-14T23:56:35.000Z</time>
      </trkpt>
      <trkpt lat="40.863397" lon="-4.068417">
        <ele>1329.168177</ele>
        <time>2021-09-14T23:56:38.000Z</time>
      </trkpt>
      <trkpt lat="40.863361" lon="-4.068282">
        <ele>1329.195648</ele>
        <time>2021-09-14T23:56:41.000Z</time>
      </trkpt>
      <trkpt lat="40.863325" lon="-4.068126">
        <ele>1329.226949</ele>
        <time>2021-09-14T23:56:44.000Z</time>
      </trkpt>
      <trkpt lat="40.863313" lon="-4.067956">
        <ele>1329.259715</ele>
        <time>2021-09-14T23:56:47.000Z</time>
      </trkpt>
      <trkpt lat="40.863326" lon="-4.06777"/>
      <trkpt lat="40.863377" lon="-4.067516">
        <ele>1329.345995</ele>
        <time>2021-09-14T23:56:54.000Z</time>
      </trkpt>
      <trkpt lat="40.863405" lon="-4.067392">
        <ele>1329.370830</ele>
        <time>2021-09-14T23:56:56.000Z</time>
      </trkpt>
      <trkpt lat="40.863451" lon="-4.067266">
        <ele>1329.397680</ele>
        <time>2021-09-14T23:56:58.000Z</time>
      </trkpt>
      <trkpt lat="40.863478" lon="-4.067203">
        <ele>1329.411576</ele>
        <time>2021-09-14T23:56:59.000Z</time>
      </trkpt>
      <trkpt lat="40.863527" lon="-4.067076">
        <ele>1329.438937</ele>
        <time>2021-09-14T23:57:01.000Z</time>
      </trkpt>
      <trkpt lat="40.863608" lon="-4.066754">
        <ele>1329.620338</ele>
        <time>2021-09-14T23:57:06.000Z</time>
      </trkpt>
      <trkpt lat="40.863614" lon="-4.066693">
        <ele>1329.661507</ele>
        <time>2021-09-14T23:57:07.000Z</time>
      </trkpt>
      <trkpt lat="40.863613" lon="-4.066634">
        <ele>1329.701003</ele>
        <time>2021-09-14T23:57:08.000Z</time>
      </trkpt>
      <trkpt lat="40.863606" lon="-4.066579">
        <ele>1329.738331</ele>
        <time>2021-09-14T23:57:09.000Z</time>
      </trkpt>
      <trkpt lat="40.863573" lon="-4.06647"/>
      <trkpt lat="40.863554" lon="-4.06642"/>
      <trkpt lat="40.863417" lon="-4.066115">
        <ele>1330.091776</ele>
        <time>2021-09-14T23:57:18.000Z</time>
      </trkpt>
      <trkpt lat="40.863365" lon="-4.065939">
        <ele>1330.218237</ele>
        <time>2021-09-14T23:57:21.000Z</time>
      </trkpt>
      <trkpt lat="40.863367" lon="-4.065815">
        <ele>1330.301246</ele>
        <time>2021-09-14T23:57:23.000Z</time>
      </trkpt>
      <trkpt lat="40.863367" lon="-4.065751">
        <ele>1330.344079</ele>
        <time>2021-09-14T23:57:24.000Z</time>
      </trkpt>
      <trkpt lat="40.863343" lon="-4.065489">
        <ele>1330.520709</ele>
        <time>2021-09-14T23:57:28.000Z</time>
      </trkpt>
      <trkpt lat="40.863325" lon="-4.06504"/>
      <trkpt lat="40.863292" lon="-4.064644">
        <ele>1331.353613</ele>
        <time>2021-09-14T23:57:42.000Z</time>
      </trkpt>
      <trkpt lat="40.863275" lon="-4.064456">
        <ele>1332.337458</ele>
        <time>2021-09-14T23:57:48.000Z</time>
      </trkpt>
      <trkpt lat="40.863259" lon="-4.06426"/>
      <trkpt lat="40.863259" lon="-4.064096">
        <ele>1334.214008</ele>
        <time>2021-09-14T23:57:59.000Z</time>
      </trkpt>
      <trkpt lat="40.86326" lon="-4.064035"/>
      <trkpt lat="40.86325" lon="-4.063909"/>
      <trkpt lat="40.863247" lon="-4.063871">
        <ele>1335.387898</ele>
        <time>2021-09-14T23:58:06.000Z</time>
      </trkpt>
      <trkpt lat="40.863232" lon="-4.063726">
        <ele>1336.148364</ele>
        <time>2021-09-14T23:58:10.000Z</time>
      </trkpt>
      <trkpt lat="40.863222" lon="-4.063594">
        <ele>1336.837697</ele>
        <time>2021-09-14T23:58:14.000Z</time>
      </trkpt>
      <trkpt lat="40.863222" lon="-4.063523">
        <ele>1337.206628</ele>
        <time>2021-09-14T23:58:16.000Z</time>
      </trkpt>
      <trkpt lat="40.863247" lon="-4.063345">
        <ele>1338.147368</ele>
        <time>2021-09-14T23:58:21.000Z</time>
      </trkpt>
      <trkpt lat="40.863293" lon="-4.06321"/>
      <trkpt lat="40.86334" lon="-4.06312"/>
      <trkpt lat="40.863358" lon="-4.063094">
        <ele>1339.668248</ele>
        <time>2021-09-14T23:58:29.000Z</time>
      </trkpt>
      <trkpt lat="40.863458" lon="-4.06297"/>
      <trkpt lat="40.863525" lon="-4.06287"/>
      <trkpt lat="40.863596" lon="-4.062772">
        <ele>1342.009572</ele>
        <time>2021-09-14T23:58:42.000Z</time>
      </trkpt>
      <trkpt lat="40.863649" lon="-4.062696">
        <ele>1342.546751</ele>
        <time>2021-09-14T23:58:45.000Z</time>
      </trkpt>
      <trkpt lat="40.863751" lon="-4.062546">
        <ele>1343.724631</ele>
        <time>2021-09-14T23:58:51.000Z</time>
      </trkpt>
      <trkpt lat="40.863769" lon="-4.062524">
        <ele>1344.009401</ele>
        <time>2021-09-14T23:58:52.000Z</time>
      </trkpt>
      <trkpt lat="40.863842" lon="-4.062443">
        <ele>1345.116535</ele>
        <time>2021-09-14T23:58:56.000Z</time>
      </trkpt>
      <trkpt lat="40.863906" lon="-4.062359">
        <ele>1346.164169</ele>
        <time>2021-09-14T23:59:00.000Z</time>
      </trkpt>
      <trkpt lat="40.863933" lon="-4.062313">
        <ele>1346.675774</ele>
        <time>2021-09-14T23:59:02.000Z</time>
      </trkpt>
      <trkpt lat="40.864008" lon="-4.062213">
        <ele>1347.913179</ele>
        <time>2021-09-14T23:59:07.000Z</time>
      </trkpt>
      <trkpt lat="40.864075" lon="-4.062118">
        <ele>1349.054483</ele>
        <time>2021-09-14T23:59:12.000Z</time>
      </trkpt>
      <trkpt lat="40.864104" lon="-4.062085">
        <ele>1349.498979</ele>
        <time>2021-09-14T23:59:14.000Z</time>
      </trkpt>
      <trkpt lat="40.864154" lon="-4.062041">
        <ele>1350.196747</ele>
        <time>2021-09-14T23:59:17.000Z</time>
      </trkpt>
      <trkpt lat="40.864208" lon="-4.061974">
        <ele>1351.057040</ele>
        <time>2021-09-14T23:59:21.000Z</time>
      </trkpt>
      <trkpt lat="40.864259" lon="-4.061899">
        <ele>1351.943202</ele>
        <time>2021-09-14T23:59:25.000Z</time>
      </trkpt>
      <trkpt lat="40.864311" lon="-4.061828">
        <ele>1352.811592</ele>
        <time>2021-09-14T23:59:29.000Z</time>
      </trkpt>
      <trkpt lat="40.86432" lon="-4.061809"/>
      <trkpt lat="40.864351" lon="-4.061728">
        <ele>1353.806179</ele>
        <time>2021-09-14T23:59:34.000Z</time>
      </trkpt>
      <trkpt lat="40.864361" lon="-4.061707">
        <ele>1354.024216</ele>
        <time>2021-09-14T23:59:35.000Z</time>
      </trkpt>
      <trkpt lat="40.864384" lon="-4.061647">
        <ele>1354.615232</ele>
        <time>2021-09-14T23:59:38.000Z</time>
      </trkpt>
      <trkpt lat="40.864405" lon="-4.061592">
        <ele>1355.156559</ele>
        <time>2021-09-14T23:59:41.000Z</time>
      </trkpt>
      <trkpt lat="40.864414" lon="-4.061556">
        <ele>1355.489691</ele>
        <time>2021-09-14T23:59:43.000Z</time>
      </trkpt>
      <trkpt lat="40.864457" lon="-4.061474">
        <ele>1356.366399</ele>
        <time>2021-09-14T23:59:47.000Z</time>
      </trkpt>
      <trkpt lat="40.864473" lon="-4.06145"/>
      <trkpt lat="40.864488" lon="-4.061429">
        <ele>1356.901292</ele>
        <time>2021-09-14T23:59:49.000Z</time>
      </trkpt>
      <trkpt lat="40.864537" lon="-4.061382">
        <ele>1357.604562</ele>
        <time>2021-09-14T23:59:52.000Z</time>
      </trkpt>
      <trkpt lat="40.864562" lon="-4.061352">
        <ele>1357.996777</ele>
        <time>2021-09-14T23:59:54.000Z</time>
      </trkpt>
      <trkpt lat="40.864603" lon="-4.061279">
        <ele>1358.795685</ele>
        <time>2021-09-14T23:59:58.000Z</time>
      </trkpt>
      <trkpt lat="40.864631" lon="-4.061225">
        <ele>1359.370937</ele>
        <time>2021-09-15T00:00:01.000Z</time>
      </trkpt>
      <trkpt lat="40.864649" lon="-4.061173">
        <ele>1359.873394</ele>
        <time>2021-09-15T00:00:04.000Z</time>
      </trkpt>
      <trkpt lat="40.864653" lon="-4.061155">
        <ele>1360.038228</ele>
        <time>2021-09-15T00:00:05.000Z</time>
      </trkpt>
      <trkpt lat="40.864662" lon="-4.06114"/>
      <trkpt lat="40.864685" lon="-4.061109">
        <ele>1360.588012</ele>
        <time>2021-09-15T00:00:08.000Z</time>
      </trkpt>
      <trkpt lat="40.864743" lon="-4.06101"/>
      <trkpt lat="40.864754" lon="-4.060993">
        <ele>1361.884866</ele>
        <time>2021-09-15T00:00:15.000Z</time>
      </trkpt>
      <trkpt lat="40.864786" lon="-4.060917">
        <ele>1362.649118</ele>
        <time>2021-09-15T00:00:19.000Z</time>
      </trkpt>
      <trkpt lat="40.864812" lon="-4.060866">
        <ele>1363.189507</ele>
        <time>2021-09-15T00:00:22.000Z</time>
      </trkpt>
      <trkpt lat="40.864822" lon="-4.060847">
        <ele>1363.392889</ele>
        <time>2021-09-15T00:00:23.000Z</time>
      </trkpt>
      <trkpt lat="40.864866" lon="-4.060768">
        <ele>1364.254903</ele>
        <time>2021-09-15T00:00:27.000Z</time>
      </trkpt>
      <trkpt lat="40.864892" lon="-4.060737">
        <ele>1364.542325</ele>
        <time>2021-09-15T00:00:29.000Z</time>
      </trkpt>
      <trkpt lat="40.864938" lon="-4.060664">
        <ele>1365.099186</ele>
        <time>2021-09-15T00:00:33.000Z</time>
      </trkpt>
      <trkpt lat="40.864974" lon="-4.060611">
        <ele>1365.516681</ele>
        <time>2021-09-15T00:00:36.000Z</time>
      </trkpt>
      <trkpt lat="40.864996" lon="-4.060573">
        <ele>1365.797143</ele>
        <time>2021-09-15T00:00:38.000Z</time>
      </trkpt>
      <trkpt lat="40.865053" lon="-4.060501">
        <ele>1366.408005</ele>
        <time>2021-09-15T00:00:42.000Z</time>
      </trkpt>
      <trkpt lat="40.865147" lon="-4.060398">
        <ele>1367.354040</ele>
        <time>2021-09-15T00:00:48.000Z</time>
      </trkpt>
      <trkpt lat="40.865162" lon="-4.060379">
        <ele>1367.515006</ele>
        <time>2021-09-15T00:00:49.000Z</time>
      </trkpt>
      <trkpt lat="40.865234" lon="-4.060275">
        <ele>1368.341311</ele>
        <time>2021-09-15T00:00:54.000Z</time>
      </trkpt>
      <trkpt lat="40.865296" lon="-4.0602"/>
      <trkpt lat="40.865343" lon="-4.060144">
        <ele>1369.482749</ele>
        <time>2021-09-15T00:01:01.000Z</time>
      </trkpt>
      <trkpt lat="40.865415" lon="-4.060045">
        <ele>1370.287684</ele>
        <time>2021-09-15T00:01:06.000Z</time>
      </trkpt>
      <trkpt lat="40.865427" lon="-4.060024">
        <ele>1370.441935</ele>
        <time>2021-09-15T00:01:07.000Z</time>
      </trkpt>
      <trkpt lat="40.865512" lon="-4.059951">
        <ele>1371.227362</ele>
        <time>2021-09-15T00:01:12.000Z</time>
      </trkpt>
      <trkpt lat="40.865535" lon="-4.05994"/>
      <trkpt lat="40.865621" lon="-4.059895">
        <ele>1372.133618</ele>
        <time>2021-09-15T00:01:17.000Z</time>
      </trkpt>
      <trkpt lat="40.865636" lon="-4.059893">
        <ele>1372.250447</ele>
        <time>2021-09-15T00:01:18.000Z</time>
      </trkpt>
      <trkpt lat="40.865651" lon="-4.059888">
        <ele>1372.370323</ele>
        <time>2021-09-15T00:01:19.000Z</time>
      </trkpt>
      <trkpt lat="40.865778" lon="-4.059804">
        <ele>1373.470737</ele>
        <time>2021-09-15T00:01:25.000Z</time>
      </trkpt>
      <trkpt lat="40.8658" lon="-4.059792"/>
      <trkpt lat="40.865867" lon="-4.059752">
        <ele>1374.224826</ele>
        <time>2021-09-15T00:01:29.000Z</time>
      </trkpt>
      <trkpt lat="40.865966" lon="-4.059671">
        <ele>1375.126989</ele>
        <time>2021-09-15T00:01:34.000Z</time>
      </trkpt>
      <trkpt lat="40.866053" lon="-4.059627">
        <ele>1375.848808</ele>
        <time>2021-09-15T00:01:38.000Z</time>
      </trkpt>
      <trkpt lat="40.866154" lon="-4.059552">
        <ele>1376.746457</ele>
        <time>2021-09-15T00:01:43.000Z</time>
      </trkpt>
      <trkpt lat="40.866195" lon="-4.059525">
        <ele>1377.101399</ele>
        <time>2021-09-15T00:01:45.000Z</time>
      </trkpt>
      <trkpt lat="40.866337" lon="-4.059418">
        <ele>1378.325425</ele>
        <time>2021-09-15T00:01:52.000Z</time>
      </trkpt>
      <trkpt lat="40.866384" lon="-4.059396">
        <ele>1378.581812</ele>
        <time>2021-09-15T00:01:54.000Z</time>
      </trkpt>
      <trkpt lat="40.866498" lon="-4.05933"/>
      <trkpt lat="40.86661" lon="-4.059264"/>
      <trkpt lat="40.866675" lon="-4.059219">
        <ele>1380.229608</ele>
        <time>2021-09-15T00:02:07.000Z</time>
      </trkpt>
      <trkpt lat="40.866882" lon="-4.059084">
        <ele>1381.416501</ele>
        <time>2021-09-15T00:02:17.000Z</time>
      </trkpt>
      <trkpt lat="40.866903" lon="-4.059067">
        <ele>1381.543120</ele>
        <time>2021-09-15T00:02:18.000Z</time>
      </trkpt>
      <trkpt lat="40.86707" lon="-4.058935"/>
      <trkpt lat="40.867103" lon="-4.058891">
        <ele>1382.784607</ele>
        <time>2021-09-15T00:02:28.000Z</time>
      </trkpt>
      <trkpt lat="40.867203" lon="-4.058775">
        <ele>1383.468663</ele>
        <time>2021-09-15T00:02:34.000Z</time>
      </trkpt>
      <trkpt lat="40.867318" lon="-4.058635">
        <ele>1384.272484</ele>
        <time>2021-09-15T00:02:42.000Z</time>
      </trkpt>
      <trkpt lat="40.867341" lon="-4.05861"/>
      <trkpt lat="40.867367" lon="-4.058562">
        <ele>1384.655193</ele>
        <time>2021-09-15T00:02:48.000Z</time>
      </trkpt>
      <trkpt lat="40.867461" lon="-4.058427">
        <ele>1385.368825</ele>
        <time>2021-09-15T00:02:55.000Z</time>
      </trkpt>
      <trkpt lat="40.867522" lon="-4.05836"/>
      <trkpt lat="40.867532" lon="-4.058349">
        <ele>1385.843494</ele>
        <time>2021-09-15T00:03:01.000Z</time>
      </trkpt>
      <trkpt lat="40.86756" lon="-4.058291"/>
      <trkpt lat="40.867555" lon="-4.058267">
        <ele>1386.207893</ele>
        <time>2021-09-15T00:03:05.000Z</time>
      </trkpt>
      <trkpt lat="40.867455" lon="-4.058162">
        <ele>1386.864526</ele>
        <time>2021-09-15T00:03:12.000Z</time>
      </trkpt>
      <trkpt lat="40.867316" lon="-4.058123">
        <ele>1387.679436</ele>
        <time>2021-09-15T00:03:19.000Z</time>
      </trkpt>
      <trkpt lat="40.867201" lon="-4.058071">
        <ele>1388.808812</ele>
        <time>2021-09-15T00:03:26.000Z</time>
      </trkpt>
      <trkpt lat="40.8672" lon="-4.058071"/>
      <trkpt lat="40.867159" lon="-4.058038">
        <ele>1389.264119</ele>
        <time>2021-09-15T00:04:34.000Z</time>
      </trkpt>
      <trkpt lat="40.867129" lon="-4.058014">
        <ele>1389.589937</ele>
        <time>2021-09-15T00:04:36.000Z</time>
      </trkpt>
      <trkpt lat="40.867026" lon="-4.057943">
        <ele>1390.669292</ele>
        <time>2021-09-15T00:04:42.000Z</time>
      </trkpt>
      <trkpt lat="40.86697" lon="-4.0579"/>
      <trkpt lat="40.866889" lon="-4.057835">
        <ele>1392.151476</ele>
        <time>2021-09-15T00:04:49.000Z</time>
      </trkpt>
      <trkpt lat="40.866848" lon="-4.057808">
        <ele>1392.577095</ele>
        <time>2021-09-15T00:04:51.000Z</time>
      </trkpt>
      <trkpt lat="40.866762" lon="-4.057752">
        <ele>1393.467880</ele>
        <time>2021-09-15T00:04:55.000Z</time>
      </trkpt>
      <trkpt lat="40.866719" lon="-4.057728">
        <ele>1393.901589</ele>
        <time>2021-09-15T00:04:57.000Z</time>
      </trkpt>
      <trkpt lat="40.86661" lon="-4.057629"/>
      <trkpt lat="40.866578" lon="-4.057593">
        <ele>1395.520782</ele>
        <time>2021-09-15T00:05:05.000Z</time>
      </trkpt>
      <trkpt lat="40.866509" lon="-4.057511">
        <ele>1396.382845</ele>
        <time>2021-09-15T00:05:10.000Z</time>
      </trkpt>
      <trkpt lat="40.866411" lon="-4.057399">
        <ele>1397.586484</ele>
        <time>2021-09-15T00:05:17.000Z</time>
      </trkpt>
      <trkpt lat="40.866328" lon="-4.057276">
        <ele>1398.744917</ele>
        <time>2021-09-15T00:05:24.000Z</time>
      </trkpt>
      <trkpt lat="40.866262" lon="-4.057175">
        <ele>1399.682940</ele>
        <time>2021-09-15T00:05:30.000Z</time>
      </trkpt>
      <trkpt lat="40.866252" lon="-4.057162">
        <ele>1399.813250</ele>
        <time>2021-09-15T00:05:31.000Z</time>
      </trkpt>
      <trkpt lat="40.866225" lon="-4.05709"/>
      <trkpt lat="40.866212" lon="-4.05708"/>
      <trkpt lat="40.866153" lon="-4.057036">
        <ele>1401.147192</ele>
        <time>2021-09-15T00:05:40.000Z</time>
      </trkpt>
      <trkpt lat="40.866119" lon="-4.057021">
        <ele>1401.480254</ele>
        <time>2021-09-15T00:05:42.000Z</time>
      </trkpt>
      <trkpt lat="40.866064" lon="-4.057003">
        <ele>1402.006757</ele>
        <time>2021-09-15T00:05:45.000Z</time>
      </trkpt>
      <trkpt lat="40.865998" lon="-4.056971">
        <ele>1402.659983</ele>
        <time>2021-09-15T00:05:49.000Z</time>
      </trkpt>
      <trkpt lat="40.865943" lon="-4.056947">
        <ele>1403.198175</ele>
        <time>2021-09-15T00:05:52.000Z</time>
      </trkpt>
      <trkpt lat="40.865858" lon="-4.056911">
        <ele>1404.027555</ele>
        <time>2021-09-15T00:05:57.000Z</time>
      </trkpt>
      <trkpt lat="40.865825" lon="-4.056896">
        <ele>1404.381624</ele>
        <time>2021-09-15T00:05:59.000Z</time>
      </trkpt>
      <trkpt lat="40.86574" lon="-4.056861"/>
      <trkpt lat="40.865705" lon="-4.056848">
        <ele>1405.782646</ele>
        <time>2021-09-15T00:06:06.000Z</time>
      </trkpt>
      <trkpt lat="40.865649" lon="-4.056838">
        <ele>1406.414080</ele>
        <time>2021-09-15T00:06:09.000Z</time>
      </trkpt>
      <trkpt lat="40.865576" lon="-4.056833">
        <ele>1407.230888</ele>
        <time>2021-09-15T00:06:13.000Z</time>
      </trkpt>
      <trkpt lat="40.865542" lon="-4.056835">
        <ele>1407.611186</ele>
        <time>2021-09-15T00:06:15.000Z</time>
      </trkpt>
      <trkpt lat="40.86547" lon="-4.056816"/>
      <trkpt lat="40.865403" lon="-4.056809">
        <ele>1409.182594</ele>
        <time>2021-09-15T00:06:23.000Z</time>
      </trkpt>
      <trkpt lat="40.865351" lon="-4.056806">
        <ele>1409.764204</ele>
        <time>2021-09-15T00:06:26.000Z</time>
      </trkpt>
      <trkpt lat="40.865263" lon="-4.056813">
        <ele>1410.749309</ele>
        <time>2021-09-15T00:06:31.000Z</time>
      </trkpt>
      <trkpt lat="40.865215" lon="-4.056806">
        <ele>1411.288921</ele>
        <time>2021-09-15T00:06:34.000Z</time>
      </trkpt>
      <trkpt lat="40.865156" lon="-4.05678"/>
      <trkpt lat="40.865122" lon="-4.056767">
        <ele>1412.379331</ele>
        <time>2021-09-15T00:06:40.000Z</time>
      </trkpt>
      <trkpt lat="40.865106" lon="-4.056769">
        <ele>1412.558915</ele>
        <time>2021-09-15T00:06:41.000Z</time>
      </trkpt>
      <trkpt lat="40.865055" lon="-4.056775">
        <ele>1413.131049</ele>
        <time>2021-09-15T00:06:44.000Z</time>
      </trkpt>
      <trkpt lat="40.865037" lon="-4.056771">
        <ele>1413.335005</ele>
        <time>2021-09-15T00:06:45.000Z</time>
      </trkpt>
      <trkpt lat="40.865001" lon="-4.056764">
        <ele>1413.741601</ele>
        <time>2021-09-15T00:06:47.000Z</time>
      </trkpt>
      <trkpt lat="40.864948" lon="-4.056753">
        <ele>1414.341083</ele>
        <time>2021-09-15T00:06:50.000Z</time>
      </trkpt>
      <trkpt lat="40.864913" lon="-4.056754">
        <ele>1414.732270</ele>
        <time>2021-09-15T00:06:52.000Z</time>
      </trkpt>
      <trkpt lat="40.86483" lon="-4.056735"/>
      <trkpt lat="40.864813" lon="-4.056728">
        <ele>1415.872481</ele>
        <time>2021-09-15T00:06:58.000Z</time>
      </trkpt>
      <trkpt lat="40.864763" lon="-4.056718">
        <ele>1416.437544</ele>
        <time>2021-09-15T00:07:01.000Z</time>
      </trkpt>
      <trkpt lat="40.864659" lon="-4.05672"/>
      <trkpt lat="40.864569" lon="-4.056739">
        <ele>1418.618193</ele>
        <time>2021-09-15T00:07:12.000Z</time>
      </trkpt>
      <trkpt lat="40.864521" lon="-4.056747">
        <ele>1419.158798</ele>
        <time>2021-09-15T00:07:15.000Z</time>
      </trkpt>
      <trkpt lat="40.864504" lon="-4.056748">
        <ele>1419.348946</ele>
        <time>2021-09-15T00:07:16.000Z</time>
      </trkpt>
      <trkpt lat="40.864406" lon="-4.056748">
        <ele>1420.444016</ele>
        <time>2021-09-15T00:07:22.000Z</time>
      </trkpt>
      <trkpt lat="40.864389" lon="-4.056747">
        <ele>1420.634164</ele>
        <time>2021-09-15T00:07:23.000Z</time>
      </trkpt>
      <trkpt lat="40.864311" lon="-4.056762">
        <ele>1421.514919</ele>
        <time>2021-09-15T00:07:28.000Z</time>
      </trkpt>
      <trkpt lat="40.864294" lon="-4.056765">
        <ele>1421.706565</ele>
        <time>2021-09-15T00:07:29.000Z</time>
      </trkpt>
      <trkpt lat="40.864259" lon="-4.056768">
        <ele>1422.098482</ele>
        <time>2021-09-15T00:07:31.000Z</time>
      </trkpt>
      <trkpt lat="40.864144" lon="-4.056773">
        <ele>1423.384206</ele>
        <time>2021-09-15T00:07:37.000Z</time>
      </trkpt>
      <trkpt lat="40.864126" lon="-4.056778">
        <ele>1423.589732</ele>
        <time>2021-09-15T00:07:38.000Z</time>
      </trkpt>
      <trkpt lat="40.864012" lon="-4.056812">
        <ele>1424.781597</ele>
        <time>2021-09-15T00:07:44.000Z</time>
      </trkpt>
      <trkpt lat="40.863955" lon="-4.056829">
        <ele>1425.308933</ele>
        <time>2021-09-15T00:07:47.000Z</time>
      </trkpt>
      <trkpt lat="40.86384" lon="-4.056834"/>
      <trkpt lat="40.863809" lon="-4.056823">
        <ele>1426.637011</ele>
        <time>2021-09-15T00:07:55.000Z</time>
      </trkpt>
      <trkpt lat="40.863722" lon="-4.056788">
        <ele>1427.457702</ele>
        <time>2021-09-15T00:08:00.000Z</time>
      </trkpt>
      <trkpt lat="40.863686" lon="-4.05678"/>
      <trkpt lat="40.863581" lon="-4.056744">
        <ele>1428.766090</ele>
        <time>2021-09-15T00:08:08.000Z</time>
      </trkpt>
      <trkpt lat="40.863563" lon="-4.056739">
        <ele>1428.932082</ele>
        <time>2021-09-15T00:08:09.000Z</time>
      </trkpt>
      <trkpt lat="40.863495" lon="-4.056715">
        <ele>1429.567253</ele>
        <time>2021-09-15T00:08:13.000Z</time>
      </trkpt>
      <trkpt lat="40.863447" lon="-4.056694">
        <ele>1430.023538</ele>
        <time>2021-09-15T00:08:16.000Z</time>
      </trkpt>
      <trkpt lat="40.863429" lon="-4.056688">
        <ele>1430.191067</ele>
        <time>2021-09-15T00:08:17.000Z</time>
      </trkpt>
      <trkpt lat="40.863313" lon="-4.056659">
        <ele>1431.256489</ele>
        <time>2021-09-15T00:08:23.000Z</time>
      </trkpt>
      <trkpt lat="40.863272" lon="-4.056648">
        <ele>1431.634045</ele>
        <time>2021-09-15T00:08:25.000Z</time>
      </trkpt>
      <trkpt lat="40.863213" lon="-4.05663"/>
      <trkpt lat="40.863091" lon="-4.056607">
        <ele>1433.292655</ele>
        <time>2021-09-15T00:08:34.000Z</time>
      </trkpt>
      <trkpt lat="40.862949" lon="-4.056602">
        <ele>1434.574629</ele>
        <time>2021-09-15T00:08:41.000Z</time>
      </trkpt>
      <trkpt lat="40.862929" lon="-4.056606">
        <ele>1434.757178</ele>
        <time>2021-09-15T00:08:42.000Z</time>
      </trkpt>
      <trkpt lat="40.862808" lon="-4.056624">
        <ele>1435.856066</ele>
        <time>2021-09-15T00:08:48.000Z</time>
      </trkpt>
      <trkpt lat="40.862771" lon="-4.056631">
        <ele>1436.193384</ele>
        <time>2021-09-15T00:08:50.000Z</time>
      </trkpt>
      <trkpt lat="40.862703" lon="-4.056643">
        <ele>1436.812510</ele>
        <time>2021-09-15T00:08:54.000Z</time>
      </trkpt>
      <trkpt lat="40.862649" lon="-4.056641">
        <ele>1437.300040</ele>
        <time>2021-09-15T00:08:57.000Z</time>
      </trkpt>
      <trkpt lat="40.862631" lon="-4.056643">
        <ele>1437.463059</ele>
        <time>2021-09-15T00:08:58.000Z</time>
      </trkpt>
      <trkpt lat="40.862517" lon="-4.056659">
        <ele>1438.497664</ele>
        <time>2021-09-15T00:09:04.000Z</time>
      </trkpt>
      <trkpt lat="40.862496" lon="-4.056664">
        <ele>1438.690232</ele>
        <time>2021-09-15T00:09:05.000Z</time>
      </trkpt>
      <trkpt lat="40.862427" lon="-4.056673">
        <ele>1439.315965</ele>
        <time>2021-09-15T00:09:09.000Z</time>
      </trkpt>
      <trkpt lat="40.862393" lon="-4.056682">
        <ele>1439.628896</ele>
        <time>2021-09-15T00:09:11.000Z</time>
      </trkpt>
      <trkpt lat="40.862317" lon="-4.056655">
        <ele>1440.339105</ele>
        <time>2021-09-15T00:09:15.000Z</time>
      </trkpt>
      <trkpt lat="40.862301" lon="-4.05665"/>
      <trkpt lat="40.862178" lon="-4.056594">
        <ele>1441.705997</ele>
        <time>2021-09-15T00:09:23.000Z</time>
      </trkpt>
      <trkpt lat="40.862113" lon="-4.05653"/>
      <trkpt lat="40.862113" lon="-4.056529">
        <ele>1442.473383</ele>
        <time>2021-09-15T00:09:30.000Z</time>
      </trkpt>
      <trkpt lat="40.862073" lon="-4.05652"/>
      <trkpt lat="40.862027" lon="-4.056487">
        <ele>1443.345008</ele>
        <time>2021-09-15T00:09:43.000Z</time>
      </trkpt>
      <trkpt lat="40.861899" lon="-4.056383">
        <ele>1444.754429</ele>
        <time>2021-09-15T00:09:50.000Z</time>
      </trkpt>
      <trkpt lat="40.861853" lon="-4.056333">
        <ele>1445.313073</ele>
        <time>2021-09-15T00:09:53.000Z</time>
      </trkpt>
      <trkpt lat="40.861799" lon="-4.056282">
        <ele>1445.935631</ele>
        <time>2021-09-15T00:09:56.000Z</time>
      </trkpt>
      <trkpt lat="40.861728" lon="-4.056201">
        <ele>1446.815377</ele>
        <time>2021-09-15T00:10:01.000Z</time>
      </trkpt>
      <trkpt lat="40.861699" lon="-4.056177">
        <ele>1447.136335</ele>
        <time>2021-09-15T00:10:03.000Z</time>
      </trkpt>
      <trkpt lat="40.861617" lon="-4.056122">
        <ele>1447.998932</ele>
        <time>2021-09-15T00:10:08.000Z</time>
      </trkpt>
      <trkpt lat="40.861608" lon="-4.056101">
        <ele>1448.170189</ele>
        <time>2021-09-15T00:10:09.000Z</time>
      </trkpt>
      <trkpt lat="40.861555" lon="-4.055982">
        <ele>1449.150038</ele>
        <time>2021-09-15T00:10:16.000Z</time>
      </trkpt>
      <trkpt lat="40.861507" lon="-4.055912">
        <ele>1449.820448</ele>
        <time>2021-09-15T00:10:21.000Z</time>
      </trkpt>
      <trkpt lat="40.861501" lon="-4.055895">
        <ele>1449.953553</ele>
        <time>2021-09-15T00:10:22.000Z</time>
      </trkpt>
      <trkpt lat="40.861476" lon="-4.055819">
        <ele>1450.541581</ele>
        <time>2021-09-15T00:10:26.000Z</time>
      </trkpt>
      <trkpt lat="40.861449" lon="-4.055798">
        <ele>1450.835454</ele>
        <time>2021-09-15T00:10:28.000Z</time>
      </trkpt>
      <trkpt lat="40.861418" lon="-4.055788">
        <ele>1451.134809</ele>
        <time>2021-09-15T00:10:30.000Z</time>
      </trkpt>
      <trkpt lat="40.861408" lon="-4.055781">
        <ele>1451.240959</ele>
        <time>2021-09-15T00:10:31.000Z</time>
      </trkpt>
      <trkpt lat="40.861378" lon="-4.055741">
        <ele>1451.640655</ele>
        <time>2021-09-15T00:10:34.000Z</time>
      </trkpt>
      <trkpt lat="40.861352" lon="-4.055716">
        <ele>1451.942249</ele>
        <time>2021-09-15T00:10:36.000Z</time>
      </trkpt>
      <trkpt lat="40.86129" lon="-4.055641"/>
      <trkpt lat="40.861273" lon="-4.05563"/>
      <trkpt lat="40.861223" lon="-4.055572">
        <ele>1453.532153</ele>
        <time>2021-09-15T00:10:46.000Z</time>
      </trkpt>
      <trkpt lat="40.8612" lon="-4.055537"/>
      <trkpt lat="40.861145" lon="-4.055428">
        <ele>1454.790832</ele>
        <time>2021-09-15T00:10:53.000Z</time>
      </trkpt>
      <trkpt lat="40.861118" lon="-4.055389">
        <ele>1455.165972</ele>
        <time>2021-09-15T00:10:55.000Z</time>
      </trkpt>
      <trkpt lat="40.861038" lon="-4.055269">
        <ele>1456.300959</ele>
        <time>2021-09-15T00:11:02.000Z</time>
      </trkpt>
      <trkpt lat="40.861014" lon="-4.055238">
        <ele>1456.615718</ele>
        <time>2021-09-15T00:11:04.000Z</time>
      </trkpt>
      <trkpt lat="40.86098" lon="-4.055166"/>
      <trkpt lat="40.860974" lon="-4.05515"/>
      <trkpt lat="40.860945" lon="-4.055078">
        <ele>1457.917428</ele>
        <time>2021-09-15T00:11:14.000Z</time>
      </trkpt>
      <trkpt lat="40.860935" lon="-4.055063">
        <ele>1458.057635</ele>
        <time>2021-09-15T00:11:15.000Z</time>
      </trkpt>
      <trkpt lat="40.860897" lon="-4.05501"/>
      <trkpt lat="40.860868" lon="-4.054976">
        <ele>1458.929055</ele>
        <time>2021-09-15T00:11:21.000Z</time>
      </trkpt>
      <trkpt lat="40.860861" lon="-4.054964">
        <ele>1459.035318</ele>
        <time>2021-09-15T00:11:23.000Z</time>
      </trkpt>
      <trkpt lat="40.860838" lon="-4.054929">
        <ele>1459.360432</ele>
        <time>2021-09-15T00:11:26.000Z</time>
      </trkpt>
      <trkpt lat="40.860821" lon="-4.054917">
        <ele>1459.539096</ele>
        <time>2021-09-15T00:11:27.000Z</time>
      </trkpt>
      <trkpt lat="40.860784" lon="-4.054901">
        <ele>1459.900012</ele>
        <time>2021-09-15T00:11:29.000Z</time>
      </trkpt>
      <trkpt lat="40.86074" lon="-4.054889"/>
      <trkpt lat="40.860642" lon="-4.05489"/>
      <trkpt lat="40.860546" lon="-4.054928">
        <ele>1462.154210</ele>
        <time>2021-09-15T00:11:42.000Z</time>
      </trkpt>
      <trkpt lat="40.86053" lon="-4.054938"/>
      <trkpt lat="40.860455" lon="-4.054999">
        <ele>1463.134651</ele>
        <time>2021-09-15T00:11:47.000Z</time>
      </trkpt>
      <trkpt lat="40.860417" lon="-4.055031">
        <ele>1463.552344</ele>
        <time>2021-09-15T00:11:49.000Z</time>
      </trkpt>
      <trkpt lat="40.860342" lon="-4.055074">
        <ele>1464.310243</ele>
        <time>2021-09-15T00:11:54.000Z</time>
      </trkpt>
      <trkpt lat="40.860308" lon="-4.055095">
        <ele>1464.658162</ele>
        <time>2021-09-15T00:11:56.000Z</time>
      </trkpt>
      <trkpt lat="40.860228" lon="-4.055152">
        <ele>1465.500694</ele>
        <time>2021-09-15T00:12:00.000Z</time>
      </trkpt>
      <trkpt lat="40.86017" lon="-4.055193"/>
      <trkpt lat="40.860093" lon="-4.055265">
        <ele>1466.984817</ele>
        <time>2021-09-15T00:12:07.000Z</time>
      </trkpt>
      <trkpt lat="40.86001" lon="-4.055347"/>
      <trkpt lat="40.859995" lon="-4.055365">
        <ele>1468.133220</ele>
        <time>2021-09-15T00:12:13.000Z</time>
      </trkpt>
      <trkpt lat="40.859951" lon="-4.055411">
        <ele>1468.653267</ele>
        <time>2021-09-15T00:12:16.000Z</time>
      </trkpt>
      <trkpt lat="40.859878" lon="-4.055478">
        <ele>1469.477142</ele>
        <time>2021-09-15T00:12:20.000Z</time>
      </trkpt>
      <trkpt lat="40.859768" lon="-4.055601">
        <ele>1470.812778</ele>
        <time>2021-09-15T00:12:27.000Z</time>
      </trkpt>
      <trkpt lat="40.85975" lon="-4.055615"/>
      <trkpt lat="40.859686" lon="-4.055687">
        <ele>1471.785469</ele>
        <time>2021-09-15T00:12:32.000Z</time>
      </trkpt>
      <trkpt lat="40.859647" lon="-4.055708">
        <ele>1472.175881</ele>
        <time>2021-09-15T00:12:34.000Z</time>
      </trkpt>
      <trkpt lat="40.859566" lon="-4.055739">
        <ele>1472.957678</ele>
        <time>2021-09-15T00:12:38.000Z</time>
      </trkpt>
      <trkpt lat="40.859525" lon="-4.055747">
        <ele>1473.341916</ele>
        <time>2021-09-15T00:12:40.000Z</time>
      </trkpt>
      <trkpt lat="40.859421" lon="-4.055744">
        <ele>1474.163986</ele>
        <time>2021-09-15T00:12:45.000Z</time>
      </trkpt>
      <trkpt lat="40.859351" lon="-4.055742">
        <ele>1474.395800</ele>
        <time>2021-09-15T00:12:48.000Z</time>
      </trkpt>
      <trkpt lat="40.859255" lon="-4.055745">
        <ele>1474.713732</ele>
        <time>2021-09-15T00:12:53.000Z</time>
      </trkpt>
      <trkpt lat="40.859224" lon="-4.055735">
        <ele>1474.819379</ele>
        <time>2021-09-15T00:12:55.000Z</time>
      </trkpt>
      <trkpt lat="40.859138" lon="-4.055689">
        <ele>1475.126529</ele>
        <time>2021-09-15T00:13:00.000Z</time>
      </trkpt>
      <trkpt lat="40.859094" lon="-4.055677">
        <ele>1475.275274</ele>
        <time>2021-09-15T00:13:02.000Z</time>
      </trkpt>
      <trkpt lat="40.858983" lon="-4.055656">
        <ele>1475.646523</ele>
        <time>2021-09-15T00:13:06.000Z</time>
      </trkpt>
      <trkpt lat="40.85877" lon="-4.055641"/>
      <trkpt lat="40.858579" lon="-4.055609">
        <ele>1476.990167</ele>
        <time>2021-09-15T00:13:19.000Z</time>
      </trkpt>
      <trkpt lat="40.858447" lon="-4.055577">
        <ele>1477.434486</ele>
        <time>2021-09-15T00:13:23.000Z</time>
      </trkpt>
      <trkpt lat="40.858324" lon="-4.055524">
        <ele>1477.862802</ele>
        <time>2021-09-15T00:13:27.000Z</time>
      </trkpt>
      <trkpt lat="40.858175" lon="-4.055475">
        <ele>1478.371151</ele>
        <time>2021-09-15T00:13:33.000Z</time>
      </trkpt>
      <trkpt lat="40.858018" lon="-4.055414">
        <ele>1478.912935</ele>
        <time>2021-09-15T00:13:41.000Z</time>
      </trkpt>
      <trkpt lat="40.857942" lon="-4.055389">
        <ele>1479.172231</ele>
        <time>2021-09-15T00:13:47.000Z</time>
      </trkpt>
      <trkpt lat="40.857815" lon="-4.055334">
        <ele>1479.614692</ele>
        <time>2021-09-15T00:13:53.000Z</time>
      </trkpt>
      <trkpt lat="40.857676" lon="-4.055236">
        <ele>1480.190835</ele>
        <time>2021-09-15T00:13:59.000Z</time>
      </trkpt>
      <trkpt lat="40.857654" lon="-4.055216">
        <ele>1480.329349</ele>
        <time>2021-09-15T00:14:00.000Z</time>
      </trkpt>
      <trkpt lat="40.857528" lon="-4.055144">
        <ele>1481.041485</ele>
        <time>2021-09-15T00:14:05.000Z</time>
      </trkpt>
      <trkpt lat="40.857379" lon="-4.055045">
        <ele>1481.906627</ele>
        <time>2021-09-15T00:14:12.000Z</time>
      </trkpt>
      <trkpt lat="40.857362" lon="-4.05503"/>
      <trkpt lat="40.857244" lon="-4.054992">
        <ele>1482.642749</ele>
        <time>2021-09-15T00:14:19.000Z</time>
      </trkpt>
      <trkpt lat="40.857222" lon="-4.054989">
        <ele>1482.757492</ele>
        <time>2021-09-15T00:14:20.000Z</time>
      </trkpt>
      <trkpt lat="40.857188" lon="-4.054979">
        <ele>1482.938198</ele>
        <time>2021-09-15T00:14:22.000Z</time>
      </trkpt>
      <trkpt lat="40.85718" lon="-4.05499"/>
      <trkpt lat="40.857213" lon="-4.055028">
        <ele>1483.225115</ele>
        <time>2021-09-15T00:14:27.000Z</time>
      </trkpt>
      <trkpt lat="40.857238" lon="-4.05502"/>
      <trkpt lat="40.857248" lon="-4.055012">
        <ele>1483.419199</ele>
        <time>2021-09-15T00:14:30.000Z</time>
      </trkpt>
      <trkpt lat="40.857246" lon="-4.054987">
        <ele>1483.517845</ele>
        <time>2021-09-15T00:14:32.000Z</time>
      </trkpt>
      <trkpt lat="40.857143" lon="-4.054946">
        <ele>1484.075909</ele>
        <time>2021-09-15T00:14:37.000Z</time>
      </trkpt>
      <trkpt lat="40.857095" lon="-4.05491"/>
      <trkpt lat="40.857018" lon="-4.054866">
        <ele>1484.797407</ele>
        <time>2021-09-15T00:14:43.000Z</time>
      </trkpt>
      <trkpt lat="40.856969" lon="-4.054817">
        <ele>1485.116146</ele>
        <time>2021-09-15T00:14:46.000Z</time>
      </trkpt>
      <trkpt lat="40.856928" lon="-4.054769">
        <ele>1485.400261</ele>
        <time>2021-09-15T00:14:49.000Z</time>
      </trkpt>
      <trkpt lat="40.856884" lon="-4.054683">
        <ele>1485.807679</ele>
        <time>2021-09-15T00:14:55.000Z</time>
      </trkpt>
      <trkpt lat="40.856873" lon="-4.05466"/>
      <trkpt lat="40.856818" lon="-4.054565">
        <ele>1486.383911</ele>
        <time>2021-09-15T00:15:01.000Z</time>
      </trkpt>
      <trkpt lat="40.85682" lon="-4.054564"/>
      <trkpt lat="40.856805" lon="-4.054508">
        <ele>1486.628120</ele>
        <time>2021-09-15T00:15:39.000Z</time>
      </trkpt>
      <trkpt lat="40.856784" lon="-4.054454">
        <ele>1486.866383</ele>
        <time>2021-09-15T00:15:41.000Z</time>
      </trkpt>
      <trkpt lat="40.856733" lon="-4.054323">
        <ele>1487.444523</ele>
        <time>2021-09-15T00:15:45.000Z</time>
      </trkpt>
      <trkpt lat="40.856688" lon="-4.054231">
        <ele>1487.874442</ele>
        <time>2021-09-15T00:15:48.000Z</time>
      </trkpt>
      <trkpt lat="40.856605" lon="-4.054048">
        <ele>1488.711745</ele>
        <time>2021-09-15T00:15:54.000Z</time>
      </trkpt>
      <trkpt lat="40.856593" lon="-4.05401"/>
      <trkpt lat="40.856558" lon="-4.053905">
        <ele>1489.323589</ele>
        <time>2021-09-15T00:15:58.000Z</time>
      </trkpt>
      <trkpt lat="40.856504" lon="-4.053808">
        <ele>1489.769775</ele>
        <time>2021-09-15T00:16:01.000Z</time>
      </trkpt>
      <trkpt lat="40.856484" lon="-4.053775">
        <ele>1489.925387</ele>
        <time>2021-09-15T00:16:02.000Z</time>
      </trkpt>
      <trkpt lat="40.856399" lon="-4.053653">
        <ele>1490.535774</ele>
        <time>2021-09-15T00:16:06.000Z</time>
      </trkpt>
      <trkpt lat="40.85638" lon="-4.053625"/>
      <trkpt lat="40.856284" lon="-4.053475">
        <ele>1491.397272</ele>
        <time>2021-09-15T00:16:12.000Z</time>
      </trkpt>
      <trkpt lat="40.856178" lon="-4.053269">
        <ele>1492.314121</ele>
        <time>2021-09-15T00:16:18.000Z</time>
      </trkpt>
      <trkpt lat="40.856149" lon="-4.05321"/>
      <trkpt lat="40.856095" lon="-4.053135">
        <ele>1492.954097</ele>
        <time>2021-09-15T00:16:23.000Z</time>
      </trkpt>
      <trkpt lat="40.856067" lon="-4.053096">
        <ele>1493.151972</ele>
        <time>2021-09-15T00:16:25.000Z</time>
      </trkpt>
      <trkpt lat="40.856048" lon="-4.053074">
        <ele>1493.274851</ele>
        <time>2021-09-15T00:16:26.000Z</time>
      </trkpt>
      <trkpt lat="40.855942" lon="-4.05297"/>
      <trkpt lat="40.855858" lon="-4.052807">
        <ele>1494.642876</ele>
        <time>2021-09-15T00:16:34.000Z</time>
      </trkpt>
      <trkpt lat="40.855838" lon="-4.052769">
        <ele>1494.813236</ele>
        <time>2021-09-15T00:16:35.000Z</time>
      </trkpt>
      <trkpt lat="40.855723" lon="-4.052514">
        <ele>1495.905753</ele>
        <time>2021-09-15T00:16:42.000Z</time>
      </trkpt>
      <trkpt lat="40.855695" lon="-4.052431">
        <ele>1496.240188</ele>
        <time>2021-09-15T00:16:44.000Z</time>
      </trkpt>
      <trkpt lat="40.855595" lon="-4.052239">
        <ele>1497.098040</ele>
        <time>2021-09-15T00:16:49.000Z</time>
      </trkpt>
      <trkpt lat="40.855518" lon="-4.052092">
        <ele>1497.756043</ele>
        <time>2021-09-15T00:16:53.000Z</time>
      </trkpt>
      <trkpt lat="40.855452" lon="-4.051982">
        <ele>1498.190735</ele>
        <time>2021-09-15T00:16:56.000Z</time>
      </trkpt>
      <trkpt lat="40.855388" lon="-4.051877">
        <ele>1498.416420</ele>
        <time>2021-09-15T00:16:59.000Z</time>
      </trkpt>
      <trkpt lat="40.855295" lon="-4.051766">
        <ele>1498.693647</ele>
        <time>2021-09-15T00:17:03.000Z</time>
      </trkpt>
      <trkpt lat="40.855249" lon="-4.051699">
        <ele>1498.845083</ele>
        <time>2021-09-15T00:17:05.000Z</time>
      </trkpt>
      <trkpt lat="40.855169" lon="-4.051557">
        <ele>1499.141414</ele>
        <time>2021-09-15T00:17:09.000Z</time>
      </trkpt>
      <trkpt lat="40.855128" lon="-4.051481">
        <ele>1499.297645</ele>
        <time>2021-09-15T00:17:11.000Z</time>
      </trkpt>
      <trkpt lat="40.855003" lon="-4.051354">
        <ele>1499.646464</ele>
        <time>2021-09-15T00:17:15.000Z</time>
      </trkpt>
      <trkpt lat="40.854835" lon="-4.051268">
        <ele>1500.045086</ele>
        <time>2021-09-15T00:17:19.000Z</time>
      </trkpt>
      <trkpt lat="40.854754" lon="-4.051225">
        <ele>1500.238221</ele>
        <time>2021-09-15T00:17:21.000Z</time>
      </trkpt>
      <trkpt lat="40.854396" lon="-4.05106"/>
      <trkpt lat="40.854118" lon="-4.050971">
        <ele>1501.710015</ele>
        <time>2021-09-15T00:17:37.000Z</time>
      </trkpt>
      <trkpt lat="40.853976" lon="-4.050906">
        <ele>1502.042514</ele>
        <time>2021-09-15T00:17:42.000Z</time>
      </trkpt>
      <trkpt lat="40.853926" lon="-4.050883">
        <ele>1502.006466</ele>
        <time>2021-09-15T00:17:44.000Z</time>
      </trkpt>
      <trkpt lat="40.853903" lon="-4.050882">
        <ele>1501.921725</ele>
        <time>2021-09-15T00:17:45.000Z</time>
      </trkpt>
      <trkpt lat="40.853846" lon="-4.050896">
        <ele>1501.708239</ele>
        <time>2021-09-15T00:17:47.000Z</time>
      </trkpt>
      <trkpt lat="40.853771" lon="-4.050912">
        <ele>1501.428489</ele>
        <time>2021-09-15T00:17:49.000Z</time>
      </trkpt>
      <trkpt lat="40.85364" lon="-4.050956"/>
      <trkpt lat="40.853276" lon="-4.051044">
        <ele>1499.568166</ele>
        <time>2021-09-15T00:18:00.000Z</time>
      </trkpt>
      <trkpt lat="40.853183" lon="-4.051065">
        <ele>1499.220747</ele>
        <time>2021-09-15T00:18:02.000Z</time>
      </trkpt>
      <trkpt lat="40.852983" lon="-4.051097">
        <ele>1498.478899</ele>
        <time>2021-09-15T00:18:06.000Z</time>
      </trkpt>
      <trkpt lat="40.852636" lon="-4.051142">
        <ele>1497.194984</ele>
        <time>2021-09-15T00:18:12.000Z</time>
      </trkpt>
      <trkpt lat="40.852418" lon="-4.05117"/>
      <trkpt lat="40.852267" lon="-4.051193">
        <ele>1495.828732</ele>
        <time>2021-09-15T00:18:17.000Z</time>
      </trkpt>
      <trkpt lat="40.852189" lon="-4.051206">
        <ele>1495.539234</ele>
        <time>2021-09-15T00:18:18.000Z</time>
      </trkpt>
      <trkpt lat="40.852105" lon="-4.051216">
        <ele>1495.401982</ele>
        <time>2021-09-15T00:18:19.000Z</time>
      </trkpt>
      <trkpt lat="40.851871" lon="-4.051276">
        <ele>1495.132213</ele>
        <time>2021-09-15T00:18:22.000Z</time>
      </trkpt>
      <trkpt lat="40.851793" lon="-4.051301">
        <ele>1495.041378</ele>
        <time>2021-09-15T00:18:23.000Z</time>
      </trkpt>
      <trkpt lat="40.851647" lon="-4.051363">
        <ele>1494.867825</ele>
        <time>2021-09-15T00:18:25.000Z</time>
      </trkpt>
      <trkpt lat="40.851505" lon="-4.05142"/>
      <trkpt lat="40.851383" lon="-4.051471">
        <ele>1494.555055</ele>
        <time>2021-09-15T00:18:29.000Z</time>
      </trkpt>
      <trkpt lat="40.851323" lon="-4.051493">
        <ele>1494.484586</ele>
        <time>2021-09-15T00:18:30.000Z</time>
      </trkpt>
      <trkpt lat="40.851107" lon="-4.051563">
        <ele>1494.232886</ele>
        <time>2021-09-15T00:18:34.000Z</time>
      </trkpt>
      <trkpt lat="40.851051" lon="-4.051577">
        <ele>1494.168384</ele>
        <time>2021-09-15T00:18:35.000Z</time>
      </trkpt>
      <trkpt lat="40.85079" lon="-4.051633"/>
      <trkpt lat="40.850493" lon="-4.051767">
        <ele>1493.513957</ele>
        <time>2021-09-15T00:18:46.000Z</time>
      </trkpt>
      <trkpt lat="40.850139" lon="-4.051934">
        <ele>1494.440729</ele>
        <time>2021-09-15T00:18:53.000Z</time>
      </trkpt>
      <trkpt lat="40.850041" lon="-4.051979">
        <ele>1494.770942</ele>
        <time>2021-09-15T00:18:55.000Z</time>
      </trkpt>
      <trkpt lat="40.849908" lon="-4.052015">
        <ele>1495.203062</ele>
        <time>2021-09-15T00:18:58.000Z</time>
      </trkpt>
      <trkpt lat="40.849697" lon="-4.052081">
        <ele>1495.893215</ele>
        <time>2021-09-15T00:19:03.000Z</time>
      </trkpt>
      <trkpt lat="40.849651" lon="-4.052089">
        <ele>1496.040893</ele>
        <time>2021-09-15T00:19:04.000Z</time>
      </trkpt>
      <trkpt lat="40.849604" lon="-4.052096">
        <ele>1496.191440</ele>
        <time>2021-09-15T00:19:05.000Z</time>
      </trkpt>
      <trkpt lat="40.849342" lon="-4.05212"/>
      <trkpt lat="40.849252" lon="-4.052118">
        <ele>1497.313890</ele>
        <time>2021-09-15T00:19:13.000Z</time>
      </trkpt>
      <trkpt lat="40.849161" lon="-4.052123">
        <ele>1497.603792</ele>
        <time>2021-09-15T00:19:15.000Z</time>
      </trkpt>
      <trkpt lat="40.848893" lon="-4.052119">
        <ele>1498.456886</ele>
        <time>2021-09-15T00:19:21.000Z</time>
      </trkpt>
      <trkpt lat="40.848851" lon="-4.052115">
        <ele>1498.590918</ele>
        <time>2021-09-15T00:19:22.000Z</time>
      </trkpt>
      <trkpt lat="40.848609" lon="-4.052094">
        <ele>1499.385268</ele>
        <time>2021-09-15T00:19:28.000Z</time>
      </trkpt>
      <trkpt lat="40.848478" lon="-4.052084">
        <ele>1499.851041</ele>
        <time>2021-09-15T00:19:31.000Z</time>
      </trkpt>
      <trkpt lat="40.84831" lon="-4.052071"/>
      <trkpt lat="40.848063" lon="-4.051979">
        <ele>1501.359285</ele>
        <time>2021-09-15T00:19:41.000Z</time>
      </trkpt>
      <trkpt lat="40.847996" lon="-4.051934">
        <ele>1501.626043</ele>
        <time>2021-09-15T00:19:43.000Z</time>
      </trkpt>
      <trkpt lat="40.847869" lon="-4.051831">
        <ele>1502.154918</ele>
        <time>2021-09-15T00:19:47.000Z</time>
      </trkpt>
      <trkpt lat="40.847762" lon="-4.051743">
        <ele>1502.602228</ele>
        <time>2021-09-15T00:19:50.000Z</time>
      </trkpt>
      <trkpt lat="40.847653" lon="-4.051662">
        <ele>1503.046075</ele>
        <time>2021-09-15T00:19:53.000Z</time>
      </trkpt>
      <trkpt lat="40.84755" lon="-4.05158"/>
      <trkpt lat="40.847424" lon="-4.051482">
        <ele>1503.991783</ele>
        <time>2021-09-15T00:20:00.000Z</time>
      </trkpt>
      <trkpt lat="40.847275" lon="-4.051354">
        <ele>1504.622538</ele>
        <time>2021-09-15T00:20:05.000Z</time>
      </trkpt>
      <trkpt lat="40.847251" lon="-4.051321">
        <ele>1504.745457</ele>
        <time>2021-09-15T00:20:06.000Z</time>
      </trkpt>
      <trkpt lat="40.847106" lon="-4.051154">
        <ele>1505.428088</ele>
        <time>2021-09-15T00:20:12.000Z</time>
      </trkpt>
      <trkpt lat="40.847081" lon="-4.051123">
        <ele>1505.549758</ele>
        <time>2021-09-15T00:20:13.000Z</time>
      </trkpt>
      <trkpt lat="40.846979" lon="-4.051027">
        <ele>1506.014597</ele>
        <time>2021-09-15T00:20:18.000Z</time>
      </trkpt>
      <trkpt lat="40.846926" lon="-4.051013">
        <ele>1506.215307</ele>
        <time>2021-09-15T00:20:20.000Z</time>
      </trkpt>
      <trkpt lat="40.846901" lon="-4.051016">
        <ele>1506.308528</ele>
        <time>2021-09-15T00:20:21.000Z</time>
      </trkpt>
      <trkpt lat="40.846853" lon="-4.051024">
        <ele>1506.488191</ele>
        <time>2021-09-15T00:20:23.000Z</time>
      </trkpt>
      <trkpt lat="40.846755" lon="-4.051079">
        <ele>1506.883560</ele>
        <time>2021-09-15T00:20:27.000Z</time>
      </trkpt>
      <trkpt lat="40.846701" lon="-4.051113">
        <ele>1507.105677</ele>
        <time>2021-09-15T00:20:29.000Z</time>
      </trkpt>
      <trkpt lat="40.846635" lon="-4.051185">
        <ele>1507.423452</ele>
        <time>2021-09-15T00:20:32.000Z</time>
      </trkpt>
      <trkpt lat="40.846529" lon="-4.051299">
        <ele>1507.930906</ele>
        <time>2021-09-15T00:20:36.000Z</time>
      </trkpt>
      <trkpt lat="40.846269" lon="-4.051447">
        <ele>1508.982144</ele>
        <time>2021-09-15T00:20:43.000Z</time>
      </trkpt>
      <trkpt lat="40.846118" lon="-4.05151"/>
      <trkpt lat="40.846044" lon="-4.051545">
        <ele>1509.862023</ele>
        <time>2021-09-15T00:20:49.000Z</time>
      </trkpt>
      <trkpt lat="40.845916" lon="-4.051625">
        <ele>1510.387810</ele>
        <time>2021-09-15T00:20:53.000Z</time>
      </trkpt>
      <trkpt lat="40.845843" lon="-4.051657">
        <ele>1510.673417</ele>
        <time>2021-09-15T00:20:55.000Z</time>
      </trkpt>
      <trkpt lat="40.845655" lon="-4.051741">
        <ele>1511.410370</ele>
        <time>2021-09-15T00:21:00.000Z</time>
      </trkpt>
      <trkpt lat="40.845552" lon="-4.051792">
        <ele>1511.818819</ele>
        <time>2021-09-15T00:21:03.000Z</time>
      </trkpt>
      <trkpt lat="40.845449" lon="-4.05184"/>
      <trkpt lat="40.84527" lon="-4.051909"/>
      <trkpt lat="40.84509" lon="-4.051938"/>
      <trkpt lat="40.844969" lon="-4.051933">
        <ele>1513.909400</ele>
        <time>2021-09-15T00:21:19.000Z</time>
      </trkpt>
      <trkpt lat="40.844851" lon="-4.051918">
        <ele>1514.317876</ele>
        <time>2021-09-15T00:21:22.000Z</time>
      </trkpt>
      <trkpt lat="40.844591" lon="-4.051872">
        <ele>1515.221764</ele>
        <time>2021-09-15T00:21:28.000Z</time>
      </trkpt>
      <trkpt lat="40.844518" lon="-4.051861">
        <ele>1515.474934</ele>
        <time>2021-09-15T00:21:30.000Z</time>
      </trkpt>
      <trkpt lat="40.844263" lon="-4.0518"/>
      <trkpt lat="40.844151" lon="-4.051766">
        <ele>1516.763848</ele>
        <time>2021-09-15T00:21:40.000Z</time>
      </trkpt>
      <trkpt lat="40.844014" lon="-4.051691">
        <ele>1517.274799</ele>
        <time>2021-09-15T00:21:44.000Z</time>
      </trkpt>
      <trkpt lat="40.84392" lon="-4.051611"/>
      <trkpt lat="40.843842" lon="-4.051509">
        <ele>1518.038089</ele>
        <time>2021-09-15T00:21:50.000Z</time>
      </trkpt>
      <trkpt lat="40.843793" lon="-4.051433">
        <ele>1518.298387</ele>
        <time>2021-09-15T00:21:52.000Z</time>
      </trkpt>
      <trkpt lat="40.843725" lon="-4.051268">
        <ele>1518.507504</ele>
        <time>2021-09-15T00:21:56.000Z</time>
      </trkpt>
      <trkpt lat="40.843709" lon="-4.051177">
        <ele>1518.560271</ele>
        <time>2021-09-15T00:21:58.000Z</time>
      </trkpt>
      <trkpt lat="40.843718" lon="-4.051054">
        <ele>1518.630067</ele>
        <time>2021-09-15T00:22:01.000Z</time>
      </trkpt>
      <trkpt lat="40.843749" lon="-4.050887">
        <ele>1518.727188</ele>
        <time>2021-09-15T00:22:05.000Z</time>
      </trkpt>
      <trkpt lat="40.843765" lon="-4.050788">
        <ele>1518.784366</ele>
        <time>2021-09-15T00:22:07.000Z</time>
      </trkpt>
      <trkpt lat="40.843746" lon="-4.050581">
        <ele>1518.902139</ele>
        <time>2021-09-15T00:22:11.000Z</time>
      </trkpt>
      <trkpt lat="40.843618" lon="-4.050383">
        <ele>1519.049242</ele>
        <time>2021-09-15T00:22:17.000Z</time>
      </trkpt>
      <trkpt lat="40.843437" lon="-4.05027"/>
      <trkpt lat="40.843277" lon="-4.050261">
        <ele>1519.318259</ele>
        <time>2021-09-15T00:22:28.000Z</time>
      </trkpt>
      <trkpt lat="40.843016" lon="-4.0503"/>
      <trkpt lat="40.842817" lon="-4.050334">
        <ele>1519.664178</ele>
        <time>2021-09-15T00:22:40.000Z</time>
      </trkpt>
      <trkpt lat="40.842733" lon="-4.050355">
        <ele>1519.728005</ele>
        <time>2021-09-15T00:22:42.000Z</time>
      </trkpt>
      <trkpt lat="40.842601" lon="-4.050382">
        <ele>1519.711815</ele>
        <time>2021-09-15T00:22:45.000Z</time>
      </trkpt>
      <trkpt lat="40.84251" lon="-4.050387"/>
      <trkpt lat="40.842222" lon="-4.050405">
        <ele>1519.397812</ele>
        <time>2021-09-15T00:22:54.000Z</time>
      </trkpt>
      <trkpt lat="40.841982" lon="-4.050384">
        <ele>1519.198746</ele>
        <time>2021-09-15T00:22:59.000Z</time>
      </trkpt>
      <trkpt lat="40.841747" lon="-4.050378">
        <ele>1519.004217</ele>
        <time>2021-09-15T00:23:04.000Z</time>
      </trkpt>
      <trkpt lat="40.841646" lon="-4.050409">
        <ele>1518.918402</ele>
        <time>2021-09-15T00:23:06.000Z</time>
      </trkpt>
      <trkpt lat="40.841366" lon="-4.050556">
        <ele>1518.669057</ele>
        <time>2021-09-15T00:23:12.000Z</time>
      </trkpt>
      <trkpt lat="40.841298" lon="-4.050621">
        <ele>1518.599605</ele>
        <time>2021-09-15T00:23:14.000Z</time>
      </trkpt>
      <trkpt lat="40.841184" lon="-4.05066"/>
      <trkpt lat="40.841082" lon="-4.050704">
        <ele>1518.413346</ele>
        <time>2021-09-15T00:23:18.000Z</time>
      </trkpt>
      <trkpt lat="40.840933" lon="-4.050779">
        <ele>1518.280467</ele>
        <time>2021-09-15T00:23:21.000Z</time>
      </trkpt>
      <trkpt lat="40.840891" lon="-4.050807">
        <ele>1518.228480</ele>
        <time>2021-09-15T00:23:22.000Z</time>
      </trkpt>
      <trkpt lat="40.840623" lon="-4.050937">
        <ele>1517.912979</ele>
        <time>2021-09-15T00:23:28.000Z</time>
      </trkpt>
      <trkpt lat="40.840575" lon="-4.050952">
        <ele>1517.858468</ele>
        <time>2021-09-15T00:23:29.000Z</time>
      </trkpt>
      <trkpt lat="40.840364" lon="-4.050979">
        <ele>1517.624186</ele>
        <time>2021-09-15T00:23:33.000Z</time>
      </trkpt>
      <trkpt lat="40.84011" lon="-4.050985"/>
      <trkpt lat="40.840052" lon="-4.050979">
        <ele>1517.279130</ele>
        <time>2021-09-15T00:23:39.000Z</time>
      </trkpt>
      <trkpt lat="40.839964" lon="-4.050984">
        <ele>1517.181785</ele>
        <time>2021-09-15T00:23:41.000Z</time>
      </trkpt>
      <trkpt lat="40.839918" lon="-4.050973">
        <ele>1517.130121</ele>
        <time>2021-09-15T00:23:42.000Z</time>
      </trkpt>
      <trkpt lat="40.83961" lon="-4.050915"/>
      <trkpt lat="40.839459" lon="-4.050903">
        <ele>1516.619107</ele>
        <time>2021-09-15T00:23:51.000Z</time>
      </trkpt>
      <trkpt lat="40.8394" lon="-4.050911"/>
      <trkpt lat="40.83918" lon="-4.051006"/>
      <trkpt lat="40.839122" lon="-4.051039">
        <ele>1516.292283</ele>
        <time>2021-09-15T00:23:57.000Z</time>
      </trkpt>
      <trkpt lat="40.838964" lon="-4.051159">
        <ele>1516.280368</ele>
        <time>2021-09-15T00:24:00.000Z</time>
      </trkpt>
      <trkpt lat="40.838861" lon="-4.051267">
        <ele>1516.271771</ele>
        <time>2021-09-15T00:24:02.000Z</time>
      </trkpt>
      <trkpt lat="40.838817" lon="-4.051324">
        <ele>1516.267743</ele>
        <time>2021-09-15T00:24:03.000Z</time>
      </trkpt>
      <trkpt lat="40.838723" lon="-4.051532">
        <ele>1516.255757</ele>
        <time>2021-09-15T00:24:06.000Z</time>
      </trkpt>
      <trkpt lat="40.838672" lon="-4.051779">
        <ele>1516.243092</ele>
        <time>2021-09-15T00:24:09.000Z</time>
      </trkpt>
      <trkpt lat="40.83865" lon="-4.051954"/>
      <trkpt lat="40.8386" lon="-4.052115"/>
      <trkpt lat="40.838515" lon="-4.052358">
        <ele>1516.212463</ele>
        <time>2021-09-15T00:24:16.000Z</time>
      </trkpt>
      <trkpt lat="40.83848" lon="-4.052432"/>
      <trkpt lat="40.838353" lon="-4.052612">
        <ele>1516.195971</ele>
        <time>2021-09-15T00:24:20.000Z</time>
      </trkpt>
      <trkpt lat="40.838195" lon="-4.052779">
        <ele>1516.182743</ele>
        <time>2021-09-15T00:24:24.000Z</time>
      </trkpt>
      <trkpt lat="40.838139" lon="-4.052816">
        <ele>1516.180346</ele>
        <time>2021-09-15T00:24:25.000Z</time>
      </trkpt>
      <trkpt lat="40.837992" lon="-4.052918">
        <ele>1516.432751</ele>
        <time>2021-09-15T00:24:28.000Z</time>
      </trkpt>
      <trkpt lat="40.837913" lon="-4.052974">
        <ele>1516.569035</ele>
        <time>2021-09-15T00:24:30.000Z</time>
      </trkpt>
      <trkpt lat="40.837673" lon="-4.05308"/>
      <trkpt lat="40.837589" lon="-4.053083">
        <ele>1517.081485</ele>
        <time>2021-09-15T00:24:38.000Z</time>
      </trkpt>
      <trkpt lat="40.837452" lon="-4.053089">
        <ele>1517.289878</ele>
        <time>2021-09-15T00:24:41.000Z</time>
      </trkpt>
      <trkpt lat="40.837407" lon="-4.053088">
        <ele>1517.358301</ele>
        <time>2021-09-15T00:24:42.000Z</time>
      </trkpt>
      <trkpt lat="40.837061" lon="-4.053038">
        <ele>1517.887454</ele>
        <time>2021-09-15T00:24:49.000Z</time>
      </trkpt>
      <trkpt lat="40.83691" lon="-4.053004"/>
      <trkpt lat="40.836815" lon="-4.052979">
        <ele>1518.267586</ele>
        <time>2021-09-15T00:24:54.000Z</time>
      </trkpt>
      <trkpt lat="40.836769" lon="-4.05296"/>
      <trkpt lat="40.836544" lon="-4.052842">
        <ele>1518.708862</ele>
        <time>2021-09-15T00:25:01.000Z</time>
      </trkpt>
      <trkpt lat="40.836352" lon="-4.052738">
        <ele>1519.077608</ele>
        <time>2021-09-15T00:25:06.000Z</time>
      </trkpt>
      <trkpt lat="40.836294" lon="-4.052718">
        <ele>1519.212429</ele>
        <time>2021-09-15T00:25:07.000Z</time>
      </trkpt>
      <trkpt lat="40.836175" lon="-4.05269"/>
      <trkpt lat="40.836003" lon="-4.052669">
        <ele>1519.872804</ele>
        <time>2021-09-15T00:25:12.000Z</time>
      </trkpt>
      <trkpt lat="40.835728" lon="-4.052656">
        <ele>1520.491732</ele>
        <time>2021-09-15T00:25:17.000Z</time>
      </trkpt>
      <trkpt lat="40.835678" lon="-4.052674">
        <ele>1520.608289</ele>
        <time>2021-09-15T00:25:18.000Z</time>
      </trkpt>
      <trkpt lat="40.835538" lon="-4.052844">
        <ele>1521.035894</ele>
        <time>2021-09-15T00:25:22.000Z</time>
      </trkpt>
      <trkpt lat="40.835357" lon="-4.053098">
        <ele>1521.629668</ele>
        <time>2021-09-15T00:25:28.000Z</time>
      </trkpt>
      <trkpt lat="40.835172" lon="-4.053278">
        <ele>1522.146359</ele>
        <time>2021-09-15T00:25:34.000Z</time>
      </trkpt>
      <trkpt lat="40.834949" lon="-4.053413">
        <ele>1522.698042</ele>
        <time>2021-09-15T00:25:41.000Z</time>
      </trkpt>
      <trkpt lat="40.834881" lon="-4.053476">
        <ele>1522.884822</ele>
        <time>2021-09-15T00:25:44.000Z</time>
      </trkpt>
      <trkpt lat="40.834838" lon="-4.05358"/>
      <trkpt lat="40.834822" lon="-4.053624">
        <ele>1523.495504</ele>
        <time>2021-09-15T00:25:48.000Z</time>
      </trkpt>
      <trkpt lat="40.834763" lon="-4.053761">
        <ele>1524.178362</ele>
        <time>2021-09-15T00:25:51.000Z</time>
      </trkpt>
      <trkpt lat="40.834742" lon="-4.053859">
        <ele>1524.619575</ele>
        <time>2021-09-15T00:25:53.000Z</time>
      </trkpt>
      <trkpt lat="40.834725" lon="-4.053944">
        <ele>1525.000424</ele>
        <time>2021-09-15T00:25:55.000Z</time>
      </trkpt>
      <trkpt lat="40.834655" lon="-4.054117">
        <ele>1525.850260</ele>
        <time>2021-09-15T00:25:59.000Z</time>
      </trkpt>
      <trkpt lat="40.83463" lon="-4.054156"/>
      <trkpt lat="40.834556" lon="-4.054296">
        <ele>1526.811470</ele>
        <time>2021-09-15T00:26:04.000Z</time>
      </trkpt>
      <trkpt lat="40.834538" lon="-4.054332">
        <ele>1526.998391</ele>
        <time>2021-09-15T00:26:05.000Z</time>
      </trkpt>
      <trkpt lat="40.834502" lon="-4.054395">
        <ele>1527.340383</ele>
        <time>2021-09-15T00:26:07.000Z</time>
      </trkpt>
      <trkpt lat="40.834439" lon="-4.054518">
        <ele>1527.983805</ele>
        <time>2021-09-15T00:26:11.000Z</time>
      </trkpt>
      <trkpt lat="40.834379" lon="-4.054625">
        <ele>1528.560730</ele>
        <time>2021-09-15T00:26:14.000Z</time>
      </trkpt>
      <trkpt lat="40.834307" lon="-4.054752">
        <ele>1529.248177</ele>
        <time>2021-09-15T00:26:18.000Z</time>
      </trkpt>
      <trkpt lat="40.834175" lon="-4.054934">
        <ele>1530.340291</ele>
        <time>2021-09-15T00:26:24.000Z</time>
      </trkpt>
      <trkpt lat="40.834011" lon="-4.055129">
        <ele>1531.603292</ele>
        <time>2021-09-15T00:26:31.000Z</time>
      </trkpt>
      <trkpt lat="40.833906" lon="-4.055204">
        <ele>1532.286627</ele>
        <time>2021-09-15T00:26:34.000Z</time>
      </trkpt>
      <trkpt lat="40.833822" lon="-4.055251">
        <ele>1532.808877</ele>
        <time>2021-09-15T00:26:36.000Z</time>
      </trkpt>
      <trkpt lat="40.83361" lon="-4.055433"/>
      <trkpt lat="40.833584" lon="-4.055453">
        <ele>1533.822315</ele>
        <time>2021-09-15T00:26:44.000Z</time>
      </trkpt>
      <trkpt lat="40.833451" lon="-4.05553"/>
      <trkpt lat="40.833359" lon="-4.055577">
        <ele>1534.496279</ele>
        <time>2021-09-15T00:26:51.000Z</time>
      </trkpt>
      <trkpt lat="40.833223" lon="-4.055631">
        <ele>1534.888785</ele>
        <time>2021-09-15T00:26:55.000Z</time>
      </trkpt>
      <trkpt lat="40.833008" lon="-4.055694">
        <ele>1535.497481</ele>
        <time>2021-09-15T00:27:01.000Z</time>
      </trkpt>
      <trkpt lat="40.832751" lon="-4.055749">
        <ele>1536.217089</ele>
        <time>2021-09-15T00:27:08.000Z</time>
      </trkpt>
      <trkpt lat="40.832664" lon="-4.055757">
        <ele>1536.458141</ele>
        <time>2021-09-15T00:27:10.000Z</time>
      </trkpt>
      <trkpt lat="40.832516" lon="-4.055771">
        <ele>1536.868264</ele>
        <time>2021-09-15T00:27:13.000Z</time>
      </trkpt>
      <trkpt lat="40.832287" lon="-4.055768">
        <ele>1537.501258</ele>
        <time>2021-09-15T00:27:19.000Z</time>
      </trkpt>
      <trkpt lat="40.832065" lon="-4.055767">
        <ele>1538.114877</ele>
        <time>2021-09-15T00:27:25.000Z</time>
      </trkpt>
      <trkpt lat="40.831978" lon="-4.055765">
        <ele>1538.326164</ele>
        <time>2021-09-15T00:27:27.000Z</time>
      </trkpt>
      <trkpt lat="40.831837" lon="-4.055783">
        <ele>1538.627854</ele>
        <time>2021-09-15T00:27:31.000Z</time>
      </trkpt>
      <trkpt lat="40.831637" lon="-4.055772">
        <ele>1539.054169</ele>
        <time>2021-09-15T00:27:36.000Z</time>
      </trkpt>
      <trkpt lat="40.831549" lon="-4.055759">
        <ele>1539.242752</ele>
        <time>2021-09-15T00:27:38.000Z</time>
      </trkpt>
      <trkpt lat="40.831341" lon="-4.055732">
        <ele>1539.687868</ele>
        <time>2021-09-15T00:27:43.000Z</time>
      </trkpt>
      <trkpt lat="40.831159" lon="-4.055709">
        <ele>1540.077247</ele>
        <time>2021-09-15T00:27:48.000Z</time>
      </trkpt>
      <trkpt lat="40.831084" lon="-4.055702">
        <ele>1540.237374</ele>
        <time>2021-09-15T00:27:50.000Z</time>
      </trkpt>
      <trkpt lat="40.830827" lon="-4.055633">
        <ele>1540.795895</ele>
        <time>2021-09-15T00:27:57.000Z</time>
      </trkpt>
      <trkpt lat="40.830759" lon="-4.055594">
        <ele>1540.953765</ele>
        <time>2021-09-15T00:27:59.000Z</time>
      </trkpt>
      <trkpt lat="40.830663" lon="-4.05556"/>
      <trkpt lat="40.83052" lon="-4.055543"/>
      <trkpt lat="40.830371" lon="-4.0556"/>
      <trkpt lat="40.830339" lon="-4.055611">
        <ele>1541.871989</ele>
        <time>2021-09-15T00:28:12.000Z</time>
      </trkpt>
      <trkpt lat="40.830242" lon="-4.05569"/>
      <trkpt lat="40.830145" lon="-4.055823">
        <ele>1542.225650</ele>
        <time>2021-09-15T00:28:20.000Z</time>
      </trkpt>
      <trkpt lat="40.83012" lon="-4.05586"/>
      <trkpt lat="40.829972" lon="-4.056089">
        <ele>1542.492525</ele>
        <time>2021-09-15T00:28:27.000Z</time>
      </trkpt>
      <trkpt lat="40.829777" lon="-4.056398">
        <ele>1542.798656</ele>
        <time>2021-09-15T00:28:34.000Z</time>
      </trkpt>
      <trkpt lat="40.829683" lon="-4.056646">
        <ele>1543.009692</ele>
        <time>2021-09-15T00:28:39.000Z</time>
      </trkpt>
      <trkpt lat="40.829597" lon="-4.05696"/>
      <trkpt lat="40.829554" lon="-4.057122">
        <ele>1543.394381</ele>
        <time>2021-09-15T00:28:48.000Z</time>
      </trkpt>
      <trkpt lat="40.829513" lon="-4.057287">
        <ele>1543.526514</ele>
        <time>2021-09-15T00:28:51.000Z</time>
      </trkpt>
      <trkpt lat="40.829474" lon="-4.057457">
        <ele>1543.661670</ele>
        <time>2021-09-15T00:28:54.000Z</time>
      </trkpt>
      <trkpt lat="40.829429" lon="-4.057684">
        <ele>1543.840208</ele>
        <time>2021-09-15T00:28:58.000Z</time>
      </trkpt>
      <trkpt lat="40.829384" lon="-4.057918">
        <ele>1544.117199</ele>
        <time>2021-09-15T00:29:02.000Z</time>
      </trkpt>
      <trkpt lat="40.829338" lon="-4.058093">
        <ele>1544.342095</ele>
        <time>2021-09-15T00:29:05.000Z</time>
      </trkpt>
      <trkpt lat="40.829264" lon="-4.058394">
        <ele>1544.726300</ele>
        <time>2021-09-15T00:29:10.000Z</time>
      </trkpt>
      <trkpt lat="40.829253" lon="-4.058451">
        <ele>1544.797710</ele>
        <time>2021-09-15T00:29:11.000Z</time>
      </trkpt>
      <trkpt lat="40.829155" lon="-4.058716">
        <ele>1545.155776</ele>
        <time>2021-09-15T00:29:16.000Z</time>
      </trkpt>
      <trkpt lat="40.829136" lon="-4.058773">
        <ele>1545.231388</ele>
        <time>2021-09-15T00:29:17.000Z</time>
      </trkpt>
      <trkpt lat="40.829066" lon="-4.058926">
        <ele>1545.448437</ele>
        <time>2021-09-15T00:29:20.000Z</time>
      </trkpt>
      <trkpt lat="40.829006" lon="-4.059014">
        <ele>1545.592238</ele>
        <time>2021-09-15T00:29:22.000Z</time>
      </trkpt>
      <trkpt lat="40.828823" lon="-4.059253">
        <ele>1546.005008</ele>
        <time>2021-09-15T00:29:28.000Z</time>
      </trkpt>
      <trkpt lat="40.828706" lon="-4.059355">
        <ele>1546.229881</ele>
        <time>2021-09-15T00:29:31.000Z</time>
      </trkpt>
      <trkpt lat="40.828575" lon="-4.059484">
        <ele>1546.491980</ele>
        <time>2021-09-15T00:29:35.000Z</time>
      </trkpt>
      <trkpt lat="40.828317" lon="-4.059655">
        <ele>1547.259584</ele>
        <time>2021-09-15T00:29:42.000Z</time>
      </trkpt>
      <trkpt lat="40.828207" lon="-4.059713">
        <ele>1547.735881</ele>
        <time>2021-09-15T00:29:45.000Z</time>
      </trkpt>
      <trkpt lat="40.828025" lon="-4.059759">
        <ele>1548.481097</ele>
        <time>2021-09-15T00:29:49.000Z</time>
      </trkpt>
      <trkpt lat="40.827855" lon="-4.059786">
        <ele>1549.169706</ele>
        <time>2021-09-15T00:29:53.000Z</time>
      </trkpt>
      <trkpt lat="40.827752" lon="-4.059808">
        <ele>1549.589317</ele>
        <time>2021-09-15T00:29:56.000Z</time>
      </trkpt>
      <trkpt lat="40.827606" lon="-4.059832">
        <ele>1550.181011</ele>
        <time>2021-09-15T00:30:00.000Z</time>
      </trkpt>
      <trkpt lat="40.827531" lon="-4.059832">
        <ele>1550.482639</ele>
        <time>2021-09-15T00:30:02.000Z</time>
      </trkpt>
      <trkpt lat="40.827426" lon="-4.059836">
        <ele>1550.905094</ele>
        <time>2021-09-15T00:30:05.000Z</time>
      </trkpt>
      <trkpt lat="40.827286" lon="-4.059846">
        <ele>1551.468954</ele>
        <time>2021-09-15T00:30:09.000Z</time>
      </trkpt>
      <trkpt lat="40.827181" lon="-4.059842">
        <ele>1551.891409</ele>
        <time>2021-09-15T00:30:12.000Z</time>
      </trkpt>
      <trkpt lat="40.827111" lon="-4.059854">
        <ele>1552.175287</ele>
        <time>2021-09-15T00:30:14.000Z</time>
      </trkpt>
      <trkpt lat="40.826943" lon="-4.05985"/>
      <trkpt lat="40.82691" lon="-4.05985"/>
      <trkpt lat="40.826702" lon="-4.059862">
        <ele>1553.821070</ele>
        <time>2021-09-15T00:30:26.000Z</time>
      </trkpt>
      <trkpt lat="40.826668" lon="-4.059866">
        <ele>1553.958349</ele>
        <time>2021-09-15T00:30:27.000Z</time>
      </trkpt>
      <trkpt lat="40.826525" lon="-4.059872">
        <ele>1554.576813</ele>
        <time>2021-09-15T00:30:31.000Z</time>
      </trkpt>
      <trkpt lat="40.826382" lon="-4.059858">
        <ele>1555.198883</ele>
        <time>2021-09-15T00:30:35.000Z</time>
      </trkpt>
      <trkpt lat="40.826318" lon="-4.059866">
        <ele>1555.477770</ele>
        <time>2021-09-15T00:30:37.000Z</time>
      </trkpt>
      <trkpt lat="40.826141" lon="-4.059891">
        <ele>1556.250013</ele>
        <time>2021-09-15T00:30:43.000Z</time>
      </trkpt>
      <trkpt lat="40.826109" lon="-4.059896">
        <ele>1556.389804</ele>
        <time>2021-09-15T00:30:44.000Z</time>
      </trkpt>
      <trkpt lat="40.825929" lon="-4.05993"/>
      <trkpt lat="40.825895" lon="-4.059938">
        <ele>1557.328446</ele>
        <time>2021-09-15T00:30:50.000Z</time>
      </trkpt>
      <trkpt lat="40.825794" lon="-4.059958">
        <ele>1557.771500</ele>
        <time>2021-09-15T00:30:53.000Z</time>
      </trkpt>
      <trkpt lat="40.825721" lon="-4.059979">
        <ele>1558.095609</ele>
        <time>2021-09-15T00:30:55.000Z</time>
      </trkpt>
      <trkpt lat="40.825602" lon="-4.060003">
        <ele>1558.617838</ele>
        <time>2021-09-15T00:30:58.000Z</time>
      </trkpt>
      <trkpt lat="40.825507" lon="-4.060016">
        <ele>1559.032175</ele>
        <time>2021-09-15T00:31:01.000Z</time>
      </trkpt>
      <trkpt lat="40.825333" lon="-4.060037">
        <ele>1559.790172</ele>
        <time>2021-09-15T00:31:06.000Z</time>
      </trkpt>
      <trkpt lat="40.825272" lon="-4.060049">
        <ele>1560.057721</ele>
        <time>2021-09-15T00:31:08.000Z</time>
      </trkpt>
      <trkpt lat="40.825051" lon="-4.06008"/>
      <trkpt lat="40.825013" lon="-4.060086">
        <ele>1561.187887</ele>
        <time>2021-09-15T00:31:16.000Z</time>
      </trkpt>
      <trkpt lat="40.824786" lon="-4.060105">
        <ele>1562.136494</ele>
        <time>2021-09-15T00:31:22.000Z</time>
      </trkpt>
      <trkpt lat="40.824716" lon="-4.060107">
        <ele>1562.410157</ele>
        <time>2021-09-15T00:31:24.000Z</time>
      </trkpt>
      <trkpt lat="40.824527" lon="-4.060139">
        <ele>1563.154910</ele>
        <time>2021-09-15T00:31:29.000Z</time>
      </trkpt>
      <trkpt lat="40.824391" lon="-4.060163">
        <ele>1563.691191</ele>
        <time>2021-09-15T00:31:33.000Z</time>
      </trkpt>
      <trkpt lat="40.824286" lon="-4.060176">
        <ele>1564.103386</ele>
        <time>2021-09-15T00:31:36.000Z</time>
      </trkpt>
      <trkpt lat="40.824152" lon="-4.060202">
        <ele>1564.632747</ele>
        <time>2021-09-15T00:31:40.000Z</time>
      </trkpt>
      <trkpt lat="40.824117" lon="-4.06021"/>
      <trkpt lat="40.823858" lon="-4.060277">
        <ele>1565.803105</ele>
        <time>2021-09-15T00:31:49.000Z</time>
      </trkpt>
      <trkpt lat="40.823826" lon="-4.06028"/>
      <trkpt lat="40.823732" lon="-4.060304">
        <ele>1566.302690</ele>
        <time>2021-09-15T00:31:53.000Z</time>
      </trkpt>
      <trkpt lat="40.823497" lon="-4.060343">
        <ele>1567.228414</ele>
        <time>2021-09-15T00:32:00.000Z</time>
      </trkpt>
      <trkpt lat="40.823464" lon="-4.060339">
        <ele>1567.357937</ele>
        <time>2021-09-15T00:32:01.000Z</time>
      </trkpt>
      <trkpt lat="40.823294" lon="-4.060335">
        <ele>1568.022496</ele>
        <time>2021-09-15T00:32:06.000Z</time>
      </trkpt>
      <trkpt lat="40.823191" lon="-4.060325">
        <ele>1568.426161</ele>
        <time>2021-09-15T00:32:09.000Z</time>
      </trkpt>
      <trkpt lat="40.823086" lon="-4.060321">
        <ele>1568.846071</ele>
        <time>2021-09-15T00:32:12.000Z</time>
      </trkpt>
      <trkpt lat="40.822956" lon="-4.060314">
        <ele>1569.631667</ele>
        <time>2021-09-15T00:32:16.000Z</time>
      </trkpt>
      <trkpt lat="40.822921" lon="-4.060315">
        <ele>1569.843047</ele>
        <time>2021-09-15T00:32:17.000Z</time>
      </trkpt>
      <trkpt lat="40.822779" lon="-4.060304">
        <ele>1570.701920</ele>
        <time>2021-09-15T00:32:21.000Z</time>
      </trkpt>
      <trkpt lat="40.82267" lon="-4.060267"/>
      <trkpt lat="40.822522" lon="-4.06023"/>
      <trkpt lat="40.822493" lon="-4.060218">
        <ele>1572.474400</ele>
        <time>2021-09-15T00:32:30.000Z</time>
      </trkpt>
      <trkpt lat="40.822327" lon="-4.060155">
        <ele>1573.517231</ele>
        <time>2021-09-15T00:32:36.000Z</time>
      </trkpt>
      <trkpt lat="40.822278" lon="-4.060122">
        <ele>1573.849302</ele>
        <time>2021-09-15T00:32:38.000Z</time>
      </trkpt>
      <trkpt lat="40.822182" lon="-4.060069">
        <ele>1574.477507</ele>
        <time>2021-09-15T00:32:42.000Z</time>
      </trkpt>
      <trkpt lat="40.822159" lon="-4.06006"/>
      <trkpt lat="40.822081" lon="-4.060023">
        <ele>1575.122734</ele>
        <time>2021-09-15T00:32:46.000Z</time>
      </trkpt>
      <trkpt lat="40.822004" lon="-4.059981">
        <ele>1575.625712</ele>
        <time>2021-09-15T00:32:49.000Z</time>
      </trkpt>
      <trkpt lat="40.821981" lon="-4.059966">
        <ele>1575.780579</ele>
        <time>2021-09-15T00:32:50.000Z</time>
      </trkpt>
      <trkpt lat="40.821845" lon="-4.059886">
        <ele>1576.679437</ele>
        <time>2021-09-15T00:32:56.000Z</time>
      </trkpt>
      <trkpt lat="40.821823" lon="-4.059871">
        <ele>1576.828913</ele>
        <time>2021-09-15T00:32:57.000Z</time>
      </trkpt>
      <trkpt lat="40.821736" lon="-4.059797">
        <ele>1577.453636</ele>
        <time>2021-09-15T00:33:01.000Z</time>
      </trkpt>
      <trkpt lat="40.82168" lon="-4.059744"/>
      <trkpt lat="40.821663" lon="-4.059724">
        <ele>1578.006975</ele>
        <time>2021-09-15T00:33:05.000Z</time>
      </trkpt>
      <trkpt lat="40.821564" lon="-4.05962"/>
      <trkpt lat="40.821539" lon="-4.059593">
        <ele>1578.965565</ele>
        <time>2021-09-15T00:33:10.000Z</time>
      </trkpt>
      <trkpt lat="40.821437" lon="-4.059486">
        <ele>1579.719161</ele>
        <time>2021-09-15T00:33:14.000Z</time>
      </trkpt>
      <trkpt lat="40.821371" lon="-4.059395">
        <ele>1580.033333</ele>
        <time>2021-09-15T00:33:17.000Z</time>
      </trkpt>
      <trkpt lat="40.821247" lon="-4.059176">
        <ele>1580.715077</ele>
        <time>2021-09-15T00:33:23.000Z</time>
      </trkpt>
      <trkpt lat="40.821127" lon="-4.058922">
        <ele>1581.461427</ele>
        <time>2021-09-15T00:33:29.000Z</time>
      </trkpt>
      <trkpt lat="40.821109" lon="-4.058879">
        <ele>1581.583911</ele>
        <time>2021-09-15T00:33:30.000Z</time>
      </trkpt>
      <trkpt lat="40.821001" lon="-4.058575">
        <ele>1582.420986</ele>
        <time>2021-09-15T00:33:37.000Z</time>
      </trkpt>
      <trkpt lat="40.820964" lon="-4.058454">
        <ele>1582.746275</ele>
        <time>2021-09-15T00:33:40.000Z</time>
      </trkpt>
      <trkpt lat="40.820933" lon="-4.058375">
        <ele>1582.968084</ele>
        <time>2021-09-15T00:33:42.000Z</time>
      </trkpt>
      <trkpt lat="40.820864" lon="-4.058212">
        <ele>1583.433613</ele>
        <time>2021-09-15T00:33:46.000Z</time>
      </trkpt>
      <trkpt lat="40.820784" lon="-4.058003">
        <ele>1584.017403</ele>
        <time>2021-09-15T00:33:51.000Z</time>
      </trkpt>
      <trkpt lat="40.820678" lon="-4.05775"/>
      <trkpt lat="40.820655" lon="-4.057706">
        <ele>1584.871508</ele>
        <time>2021-09-15T00:33:58.000Z</time>
      </trkpt>
      <trkpt lat="40.82056" lon="-4.057538"/>
      <trkpt lat="40.820339" lon="-4.057169">
        <ele>1587.461563</ele>
        <time>2021-09-15T00:34:10.000Z</time>
      </trkpt>
      <trkpt lat="40.820252" lon="-4.057032">
        <ele>1588.321306</ele>
        <time>2021-09-15T00:34:13.000Z</time>
      </trkpt>
      <trkpt lat="40.820201" lon="-4.056926">
        <ele>1588.925136</ele>
        <time>2021-09-15T00:34:15.000Z</time>
      </trkpt>
      <trkpt lat="40.820176" lon="-4.056871">
        <ele>1589.233560</ele>
        <time>2021-09-15T00:34:16.000Z</time>
      </trkpt>
      <trkpt lat="40.820114" lon="-4.056721">
        <ele>1590.055186</ele>
        <time>2021-09-15T00:34:19.000Z</time>
      </trkpt>
      <trkpt lat="40.820089" lon="-4.056672">
        <ele>1590.339273</ele>
        <time>2021-09-15T00:34:20.000Z</time>
      </trkpt>
      <trkpt lat="40.820067" lon="-4.05662"/>
      <trkpt lat="40.820048" lon="-4.05657"/>
      <trkpt lat="40.819924" lon="-4.056316">
        <ele>1592.347678</ele>
        <time>2021-09-15T00:34:27.000Z</time>
      </trkpt>
      <trkpt lat="40.819905" lon="-4.056262">
        <ele>1592.633954</ele>
        <time>2021-09-15T00:34:28.000Z</time>
      </trkpt>
      <trkpt lat="40.819841" lon="-4.056062">
        <ele>1593.677821</ele>
        <time>2021-09-15T00:34:32.000Z</time>
      </trkpt>
      <trkpt lat="40.819757" lon="-4.055833">
        <ele>1594.901179</ele>
        <time>2021-09-15T00:34:37.000Z</time>
      </trkpt>
      <trkpt lat="40.81974" lon="-4.055791"/>
      <trkpt lat="40.819693" lon="-4.055664">
        <ele>1595.809759</ele>
        <time>2021-09-15T00:34:41.000Z</time>
      </trkpt>
      <trkpt lat="40.819617" lon="-4.05546"/>
      <trkpt lat="40.819602" lon="-4.055422">
        <ele>1597.150626</ele>
        <time>2021-09-15T00:34:47.000Z</time>
      </trkpt>
      <trkpt lat="40.819547" lon="-4.055306">
        <ele>1598.155472</ele>
        <time>2021-09-15T00:34:50.000Z</time>
      </trkpt>
      <trkpt lat="40.819511" lon="-4.055146">
        <ele>1599.380800</ele>
        <time>2021-09-15T00:34:54.000Z</time>
      </trkpt>
      <trkpt lat="40.81947" lon="-4.054989"/>
      <trkpt lat="40.81945" lon="-4.054899"/>
      <trkpt lat="40.819431" lon="-4.054815">
        <ele>1601.932120</ele>
        <time>2021-09-15T00:35:02.000Z</time>
      </trkpt>
      <trkpt lat="40.819397" lon="-4.054668">
        <ele>1603.060481</ele>
        <time>2021-09-15T00:35:06.000Z</time>
      </trkpt>
      <trkpt lat="40.819359" lon="-4.054542">
        <ele>1604.056156</ele>
        <time>2021-09-15T00:35:10.000Z</time>
      </trkpt>
      <trkpt lat="40.819354" lon="-4.054482">
        <ele>1604.499263</ele>
        <time>2021-09-15T00:35:12.000Z</time>
      </trkpt>
      <trkpt lat="40.819337" lon="-4.054354">
        <ele>1605.453238</ele>
        <time>2021-09-15T00:35:16.000Z</time>
      </trkpt>
      <trkpt lat="40.819318" lon="-4.054256">
        <ele>1606.195864</ele>
        <time>2021-09-15T00:35:19.000Z</time>
      </trkpt>
      <trkpt lat="40.819306" lon="-4.054189">
        <ele>1606.701280</ele>
        <time>2021-09-15T00:35:21.000Z</time>
      </trkpt>
      <trkpt lat="40.819279" lon="-4.054035">
        <ele>1607.861697</ele>
        <time>2021-09-15T00:35:26.000Z</time>
      </trkpt>
      <trkpt lat="40.819266" lon="-4.05394"/>
      <trkpt lat="40.819265" lon="-4.053818">
        <ele>1609.466002</ele>
        <time>2021-09-15T00:35:33.000Z</time>
      </trkpt>
      <trkpt lat="40.819266" lon="-4.053724">
        <ele>1610.156101</ele>
        <time>2021-09-15T00:35:36.000Z</time>
      </trkpt>
      <trkpt lat="40.819273" lon="-4.053664">
        <ele>1610.601749</ele>
        <time>2021-09-15T00:35:38.000Z</time>
      </trkpt>
      <trkpt lat="40.819292" lon="-4.053591">
        <ele>1611.168431</ele>
        <time>2021-09-15T00:35:40.000Z</time>
      </trkpt>
      <trkpt lat="40.819311" lon="-4.053525">
        <ele>1611.686791</ele>
        <time>2021-09-15T00:35:42.000Z</time>
      </trkpt>
      <trkpt lat="40.819343" lon="-4.053339">
        <ele>1613.087008</ele>
        <time>2021-09-15T00:35:48.000Z</time>
      </trkpt>
      <trkpt lat="40.819394" lon="-4.053157">
        <ele>1614.494031</ele>
        <time>2021-09-15T00:35:55.000Z</time>
      </trkpt>
      <trkpt lat="40.819408" lon="-4.053095">
        <ele>1614.730596</ele>
        <time>2021-09-15T00:35:57.000Z</time>
      </trkpt>
      <trkpt lat="40.819443" lon="-4.052987">
        <ele>1615.160156</ele>
        <time>2021-09-15T00:36:01.000Z</time>
      </trkpt>
      <trkpt lat="40.819455" lon="-4.052959">
        <ele>1615.277808</ele>
        <time>2021-09-15T00:36:02.000Z</time>
      </trkpt>
      <trkpt lat="40.819502" lon="-4.0528"/>
      <trkpt lat="40.819516" lon="-4.052636">
        <ele>1616.505358</ele>
        <time>2021-09-15T00:36:12.000Z</time>
      </trkpt>
      <trkpt lat="40.819519" lon="-4.052569">
        <ele>1616.750756</ele>
        <time>2021-09-15T00:36:14.000Z</time>
      </trkpt>
      <trkpt lat="40.819529" lon="-4.052504">
        <ele>1616.993275</ele>
        <time>2021-09-15T00:36:16.000Z</time>
      </trkpt>
      <trkpt lat="40.819523" lon="-4.05238"/>
      <trkpt lat="40.8195" lon="-4.052292"/>
      <trkpt lat="40.819441" lon="-4.052221">
        <ele>1618.173520</ele>
        <time>2021-09-15T00:36:23.000Z</time>
      </trkpt>
      <trkpt lat="40.819319" lon="-4.052206">
        <ele>1618.765495</ele>
        <time>2021-09-15T00:36:26.000Z</time>
      </trkpt>
      <trkpt lat="40.819274" lon="-4.05222"/>
      <trkpt lat="40.819227" lon="-4.052241">
        <ele>1619.228558</ele>
        <time>2021-09-15T00:36:28.000Z</time>
      </trkpt>
      <trkpt lat="40.819134" lon="-4.052297">
        <ele>1619.722330</ele>
        <time>2021-09-15T00:36:30.000Z</time>
      </trkpt>
      <trkpt lat="40.819042" lon="-4.052378">
        <ele>1620.256446</ele>
        <time>2021-09-15T00:36:32.000Z</time>
      </trkpt>
      <trkpt lat="40.818957" lon="-4.052475">
        <ele>1620.799061</ele>
        <time>2021-09-15T00:36:34.000Z</time>
      </trkpt>
      <trkpt lat="40.818849" lon="-4.052632">
        <ele>1621.574809</ele>
        <time>2021-09-15T00:36:37.000Z</time>
      </trkpt>
      <trkpt lat="40.818815" lon="-4.052675">
        <ele>1621.802190</ele>
        <time>2021-09-15T00:36:38.000Z</time>
      </trkpt>
      <trkpt lat="40.818661" lon="-4.052883">
        <ele>1622.866128</ele>
        <time>2021-09-15T00:36:43.000Z</time>
      </trkpt>
      <trkpt lat="40.818483" lon="-4.053149">
        <ele>1623.811640</ele>
        <time>2021-09-15T00:36:50.000Z</time>
      </trkpt>
      <trkpt lat="40.818457" lon="-4.053186">
        <ele>1623.930993</ele>
        <time>2021-09-15T00:36:51.000Z</time>
      </trkpt>
      <trkpt lat="40.818357" lon="-4.053367">
        <ele>1624.460738</ele>
        <time>2021-09-15T00:36:55.000Z</time>
      </trkpt>
      <trkpt lat="40.818334" lon="-4.053412">
        <ele>1624.589099</ele>
        <time>2021-09-15T00:36:56.000Z</time>
      </trkpt>
      <trkpt lat="40.818286" lon="-4.053503">
        <ele>1624.851306</ele>
        <time>2021-09-15T00:36:58.000Z</time>
      </trkpt>
      <trkpt lat="40.818187" lon="-4.053682">
        <ele>1625.375391</ele>
        <time>2021-09-15T00:37:02.000Z</time>
      </trkpt>
      <trkpt lat="40.81799" lon="-4.053978"/>
      <trkpt lat="40.81789" lon="-4.054098"/>
      <trkpt lat="40.817718" lon="-4.054264">
        <ele>1627.394417</ele>
        <time>2021-09-15T00:37:17.000Z</time>
      </trkpt>
      <trkpt lat="40.817546" lon="-4.054359">
        <ele>1627.976715</ele>
        <time>2021-09-15T00:37:22.000Z</time>
      </trkpt>
      <trkpt lat="40.817397" lon="-4.054388">
        <ele>1628.447147</ele>
        <time>2021-09-15T00:37:26.000Z</time>
      </trkpt>
      <trkpt lat="40.817271" lon="-4.054402">
        <ele>1628.743761</ele>
        <time>2021-09-15T00:37:29.000Z</time>
      </trkpt>
      <trkpt lat="40.817187" lon="-4.054398">
        <ele>1628.557031</ele>
        <time>2021-09-15T00:37:31.000Z</time>
      </trkpt>
      <trkpt lat="40.817022" lon="-4.054381">
        <ele>1628.189363</ele>
        <time>2021-09-15T00:37:35.000Z</time>
      </trkpt>
      <trkpt lat="40.816944" lon="-4.054355">
        <ele>1628.010654</ele>
        <time>2021-09-15T00:37:37.000Z</time>
      </trkpt>
      <trkpt lat="40.81677" lon="-4.054293"/>
      <trkpt lat="40.816465" lon="-4.054152">
        <ele>1626.892454</ele>
        <time>2021-09-15T00:37:47.000Z</time>
      </trkpt>
      <trkpt lat="40.816096" lon="-4.053917">
        <ele>1625.982457</ele>
        <time>2021-09-15T00:37:53.000Z</time>
      </trkpt>
      <trkpt lat="40.815557" lon="-4.053669">
        <ele>1624.858585</ele>
        <time>2021-09-15T00:38:00.000Z</time>
      </trkpt>
      <trkpt lat="40.815393" lon="-4.05362"/>
      <trkpt lat="40.815306" lon="-4.05361"/>
      <trkpt lat="40.815223" lon="-4.053605">
        <ele>1625.563833</ele>
        <time>2021-09-15T00:38:04.000Z</time>
      </trkpt>
      <trkpt lat="40.814977" lon="-4.053616">
        <ele>1626.076571</ele>
        <time>2021-09-15T00:38:07.000Z</time>
      </trkpt>
      <trkpt lat="40.814773" lon="-4.053642">
        <ele>1626.503498</ele>
        <time>2021-09-15T00:38:10.000Z</time>
      </trkpt>
      <trkpt lat="40.81466" lon="-4.053666"/>
      <trkpt lat="40.814516" lon="-4.053736">
        <ele>1627.061536</ele>
        <time>2021-09-15T00:38:15.000Z</time>
      </trkpt>
      <trkpt lat="40.814167" lon="-4.054006">
        <ele>1627.903993</ele>
        <time>2021-09-15T00:38:23.000Z</time>
      </trkpt>
      <trkpt lat="40.813922" lon="-4.054184">
        <ele>1628.486421</ele>
        <time>2021-09-15T00:38:29.000Z</time>
      </trkpt>
      <trkpt lat="40.813847" lon="-4.054246">
        <ele>1628.535644</ele>
        <time>2021-09-15T00:38:31.000Z</time>
      </trkpt>
      <trkpt lat="40.81373" lon="-4.054356"/>
      <trkpt lat="40.813573" lon="-4.054525">
        <ele>1628.535644</ele>
        <time>2021-09-15T00:38:38.000Z</time>
      </trkpt>
      <trkpt lat="40.813424" lon="-4.054704">
        <ele>1628.535644</ele>
        <time>2021-09-15T00:38:42.000Z</time>
      </trkpt>
      <trkpt lat="40.813333" lon="-4.05485"/>
      <trkpt lat="40.813297" lon="-4.054897">
        <ele>1628.535644</ele>
        <time>2021-09-15T00:38:46.000Z</time>
      </trkpt>
      <trkpt lat="40.813193" lon="-4.055046">
        <ele>1628.535644</ele>
        <time>2021-09-15T00:38:49.000Z</time>
      </trkpt>
      <trkpt lat="40.813136" lon="-4.055168">
        <ele>1628.535644</ele>
        <time>2021-09-15T00:38:51.000Z</time>
      </trkpt>
      <trkpt lat="40.813083" lon="-4.055297">
        <ele>1628.535644</ele>
        <time>2021-09-15T00:38:53.000Z</time>
      </trkpt>
      <trkpt lat="40.813041" lon="-4.05544"/>
      <trkpt lat="40.813016" lon="-4.055584">
        <ele>1628.535644</ele>
        <time>2021-09-15T00:38:57.000Z</time>
      </trkpt>
      <trkpt lat="40.812985" lon="-4.055914">
        <ele>1628.535644</ele>
        <time>2021-09-15T00:39:02.000Z</time>
      </trkpt>
      <trkpt lat="40.812948" lon="-4.0562"/>
      <trkpt lat="40.812907" lon="-4.05634"/>
      <trkpt lat="40.812874" lon="-4.056461">
        <ele>1628.535644</ele>
        <time>2021-09-15T00:39:10.000Z</time>
      </trkpt>
      <trkpt lat="40.812861" lon="-4.056504">
        <ele>1628.535644</ele>
        <time>2021-09-15T00:39:11.000Z</time>
      </trkpt>
      <trkpt lat="40.812853" lon="-4.056532">
        <ele>1628.535644</ele>
        <time>2021-09-15T00:39:12.000Z</time>
      </trkpt>
      <trkpt lat="40.812836" lon="-4.056582">
        <ele>1628.535644</ele>
        <time>2021-09-15T00:39:14.000Z</time>
      </trkpt>
      <trkpt lat="40.812788" lon="-4.056688">
        <ele>1628.535644</ele>
        <time>2021-09-15T00:39:18.000Z</time>
      </trkpt>
      <trkpt lat="40.812776" lon="-4.056712">
        <ele>1628.535644</ele>
        <time>2021-09-15T00:39:22.000Z</time>
      </trkpt>
      <trkpt lat="40.812658" lon="-4.056598">
        <ele>1629.008777</ele>
        <time>2021-09-15T21:45:15.000Z</time>
      </trkpt>
      <trkpt lat="40.812634" lon="-4.056579">
        <ele>1629.008777</ele>
        <time>2021-09-15T21:45:15.000Z</time>
      </trkpt>
      <trkpt lat="40.812545" lon="-4.056526">
        <ele>1629.008777</ele>
        <time>2021-09-15T21:45:15.000Z</time>
      </trkpt>
      <trkpt lat="40.812443" lon="-4.056512">
        <ele>1629.008777</ele>
        <time>2021-09-15T21:45:15.000Z</time>
      </trkpt>
      <trkpt lat="40.812355" lon="-4.056511">
        <ele>1629.008777</ele>
        <time>2021-09-15T21:45:15.000Z</time>
      </trkpt>
      <trkpt lat="40.812325" lon="-4.056504">
        <ele>1629.008777</ele>
        <time>2021-09-15T21:45:15.000Z</time>
      </trkpt>
      <trkpt lat="40.81231" lon="-4.056498"/>
      <trkpt lat="40.812258" lon="-4.056467">
        <ele>1629.008777</ele>
        <time>2021-09-15T21:45:15.000Z</time>
      </trkpt>
      <trkpt lat="40.812205" lon="-4.05643"/>
      <trkpt lat="40.812146" lon="-4.056387">
        <ele>1629.008777</ele>
        <time>2021-09-15T21:45:15.000Z</time>
      </trkpt>
      <trkpt lat="40.812054" lon="-4.0563"/>
      <trkpt lat="40.811982" lon="-4.056214">
        <ele>1629.008777</ele>
        <time>2021-09-15T21:45:15.000Z</time>
      </trkpt>
      <trkpt lat="40.811916" lon="-4.056119">
        <ele>1629.008777</ele>
        <time>2021-09-15T21:45:15.000Z</time>
      </trkpt>
      <trkpt lat="40.811904" lon="-4.056114">
        <ele>1629.008777</ele>
        <time>2021-09-15T21:45:15.000Z</time>
      </trkpt>
      <trkpt lat="40.811868" lon="-4.056079">
        <ele>1628.889101</ele>
        <time>2021-09-15T21:45:15.000Z</time>
      </trkpt>
      <trkpt lat="40.811847" lon="-4.056065">
        <ele>1628.662356</ele>
        <time>2021-09-15T21:45:15.000Z</time>
      </trkpt>
      <trkpt lat="40.811835" lon="-4.056061">
        <ele>1628.543054</ele>
        <time>2021-09-15T21:45:15.000Z</time>
      </trkpt>
      <trkpt lat="40.8118" lon="-4.056009"/>
      <trkpt lat="40.811793" lon="-4.055995">
        <ele>1627.912924</ele>
        <time>2021-09-15T21:45:15.000Z</time>
      </trkpt>
      <trkpt lat="40.81177" lon="-4.055955"/>
      <trkpt lat="40.811744" lon="-4.055934">
        <ele>1627.252662</ele>
        <time>2021-09-15T21:45:15.000Z</time>
      </trkpt>
      <trkpt lat="40.811729" lon="-4.055926">
        <ele>1627.096729</ele>
        <time>2021-09-15T21:45:15.000Z</time>
      </trkpt>
      <trkpt lat="40.811641" lon="-4.055816">
        <ele>1625.928949</ele>
        <time>2021-09-15T21:45:15.000Z</time>
      </trkpt>
      <trkpt lat="40.811549" lon="-4.055724">
        <ele>1624.816713</ele>
        <time>2021-09-15T21:45:15.000Z</time>
      </trkpt>
      <trkpt lat="40.811536" lon="-4.055713">
        <ele>1624.667900</ele>
        <time>2021-09-15T21:45:15.000Z</time>
      </trkpt>
      <trkpt lat="40.811436" lon="-4.055608">
        <ele>1623.436588</ele>
        <time>2021-09-15T21:45:15.000Z</time>
      </trkpt>
      <trkpt lat="40.811378" lon="-4.055517">
        <ele>1622.568596</ele>
        <time>2021-09-15T21:45:15.000Z</time>
      </trkpt>
      <trkpt lat="40.811329" lon="-4.055453">
        <ele>1621.904404</ele>
        <time>2021-09-15T21:45:15.000Z</time>
      </trkpt>
      <trkpt lat="40.811241" lon="-4.055372">
        <ele>1620.870544</ele>
        <time>2021-09-15T21:45:15.000Z</time>
      </trkpt>
      <trkpt lat="40.811203" lon="-4.055347">
        <ele>1620.461333</ele>
        <time>2021-09-15T21:45:15.000Z</time>
      </trkpt>
      <trkpt lat="40.811141" lon="-4.055287">
        <ele>1619.720496</ele>
        <time>2021-09-15T21:45:15.000Z</time>
      </trkpt>
      <trkpt lat="40.811102" lon="-4.055257">
        <ele>1619.285469</ele>
        <time>2021-09-15T21:45:15.000Z</time>
      </trkpt>
      <trkpt lat="40.811012" lon="-4.055229">
        <ele>1618.394162</ele>
        <time>2021-09-15T21:45:15.000Z</time>
      </trkpt>
      <trkpt lat="40.810978" lon="-4.05522"/>
      <trkpt lat="40.810954" lon="-4.055209">
        <ele>1617.815018</ele>
        <time>2021-09-15T21:45:15.000Z</time>
      </trkpt>
      <trkpt lat="40.810854" lon="-4.05519"/>
      <trkpt lat="40.81084" lon="-4.055189"/>
      <trkpt lat="40.810712" lon="-4.055223">
        <ele>1615.447391</ele>
        <time>2021-09-15T21:45:15.000Z</time>
      </trkpt>
      <trkpt lat="40.810578" lon="-4.055194">
        <ele>1614.138447</ele>
        <time>2021-09-15T21:45:15.000Z</time>
      </trkpt>
      <trkpt lat="40.810549" lon="-4.055188">
        <ele>1613.855487</ele>
        <time>2021-09-15T21:45:15.000Z</time>
      </trkpt>
      <trkpt lat="40.810499" lon="-4.05518"/>
      <trkpt lat="40.810453" lon="-4.055175">
        <ele>1612.925050</ele>
        <time>2021-09-15T21:45:15.000Z</time>
      </trkpt>
      <trkpt lat="40.810425" lon="-4.055178">
        <ele>1612.654251</ele>
        <time>2021-09-15T21:45:15.000Z</time>
      </trkpt>
      <trkpt lat="40.810364" lon="-4.055158">
        <ele>1612.048389</ele>
        <time>2021-09-15T21:45:15.000Z</time>
      </trkpt>
      <trkpt lat="40.810327" lon="-4.055152">
        <ele>1611.689041</ele>
        <time>2021-09-15T21:45:15.000Z</time>
      </trkpt>
      <trkpt lat="40.810298" lon="-4.055152">
        <ele>1611.365600</ele>
        <time>2021-09-15T21:45:15.000Z</time>
      </trkpt>
      <trkpt lat="40.810245" lon="-4.055143">
        <ele>1610.763800</ele>
        <time>2021-09-15T21:45:15.000Z</time>
      </trkpt>
      <trkpt lat="40.81022" lon="-4.055139"/>
      <trkpt lat="40.81017" lon="-4.055114"/>
      <trkpt lat="40.810128" lon="-4.0551"/>
      <trkpt lat="40.810115" lon="-4.055095">
        <ele>1609.237801</ele>
        <time>2021-09-15T21:45:15.000Z</time>
      </trkpt>
      <trkpt lat="40.8101" lon="-4.055088"/>
      <trkpt lat="40.810008" lon="-4.055038">
        <ele>1607.938297</ele>
        <time>2021-09-15T21:45:15.000Z</time>
      </trkpt>
      <trkpt lat="40.809973" lon="-4.055019">
        <ele>1607.512149</ele>
        <time>2021-09-15T21:45:15.000Z</time>
      </trkpt>
      <trkpt lat="40.809911" lon="-4.05496"/>
      <trkpt lat="40.809851" lon="-4.054923">
        <ele>1605.905934</ele>
        <time>2021-09-15T21:45:15.000Z</time>
      </trkpt>
      <trkpt lat="40.809839" lon="-4.054915">
        <ele>1605.754559</ele>
        <time>2021-09-15T21:45:15.000Z</time>
      </trkpt>
      <trkpt lat="40.809769" lon="-4.054842">
        <ele>1604.750222</ele>
        <time>2021-09-15T21:45:15.000Z</time>
      </trkpt>
      <trkpt lat="40.80973" lon="-4.054796"/>
      <trkpt lat="40.809707" lon="-4.05475"/>
      <trkpt lat="40.809664" lon="-4.054674">
        <ele>1602.882674</ele>
        <time>2021-09-15T21:45:15.000Z</time>
      </trkpt>
      <trkpt lat="40.809654" lon="-4.054661">
        <ele>1602.724677</ele>
        <time>2021-09-15T21:45:15.000Z</time>
      </trkpt>
      <trkpt lat="40.809617" lon="-4.054603">
        <ele>1602.078098</ele>
        <time>2021-09-15T21:45:15.000Z</time>
      </trkpt>
      <trkpt lat="40.809578" lon="-4.054544">
        <ele>1601.410381</ele>
        <time>2021-09-15T21:45:15.000Z</time>
      </trkpt>
      <trkpt lat="40.80957" lon="-4.054528"/>
      <trkpt lat="40.809547" lon="-4.054475">
        <ele>1600.726156</ele>
        <time>2021-09-15T21:45:15.000Z</time>
      </trkpt>
      <trkpt lat="40.809509" lon="-4.054419">
        <ele>1600.085054</ele>
        <time>2021-09-15T21:45:15.000Z</time>
      </trkpt>
      <trkpt lat="40.809475" lon="-4.054326">
        <ele>1599.204679</ele>
        <time>2021-09-15T21:45:15.000Z</time>
      </trkpt>
      <trkpt lat="40.809452" lon="-4.054295">
        <ele>1598.834649</ele>
        <time>2021-09-15T21:45:15.000Z</time>
      </trkpt>
      <trkpt lat="40.809422" lon="-4.05425"/>
      <trkpt lat="40.809414" lon="-4.054222">
        <ele>1598.068370</ele>
        <time>2021-09-15T21:45:15.000Z</time>
      </trkpt>
      <trkpt lat="40.809385" lon="-4.054165">
        <ele>1597.482929</ele>
        <time>2021-09-15T21:45:15.000Z</time>
      </trkpt>
      <trkpt lat="40.809373" lon="-4.054139">
        <ele>1597.223347</ele>
        <time>2021-09-15T21:45:15.000Z</time>
      </trkpt>
      <trkpt lat="40.809363" lon="-4.054122">
        <ele>1597.039819</ele>
        <time>2021-09-15T21:45:15.000Z</time>
      </trkpt>
      <trkpt lat="40.809303" lon="-4.054039">
        <ele>1596.061471</ele>
        <time>2021-09-15T21:45:15.000Z</time>
      </trkpt>
      <trkpt lat="40.809294" lon="-4.054022">
        <ele>1595.884631</ele>
        <time>2021-09-15T21:45:15.000Z</time>
      </trkpt>
      <trkpt lat="40.809242" lon="-4.053955">
        <ele>1595.066624</ele>
        <time>2021-09-15T21:45:15.000Z</time>
      </trkpt>
      <trkpt lat="40.809234" lon="-4.053946">
        <ele>1594.948290</ele>
        <time>2021-09-15T21:45:15.000Z</time>
      </trkpt>
      <trkpt lat="40.809163" lon="-4.053885">
        <ele>1593.994485</ele>
        <time>2021-09-15T21:45:15.000Z</time>
      </trkpt>
      <trkpt lat="40.809155" lon="-4.053877">
        <ele>1593.881491</ele>
        <time>2021-09-15T21:45:15.000Z</time>
      </trkpt>
      <trkpt lat="40.809137" lon="-4.053859">
        <ele>1593.627254</ele>
        <time>2021-09-15T21:45:15.000Z</time>
      </trkpt>
      <trkpt lat="40.8091" lon="-4.053816"/>
      <trkpt lat="40.809055" lon="-4.053776">
        <ele>1592.461471</ele>
        <time>2021-09-15T21:45:15.000Z</time>
      </trkpt>
      <trkpt lat="40.80904" lon="-4.053765"/>
      <trkpt lat="40.808962" lon="-4.053703">
        <ele>1591.242996</ele>
        <time>2021-09-15T21:45:15.000Z</time>
      </trkpt>
      <trkpt lat="40.808952" lon="-4.053693">
        <ele>1591.101673</ele>
        <time>2021-09-15T21:45:15.000Z</time>
      </trkpt>
      <trkpt lat="40.808907" lon="-4.053661">
        <ele>1590.525808</ele>
        <time>2021-09-15T21:45:15.000Z</time>
      </trkpt>
      <trkpt lat="40.808868" lon="-4.053634">
        <ele>1590.029659</ele>
        <time>2021-09-15T21:45:15.000Z</time>
      </trkpt>
      <trkpt lat="40.808816" lon="-4.053593">
        <ele>1589.347286</ele>
        <time>2021-09-15T21:45:15.000Z</time>
      </trkpt>
      <trkpt lat="40.808811" lon="-4.053587">
        <ele>1589.271173</ele>
        <time>2021-09-15T21:45:15.000Z</time>
      </trkpt>
      <trkpt lat="40.808763" lon="-4.053537">
        <ele>1588.582392</ele>
        <time>2021-09-15T21:45:15.000Z</time>
      </trkpt>
      <trkpt lat="40.808728" lon="-4.053465">
        <ele>1587.852559</ele>
        <time>2021-09-15T21:45:15.000Z</time>
      </trkpt>
      <trkpt lat="40.808708" lon="-4.053409">
        <ele>1587.324432</ele>
        <time>2021-09-15T21:45:15.000Z</time>
      </trkpt>
      <trkpt lat="40.808709" lon="-4.053374">
        <ele>1587.025703</ele>
        <time>2021-09-15T21:45:15.000Z</time>
      </trkpt>
      <trkpt lat="40.808723" lon="-4.053342">
        <ele>1586.710460</ele>
        <time>2021-09-15T21:45:15.000Z</time>
      </trkpt>
      <trkpt lat="40.808753" lon="-4.053246">
        <ele>1585.824630</ele>
        <time>2021-09-15T21:45:15.000Z</time>
      </trkpt>
      <trkpt lat="40.808771" lon="-4.05321"/>
      <trkpt lat="40.808807" lon="-4.053072">
        <ele>1584.211685</ele>
        <time>2021-09-15T21:45:15.000Z</time>
      </trkpt>
      <trkpt lat="40.808814" lon="-4.053027">
        <ele>1583.819857</ele>
        <time>2021-09-15T21:45:15.000Z</time>
      </trkpt>
      <trkpt lat="40.808827" lon="-4.052899">
        <ele>1582.718356</ele>
        <time>2021-09-15T21:45:15.000Z</time>
      </trkpt>
      <trkpt lat="40.808827" lon="-4.052863">
        <ele>1582.411311</ele>
        <time>2021-09-15T21:45:15.000Z</time>
      </trkpt>
      <trkpt lat="40.808826" lon="-4.05283"/>
      <trkpt lat="40.808832" lon="-4.0528"/>
      <trkpt lat="40.808837" lon="-4.052737">
        <ele>1581.324700</ele>
        <time>2021-09-15T21:45:15.000Z</time>
      </trkpt>
      <trkpt lat="40.80885" lon="-4.052711"/>
      <trkpt lat="40.808871" lon="-4.052611">
        <ele>1580.173807</ele>
        <time>2021-09-15T21:45:15.000Z</time>
      </trkpt>
      <trkpt lat="40.808901" lon="-4.052485">
        <ele>1579.047234</ele>
        <time>2021-09-15T21:45:15.000Z</time>
      </trkpt>
      <trkpt lat="40.808908" lon="-4.052468">
        <ele>1578.882173</ele>
        <time>2021-09-15T21:45:15.000Z</time>
      </trkpt>
      <trkpt lat="40.808923" lon="-4.052391">
        <ele>1578.204036</ele>
        <time>2021-09-15T21:45:15.000Z</time>
      </trkpt>
      <trkpt lat="40.808928" lon="-4.052373">
        <ele>1578.040501</ele>
        <time>2021-09-15T21:45:15.000Z</time>
      </trkpt>
      <trkpt lat="40.808931" lon="-4.052349">
        <ele>1577.833032</ele>
        <time>2021-09-15T21:45:15.000Z</time>
      </trkpt>
      <trkpt lat="40.808955" lon="-4.052227">
        <ele>1576.757921</ele>
        <time>2021-09-15T21:45:15.000Z</time>
      </trkpt>
      <trkpt lat="40.808954" lon="-4.052209">
        <ele>1576.603986</ele>
        <time>2021-09-15T21:45:15.000Z</time>
      </trkpt>
      <trkpt lat="40.808954" lon="-4.052114">
        <ele>1575.793730</ele>
        <time>2021-09-15T21:45:15.000Z</time>
      </trkpt>
      <trkpt lat="40.808953" lon="-4.052097">
        <ele>1575.648299</ele>
        <time>2021-09-15T21:45:15.000Z</time>
      </trkpt>
      <trkpt lat="40.808958" lon="-4.052014">
        <ele>1574.938152</ele>
        <time>2021-09-15T21:45:15.000Z</time>
      </trkpt>
      <trkpt lat="40.808959" lon="-4.051998">
        <ele>1574.801224</ele>
        <time>2021-09-15T21:45:15.000Z</time>
      </trkpt>
      <trkpt lat="40.808956" lon="-4.051876">
        <ele>1573.760135</ele>
        <time>2021-09-15T21:45:15.000Z</time>
      </trkpt>
      <trkpt lat="40.808956" lon="-4.051859">
        <ele>1573.615142</ele>
        <time>2021-09-15T21:45:15.000Z</time>
      </trkpt>
      <trkpt lat="40.808957" lon="-4.051803">
        <ele>1573.137384</ele>
        <time>2021-09-15T21:45:15.000Z</time>
      </trkpt>
      <trkpt lat="40.808966" lon="-4.051757">
        <ele>1572.732153</ele>
        <time>2021-09-15T21:45:15.000Z</time>
      </trkpt>
      <trkpt lat="40.808971" lon="-4.051741">
        <ele>1572.584516</ele>
        <time>2021-09-15T21:45:15.000Z</time>
      </trkpt>
      <trkpt lat="40.808974" lon="-4.051722">
        <ele>1572.418976</ele>
        <time>2021-09-15T21:45:15.000Z</time>
      </trkpt>
      <trkpt lat="40.808961" lon="-4.051619">
        <ele>1571.528357</ele>
        <time>2021-09-15T21:45:15.000Z</time>
      </trkpt>
      <trkpt lat="40.808934" lon="-4.051485">
        <ele>1570.347967</ele>
        <time>2021-09-15T21:45:15.000Z</time>
      </trkpt>
      <trkpt lat="40.808923" lon="-4.051426">
        <ele>1569.831204</ele>
        <time>2021-09-15T21:45:15.000Z</time>
      </trkpt>
      <trkpt lat="40.808927" lon="-4.051373">
        <ele>1569.378231</ele>
        <time>2021-09-15T21:45:15.000Z</time>
      </trkpt>
      <trkpt lat="40.808928" lon="-4.051322">
        <ele>1568.944356</ele>
        <time>2021-09-15T21:45:15.000Z</time>
      </trkpt>
      <trkpt lat="40.808922" lon="-4.051256">
        <ele>1568.379026</ele>
        <time>2021-09-15T21:45:15.000Z</time>
      </trkpt>
      <trkpt lat="40.808895" lon="-4.051145">
        <ele>1567.387477</ele>
        <time>2021-09-15T21:45:15.000Z</time>
      </trkpt>
      <trkpt lat="40.808889" lon="-4.051121">
        <ele>1567.172524</ele>
        <time>2021-09-15T21:45:15.000Z</time>
      </trkpt>
      <trkpt lat="40.808861" lon="-4.051032">
        <ele>1566.352843</ele>
        <time>2021-09-15T21:45:15.000Z</time>
      </trkpt>
      <trkpt lat="40.808843" lon="-4.051007">
        <ele>1566.059400</ele>
        <time>2021-09-15T21:45:15.000Z</time>
      </trkpt>
      <trkpt lat="40.808832" lon="-4.050994">
        <ele>1565.893571</ele>
        <time>2021-09-15T21:45:15.000Z</time>
      </trkpt>
      <trkpt lat="40.808827" lon="-4.050974">
        <ele>1565.714443</ele>
        <time>2021-09-15T21:45:15.000Z</time>
      </trkpt>
      <trkpt lat="40.808811" lon="-4.050901">
        <ele>1565.068109</ele>
        <time>2021-09-15T21:45:15.000Z</time>
      </trkpt>
      <trkpt lat="40.808807" lon="-4.050886">
        <ele>1564.932855</ele>
        <time>2021-09-15T21:45:15.000Z</time>
      </trkpt>
      <trkpt lat="40.808799" lon="-4.05087"/>
      <trkpt lat="40.808789" lon="-4.05082"/>
      <trkpt lat="40.808793" lon="-4.050785">
        <ele>1564.028923</ele>
        <time>2021-09-15T21:45:15.000Z</time>
      </trkpt>
      <trkpt lat="40.808806" lon="-4.050722">
        <ele>1563.473584</ele>
        <time>2021-09-15T21:45:15.000Z</time>
      </trkpt>
      <trkpt lat="40.808815" lon="-4.050631">
        <ele>1562.693096</ele>
        <time>2021-09-15T21:45:15.000Z</time>
      </trkpt>
      <trkpt lat="40.808828" lon="-4.050593">
        <ele>1562.338447</ele>
        <time>2021-09-15T21:45:15.000Z</time>
      </trkpt>
      <trkpt lat="40.808847" lon="-4.050483">
        <ele>1561.378902</ele>
        <time>2021-09-15T21:45:15.000Z</time>
      </trkpt>
      <trkpt lat="40.808852" lon="-4.050469">
        <ele>1561.247250</ele>
        <time>2021-09-15T21:45:15.000Z</time>
      </trkpt>
      <trkpt lat="40.808884" lon="-4.050377">
        <ele>1560.386175</ele>
        <time>2021-09-15T21:45:15.000Z</time>
      </trkpt>
      <trkpt lat="40.808884" lon="-4.050328">
        <ele>1559.969455</ele>
        <time>2021-09-15T21:45:15.000Z</time>
      </trkpt>
      <trkpt lat="40.808874" lon="-4.050296">
        <ele>1559.675028</ele>
        <time>2021-09-15T21:45:15.000Z</time>
      </trkpt>
      <trkpt lat="40.808874" lon="-4.050279">
        <ele>1559.530452</ele>
        <time>2021-09-15T21:45:15.000Z</time>
      </trkpt>
      <trkpt lat="40.808878" lon="-4.050247">
        <ele>1559.254622</ele>
        <time>2021-09-15T21:45:15.000Z</time>
      </trkpt>
      <trkpt lat="40.808887" lon="-4.050198">
        <ele>1558.825807</ele>
        <time>2021-09-15T21:45:15.000Z</time>
      </trkpt>
      <trkpt lat="40.808887" lon="-4.050167">
        <ele>1558.562168</ele>
        <time>2021-09-15T21:45:15.000Z</time>
      </trkpt>
      <trkpt lat="40.808891" lon="-4.050115">
        <ele>1558.117656</ele>
        <time>2021-09-15T21:45:15.000Z</time>
      </trkpt>
      <trkpt lat="40.80889" lon="-4.050099"/>
      <trkpt lat="40.80889" lon="-4.050083"/>
      <trkpt lat="40.808895" lon="-4.050066">
        <ele>1557.689941</ele>
        <time>2021-09-15T21:45:15.000Z</time>
      </trkpt>
      <trkpt lat="40.808917" lon="-4.04996"/>
      <trkpt lat="40.808917" lon="-4.049827">
        <ele>1555.624091</ele>
        <time>2021-09-15T21:45:15.000Z</time>
      </trkpt>
      <trkpt lat="40.80892" lon="-4.049806"/>
      <trkpt lat="40.808929" lon="-4.049767">
        <ele>1555.095595</ele>
        <time>2021-09-15T21:45:15.000Z</time>
      </trkpt>
      <trkpt lat="40.808935" lon="-4.04969"/>
      <trkpt lat="40.80895" lon="-4.049575"/>
      <trkpt lat="40.808953" lon="-4.049554">
        <ele>1553.263108</ele>
        <time>2021-09-15T21:45:15.000Z</time>
      </trkpt>
      <trkpt lat="40.808966" lon="-4.049453">
        <ele>1552.391824</ele>
        <time>2021-09-15T21:45:15.000Z</time>
      </trkpt>
      <trkpt lat="40.808981" lon="-4.049347">
        <ele>1551.474729</ele>
        <time>2021-09-15T21:45:15.000Z</time>
      </trkpt>
      <trkpt lat="40.808981" lon="-4.049242">
        <ele>1550.578723</ele>
        <time>2021-09-15T21:45:15.000Z</time>
      </trkpt>
      <trkpt lat="40.808986" lon="-4.049156">
        <ele>1549.838903</ele>
        <time>2021-09-15T21:45:15.000Z</time>
      </trkpt>
      <trkpt lat="40.808987" lon="-4.049111">
        <ele>1549.452759</ele>
        <time>2021-09-15T21:45:15.000Z</time>
      </trkpt>
      <trkpt lat="40.808979" lon="-4.048984">
        <ele>1548.359677</ele>
        <time>2021-09-15T21:45:15.000Z</time>
      </trkpt>
      <trkpt lat="40.808977" lon="-4.048943">
        <ele>1548.007278</ele>
        <time>2021-09-15T21:45:15.000Z</time>
      </trkpt>
      <trkpt lat="40.808981" lon="-4.048829">
        <ele>1547.028416</ele>
        <time>2021-09-15T21:45:15.000Z</time>
      </trkpt>
      <trkpt lat="40.808987" lon="-4.048794">
        <ele>1546.720608</ele>
        <time>2021-09-15T21:45:15.000Z</time>
      </trkpt>
      <trkpt lat="40.808986" lon="-4.048716">
        <ele>1546.051483</ele>
        <time>2021-09-15T21:45:15.000Z</time>
      </trkpt>
      <trkpt lat="40.808985" lon="-4.048701">
        <ele>1545.922325</ele>
        <time>2021-09-15T21:45:15.000Z</time>
      </trkpt>
      <trkpt lat="40.808966" lon="-4.048582">
        <ele>1544.879165</ele>
        <time>2021-09-15T21:45:15.000Z</time>
      </trkpt>
      <trkpt lat="40.808962" lon="-4.04856"/>
      <trkpt lat="40.808941" lon="-4.048496">
        <ele>1544.086785</ele>
        <time>2021-09-15T21:45:15.000Z</time>
      </trkpt>
      <trkpt lat="40.808926" lon="-4.048453">
        <ele>1543.680675</ele>
        <time>2021-09-15T21:45:15.000Z</time>
      </trkpt>
      <trkpt lat="40.808917" lon="-4.048427">
        <ele>1543.435450</ele>
        <time>2021-09-15T21:45:15.000Z</time>
      </trkpt>
      <trkpt lat="40.808867" lon="-4.048362">
        <ele>1542.640539</ele>
        <time>2021-09-15T21:45:15.000Z</time>
      </trkpt>
      <trkpt lat="40.808861" lon="-4.048349">
        <ele>1542.509939</ele>
        <time>2021-09-15T21:45:15.000Z</time>
      </trkpt>
      <trkpt lat="40.80883" lon="-4.048278"/>
      <trkpt lat="40.808824" lon="-4.048248">
        <ele>1541.540738</ele>
        <time>2021-09-15T21:45:15.000Z</time>
      </trkpt>
      <trkpt lat="40.808827" lon="-4.048234">
        <ele>1541.415936</ele>
        <time>2021-09-15T21:45:15.000Z</time>
      </trkpt>
      <trkpt lat="40.808831" lon="-4.048177">
        <ele>1540.924932</ele>
        <time>2021-09-15T21:45:15.000Z</time>
      </trkpt>
      <trkpt lat="40.808838" lon="-4.048105">
        <ele>1540.302292</ele>
        <time>2021-09-15T21:45:15.000Z</time>
      </trkpt>
      <trkpt lat="40.80885" lon="-4.048077"/>
      <trkpt lat="40.808859" lon="-4.048063">
        <ele>1539.868751</ele>
        <time>2021-09-15T21:45:15.000Z</time>
      </trkpt>
      <trkpt lat="40.8089" lon="-4.04801"/>
      <trkpt lat="40.808914" lon="-4.047972">
        <ele>1538.856227</ele>
        <time>2021-09-15T21:45:15.000Z</time>
      </trkpt>
      <trkpt lat="40.808944" lon="-4.047912">
        <ele>1538.239437</ele>
        <time>2021-09-15T21:45:15.000Z</time>
      </trkpt>
      <trkpt lat="40.808953" lon="-4.047891">
        <ele>1538.032443</ele>
        <time>2021-09-15T21:45:15.000Z</time>
      </trkpt>
      <trkpt lat="40.808955" lon="-4.047829">
        <ele>1537.500168</ele>
        <time>2021-09-15T21:45:15.000Z</time>
      </trkpt>
      <trkpt lat="40.808956" lon="-4.047765">
        <ele>1536.951104</ele>
        <time>2021-09-15T21:45:15.000Z</time>
      </trkpt>
      <trkpt lat="40.808952" lon="-4.047647">
        <ele>1535.937968</ele>
        <time>2021-09-15T21:45:15.000Z</time>
      </trkpt>
      <trkpt lat="40.808956" lon="-4.047625">
        <ele>1535.743900</ele>
        <time>2021-09-15T21:45:15.000Z</time>
      </trkpt>
      <trkpt lat="40.808962" lon="-4.04755"/>
      <trkpt lat="40.808964" lon="-4.047504">
        <ele>1534.701813</ele>
        <time>2021-09-15T21:45:15.000Z</time>
      </trkpt>
      <trkpt lat="40.808962" lon="-4.047449">
        <ele>1534.229518</ele>
        <time>2021-09-15T21:45:15.000Z</time>
      </trkpt>
      <trkpt lat="40.808953" lon="-4.047411">
        <ele>1533.887996</ele>
        <time>2021-09-15T21:45:15.000Z</time>
      </trkpt>
      <trkpt lat="40.80895" lon="-4.047392"/>
      <trkpt lat="40.808957" lon="-4.047331">
        <ele>1533.192325</ele>
        <time>2021-09-15T21:45:15.000Z</time>
      </trkpt>
      <trkpt lat="40.808962" lon="-4.047255">
        <ele>1532.537993</ele>
        <time>2021-09-15T21:45:15.000Z</time>
      </trkpt>
      <trkpt lat="40.808968" lon="-4.047236">
        <ele>1532.361409</ele>
        <time>2021-09-15T21:45:15.000Z</time>
      </trkpt>
      <trkpt lat="40.80897" lon="-4.047217"/>
      <trkpt lat="40.808978" lon="-4.047108">
        <ele>1531.257562</ele>
        <time>2021-09-15T21:45:15.000Z</time>
      </trkpt>
      <trkpt lat="40.808981" lon="-4.04709"/>
      <trkpt lat="40.808982" lon="-4.047071">
        <ele>1530.936110</ele>
        <time>2021-09-15T21:45:15.000Z</time>
      </trkpt>
      <trkpt lat="40.808983" lon="-4.047001">
        <ele>1530.315866</ele>
        <time>2021-09-15T21:45:15.000Z</time>
      </trkpt>
      <trkpt lat="40.808988" lon="-4.046982">
        <ele>1530.127716</ele>
        <time>2021-09-15T21:45:15.000Z</time>
      </trkpt>
      <trkpt lat="40.808969" lon="-4.046804">
        <ele>1528.446327</ele>
        <time>2021-09-15T21:45:15.000Z</time>
      </trkpt>
      <trkpt lat="40.808963" lon="-4.046746">
        <ele>1527.898784</ele>
        <time>2021-09-15T21:45:15.000Z</time>
      </trkpt>
      <trkpt lat="40.80896" lon="-4.046667"/>
      <trkpt lat="40.808948" lon="-4.046521">
        <ele>1525.785300</ele>
        <time>2021-09-15T21:45:15.000Z</time>
      </trkpt>
      <trkpt lat="40.80894" lon="-4.046463"/>
      <trkpt lat="40.808931" lon="-4.046383">
        <ele>1524.477369</ele>
        <time>2021-09-15T21:45:15.000Z</time>
      </trkpt>
      <trkpt lat="40.808927" lon="-4.046239">
        <ele>1523.129564</ele>
        <time>2021-09-15T21:45:15.000Z</time>
      </trkpt>
      <trkpt lat="40.808923" lon="-4.046179">
        <ele>1522.566184</ele>
        <time>2021-09-15T21:45:15.000Z</time>
      </trkpt>
      <trkpt lat="40.808921" lon="-4.046146">
        <ele>1522.256532</ele>
        <time>2021-09-15T21:45:15.000Z</time>
      </trkpt>
      <trkpt lat="40.808912" lon="-4.046057">
        <ele>1521.416678</ele>
        <time>2021-09-15T21:45:15.000Z</time>
      </trkpt>
      <trkpt lat="40.808913" lon="-4.046045">
        <ele>1521.303758</ele>
        <time>2021-09-15T21:45:15.000Z</time>
      </trkpt>
      <trkpt lat="40.808913" lon="-4.046013">
        <ele>1521.004448</ele>
        <time>2021-09-15T21:45:15.000Z</time>
      </trkpt>
      <trkpt lat="40.808912" lon="-4.04596"/>
      <trkpt lat="40.808909" lon="-4.045943">
        <ele>1520.345287</ele>
        <time>2021-09-15T21:45:15.000Z</time>
      </trkpt>
      <trkpt lat="40.80889" lon="-4.045852"/>
      <trkpt lat="40.808885" lon="-4.045832">
        <ele>1519.265322</ele>
        <time>2021-09-15T21:45:15.000Z</time>
      </trkpt>
      <trkpt lat="40.808878" lon="-4.045791">
        <ele>1518.872195</ele>
        <time>2021-09-15T21:45:15.000Z</time>
      </trkpt>
      <trkpt lat="40.808863" lon="-4.045718">
        <ele>1518.164678</ele>
        <time>2021-09-15T21:45:15.000Z</time>
      </trkpt>
      <trkpt lat="40.808856" lon="-4.045699">
        <ele>1517.967027</ele>
        <time>2021-09-15T21:45:15.000Z</time>
      </trkpt>
      <trkpt lat="40.80883" lon="-4.045611"/>
      <trkpt lat="40.80881" lon="-4.045545"/>
      <trkpt lat="40.808796" lon="-4.045491">
        <ele>1515.884572</ele>
        <time>2021-09-15T21:45:15.000Z</time>
      </trkpt>
      <trkpt lat="40.80873" lon="-4.045377"/>
      <trkpt lat="40.808721" lon="-4.045365">
        <ele>1514.384098</ele>
        <time>2021-09-15T21:45:15.000Z</time>
      </trkpt>
      <trkpt lat="40.808686" lon="-4.045286">
        <ele>1513.527895</ele>
        <time>2021-09-15T21:45:15.000Z</time>
      </trkpt>
      <trkpt lat="40.808664" lon="-4.045246">
        <ele>1513.065409</ele>
        <time>2021-09-15T21:45:15.000Z</time>
      </trkpt>
      <trkpt lat="40.808642" lon="-4.045204">
        <ele>1512.587662</ele>
        <time>2021-09-15T21:45:15.000Z</time>
      </trkpt>
      <trkpt lat="40.808618" lon="-4.04516"/>
      <trkpt lat="40.808603" lon="-4.045135">
        <ele>1511.781980</ele>
        <time>2021-09-15T21:45:15.000Z</time>
      </trkpt>
      <trkpt lat="40.808577" lon="-4.045098">
        <ele>1511.309746</ele>
        <time>2021-09-15T21:45:15.000Z</time>
      </trkpt>
      <trkpt lat="40.808563" lon="-4.045085">
        <ele>1511.098282</ele>
        <time>2021-09-15T21:45:15.000Z</time>
      </trkpt>
      <trkpt lat="40.808518" lon="-4.045009">
        <ele>1510.195744</ele>
        <time>2021-09-15T21:45:15.000Z</time>
      </trkpt>
      <trkpt lat="40.808511" lon="-4.04499"/>
      <trkpt lat="40.808502" lon="-4.04497"/>
      <trkpt lat="40.808437" lon="-4.044905">
        <ele>1508.773061</ele>
        <time>2021-09-15T21:45:15.000Z</time>
      </trkpt>
      <trkpt lat="40.808413" lon="-4.044875">
        <ele>1508.364769</ele>
        <time>2021-09-15T21:45:15.000Z</time>
      </trkpt>
      <trkpt lat="40.808401" lon="-4.044838">
        <ele>1507.994763</ele>
        <time>2021-09-15T21:45:15.000Z</time>
      </trkpt>
      <trkpt lat="40.808369" lon="-4.044766">
        <ele>1507.228816</ele>
        <time>2021-09-15T21:45:15.000Z</time>
      </trkpt>
      <trkpt lat="40.808348" lon="-4.044694">
        <ele>1506.520977</ele>
        <time>2021-09-15T21:45:15.000Z</time>
      </trkpt>
      <trkpt lat="40.808338" lon="-4.04466"/>
      <trkpt lat="40.808297" lon="-4.044557">
        <ele>1505.118777</ele>
        <time>2021-09-15T21:45:15.000Z</time>
      </trkpt>
      <trkpt lat="40.808269" lon="-4.044444">
        <ele>1504.028028</ele>
        <time>2021-09-15T21:45:15.000Z</time>
      </trkpt>
      <trkpt lat="40.808265" lon="-4.044412">
        <ele>1503.730497</ele>
        <time>2021-09-15T21:45:15.000Z</time>
      </trkpt>
      <trkpt lat="40.808251" lon="-4.044331">
        <ele>1502.968309</ele>
        <time>2021-09-15T21:45:15.000Z</time>
      </trkpt>
      <trkpt lat="40.808235" lon="-4.044239">
        <ele>1502.102347</ele>
        <time>2021-09-15T21:45:15.000Z</time>
      </trkpt>
      <trkpt lat="40.80823" lon="-4.044224"/>
      <trkpt lat="40.808217" lon="-4.044169">
        <ele>1501.423413</ele>
        <time>2021-09-15T21:45:15.000Z</time>
      </trkpt>
      <trkpt lat="40.808203" lon="-4.044131">
        <ele>1501.035714</ele>
        <time>2021-09-15T21:45:15.000Z</time>
      </trkpt>
      <trkpt lat="40.808198" lon="-4.044117">
        <ele>1500.893705</ele>
        <time>2021-09-15T21:45:15.000Z</time>
      </trkpt>
      <trkpt lat="40.808176" lon="-4.044069">
        <ele>1500.378934</ele>
        <time>2021-09-15T21:45:15.000Z</time>
      </trkpt>
      <trkpt lat="40.808163" lon="-4.043992">
        <ele>1499.655208</ele>
        <time>2021-09-15T21:45:15.000Z</time>
      </trkpt>
      <trkpt lat="40.808161" lon="-4.04397"/>
      <trkpt lat="40.808152" lon="-4.04393"/>
      <trkpt lat="40.808138" lon="-4.04386"/>
      <trkpt lat="40.80813" lon="-4.043828"/>
      <trkpt lat="40.808105" lon="-4.043741">
        <ele>1497.242095</ele>
        <time>2021-09-15T21:45:15.000Z</time>
      </trkpt>
      <trkpt lat="40.808093" lon="-4.043713">
        <ele>1496.946917</ele>
        <time>2021-09-15T21:45:15.000Z</time>
      </trkpt>
      <trkpt lat="40.808041" lon="-4.043626">
        <ele>1495.929976</ele>
        <time>2021-09-15T21:45:15.000Z</time>
      </trkpt>
      <trkpt lat="40.808027" lon="-4.043598">
        <ele>1495.622130</ele>
        <time>2021-09-15T21:45:15.000Z</time>
      </trkpt>
      <trkpt lat="40.807983" lon="-4.043533">
        <ele>1494.822167</ele>
        <time>2021-09-15T21:45:15.000Z</time>
      </trkpt>
      <trkpt lat="40.807949" lon="-4.043485">
        <ele>1494.219090</ele>
        <time>2021-09-15T21:45:15.000Z</time>
      </trkpt>
      <trkpt lat="40.807928" lon="-4.043463">
        <ele>1493.894265</ele>
        <time>2021-09-15T21:45:15.000Z</time>
      </trkpt>
      <trkpt lat="40.807884" lon="-4.043441">
        <ele>1493.324076</ele>
        <time>2021-09-15T21:45:15.000Z</time>
      </trkpt>
      <trkpt lat="40.807817" lon="-4.043409">
        <ele>1492.460608</ele>
        <time>2021-09-15T21:45:15.000Z</time>
      </trkpt>
      <trkpt lat="40.807802" lon="-4.043401">
        <ele>1492.264555</ele>
        <time>2021-09-15T21:45:15.000Z</time>
      </trkpt>
      <trkpt lat="40.807778" lon="-4.043394">
        <ele>1491.966673</ele>
        <time>2021-09-15T21:45:15.000Z</time>
      </trkpt>
      <trkpt lat="40.80774" lon="-4.043391"/>
      <trkpt lat="40.807683" lon="-4.043396">
        <ele>1490.812936</ele>
        <time>2021-09-15T21:45:15.000Z</time>
      </trkpt>
      <trkpt lat="40.807628" lon="-4.043408">
        <ele>1490.137311</ele>
        <time>2021-09-15T21:45:15.000Z</time>
      </trkpt>
      <trkpt lat="40.807573" lon="-4.043408">
        <ele>1489.470715</ele>
        <time>2021-09-15T21:45:15.000Z</time>
      </trkpt>
      <trkpt lat="40.807468" lon="-4.04341"/>
      <trkpt lat="40.807384" lon="-4.043411">
        <ele>1487.179874</ele>
        <time>2021-09-15T21:45:15.000Z</time>
      </trkpt>
      <trkpt lat="40.807333" lon="-4.043397">
        <ele>1486.548556</ele>
        <time>2021-09-15T21:45:15.000Z</time>
      </trkpt>
      <trkpt lat="40.807275" lon="-4.043391">
        <ele>1485.880710</ele>
        <time>2021-09-15T21:45:15.000Z</time>
      </trkpt>
      <trkpt lat="40.807199" lon="-4.043405">
        <ele>1485.001377</ele>
        <time>2021-09-15T21:45:15.000Z</time>
      </trkpt>
      <trkpt lat="40.807153" lon="-4.043403">
        <ele>1484.473963</ele>
        <time>2021-09-15T21:45:15.000Z</time>
      </trkpt>
      <trkpt lat="40.807096" lon="-4.043401">
        <ele>1483.820552</ele>
        <time>2021-09-15T21:45:15.000Z</time>
      </trkpt>
      <trkpt lat="40.807047" lon="-4.043404">
        <ele>1483.258443</ele>
        <time>2021-09-15T21:45:15.000Z</time>
      </trkpt>
      <trkpt lat="40.807011" lon="-4.043394">
        <ele>1482.836888</ele>
        <time>2021-09-15T21:45:15.000Z</time>
      </trkpt>
      <trkpt lat="40.80699" lon="-4.043398"/>
      <trkpt lat="40.806931" lon="-4.043393">
        <ele>1481.916265</ele>
        <time>2021-09-15T21:45:15.000Z</time>
      </trkpt>
      <trkpt lat="40.80691" lon="-4.043375"/>
      <trkpt lat="40.806891" lon="-4.043371">
        <ele>1481.408935</ele>
        <time>2021-09-15T21:45:15.000Z</time>
      </trkpt>
      <trkpt lat="40.806858" lon="-4.043358">
        <ele>1481.014325</ele>
        <time>2021-09-15T21:45:15.000Z</time>
      </trkpt>
      <trkpt lat="40.806816" lon="-4.043342">
        <ele>1480.513425</ele>
        <time>2021-09-15T21:45:15.000Z</time>
      </trkpt>
      <trkpt lat="40.806797" lon="-4.043325">
        <ele>1480.250465</ele>
        <time>2021-09-15T21:45:15.000Z</time>
      </trkpt>
      <trkpt lat="40.806774" lon="-4.043305">
        <ele>1479.934934</ele>
        <time>2021-09-15T21:45:15.000Z</time>
      </trkpt>
      <trkpt lat="40.806707" lon="-4.043243">
        <ele>1478.997557</ele>
        <time>2021-09-15T21:45:15.000Z</time>
      </trkpt>
      <trkpt lat="40.806678" lon="-4.043217">
        <ele>1478.595941</ele>
        <time>2021-09-15T21:45:15.000Z</time>
      </trkpt>
      <trkpt lat="40.806653" lon="-4.043166">
        <ele>1478.068915</ele>
        <time>2021-09-15T21:45:15.000Z</time>
      </trkpt>
      <trkpt lat="40.806648" lon="-4.04315"/>
      <trkpt lat="40.806632" lon="-4.043072">
        <ele>1477.217813</ele>
        <time>2021-09-15T21:45:15.000Z</time>
      </trkpt>
      <trkpt lat="40.806627" lon="-4.043054">
        <ele>1477.051504</ele>
        <time>2021-09-15T21:45:15.000Z</time>
      </trkpt>
      <trkpt lat="40.806616" lon="-4.042952">
        <ele>1476.157843</ele>
        <time>2021-09-15T21:45:15.000Z</time>
      </trkpt>
      <trkpt lat="40.806617" lon="-4.042933">
        <ele>1475.992644</ele>
        <time>2021-09-15T21:45:15.000Z</time>
      </trkpt>
      <trkpt lat="40.806623" lon="-4.042911">
        <ele>1475.789812</ele>
        <time>2021-09-15T21:45:15.000Z</time>
      </trkpt>
      <trkpt lat="40.806646" lon="-4.042795">
        <ele>1474.749706</ele>
        <time>2021-09-15T21:45:15.000Z</time>
      </trkpt>
      <trkpt lat="40.806653" lon="-4.04276"/>
      <trkpt lat="40.806726" lon="-4.042635">
        <ele>1473.066282</ele>
        <time>2021-09-15T21:45:15.000Z</time>
      </trkpt>
      <trkpt lat="40.806736" lon="-4.042618">
        <ele>1472.879536</ele>
        <time>2021-09-15T21:45:15.000Z</time>
      </trkpt>
      <trkpt lat="40.806798" lon="-4.042517">
        <ele>1471.751599</ele>
        <time>2021-09-15T21:45:15.000Z</time>
      </trkpt>
      <trkpt lat="40.806808" lon="-4.042503">
        <ele>1471.584634</ele>
        <time>2021-09-15T21:45:15.000Z</time>
      </trkpt>
      <trkpt lat="40.806837" lon="-4.042467">
        <ele>1471.128629</ele>
        <time>2021-09-15T21:45:15.000Z</time>
      </trkpt>
      <trkpt lat="40.806847" lon="-4.042455">
        <ele>1470.973822</ele>
        <time>2021-09-15T21:45:15.000Z</time>
      </trkpt>
      <trkpt lat="40.806867" lon="-4.042419">
        <ele>1470.586486</ele>
        <time>2021-09-15T21:45:15.000Z</time>
      </trkpt>
      <trkpt lat="40.806903" lon="-4.042365">
        <ele>1469.962333</ele>
        <time>2021-09-15T21:45:15.000Z</time>
      </trkpt>
      <trkpt lat="40.806921" lon="-4.042337">
        <ele>1469.643695</ele>
        <time>2021-09-15T21:45:15.000Z</time>
      </trkpt>
      <trkpt lat="40.806944" lon="-4.042285">
        <ele>1469.121299</ele>
        <time>2021-09-15T21:45:15.000Z</time>
      </trkpt>
      <trkpt lat="40.806945" lon="-4.042266">
        <ele>1468.956100</ele>
        <time>2021-09-15T21:45:15.000Z</time>
      </trkpt>
      <trkpt lat="40.806948" lon="-4.042248">
        <ele>1468.796233</ele>
        <time>2021-09-15T21:45:15.000Z</time>
      </trkpt>
      <trkpt lat="40.806982" lon="-4.042154">
        <ele>1467.892592</ele>
        <time>2021-09-15T21:45:15.000Z</time>
      </trkpt>
      <trkpt lat="40.806985" lon="-4.042139">
        <ele>1467.758021</ele>
        <time>2021-09-15T21:45:15.000Z</time>
      </trkpt>
      <trkpt lat="40.806996" lon="-4.042108">
        <ele>1467.461055</ele>
        <time>2021-09-15T21:45:15.000Z</time>
      </trkpt>
      <trkpt lat="40.807023" lon="-4.042035">
        <ele>1466.756322</ele>
        <time>2021-09-15T21:45:15.000Z</time>
      </trkpt>
      <trkpt lat="40.807025" lon="-4.042016">
        <ele>1466.589935</ele>
        <time>2021-09-15T21:45:15.000Z</time>
      </trkpt>
      <trkpt lat="40.807025" lon="-4.041996">
        <ele>1466.416461</ele>
        <time>2021-09-15T21:45:15.000Z</time>
      </trkpt>
      <trkpt lat="40.807038" lon="-4.041907">
        <ele>1465.622972</ele>
        <time>2021-09-15T21:45:15.000Z</time>
      </trkpt>
      <trkpt lat="40.807042" lon="-4.041886">
        <ele>1465.430354</ele>
        <time>2021-09-15T21:45:15.000Z</time>
      </trkpt>
      <trkpt lat="40.807081" lon="-4.04178"/>
      <trkpt lat="40.807079" lon="-4.041747">
        <ele>1464.087526</ele>
        <time>2021-09-15T21:45:15.000Z</time>
      </trkpt>
      <trkpt lat="40.80709" lon="-4.041679"/>
      <trkpt lat="40.807091" lon="-4.041659">
        <ele>1463.290722</ele>
        <time>2021-09-15T21:45:15.000Z</time>
      </trkpt>
      <trkpt lat="40.807099" lon="-4.041605">
        <ele>1462.801280</ele>
        <time>2021-09-15T21:45:15.000Z</time>
      </trkpt>
      <trkpt lat="40.807109" lon="-4.041535">
        <ele>1462.167640</ele>
        <time>2021-09-15T21:45:15.000Z</time>
      </trkpt>
      <trkpt lat="40.807122" lon="-4.041439">
        <ele>1461.300166</ele>
        <time>2021-09-15T21:45:15.000Z</time>
      </trkpt>
      <trkpt lat="40.807125" lon="-4.041422">
        <ele>1461.144896</ele>
        <time>2021-09-15T21:45:15.000Z</time>
      </trkpt>
      <trkpt lat="40.807145" lon="-4.04137"/>
      <trkpt lat="40.807154" lon="-4.041337">
        <ele>1460.314063</ele>
        <time>2021-09-15T21:45:15.000Z</time>
      </trkpt>
      <trkpt lat="40.807161" lon="-4.041307">
        <ele>1460.034823</ele>
        <time>2021-09-15T21:45:15.000Z</time>
      </trkpt>
      <trkpt lat="40.807192" lon="-4.041217">
        <ele>1459.155285</ele>
        <time>2021-09-15T21:45:15.000Z</time>
      </trkpt>
      <trkpt lat="40.807205" lon="-4.041172">
        <ele>1458.726849</ele>
        <time>2021-09-15T21:45:15.000Z</time>
      </trkpt>
      <trkpt lat="40.807224" lon="-4.041049">
        <ele>1457.610219</ele>
        <time>2021-09-15T21:45:15.000Z</time>
      </trkpt>
      <trkpt lat="40.80723" lon="-4.041028"/>
      <trkpt lat="40.807255" lon="-4.04094"/>
      <trkpt lat="40.807261" lon="-4.040921">
        <ele>1456.391365</ele>
        <time>2021-09-15T21:45:15.000Z</time>
      </trkpt>
      <trkpt lat="40.807271" lon="-4.04088"/>
      <trkpt lat="40.807274" lon="-4.040809">
        <ele>1455.375682</ele>
        <time>2021-09-15T21:45:15.000Z</time>
      </trkpt>
      <trkpt lat="40.807291" lon="-4.040762">
        <ele>1454.912339</ele>
        <time>2021-09-15T21:45:15.000Z</time>
      </trkpt>
      <trkpt lat="40.807299" lon="-4.040745">
        <ele>1454.734283</ele>
        <time>2021-09-15T21:45:15.000Z</time>
      </trkpt>
      <trkpt lat="40.807318" lon="-4.040694">
        <ele>1454.228669</ele>
        <time>2021-09-15T21:45:15.000Z</time>
      </trkpt>
      <trkpt lat="40.807333" lon="-4.040634">
        <ele>1453.666616</ele>
        <time>2021-09-15T21:45:15.000Z</time>
      </trkpt>
      <trkpt lat="40.807355" lon="-4.040588">
        <ele>1453.182614</ele>
        <time>2021-09-15T21:45:15.000Z</time>
      </trkpt>
      <trkpt lat="40.807373" lon="-4.040557">
        <ele>1452.835082</ele>
        <time>2021-09-15T21:45:15.000Z</time>
      </trkpt>
      <trkpt lat="40.807428" lon="-4.040473">
        <ele>1451.847144</ele>
        <time>2021-09-15T21:45:15.000Z</time>
      </trkpt>
      <trkpt lat="40.807446" lon="-4.04044"/>
      <trkpt lat="40.807479" lon="-4.040396">
        <ele>1450.934366</ele>
        <time>2021-09-15T21:45:15.000Z</time>
      </trkpt>
      <trkpt lat="40.807505" lon="-4.040372">
        <ele>1450.561635</ele>
        <time>2021-09-15T21:45:15.000Z</time>
      </trkpt>
      <trkpt lat="40.807533" lon="-4.040353">
        <ele>1450.191726</ele>
        <time>2021-09-15T21:45:15.000Z</time>
      </trkpt>
      <trkpt lat="40.807538" lon="-4.040336">
        <ele>1450.029497</ele>
        <time>2021-09-15T21:45:15.000Z</time>
      </trkpt>
      <trkpt lat="40.807555" lon="-4.040303">
        <ele>1449.674431</ele>
        <time>2021-09-15T21:45:15.000Z</time>
      </trkpt>
      <trkpt lat="40.807589" lon="-4.040258">
        <ele>1449.108869</ele>
        <time>2021-09-15T21:45:15.000Z</time>
      </trkpt>
      <trkpt lat="40.807616" lon="-4.040236">
        <ele>1448.736084</ele>
        <time>2021-09-15T21:45:15.000Z</time>
      </trkpt>
      <trkpt lat="40.807667" lon="-4.040163">
        <ele>1447.852441</ele>
        <time>2021-09-15T21:45:15.000Z</time>
      </trkpt>
      <trkpt lat="40.807698" lon="-4.0401"/>
      <trkpt lat="40.807709" lon="-4.040087">
        <ele>1447.010617</ele>
        <time>2021-09-15T21:45:15.000Z</time>
      </trkpt>
      <trkpt lat="40.807737" lon="-4.040042">
        <ele>1446.492461</ele>
        <time>2021-09-15T21:45:15.000Z</time>
      </trkpt>
      <trkpt lat="40.807761" lon="-4.04001"/>
      <trkpt lat="40.80778" lon="-4.039953"/>
      <trkpt lat="40.807791" lon="-4.039936">
        <ele>1445.338826</ele>
        <time>2021-09-15T21:45:15.000Z</time>
      </trkpt>
      <trkpt lat="40.807804" lon="-4.039923">
        <ele>1445.147227</ele>
        <time>2021-09-15T21:45:15.000Z</time>
      </trkpt>
      <trkpt lat="40.807875" lon="-4.039824">
        <ele>1443.949905</ele>
        <time>2021-09-15T21:45:15.000Z</time>
      </trkpt>
      <trkpt lat="40.807902" lon="-4.039792">
        <ele>1443.531610</ele>
        <time>2021-09-15T21:45:15.000Z</time>
      </trkpt>
      <trkpt lat="40.807931" lon="-4.039763">
        <ele>1443.112180</ele>
        <time>2021-09-15T21:45:15.000Z</time>
      </trkpt>
      <trkpt lat="40.807974" lon="-4.039694">
        <ele>1442.332023</ele>
        <time>2021-09-15T21:45:15.000Z</time>
      </trkpt>
      <trkpt lat="40.808037" lon="-4.03963"/>
      <trkpt lat="40.808046" lon="-4.039621">
        <ele>1441.285384</ele>
        <time>2021-09-15T21:45:15.000Z</time>
      </trkpt>
      <trkpt lat="40.808085" lon="-4.039583">
        <ele>1440.726547</ele>
        <time>2021-09-15T21:45:15.000Z</time>
      </trkpt>
      <trkpt lat="40.808144" lon="-4.039507">
        <ele>1439.776275</ele>
        <time>2021-09-15T21:45:15.000Z</time>
      </trkpt>
      <trkpt lat="40.808203" lon="-4.039461">
        <ele>1438.986237</ele>
        <time>2021-09-15T21:45:15.000Z</time>
      </trkpt>
      <trkpt lat="40.808221" lon="-4.039447">
        <ele>1438.745358</ele>
        <time>2021-09-15T21:45:15.000Z</time>
      </trkpt>
      <trkpt lat="40.808276" lon="-4.039426">
        <ele>1438.085133</ele>
        <time>2021-09-15T21:45:15.000Z</time>
      </trkpt>
      <trkpt lat="40.808299" lon="-4.039407">
        <ele>1437.772313</ele>
        <time>2021-09-15T21:45:15.000Z</time>
      </trkpt>
      <trkpt lat="40.808337" lon="-4.039382">
        <ele>1437.282764</ele>
        <time>2021-09-15T21:45:15.000Z</time>
      </trkpt>
      <trkpt lat="40.808385" lon="-4.039327">
        <ele>1436.550039</ele>
        <time>2021-09-15T21:45:15.000Z</time>
      </trkpt>
      <trkpt lat="40.808404" lon="-4.039297">
        <ele>1436.208600</ele>
        <time>2021-09-15T21:45:15.000Z</time>
      </trkpt>
      <trkpt lat="40.808429" lon="-4.039234">
        <ele>1435.587700</ele>
        <time>2021-09-15T21:45:15.000Z</time>
      </trkpt>
      <trkpt lat="40.808454" lon="-4.039144">
        <ele>1434.750886</ele>
        <time>2021-09-15T21:45:15.000Z</time>
      </trkpt>
      <trkpt lat="40.808454" lon="-4.039122">
        <ele>1434.558855</ele>
        <time>2021-09-15T21:45:15.000Z</time>
      </trkpt>
      <trkpt lat="40.808462" lon="-4.038991">
        <ele>1433.411683</ele>
        <time>2021-09-15T21:45:15.000Z</time>
      </trkpt>
      <trkpt lat="40.808461" lon="-4.038973">
        <ele>1433.254144</ele>
        <time>2021-09-15T21:45:15.000Z</time>
      </trkpt>
      <trkpt lat="40.808461" lon="-4.038955">
        <ele>1433.097028</ele>
        <time>2021-09-15T21:45:15.000Z</time>
      </trkpt>
      <trkpt lat="40.808467" lon="-4.038879">
        <ele>1432.430049</ele>
        <time>2021-09-15T21:45:15.000Z</time>
      </trkpt>
      <trkpt lat="40.808468" lon="-4.038859">
        <ele>1432.255095</ele>
        <time>2021-09-15T21:45:15.000Z</time>
      </trkpt>
      <trkpt lat="40.808482" lon="-4.038801">
        <ele>1431.723711</ele>
        <time>2021-09-15T21:45:15.000Z</time>
      </trkpt>
      <trkpt lat="40.808487" lon="-4.038767">
        <ele>1431.421387</ele>
        <time>2021-09-15T21:45:15.000Z</time>
      </trkpt>
      <trkpt lat="40.808499" lon="-4.038741">
        <ele>1431.155577</ele>
        <time>2021-09-15T21:45:15.000Z</time>
      </trkpt>
      <trkpt lat="40.808505" lon="-4.03871"/>
      <trkpt lat="40.808506" lon="-4.038696">
        <ele>1430.753537</ele>
        <time>2021-09-15T21:45:15.000Z</time>
      </trkpt>
      <trkpt lat="40.808511" lon="-4.038686">
        <ele>1430.648925</ele>
        <time>2021-09-15T21:45:15.000Z</time>
      </trkpt>
      <trkpt lat="40.808526" lon="-4.038661">
        <ele>1430.370462</ele>
        <time>2021-09-15T21:45:15.000Z</time>
      </trkpt>
      <trkpt lat="40.808548" lon="-4.038594">
        <ele>1429.732980</ele>
        <time>2021-09-15T21:45:15.000Z</time>
      </trkpt>
      <trkpt lat="40.80855" lon="-4.038575"/>
      <trkpt lat="40.808586" lon="-4.038491">
        <ele>1428.722954</ele>
        <time>2021-09-15T21:45:15.000Z</time>
      </trkpt>
      <trkpt lat="40.808596" lon="-4.038473">
        <ele>1428.528058</ele>
        <time>2021-09-15T21:45:15.000Z</time>
      </trkpt>
      <trkpt lat="40.808606" lon="-4.038457">
        <ele>1428.346941</ele>
        <time>2021-09-15T21:45:15.000Z</time>
      </trkpt>
      <trkpt lat="40.808638" lon="-4.038407">
        <ele>1427.775402</ele>
        <time>2021-09-15T21:45:15.000Z</time>
      </trkpt>
      <trkpt lat="40.808669" lon="-4.038357">
        <ele>1427.211241</ele>
        <time>2021-09-15T21:45:15.000Z</time>
      </trkpt>
      <trkpt lat="40.808695" lon="-4.03833"/>
      <trkpt lat="40.80875" lon="-4.038233"/>
      <trkpt lat="40.808778" lon="-4.038124">
        <ele>1424.767243</ele>
        <time>2021-09-15T21:45:15.000Z</time>
      </trkpt>
      <trkpt lat="40.808786" lon="-4.038103">
        <ele>1424.562034</ele>
        <time>2021-09-15T21:45:15.000Z</time>
      </trkpt>
      <trkpt lat="40.808842" lon="-4.038038">
        <ele>1423.806495</ele>
        <time>2021-09-15T21:45:15.000Z</time>
      </trkpt>
      <trkpt lat="40.808876" lon="-4.037986">
        <ele>1423.393490</ele>
        <time>2021-09-15T21:45:15.000Z</time>
      </trkpt>
      <trkpt lat="40.808888" lon="-4.037968">
        <ele>1423.249323</ele>
        <time>2021-09-15T21:45:15.000Z</time>
      </trkpt>
      <trkpt lat="40.80894" lon="-4.037752"/>
      <trkpt lat="40.80895" lon="-4.037712"/>
      <trkpt lat="40.808985" lon="-4.037654">
        <ele>1421.187986</ele>
        <time>2021-09-15T21:45:15.000Z</time>
      </trkpt>
      <trkpt lat="40.808987" lon="-4.037625">
        <ele>1421.012965</ele>
        <time>2021-09-15T21:45:15.000Z</time>
      </trkpt>
      <trkpt lat="40.809062" lon="-4.037468">
        <ele>1419.897120</ele>
        <time>2021-09-15T21:45:15.000Z</time>
      </trkpt>
      <trkpt lat="40.809163" lon="-4.037277">
        <ele>1418.496737</ele>
        <time>2021-09-15T21:45:15.000Z</time>
      </trkpt>
      <trkpt lat="40.809257" lon="-4.037118">
        <ele>1417.284133</ele>
        <time>2021-09-15T21:45:15.000Z</time>
      </trkpt>
      <trkpt lat="40.809271" lon="-4.037091">
        <ele>1417.087427</ele>
        <time>2021-09-15T21:45:15.000Z</time>
      </trkpt>
      <trkpt lat="40.809322" lon="-4.036951">
        <ele>1416.153600</ele>
        <time>2021-09-15T21:45:15.000Z</time>
      </trkpt>
      <trkpt lat="40.809351" lon="-4.036884">
        <ele>1415.689715</ele>
        <time>2021-09-15T21:45:15.000Z</time>
      </trkpt>
      <trkpt lat="40.809399" lon="-4.036819">
        <ele>1415.143910</ele>
        <time>2021-09-15T21:45:15.000Z</time>
      </trkpt>
      <trkpt lat="40.809472" lon="-4.036742">
        <ele>1414.402153</ele>
        <time>2021-09-15T21:45:15.000Z</time>
      </trkpt>
      <trkpt lat="40.809504" lon="-4.036698">
        <ele>1414.035404</ele>
        <time>2021-09-15T21:45:15.000Z</time>
      </trkpt>
      <trkpt lat="40.809553" lon="-4.036615">
        <ele>1413.402750</ele>
        <time>2021-09-15T21:45:15.000Z</time>
      </trkpt>
      <trkpt lat="40.809572" lon="-4.036599">
        <ele>1413.223834</ele>
        <time>2021-09-15T21:45:15.000Z</time>
      </trkpt>
      <trkpt lat="40.809639" lon="-4.036503">
        <ele>1412.438995</ele>
        <time>2021-09-15T21:45:15.000Z</time>
      </trkpt>
      <trkpt lat="40.809657" lon="-4.036481">
        <ele>1412.244280</ele>
        <time>2021-09-15T21:45:15.000Z</time>
      </trkpt>
      <trkpt lat="40.809731" lon="-4.036361">
        <ele>1411.313974</ele>
        <time>2021-09-15T21:45:15.000Z</time>
      </trkpt>
      <trkpt lat="40.80974" lon="-4.036335"/>
      <trkpt lat="40.809796" lon="-4.03623"/>
      <trkpt lat="40.809827" lon="-4.036198">
        <ele>1410.057739</ele>
        <time>2021-09-15T21:45:15.000Z</time>
      </trkpt>
      <trkpt lat="40.809862" lon="-4.036155">
        <ele>1409.688253</ele>
        <time>2021-09-15T21:45:15.000Z</time>
      </trkpt>
      <trkpt lat="40.809909" lon="-4.036093">
        <ele>1409.230690</ele>
        <time>2021-09-15T21:45:15.000Z</time>
      </trkpt>
      <trkpt lat="40.809949" lon="-4.036043">
        <ele>1408.851329</ele>
        <time>2021-09-15T21:45:15.000Z</time>
      </trkpt>
      <trkpt lat="40.809981" lon="-4.036001">
        <ele>1408.540581</ele>
        <time>2021-09-15T21:45:15.000Z</time>
      </trkpt>
      <trkpt lat="40.809999" lon="-4.035957">
        <ele>1408.279779</ele>
        <time>2021-09-15T21:45:15.000Z</time>
      </trkpt>
      <trkpt lat="40.810031" lon="-4.035903">
        <ele>1407.922166</ele>
        <time>2021-09-15T21:45:15.000Z</time>
      </trkpt>
      <trkpt lat="40.810063" lon="-4.035828">
        <ele>1407.473229</ele>
        <time>2021-09-15T21:45:15.000Z</time>
      </trkpt>
      <trkpt lat="40.810087" lon="-4.035774">
        <ele>1407.146696</ele>
        <time>2021-09-15T21:45:15.000Z</time>
      </trkpt>
      <trkpt lat="40.81013" lon="-4.03568"/>
      <trkpt lat="40.81019" lon="-4.035585"/>
      <trkpt lat="40.81021" lon="-4.035559"/>
      <trkpt lat="40.810229" lon="-4.0355"/>
      <trkpt lat="40.810305" lon="-4.035355">
        <ele>1404.481485</ele>
        <time>2021-09-15T21:45:15.000Z</time>
      </trkpt>
      <trkpt lat="40.810359" lon="-4.035281">
        <ele>1403.945489</ele>
        <time>2021-09-15T21:45:15.000Z</time>
      </trkpt>
      <trkpt lat="40.810398" lon="-4.035201">
        <ele>1403.449300</ele>
        <time>2021-09-15T21:45:15.000Z</time>
      </trkpt>
      <trkpt lat="40.810442" lon="-4.035099">
        <ele>1402.837118</ele>
        <time>2021-09-15T21:45:15.000Z</time>
      </trkpt>
      <trkpt lat="40.810459" lon="-4.035059">
        <ele>1402.597911</ele>
        <time>2021-09-15T21:45:15.000Z</time>
      </trkpt>
      <trkpt lat="40.810504" lon="-4.034988">
        <ele>1402.115030</ele>
        <time>2021-09-15T21:45:15.000Z</time>
      </trkpt>
      <trkpt lat="40.810558" lon="-4.034893">
        <ele>1401.495526</ele>
        <time>2021-09-15T21:45:15.000Z</time>
      </trkpt>
      <trkpt lat="40.810582" lon="-4.034845">
        <ele>1401.195554</ele>
        <time>2021-09-15T21:45:15.000Z</time>
      </trkpt>
      <trkpt lat="40.810641" lon="-4.03476"/>
      <trkpt lat="40.810678" lon="-4.034714">
        <ele>1400.244160</ele>
        <time>2021-09-15T21:45:15.000Z</time>
      </trkpt>
      <trkpt lat="40.810757" lon="-4.034607">
        <ele>1399.464734</ele>
        <time>2021-09-15T21:45:15.000Z</time>
      </trkpt>
      <trkpt lat="40.810789" lon="-4.034551">
        <ele>1399.098856</ele>
        <time>2021-09-15T21:45:15.000Z</time>
      </trkpt>
      <trkpt lat="40.810878" lon="-4.034438">
        <ele>1398.248485</ele>
        <time>2021-09-15T21:45:15.000Z</time>
      </trkpt>
      <trkpt lat="40.810901" lon="-4.034412">
        <ele>1398.039948</ele>
        <time>2021-09-15T21:45:15.000Z</time>
      </trkpt>
      <trkpt lat="40.811016" lon="-4.034245">
        <ele>1397.030255</ele>
        <time>2021-09-15T21:45:15.000Z</time>
      </trkpt>
      <trkpt lat="40.811123" lon="-4.03403"/>
      <trkpt lat="40.811249" lon="-4.033791">
        <ele>1395.128689</ele>
        <time>2021-09-15T21:45:15.000Z</time>
      </trkpt>
      <trkpt lat="40.811309" lon="-4.033627">
        <ele>1394.497278</ele>
        <time>2021-09-15T21:45:15.000Z</time>
      </trkpt>
      <trkpt lat="40.811323" lon="-4.033564">
        <ele>1394.269681</ele>
        <time>2021-09-15T21:45:15.000Z</time>
      </trkpt>
      <trkpt lat="40.81137" lon="-4.033453"/>
      <trkpt lat="40.811436" lon="-4.033304">
        <ele>1393.230367</ele>
        <time>2021-09-15T21:45:15.000Z</time>
      </trkpt>
      <trkpt lat="40.811544" lon="-4.033142">
        <ele>1392.482045</ele>
        <time>2021-09-15T21:45:15.000Z</time>
      </trkpt>
      <trkpt lat="40.811556" lon="-4.033117">
        <ele>1392.379429</ele>
        <time>2021-09-15T21:45:15.000Z</time>
      </trkpt>
      <trkpt lat="40.81157" lon="-4.033094"/>
      <trkpt lat="40.811604" lon="-4.033063">
        <ele>1392.087927</ele>
        <time>2021-09-15T21:45:15.000Z</time>
      </trkpt>
      <trkpt lat="40.811657" lon="-4.033017">
        <ele>1391.797507</ele>
        <time>2021-09-15T21:45:15.000Z</time>
      </trkpt>
      <trkpt lat="40.811726" lon="-4.032938">
        <ele>1391.379357</ele>
        <time>2021-09-15T21:45:15.000Z</time>
      </trkpt>
      <trkpt lat="40.811748" lon="-4.032926">
        <ele>1391.270352</ele>
        <time>2021-09-15T21:45:15.000Z</time>
      </trkpt>
      <trkpt lat="40.811846" lon="-4.032823">
        <ele>1390.696841</ele>
        <time>2021-09-15T21:45:15.000Z</time>
      </trkpt>
      <trkpt lat="40.811877" lon="-4.032801">
        <ele>1390.535681</ele>
        <time>2021-09-15T21:45:15.000Z</time>
      </trkpt>
      <trkpt lat="40.81193" lon="-4.032738"/>
      <trkpt lat="40.81203" lon="-4.032659"/>
      <trkpt lat="40.812101" lon="-4.032579">
        <ele>1389.248210</ele>
        <time>2021-09-15T21:45:15.000Z</time>
      </trkpt>
      <trkpt lat="40.812133" lon="-4.03255"/>
      <trkpt lat="40.81225" lon="-4.032459"/>
      <trkpt lat="40.812327" lon="-4.032371">
        <ele>1388.122443</ele>
        <time>2021-09-15T21:45:15.000Z</time>
      </trkpt>
      <trkpt lat="40.812359" lon="-4.032344">
        <ele>1387.969861</ele>
        <time>2021-09-15T21:45:15.000Z</time>
      </trkpt>
      <trkpt lat="40.812424" lon="-4.032264">
        <ele>1387.612876</ele>
        <time>2021-09-15T21:45:15.000Z</time>
      </trkpt>
      <trkpt lat="40.812455" lon="-4.032227">
        <ele>1387.444993</ele>
        <time>2021-09-15T21:45:15.000Z</time>
      </trkpt>
      <trkpt lat="40.812515" lon="-4.032131">
        <ele>1387.066317</ele>
        <time>2021-09-15T21:45:15.000Z</time>
      </trkpt>
      <trkpt lat="40.812564" lon="-4.03202"/>
      <trkpt lat="40.812611" lon="-4.031924">
        <ele>1386.327725</ele>
        <time>2021-09-15T21:45:15.000Z</time>
      </trkpt>
      <trkpt lat="40.812688" lon="-4.031754">
        <ele>1385.725145</ele>
        <time>2021-09-15T21:45:15.000Z</time>
      </trkpt>
      <trkpt lat="40.812723" lon="-4.031659">
        <ele>1385.403785</ele>
        <time>2021-09-15T21:45:15.000Z</time>
      </trkpt>
      <trkpt lat="40.812765" lon="-4.031474">
        <ele>1384.816333</ele>
        <time>2021-09-15T21:45:15.000Z</time>
      </trkpt>
      <trkpt lat="40.81283" lon="-4.031253"/>
      <trkpt lat="40.812916" lon="-4.031045">
        <ele>1383.374303</ele>
        <time>2021-09-15T21:45:15.000Z</time>
      </trkpt>
      <trkpt lat="40.81306" lon="-4.030686"/>
      <trkpt lat="40.813191" lon="-4.03043"/>
      <trkpt lat="40.813288" lon="-4.030251">
        <ele>1380.603875</ele>
        <time>2021-09-15T21:45:15.000Z</time>
      </trkpt>
      <trkpt lat="40.813387" lon="-4.030067">
        <ele>1379.954799</ele>
        <time>2021-09-15T21:45:15.000Z</time>
      </trkpt>
      <trkpt lat="40.813488" lon="-4.029859">
        <ele>1379.244279</ele>
        <time>2021-09-15T21:45:15.000Z</time>
      </trkpt>
      <trkpt lat="40.8136" lon="-4.029668"/>
      <trkpt lat="40.813689" lon="-4.029532">
        <ele>1378.032687</ele>
        <time>2021-09-15T21:45:15.000Z</time>
      </trkpt>
      <trkpt lat="40.813715" lon="-4.029475">
        <ele>1377.841344</ele>
        <time>2021-09-15T21:45:15.000Z</time>
      </trkpt>
      <trkpt lat="40.813807" lon="-4.029311">
        <ele>1377.254430</ele>
        <time>2021-09-15T21:45:15.000Z</time>
      </trkpt>
      <trkpt lat="40.813862" lon="-4.029212">
        <ele>1376.901344</ele>
        <time>2021-09-15T21:45:15.000Z</time>
      </trkpt>
      <trkpt lat="40.813877" lon="-4.029186">
        <ele>1376.807350</ele>
        <time>2021-09-15T21:45:15.000Z</time>
      </trkpt>
      <trkpt lat="40.813938" lon="-4.029081">
        <ele>1376.426783</ele>
        <time>2021-09-15T21:45:15.000Z</time>
      </trkpt>
      <trkpt lat="40.81399" lon="-4.02903"/>
      <trkpt lat="40.814009" lon="-4.029013">
        <ele>1376.093603</ele>
        <time>2021-09-15T21:45:15.000Z</time>
      </trkpt>
      <trkpt lat="40.814088" lon="-4.02894"/>
      <trkpt lat="40.814112" lon="-4.028931">
        <ele>1375.632616</ele>
        <time>2021-09-15T21:45:15.000Z</time>
      </trkpt>
      <trkpt lat="40.814217" lon="-4.02886"/>
      <trkpt lat="40.814231" lon="-4.028849">
        <ele>1375.122665</ele>
        <time>2021-09-15T21:45:15.000Z</time>
      </trkpt>
      <trkpt lat="40.814323" lon="-4.028811">
        <ele>1374.556636</ele>
        <time>2021-09-15T21:45:15.000Z</time>
      </trkpt>
      <trkpt lat="40.814367" lon="-4.028788">
        <ele>1374.260131</ele>
        <time>2021-09-15T21:45:15.000Z</time>
      </trkpt>
      <trkpt lat="40.81442" lon="-4.028781"/>
      <trkpt lat="40.814476" lon="-4.028774">
        <ele>1373.573894</ele>
        <time>2021-09-15T21:45:15.000Z</time>
      </trkpt>
      <trkpt lat="40.814538" lon="-4.028784">
        <ele>1373.182506</ele>
        <time>2021-09-15T21:45:15.000Z</time>
      </trkpt>
      <trkpt lat="40.814606" lon="-4.028791">
        <ele>1372.755114</ele>
        <time>2021-09-15T21:45:15.000Z</time>
      </trkpt>
      <trkpt lat="40.814635" lon="-4.02879"/>
      <trkpt lat="40.814657" lon="-4.028796">
        <ele>1372.432570</ele>
        <time>2021-09-15T21:45:15.000Z</time>
      </trkpt>
      <trkpt lat="40.81473" lon="-4.028811"/>
      <trkpt lat="40.814848" lon="-4.028835">
        <ele>1371.221519</ele>
        <time>2021-09-15T21:45:15.000Z</time>
      </trkpt>
      <trkpt lat="40.814967" lon="-4.028856">
        <ele>1370.469221</ele>
        <time>2021-09-15T21:45:15.000Z</time>
      </trkpt>
      <trkpt lat="40.81498" lon="-4.028857"/>
      <trkpt lat="40.815055" lon="-4.028881">
        <ele>1369.904072</ele>
        <time>2021-09-15T21:45:15.000Z</time>
      </trkpt>
      <trkpt lat="40.815111" lon="-4.028888">
        <ele>1369.551598</ele>
        <time>2021-09-15T21:45:15.000Z</time>
      </trkpt>
      <trkpt lat="40.815186" lon="-4.028919">
        <ele>1369.059176</ele>
        <time>2021-09-15T21:45:15.000Z</time>
      </trkpt>
      <trkpt lat="40.815202" lon="-4.028927">
        <ele>1368.951978</ele>
        <time>2021-09-15T21:45:15.000Z</time>
      </trkpt>
      <trkpt lat="40.81531" lon="-4.028946"/>
      <trkpt lat="40.815333" lon="-4.028956">
        <ele>1368.117533</ele>
        <time>2021-09-15T21:45:15.000Z</time>
      </trkpt>
      <trkpt lat="40.815466" lon="-4.028991">
        <ele>1367.267760</ele>
        <time>2021-09-15T21:45:15.000Z</time>
      </trkpt>
      <trkpt lat="40.815498" lon="-4.028994">
        <ele>1367.066738</ele>
        <time>2021-09-15T21:45:15.000Z</time>
      </trkpt>
      <trkpt lat="40.815539" lon="-4.029002">
        <ele>1366.807038</ele>
        <time>2021-09-15T21:45:15.000Z</time>
      </trkpt>
      <trkpt lat="40.815596" lon="-4.029014">
        <ele>1366.445360</ele>
        <time>2021-09-15T21:45:15.000Z</time>
      </trkpt>
      <trkpt lat="40.81561" lon="-4.029018"/>
      <trkpt lat="40.815692" lon="-4.029069">
        <ele>1365.787701</ele>
        <time>2021-09-15T21:45:15.000Z</time>
      </trkpt>
      <trkpt lat="40.815785" lon="-4.029122">
        <ele>1365.153052</ele>
        <time>2021-09-15T21:45:15.000Z</time>
      </trkpt>
      <trkpt lat="40.815799" lon="-4.029131">
        <ele>1365.055494</ele>
        <time>2021-09-15T21:45:15.000Z</time>
      </trkpt>
      <trkpt lat="40.81587" lon="-4.029178"/>
      <trkpt lat="40.815933" lon="-4.029213">
        <ele>1364.129638</ele>
        <time>2021-09-15T21:45:15.000Z</time>
      </trkpt>
      <trkpt lat="40.815974" lon="-4.029234">
        <ele>1363.854098</ele>
        <time>2021-09-15T21:45:15.000Z</time>
      </trkpt>
      <trkpt lat="40.816057" lon="-4.029265">
        <ele>1363.200144</ele>
        <time>2021-09-15T21:45:15.000Z</time>
      </trkpt>
      <trkpt lat="40.816132" lon="-4.029271">
        <ele>1362.617990</ele>
        <time>2021-09-15T21:45:15.000Z</time>
      </trkpt>
      <trkpt lat="40.816182" lon="-4.02927"/>
      <trkpt lat="40.816215" lon="-4.029266">
        <ele>1361.973799</ele>
        <time>2021-09-15T21:45:15.000Z</time>
      </trkpt>
      <trkpt lat="40.81623" lon="-4.029267"/>
      <trkpt lat="40.816332" lon="-4.029258">
        <ele>1361.065391</ele>
        <time>2021-09-15T21:45:15.000Z</time>
      </trkpt>
      <trkpt lat="40.816366" lon="-4.02926"/>
      <trkpt lat="40.816458" lon="-4.029266">
        <ele>1360.088031</ele>
        <time>2021-09-15T21:45:15.000Z</time>
      </trkpt>
      <trkpt lat="40.816546" lon="-4.029242">
        <ele>1359.391847</ele>
        <time>2021-09-15T21:45:15.000Z</time>
      </trkpt>
      <trkpt lat="40.816649" lon="-4.029198">
        <ele>1358.553148</ele>
        <time>2021-09-15T21:45:15.000Z</time>
      </trkpt>
      <trkpt lat="40.816694" lon="-4.029183">
        <ele>1358.193572</ele>
        <time>2021-09-15T21:45:15.000Z</time>
      </trkpt>
      <trkpt lat="40.81676" lon="-4.02916"/>
      <trkpt lat="40.816775" lon="-4.029152">
        <ele>1357.539400</ele>
        <time>2021-09-15T21:45:15.000Z</time>
      </trkpt>
      <trkpt lat="40.816828" lon="-4.029132">
        <ele>1357.112345</ele>
        <time>2021-09-15T21:45:15.000Z</time>
      </trkpt>
      <trkpt lat="40.816842" lon="-4.029131">
        <ele>1357.003717</ele>
        <time>2021-09-15T21:45:15.000Z</time>
      </trkpt>
      <trkpt lat="40.816856" lon="-4.029128">
        <ele>1356.893829</ele>
        <time>2021-09-15T21:45:15.000Z</time>
      </trkpt>
      <trkpt lat="40.816933" lon="-4.02911"/>
      <trkpt lat="40.816968" lon="-4.029095">
        <ele>1356.002897</ele>
        <time>2021-09-15T21:45:15.000Z</time>
      </trkpt>
      <trkpt lat="40.817081" lon="-4.029058">
        <ele>1355.100908</ele>
        <time>2021-09-15T21:45:15.000Z</time>
      </trkpt>
      <trkpt lat="40.81718" lon="-4.029003"/>
      <trkpt lat="40.817237" lon="-4.028971">
        <ele>1353.788995</ele>
        <time>2021-09-15T21:45:15.000Z</time>
      </trkpt>
      <trkpt lat="40.817261" lon="-4.028951">
        <ele>1353.569156</ele>
        <time>2021-09-15T21:45:15.000Z</time>
      </trkpt>
      <trkpt lat="40.817294" lon="-4.02894"/>
      <trkpt lat="40.817338" lon="-4.028917">
        <ele>1352.938854</ele>
        <time>2021-09-15T21:45:15.000Z</time>
      </trkpt>
      <trkpt lat="40.817356" lon="-4.028916">
        <ele>1352.799269</ele>
        <time>2021-09-15T21:45:15.000Z</time>
      </trkpt>
      <trkpt lat="40.81744" lon="-4.028889"/>
      <trkpt lat="40.817477" lon="-4.028874">
        <ele>1351.829609</ele>
        <time>2021-09-15T21:45:15.000Z</time>
      </trkpt>
      <trkpt lat="40.817554" lon="-4.02885"/>
      <trkpt lat="40.817614" lon="-4.028834">
        <ele>1350.742407</ele>
        <time>2021-09-15T21:45:15.000Z</time>
      </trkpt>
      <trkpt lat="40.817658" lon="-4.028812">
        <ele>1350.377911</ele>
        <time>2021-09-15T21:45:15.000Z</time>
      </trkpt>
      <trkpt lat="40.817751" lon="-4.028799">
        <ele>1349.667858</ele>
        <time>2021-09-15T21:45:15.000Z</time>
      </trkpt>
      <trkpt lat="40.817773" lon="-4.028801">
        <ele>1349.509128</ele>
        <time>2021-09-15T21:45:15.000Z</time>
      </trkpt>
      <trkpt lat="40.817865" lon="-4.028802">
        <ele>1348.846894</ele>
        <time>2021-09-15T21:45:15.000Z</time>
      </trkpt>
      <trkpt lat="40.817961" lon="-4.028809">
        <ele>1348.154838</ele>
        <time>2021-09-15T21:45:15.000Z</time>
      </trkpt>
      <trkpt lat="40.818089" lon="-4.028828">
        <ele>1347.227704</ele>
        <time>2021-09-15T21:45:15.000Z</time>
      </trkpt>
      <trkpt lat="40.81811" lon="-4.028831"/>
      <trkpt lat="40.818252" lon="-4.028832">
        <ele>1346.053542</ele>
        <time>2021-09-15T21:45:15.000Z</time>
      </trkpt>
      <trkpt lat="40.818326" lon="-4.028828">
        <ele>1345.520447</ele>
        <time>2021-09-15T21:45:15.000Z</time>
      </trkpt>
      <trkpt lat="40.818358" lon="-4.028831">
        <ele>1345.289533</ele>
        <time>2021-09-15T21:45:15.000Z</time>
      </trkpt>
      <trkpt lat="40.818471" lon="-4.028806">
        <ele>1344.464842</ele>
        <time>2021-09-15T21:45:15.000Z</time>
      </trkpt>
      <trkpt lat="40.818588" lon="-4.028762">
        <ele>1343.589238</ele>
        <time>2021-09-15T21:45:15.000Z</time>
      </trkpt>
      <trkpt lat="40.818634" lon="-4.02874"/>
      <trkpt lat="40.818684" lon="-4.02872"/>
      <trkpt lat="40.818697" lon="-4.028716">
        <ele>1342.765009</ele>
        <time>2021-09-15T21:45:15.000Z</time>
      </trkpt>
      <trkpt lat="40.818772" lon="-4.028676">
        <ele>1342.182848</ele>
        <time>2021-09-15T21:45:15.000Z</time>
      </trkpt>
      <trkpt lat="40.818786" lon="-4.028666">
        <ele>1342.068296</ele>
        <time>2021-09-15T21:45:15.000Z</time>
      </trkpt>
      <trkpt lat="40.818863" lon="-4.028628">
        <ele>1341.476660</ele>
        <time>2021-09-15T21:45:15.000Z</time>
      </trkpt>
      <trkpt lat="40.818904" lon="-4.028594">
        <ele>1341.128242</ele>
        <time>2021-09-15T21:45:15.000Z</time>
      </trkpt>
      <trkpt lat="40.818986" lon="-4.028503">
        <ele>1340.357467</ele>
        <time>2021-09-15T21:45:15.000Z</time>
      </trkpt>
      <trkpt lat="40.819" lon="-4.028488"/>
      <trkpt lat="40.819009" lon="-4.028467">
        <ele>1340.096269</ele>
        <time>2021-09-15T21:45:15.000Z</time>
      </trkpt>
      <trkpt lat="40.819009" lon="-4.028297">
        <ele>1339.170235</ele>
        <time>2021-09-15T21:45:15.000Z</time>
      </trkpt>
      <trkpt lat="40.819006" lon="-4.02821"/>
      <trkpt lat="40.819007" lon="-4.028187">
        <ele>1338.570339</ele>
        <time>2021-09-15T21:45:15.000Z</time>
      </trkpt>
      <trkpt lat="40.819003" lon="-4.028153">
        <ele>1338.382907</ele>
        <time>2021-09-15T21:45:15.000Z</time>
      </trkpt>
      <trkpt lat="40.818998" lon="-4.028046">
        <ele>1337.798940</ele>
        <time>2021-09-15T21:45:15.000Z</time>
      </trkpt>
      <trkpt lat="40.818998" lon="-4.027997">
        <ele>1337.532025</ele>
        <time>2021-09-15T21:45:15.000Z</time>
      </trkpt>
      <trkpt lat="40.819014" lon="-4.027862">
        <ele>1336.861319</ele>
        <time>2021-09-15T21:45:15.000Z</time>
      </trkpt>
      <trkpt lat="40.819051" lon="-4.027739">
        <ele>1336.569643</ele>
        <time>2021-09-15T21:45:15.000Z</time>
      </trkpt>
      <trkpt lat="40.819088" lon="-4.027673">
        <ele>1336.388643</ele>
        <time>2021-09-15T21:45:15.000Z</time>
      </trkpt>
      <trkpt lat="40.819172" lon="-4.027597">
        <ele>1336.092203</ele>
        <time>2021-09-15T21:45:15.000Z</time>
      </trkpt>
      <trkpt lat="40.819289" lon="-4.027548">
        <ele>1335.734811</ele>
        <time>2021-09-15T21:45:15.000Z</time>
      </trkpt>
      <trkpt lat="40.819385" lon="-4.027507">
        <ele>1335.441033</ele>
        <time>2021-09-15T21:45:15.000Z</time>
      </trkpt>
      <trkpt lat="40.819413" lon="-4.027488">
        <ele>1335.349378</ele>
        <time>2021-09-15T21:45:15.000Z</time>
      </trkpt>
      <trkpt lat="40.819448" lon="-4.027465">
        <ele>1335.235555</ele>
        <time>2021-09-15T21:45:15.000Z</time>
      </trkpt>
      <trkpt lat="40.819501" lon="-4.027426">
        <ele>1335.058909</ele>
        <time>2021-09-15T21:45:15.000Z</time>
      </trkpt>
      <trkpt lat="40.819536" lon="-4.027403">
        <ele>1334.945086</ele>
        <time>2021-09-15T21:45:15.000Z</time>
      </trkpt>
      <trkpt lat="40.81958" lon="-4.027378"/>
      <trkpt lat="40.819619" lon="-4.027356">
        <ele>1334.682143</ele>
        <time>2021-09-15T21:45:15.000Z</time>
      </trkpt>
      <trkpt lat="40.81967" lon="-4.027315"/>
      <trkpt lat="40.819729" lon="-4.027267">
        <ele>1334.306561</ele>
        <time>2021-09-15T21:45:15.000Z</time>
      </trkpt>
      <trkpt lat="40.819861" lon="-4.02715"/>
      <trkpt lat="40.819936" lon="-4.026914">
        <ele>1333.279682</ele>
        <time>2021-09-15T21:45:15.000Z</time>
      </trkpt>
      <trkpt lat="40.819972" lon="-4.026587">
        <ele>1332.551515</ele>
        <time>2021-09-15T21:45:15.000Z</time>
      </trkpt>
      <trkpt lat="40.819996" lon="-4.026363">
        <ele>1332.052982</ele>
        <time>2021-09-15T21:45:15.000Z</time>
      </trkpt>
      <trkpt lat="40.81996" lon="-4.026079"/>
      <trkpt lat="40.819965" lon="-4.025832">
        <ele>1331.157648</ele>
        <time>2021-09-15T21:45:15.000Z</time>
      </trkpt>
      <trkpt lat="40.82009" lon="-4.02561"/>
      <trkpt lat="40.820239" lon="-4.025425">
        <ele>1330.379924</ele>
        <time>2021-09-15T21:45:15.000Z</time>
      </trkpt>
      <trkpt lat="40.82039" lon="-4.02525"/>
      <trkpt lat="40.820414" lon="-4.025225">
        <ele>1329.945061</ele>
        <time>2021-09-15T21:45:15.000Z</time>
      </trkpt>
      <trkpt lat="40.820562" lon="-4.0251"/>
      <trkpt lat="40.82061" lon="-4.025047"/>
      <trkpt lat="40.82067" lon="-4.024984"/>
      <trkpt lat="40.820742" lon="-4.024912">
        <ele>1329.183741</ele>
        <time>2021-09-15T21:45:15.000Z</time>
      </trkpt>
      <trkpt lat="40.820784" lon="-4.02485"/>
      <trkpt lat="40.820934" lon="-4.024667">
        <ele>1328.681758</ele>
        <time>2021-09-15T21:45:15.000Z</time>
      </trkpt>
      <trkpt lat="40.82096" lon="-4.024639"/>
      <trkpt lat="40.821109" lon="-4.024536">
        <ele>1328.302727</ele>
        <time>2021-09-15T21:45:15.000Z</time>
      </trkpt>
      <trkpt lat="40.821148" lon="-4.024514">
        <ele>1328.360463</ele>
        <time>2021-09-15T21:45:15.000Z</time>
      </trkpt>
      <trkpt lat="40.821237" lon="-4.02446"/>
      <trkpt lat="40.82129" lon="-4.02443"/>
      <trkpt lat="40.821508" lon="-4.024347">
        <ele>1329.035868</ele>
        <time>2021-09-15T21:45:15.000Z</time>
      </trkpt>
      <trkpt lat="40.8216" lon="-4.024329"/>
      <trkpt lat="40.821779" lon="-4.024273">
        <ele>1329.524950</ele>
        <time>2021-09-15T21:45:15.000Z</time>
      </trkpt>
      <trkpt lat="40.821924" lon="-4.024133">
        <ele>1329.842082</ele>
        <time>2021-09-15T21:45:15.000Z</time>
      </trkpt>
      <trkpt lat="40.822007" lon="-4.023912">
        <ele>1330.171792</ele>
        <time>2021-09-15T21:45:15.000Z</time>
      </trkpt>
      <trkpt lat="40.822114" lon="-4.0237"/>
      <trkpt lat="40.82221" lon="-4.023498"/>
      <trkpt lat="40.822266" lon="-4.023267">
        <ele>1331.155259</ele>
        <time>2021-09-15T21:45:15.000Z</time>
      </trkpt>
      <trkpt lat="40.822309" lon="-4.023016">
        <ele>1331.550365</ele>
        <time>2021-09-15T21:45:15.000Z</time>
      </trkpt>
      <trkpt lat="40.822345" lon="-4.022776">
        <ele>1332.455128</ele>
        <time>2021-09-15T21:45:15.000Z</time>
      </trkpt>
      <trkpt lat="40.822413" lon="-4.022529">
        <ele>1333.427075</ele>
        <time>2021-09-15T21:45:15.000Z</time>
      </trkpt>
      <trkpt lat="40.822464" lon="-4.02241"/>
      <trkpt lat="40.822525" lon="-4.022289">
        <ele>1334.470438</ele>
        <time>2021-09-15T21:45:15.000Z</time>
      </trkpt>
      <trkpt lat="40.822659" lon="-4.022067">
        <ele>1335.520532</ele>
        <time>2021-09-15T21:45:15.000Z</time>
      </trkpt>
      <trkpt lat="40.82273" lon="-4.021962"/>
      <trkpt lat="40.8228" lon="-4.021854"/>
      <trkpt lat="40.82294" lon="-4.021528"/>
      <trkpt lat="40.822948" lon="-4.021404">
        <ele>1338.413371</ele>
        <time>2021-09-15T21:45:15.000Z</time>
      </trkpt>
      <trkpt lat="40.822935" lon="-4.021167">
        <ele>1339.292065</ele>
        <time>2021-09-15T21:45:15.000Z</time>
      </trkpt>
      <trkpt lat="40.822907" lon="-4.020924">
        <ele>1340.201003</ele>
        <time>2021-09-15T21:45:15.000Z</time>
      </trkpt>
      <trkpt lat="40.822893" lon="-4.020813">
        <ele>1340.580812</ele>
        <time>2021-09-15T21:45:15.000Z</time>
      </trkpt>
      <trkpt lat="40.822821" lon="-4.020461">
        <ele>1341.792254</ele>
        <time>2021-09-15T21:45:15.000Z</time>
      </trkpt>
      <trkpt lat="40.822789" lon="-4.020345">
        <ele>1342.202458</ele>
        <time>2021-09-15T21:45:15.000Z</time>
      </trkpt>
      <trkpt lat="40.822715" lon="-4.020116">
        <ele>1343.029746</ele>
        <time>2021-09-15T21:45:15.000Z</time>
      </trkpt>
      <trkpt lat="40.822627" lon="-4.019897">
        <ele>1343.853562</ele>
        <time>2021-09-15T21:45:15.000Z</time>
      </trkpt>
      <trkpt lat="40.822576" lon="-4.019795">
        <ele>1344.259737</ele>
        <time>2021-09-15T21:45:15.000Z</time>
      </trkpt>
      <trkpt lat="40.822521" lon="-4.019694">
        <ele>1344.673149</ele>
        <time>2021-09-15T21:45:15.000Z</time>
      </trkpt>
      <trkpt lat="40.822497" lon="-4.019494"/>
      <trkpt lat="40.82237" lon="-4.019396"/>
      <trkpt lat="40.822319" lon="-4.019296">
        <ele>1346.265328</ele>
        <time>2021-09-15T21:45:15.000Z</time>
      </trkpt>
      <trkpt lat="40.822219" lon="-4.019088">
        <ele>1347.084057</ele>
        <time>2021-09-15T21:45:15.000Z</time>
      </trkpt>
      <trkpt lat="40.822162" lon="-4.018985">
        <ele>1347.508006</ele>
        <time>2021-09-15T21:45:15.000Z</time>
      </trkpt>
      <trkpt lat="40.822108" lon="-4.018883">
        <ele>1347.921589</ele>
        <time>2021-09-15T21:45:15.000Z</time>
      </trkpt>
      <trkpt lat="40.82195" lon="-4.018606"/>
      <trkpt lat="40.821849" lon="-4.018434">
        <ele>1349.351524</ele>
        <time>2021-09-15T21:45:15.000Z</time>
      </trkpt>
      <trkpt lat="40.821793" lon="-4.018352">
        <ele>1349.618803</ele>
        <time>2021-09-15T21:45:15.000Z</time>
      </trkpt>
      <trkpt lat="40.82174" lon="-4.018264"/>
      <trkpt lat="40.821699" lon="-4.018192">
        <ele>1350.109000</ele>
        <time>2021-09-15T21:45:15.000Z</time>
      </trkpt>
      <trkpt lat="40.82146" lon="-4.017705"/>
      <trkpt lat="40.821385" lon="-4.017542">
        <ele>1351.975190</ele>
        <time>2021-09-15T21:45:15.000Z</time>
      </trkpt>
      <trkpt lat="40.821311" lon="-4.017403">
        <ele>1352.386442</ele>
        <time>2021-09-15T21:45:15.000Z</time>
      </trkpt>
      <trkpt lat="40.821272" lon="-4.017344">
        <ele>1352.576008</ele>
        <time>2021-09-15T21:45:15.000Z</time>
      </trkpt>
      <trkpt lat="40.821153" lon="-4.017222">
        <ele>1353.057622</ele>
        <time>2021-09-15T21:45:15.000Z</time>
      </trkpt>
      <trkpt lat="40.821111" lon="-4.017193">
        <ele>1353.209152</ele>
        <time>2021-09-15T21:45:15.000Z</time>
      </trkpt>
      <trkpt lat="40.82097" lon="-4.01714"/>
      <trkpt lat="40.820947" lon="-4.017134">
        <ele>1353.752874</ele>
        <time>2021-09-15T21:45:15.000Z</time>
      </trkpt>
      <trkpt lat="40.820881" lon="-4.01707"/>
      <trkpt lat="40.820881" lon="-4.017068">
        <ele>1354.097720</ele>
        <time>2021-09-15T21:45:15.000Z</time>
      </trkpt>
      <trkpt lat="40.820878" lon="-4.017058">
        <ele>1354.141967</ele>
        <time>2021-09-15T21:45:15.000Z</time>
      </trkpt>
      <trkpt lat="40.820877" lon="-4.017046">
        <ele>1354.191625</ele>
        <time>2021-09-15T21:45:15.000Z</time>
      </trkpt>
      <trkpt lat="40.820873" lon="-4.017025">
        <ele>1354.280699</ele>
        <time>2021-09-15T21:45:15.000Z</time>
      </trkpt>
      <trkpt lat="40.820855" lon="-4.016982">
        <ele>1354.482828</ele>
        <time>2021-09-15T21:45:15.000Z</time>
      </trkpt>
      <trkpt lat="40.82084" lon="-4.016933"/>
      <trkpt lat="40.820801" lon="-4.016847">
        <ele>1355.112645</ele>
        <time>2021-09-15T21:45:15.000Z</time>
      </trkpt>
      <trkpt lat="40.820754" lon="-4.016754">
        <ele>1355.572643</ele>
        <time>2021-09-15T21:45:15.000Z</time>
      </trkpt>
      <trkpt lat="40.820698" lon="-4.01667"/>
      <trkpt lat="40.820623" lon="-4.016595">
        <ele>1356.544346</ele>
        <time>2021-09-15T21:45:15.000Z</time>
      </trkpt>
      <trkpt lat="40.820532" lon="-4.016512">
        <ele>1357.145356</ele>
        <time>2021-09-15T21:45:15.000Z</time>
      </trkpt>
      <trkpt lat="40.820421" lon="-4.016413">
        <ele>1357.873258</ele>
        <time>2021-09-15T21:45:15.000Z</time>
      </trkpt>
      <trkpt lat="40.820295" lon="-4.01631"/>
      <trkpt lat="40.820165" lon="-4.016211">
        <ele>1359.494131</ele>
        <time>2021-09-15T21:45:15.000Z</time>
      </trkpt>
      <trkpt lat="40.820035" lon="-4.016114">
        <ele>1360.305607</ele>
        <time>2021-09-15T21:45:15.000Z</time>
      </trkpt>
      <trkpt lat="40.819903" lon="-4.016033">
        <ele>1361.096674</ele>
        <time>2021-09-15T21:45:15.000Z</time>
      </trkpt>
      <trkpt lat="40.819658" lon="-4.015934">
        <ele>1362.489231</ele>
        <time>2021-09-15T21:45:15.000Z</time>
      </trkpt>
      <trkpt lat="40.819397" lon="-4.015918">
        <ele>1364.068057</ele>
        <time>2021-09-15T21:45:15.000Z</time>
      </trkpt>
      <trkpt lat="40.819138" lon="-4.01594"/>
      <trkpt lat="40.818868" lon="-4.01595"/>
      <trkpt lat="40.818733" lon="-4.015932">
        <ele>1370.231110</ele>
        <time>2021-09-15T21:45:15.000Z</time>
      </trkpt>
      <trkpt lat="40.818483" lon="-4.015844">
        <ele>1372.627671</ele>
        <time>2021-09-15T21:45:15.000Z</time>
      </trkpt>
      <trkpt lat="40.818366" lon="-4.015776">
        <ele>1373.811669</ele>
        <time>2021-09-15T21:45:15.000Z</time>
      </trkpt>
      <trkpt lat="40.818259" lon="-4.015691">
        <ele>1374.968159</ele>
        <time>2021-09-15T21:45:15.000Z</time>
      </trkpt>
      <trkpt lat="40.818069" lon="-4.015466">
        <ele>1377.331536</ele>
        <time>2021-09-15T21:45:15.000Z</time>
      </trkpt>
      <trkpt lat="40.81798" lon="-4.015344"/>
      <trkpt lat="40.8179" lon="-4.015224"/>
      <trkpt lat="40.817729" lon="-4.01501"/>
      <trkpt lat="40.817632" lon="-4.014925">
        <ele>1383.614607</ele>
        <time>2021-09-15T21:45:15.000Z</time>
      </trkpt>
      <trkpt lat="40.817534" lon="-4.014858">
        <ele>1384.922431</ele>
        <time>2021-09-15T21:45:15.000Z</time>
      </trkpt>
      <trkpt lat="40.817334" lon="-4.014754">
        <ele>1387.469910</ele>
        <time>2021-09-15T21:45:15.000Z</time>
      </trkpt>
      <trkpt lat="40.81715" lon="-4.014663"/>
      <trkpt lat="40.816984" lon="-4.014584">
        <ele>1391.889804</ele>
        <time>2021-09-15T21:45:15.000Z</time>
      </trkpt>
      <trkpt lat="40.816909" lon="-4.014553">
        <ele>1392.821228</ele>
        <time>2021-09-15T21:45:15.000Z</time>
      </trkpt>
      <trkpt lat="40.816715" lon="-4.0145"/>
      <trkpt lat="40.816546" lon="-4.014541">
        <ele>1397.205844</ele>
        <time>2021-09-15T21:45:15.000Z</time>
      </trkpt>
      <trkpt lat="40.81643" lon="-4.014499"/>
      <trkpt lat="40.816394" lon="-4.014463">
        <ele>1399.166547</ele>
        <time>2021-09-15T21:45:15.000Z</time>
      </trkpt>
      <trkpt lat="40.816362" lon="-4.014387">
        <ele>1399.946684</ele>
        <time>2021-09-15T21:45:15.000Z</time>
      </trkpt>
      <trkpt lat="40.816371" lon="-4.014367">
        <ele>1400.155406</ele>
        <time>2021-09-15T21:45:15.000Z</time>
      </trkpt>
      <trkpt lat="40.816375" lon="-4.014245">
        <ele>1401.250792</ele>
        <time>2021-09-15T21:45:15.000Z</time>
      </trkpt>
      <trkpt lat="40.816375" lon="-4.014195">
        <ele>1401.685400</ele>
        <time>2021-09-15T21:45:15.000Z</time>
      </trkpt>
      <trkpt lat="40.816372" lon="-4.01414"/>
      <trkpt lat="40.816365" lon="-4.01394"/>
      <trkpt lat="40.816369" lon="-4.013859">
        <ele>1403.516642</ele>
        <time>2021-09-15T21:45:15.000Z</time>
      </trkpt>
      <trkpt lat="40.81644" lon="-4.013705"/>
      <trkpt lat="40.816503" lon="-4.013652">
        <ele>1405.034892</ele>
        <time>2021-09-15T21:45:15.000Z</time>
      </trkpt>
      <trkpt lat="40.816588" lon="-4.01361"/>
      <trkpt lat="40.816776" lon="-4.013525">
        <ele>1407.116080</ele>
        <time>2021-09-15T21:45:15.000Z</time>
      </trkpt>
      <trkpt lat="40.817003" lon="-4.013317">
        <ele>1409.102286</ele>
        <time>2021-09-15T21:45:15.000Z</time>
      </trkpt>
      <trkpt lat="40.817098" lon="-4.01312"/>
      <trkpt lat="40.817114" lon="-4.01301"/>
      <trkpt lat="40.817125" lon="-4.012897">
        <ele>1411.602869</ele>
        <time>2021-09-15T21:45:15.000Z</time>
      </trkpt>
      <trkpt lat="40.817137" lon="-4.012566">
        <ele>1413.406072</ele>
        <time>2021-09-15T21:45:15.000Z</time>
      </trkpt>
      <trkpt lat="40.817138" lon="-4.012461">
        <ele>1413.977475</ele>
        <time>2021-09-15T21:45:15.000Z</time>
      </trkpt>
      <trkpt lat="40.817143" lon="-4.012352">
        <ele>1414.571687</ele>
        <time>2021-09-15T21:45:15.000Z</time>
      </trkpt>
      <trkpt lat="40.817122" lon="-4.012037">
        <ele>1415.512636</ele>
        <time>2021-09-15T21:45:15.000Z</time>
      </trkpt>
      <trkpt lat="40.817117" lon="-4.011935">
        <ele>1415.813100</ele>
        <time>2021-09-15T21:45:15.000Z</time>
      </trkpt>
      <trkpt lat="40.817105" lon="-4.011736">
        <ele>1416.399929</ele>
        <time>2021-09-15T21:45:15.000Z</time>
      </trkpt>
      <trkpt lat="40.817111" lon="-4.011423">
        <ele>1417.320310</ele>
        <time>2021-09-15T21:45:15.000Z</time>
      </trkpt>
      <trkpt lat="40.81712" lon="-4.011313"/>
      <trkpt lat="40.81717" lon="-4.01077"/>
      <trkpt lat="40.817182" lon="-4.010672">
        <ele>1419.545330</ele>
        <time>2021-09-15T21:45:15.000Z</time>
      </trkpt>
      <trkpt lat="40.817201" lon="-4.010575">
        <ele>1419.839863</ele>
        <time>2021-09-15T21:45:15.000Z</time>
      </trkpt>
      <trkpt lat="40.817236" lon="-4.010379">
        <ele>1420.431840</ele>
        <time>2021-09-15T21:45:15.000Z</time>
      </trkpt>
      <trkpt lat="40.817246" lon="-4.010279">
        <ele>1420.728352</ele>
        <time>2021-09-15T21:45:15.000Z</time>
      </trkpt>
      <trkpt lat="40.817282" lon="-4.009959">
        <ele>1421.667487</ele>
        <time>2021-09-15T21:45:15.000Z</time>
      </trkpt>
      <trkpt lat="40.817313" lon="-4.009737">
        <ele>1422.249565</ele>
        <time>2021-09-15T21:45:15.000Z</time>
      </trkpt>
      <trkpt lat="40.817376" lon="-4.009278">
        <ele>1423.452380</ele>
        <time>2021-09-15T21:45:15.000Z</time>
      </trkpt>
      <trkpt lat="40.817396" lon="-4.00904"/>
      <trkpt lat="40.817394" lon="-4.008695">
        <ele>1424.959411</ele>
        <time>2021-09-15T21:45:15.000Z</time>
      </trkpt>
      <trkpt lat="40.817372" lon="-4.008357">
        <ele>1425.834144</ele>
        <time>2021-09-15T21:45:15.000Z</time>
      </trkpt>
      <trkpt lat="40.817302" lon="-4.007908">
        <ele>1427.016177</ele>
        <time>2021-09-15T21:45:15.000Z</time>
      </trkpt>
      <trkpt lat="40.817286" lon="-4.007806">
        <ele>1427.284769</ele>
        <time>2021-09-15T21:45:15.000Z</time>
      </trkpt>
      <trkpt lat="40.817262" lon="-4.007692">
        <ele>1427.589873</ele>
        <time>2021-09-15T21:45:15.000Z</time>
      </trkpt>
      <trkpt lat="40.817169" lon="-4.007362">
        <ele>1428.477904</ele>
        <time>2021-09-15T21:45:15.000Z</time>
      </trkpt>
      <trkpt lat="40.817098" lon="-4.007139">
        <ele>1429.085906</ele>
        <time>2021-09-15T21:45:15.000Z</time>
      </trkpt>
      <trkpt lat="40.817018" lon="-4.006926">
        <ele>1429.683497</ele>
        <time>2021-09-15T21:45:15.000Z</time>
      </trkpt>
      <trkpt lat="40.816921" lon="-4.006618">
        <ele>1430.521888</ele>
        <time>2021-09-15T21:45:15.000Z</time>
      </trkpt>
      <trkpt lat="40.816854" lon="-4.006442">
        <ele>1431.017005</ele>
        <time>2021-09-15T21:45:15.000Z</time>
      </trkpt>
      <trkpt lat="40.816762" lon="-4.006197">
        <ele>1431.704350</ele>
        <time>2021-09-15T21:45:15.000Z</time>
      </trkpt>
      <trkpt lat="40.816704" lon="-4.006038">
        <ele>1432.147935</ele>
        <time>2021-09-15T21:45:15.000Z</time>
      </trkpt>
      <trkpt lat="40.816635" lon="-4.005823">
        <ele>1432.734835</ele>
        <time>2021-09-15T21:45:15.000Z</time>
      </trkpt>
      <trkpt lat="40.816472" lon="-4.005405">
        <ele>1433.799421</ele>
        <time>2021-09-15T21:45:15.000Z</time>
      </trkpt>
      <trkpt lat="40.816453" lon="-4.00535"/>
      <trkpt lat="40.816322" lon="-4.005029">
        <ele>1434.330444</ele>
        <time>2021-09-15T21:45:15.000Z</time>
      </trkpt>
      <trkpt lat="40.816264" lon="-4.004887">
        <ele>1434.531987</ele>
        <time>2021-09-15T21:45:15.000Z</time>
      </trkpt>
      <trkpt lat="40.816205" lon="-4.004751">
        <ele>1434.727782</ele>
        <time>2021-09-15T21:45:15.000Z</time>
      </trkpt>
      <trkpt lat="40.816168" lon="-4.004692">
        <ele>1434.823486</ele>
        <time>2021-09-15T21:45:15.000Z</time>
      </trkpt>
      <trkpt lat="40.816138" lon="-4.004638">
        <ele>1434.907155</ele>
        <time>2021-09-15T21:45:15.000Z</time>
      </trkpt>
      <trkpt lat="40.81611" lon="-4.004591"/>
      <trkpt lat="40.816044" lon="-4.004469">
        <ele>1435.169172</ele>
        <time>2021-09-15T21:45:15.000Z</time>
      </trkpt>
      <trkpt lat="40.815845" lon="-4.004164">
        <ele>1435.672150</ele>
        <time>2021-09-15T21:45:15.000Z</time>
      </trkpt>
      <trkpt lat="40.815629" lon="-4.003821">
        <ele>1436.229481</ele>
        <time>2021-09-15T21:45:15.000Z</time>
      </trkpt>
      <trkpt lat="40.815501" lon="-4.003585">
        <ele>1436.592131</ele>
        <time>2021-09-15T21:45:15.000Z</time>
      </trkpt>
      <trkpt lat="40.815482" lon="-4.003535">
        <ele>1436.674466</ele>
        <time>2021-09-15T21:45:15.000Z</time>
      </trkpt>
      <trkpt lat="40.815423" lon="-4.003362">
        <ele>1437.208893</ele>
        <time>2021-09-15T21:45:15.000Z</time>
      </trkpt>
      <trkpt lat="40.815383" lon="-4.003213">
        <ele>1437.654159</ele>
        <time>2021-09-15T21:45:15.000Z</time>
      </trkpt>
      <trkpt lat="40.815341" lon="-4.002993">
        <ele>1438.293182</ele>
        <time>2021-09-15T21:45:15.000Z</time>
      </trkpt>
      <trkpt lat="40.815361" lon="-4.002711">
        <ele>1439.090894</ele>
        <time>2021-09-15T21:45:15.000Z</time>
      </trkpt>
      <trkpt lat="40.815412" lon="-4.002594">
        <ele>1439.471164</ele>
        <time>2021-09-15T21:45:15.000Z</time>
      </trkpt>
      <trkpt lat="40.815489" lon="-4.002496">
        <ele>1439.869021</ele>
        <time>2021-09-15T21:45:15.000Z</time>
      </trkpt>
      <trkpt lat="40.815534" lon="-4.002451">
        <ele>1440.079037</ele>
        <time>2021-09-15T21:45:15.000Z</time>
      </trkpt>
      <trkpt lat="40.815573" lon="-4.002404">
        <ele>1440.275471</ele>
        <time>2021-09-15T21:45:15.000Z</time>
      </trkpt>
      <trkpt lat="40.815624" lon="-4.00228"/>
      <trkpt lat="40.81562" lon="-4.002211"/>
      <trkpt lat="40.815601" lon="-4.002128">
        <ele>1441.112069</ele>
        <time>2021-09-15T21:45:15.000Z</time>
      </trkpt>
      <trkpt lat="40.815417" lon="-4.001757">
        <ele>1442.361334</ele>
        <time>2021-09-15T21:45:15.000Z</time>
      </trkpt>
      <trkpt lat="40.815382" lon="-4.001659">
        <ele>1442.666533</ele>
        <time>2021-09-15T21:45:15.000Z</time>
      </trkpt>
      <trkpt lat="40.815341" lon="-4.001254">
        <ele>1444.158813</ele>
        <time>2021-09-15T21:45:15.000Z</time>
      </trkpt>
      <trkpt lat="40.815335" lon="-4.000857">
        <ele>1446.086581</ele>
        <time>2021-09-15T21:45:15.000Z</time>
      </trkpt>
      <trkpt lat="40.815354" lon="-4.00057"/>
      <trkpt lat="40.8154" lon="-4.000263"/>
      <trkpt lat="40.815436" lon="-4.000139">
        <ele>1449.649400</ele>
        <time>2021-09-15T21:45:15.000Z</time>
      </trkpt>
      <trkpt lat="40.815485" lon="-4.000011">
        <ele>1450.345795</ele>
        <time>2021-09-15T21:45:15.000Z</time>
      </trkpt>
      <trkpt lat="40.815498" lon="-3.999962">
        <ele>1450.597877</ele>
        <time>2021-09-15T21:45:15.000Z</time>
      </trkpt>
      <trkpt lat="40.81551" lon="-3.999922"/>
      <trkpt lat="40.815526" lon="-3.999888">
        <ele>1451.001144</ele>
        <time>2021-09-15T21:45:15.000Z</time>
      </trkpt>
      <trkpt lat="40.81554" lon="-3.999868"/>
      <trkpt lat="40.815556" lon="-3.999842">
        <ele>1451.296095</ele>
        <time>2021-09-15T21:45:15.000Z</time>
      </trkpt>
      <trkpt lat="40.815579" lon="-3.99981"/>
      <trkpt lat="40.815607" lon="-3.999784">
        <ele>1451.729879</ele>
        <time>2021-09-15T21:45:15.000Z</time>
      </trkpt>
      <trkpt lat="40.815647" lon="-3.999741">
        <ele>1452.060666</ele>
        <time>2021-09-15T21:45:15.000Z</time>
      </trkpt>
      <trkpt lat="40.815692" lon="-3.999685">
        <ele>1452.457204</ele>
        <time>2021-09-15T21:45:15.000Z</time>
      </trkpt>
      <trkpt lat="40.815737" lon="-3.999618">
        <ele>1452.892097</ele>
        <time>2021-09-15T21:45:15.000Z</time>
      </trkpt>
      <trkpt lat="40.815794" lon="-3.99953"/>
      <trkpt lat="40.815887" lon="-3.999232">
        <ele>1455.075218</ele>
        <time>2021-09-15T21:45:15.000Z</time>
      </trkpt>
      <trkpt lat="40.81596" lon="-3.998867"/>
      <trkpt lat="40.816002" lon="-3.998503">
        <ele>1460.185056</ele>
        <time>2021-09-15T21:45:15.000Z</time>
      </trkpt>
      <trkpt lat="40.816014" lon="-3.998327">
        <ele>1461.395904</ele>
        <time>2021-09-15T21:45:15.000Z</time>
      </trkpt>
      <trkpt lat="40.816024" lon="-3.99816"/>
      <trkpt lat="40.816034" lon="-3.99799"/>
      <trkpt lat="40.816061" lon="-3.997653">
        <ele>1466.034187</ele>
        <time>2021-09-15T21:45:15.000Z</time>
      </trkpt>
      <trkpt lat="40.816087" lon="-3.997324">
        <ele>1468.300772</ele>
        <time>2021-09-15T21:45:15.000Z</time>
      </trkpt>
      <trkpt lat="40.816108" lon="-3.997164">
        <ele>1469.413465</ele>
        <time>2021-09-15T21:45:15.000Z</time>
      </trkpt>
      <trkpt lat="40.816135" lon="-3.99701"/>
      <trkpt lat="40.816163" lon="-3.996864">
        <ele>1471.543191</ele>
        <time>2021-09-15T21:45:15.000Z</time>
      </trkpt>
      <trkpt lat="40.816186" lon="-3.996728">
        <ele>1472.536580</ele>
        <time>2021-09-15T21:45:15.000Z</time>
      </trkpt>
      <trkpt lat="40.816207" lon="-3.996446">
        <ele>1474.556531</ele>
        <time>2021-09-15T21:45:15.000Z</time>
      </trkpt>
      <trkpt lat="40.816235" lon="-3.996134">
        <ele>1476.796210</ele>
        <time>2021-09-15T21:45:15.000Z</time>
      </trkpt>
      <trkpt lat="40.816294" lon="-3.995822">
        <ele>1479.088684</ele>
        <time>2021-09-15T21:45:15.000Z</time>
      </trkpt>
      <trkpt lat="40.81634" lon="-3.995669"/>
      <trkpt lat="40.816392" lon="-3.995523">
        <ele>1481.412511</ele>
        <time>2021-09-15T21:45:15.000Z</time>
      </trkpt>
      <trkpt lat="40.816447" lon="-3.995381">
        <ele>1482.549622</ele>
        <time>2021-09-15T21:45:15.000Z</time>
      </trkpt>
      <trkpt lat="40.8165" lon="-3.995239"/>
      <trkpt lat="40.816548" lon="-3.995098">
        <ele>1484.780396</ele>
        <time>2021-09-15T21:45:15.000Z</time>
      </trkpt>
      <trkpt lat="40.816599" lon="-3.994954">
        <ele>1485.913739</ele>
        <time>2021-09-15T21:45:15.000Z</time>
      </trkpt>
      <trkpt lat="40.816655" lon="-3.99481"/>
      <trkpt lat="40.816708" lon="-3.994667">
        <ele>1488.222022</ele>
        <time>2021-09-15T21:45:15.000Z</time>
      </trkpt>
      <trkpt lat="40.816823" lon="-3.994396">
        <ele>1490.892733</ele>
        <time>2021-09-15T21:45:15.000Z</time>
      </trkpt>
      <trkpt lat="40.816889" lon="-3.994275">
        <ele>1492.174833</ele>
        <time>2021-09-15T21:45:15.000Z</time>
      </trkpt>
      <trkpt lat="40.816962" lon="-3.994164">
        <ele>1493.438907</ele>
        <time>2021-09-15T21:45:15.000Z</time>
      </trkpt>
      <trkpt lat="40.817138" lon="-3.99395"/>
      <trkpt lat="40.817242" lon="-3.99385"/>
      <trkpt lat="40.817348" lon="-3.993756">
        <ele>1499.066405</ele>
        <time>2021-09-15T21:45:15.000Z</time>
      </trkpt>
      <trkpt lat="40.817559" lon="-3.99358"/>
      <trkpt lat="40.817656" lon="-3.993497">
        <ele>1503.213125</ele>
        <time>2021-09-15T21:45:15.000Z</time>
      </trkpt>
      <trkpt lat="40.817936" lon="-3.993322">
        <ele>1506.731235</ele>
        <time>2021-09-15T21:45:15.000Z</time>
      </trkpt>
      <trkpt lat="40.81817" lon="-3.993264"/>
      <trkpt lat="40.818239" lon="-3.993286">
        <ele>1509.853073</ele>
        <time>2021-09-15T21:45:15.000Z</time>
      </trkpt>
      <trkpt lat="40.818304" lon="-3.993328">
        <ele>1510.487329</ele>
        <time>2021-09-15T21:45:15.000Z</time>
      </trkpt>
      <trkpt lat="40.818364" lon="-3.993378">
        <ele>1511.109137</ele>
        <time>2021-09-15T21:45:15.000Z</time>
      </trkpt>
      <trkpt lat="40.81842" lon="-3.993426"/>
      <trkpt lat="40.818536" lon="-3.993497">
        <ele>1512.814886</ele>
        <time>2021-09-15T21:45:15.000Z</time>
      </trkpt>
      <trkpt lat="40.818663" lon="-3.993537">
        <ele>1513.959337</ele>
        <time>2021-09-15T21:45:15.000Z</time>
      </trkpt>
      <trkpt lat="40.818725" lon="-3.993543">
        <ele>1514.504275</ele>
        <time>2021-09-15T21:45:15.000Z</time>
      </trkpt>
      <trkpt lat="40.818783" lon="-3.993547">
        <ele>1515.013387</ele>
        <time>2021-09-15T21:45:15.000Z</time>
      </trkpt>
      <trkpt lat="40.818835" lon="-3.99355"/>
      <trkpt lat="40.818883" lon="-3.993552">
        <ele>1515.890616</ele>
        <time>2021-09-15T21:45:15.000Z</time>
      </trkpt>
      <trkpt lat="40.818927" lon="-3.993549">
        <ele>1516.276826</ele>
        <time>2021-09-15T21:45:15.000Z</time>
      </trkpt>
      <trkpt lat="40.818971" lon="-3.993548">
        <ele>1516.662581</ele>
        <time>2021-09-15T21:45:15.000Z</time>
      </trkpt>
      <trkpt lat="40.819059" lon="-3.993547">
        <ele>1517.434005</ele>
        <time>2021-09-15T21:45:15.000Z</time>
      </trkpt>
      <trkpt lat="40.819115" lon="-3.993541">
        <ele>1517.926504</ele>
        <time>2021-09-15T21:45:15.000Z</time>
      </trkpt>
      <trkpt lat="40.819267" lon="-3.993527">
        <ele>1519.262146</ele>
        <time>2021-09-15T21:45:15.000Z</time>
      </trkpt>
      <trkpt lat="40.819371" lon="-3.993522">
        <ele>1520.174398</ele>
        <time>2021-09-15T21:45:15.000Z</time>
      </trkpt>
      <trkpt lat="40.819599" lon="-3.993507">
        <ele>1522.175489</ele>
        <time>2021-09-15T21:45:15.000Z</time>
      </trkpt>
      <trkpt lat="40.819818" lon="-3.9935"/>
      <trkpt lat="40.819919" lon="-3.993492">
        <ele>1525.115178</ele>
        <time>2021-09-15T21:45:15.000Z</time>
      </trkpt>
      <trkpt lat="40.820304" lon="-3.993448">
        <ele>1529.165602</ele>
        <time>2021-09-15T21:45:15.000Z</time>
      </trkpt>
      <trkpt lat="40.820461" lon="-3.993447">
        <ele>1530.811209</ele>
        <time>2021-09-15T21:45:15.000Z</time>
      </trkpt>
      <trkpt lat="40.820598" lon="-3.993474">
        <ele>1532.263050</ele>
        <time>2021-09-15T21:45:15.000Z</time>
      </trkpt>
      <trkpt lat="40.82082" lon="-3.993581"/>
      <trkpt lat="40.82096" lon="-3.993647"/>
      <trkpt lat="40.821076" lon="-3.993674">
        <ele>1537.532439</ele>
        <time>2021-09-15T21:45:15.000Z</time>
      </trkpt>
      <trkpt lat="40.821182" lon="-3.993628">
        <ele>1538.701850</ele>
        <time>2021-09-15T21:45:15.000Z</time>
      </trkpt>
      <trkpt lat="40.821184" lon="-3.993621">
        <ele>1538.761199</ele>
        <time>2021-09-15T21:45:15.000Z</time>
      </trkpt>
      <trkpt lat="40.821194" lon="-3.993595">
        <ele>1538.992535</ele>
        <time>2021-09-15T21:45:15.000Z</time>
      </trkpt>
      <trkpt lat="40.821221" lon="-3.993527">
        <ele>1539.601637</ele>
        <time>2021-09-15T21:45:15.000Z</time>
      </trkpt>
      <trkpt lat="40.821278" lon="-3.993429">
        <ele>1540.582030</ele>
        <time>2021-09-15T21:45:15.000Z</time>
      </trkpt>
      <trkpt lat="40.82139" lon="-3.993223"/>
      <trkpt lat="40.821409" lon="-3.993153">
        <ele>1543.187066</ele>
        <time>2021-09-15T21:45:15.000Z</time>
      </trkpt>
      <trkpt lat="40.821418" lon="-3.993078">
        <ele>1543.865408</ele>
        <time>2021-09-15T21:45:15.000Z</time>
      </trkpt>
      <trkpt lat="40.821408" lon="-3.992816">
        <ele>1546.208815</ele>
        <time>2021-09-15T21:45:15.000Z</time>
      </trkpt>
      <trkpt lat="40.8214" lon="-3.992573"/>
      <trkpt lat="40.821407" lon="-3.992525">
        <ele>1548.818245</ele>
        <time>2021-09-15T21:45:15.000Z</time>
      </trkpt>
      <trkpt lat="40.821425" lon="-3.992411">
        <ele>1549.858531</ele>
        <time>2021-09-15T21:45:15.000Z</time>
      </trkpt>
      <trkpt lat="40.821443" lon="-3.992352">
        <ele>1550.426793</ele>
        <time>2021-09-15T21:45:15.000Z</time>
      </trkpt>
      <trkpt lat="40.821455" lon="-3.992301">
        <ele>1550.903887</ele>
        <time>2021-09-15T21:45:15.000Z</time>
      </trkpt>
      <trkpt lat="40.821459" lon="-3.99219"/>
      <trkpt lat="40.821459" lon="-3.992058">
        <ele>1553.075714</ele>
        <time>2021-09-15T21:45:15.000Z</time>
      </trkpt>
      <trkpt lat="40.821449" lon="-3.991894">
        <ele>1554.545464</ele>
        <time>2021-09-15T21:45:15.000Z</time>
      </trkpt>
      <trkpt lat="40.82143" lon="-3.991831"/>
      <trkpt lat="40.821409" lon="-3.991686">
        <ele>1556.470069</ele>
        <time>2021-09-15T21:45:15.000Z</time>
      </trkpt>
      <trkpt lat="40.821406" lon="-3.991642">
        <ele>1556.864711</ele>
        <time>2021-09-15T21:45:15.000Z</time>
      </trkpt>
      <trkpt lat="40.821409" lon="-3.991535">
        <ele>1557.821192</ele>
        <time>2021-09-15T21:45:15.000Z</time>
      </trkpt>
      <trkpt lat="40.821414" lon="-3.991497">
        <ele>1558.165737</ele>
        <time>2021-09-15T21:45:15.000Z</time>
      </trkpt>
      <trkpt lat="40.821427" lon="-3.991271">
        <ele>1560.190406</ele>
        <time>2021-09-15T21:45:15.000Z</time>
      </trkpt>
      <trkpt lat="40.821437" lon="-3.991208">
        <ele>1560.765428</ele>
        <time>2021-09-15T21:45:15.000Z</time>
      </trkpt>
      <trkpt lat="40.821447" lon="-3.991143">
        <ele>1561.357947</ele>
        <time>2021-09-15T21:45:15.000Z</time>
      </trkpt>
      <trkpt lat="40.82146" lon="-3.991078"/>
      <trkpt lat="40.821471" lon="-3.991019">
        <ele>1562.501327</ele>
        <time>2021-09-15T21:45:15.000Z</time>
      </trkpt>
      <trkpt lat="40.821483" lon="-3.990967">
        <ele>1562.986958</ele>
        <time>2021-09-15T21:45:15.000Z</time>
      </trkpt>
      <trkpt lat="40.821496" lon="-3.99092"/>
      <trkpt lat="40.82151" lon="-3.990881"/>
      <trkpt lat="40.82152" lon="-3.990845"/>
      <trkpt lat="40.821527" lon="-3.990804">
        <ele>1564.551218</ele>
        <time>2021-09-15T21:45:15.000Z</time>
      </trkpt>
      <trkpt lat="40.821525" lon="-3.990749">
        <ele>1565.088549</ele>
        <time>2021-09-15T21:45:15.000Z</time>
      </trkpt>
      <trkpt lat="40.821514" lon="-3.99068"/>
      <trkpt lat="40.821489" lon="-3.990603">
        <ele>1566.594289</ele>
        <time>2021-09-15T21:45:15.000Z</time>
      </trkpt>
      <trkpt lat="40.821455" lon="-3.99053"/>
      <trkpt lat="40.821421" lon="-3.990453">
        <ele>1568.300716</ele>
        <time>2021-09-15T21:45:15.000Z</time>
      </trkpt>
      <trkpt lat="40.821388" lon="-3.99038"/>
      <trkpt lat="40.821361" lon="-3.990301">
        <ele>1569.976393</ele>
        <time>2021-09-15T21:45:15.000Z</time>
      </trkpt>
      <trkpt lat="40.821344" lon="-3.990212">
        <ele>1570.872131</ele>
        <time>2021-09-15T21:45:15.000Z</time>
      </trkpt>
      <trkpt lat="40.821339" lon="-3.99012"/>
      <trkpt lat="40.821319" lon="-3.990016">
        <ele>1572.819349</ele>
        <time>2021-09-15T21:45:15.000Z</time>
      </trkpt>
      <trkpt lat="40.821273" lon="-3.98993"/>
      <trkpt lat="40.821239" lon="-3.989832">
        <ele>1574.899081</ele>
        <time>2021-09-15T21:45:15.000Z</time>
      </trkpt>
      <trkpt lat="40.821203" lon="-3.989734">
        <ele>1575.962126</ele>
        <time>2021-09-15T21:45:15.000Z</time>
      </trkpt>
      <trkpt lat="40.821164" lon="-3.98963"/>
      <trkpt lat="40.821085" lon="-3.989399">
        <ele>1579.568477</ele>
        <time>2021-09-15T21:45:15.000Z</time>
      </trkpt>
      <trkpt lat="40.821045" lon="-3.989275">
        <ele>1580.883875</ele>
        <time>2021-09-15T21:45:15.000Z</time>
      </trkpt>
      <trkpt lat="40.82101" lon="-3.989148"/>
      <trkpt lat="40.820928" lon="-3.988792">
        <ele>1585.834197</ele>
        <time>2021-09-15T21:45:15.000Z</time>
      </trkpt>
      <trkpt lat="40.820884" lon="-3.988558">
        <ele>1588.040384</ele>
        <time>2021-09-15T21:45:15.000Z</time>
      </trkpt>
      <trkpt lat="40.820839" lon="-3.988305">
        <ele>1589.959723</ele>
        <time>2021-09-15T21:45:15.000Z</time>
      </trkpt>
      <trkpt lat="40.820818" lon="-3.988041">
        <ele>1591.920125</ele>
        <time>2021-09-15T21:45:15.000Z</time>
      </trkpt>
      <trkpt lat="40.820816" lon="-3.987781">
        <ele>1593.840346</ele>
        <time>2021-09-15T21:45:15.000Z</time>
      </trkpt>
      <trkpt lat="40.820842" lon="-3.987527">
        <ele>1595.733238</ele>
        <time>2021-09-15T21:45:15.000Z</time>
      </trkpt>
      <trkpt lat="40.820904" lon="-3.987276">
        <ele>1597.683140</ele>
        <time>2021-09-15T21:45:15.000Z</time>
      </trkpt>
      <trkpt lat="40.821021" lon="-3.987018">
        <ele>1599.904405</ele>
        <time>2021-09-15T21:45:15.000Z</time>
      </trkpt>
      <trkpt lat="40.821139" lon="-3.986765">
        <ele>1602.099181</ele>
        <time>2021-09-15T21:45:15.000Z</time>
      </trkpt>
      <trkpt lat="40.821199" lon="-3.986644">
        <ele>1603.167521</ele>
        <time>2021-09-15T21:45:15.000Z</time>
      </trkpt>
      <trkpt lat="40.821316" lon="-3.98641"/>
      <trkpt lat="40.821401" lon="-3.986173">
        <ele>1606.946563</ele>
        <time>2021-09-15T21:45:15.000Z</time>
      </trkpt>
      <trkpt lat="40.821452" lon="-3.985921">
        <ele>1608.656592</ele>
        <time>2021-09-15T21:45:15.000Z</time>
      </trkpt>
      <trkpt lat="40.82146" lon="-3.985794"/>
      <trkpt lat="40.821453" lon="-3.98567"/>
      <trkpt lat="40.821425" lon="-3.985551">
        <ele>1611.124086</ele>
        <time>2021-09-15T21:45:15.000Z</time>
      </trkpt>
      <trkpt lat="40.821383" lon="-3.985432">
        <ele>1611.984857</ele>
        <time>2021-09-15T21:45:15.000Z</time>
      </trkpt>
      <trkpt lat="40.821336" lon="-3.985316">
        <ele>1612.847426</ele>
        <time>2021-09-15T21:45:15.000Z</time>
      </trkpt>
      <trkpt lat="40.821247" lon="-3.98511"/>
      <trkpt lat="40.821152" lon="-3.984922">
        <ele>1615.884370</ele>
        <time>2021-09-15T21:45:15.000Z</time>
      </trkpt>
      <trkpt lat="40.821053" lon="-3.984738">
        <ele>1617.364377</ele>
        <time>2021-09-15T21:45:15.000Z</time>
      </trkpt>
      <trkpt lat="40.820966" lon="-3.98453"/>
      <trkpt lat="40.820927" lon="-3.984426">
        <ele>1619.683224</ele>
        <time>2021-09-15T21:45:15.000Z</time>
      </trkpt>
      <trkpt lat="40.820898" lon="-3.984319">
        <ele>1620.428292</ele>
        <time>2021-09-15T21:45:15.000Z</time>
      </trkpt>
      <trkpt lat="40.820897" lon="-3.984092">
        <ele>1621.716003</ele>
        <time>2021-09-15T21:45:15.000Z</time>
      </trkpt>
      <trkpt lat="40.821001" lon="-3.983802">
        <ele>1623.468097</ele>
        <time>2021-09-15T21:45:15.000Z</time>
      </trkpt>
      <trkpt lat="40.821259" lon="-3.98354"/>
      <trkpt lat="40.821315" lon="-3.983467">
        <ele>1626.383123</ele>
        <time>2021-09-15T21:45:15.000Z</time>
      </trkpt>
      <trkpt lat="40.821447" lon="-3.983327">
        <ele>1627.604251</ele>
        <time>2021-09-15T21:45:15.000Z</time>
      </trkpt>
      <trkpt lat="40.821582" lon="-3.983187">
        <ele>1628.842331</ele>
        <time>2021-09-15T21:45:15.000Z</time>
      </trkpt>
      <trkpt lat="40.821706" lon="-3.983035">
        <ele>1630.062574</ele>
        <time>2021-09-15T21:45:15.000Z</time>
      </trkpt>
      <trkpt lat="40.821766" lon="-3.982962">
        <ele>1630.650982</ele>
        <time>2021-09-15T21:45:15.000Z</time>
      </trkpt>
      <trkpt lat="40.821816" lon="-3.982889">
        <ele>1631.188540</ele>
        <time>2021-09-15T21:45:15.000Z</time>
      </trkpt>
      <trkpt lat="40.821864" lon="-3.982812">
        <ele>1631.733197</ele>
        <time>2021-09-15T21:45:15.000Z</time>
      </trkpt>
      <trkpt lat="40.821909" lon="-3.982632">
        <ele>1632.768164</ele>
        <time>2021-09-15T21:45:15.000Z</time>
      </trkpt>
      <trkpt lat="40.821903" lon="-3.98253"/>
      <trkpt lat="40.821807" lon="-3.982007">
        <ele>1635.847234</ele>
        <time>2021-09-15T21:45:15.000Z</time>
      </trkpt>
      <trkpt lat="40.821744" lon="-3.981825">
        <ele>1636.762395</ele>
        <time>2021-09-15T21:45:15.000Z</time>
      </trkpt>
      <trkpt lat="40.82168" lon="-3.981662"/>
      <trkpt lat="40.821649" lon="-3.981579">
        <ele>1638.025338</ele>
        <time>2021-09-15T21:45:15.000Z</time>
      </trkpt>
      <trkpt lat="40.821525" lon="-3.981202">
        <ele>1639.905035</ele>
        <time>2021-09-15T21:45:15.000Z</time>
      </trkpt>
      <trkpt lat="40.821424" lon="-3.980905">
        <ele>1641.393953</ele>
        <time>2021-09-15T21:45:15.000Z</time>
      </trkpt>
      <trkpt lat="40.821323" lon="-3.98068"/>
      <trkpt lat="40.821198" lon="-3.980459">
        <ele>1643.851852</ele>
        <time>2021-09-15T21:45:15.000Z</time>
      </trkpt>
      <trkpt lat="40.8211" lon="-3.980335"/>
      <trkpt lat="40.821047" lon="-3.980275">
        <ele>1645.275314</ele>
        <time>2021-09-15T21:45:15.000Z</time>
      </trkpt>
      <trkpt lat="40.820993" lon="-3.980217">
        <ele>1645.839815</ele>
        <time>2021-09-15T21:45:15.000Z</time>
      </trkpt>
      <trkpt lat="40.820941" lon="-3.980165">
        <ele>1646.368812</ele>
        <time>2021-09-15T21:45:15.000Z</time>
      </trkpt>
      <trkpt lat="40.820891" lon="-3.980122">
        <ele>1646.852747</ele>
        <time>2021-09-15T21:45:15.000Z</time>
      </trkpt>
      <trkpt lat="40.820836" lon="-3.980096">
        <ele>1647.326600</ele>
        <time>2021-09-15T21:45:15.000Z</time>
      </trkpt>
      <trkpt lat="40.82077" lon="-3.980088"/>
      <trkpt lat="40.820707" lon="-3.980082">
        <ele>1648.376626</ele>
        <time>2021-09-15T21:45:15.000Z</time>
      </trkpt>
      <trkpt lat="40.820646" lon="-3.980068">
        <ele>1648.878869</ele>
        <time>2021-09-15T21:45:15.000Z</time>
      </trkpt>
      <trkpt lat="40.820595" lon="-3.980039">
        <ele>1649.329261</ele>
        <time>2021-09-15T21:45:15.000Z</time>
      </trkpt>
      <trkpt lat="40.820514" lon="-3.979938">
        <ele>1650.232688</ele>
        <time>2021-09-15T21:45:15.000Z</time>
      </trkpt>
      <trkpt lat="40.82048" lon="-3.979789"/>
      <trkpt lat="40.82048" lon="-3.979702"/>
      <trkpt lat="40.82051" lon="-3.979506"/>
      <trkpt lat="40.82055" lon="-3.979293"/>
      <trkpt lat="40.820572" lon="-3.97919"/>
      <trkpt lat="40.820596" lon="-3.979089">
        <ele>1655.603845</ele>
        <time>2021-09-15T21:45:15.000Z</time>
      </trkpt>
      <trkpt lat="40.820663" lon="-3.978892">
        <ele>1656.929720</ele>
        <time>2021-09-15T21:45:15.000Z</time>
      </trkpt>
      <trkpt lat="40.820703" lon="-3.978796">
        <ele>1657.602474</ele>
        <time>2021-09-15T21:45:15.000Z</time>
      </trkpt>
      <trkpt lat="40.820745" lon="-3.978701">
        <ele>1658.277894</ele>
        <time>2021-09-15T21:45:15.000Z</time>
      </trkpt>
      <trkpt lat="40.820792" lon="-3.978608">
        <ele>1658.964412</ele>
        <time>2021-09-15T21:45:15.000Z</time>
      </trkpt>
      <trkpt lat="40.820847" lon="-3.978518">
        <ele>1659.837840</ele>
        <time>2021-09-15T21:45:15.000Z</time>
      </trkpt>
      <trkpt lat="40.820914" lon="-3.978446">
        <ele>1660.757693</ele>
        <time>2021-09-15T21:45:15.000Z</time>
      </trkpt>
      <trkpt lat="40.82099" lon="-3.978382"/>
      <trkpt lat="40.821145" lon="-3.978248">
        <ele>1663.690546</ele>
        <time>2021-09-15T21:45:15.000Z</time>
      </trkpt>
      <trkpt lat="40.821219" lon="-3.978176">
        <ele>1664.669376</ele>
        <time>2021-09-15T21:45:15.000Z</time>
      </trkpt>
      <trkpt lat="40.821292" lon="-3.978105">
        <ele>1665.634849</ele>
        <time>2021-09-15T21:45:15.000Z</time>
      </trkpt>
      <trkpt lat="40.821357" lon="-3.978042">
        <ele>1666.493470</ele>
        <time>2021-09-15T21:45:15.000Z</time>
      </trkpt>
      <trkpt lat="40.82142" lon="-3.977988"/>
      <trkpt lat="40.821484" lon="-3.97793"/>
      <trkpt lat="40.821556" lon="-3.977869">
        <ele>1669.030935</ele>
        <time>2021-09-15T21:45:15.000Z</time>
      </trkpt>
      <trkpt lat="40.821637" lon="-3.97781"/>
      <trkpt lat="40.821719" lon="-3.977751">
        <ele>1671.010610</ele>
        <time>2021-09-15T21:45:15.000Z</time>
      </trkpt>
      <trkpt lat="40.821798" lon="-3.977694">
        <ele>1671.969346</ele>
        <time>2021-09-15T21:45:15.000Z</time>
      </trkpt>
      <trkpt lat="40.821885" lon="-3.977642">
        <ele>1672.986417</ele>
        <time>2021-09-15T21:45:15.000Z</time>
      </trkpt>
      <trkpt lat="40.821974" lon="-3.977586">
        <ele>1674.036387</ele>
        <time>2021-09-15T21:45:15.000Z</time>
      </trkpt>
      <trkpt lat="40.822068" lon="-3.977525">
        <ele>1675.151850</ele>
        <time>2021-09-15T21:45:15.000Z</time>
      </trkpt>
      <trkpt lat="40.822152" lon="-3.977459">
        <ele>1676.192793</ele>
        <time>2021-09-15T21:45:15.000Z</time>
      </trkpt>
      <trkpt lat="40.822227" lon="-3.977384">
        <ele>1677.194618</ele>
        <time>2021-09-15T21:45:15.000Z</time>
      </trkpt>
      <trkpt lat="40.822295" lon="-3.977298">
        <ele>1678.197189</ele>
        <time>2021-09-15T21:45:15.000Z</time>
      </trkpt>
      <trkpt lat="40.82234" lon="-3.977195"/>
      <trkpt lat="40.822383" lon="-3.97708"/>
      <trkpt lat="40.822432" lon="-3.976955">
        <ele>1682.131746</ele>
        <time>2021-09-15T21:45:15.000Z</time>
      </trkpt>
      <trkpt lat="40.822507" lon="-3.976689">
        <ele>1685.032815</ele>
        <time>2021-09-15T21:45:15.000Z</time>
      </trkpt>
      <trkpt lat="40.822526" lon="-3.976547">
        <ele>1686.506555</ele>
        <time>2021-09-15T21:45:15.000Z</time>
      </trkpt>
      <trkpt lat="40.822538" lon="-3.976409">
        <ele>1687.926184</ele>
        <time>2021-09-15T21:45:15.000Z</time>
      </trkpt>
      <trkpt lat="40.82255" lon="-3.976272"/>
      <trkpt lat="40.822562" lon="-3.976143">
        <ele>1690.663954</ele>
        <time>2021-09-15T21:45:15.000Z</time>
      </trkpt>
      <trkpt lat="40.822569" lon="-3.976015">
        <ele>1691.975514</ele>
        <time>2021-09-15T21:45:15.000Z</time>
      </trkpt>
      <trkpt lat="40.822562" lon="-3.975895">
        <ele>1693.205542</ele>
        <time>2021-09-15T21:45:15.000Z</time>
      </trkpt>
      <trkpt lat="40.822541" lon="-3.975784">
        <ele>1694.374868</ele>
        <time>2021-09-15T21:45:15.000Z</time>
      </trkpt>
      <trkpt lat="40.822518" lon="-3.975681">
        <ele>1695.472393</ele>
        <time>2021-09-15T21:45:15.000Z</time>
      </trkpt>
      <trkpt lat="40.822487" lon="-3.975585">
        <ele>1696.539098</ele>
        <time>2021-09-15T21:45:15.000Z</time>
      </trkpt>
      <trkpt lat="40.822414" lon="-3.975384">
        <ele>1698.817634</ele>
        <time>2021-09-15T21:45:15.000Z</time>
      </trkpt>
      <trkpt lat="40.822336" lon="-3.975173">
        <ele>1701.217585</ele>
        <time>2021-09-15T21:45:15.000Z</time>
      </trkpt>
      <trkpt lat="40.8223" lon="-3.975074"/>
      <trkpt lat="40.822267" lon="-3.974973">
        <ele>1703.568180</ele>
        <time>2021-09-15T21:45:15.000Z</time>
      </trkpt>
      <trkpt lat="40.822243" lon="-3.974867">
        <ele>1704.835047</ele>
        <time>2021-09-15T21:45:15.000Z</time>
      </trkpt>
      <trkpt lat="40.822223" lon="-3.974754">
        <ele>1706.163821</ele>
        <time>2021-09-15T21:45:15.000Z</time>
      </trkpt>
      <trkpt lat="40.822203" lon="-3.974638">
        <ele>1707.526066</ele>
        <time>2021-09-15T21:45:15.000Z</time>
      </trkpt>
      <trkpt lat="40.822188" lon="-3.974528">
        <ele>1708.805860</ele>
        <time>2021-09-15T21:45:15.000Z</time>
      </trkpt>
      <trkpt lat="40.822174" lon="-3.974429">
        <ele>1709.959040</ele>
        <time>2021-09-15T21:45:15.000Z</time>
      </trkpt>
      <trkpt lat="40.822168" lon="-3.974335">
        <ele>1711.039168</ele>
        <time>2021-09-15T21:45:15.000Z</time>
      </trkpt>
      <trkpt lat="40.822161" lon="-3.974247">
        <ele>1712.052326</ele>
        <time>2021-09-15T21:45:15.000Z</time>
      </trkpt>
      <trkpt lat="40.822157" lon="-3.974161">
        <ele>1713.038891</ele>
        <time>2021-09-15T21:45:15.000Z</time>
      </trkpt>
      <trkpt lat="40.822155" lon="-3.974072">
        <ele>1714.058397</ele>
        <time>2021-09-15T21:45:15.000Z</time>
      </trkpt>
      <trkpt lat="40.822141" lon="-3.973891">
        <ele>1716.141659</ele>
        <time>2021-09-15T21:45:15.000Z</time>
      </trkpt>
      <trkpt lat="40.822124" lon="-3.973704">
        <ele>1718.298218</ele>
        <time>2021-09-15T21:45:15.000Z</time>
      </trkpt>
      <trkpt lat="40.822113" lon="-3.973605">
        <ele>1719.443930</ele>
        <time>2021-09-15T21:45:15.000Z</time>
      </trkpt>
      <trkpt lat="40.822084" lon="-3.973391">
        <ele>1721.933227</ele>
        <time>2021-09-15T21:45:15.000Z</time>
      </trkpt>
      <trkpt lat="40.822009" lon="-3.973044">
        <ele>1726.065293</ele>
        <time>2021-09-15T21:45:15.000Z</time>
      </trkpt>
      <trkpt lat="40.821954" lon="-3.972809">
        <ele>1728.881817</ele>
        <time>2021-09-15T21:45:15.000Z</time>
      </trkpt>
      <trkpt lat="40.821924" lon="-3.972709">
        <ele>1730.091859</ele>
        <time>2021-09-15T21:45:15.000Z</time>
      </trkpt>
      <trkpt lat="40.821883" lon="-3.972626">
        <ele>1731.143785</ele>
        <time>2021-09-15T21:45:15.000Z</time>
      </trkpt>
      <trkpt lat="40.821785" lon="-3.97251"/>
      <trkpt lat="40.821724" lon="-3.972488">
        <ele>1733.875694</ele>
        <time>2021-09-15T21:45:15.000Z</time>
      </trkpt>
      <trkpt lat="40.82166" lon="-3.972482"/>
      <trkpt lat="40.821599" lon="-3.972485">
        <ele>1735.631584</ele>
        <time>2021-09-15T21:45:15.000Z</time>
      </trkpt>
      <trkpt lat="40.821541" lon="-3.972487">
        <ele>1736.445272</ele>
        <time>2021-09-15T21:45:15.000Z</time>
      </trkpt>
      <trkpt lat="40.821488" lon="-3.972478">
        <ele>1737.194674</ele>
        <time>2021-09-15T21:45:15.000Z</time>
      </trkpt>
      <trkpt lat="40.821445" lon="-3.972459">
        <ele>1737.830540</ele>
        <time>2021-09-15T21:45:15.000Z</time>
      </trkpt>
      <trkpt lat="40.821412" lon="-3.972428">
        <ele>1738.398368</ele>
        <time>2021-09-15T21:45:15.000Z</time>
      </trkpt>
      <trkpt lat="40.821373" lon="-3.972266">
        <ele>1740.202565</ele>
        <time>2021-09-15T21:45:15.000Z</time>
      </trkpt>
      <trkpt lat="40.821382" lon="-3.972194">
        <ele>1740.977050</ele>
        <time>2021-09-15T21:45:15.000Z</time>
      </trkpt>
      <trkpt lat="40.821436" lon="-3.972026">
        <ele>1742.914191</ele>
        <time>2021-09-15T21:45:15.000Z</time>
      </trkpt>
      <trkpt lat="40.821518" lon="-3.971806">
        <ele>1745.516877</ele>
        <time>2021-09-15T21:45:15.000Z</time>
      </trkpt>
      <trkpt lat="40.821564" lon="-3.971686">
        <ele>1746.944499</ele>
        <time>2021-09-15T21:45:15.000Z</time>
      </trkpt>
      <trkpt lat="40.821613" lon="-3.971575">
        <ele>1748.308315</ele>
        <time>2021-09-15T21:45:15.000Z</time>
      </trkpt>
      <trkpt lat="40.821669" lon="-3.971476">
        <ele>1749.620075</ele>
        <time>2021-09-15T21:45:15.000Z</time>
      </trkpt>
      <trkpt lat="40.821727" lon="-3.971387">
        <ele>1750.866593</ele>
        <time>2021-09-15T21:45:15.000Z</time>
      </trkpt>
      <trkpt lat="40.821787" lon="-3.971312">
        <ele>1752.024874</ele>
        <time>2021-09-15T21:45:15.000Z</time>
      </trkpt>
      <trkpt lat="40.821905" lon="-3.971202">
        <ele>1754.050080</ele>
        <time>2021-09-15T21:45:15.000Z</time>
      </trkpt>
      <trkpt lat="40.821958" lon="-3.971159">
        <ele>1754.922282</ele>
        <time>2021-09-15T21:45:15.000Z</time>
      </trkpt>
      <trkpt lat="40.822005" lon="-3.971121">
        <ele>1755.614995</ele>
        <time>2021-09-15T21:45:15.000Z</time>
      </trkpt>
      <trkpt lat="40.822072" lon="-3.971054">
        <ele>1756.648946</ele>
        <time>2021-09-15T21:45:15.000Z</time>
      </trkpt>
      <trkpt lat="40.822122" lon="-3.97099"/>
      <trkpt lat="40.822154" lon="-3.970963">
        <ele>1757.972761</ele>
        <time>2021-09-15T21:45:15.000Z</time>
      </trkpt>
      <trkpt lat="40.822243" lon="-3.970809">
        <ele>1759.777226</ele>
        <time>2021-09-15T21:45:15.000Z</time>
      </trkpt>
      <trkpt lat="40.822286" lon="-3.970735">
        <ele>1760.646056</ele>
        <time>2021-09-15T21:45:15.000Z</time>
      </trkpt>
      <trkpt lat="40.82234" lon="-3.97066"/>
      <trkpt lat="40.822368" lon="-3.970632">
        <ele>1762.042187</ele>
        <time>2021-09-15T21:45:15.000Z</time>
      </trkpt>
      <trkpt lat="40.822422" lon="-3.970563">
        <ele>1762.966544</ele>
        <time>2021-09-15T21:45:15.000Z</time>
      </trkpt>
      <trkpt lat="40.822432" lon="-3.970547">
        <ele>1763.159787</ele>
        <time>2021-09-15T21:45:15.000Z</time>
      </trkpt>
      <trkpt lat="40.82244" lon="-3.970533"/>
      <trkpt lat="40.822489" lon="-3.970495">
        <ele>1764.022299</ele>
        <time>2021-09-15T21:45:15.000Z</time>
      </trkpt>
      <trkpt lat="40.822522" lon="-3.970472">
        <ele>1764.481409</ele>
        <time>2021-09-15T21:45:15.000Z</time>
      </trkpt>
      <trkpt lat="40.822546" lon="-3.970462">
        <ele>1764.791080</ele>
        <time>2021-09-15T21:45:15.000Z</time>
      </trkpt>
      <trkpt lat="40.822575" lon="-3.97042"/>
      <trkpt lat="40.822588" lon="-3.970403">
        <ele>1765.545598</ele>
        <time>2021-09-15T21:45:15.000Z</time>
      </trkpt>
      <trkpt lat="40.822632" lon="-3.970357">
        <ele>1766.236006</ele>
        <time>2021-09-15T21:45:15.000Z</time>
      </trkpt>
      <trkpt lat="40.82265" lon="-3.970338"/>
      <trkpt lat="40.822675" lon="-3.97029"/>
      <trkpt lat="40.822725" lon="-3.970214">
        <ele>1767.999916</ele>
        <time>2021-09-15T21:45:15.000Z</time>
      </trkpt>
      <trkpt lat="40.822787" lon="-3.970139">
        <ele>1769.034267</ele>
        <time>2021-09-15T21:45:15.000Z</time>
      </trkpt>
      <trkpt lat="40.822833" lon="-3.970078">
        <ele>1769.836203</ele>
        <time>2021-09-15T21:45:15.000Z</time>
      </trkpt>
      <trkpt lat="40.82288" lon="-3.970038"/>
      <trkpt lat="40.822946" lon="-3.969949">
        <ele>1771.684534</ele>
        <time>2021-09-15T21:45:15.000Z</time>
      </trkpt>
      <trkpt lat="40.822968" lon="-3.969907">
        <ele>1772.160202</ele>
        <time>2021-09-15T21:45:15.000Z</time>
      </trkpt>
      <trkpt lat="40.822988" lon="-3.96987"/>
      <trkpt lat="40.823041" lon="-3.969825">
        <ele>1773.358847</ele>
        <time>2021-09-15T21:45:15.000Z</time>
      </trkpt>
      <trkpt lat="40.82313" lon="-3.9698"/>
      <trkpt lat="40.823183" lon="-3.969764">
        <ele>1775.211843</ele>
        <time>2021-09-15T21:45:15.000Z</time>
      </trkpt>
      <trkpt lat="40.8232" lon="-3.969736"/>
      <trkpt lat="40.823242" lon="-3.969591">
        <ele>1776.991925</ele>
        <time>2021-09-15T21:45:15.000Z</time>
      </trkpt>
      <trkpt lat="40.823259" lon="-3.969536">
        <ele>1777.382340</ele>
        <time>2021-09-15T21:45:15.000Z</time>
      </trkpt>
      <trkpt lat="40.823346" lon="-3.969344">
        <ele>1778.547945</ele>
        <time>2021-09-15T21:45:15.000Z</time>
      </trkpt>
      <trkpt lat="40.82339" lon="-3.969219"/>
      <trkpt lat="40.823396" lon="-3.969195">
        <ele>1779.397643</ele>
        <time>2021-09-15T21:45:15.000Z</time>
      </trkpt>
      <trkpt lat="40.823467" lon="-3.969143">
        <ele>1779.956363</ele>
        <time>2021-09-15T21:45:15.000Z</time>
      </trkpt>
      <trkpt lat="40.823477" lon="-3.969128">
        <ele>1780.060484</ele>
        <time>2021-09-15T21:45:15.000Z</time>
      </trkpt>
      <trkpt lat="40.823473" lon="-3.969025">
        <ele>1780.597663</ele>
        <time>2021-09-15T21:45:15.000Z</time>
      </trkpt>
      <trkpt lat="40.823486" lon="-3.968885">
        <ele>1781.332318</ele>
        <time>2021-09-15T21:45:15.000Z</time>
      </trkpt>
      <trkpt lat="40.82348" lon="-3.968725"/>
      <trkpt lat="40.823468" lon="-3.968664">
        <ele>1782.494973</ele>
        <time>2021-09-15T21:45:15.000Z</time>
      </trkpt>
      <trkpt lat="40.823439" lon="-3.968555">
        <ele>1783.096764</ele>
        <time>2021-09-15T21:45:15.000Z</time>
      </trkpt>
      <trkpt lat="40.823421" lon="-3.968452">
        <ele>1783.647357</ele>
        <time>2021-09-15T21:45:15.000Z</time>
      </trkpt>
      <trkpt lat="40.823419" lon="-3.968435">
        <ele>1783.736965</ele>
        <time>2021-09-15T21:45:15.000Z</time>
      </trkpt>
      <trkpt lat="40.823418" lon="-3.968388">
        <ele>1783.981860</ele>
        <time>2021-09-15T21:45:15.000Z</time>
      </trkpt>
      <trkpt lat="40.82342" lon="-3.968372"/>
      <trkpt lat="40.823392" lon="-3.968243">
        <ele>1784.765311</ele>
        <time>2021-09-15T21:45:15.000Z</time>
      </trkpt>
      <trkpt lat="40.823389" lon="-3.96822"/>
      <trkpt lat="40.823382" lon="-3.96813"/>
      <trkpt lat="40.823386" lon="-3.96792"/>
      <trkpt lat="40.823392" lon="-3.967805">
        <ele>1787.052629</ele>
        <time>2021-09-15T21:45:15.000Z</time>
      </trkpt>
      <trkpt lat="40.823392" lon="-3.967692">
        <ele>1787.641188</ele>
        <time>2021-09-15T21:45:15.000Z</time>
      </trkpt>
      <trkpt lat="40.823368" lon="-3.967642">
        <ele>1787.949584</ele>
        <time>2021-09-15T21:45:15.000Z</time>
      </trkpt>
      <trkpt lat="40.823297" lon="-3.96754"/>
      <trkpt lat="40.823268" lon="-3.967479">
        <ele>1789.046641</ele>
        <time>2021-09-15T21:45:15.000Z</time>
      </trkpt>
      <trkpt lat="40.823242" lon="-3.967418">
        <ele>1789.411291</ele>
        <time>2021-09-15T21:45:15.000Z</time>
      </trkpt>
      <trkpt lat="40.823219" lon="-3.967361">
        <ele>1789.809755</ele>
        <time>2021-09-15T21:45:15.000Z</time>
      </trkpt>
      <trkpt lat="40.82318" lon="-3.967251"/>
      <trkpt lat="40.823175" lon="-3.967192">
        <ele>1791.055567</ele>
        <time>2021-09-15T21:45:15.000Z</time>
      </trkpt>
      <trkpt lat="40.823195" lon="-3.967077">
        <ele>1791.868442</ele>
        <time>2021-09-15T21:45:15.000Z</time>
      </trkpt>
      <trkpt lat="40.823203" lon="-3.967033">
        <ele>1792.180179</ele>
        <time>2021-09-15T21:45:15.000Z</time>
      </trkpt>
      <trkpt lat="40.823225" lon="-3.966821">
        <ele>1793.654292</ele>
        <time>2021-09-15T21:45:15.000Z</time>
      </trkpt>
      <trkpt lat="40.823226" lon="-3.966777">
        <ele>1793.957540</ele>
        <time>2021-09-15T21:45:15.000Z</time>
      </trkpt>
      <trkpt lat="40.82328" lon="-3.966666"/>
      <trkpt lat="40.823284" lon="-3.966661">
        <ele>1794.916715</ele>
        <time>2021-09-15T21:45:15.000Z</time>
      </trkpt>
      <trkpt lat="40.823291" lon="-3.966651">
        <ele>1795.010557</ele>
        <time>2021-09-15T21:45:15.000Z</time>
      </trkpt>
      <trkpt lat="40.823298" lon="-3.966631">
        <ele>1795.162358</ele>
        <time>2021-09-15T21:45:15.000Z</time>
      </trkpt>
      <trkpt lat="40.823309" lon="-3.966604">
        <ele>1795.373601</ele>
        <time>2021-09-15T21:45:15.000Z</time>
      </trkpt>
      <trkpt lat="40.82333" lon="-3.96652"/>
      <trkpt lat="40.823345" lon="-3.966485">
        <ele>1796.260122</ele>
        <time>2021-09-15T21:45:15.000Z</time>
      </trkpt>
      <trkpt lat="40.823358" lon="-3.966452">
        <ele>1796.516414</ele>
        <time>2021-09-15T21:45:15.000Z</time>
      </trkpt>
      <trkpt lat="40.823363" lon="-3.966405">
        <ele>1796.843375</ele>
        <time>2021-09-15T21:45:15.000Z</time>
      </trkpt>
      <trkpt lat="40.823363" lon="-3.966383">
        <ele>1796.994930</ele>
        <time>2021-09-15T21:45:15.000Z</time>
      </trkpt>
      <trkpt lat="40.823371" lon="-3.966317">
        <ele>1797.455392</ele>
        <time>2021-09-15T21:45:15.000Z</time>
      </trkpt>
      <trkpt lat="40.823394" lon="-3.966206">
        <ele>1798.248205</ele>
        <time>2021-09-15T21:45:15.000Z</time>
      </trkpt>
      <trkpt lat="40.823427" lon="-3.966071">
        <ele>1799.225520</ele>
        <time>2021-09-15T21:45:15.000Z</time>
      </trkpt>
      <trkpt lat="40.823443" lon="-3.965981">
        <ele>1799.862397</ele>
        <time>2021-09-15T21:45:15.000Z</time>
      </trkpt>
      <trkpt lat="40.823445" lon="-3.965942">
        <ele>1800.131679</ele>
        <time>2021-09-15T21:45:15.000Z</time>
      </trkpt>
      <trkpt lat="40.823495" lon="-3.96573"/>
      <trkpt lat="40.823506" lon="-3.965679">
        <ele>1802.026730</ele>
        <time>2021-09-15T21:45:15.000Z</time>
      </trkpt>
      <trkpt lat="40.823535" lon="-3.965589">
        <ele>1802.700595</ele>
        <time>2021-09-15T21:45:15.000Z</time>
      </trkpt>
      <trkpt lat="40.82356" lon="-3.965509"/>
      <trkpt lat="40.823575" lon="-3.965442">
        <ele>1803.778176</ele>
        <time>2021-09-15T21:45:15.000Z</time>
      </trkpt>
      <trkpt lat="40.823582" lon="-3.965412">
        <ele>1803.994443</ele>
        <time>2021-09-15T21:45:15.000Z</time>
      </trkpt>
      <trkpt lat="40.823586" lon="-3.965352">
        <ele>1804.409375</ele>
        <time>2021-09-15T21:45:15.000Z</time>
      </trkpt>
      <trkpt lat="40.823583" lon="-3.965314">
        <ele>1804.672572</ele>
        <time>2021-09-15T21:45:15.000Z</time>
      </trkpt>
      <trkpt lat="40.823576" lon="-3.965265">
        <ele>1805.016088</ele>
        <time>2021-09-15T21:45:15.000Z</time>
      </trkpt>
      <trkpt lat="40.823557" lon="-3.965134">
        <ele>1805.933692</ele>
        <time>2021-09-15T21:45:15.000Z</time>
      </trkpt>
      <trkpt lat="40.823525" lon="-3.964975">
        <ele>1806.805986</ele>
        <time>2021-09-15T21:45:15.000Z</time>
      </trkpt>
      <trkpt lat="40.823506" lon="-3.964737">
        <ele>1808.074823</ele>
        <time>2021-09-15T21:45:15.000Z</time>
      </trkpt>
      <trkpt lat="40.823505" lon="-3.964587">
        <ele>1808.870128</ele>
        <time>2021-09-15T21:45:15.000Z</time>
      </trkpt>
      <trkpt lat="40.823497" lon="-3.964405">
        <ele>1809.836688</ele>
        <time>2021-09-15T21:45:15.000Z</time>
      </trkpt>
      <trkpt lat="40.823496" lon="-3.964356">
        <ele>1810.096572</ele>
        <time>2021-09-15T21:45:15.000Z</time>
      </trkpt>
      <trkpt lat="40.823527" lon="-3.964151">
        <ele>1811.204935</ele>
        <time>2021-09-15T21:45:15.000Z</time>
      </trkpt>
      <trkpt lat="40.823535" lon="-3.964056">
        <ele>1811.711718</ele>
        <time>2021-09-15T21:45:15.000Z</time>
      </trkpt>
      <trkpt lat="40.823526" lon="-3.96398"/>
      <trkpt lat="40.823504" lon="-3.963921">
        <ele>1812.468283</ele>
        <time>2021-09-15T21:45:15.000Z</time>
      </trkpt>
      <trkpt lat="40.823495" lon="-3.963866">
        <ele>1812.766623</ele>
        <time>2021-09-15T21:45:15.000Z</time>
      </trkpt>
      <trkpt lat="40.823498" lon="-3.963808">
        <ele>1813.074847</ele>
        <time>2021-09-15T21:45:15.000Z</time>
      </trkpt>
      <trkpt lat="40.823501" lon="-3.96378"/>
      <trkpt lat="40.823509" lon="-3.963702">
        <ele>1813.642102</ele>
        <time>2021-09-15T21:45:15.000Z</time>
      </trkpt>
      <trkpt lat="40.823504" lon="-3.963608">
        <ele>1814.141703</ele>
        <time>2021-09-15T21:45:15.000Z</time>
      </trkpt>
      <trkpt lat="40.823512" lon="-3.963519">
        <ele>1814.616883</ele>
        <time>2021-09-15T21:45:15.000Z</time>
      </trkpt>
      <trkpt lat="40.823518" lon="-3.963475">
        <ele>1814.853921</ele>
        <time>2021-09-15T21:45:15.000Z</time>
      </trkpt>
      <trkpt lat="40.823522" lon="-3.963435">
        <ele>1815.067838</ele>
        <time>2021-09-15T21:45:15.000Z</time>
      </trkpt>
      <trkpt lat="40.823518" lon="-3.963396">
        <ele>1815.276500</ele>
        <time>2021-09-15T21:45:15.000Z</time>
      </trkpt>
      <trkpt lat="40.823513" lon="-3.963318">
        <ele>1815.691523</ele>
        <time>2021-09-15T21:45:15.000Z</time>
      </trkpt>
      <trkpt lat="40.82352" lon="-3.96325"/>
      <trkpt lat="40.823528" lon="-3.963186">
        <ele>1816.399283</ele>
        <time>2021-09-15T21:45:15.000Z</time>
      </trkpt>
      <trkpt lat="40.823537" lon="-3.963125">
        <ele>1816.728784</ele>
        <time>2021-09-15T21:45:15.000Z</time>
      </trkpt>
      <trkpt lat="40.823554" lon="-3.963031">
        <ele>1817.241191</ele>
        <time>2021-09-15T21:45:15.000Z</time>
      </trkpt>
      <trkpt lat="40.82357" lon="-3.962906"/>
      <trkpt lat="40.823565" lon="-3.962854">
        <ele>1818.191244</ele>
        <time>2021-09-15T21:45:15.000Z</time>
      </trkpt>
      <trkpt lat="40.823547" lon="-3.962776">
        <ele>1818.501820</ele>
        <time>2021-09-15T21:45:15.000Z</time>
      </trkpt>
      <trkpt lat="40.823526" lon="-3.962655">
        <ele>1818.292131</ele>
        <time>2021-09-15T21:45:15.000Z</time>
      </trkpt>
      <trkpt lat="40.823526" lon="-3.96265"/>
      <trkpt lat="40.823511" lon="-3.96261"/>
      <trkpt lat="40.823493" lon="-3.962562">
        <ele>1818.117793</ele>
        <time>2021-09-15T21:45:15.000Z</time>
      </trkpt>
      <trkpt lat="40.823456" lon="-3.962541">
        <ele>1818.027909</ele>
        <time>2021-09-15T21:45:15.000Z</time>
      </trkpt>
      <trkpt lat="40.823433" lon="-3.962558">
        <ele>1817.969085</ele>
        <time>2021-09-15T21:45:15.000Z</time>
      </trkpt>
      <trkpt lat="40.823322" lon="-3.962613">
        <ele>1817.704474</ele>
        <time>2021-09-15T21:45:15.000Z</time>
      </trkpt>
      <trkpt lat="40.823212" lon="-3.962674">
        <ele>1817.438197</ele>
        <time>2021-09-15T21:45:15.000Z</time>
      </trkpt>
      <trkpt lat="40.823103" lon="-3.962925">
        <ele>1816.949375</ele>
        <time>2021-09-15T21:45:15.000Z</time>
      </trkpt>
      <trkpt lat="40.822927" lon="-3.963232">
        <ele>1816.298805</ele>
        <time>2021-09-15T21:45:15.000Z</time>
      </trkpt>
      <trkpt lat="40.822616" lon="-3.963623">
        <ele>1815.340630</ele>
        <time>2021-09-15T21:45:15.000Z</time>
      </trkpt>
      <trkpt lat="40.822248" lon="-3.964073">
        <ele>1814.392861</ele>
        <time>2021-09-15T21:45:15.000Z</time>
      </trkpt>
      <trkpt lat="40.822011" lon="-3.964415">
        <ele>1814.064694</ele>
        <time>2021-09-15T21:45:15.000Z</time>
      </trkpt>
      <trkpt lat="40.821713" lon="-3.964865">
        <ele>1813.641530</ele>
        <time>2021-09-15T21:45:15.000Z</time>
      </trkpt>
      <trkpt lat="40.821387" lon="-3.965386">
        <ele>1813.163122</ele>
        <time>2021-09-15T21:45:15.000Z</time>
      </trkpt>
      <trkpt lat="40.820993" lon="-3.96597"/>
      <trkpt lat="40.820736" lon="-3.966261">
        <ele>1812.849339</ele>
        <time>2021-09-15T21:45:15.000Z</time>
      </trkpt>
      <trkpt lat="40.820434" lon="-3.966517">
        <ele>1812.858569</ele>
        <time>2021-09-15T21:45:15.000Z</time>
      </trkpt>
      <trkpt lat="40.820052" lon="-3.966703">
        <ele>1812.869041</ele>
        <time>2021-09-15T21:45:15.000Z</time>
      </trkpt>
      <trkpt lat="40.819564" lon="-3.966881">
        <ele>1812.891204</ele>
        <time>2021-09-15T21:45:15.000Z</time>
      </trkpt>
      <trkpt lat="40.819163" lon="-3.967122">
        <ele>1812.979154</ele>
        <time>2021-09-15T21:45:15.000Z</time>
      </trkpt>
      <trkpt lat="40.818825" lon="-3.967433">
        <ele>1813.061383</ele>
        <time>2021-09-15T21:45:15.000Z</time>
      </trkpt>
      <trkpt lat="40.81844" lon="-3.96784"/>
      <trkpt lat="40.818113" lon="-3.968046">
        <ele>1813.232143</ele>
        <time>2021-09-15T21:45:15.000Z</time>
      </trkpt>
      <trkpt lat="40.817813" lon="-3.968102">
        <ele>1813.080298</ele>
        <time>2021-09-15T21:45:15.000Z</time>
      </trkpt>
      <trkpt lat="40.817459" lon="-3.968037">
        <ele>1812.864846</ele>
        <time>2021-09-15T21:45:15.000Z</time>
      </trkpt>
      <trkpt lat="40.817243" lon="-3.967934">
        <ele>1812.726415</ele>
        <time>2021-09-15T21:45:15.000Z</time>
      </trkpt>
      <trkpt lat="40.817092" lon="-3.967852">
        <ele>1812.628001</ele>
        <time>2021-09-15T21:45:15.000Z</time>
      </trkpt>
      <trkpt lat="40.816833" lon="-3.967737">
        <ele>1812.463289</ele>
        <time>2021-09-15T21:45:15.000Z</time>
      </trkpt>
      <trkpt lat="40.816566" lon="-3.967651">
        <ele>1812.297621</ele>
        <time>2021-09-15T21:45:15.000Z</time>
      </trkpt>
      <trkpt lat="40.816457" lon="-3.967617">
        <ele>1812.230106</ele>
        <time>2021-09-15T21:45:15.000Z</time>
      </trkpt>
      <trkpt lat="40.816252" lon="-3.967576">
        <ele>1812.059185</ele>
        <time>2021-09-15T21:45:15.000Z</time>
      </trkpt>
      <trkpt lat="40.816077" lon="-3.96761"/>
      <trkpt lat="40.816039" lon="-3.967632">
        <ele>1811.807603</ele>
        <time>2021-09-15T21:45:15.000Z</time>
      </trkpt>
      <trkpt lat="40.816004" lon="-3.967659">
        <ele>1811.760910</ele>
        <time>2021-09-15T21:45:15.000Z</time>
      </trkpt>
      <trkpt lat="40.815871" lon="-3.967827">
        <ele>1811.548929</ele>
        <time>2021-09-15T21:45:15.000Z</time>
      </trkpt>
      <trkpt lat="40.8156" lon="-3.968204"/>
      <trkpt lat="40.815439" lon="-3.968418">
        <ele>1810.832470</ele>
        <time>2021-09-15T21:45:15.000Z</time>
      </trkpt>
      <trkpt lat="40.815323" lon="-3.968572">
        <ele>1810.643021</ele>
        <time>2021-09-15T21:45:15.000Z</time>
      </trkpt>
      <trkpt lat="40.815205" lon="-3.968726">
        <ele>1810.451940</ele>
        <time>2021-09-15T21:45:15.000Z</time>
      </trkpt>
      <trkpt lat="40.815122" lon="-3.96883"/>
      <trkpt lat="40.814823" lon="-3.969203">
        <ele>1809.929674</ele>
        <time>2021-09-15T21:45:15.000Z</time>
      </trkpt>
      <trkpt lat="40.814614" lon="-3.969445">
        <ele>1809.722038</ele>
        <time>2021-09-15T21:45:15.000Z</time>
      </trkpt>
      <trkpt lat="40.814524" lon="-3.969541">
        <ele>1809.635614</ele>
        <time>2021-09-15T21:45:15.000Z</time>
      </trkpt>
      <trkpt lat="40.81411" lon="-3.969878"/>
      <trkpt lat="40.813914" lon="-3.970053">
        <ele>1809.095547</ele>
        <time>2021-09-15T21:45:15.000Z</time>
      </trkpt>
      <trkpt lat="40.813844" lon="-3.970184">
        <ele>1809.004864</ele>
        <time>2021-09-15T21:45:15.000Z</time>
      </trkpt>
      <trkpt lat="40.813779" lon="-3.970407">
        <ele>1808.869731</ele>
        <time>2021-09-15T21:45:15.000Z</time>
      </trkpt>
      <trkpt lat="40.813644" lon="-3.970865">
        <ele>1808.710037</ele>
        <time>2021-09-15T21:45:15.000Z</time>
      </trkpt>
      <trkpt lat="40.813512" lon="-3.971578">
        <ele>1808.627416</ele>
        <time>2021-09-15T21:45:15.000Z</time>
      </trkpt>
      <trkpt lat="40.813502" lon="-3.971657">
        <ele>1808.618400</ele>
        <time>2021-09-15T21:45:15.000Z</time>
      </trkpt>
      <trkpt lat="40.813438" lon="-3.972377">
        <ele>1808.536801</ele>
        <time>2021-09-15T21:45:15.000Z</time>
      </trkpt>
      <trkpt lat="40.813429" lon="-3.972532">
        <ele>1808.519303</ele>
        <time>2021-09-15T21:45:15.000Z</time>
      </trkpt>
      <trkpt lat="40.81345" lon="-3.973312"/>
      <trkpt lat="40.813482" lon="-3.973631">
        <ele>1808.440920</ele>
        <time>2021-09-15T21:45:15.000Z</time>
      </trkpt>
      <trkpt lat="40.813498" lon="-3.973713">
        <ele>1808.437067</ele>
        <time>2021-09-15T21:45:15.000Z</time>
      </trkpt>
      <trkpt lat="40.813516" lon="-3.973787">
        <ele>1808.433530</ele>
        <time>2021-09-15T21:45:15.000Z</time>
      </trkpt>
      <trkpt lat="40.813591" lon="-3.973975">
        <ele>1808.423860</ele>
        <time>2021-09-15T21:45:15.000Z</time>
      </trkpt>
      <trkpt lat="40.813628" lon="-3.974034">
        <ele>1808.420373</ele>
        <time>2021-09-15T21:45:15.000Z</time>
      </trkpt>
      <trkpt lat="40.813965" lon="-3.974316">
        <ele>1808.396390</ele>
        <time>2021-09-15T21:45:15.000Z</time>
      </trkpt>
      <trkpt lat="40.814326" lon="-3.974574">
        <ele>1808.371714</ele>
        <time>2021-09-15T21:45:15.000Z</time>
      </trkpt>
      <trkpt lat="40.814539" lon="-3.97484"/>
      <trkpt lat="40.814621" lon="-3.975123">
        <ele>1808.270394</ele>
        <time>2021-09-15T21:45:15.000Z</time>
      </trkpt>
      <trkpt lat="40.814581" lon="-3.975499">
        <ele>1808.201676</ele>
        <time>2021-09-15T21:45:15.000Z</time>
      </trkpt>
      <trkpt lat="40.814532" lon="-3.975643">
        <ele>1808.173102</ele>
        <time>2021-09-15T21:45:15.000Z</time>
      </trkpt>
      <trkpt lat="40.814428" lon="-3.975842">
        <ele>1808.129334</ele>
        <time>2021-09-15T21:45:15.000Z</time>
      </trkpt>
      <trkpt lat="40.814018" lon="-3.97636"/>
      <trkpt lat="40.813683" lon="-3.976864">
        <ele>1807.759452</ele>
        <time>2021-09-15T21:45:15.000Z</time>
      </trkpt>
      <trkpt lat="40.813644" lon="-3.976929">
        <ele>1807.716848</ele>
        <time>2021-09-15T21:45:15.000Z</time>
      </trkpt>
      <trkpt lat="40.813524" lon="-3.977114">
        <ele>1807.591705</ele>
        <time>2021-09-15T21:45:15.000Z</time>
      </trkpt>
      <trkpt lat="40.813415" lon="-3.977199">
        <ele>1807.505811</ele>
        <time>2021-09-15T21:45:15.000Z</time>
      </trkpt>
      <trkpt lat="40.813295" lon="-3.977243">
        <ele>1807.421296</ele>
        <time>2021-09-15T21:45:15.000Z</time>
      </trkpt>
      <trkpt lat="40.81299" lon="-3.977284"/>
      <trkpt lat="40.812508" lon="-3.977284">
        <ele>1806.886138</ele>
        <time>2021-09-15T21:45:15.000Z</time>
      </trkpt>
      <trkpt lat="40.81204" lon="-3.977366"/>
      <trkpt lat="40.811803" lon="-3.977434">
        <ele>1806.493098</ele>
        <time>2021-09-15T21:45:15.000Z</time>
      </trkpt>
      <trkpt lat="40.811691" lon="-3.977467">
        <ele>1806.438178</ele>
        <time>2021-09-15T21:45:15.000Z</time>
      </trkpt>
      <trkpt lat="40.811635" lon="-3.977488">
        <ele>1806.410317</ele>
        <time>2021-09-15T21:45:15.000Z</time>
      </trkpt>
      <trkpt lat="40.811429" lon="-3.977654">
        <ele>1806.294835</ele>
        <time>2021-09-15T21:45:15.000Z</time>
      </trkpt>
      <trkpt lat="40.81133" lon="-3.977885"/>
      <trkpt lat="40.811245" lon="-3.978662">
        <ele>1805.914293</ele>
        <time>2021-09-15T21:45:15.000Z</time>
      </trkpt>
      <trkpt lat="40.811233" lon="-3.978763">
        <ele>1805.877259</ele>
        <time>2021-09-15T21:45:15.000Z</time>
      </trkpt>
      <trkpt lat="40.811178" lon="-3.979498">
        <ele>1806.375712</ele>
        <time>2021-09-15T21:45:15.000Z</time>
      </trkpt>
      <trkpt lat="40.811166" lon="-3.979606">
        <ele>1806.461073</ele>
        <time>2021-09-15T21:45:15.000Z</time>
      </trkpt>
      <trkpt lat="40.811031" lon="-3.980239">
        <ele>1806.975357</ele>
        <time>2021-09-15T21:45:15.000Z</time>
      </trkpt>
      <trkpt lat="40.810892" lon="-3.980651">
        <ele>1807.328102</ele>
        <time>2021-09-15T21:45:15.000Z</time>
      </trkpt>
      <trkpt lat="40.810764" lon="-3.980946">
        <ele>1807.594014</ele>
        <time>2021-09-15T21:45:15.000Z</time>
      </trkpt>
      <trkpt lat="40.810625" lon="-3.981232">
        <ele>1807.948588</ele>
        <time>2021-09-15T21:45:15.000Z</time>
      </trkpt>
      <trkpt lat="40.810513" lon="-3.981418">
        <ele>1808.245039</ele>
        <time>2021-09-15T21:45:15.000Z</time>
      </trkpt>
      <trkpt lat="40.810303" lon="-3.981624">
        <ele>1808.676053</ele>
        <time>2021-09-15T21:45:15.000Z</time>
      </trkpt>
      <trkpt lat="40.810222" lon="-3.98167"/>
      <trkpt lat="40.810055" lon="-3.981733">
        <ele>1809.107539</ele>
        <time>2021-09-15T21:45:15.000Z</time>
      </trkpt>
      <trkpt lat="40.809884" lon="-3.981745">
        <ele>1809.389728</ele>
        <time>2021-09-15T21:45:15.000Z</time>
      </trkpt>
      <trkpt lat="40.80949" lon="-3.981672"/>
      <trkpt lat="40.808895" lon="-3.981464">
        <ele>1810.951834</ele>
        <time>2021-09-15T21:45:15.000Z</time>
      </trkpt>
      <trkpt lat="40.808325" lon="-3.981221">
        <ele>1811.662580</ele>
        <time>2021-09-15T21:45:15.000Z</time>
      </trkpt>
      <trkpt lat="40.807929" lon="-3.980984">
        <ele>1812.178470</ele>
        <time>2021-09-15T21:45:15.000Z</time>
      </trkpt>
      <trkpt lat="40.807576" lon="-3.980658">
        <ele>1812.689560</ele>
        <time>2021-09-15T21:45:15.000Z</time>
      </trkpt>
      <trkpt lat="40.807266" lon="-3.980289">
        <ele>1812.925105</ele>
        <time>2021-09-15T21:45:15.000Z</time>
      </trkpt>
      <trkpt lat="40.806969" lon="-3.980051">
        <ele>1813.052506</ele>
        <time>2021-09-15T21:45:15.000Z</time>
      </trkpt>
      <trkpt lat="40.806904" lon="-3.980016">
        <ele>1813.078249</ele>
        <time>2021-09-15T21:45:15.000Z</time>
      </trkpt>
      <trkpt lat="40.806705" lon="-3.979946">
        <ele>1813.153778</ele>
        <time>2021-09-15T21:45:15.000Z</time>
      </trkpt>
      <trkpt lat="40.806574" lon="-3.979971">
        <ele>1813.202323</ele>
        <time>2021-09-15T21:45:15.000Z</time>
      </trkpt>
      <trkpt lat="40.806451" lon="-3.980045">
        <ele>1813.251892</ele>
        <time>2021-09-15T21:45:15.000Z</time>
      </trkpt>
      <trkpt lat="40.806219" lon="-3.980228">
        <ele>1813.350994</ele>
        <time>2021-09-15T21:45:15.000Z</time>
      </trkpt>
      <trkpt lat="40.806098" lon="-3.980303">
        <ele>1813.400014</ele>
        <time>2021-09-15T21:45:15.000Z</time>
      </trkpt>
      <trkpt lat="40.805968" lon="-3.980355">
        <ele>1813.449830</ele>
        <time>2021-09-15T21:45:15.000Z</time>
      </trkpt>
      <trkpt lat="40.805832" lon="-3.980365">
        <ele>1813.488014</ele>
        <time>2021-09-15T21:45:15.000Z</time>
      </trkpt>
      <trkpt lat="40.805694" lon="-3.980349">
        <ele>1813.519608</ele>
        <time>2021-09-15T21:45:15.000Z</time>
      </trkpt>
      <trkpt lat="40.805145" lon="-3.980267">
        <ele>1813.645615</ele>
        <time>2021-09-15T21:45:15.000Z</time>
      </trkpt>
      <trkpt lat="40.804868" lon="-3.980217">
        <ele>1813.709376</ele>
        <time>2021-09-15T21:45:15.000Z</time>
      </trkpt>
      <trkpt lat="40.804726" lon="-3.980186">
        <ele>1813.742201</ele>
        <time>2021-09-15T21:45:15.000Z</time>
      </trkpt>
      <trkpt lat="40.804445" lon="-3.980207">
        <ele>1813.806391</ele>
        <time>2021-09-15T21:45:15.000Z</time>
      </trkpt>
      <trkpt lat="40.804377" lon="-3.980235">
        <ele>1813.822635</ele>
        <time>2021-09-15T21:45:15.000Z</time>
      </trkpt>
      <trkpt lat="40.804135" lon="-3.980415">
        <ele>1813.876509</ele>
        <time>2021-09-15T21:45:15.000Z</time>
      </trkpt>
      <trkpt lat="40.803872" lon="-3.980715">
        <ele>1813.850244</ele>
        <time>2021-09-15T21:45:15.000Z</time>
      </trkpt>
      <trkpt lat="40.803703" lon="-3.981013">
        <ele>1813.828939</ele>
        <time>2021-09-15T21:45:15.000Z</time>
      </trkpt>
      <trkpt lat="40.80367" lon="-3.981097"/>
      <trkpt lat="40.803445" lon="-3.981799">
        <ele>1813.779905</ele>
        <time>2021-09-15T21:45:15.000Z</time>
      </trkpt>
      <trkpt lat="40.803196" lon="-3.982265">
        <ele>1813.747268</ele>
        <time>2021-09-15T21:45:15.000Z</time>
      </trkpt>
      <trkpt lat="40.802885" lon="-3.982667">
        <ele>1813.795025</ele>
        <time>2021-09-15T21:45:15.000Z</time>
      </trkpt>
      <trkpt lat="40.802827" lon="-3.98273"/>
      <trkpt lat="40.802481" lon="-3.983101">
        <ele>1813.866929</ele>
        <time>2021-09-15T21:45:15.000Z</time>
      </trkpt>
      <trkpt lat="40.802352" lon="-3.983204">
        <ele>1813.887743</ele>
        <time>2021-09-15T21:45:15.000Z</time>
      </trkpt>
      <trkpt lat="40.802181" lon="-3.983384">
        <ele>1813.917935</ele>
        <time>2021-09-15T21:45:15.000Z</time>
      </trkpt>
      <trkpt lat="40.80185" lon="-3.983919"/>
      <trkpt lat="40.801625" lon="-3.984473">
        <ele>1814.358686</ele>
        <time>2021-09-15T21:45:15.000Z</time>
      </trkpt>
      <trkpt lat="40.801478" lon="-3.984877">
        <ele>1814.625169</ele>
        <time>2021-09-15T21:45:15.000Z</time>
      </trkpt>
      <trkpt lat="40.801452" lon="-3.984982">
        <ele>1814.690846</ele>
        <time>2021-09-15T21:45:15.000Z</time>
      </trkpt>
      <trkpt lat="40.801252" lon="-3.985339">
        <ele>1814.954883</ele>
        <time>2021-09-15T21:45:15.000Z</time>
      </trkpt>
      <trkpt lat="40.800962" lon="-3.985552">
        <ele>1815.215472</ele>
        <time>2021-09-15T21:45:15.000Z</time>
      </trkpt>
      <trkpt lat="40.800717" lon="-3.985582">
        <ele>1815.406441</ele>
        <time>2021-09-15T21:45:15.000Z</time>
      </trkpt>
      <trkpt lat="40.800639" lon="-3.985571">
        <ele>1815.439290</ele>
        <time>2021-09-15T21:45:15.000Z</time>
      </trkpt>
      <trkpt lat="40.800344" lon="-3.985495">
        <ele>1815.565150</ele>
        <time>2021-09-15T21:45:15.000Z</time>
      </trkpt>
      <trkpt lat="40.800269" lon="-3.985481">
        <ele>1815.596868</ele>
        <time>2021-09-15T21:45:15.000Z</time>
      </trkpt>
      <trkpt lat="40.79983" lon="-3.985532"/>
      <trkpt lat="40.799547" lon="-3.985599">
        <ele>1815.901807</ele>
        <time>2021-09-15T21:45:15.000Z</time>
      </trkpt>
      <trkpt lat="40.799258" lon="-3.985677">
        <ele>1816.025327</ele>
        <time>2021-09-15T21:45:15.000Z</time>
      </trkpt>
      <trkpt lat="40.798831" lon="-3.985806">
        <ele>1816.178607</ele>
        <time>2021-09-15T21:45:15.000Z</time>
      </trkpt>
      <trkpt lat="40.798608" lon="-3.985833">
        <ele>1816.217715</ele>
        <time>2021-09-15T21:45:15.000Z</time>
      </trkpt>
      <trkpt lat="40.798533" lon="-3.98583"/>
      <trkpt lat="40.798241" lon="-3.985731">
        <ele>1816.283467</ele>
        <time>2021-09-15T21:45:15.000Z</time>
      </trkpt>
      <trkpt lat="40.798116" lon="-3.985618">
        <ele>1816.309920</ele>
        <time>2021-09-15T21:45:15.000Z</time>
      </trkpt>
      <trkpt lat="40.798016" lon="-3.985473">
        <ele>1816.335852</ele>
        <time>2021-09-15T21:45:15.000Z</time>
      </trkpt>
      <trkpt lat="40.797802" lon="-3.985231">
        <ele>1816.385049</ele>
        <time>2021-09-15T21:45:15.000Z</time>
      </trkpt>
      <trkpt lat="40.797624" lon="-3.985162">
        <ele>1816.417446</ele>
        <time>2021-09-15T21:45:15.000Z</time>
      </trkpt>
      <trkpt lat="40.797566" lon="-3.985164">
        <ele>1816.427578</ele>
        <time>2021-09-15T21:45:15.000Z</time>
      </trkpt>
      <trkpt lat="40.797456" lon="-3.985182">
        <ele>1816.446936</ele>
        <time>2021-09-15T21:45:15.000Z</time>
      </trkpt>
      <trkpt lat="40.797369" lon="-3.985218">
        <ele>1816.462857</ele>
        <time>2021-09-15T21:45:15.000Z</time>
      </trkpt>
      <trkpt lat="40.797218" lon="-3.985302">
        <ele>1816.444788</ele>
        <time>2021-09-15T21:45:15.000Z</time>
      </trkpt>
      <trkpt lat="40.797196" lon="-3.985309">
        <ele>1816.439658</ele>
        <time>2021-09-15T21:45:15.000Z</time>
      </trkpt>
      <trkpt lat="40.797145" lon="-3.985301">
        <ele>1816.428014</ele>
        <time>2021-09-15T21:45:15.000Z</time>
      </trkpt>
      <trkpt lat="40.797149" lon="-3.985289">
        <ele>1816.425764</ele>
        <time>2021-09-15T21:45:15.000Z</time>
      </trkpt>
      <trkpt lat="40.797113" lon="-3.985233">
        <ele>1816.413155</ele>
        <time>2021-09-15T21:45:15.000Z</time>
      </trkpt>
      <trkpt lat="40.796981" lon="-3.9852"/>
      <trkpt lat="40.796933" lon="-3.985205">
        <ele>1816.371783</ele>
        <time>2021-09-15T21:45:15.000Z</time>
      </trkpt>
      <trkpt lat="40.79666" lon="-3.985275"/>
      <trkpt lat="40.796601" lon="-3.985293">
        <ele>1816.295009</ele>
        <time>2021-09-15T21:45:15.000Z</time>
      </trkpt>
      <trkpt lat="40.796375" lon="-3.985437">
        <ele>1816.238123</ele>
        <time>2021-09-15T21:45:15.000Z</time>
      </trkpt>
      <trkpt lat="40.796286" lon="-3.985552">
        <ele>1816.209898</ele>
        <time>2021-09-15T21:45:15.000Z</time>
      </trkpt>
      <trkpt lat="40.796141" lon="-3.985833">
        <ele>1816.151533</ele>
        <time>2021-09-15T21:45:15.000Z</time>
      </trkpt>
      <trkpt lat="40.795991" lon="-3.986348">
        <ele>1816.060767</ele>
        <time>2021-09-15T21:45:15.000Z</time>
      </trkpt>
      <trkpt lat="40.795846" lon="-3.986977">
        <ele>1816.015647</ele>
        <time>2021-09-15T21:45:15.000Z</time>
      </trkpt>
      <trkpt lat="40.795821" lon="-3.987069">
        <ele>1816.008939</ele>
        <time>2021-09-15T21:45:15.000Z</time>
      </trkpt>
      <trkpt lat="40.795675" lon="-3.987404">
        <ele>1815.982414</ele>
        <time>2021-09-15T21:45:15.000Z</time>
      </trkpt>
      <trkpt lat="40.795493" lon="-3.987572">
        <ele>1815.962287</ele>
        <time>2021-09-15T21:45:15.000Z</time>
      </trkpt>
      <trkpt lat="40.795426" lon="-3.987614">
        <ele>1815.955565</ele>
        <time>2021-09-15T21:45:15.000Z</time>
      </trkpt>
      <trkpt lat="40.79522" lon="-3.987692"/>
      <trkpt lat="40.795148" lon="-3.987706">
        <ele>1815.929543</ele>
        <time>2021-09-15T21:45:15.000Z</time>
      </trkpt>
      <trkpt lat="40.794786" lon="-3.98768"/>
      <trkpt lat="40.794506" lon="-3.987568">
        <ele>1815.918166</ele>
        <time>2021-09-15T21:45:15.000Z</time>
      </trkpt>
      <trkpt lat="40.794147" lon="-3.987224">
        <ele>1815.941887</ele>
        <time>2021-09-15T21:45:15.000Z</time>
      </trkpt>
      <trkpt lat="40.794086" lon="-3.987172">
        <ele>1815.945770</ele>
        <time>2021-09-15T21:45:15.000Z</time>
      </trkpt>
      <trkpt lat="40.793894" lon="-3.987049">
        <ele>1815.957183</ele>
        <time>2021-09-15T21:45:15.000Z</time>
      </trkpt>
      <trkpt lat="40.793626" lon="-3.987045">
        <ele>1815.971518</ele>
        <time>2021-09-15T21:45:15.000Z</time>
      </trkpt>
      <trkpt lat="40.793453" lon="-3.987178">
        <ele>1815.982225</ele>
        <time>2021-09-15T21:45:15.000Z</time>
      </trkpt>
      <trkpt lat="40.793377" lon="-3.98732"/>
      <trkpt lat="40.793276" lon="-3.987654">
        <ele>1815.991278</ele>
        <time>2021-09-15T21:45:15.000Z</time>
      </trkpt>
      <trkpt lat="40.793255" lon="-3.98774"/>
      <trkpt lat="40.793071" lon="-3.988436">
        <ele>1815.966985</ele>
        <time>2021-09-15T21:45:15.000Z</time>
      </trkpt>
      <trkpt lat="40.792918" lon="-3.988862">
        <ele>1815.953145</ele>
        <time>2021-09-15T21:45:15.000Z</time>
      </trkpt>
      <trkpt lat="40.792543" lon="-3.989344">
        <ele>1815.932857</ele>
        <time>2021-09-15T21:45:15.000Z</time>
      </trkpt>
      <trkpt lat="40.792415" lon="-3.989453">
        <ele>1815.926952</ele>
        <time>2021-09-15T21:45:15.000Z</time>
      </trkpt>
      <trkpt lat="40.792292" lon="-3.989551">
        <ele>1815.922137</ele>
        <time>2021-09-15T21:45:15.000Z</time>
      </trkpt>
      <trkpt lat="40.792161" lon="-3.989772">
        <ele>1815.915043</ele>
        <time>2021-09-15T21:45:15.000Z</time>
      </trkpt>
      <trkpt lat="40.79215" lon="-3.990036"/>
      <trkpt lat="40.792176" lon="-3.99012"/>
      <trkpt lat="40.792379" lon="-3.990531">
        <ele>1815.893663</ele>
        <time>2021-09-15T21:45:15.000Z</time>
      </trkpt>
      <trkpt lat="40.792634" lon="-3.991193">
        <ele>1815.874890</ele>
        <time>2021-09-15T21:45:15.000Z</time>
      </trkpt>
      <trkpt lat="40.792718" lon="-3.991504">
        <ele>1815.866962</ele>
        <time>2021-09-15T21:45:15.000Z</time>
      </trkpt>
      <trkpt lat="40.792737" lon="-3.99161"/>
      <trkpt lat="40.792755" lon="-3.991715">
        <ele>1815.871790</ele>
        <time>2021-09-15T21:45:15.000Z</time>
      </trkpt>
      <trkpt lat="40.79289" lon="-3.992077"/>
      <trkpt lat="40.793019" lon="-3.992189">
        <ele>1815.885332</ele>
        <time>2021-09-15T21:45:15.000Z</time>
      </trkpt>
      <trkpt lat="40.793096" lon="-3.992215">
        <ele>1815.887672</ele>
        <time>2021-09-15T21:45:15.000Z</time>
      </trkpt>
      <trkpt lat="40.793177" lon="-3.992234">
        <ele>1815.890094</ele>
        <time>2021-09-15T21:45:15.000Z</time>
      </trkpt>
      <trkpt lat="40.793423" lon="-3.992334">
        <ele>1815.897673</ele>
        <time>2021-09-15T21:45:15.000Z</time>
      </trkpt>
      <trkpt lat="40.793503" lon="-3.992388">
        <ele>1815.900318</ele>
        <time>2021-09-15T21:45:15.000Z</time>
      </trkpt>
      <trkpt lat="40.79365" lon="-3.992518"/>
      <trkpt lat="40.793776" lon="-3.992685">
        <ele>1815.910783</ele>
        <time>2021-09-15T21:45:15.000Z</time>
      </trkpt>
      <trkpt lat="40.793955" lon="-3.992964">
        <ele>1815.918935</ele>
        <time>2021-09-15T21:45:15.000Z</time>
      </trkpt>
      <trkpt lat="40.794197" lon="-3.993368">
        <ele>1816.403922</ele>
        <time>2021-09-15T21:45:15.000Z</time>
      </trkpt>
      <trkpt lat="40.794362" lon="-3.993704">
        <ele>1816.808214</ele>
        <time>2021-09-15T21:45:15.000Z</time>
      </trkpt>
      <trkpt lat="40.794411" lon="-3.993821">
        <ele>1816.943191</ele>
        <time>2021-09-15T21:45:15.000Z</time>
      </trkpt>
      <trkpt lat="40.794455" lon="-3.99394"/>
      <trkpt lat="40.794528" lon="-3.994325">
        <ele>1817.477533</ele>
        <time>2021-09-15T21:45:15.000Z</time>
      </trkpt>
      <trkpt lat="40.794507" lon="-3.994584">
        <ele>1817.740482</ele>
        <time>2021-09-15T21:45:15.000Z</time>
      </trkpt>
      <trkpt lat="40.794438" lon="-3.994828">
        <ele>1818.003417</ele>
        <time>2021-09-15T21:45:15.000Z</time>
      </trkpt>
      <trkpt lat="40.794349" lon="-3.995062">
        <ele>1818.267770</ele>
        <time>2021-09-15T21:45:15.000Z</time>
      </trkpt>
      <trkpt lat="40.794009" lon="-3.995728">
        <ele>1819.632603</ele>
        <time>2021-09-15T21:45:15.000Z</time>
      </trkpt>
      <trkpt lat="40.793689" lon="-3.996262">
        <ele>1820.820818</ele>
        <time>2021-09-15T21:45:15.000Z</time>
      </trkpt>
      <trkpt lat="40.793452" lon="-3.996546">
        <ele>1821.558267</ele>
        <time>2021-09-15T21:45:15.000Z</time>
      </trkpt>
      <trkpt lat="40.793273" lon="-3.996701">
        <ele>1822.051524</ele>
        <time>2021-09-15T21:45:15.000Z</time>
      </trkpt>
      <trkpt lat="40.79318" lon="-3.996774"/>
      <trkpt lat="40.793084" lon="-3.996843">
        <ele>1822.596590</ele>
        <time>2021-09-15T21:45:15.000Z</time>
      </trkpt>
      <trkpt lat="40.792985" lon="-3.996902">
        <ele>1822.969538</ele>
        <time>2021-09-15T21:45:15.000Z</time>
      </trkpt>
      <trkpt lat="40.792882" lon="-3.996951">
        <ele>1823.345462</ele>
        <time>2021-09-15T21:45:15.000Z</time>
      </trkpt>
      <trkpt lat="40.792677" lon="-3.997021">
        <ele>1824.072538</ele>
        <time>2021-09-15T21:45:15.000Z</time>
      </trkpt>
      <trkpt lat="40.792468" lon="-3.99705"/>
      <trkpt lat="40.792364" lon="-3.997047">
        <ele>1825.151359</ele>
        <time>2021-09-15T21:45:15.000Z</time>
      </trkpt>
      <trkpt lat="40.792265" lon="-3.997032">
        <ele>1825.493537</ele>
        <time>2021-09-15T21:45:15.000Z</time>
      </trkpt>
      <trkpt lat="40.792075" lon="-3.99697"/>
      <trkpt lat="40.791982" lon="-3.996935">
        <ele>1826.497634</ele>
        <time>2021-09-15T21:45:15.000Z</time>
      </trkpt>
      <trkpt lat="40.791707" lon="-3.996855">
        <ele>1827.464567</ele>
        <time>2021-09-15T21:45:15.000Z</time>
      </trkpt>
      <trkpt lat="40.791615" lon="-3.996839">
        <ele>1827.783206</ele>
        <time>2021-09-15T21:45:15.000Z</time>
      </trkpt>
      <trkpt lat="40.791347" lon="-3.996859">
        <ele>1828.747562</ele>
        <time>2021-09-15T21:45:15.000Z</time>
      </trkpt>
      <trkpt lat="40.791113" lon="-3.997018">
        <ele>1830.238641</ele>
        <time>2021-09-15T21:45:15.000Z</time>
      </trkpt>
      <trkpt lat="40.79089" lon="-3.997403"/>
      <trkpt lat="40.790844" lon="-3.997511">
        <ele>1832.849796</ele>
        <time>2021-09-15T21:45:15.000Z</time>
      </trkpt>
      <trkpt lat="40.79074" lon="-3.997871"/>
      <trkpt lat="40.790635" lon="-3.998537">
        <ele>1837.421207</ele>
        <time>2021-09-15T21:45:15.000Z</time>
      </trkpt>
      <trkpt lat="40.790601" lon="-3.998669">
        <ele>1838.019359</ele>
        <time>2021-09-15T21:45:15.000Z</time>
      </trkpt>
      <trkpt lat="40.79045" lon="-3.99903"/>
      <trkpt lat="40.790393" lon="-3.999145">
        <ele>1840.232793</ele>
        <time>2021-09-15T21:45:15.000Z</time>
      </trkpt>
      <trkpt lat="40.790224" lon="-3.999488">
        <ele>1841.823269</ele>
        <time>2021-09-15T21:45:15.000Z</time>
      </trkpt>
      <trkpt lat="40.790172" lon="-3.999602">
        <ele>1842.340521</ele>
        <time>2021-09-15T21:45:15.000Z</time>
      </trkpt>
      <trkpt lat="40.790024" lon="-3.999934">
        <ele>1843.837871</ele>
        <time>2021-09-15T21:45:15.000Z</time>
      </trkpt>
      <trkpt lat="40.789977" lon="-4.00004"/>
      <trkpt lat="40.789739" lon="-4.000701">
        <ele>1847.159947</ele>
        <time>2021-09-15T21:45:15.000Z</time>
      </trkpt>
      <trkpt lat="40.78951" lon="-4.001447"/>
      <trkpt lat="40.789299" lon="-4.00211"/>
      <trkpt lat="40.789226" lon="-4.00235"/>
      <trkpt lat="40.789174" lon="-4.002483">
        <ele>1854.813951</ele>
        <time>2021-09-15T21:45:15.000Z</time>
      </trkpt>
      <trkpt lat="40.789148" lon="-4.002549">
        <ele>1855.109379</ele>
        <time>2021-09-15T21:45:15.000Z</time>
      </trkpt>
      <trkpt lat="40.789123" lon="-4.002616">
        <ele>1855.405979</ele>
        <time>2021-09-15T21:45:15.000Z</time>
      </trkpt>
      <trkpt lat="40.789079" lon="-4.002747">
        <ele>1855.975047</ele>
        <time>2021-09-15T21:45:15.000Z</time>
      </trkpt>
      <trkpt lat="40.789056" lon="-4.0028"/>
      <trkpt lat="40.789021" lon="-4.002836">
        <ele>1856.450280</ele>
        <time>2021-09-15T21:45:15.000Z</time>
      </trkpt>
      <trkpt lat="40.788974" lon="-4.002852">
        <ele>1856.704834</ele>
        <time>2021-09-15T21:45:15.000Z</time>
      </trkpt>
      <trkpt lat="40.788911" lon="-4.002858">
        <ele>1857.036106</ele>
        <time>2021-09-15T21:45:15.000Z</time>
      </trkpt>
      <trkpt lat="40.788836" lon="-4.002856">
        <ele>1857.429535</ele>
        <time>2021-09-15T21:45:15.000Z</time>
      </trkpt>
      <trkpt lat="40.78875" lon="-4.002827"/>
      <trkpt lat="40.788661" lon="-4.002771">
        <ele>1859.676139</ele>
        <time>2021-09-15T21:45:15.000Z</time>
      </trkpt>
      <trkpt lat="40.788505" lon="-4.002652">
        <ele>1861.926476</ele>
        <time>2021-09-15T21:45:15.000Z</time>
      </trkpt>
      <trkpt lat="40.788369" lon="-4.002568">
        <ele>1863.801905</ele>
        <time>2021-09-15T21:45:15.000Z</time>
      </trkpt>
      <trkpt lat="40.788247" lon="-4.002512">
        <ele>1865.415282</ele>
        <time>2021-09-15T21:45:15.000Z</time>
      </trkpt>
      <trkpt lat="40.788194" lon="-4.002487">
        <ele>1866.118288</ele>
        <time>2021-09-15T21:45:15.000Z</time>
      </trkpt>
      <trkpt lat="40.78815" lon="-4.002461"/>
      <trkpt lat="40.78812" lon="-4.002433"/>
      <trkpt lat="40.788097" lon="-4.002377">
        <ele>1867.781827</ele>
        <time>2021-09-15T21:45:15.000Z</time>
      </trkpt>
      <trkpt lat="40.788104" lon="-4.00235"/>
      <trkpt lat="40.78819" lon="-4.002266"/>
      <trkpt lat="40.788237" lon="-4.002115">
        <ele>1870.931944</ele>
        <time>2021-09-15T21:45:15.000Z</time>
      </trkpt>
      <trkpt lat="40.788184" lon="-4.00191"/>
      <trkpt lat="40.788176" lon="-4.001893">
        <ele>1873.170001</ele>
        <time>2021-09-15T21:45:15.000Z</time>
      </trkpt>
      <trkpt lat="40.788168" lon="-4.001875">
        <ele>1873.367404</ele>
        <time>2021-09-15T21:45:15.000Z</time>
      </trkpt>
      <trkpt lat="40.78816" lon="-4.001858"/>
      <trkpt lat="40.788151" lon="-4.001841">
        <ele>1873.752899</ele>
        <time>2021-09-15T21:45:15.000Z</time>
      </trkpt>
      <trkpt lat="40.788143" lon="-4.001823">
        <ele>1873.950301</ele>
        <time>2021-09-15T21:45:15.000Z</time>
      </trkpt>
      <trkpt lat="40.788124" lon="-4.001793">
        <ele>1874.320212</ele>
        <time>2021-09-15T21:45:15.000Z</time>
      </trkpt>
      <trkpt lat="40.788104" lon="-4.001762">
        <ele>1874.705407</ele>
        <time>2021-09-15T21:45:15.000Z</time>
      </trkpt>
      <trkpt lat="40.788075" lon="-4.001713">
        <ele>1875.293620</ele>
        <time>2021-09-15T21:45:15.000Z</time>
      </trkpt>
      <trkpt lat="40.78804" lon="-4.001652"/>
      <trkpt lat="40.788006" lon="-4.001572">
        <ele>1876.885160</ele>
        <time>2021-09-15T21:45:15.000Z</time>
      </trkpt>
      <trkpt lat="40.787974" lon="-4.001474">
        <ele>1877.894541</ele>
        <time>2021-09-15T21:45:15.000Z</time>
      </trkpt>
      <trkpt lat="40.78794" lon="-4.00136"/>
      <trkpt lat="40.787902" lon="-4.001232">
        <ele>1880.458822</ele>
        <time>2021-09-15T21:45:15.000Z</time>
      </trkpt>
      <trkpt lat="40.787865" lon="-4.001094">
        <ele>1882.218005</ele>
        <time>2021-09-15T21:45:15.000Z</time>
      </trkpt>
      <trkpt lat="40.787829" lon="-4.000948">
        <ele>1884.063108</ele>
        <time>2021-09-15T21:45:15.000Z</time>
      </trkpt>
      <trkpt lat="40.787794" lon="-4.000794">
        <ele>1885.995226</ele>
        <time>2021-09-15T21:45:15.000Z</time>
      </trkpt>
      <trkpt lat="40.787762" lon="-4.000631">
        <ele>1888.018692</ele>
        <time>2021-09-15T21:45:15.000Z</time>
      </trkpt>
      <trkpt lat="40.787733" lon="-4.000462">
        <ele>1890.100989</ele>
        <time>2021-09-15T21:45:15.000Z</time>
      </trkpt>
      <trkpt lat="40.78771" lon="-4.000286"/>
      <trkpt lat="40.787689" lon="-4.0001"/>
      <trkpt lat="40.78767" lon="-3.999903"/>
      <trkpt lat="40.787654" lon="-3.999702">
        <ele>1899.321985</ele>
        <time>2021-09-15T21:45:15.000Z</time>
      </trkpt>
      <trkpt lat="40.787603" lon="-3.999313">
        <ele>1904.065986</ele>
        <time>2021-09-15T21:45:15.000Z</time>
      </trkpt>
      <trkpt lat="40.787556" lon="-3.999123">
        <ele>1906.467898</ele>
        <time>2021-09-15T21:45:15.000Z</time>
      </trkpt>
      <trkpt lat="40.787419" lon="-3.998756">
        <ele>1910.996007</ele>
        <time>2021-09-15T21:45:15.000Z</time>
      </trkpt>
      <trkpt lat="40.787341" lon="-3.998576">
        <ele>1913.150929</ele>
        <time>2021-09-15T21:45:15.000Z</time>
      </trkpt>
      <trkpt lat="40.787264" lon="-3.998396">
        <ele>1915.299069</ele>
        <time>2021-09-15T21:45:15.000Z</time>
      </trkpt>
      <trkpt lat="40.787125" lon="-3.998051">
        <ele>1919.359697</ele>
        <time>2021-09-15T21:45:15.000Z</time>
      </trkpt>
      <trkpt lat="40.787065" lon="-3.997885">
        <ele>1921.270967</ele>
        <time>2021-09-15T21:45:15.000Z</time>
      </trkpt>
      <trkpt lat="40.78701" lon="-3.997723"/>
      <trkpt lat="40.786878" lon="-3.99743"/>
      <trkpt lat="40.786695" lon="-3.997196">
        <ele>1930.153756</ele>
        <time>2021-09-15T21:45:15.000Z</time>
      </trkpt>
      <trkpt lat="40.78659" lon="-3.997105"/>
      <trkpt lat="40.786484" lon="-3.997028">
        <ele>1933.543545</ele>
        <time>2021-09-15T21:45:15.000Z</time>
      </trkpt>
      <trkpt lat="40.78627" lon="-3.996917"/>
      <trkpt lat="40.786165" lon="-3.996878">
        <ele>1938.279033</ele>
        <time>2021-09-15T21:45:15.000Z</time>
      </trkpt>
      <trkpt lat="40.785971" lon="-3.99681"/>
      <trkpt lat="40.785882" lon="-3.996785">
        <ele>1942.354063</ele>
        <time>2021-09-15T21:45:15.000Z</time>
      </trkpt>
      <trkpt lat="40.785802" lon="-3.996767">
        <ele>1943.487734</ele>
        <time>2021-09-15T21:45:15.000Z</time>
      </trkpt>
      <trkpt lat="40.785729" lon="-3.996756">
        <ele>1944.514132</ele>
        <time>2021-09-15T21:45:15.000Z</time>
      </trkpt>
      <trkpt lat="40.785661" lon="-3.996752">
        <ele>1945.465007</ele>
        <time>2021-09-15T21:45:15.000Z</time>
      </trkpt>
      <trkpt lat="40.785601" lon="-3.99675"/>
      <trkpt lat="40.785549" lon="-3.99675"/>
      <trkpt lat="40.785504" lon="-3.996746">
        <ele>1947.659927</ele>
        <time>2021-09-15T21:45:15.000Z</time>
      </trkpt>
      <trkpt lat="40.785468" lon="-3.996724">
        <ele>1948.214060</ele>
        <time>2021-09-15T21:45:15.000Z</time>
      </trkpt>
      <trkpt lat="40.785454" lon="-3.996685">
        <ele>1948.670587</ele>
        <time>2021-09-15T21:45:15.000Z</time>
      </trkpt>
      <trkpt lat="40.785466" lon="-3.996641">
        <ele>1949.165256</ele>
        <time>2021-09-15T21:45:15.000Z</time>
      </trkpt>
      <trkpt lat="40.785503" lon="-3.996605">
        <ele>1949.807249</ele>
        <time>2021-09-15T21:45:15.000Z</time>
      </trkpt>
      <trkpt lat="40.785564" lon="-3.996572">
        <ele>1950.728112</ele>
        <time>2021-09-15T21:45:15.000Z</time>
      </trkpt>
      <trkpt lat="40.785648" lon="-3.996536">
        <ele>1951.961795</ele>
        <time>2021-09-15T21:45:15.000Z</time>
      </trkpt>
      <trkpt lat="40.78587" lon="-3.996417"/>
      <trkpt lat="40.78599" lon="-3.996341"/>
      <trkpt lat="40.786108" lon="-3.996263">
        <ele>1959.027576</ele>
        <time>2021-09-15T21:45:15.000Z</time>
      </trkpt>
      <trkpt lat="40.786339" lon="-3.99612"/>
      <trkpt lat="40.786459" lon="-3.996066">
        <ele>1964.488826</ele>
        <time>2021-09-15T21:45:15.000Z</time>
      </trkpt>
      <trkpt lat="40.786577" lon="-3.996025">
        <ele>1966.233713</ele>
        <time>2021-09-15T21:45:15.000Z</time>
      </trkpt>
      <trkpt lat="40.786805" lon="-3.995953">
        <ele>1969.586153</ele>
        <time>2021-09-15T21:45:15.000Z</time>
      </trkpt>
      <trkpt lat="40.786911" lon="-3.995917">
        <ele>1971.151331</ele>
        <time>2021-09-15T21:45:15.000Z</time>
      </trkpt>
      <trkpt lat="40.787117" lon="-3.995876">
        <ele>1974.130514</ele>
        <time>2021-09-15T21:45:15.000Z</time>
      </trkpt>
      <trkpt lat="40.787219" lon="-3.995885">
        <ele>1975.592426</ele>
        <time>2021-09-15T21:45:15.000Z</time>
      </trkpt>
      <trkpt lat="40.787428" lon="-3.995871">
        <ele>1978.585092</ele>
        <time>2021-09-15T21:45:15.000Z</time>
      </trkpt>
      <trkpt lat="40.787525" lon="-3.995821">
        <ele>1980.074150</ele>
        <time>2021-09-15T21:45:15.000Z</time>
      </trkpt>
      <trkpt lat="40.78769" lon="-3.995677"/>
      <trkpt lat="40.787761" lon="-3.995605">
        <ele>1984.163082</ele>
        <time>2021-09-15T21:45:15.000Z</time>
      </trkpt>
      <trkpt lat="40.787823" lon="-3.995538">
        <ele>1985.149974</ele>
        <time>2021-09-15T21:45:15.000Z</time>
      </trkpt>
      <trkpt lat="40.787879" lon="-3.995479">
        <ele>1986.032472</ele>
        <time>2021-09-15T21:45:15.000Z</time>
      </trkpt>
      <trkpt lat="40.787925" lon="-3.995425">
        <ele>1986.790655</ele>
        <time>2021-09-15T21:45:15.000Z</time>
      </trkpt>
      <trkpt lat="40.787951" lon="-3.995372">
        <ele>1987.379708</ele>
        <time>2021-09-15T21:45:15.000Z</time>
      </trkpt>
      <trkpt lat="40.787947" lon="-3.995323">
        <ele>1987.839403</ele>
        <time>2021-09-15T21:45:15.000Z</time>
      </trkpt>
      <trkpt lat="40.787917" lon="-3.995284">
        <ele>1988.357981</ele>
        <time>2021-09-15T21:45:15.000Z</time>
      </trkpt>
      <trkpt lat="40.787867" lon="-3.995266">
        <ele>1988.996426</ele>
        <time>2021-09-15T21:45:15.000Z</time>
      </trkpt>
      <trkpt lat="40.787802" lon="-3.995269">
        <ele>1989.797680</ele>
        <time>2021-09-15T21:45:15.000Z</time>
      </trkpt>
      <trkpt lat="40.787731" lon="-3.995272">
        <ele>1990.672810</ele>
        <time>2021-09-15T21:45:15.000Z</time>
      </trkpt>
      <trkpt lat="40.787646" lon="-3.995261">
        <ele>1991.724980</ele>
        <time>2021-09-15T21:45:15.000Z</time>
      </trkpt>
      <trkpt lat="40.787541" lon="-3.995238">
        <ele>1993.036194</ele>
        <time>2021-09-15T21:45:15.000Z</time>
      </trkpt>
      <trkpt lat="40.787411" lon="-3.995204">
        <ele>1994.668824</ele>
        <time>2021-09-15T21:45:15.000Z</time>
      </trkpt>
      <trkpt lat="40.787094" lon="-3.995114">
        <ele>1998.663306</ele>
        <time>2021-09-15T21:45:15.000Z</time>
      </trkpt>
      <trkpt lat="40.786768" lon="-3.995004">
        <ele>2002.808448</ele>
        <time>2021-09-15T21:45:15.000Z</time>
      </trkpt>
      <trkpt lat="40.786614" lon="-3.994942">
        <ele>2004.791832</ele>
        <time>2021-09-15T21:45:15.000Z</time>
      </trkpt>
      <trkpt lat="40.786463" lon="-3.994885">
        <ele>2006.668150</ele>
        <time>2021-09-15T21:45:15.000Z</time>
      </trkpt>
      <trkpt lat="40.786316" lon="-3.994847">
        <ele>2008.308384</ele>
        <time>2021-09-15T21:45:15.000Z</time>
      </trkpt>
      <trkpt lat="40.786172" lon="-3.994823">
        <ele>2009.897730</ele>
        <time>2021-09-15T21:45:15.000Z</time>
      </trkpt>
      <trkpt lat="40.786026" lon="-3.994801">
        <ele>2011.506843</ele>
        <time>2021-09-15T21:45:15.000Z</time>
      </trkpt>
      <trkpt lat="40.78588" lon="-3.994778"/>
      <trkpt lat="40.785736" lon="-3.994749">
        <ele>2014.711983</ele>
        <time>2021-09-15T21:45:15.000Z</time>
      </trkpt>
      <trkpt lat="40.785595" lon="-3.994719">
        <ele>2016.275880</ele>
        <time>2021-09-15T21:45:15.000Z</time>
      </trkpt>
      <trkpt lat="40.785321" lon="-3.994653">
        <ele>2019.325750</ele>
        <time>2021-09-15T21:45:15.000Z</time>
      </trkpt>
      <trkpt lat="40.785186" lon="-3.994606">
        <ele>2020.854536</ele>
        <time>2021-09-15T21:45:15.000Z</time>
      </trkpt>
      <trkpt lat="40.784915" lon="-3.994478">
        <ele>2024.006124</ele>
        <time>2021-09-15T21:45:15.000Z</time>
      </trkpt>
      <trkpt lat="40.784785" lon="-3.994401">
        <ele>2025.566265</ele>
        <time>2021-09-15T21:45:15.000Z</time>
      </trkpt>
      <trkpt lat="40.784663" lon="-3.994317">
        <ele>2027.181346</ele>
        <time>2021-09-15T21:45:15.000Z</time>
      </trkpt>
      <trkpt lat="40.784543" lon="-3.994232">
        <ele>2028.809992</ele>
        <time>2021-09-15T21:45:15.000Z</time>
      </trkpt>
      <trkpt lat="40.784422" lon="-3.994158">
        <ele>2030.404835</ele>
        <time>2021-09-15T21:45:15.000Z</time>
      </trkpt>
      <trkpt lat="40.784297" lon="-3.9941"/>
      <trkpt lat="40.784169" lon="-3.994055">
        <ele>2033.573720</ele>
        <time>2021-09-15T21:45:15.000Z</time>
      </trkpt>
      <trkpt lat="40.783902" lon="-3.994011">
        <ele>2036.791918</ele>
        <time>2021-09-15T21:45:15.000Z</time>
      </trkpt>
      <trkpt lat="40.783635" lon="-3.993969">
        <ele>2040.007924</ele>
        <time>2021-09-15T21:45:15.000Z</time>
      </trkpt>
      <trkpt lat="40.783505" lon="-3.99394"/>
      <trkpt lat="40.78338" lon="-3.993904"/>
      <trkpt lat="40.783262" lon="-3.993857">
        <ele>2044.589111</ele>
        <time>2021-09-15T21:45:15.000Z</time>
      </trkpt>
      <trkpt lat="40.783156" lon="-3.993799">
        <ele>2045.961421</ele>
        <time>2021-09-15T21:45:15.000Z</time>
      </trkpt>
      <trkpt lat="40.78306" lon="-3.993735"/>
      <trkpt lat="40.782974" lon="-3.99367"/>
      <trkpt lat="40.782847" lon="-3.993522">
        <ele>2051.481924</ele>
        <time>2021-09-15T21:45:15.000Z</time>
      </trkpt>
      <trkpt lat="40.78281" lon="-3.993435"/>
      <trkpt lat="40.782801" lon="-3.993338">
        <ele>2053.870947</ele>
        <time>2021-09-15T21:45:15.000Z</time>
      </trkpt>
      <trkpt lat="40.782822" lon="-3.993238">
        <ele>2055.126180</ele>
        <time>2021-09-15T21:45:15.000Z</time>
      </trkpt>
      <trkpt lat="40.782871" lon="-3.993149">
        <ele>2056.457194</ele>
        <time>2021-09-15T21:45:15.000Z</time>
      </trkpt>
      <trkpt lat="40.782945" lon="-3.993086">
        <ele>2057.863638</ele>
        <time>2021-09-15T21:45:15.000Z</time>
      </trkpt>
      <trkpt lat="40.783028" lon="-3.993055">
        <ele>2059.241524</ele>
        <time>2021-09-15T21:45:15.000Z</time>
      </trkpt>
      <trkpt lat="40.783109" lon="-3.993047">
        <ele>2060.539073</ele>
        <time>2021-09-15T21:45:15.000Z</time>
      </trkpt>
      <trkpt lat="40.783181" lon="-3.993046">
        <ele>2061.689301</ele>
        <time>2021-09-15T21:45:15.000Z</time>
      </trkpt>
      <trkpt lat="40.783243" lon="-3.993017">
        <ele>2062.740003</ele>
        <time>2021-09-15T21:45:15.000Z</time>
      </trkpt>
      <trkpt lat="40.783287" lon="-3.992954">
        <ele>2063.776692</ele>
        <time>2021-09-15T21:45:15.000Z</time>
      </trkpt>
      <trkpt lat="40.783297" lon="-3.992869">
        <ele>2064.817160</ele>
        <time>2021-09-15T21:45:15.000Z</time>
      </trkpt>
      <trkpt lat="40.783282" lon="-3.992777">
        <ele>2065.955468</ele>
        <time>2021-09-15T21:45:15.000Z</time>
      </trkpt>
      <trkpt lat="40.783225" lon="-3.992566">
        <ele>2068.665221</ele>
        <time>2021-09-15T21:45:15.000Z</time>
      </trkpt>
      <trkpt lat="40.783215" lon="-3.992452">
        <ele>2070.053351</ele>
        <time>2021-09-15T21:45:15.000Z</time>
      </trkpt>
      <trkpt lat="40.783219" lon="-3.992335">
        <ele>2071.469988</ele>
        <time>2021-09-15T21:45:15.000Z</time>
      </trkpt>
      <trkpt lat="40.783226" lon="-3.992203">
        <ele>2073.070529</ele>
        <time>2021-09-15T21:45:15.000Z</time>
      </trkpt>
      <trkpt lat="40.783232" lon="-3.992057">
        <ele>2074.839097</ele>
        <time>2021-09-15T21:45:15.000Z</time>
      </trkpt>
      <trkpt lat="40.783237" lon="-3.99191"/>
      <trkpt lat="40.783243" lon="-3.991526">
        <ele>2082.026077</ele>
        <time>2021-09-15T21:45:15.000Z</time>
      </trkpt>
      <trkpt lat="40.783263" lon="-3.991431">
        <ele>2083.396012</ele>
        <time>2021-09-15T21:45:15.000Z</time>
      </trkpt>
      <trkpt lat="40.783297" lon="-3.991374">
        <ele>2084.404145</ele>
        <time>2021-09-15T21:45:15.000Z</time>
      </trkpt>
      <trkpt lat="40.783343" lon="-3.991356">
        <ele>2085.284452</ele>
        <time>2021-09-15T21:45:15.000Z</time>
      </trkpt>
      <trkpt lat="40.78345" lon="-3.991438"/>
      <trkpt lat="40.783508" lon="-3.991509">
        <ele>2089.005427</ele>
        <time>2021-09-15T21:45:15.000Z</time>
      </trkpt>
      <trkpt lat="40.783561" lon="-3.991586">
        <ele>2090.451163</ele>
        <time>2021-09-15T21:45:15.000Z</time>
      </trkpt>
      <trkpt lat="40.783604" lon="-3.991655">
        <ele>2091.692731</ele>
        <time>2021-09-15T21:45:15.000Z</time>
      </trkpt>
      <trkpt lat="40.783641" lon="-3.991704">
        <ele>2092.654165</ele>
        <time>2021-09-15T21:45:15.000Z</time>
      </trkpt>
      <trkpt lat="40.78368" lon="-3.991722"/>
      <trkpt lat="40.783718" lon="-3.991701">
        <ele>2094.168031</ele>
        <time>2021-09-15T21:45:15.000Z</time>
      </trkpt>
      <trkpt lat="40.783741" lon="-3.991641">
        <ele>2095.102366</ele>
        <time>2021-09-15T21:45:15.000Z</time>
      </trkpt>
      <trkpt lat="40.783755" lon="-3.991331">
        <ele>2099.416926</ele>
        <time>2021-09-15T21:45:15.000Z</time>
      </trkpt>
      <trkpt lat="40.783806" lon="-3.991173">
        <ele>2101.803197</ele>
        <time>2021-09-15T21:45:15.000Z</time>
      </trkpt>
      <trkpt lat="40.783892" lon="-3.991165">
        <ele>2103.385092</ele>
        <time>2021-09-15T21:45:15.000Z</time>
      </trkpt>
      <trkpt lat="40.783933" lon="-3.991207">
        <ele>2104.337162</ele>
        <time>2021-09-15T21:45:15.000Z</time>
      </trkpt>
      <trkpt lat="40.783999" lon="-3.991339">
        <ele>2106.534830</ele>
        <time>2021-09-15T21:45:15.000Z</time>
      </trkpt>
      <trkpt lat="40.784028" lon="-3.991402">
        <ele>2107.559155</ele>
        <time>2021-09-15T21:45:15.000Z</time>
      </trkpt>
      <trkpt lat="40.784124" lon="-3.991522">
        <ele>2109.923762</ele>
        <time>2021-09-15T21:45:15.000Z</time>
      </trkpt>
      <trkpt lat="40.784191" lon="-3.991451">
        <ele>2111.386003</ele>
        <time>2021-09-15T21:45:15.000Z</time>
      </trkpt>
      <trkpt lat="40.784189" lon="-3.991285">
        <ele>2113.525823</ele>
        <time>2021-09-15T21:45:15.000Z</time>
      </trkpt>
      <trkpt lat="40.784178" lon="-3.991213">
        <ele>2114.472523</ele>
        <time>2021-09-15T21:45:15.000Z</time>
      </trkpt>
      <trkpt lat="40.784176" lon="-3.991193">
        <ele>2114.732538</ele>
        <time>2021-09-15T21:45:15.000Z</time>
      </trkpt>
      <trkpt lat="40.784173" lon="-3.991172">
        <ele>2115.007980</ele>
        <time>2021-09-15T21:45:15.000Z</time>
      </trkpt>
      <trkpt lat="40.784171" lon="-3.991152">
        <ele>2115.267995</ele>
        <time>2021-09-15T21:45:15.000Z</time>
      </trkpt>
      <trkpt lat="40.784168" lon="-3.991131">
        <ele>2115.543436</ele>
        <time>2021-09-15T21:45:15.000Z</time>
      </trkpt>
      <trkpt lat="40.784168" lon="-3.991098">
        <ele>2115.968769</ele>
        <time>2021-09-15T21:45:15.000Z</time>
      </trkpt>
      <trkpt lat="40.784171" lon="-3.991062">
        <ele>2116.435569</ele>
        <time>2021-09-15T21:45:15.000Z</time>
      </trkpt>
      <trkpt lat="40.784176" lon="-3.991005">
        <ele>2117.175147</ele>
        <time>2021-09-15T21:45:15.000Z</time>
      </trkpt>
      <trkpt lat="40.784185" lon="-3.990924">
        <ele>2118.230325</ele>
        <time>2021-09-15T21:45:15.000Z</time>
      </trkpt>
      <trkpt lat="40.784201" lon="-3.99082"/>
      <trkpt lat="40.78423" lon="-3.990692"/>
      <trkpt lat="40.784273" lon="-3.990554">
        <ele>2123.243580</ele>
        <time>2021-09-15T21:45:15.000Z</time>
      </trkpt>
      <trkpt lat="40.784332" lon="-3.990415">
        <ele>2125.297427</ele>
        <time>2021-09-15T21:45:15.000Z</time>
      </trkpt>
      <trkpt lat="40.784476" lon="-3.990107">
        <ele>2129.962978</ele>
        <time>2021-09-15T21:45:15.000Z</time>
      </trkpt>
      <trkpt lat="40.784548" lon="-3.98995"/>
      <trkpt lat="40.784618" lon="-3.989795">
        <ele>2134.654863</ele>
        <time>2021-09-15T21:45:15.000Z</time>
      </trkpt>
      <trkpt lat="40.784733" lon="-3.989484">
        <ele>2139.115732</ele>
        <time>2021-09-15T21:45:15.000Z</time>
      </trkpt>
      <trkpt lat="40.784784" lon="-3.989333">
        <ele>2140.817143</ele>
        <time>2021-09-15T21:45:15.000Z</time>
      </trkpt>
      <trkpt lat="40.784872" lon="-3.989041">
        <ele>2143.696224</ele>
        <time>2021-09-15T21:45:15.000Z</time>
      </trkpt>
      <trkpt lat="40.784946" lon="-3.988761">
        <ele>2146.413034</ele>
        <time>2021-09-15T21:45:15.000Z</time>
      </trkpt>
      <trkpt lat="40.784979" lon="-3.988625">
        <ele>2147.721324</ele>
        <time>2021-09-15T21:45:15.000Z</time>
      </trkpt>
      <trkpt lat="40.785083" lon="-3.98824"/>
      <trkpt lat="40.785106" lon="-3.988126">
        <ele>2152.546767</ele>
        <time>2021-09-15T21:45:15.000Z</time>
      </trkpt>
      <trkpt lat="40.785138" lon="-3.987912">
        <ele>2154.545054</ele>
        <time>2021-09-15T21:45:15.000Z</time>
      </trkpt>
      <trkpt lat="40.785142" lon="-3.987818">
        <ele>2155.407532</ele>
        <time>2021-09-15T21:45:15.000Z</time>
      </trkpt>
      <trkpt lat="40.78514" lon="-3.987735"/>
      <trkpt lat="40.78514" lon="-3.987604"/>
      <trkpt lat="40.785181" lon="-3.987513">
        <ele>2158.338400</ele>
        <time>2021-09-15T21:45:15.000Z</time>
      </trkpt>
      <trkpt lat="40.785298" lon="-3.987594">
        <ele>2159.936663</ele>
        <time>2021-09-15T21:45:15.000Z</time>
      </trkpt>
      <trkpt lat="40.785317" lon="-3.987662">
        <ele>2160.600661</ele>
        <time>2021-09-15T21:45:15.000Z</time>
      </trkpt>
      <trkpt lat="40.785377" lon="-3.988137">
        <ele>2164.232693</ele>
        <time>2021-09-15T21:45:15.000Z</time>
      </trkpt>
      <trkpt lat="40.785393" lon="-3.988293">
        <ele>2165.352661</ele>
        <time>2021-09-15T21:45:15.000Z</time>
      </trkpt>
      <trkpt lat="40.785405" lon="-3.988427">
        <ele>2166.312622</ele>
        <time>2021-09-15T21:45:15.000Z</time>
      </trkpt>
      <trkpt lat="40.78543" lon="-3.988518"/>
      <trkpt lat="40.78545" lon="-3.988544"/>
      <trkpt lat="40.785472" lon="-3.988556">
        <ele>2167.488652</ele>
        <time>2021-09-15T21:45:15.000Z</time>
      </trkpt>
      <trkpt lat="40.785502" lon="-3.988557">
        <ele>2167.770623</ele>
        <time>2021-09-15T21:45:15.000Z</time>
      </trkpt>
      <trkpt lat="40.785503" lon="-3.988559">
        <ele>2167.787674</ele>
        <time>2021-09-15T21:45:15.000Z</time>
      </trkpt>
      <trkpt lat="40.785507" lon="-3.988555">
        <ele>2167.834816</ele>
        <time>2021-09-15T21:45:15.000Z</time>
      </trkpt>
      <trkpt lat="40.785515" lon="-3.988531">
        <ele>2168.021372</ele>
        <time>2021-09-15T21:45:15.000Z</time>
      </trkpt>
      <trkpt lat="40.785517" lon="-3.988485">
        <ele>2168.349169</ele>
        <time>2021-09-15T21:45:15.000Z</time>
      </trkpt>
      <trkpt lat="40.78551" lon="-3.988413"/>
      <trkpt lat="40.785496" lon="-3.9883"/>
      <trkpt lat="40.785475" lon="-3.988145">
        <ele>2170.800440</ele>
        <time>2021-09-15T21:45:15.000Z</time>
      </trkpt>
      <trkpt lat="40.785455" lon="-3.987958">
        <ele>2172.144020</ele>
        <time>2021-09-15T21:45:15.000Z</time>
      </trkpt>
      <trkpt lat="40.785443" lon="-3.987757">
        <ele>2173.578432</ele>
        <time>2021-09-15T21:45:15.000Z</time>
      </trkpt>
      <trkpt lat="40.785437" lon="-3.987555">
        <ele>2175.016626</ele>
        <time>2021-09-15T21:45:15.000Z</time>
      </trkpt>
      <trkpt lat="40.785431" lon="-3.987355">
        <ele>2176.440603</ele>
        <time>2021-09-15T21:45:15.000Z</time>
      </trkpt>
      <trkpt lat="40.785426" lon="-3.98716"/>
      <trkpt lat="40.785422" lon="-3.986973">
        <ele>2179.452392</ele>
        <time>2021-09-15T21:45:15.000Z</time>
      </trkpt>
      <trkpt lat="40.785421" lon="-3.986794">
        <ele>2181.232117</ele>
        <time>2021-09-15T21:45:15.000Z</time>
      </trkpt>
      <trkpt lat="40.785418" lon="-3.986628">
        <ele>2182.883014</ele>
        <time>2021-09-15T21:45:15.000Z</time>
      </trkpt>
      <trkpt lat="40.785398" lon="-3.98633"/>
      <trkpt lat="40.785377" lon="-3.986055">
        <ele>2188.605457</ele>
        <time>2021-09-15T21:45:15.000Z</time>
      </trkpt>
      <trkpt lat="40.785366" lon="-3.985912">
        <ele>2190.034530</ele>
        <time>2021-09-15T21:45:15.000Z</time>
      </trkpt>
      <trkpt lat="40.785374" lon="-3.985772">
        <ele>2191.430415</ele>
        <time>2021-09-15T21:45:15.000Z</time>
      </trkpt>
      <trkpt lat="40.785404" lon="-3.985641">
        <ele>2192.791131</ele>
        <time>2021-09-15T21:45:15.000Z</time>
      </trkpt>
      <trkpt lat="40.785446" lon="-3.985515">
        <ele>2194.159889</ele>
        <time>2021-09-15T21:45:15.000Z</time>
      </trkpt>
      <trkpt lat="40.785479" lon="-3.985385">
        <ele>2195.523095</ele>
        <time>2021-09-15T21:45:15.000Z</time>
      </trkpt>
      <trkpt lat="40.785492" lon="-3.985248">
        <ele>2196.895848</ele>
        <time>2021-09-15T21:45:15.000Z</time>
      </trkpt>
      <trkpt lat="40.785486" lon="-3.985099">
        <ele>2198.379347</ele>
        <time>2021-09-15T21:45:15.000Z</time>
      </trkpt>
      <trkpt lat="40.785471" lon="-3.984943">
        <ele>2199.942806</ele>
        <time>2021-09-15T21:45:15.000Z</time>
      </trkpt>
      <trkpt lat="40.785459" lon="-3.984785">
        <ele>2201.521576</ele>
        <time>2021-09-15T21:45:15.000Z</time>
      </trkpt>
      <trkpt lat="40.785455" lon="-3.984625">
        <ele>2202.874399</ele>
        <time>2021-09-15T21:45:15.000Z</time>
      </trkpt>
      <trkpt lat="40.785459" lon="-3.984464">
        <ele>2204.119221</ele>
        <time>2021-09-15T21:45:15.000Z</time>
      </trkpt>
      <trkpt lat="40.785485" lon="-3.984141">
        <ele>2206.629317</ele>
        <time>2021-09-15T21:45:15.000Z</time>
      </trkpt>
      <trkpt lat="40.785503" lon="-3.983976">
        <ele>2207.917546</ele>
        <time>2021-09-15T21:45:15.000Z</time>
      </trkpt>
      <trkpt lat="40.785523" lon="-3.983806">
        <ele>2209.247009</ele>
        <time>2021-09-15T21:45:15.000Z</time>
      </trkpt>
      <trkpt lat="40.785542" lon="-3.983634">
        <ele>2210.590235</ele>
        <time>2021-09-15T21:45:15.000Z</time>
      </trkpt>
      <trkpt lat="40.785552" lon="-3.983457">
        <ele>2211.961830</ele>
        <time>2021-09-15T21:45:15.000Z</time>
      </trkpt>
      <trkpt lat="40.785547" lon="-3.983275">
        <ele>2213.369186</ele>
        <time>2021-09-15T21:45:15.000Z</time>
      </trkpt>
      <trkpt lat="40.785523" lon="-3.98309"/>
      <trkpt lat="40.785449" lon="-3.982717">
        <ele>2217.799349</ele>
        <time>2021-09-15T21:45:15.000Z</time>
      </trkpt>
      <trkpt lat="40.785376" lon="-3.982336">
        <ele>2220.667690</ele>
        <time>2021-09-15T21:45:15.000Z</time>
      </trkpt>
      <trkpt lat="40.785259" lon="-3.981616">
        <ele>2224.167378</ele>
        <time>2021-09-15T21:45:15.000Z</time>
      </trkpt>
      <trkpt lat="40.785185" lon="-3.981038">
        <ele>2226.953296</ele>
        <time>2021-09-15T21:45:15.000Z</time>
      </trkpt>
      <trkpt lat="40.78514" lon="-3.98065"/>
      <trkpt lat="40.78511" lon="-3.980473"/>
      <trkpt lat="40.785071" lon="-3.9804"/>
      <trkpt lat="40.785071" lon="-3.980402">
        <ele>2230.114870</ele>
        <time>2021-09-15T21:45:15.000Z</time>
      </trkpt>
      <trkpt lat="40.785083" lon="-3.980416">
        <ele>2230.215368</ele>
        <time>2021-09-15T21:45:15.000Z</time>
      </trkpt>
      <trkpt lat="40.785089" lon="-3.980431">
        <ele>2230.295992</ele>
        <time>2021-09-15T21:45:15.000Z</time>
      </trkpt>
      <trkpt lat="40.785101" lon="-3.980463">
        <ele>2230.465701</ele>
        <time>2021-09-15T21:45:15.000Z</time>
      </trkpt>
      <trkpt lat="40.785121" lon="-3.980529">
        <ele>2230.803552</ele>
        <time>2021-09-15T21:45:15.000Z</time>
      </trkpt>
      <trkpt lat="40.785124" lon="-3.980543">
        <ele>2230.872700</ele>
        <time>2021-09-15T21:45:15.000Z</time>
      </trkpt>
      <trkpt lat="40.785155" lon="-3.980653">
        <ele>2231.430508</ele>
        <time>2021-09-15T21:45:15.000Z</time>
      </trkpt>
      <trkpt lat="40.785158" lon="-3.980693">
        <ele>2231.621538</ele>
        <time>2021-09-15T21:45:15.000Z</time>
      </trkpt>
      <trkpt lat="40.785158" lon="-3.980714">
        <ele>2231.639824</ele>
        <time>2021-09-15T21:45:15.000Z</time>
      </trkpt>
      <trkpt lat="40.785157" lon="-3.980756">
        <ele>2231.355508</ele>
        <time>2021-09-15T21:45:15.000Z</time>
      </trkpt>
      <trkpt lat="40.785158" lon="-3.980776">
        <ele>2231.219891</ele>
        <time>2021-09-15T21:45:15.000Z</time>
      </trkpt>
      <trkpt lat="40.785165" lon="-3.980812">
        <ele>2230.968408</ele>
        <time>2021-09-15T21:45:15.000Z</time>
      </trkpt>
      <trkpt lat="40.78517" lon="-3.98085"/>
      <trkpt lat="40.785178" lon="-3.980919">
        <ele>2230.235140</ele>
        <time>2021-09-15T21:45:15.000Z</time>
      </trkpt>
      <trkpt lat="40.78518" lon="-3.980935"/>
      <trkpt lat="40.785188" lon="-3.981063">
        <ele>2229.256412</ele>
        <time>2021-09-15T21:45:15.000Z</time>
      </trkpt>
      <trkpt lat="40.785193" lon="-3.981138">
        <ele>2228.746992</ele>
        <time>2021-09-15T21:45:15.000Z</time>
      </trkpt>
      <trkpt lat="40.785201" lon="-3.981204">
        <ele>2228.294743</ele>
        <time>2021-09-15T21:45:15.000Z</time>
      </trkpt>
      <trkpt lat="40.785209" lon="-3.981252">
        <ele>2227.962196</ele>
        <time>2021-09-15T21:45:15.000Z</time>
      </trkpt>
      <trkpt lat="40.785211" lon="-3.981269">
        <ele>2227.845792</ele>
        <time>2021-09-15T21:45:15.000Z</time>
      </trkpt>
      <trkpt lat="40.785217" lon="-3.981313">
        <ele>2227.543295</ele>
        <time>2021-09-15T21:45:15.000Z</time>
      </trkpt>
      <trkpt lat="40.785231" lon="-3.9814"/>
      <trkpt lat="40.785231" lon="-3.981418">
        <ele>2226.819708</ele>
        <time>2021-09-15T21:45:15.000Z</time>
      </trkpt>
      <trkpt lat="40.785241" lon="-3.981487">
        <ele>2226.344372</ele>
        <time>2021-09-15T21:45:15.000Z</time>
      </trkpt>
      <trkpt lat="40.785242" lon="-3.981521">
        <ele>2226.114152</ele>
        <time>2021-09-15T21:45:15.000Z</time>
      </trkpt>
      <trkpt lat="40.785239" lon="-3.981551">
        <ele>2225.909406</ele>
        <time>2021-09-15T21:45:15.000Z</time>
      </trkpt>
      <trkpt lat="40.785256" lon="-3.981623">
        <ele>2225.399111</ele>
        <time>2021-09-15T21:45:15.000Z</time>
      </trkpt>
      <trkpt lat="40.785262" lon="-3.981651">
        <ele>2225.202220</ele>
        <time>2021-09-15T21:45:15.000Z</time>
      </trkpt>
      <trkpt lat="40.785264" lon="-3.981681">
        <ele>2224.998452</ele>
        <time>2021-09-15T21:45:15.000Z</time>
      </trkpt>
      <trkpt lat="40.785268" lon="-3.981769">
        <ele>2224.401964</ele>
        <time>2021-09-15T21:45:15.000Z</time>
      </trkpt>
      <trkpt lat="40.785275" lon="-3.981801">
        <ele>2224.176595</ele>
        <time>2021-09-15T21:45:15.000Z</time>
      </trkpt>
      <trkpt lat="40.785282" lon="-3.981871">
        <ele>2223.698856</ele>
        <time>2021-09-15T21:45:15.000Z</time>
      </trkpt>
      <trkpt lat="40.78531" lon="-3.981957"/>
      <trkpt lat="40.785314" lon="-3.981974">
        <ele>2222.945008</ele>
        <time>2021-09-15T21:45:15.000Z</time>
      </trkpt>
      <trkpt lat="40.785317" lon="-3.981991">
        <ele>2222.826902</ele>
        <time>2021-09-15T21:45:15.000Z</time>
      </trkpt>
      <trkpt lat="40.785321" lon="-3.982027">
        <ele>2222.580714</ele>
        <time>2021-09-15T21:45:15.000Z</time>
      </trkpt>
      <trkpt lat="40.785333" lon="-3.982107">
        <ele>2222.028908</ele>
        <time>2021-09-15T21:45:15.000Z</time>
      </trkpt>
      <trkpt lat="40.785351" lon="-3.982162">
        <ele>2221.623499</ele>
        <time>2021-09-15T21:45:15.000Z</time>
      </trkpt>
      <trkpt lat="40.785349" lon="-3.982221">
        <ele>2221.223901</ele>
        <time>2021-09-15T21:45:15.000Z</time>
      </trkpt>
      <trkpt lat="40.785351" lon="-3.98224"/>
      <trkpt lat="40.785362" lon="-3.982296">
        <ele>2220.702666</ele>
        <time>2021-09-15T21:45:15.000Z</time>
      </trkpt>
      <trkpt lat="40.785368" lon="-3.982334">
        <ele>2220.440024</ele>
        <time>2021-09-15T21:45:15.000Z</time>
      </trkpt>
      <trkpt lat="40.785373" lon="-3.982351">
        <ele>2220.316627</ele>
        <time>2021-09-15T21:45:15.000Z</time>
      </trkpt>
      <trkpt lat="40.785407" lon="-3.982431">
        <ele>2219.695900</ele>
        <time>2021-09-15T21:45:15.000Z</time>
      </trkpt>
      <trkpt lat="40.785407" lon="-3.982449">
        <ele>2219.574111</ele>
        <time>2021-09-15T21:45:15.000Z</time>
      </trkpt>
      <trkpt lat="40.785403" lon="-3.982488">
        <ele>2219.307824</ele>
        <time>2021-09-15T21:45:15.000Z</time>
      </trkpt>
      <trkpt lat="40.785415" lon="-3.982567">
        <ele>2218.762654</ele>
        <time>2021-09-15T21:45:15.000Z</time>
      </trkpt>
      <trkpt lat="40.78545" lon="-3.982686"/>
      <trkpt lat="40.785449" lon="-3.982707">
        <ele>2217.756511</ele>
        <time>2021-09-15T21:45:15.000Z</time>
      </trkpt>
      <trkpt lat="40.785463" lon="-3.982807">
        <ele>2217.068436</ele>
        <time>2021-09-15T21:45:15.000Z</time>
      </trkpt>
      <trkpt lat="40.785488" lon="-3.982878">
        <ele>2216.538640</ele>
        <time>2021-09-15T21:45:15.000Z</time>
      </trkpt>
      <trkpt lat="40.785492" lon="-3.982937">
        <ele>2216.137845</ele>
        <time>2021-09-15T21:45:15.000Z</time>
      </trkpt>
      <trkpt lat="40.785494" lon="-3.982958">
        <ele>2215.994638</ele>
        <time>2021-09-15T21:45:15.000Z</time>
      </trkpt>
      <trkpt lat="40.785502" lon="-3.982995">
        <ele>2215.734286</ele>
        <time>2021-09-15T21:45:15.000Z</time>
      </trkpt>
      <trkpt lat="40.785535" lon="-3.983087">
        <ele>2214.941789</ele>
        <time>2021-09-15T21:45:15.000Z</time>
      </trkpt>
      <trkpt lat="40.785555" lon="-3.983213">
        <ele>2213.912082</ele>
        <time>2021-09-15T21:45:15.000Z</time>
      </trkpt>
      <trkpt lat="40.785555" lon="-3.983302">
        <ele>2213.200223</ele>
        <time>2021-09-15T21:45:15.000Z</time>
      </trkpt>
      <trkpt lat="40.785556" lon="-3.983499">
        <ele>2211.624500</ele>
        <time>2021-09-15T21:45:15.000Z</time>
      </trkpt>
      <trkpt lat="40.785555" lon="-3.983582">
        <ele>2210.960548</ele>
        <time>2021-09-15T21:45:15.000Z</time>
      </trkpt>
      <trkpt lat="40.78554" lon="-3.983685"/>
      <trkpt lat="40.785517" lon="-3.983839">
        <ele>2208.866121</ele>
        <time>2021-09-15T21:45:15.000Z</time>
      </trkpt>
      <trkpt lat="40.785515" lon="-3.983887">
        <ele>2208.481617</ele>
        <time>2021-09-15T21:45:15.000Z</time>
      </trkpt>
      <trkpt lat="40.785504" lon="-3.984004">
        <ele>2207.538615</ele>
        <time>2021-09-15T21:45:15.000Z</time>
      </trkpt>
      <trkpt lat="40.785503" lon="-3.984028">
        <ele>2207.346362</ele>
        <time>2021-09-15T21:45:15.000Z</time>
      </trkpt>
      <trkpt lat="40.785486" lon="-3.984207">
        <ele>2205.903426</ele>
        <time>2021-09-15T21:45:15.000Z</time>
      </trkpt>
      <trkpt lat="40.78548" lon="-3.984251"/>
      <trkpt lat="40.785471" lon="-3.984319">
        <ele>2204.993694</ele>
        <time>2021-09-15T21:45:15.000Z</time>
      </trkpt>
      <trkpt lat="40.785461" lon="-3.984431">
        <ele>2204.091664</ele>
        <time>2021-09-15T21:45:15.000Z</time>
      </trkpt>
      <trkpt lat="40.785456" lon="-3.984501">
        <ele>2203.529288</ele>
        <time>2021-09-15T21:45:15.000Z</time>
      </trkpt>
      <trkpt lat="40.785447" lon="-3.984662">
        <ele>2202.238037</ele>
        <time>2021-09-15T21:45:15.000Z</time>
      </trkpt>
      <trkpt lat="40.785448" lon="-3.984755">
        <ele>2201.494109</ele>
        <time>2021-09-15T21:45:15.000Z</time>
      </trkpt>
      <trkpt lat="40.785454" lon="-3.984827">
        <ele>2200.914745</ele>
        <time>2021-09-15T21:45:15.000Z</time>
      </trkpt>
      <trkpt lat="40.78546" lon="-3.984895"/>
      <trkpt lat="40.785474" lon="-3.984983">
        <ele>2199.647940</ele>
        <time>2021-09-15T21:45:15.000Z</time>
      </trkpt>
      <trkpt lat="40.785486" lon="-3.985089">
        <ele>2198.790684</ele>
        <time>2021-09-15T21:45:15.000Z</time>
      </trkpt>
      <trkpt lat="40.785489" lon="-3.98513"/>
      <trkpt lat="40.785495" lon="-3.985171">
        <ele>2198.127216</ele>
        <time>2021-09-15T21:45:15.000Z</time>
      </trkpt>
      <trkpt lat="40.785498" lon="-3.985248">
        <ele>2197.510523</ele>
        <time>2021-09-15T21:45:15.000Z</time>
      </trkpt>
      <trkpt lat="40.785502" lon="-3.985286">
        <ele>2197.203660</ele>
        <time>2021-09-15T21:45:15.000Z</time>
      </trkpt>
      <trkpt lat="40.785506" lon="-3.985304">
        <ele>2197.053616</ele>
        <time>2021-09-15T21:45:15.000Z</time>
      </trkpt>
      <trkpt lat="40.785501" lon="-3.985322">
        <ele>2196.900261</ele>
        <time>2021-09-15T21:45:15.000Z</time>
      </trkpt>
      <trkpt lat="40.785483" lon="-3.985353">
        <ele>2196.581251</ele>
        <time>2021-09-15T21:45:15.000Z</time>
      </trkpt>
      <trkpt lat="40.785454" lon="-3.985414">
        <ele>2195.864042</ele>
        <time>2021-09-15T21:45:15.000Z</time>
      </trkpt>
      <trkpt lat="40.785416" lon="-3.985514">
        <ele>2194.749930</ele>
        <time>2021-09-15T21:45:15.000Z</time>
      </trkpt>
      <trkpt lat="40.785399" lon="-3.985551">
        <ele>2194.318978</ele>
        <time>2021-09-15T21:45:15.000Z</time>
      </trkpt>
      <trkpt lat="40.785356" lon="-3.985648">
        <ele>2193.199741</ele>
        <time>2021-09-15T21:45:15.000Z</time>
      </trkpt>
      <trkpt lat="40.785342" lon="-3.985779">
        <ele>2191.882385</ele>
        <time>2021-09-15T21:45:15.000Z</time>
      </trkpt>
      <trkpt lat="40.785347" lon="-3.985843">
        <ele>2191.241725</ele>
        <time>2021-09-15T21:45:15.000Z</time>
      </trkpt>
      <trkpt lat="40.785351" lon="-3.985864">
        <ele>2191.026103</ele>
        <time>2021-09-15T21:45:15.000Z</time>
      </trkpt>
      <trkpt lat="40.785362" lon="-3.985925">
        <ele>2190.401709</ele>
        <time>2021-09-15T21:45:15.000Z</time>
      </trkpt>
      <trkpt lat="40.78538" lon="-3.986005"/>
      <trkpt lat="40.785393" lon="-3.986064">
        <ele>2188.958826</ele>
        <time>2021-09-15T21:45:15.000Z</time>
      </trkpt>
      <trkpt lat="40.785398" lon="-3.986082">
        <ele>2188.767911</ele>
        <time>2021-09-15T21:45:15.000Z</time>
      </trkpt>
      <trkpt lat="40.785403" lon="-3.986099">
        <ele>2188.586312</ele>
        <time>2021-09-15T21:45:15.000Z</time>
      </trkpt>
      <trkpt lat="40.785406" lon="-3.986117">
        <ele>2188.402787</ele>
        <time>2021-09-15T21:45:15.000Z</time>
      </trkpt>
      <trkpt lat="40.785409" lon="-3.986151">
        <ele>2188.061943</ele>
        <time>2021-09-15T21:45:15.000Z</time>
      </trkpt>
      <trkpt lat="40.785412" lon="-3.986244">
        <ele>2187.135060</ele>
        <time>2021-09-15T21:45:15.000Z</time>
      </trkpt>
      <trkpt lat="40.785417" lon="-3.986334">
        <ele>2186.236482</ele>
        <time>2021-09-15T21:45:15.000Z</time>
      </trkpt>
      <trkpt lat="40.785415" lon="-3.98635"/>
      <trkpt lat="40.785418" lon="-3.986437">
        <ele>2185.207811</ele>
        <time>2021-09-15T21:45:15.000Z</time>
      </trkpt>
      <trkpt lat="40.785419" lon="-3.986452">
        <ele>2185.057871</ele>
        <time>2021-09-15T21:45:15.000Z</time>
      </trkpt>
      <trkpt lat="40.78542" lon="-3.986486"/>
      <trkpt lat="40.78542" lon="-3.986502"/>
      <trkpt lat="40.785417" lon="-3.986519">
        <ele>2184.385930</ele>
        <time>2021-09-15T21:45:15.000Z</time>
      </trkpt>
      <trkpt lat="40.785415" lon="-3.986599">
        <ele>2183.588901</ele>
        <time>2021-09-15T21:45:15.000Z</time>
      </trkpt>
      <trkpt lat="40.785419" lon="-3.986663">
        <ele>2182.949457</ele>
        <time>2021-09-15T21:45:15.000Z</time>
      </trkpt>
      <trkpt lat="40.785426" lon="-3.986707">
        <ele>2182.501763</ele>
        <time>2021-09-15T21:45:15.000Z</time>
      </trkpt>
      <trkpt lat="40.785429" lon="-3.986722">
        <ele>2182.347279</ele>
        <time>2021-09-15T21:45:15.000Z</time>
      </trkpt>
      <trkpt lat="40.78543" lon="-3.986766"/>
      <trkpt lat="40.785427" lon="-3.986797">
        <ele>2181.597762</ele>
        <time>2021-09-15T21:45:15.000Z</time>
      </trkpt>
      <trkpt lat="40.785424" lon="-3.986815">
        <ele>2181.414237</ele>
        <time>2021-09-15T21:45:15.000Z</time>
      </trkpt>
      <trkpt lat="40.785418" lon="-3.986852">
        <ele>2181.037457</ele>
        <time>2021-09-15T21:45:15.000Z</time>
      </trkpt>
      <trkpt lat="40.785422" lon="-3.986886">
        <ele>2180.694842</ele>
        <time>2021-09-15T21:45:15.000Z</time>
      </trkpt>
      <trkpt lat="40.785426" lon="-3.986923">
        <ele>2180.322680</ele>
        <time>2021-09-15T21:45:15.000Z</time>
      </trkpt>
      <trkpt lat="40.785441" lon="-3.986978">
        <ele>2179.740577</ele>
        <time>2021-09-15T21:45:15.000Z</time>
      </trkpt>
      <trkpt lat="40.785442" lon="-3.987017">
        <ele>2179.352014</ele>
        <time>2021-09-15T21:45:15.000Z</time>
      </trkpt>
      <trkpt lat="40.785438" lon="-3.987037">
        <ele>2179.146035</ele>
        <time>2021-09-15T21:45:15.000Z</time>
      </trkpt>
      <trkpt lat="40.785436" lon="-3.987055">
        <ele>2178.964881</ele>
        <time>2021-09-15T21:45:15.000Z</time>
      </trkpt>
      <trkpt lat="40.785448" lon="-3.987088">
        <ele>2178.600355</ele>
        <time>2021-09-15T21:45:15.000Z</time>
      </trkpt>
      <trkpt lat="40.785438" lon="-3.987123">
        <ele>2178.227857</ele>
        <time>2021-09-15T21:45:15.000Z</time>
      </trkpt>
      <trkpt lat="40.785433" lon="-3.987139">
        <ele>2178.055502</ele>
        <time>2021-09-15T21:45:15.000Z</time>
      </trkpt>
      <trkpt lat="40.785439" lon="-3.987224">
        <ele>2177.205449</ele>
        <time>2021-09-15T21:45:15.000Z</time>
      </trkpt>
      <trkpt lat="40.785444" lon="-3.987249">
        <ele>2176.947975</ele>
        <time>2021-09-15T21:45:15.000Z</time>
      </trkpt>
      <trkpt lat="40.785449" lon="-3.987276">
        <ele>2176.671200</ele>
        <time>2021-09-15T21:45:15.000Z</time>
      </trkpt>
      <trkpt lat="40.78545" lon="-3.987304"/>
      <trkpt lat="40.785436" lon="-3.987383">
        <ele>2175.584186</ele>
        <time>2021-09-15T21:45:15.000Z</time>
      </trkpt>
      <trkpt lat="40.785446" lon="-3.987583">
        <ele>2173.588360</ele>
        <time>2021-09-15T21:45:15.000Z</time>
      </trkpt>
      <trkpt lat="40.785444" lon="-3.987612">
        <ele>2173.298399</ele>
        <time>2021-09-15T21:45:15.000Z</time>
      </trkpt>
      <trkpt lat="40.785436" lon="-3.987751">
        <ele>2172.271154</ele>
        <time>2021-09-15T21:45:15.000Z</time>
      </trkpt>
      <trkpt lat="40.785448" lon="-3.987904">
        <ele>2171.265760</ele>
        <time>2021-09-15T21:45:15.000Z</time>
      </trkpt>
      <trkpt lat="40.785475" lon="-3.988071">
        <ele>2170.149602</ele>
        <time>2021-09-15T21:45:15.000Z</time>
      </trkpt>
      <trkpt lat="40.78551" lon="-3.988352"/>
      <trkpt lat="40.785513" lon="-3.988385">
        <ele>2168.070993</ele>
        <time>2021-09-15T21:45:15.000Z</time>
      </trkpt>
      <trkpt lat="40.78551" lon="-3.988484"/>
      <trkpt lat="40.785444" lon="-3.988511">
        <ele>2166.826935</ele>
        <time>2021-09-15T21:45:15.000Z</time>
      </trkpt>
      <trkpt lat="40.785389" lon="-3.988375">
        <ele>2165.819156</ele>
        <time>2021-09-15T21:45:15.000Z</time>
      </trkpt>
      <trkpt lat="40.785369" lon="-3.988121">
        <ele>2164.149999</ele>
        <time>2021-09-15T21:45:15.000Z</time>
      </trkpt>
      <trkpt lat="40.785339" lon="-3.987882">
        <ele>2162.566517</ele>
        <time>2021-09-15T21:45:15.000Z</time>
      </trkpt>
      <trkpt lat="40.785338" lon="-3.987843">
        <ele>2162.311458</ele>
        <time>2021-09-15T21:45:15.000Z</time>
      </trkpt>
      <trkpt lat="40.785326" lon="-3.987735">
        <ele>2161.597983</ele>
        <time>2021-09-15T21:45:15.000Z</time>
      </trkpt>
      <trkpt lat="40.785317" lon="-3.987646">
        <ele>2161.011092</ele>
        <time>2021-09-15T21:45:15.000Z</time>
      </trkpt>
      <trkpt lat="40.78529" lon="-3.987536"/>
      <trkpt lat="40.78528" lon="-3.98752"/>
      <trkpt lat="40.78524" lon="-3.987491"/>
      <trkpt lat="40.785197" lon="-3.987492">
        <ele>2159.354499</ele>
        <time>2021-09-15T21:45:15.000Z</time>
      </trkpt>
      <trkpt lat="40.785169" lon="-3.987509">
        <ele>2159.088471</ele>
        <time>2021-09-15T21:45:15.000Z</time>
      </trkpt>
      <trkpt lat="40.785155" lon="-3.987545">
        <ele>2158.823943</ele>
        <time>2021-09-15T21:45:15.000Z</time>
      </trkpt>
      <trkpt lat="40.785154" lon="-3.987565">
        <ele>2158.692933</ele>
        <time>2021-09-15T21:45:15.000Z</time>
      </trkpt>
      <trkpt lat="40.785154" lon="-3.987694">
        <ele>2157.849756</ele>
        <time>2021-09-15T21:45:15.000Z</time>
      </trkpt>
      <trkpt lat="40.785155" lon="-3.987738">
        <ele>2157.562031</ele>
        <time>2021-09-15T21:45:15.000Z</time>
      </trkpt>
      <trkpt lat="40.785152" lon="-3.987782">
        <ele>2157.179787</ele>
        <time>2021-09-15T21:45:15.000Z</time>
      </trkpt>
      <trkpt lat="40.785159" lon="-3.987891">
        <ele>2156.047985</ele>
        <time>2021-09-15T21:45:15.000Z</time>
      </trkpt>
      <trkpt lat="40.785161" lon="-3.987935">
        <ele>2155.591926</ele>
        <time>2021-09-15T21:45:15.000Z</time>
      </trkpt>
      <trkpt lat="40.785148" lon="-3.987992">
        <ele>2154.976010</ele>
        <time>2021-09-15T21:45:15.000Z</time>
      </trkpt>
      <trkpt lat="40.785139" lon="-3.988073">
        <ele>2154.128980</ele>
        <time>2021-09-15T21:45:15.000Z</time>
      </trkpt>
      <trkpt lat="40.785095" lon="-3.988235">
        <ele>2152.348295</ele>
        <time>2021-09-15T21:45:15.000Z</time>
      </trkpt>
      <trkpt lat="40.785079" lon="-3.988293">
        <ele>2151.709618</ele>
        <time>2021-09-15T21:45:15.000Z</time>
      </trkpt>
      <trkpt lat="40.785043" lon="-3.988389">
        <ele>2150.601223</ele>
        <time>2021-09-15T21:45:15.000Z</time>
      </trkpt>
      <trkpt lat="40.785023" lon="-3.98847"/>
      <trkpt lat="40.785009" lon="-3.988549">
        <ele>2148.880279</ele>
        <time>2021-09-15T21:45:15.000Z</time>
      </trkpt>
      <trkpt lat="40.784982" lon="-3.988626">
        <ele>2148.002324</ele>
        <time>2021-09-15T21:45:15.000Z</time>
      </trkpt>
      <trkpt lat="40.784958" lon="-3.9887"/>
      <trkpt lat="40.784933" lon="-3.988832">
        <ele>2145.761611</ele>
        <time>2021-09-15T21:45:15.000Z</time>
      </trkpt>
      <trkpt lat="40.784926" lon="-3.988889">
        <ele>2145.164160</ele>
        <time>2021-09-15T21:45:15.000Z</time>
      </trkpt>
      <trkpt lat="40.784909" lon="-3.988961">
        <ele>2144.383840</ele>
        <time>2021-09-15T21:45:15.000Z</time>
      </trkpt>
      <trkpt lat="40.784894" lon="-3.988991">
        <ele>2144.011879</ele>
        <time>2021-09-15T21:45:15.000Z</time>
      </trkpt>
      <trkpt lat="40.784891" lon="-3.989007">
        <ele>2143.841336</ele>
        <time>2021-09-15T21:45:15.000Z</time>
      </trkpt>
      <trkpt lat="40.784884" lon="-3.989065">
        <ele>2143.233670</ele>
        <time>2021-09-15T21:45:15.000Z</time>
      </trkpt>
      <trkpt lat="40.784866" lon="-3.989102">
        <ele>2142.778646</ele>
        <time>2021-09-15T21:45:15.000Z</time>
      </trkpt>
      <trkpt lat="40.784861" lon="-3.98913"/>
      <trkpt lat="40.784849" lon="-3.989171">
        <ele>2142.026207</ele>
        <time>2021-09-15T21:45:15.000Z</time>
      </trkpt>
      <trkpt lat="40.78483" lon="-3.989238"/>
      <trkpt lat="40.784806" lon="-3.989303">
        <ele>2140.537756</ele>
        <time>2021-09-15T21:45:15.000Z</time>
      </trkpt>
      <trkpt lat="40.784793" lon="-3.989356">
        <ele>2139.961341</ele>
        <time>2021-09-15T21:45:15.000Z</time>
      </trkpt>
      <trkpt lat="40.784784" lon="-3.989393">
        <ele>2139.559255</ele>
        <time>2021-09-15T21:45:15.000Z</time>
      </trkpt>
      <trkpt lat="40.784763" lon="-3.989483">
        <ele>2138.584865</ele>
        <time>2021-09-15T21:45:15.000Z</time>
      </trkpt>
      <trkpt lat="40.784743" lon="-3.989529">
        <ele>2138.036045</ele>
        <time>2021-09-15T21:45:15.000Z</time>
      </trkpt>
      <trkpt lat="40.784711" lon="-3.989611">
        <ele>2137.081584</ele>
        <time>2021-09-15T21:45:15.000Z</time>
      </trkpt>
      <trkpt lat="40.784683" lon="-3.989672">
        <ele>2136.343534</ele>
        <time>2021-09-15T21:45:15.000Z</time>
      </trkpt>
      <trkpt lat="40.784663" lon="-3.989734">
        <ele>2135.646266</ele>
        <time>2021-09-15T21:45:15.000Z</time>
      </trkpt>
      <trkpt lat="40.784652" lon="-3.989765">
        <ele>2135.292052</ele>
        <time>2021-09-15T21:45:15.000Z</time>
      </trkpt>
      <trkpt lat="40.784617" lon="-3.989839">
        <ele>2134.389316</ele>
        <time>2021-09-15T21:45:15.000Z</time>
      </trkpt>
      <trkpt lat="40.78461" lon="-3.989854"/>
      <trkpt lat="40.784562" lon="-3.989948">
        <ele>2133.033942</ele>
        <time>2021-09-15T21:45:15.000Z</time>
      </trkpt>
      <trkpt lat="40.784553" lon="-3.989964">
        <ele>2132.820810</ele>
        <time>2021-09-15T21:45:15.000Z</time>
      </trkpt>
      <trkpt lat="40.784527" lon="-3.990025">
        <ele>2131.919031</ele>
        <time>2021-09-15T21:45:15.000Z</time>
      </trkpt>
      <trkpt lat="40.784517" lon="-3.990056">
        <ele>2131.484945</ele>
        <time>2021-09-15T21:45:15.000Z</time>
      </trkpt>
      <trkpt lat="40.784504" lon="-3.990087">
        <ele>2131.028431</ele>
        <time>2021-09-15T21:45:15.000Z</time>
      </trkpt>
      <trkpt lat="40.784474" lon="-3.990165">
        <ele>2129.901398</ele>
        <time>2021-09-15T21:45:15.000Z</time>
      </trkpt>
      <trkpt lat="40.784468" lon="-3.990185">
        <ele>2129.624264</ele>
        <time>2021-09-15T21:45:15.000Z</time>
      </trkpt>
      <trkpt lat="40.784422" lon="-3.990255">
        <ele>2128.430233</ele>
        <time>2021-09-15T21:45:15.000Z</time>
      </trkpt>
      <trkpt lat="40.784405" lon="-3.990284">
        <ele>2127.957764</ele>
        <time>2021-09-15T21:45:15.000Z</time>
      </trkpt>
      <trkpt lat="40.784366" lon="-3.990338">
        <ele>2126.996403</ele>
        <time>2021-09-15T21:45:15.000Z</time>
      </trkpt>
      <trkpt lat="40.784366" lon="-3.990338">
        <ele>2126.996403</ele>
        <time>2021-09-15T21:45:15.000Z</time>
      </trkpt>
      <trkpt lat="40.784367" lon="-3.990341">
        <ele>2126.954176</ele>
        <time>2021-09-15T21:45:15.000Z</time>
      </trkpt>
      <trkpt lat="40.784371" lon="-3.990362">
        <ele>2126.675216</ele>
        <time>2021-09-15T21:45:15.000Z</time>
      </trkpt>
      <trkpt lat="40.784337" lon="-3.990408">
        <ele>2125.847090</ele>
        <time>2021-09-15T21:45:15.000Z</time>
      </trkpt>
      <trkpt lat="40.784322" lon="-3.990434">
        <ele>2125.425998</ele>
        <time>2021-09-15T21:45:15.000Z</time>
      </trkpt>
      <trkpt lat="40.784298" lon="-3.990495">
        <ele>2124.540412</ele>
        <time>2021-09-15T21:45:15.000Z</time>
      </trkpt>
      <trkpt lat="40.784272" lon="-3.99054"/>
      <trkpt lat="40.784258" lon="-3.990593">
        <ele>2123.088077</ele>
        <time>2021-09-15T21:45:15.000Z</time>
      </trkpt>
      <trkpt lat="40.784252" lon="-3.990611">
        <ele>2122.834717</ele>
        <time>2021-09-15T21:45:15.000Z</time>
      </trkpt>
      <trkpt lat="40.784246" lon="-3.990628">
        <ele>2122.593092</ele>
        <time>2021-09-15T21:45:15.000Z</time>
      </trkpt>
      <trkpt lat="40.78423" lon="-3.990661"/>
      <trkpt lat="40.784226" lon="-3.990679">
        <ele>2121.846617</ele>
        <time>2021-09-15T21:45:15.000Z</time>
      </trkpt>
      <trkpt lat="40.784222" lon="-3.990717">
        <ele>2121.352376</ele>
        <time>2021-09-15T21:45:15.000Z</time>
      </trkpt>
      <trkpt lat="40.784217" lon="-3.990756">
        <ele>2120.842809</ele>
        <time>2021-09-15T21:45:15.000Z</time>
      </trkpt>
      <trkpt lat="40.784212" lon="-3.990815">
        <ele>2120.077998</ele>
        <time>2021-09-15T21:45:15.000Z</time>
      </trkpt>
      <trkpt lat="40.784213" lon="-3.990919">
        <ele>2118.738114</ele>
        <time>2021-09-15T21:45:15.000Z</time>
      </trkpt>
      <trkpt lat="40.784206" lon="-3.990976">
        <ele>2117.994218</ele>
        <time>2021-09-15T21:45:15.000Z</time>
      </trkpt>
      <trkpt lat="40.784205" lon="-3.991076">
        <ele>2116.705859</ele>
        <time>2021-09-15T21:45:15.000Z</time>
      </trkpt>
      <trkpt lat="40.784215" lon="-3.991166">
        <ele>2115.534020</ele>
        <time>2021-09-15T21:45:15.000Z</time>
      </trkpt>
      <trkpt lat="40.784216" lon="-3.991199">
        <ele>2115.108559</ele>
        <time>2021-09-15T21:45:15.000Z</time>
      </trkpt>
      <trkpt lat="40.784215" lon="-3.991245">
        <ele>2114.515721</ele>
        <time>2021-09-15T21:45:15.000Z</time>
      </trkpt>
      <trkpt lat="40.784219" lon="-3.991261">
        <ele>2114.298657</ele>
        <time>2021-09-15T21:45:15.000Z</time>
      </trkpt>
      <trkpt lat="40.78422" lon="-3.991289"/>
      <trkpt lat="40.784217" lon="-3.991307">
        <ele>2113.700112</ele>
        <time>2021-09-15T21:45:15.000Z</time>
      </trkpt>
      <trkpt lat="40.784213" lon="-3.991341">
        <ele>2113.256853</ele>
        <time>2021-09-15T21:45:15.000Z</time>
      </trkpt>
      <trkpt lat="40.784213" lon="-3.991357">
        <ele>2113.050733</ele>
        <time>2021-09-15T21:45:15.000Z</time>
      </trkpt>
      <trkpt lat="40.784212" lon="-3.991374">
        <ele>2112.831072</ele>
        <time>2021-09-15T21:45:15.000Z</time>
      </trkpt>
      <trkpt lat="40.784213" lon="-3.991407">
        <ele>2112.405610</ele>
        <time>2021-09-15T21:45:15.000Z</time>
      </trkpt>
      <trkpt lat="40.784195" lon="-3.991478">
        <ele>2111.441047</ele>
        <time>2021-09-15T21:45:15.000Z</time>
      </trkpt>
      <trkpt lat="40.784183" lon="-3.991492">
        <ele>2111.168629</ele>
        <time>2021-09-15T21:45:15.000Z</time>
      </trkpt>
      <trkpt lat="40.784171" lon="-3.991504">
        <ele>2110.912539</ele>
        <time>2021-09-15T21:45:15.000Z</time>
      </trkpt>
      <trkpt lat="40.784139" lon="-3.991495">
        <ele>2110.355888</ele>
        <time>2021-09-15T21:45:15.000Z</time>
      </trkpt>
      <trkpt lat="40.784112" lon="-3.991465">
        <ele>2109.755565</ele>
        <time>2021-09-15T21:45:15.000Z</time>
      </trkpt>
      <trkpt lat="40.784087" lon="-3.991434">
        <ele>2109.172123</ele>
        <time>2021-09-15T21:45:15.000Z</time>
      </trkpt>
      <trkpt lat="40.784036" lon="-3.991337">
        <ele>2107.650801</ele>
        <time>2021-09-15T21:45:15.000Z</time>
      </trkpt>
      <trkpt lat="40.784014" lon="-3.991298">
        <ele>2107.024281</ele>
        <time>2021-09-15T21:45:15.000Z</time>
      </trkpt>
      <trkpt lat="40.783961" lon="-3.991205">
        <ele>2105.524780</ele>
        <time>2021-09-15T21:45:15.000Z</time>
      </trkpt>
      <trkpt lat="40.783943" lon="-3.991168">
        <ele>2104.958223</ele>
        <time>2021-09-15T21:45:15.000Z</time>
      </trkpt>
      <trkpt lat="40.78392" lon="-3.991137"/>
      <trkpt lat="40.783884" lon="-3.991096">
        <ele>2103.590317</ele>
        <time>2021-09-15T21:45:15.000Z</time>
      </trkpt>
      <trkpt lat="40.783883" lon="-3.991096">
        <ele>2103.573303</ele>
        <time>2021-09-15T21:45:15.000Z</time>
      </trkpt>
      <trkpt lat="40.783854" lon="-3.99112"/>
      <trkpt lat="40.783837" lon="-3.991143">
        <ele>2102.576969</ele>
        <time>2021-09-15T21:45:15.000Z</time>
      </trkpt>
      <trkpt lat="40.783817" lon="-3.991188">
        <ele>2101.897928</ele>
        <time>2021-09-15T21:45:15.000Z</time>
      </trkpt>
      <trkpt lat="40.783809" lon="-3.991219">
        <ele>2101.467753</ele>
        <time>2021-09-15T21:45:15.000Z</time>
      </trkpt>
      <trkpt lat="40.783804" lon="-3.991267">
        <ele>2100.831348</ele>
        <time>2021-09-15T21:45:15.000Z</time>
      </trkpt>
      <trkpt lat="40.783793" lon="-3.991317">
        <ele>2100.147453</ele>
        <time>2021-09-15T21:45:15.000Z</time>
      </trkpt>
      <trkpt lat="40.783787" lon="-3.991368">
        <ele>2099.469544</ele>
        <time>2021-09-15T21:45:15.000Z</time>
      </trkpt>
      <trkpt lat="40.783789" lon="-3.991386">
        <ele>2099.230587</ele>
        <time>2021-09-15T21:45:15.000Z</time>
      </trkpt>
      <trkpt lat="40.783791" lon="-3.991438">
        <ele>2098.546701</ele>
        <time>2021-09-15T21:45:15.000Z</time>
      </trkpt>
      <trkpt lat="40.783792" lon="-3.991456">
        <ele>2098.309641</ele>
        <time>2021-09-15T21:45:15.000Z</time>
      </trkpt>
      <trkpt lat="40.783805" lon="-3.991521">
        <ele>2097.426603</ele>
        <time>2021-09-15T21:45:15.000Z</time>
      </trkpt>
      <trkpt lat="40.783806" lon="-3.991539">
        <ele>2097.189543</ele>
        <time>2021-09-15T21:45:15.000Z</time>
      </trkpt>
      <trkpt lat="40.783799" lon="-3.991607">
        <ele>2096.288165</ele>
        <time>2021-09-15T21:45:15.000Z</time>
      </trkpt>
      <trkpt lat="40.783798" lon="-3.991624">
        <ele>2096.064202</ele>
        <time>2021-09-15T21:45:15.000Z</time>
      </trkpt>
      <trkpt lat="40.783797" lon="-3.991655">
        <ele>2095.656657</ele>
        <time>2021-09-15T21:45:15.000Z</time>
      </trkpt>
      <trkpt lat="40.783777" lon="-3.991693">
        <ele>2095.048803</ele>
        <time>2021-09-15T21:45:15.000Z</time>
      </trkpt>
      <trkpt lat="40.783751" lon="-3.991702">
        <ele>2094.582549</ele>
        <time>2021-09-15T21:45:15.000Z</time>
      </trkpt>
      <trkpt lat="40.783738" lon="-3.99171"/>
      <trkpt lat="40.783699" lon="-3.99171"/>
      <trkpt lat="40.783686" lon="-3.991702">
        <ele>2093.408442</ele>
        <time>2021-09-15T21:45:15.000Z</time>
      </trkpt>
      <trkpt lat="40.783675" lon="-3.991691">
        <ele>2093.169098</ele>
        <time>2021-09-15T21:45:15.000Z</time>
      </trkpt>
      <trkpt lat="40.783655" lon="-3.991664">
        <ele>2092.672978</ele>
        <time>2021-09-15T21:45:15.000Z</time>
      </trkpt>
      <trkpt lat="40.783619" lon="-3.991612">
        <ele>2091.747514</ele>
        <time>2021-09-15T21:45:15.000Z</time>
      </trkpt>
      <trkpt lat="40.783586" lon="-3.991558">
        <ele>2090.836048</ele>
        <time>2021-09-15T21:45:15.000Z</time>
      </trkpt>
      <trkpt lat="40.783568" lon="-3.991529">
        <ele>2090.343516</ele>
        <time>2021-09-15T21:45:15.000Z</time>
      </trkpt>
      <trkpt lat="40.783542" lon="-3.991497">
        <ele>2089.727009</ele>
        <time>2021-09-15T21:45:15.000Z</time>
      </trkpt>
      <trkpt lat="40.783518" lon="-3.991485">
        <ele>2089.281846</ele>
        <time>2021-09-15T21:45:15.000Z</time>
      </trkpt>
      <trkpt lat="40.783509" lon="-3.991475">
        <ele>2089.077821</ele>
        <time>2021-09-15T21:45:15.000Z</time>
      </trkpt>
      <trkpt lat="40.783497" lon="-3.991445">
        <ele>2088.632173</ele>
        <time>2021-09-15T21:45:15.000Z</time>
      </trkpt>
      <trkpt lat="40.783479" lon="-3.991425">
        <ele>2088.224122</ele>
        <time>2021-09-15T21:45:15.000Z</time>
      </trkpt>
      <trkpt lat="40.783468" lon="-3.991417">
        <ele>2088.006287</ele>
        <time>2021-09-15T21:45:15.000Z</time>
      </trkpt>
      <trkpt lat="40.783459" lon="-3.991405">
        <ele>2087.784437</ele>
        <time>2021-09-15T21:45:15.000Z</time>
      </trkpt>
      <trkpt lat="40.783449" lon="-3.991375">
        <ele>2087.353901</ele>
        <time>2021-09-15T21:45:15.000Z</time>
      </trkpt>
      <trkpt lat="40.783429" lon="-3.991363">
        <ele>2086.972837</ele>
        <time>2021-09-15T21:45:15.000Z</time>
      </trkpt>
      <trkpt lat="40.783397" lon="-3.991339">
        <ele>2086.334472</ele>
        <time>2021-09-15T21:45:15.000Z</time>
      </trkpt>
      <trkpt lat="40.783353" lon="-3.991327">
        <ele>2085.555104</ele>
        <time>2021-09-15T21:45:15.000Z</time>
      </trkpt>
      <trkpt lat="40.78333" lon="-3.991332"/>
      <trkpt lat="40.783317" lon="-3.991361">
        <ele>2084.708098</ele>
        <time>2021-09-15T21:45:15.000Z</time>
      </trkpt>
      <trkpt lat="40.783315" lon="-3.991373">
        <ele>2084.546707</ele>
        <time>2021-09-15T21:45:15.000Z</time>
      </trkpt>
      <trkpt lat="40.783291" lon="-3.991445">
        <ele>2083.513417</ele>
        <time>2021-09-15T21:45:15.000Z</time>
      </trkpt>
      <trkpt lat="40.783287" lon="-3.991464">
        <ele>2083.254389</ele>
        <time>2021-09-15T21:45:15.000Z</time>
      </trkpt>
      <trkpt lat="40.783287" lon="-3.991484">
        <ele>2082.991692</ele>
        <time>2021-09-15T21:45:15.000Z</time>
      </trkpt>
      <trkpt lat="40.783283" lon="-3.9916"/>
      <trkpt lat="40.783277" lon="-3.991654">
        <ele>2080.749597</ele>
        <time>2021-09-15T21:45:15.000Z</time>
      </trkpt>
      <trkpt lat="40.783273" lon="-3.991689">
        <ele>2080.284672</ele>
        <time>2021-09-15T21:45:15.000Z</time>
      </trkpt>
      <trkpt lat="40.783271" lon="-3.991768">
        <ele>2079.246441</ele>
        <time>2021-09-15T21:45:15.000Z</time>
      </trkpt>
      <trkpt lat="40.783288" lon="-3.991817">
        <ele>2078.538490</ele>
        <time>2021-09-15T21:45:15.000Z</time>
      </trkpt>
      <trkpt lat="40.783279" lon="-3.991858">
        <ele>2077.977789</ele>
        <time>2021-09-15T21:45:15.000Z</time>
      </trkpt>
      <trkpt lat="40.783281" lon="-3.991884">
        <ele>2077.634526</ele>
        <time>2021-09-15T21:45:15.000Z</time>
      </trkpt>
      <trkpt lat="40.783283" lon="-3.991908">
        <ele>2077.317387</ele>
        <time>2021-09-15T21:45:15.000Z</time>
      </trkpt>
      <trkpt lat="40.783279" lon="-3.991947">
        <ele>2076.800451</ele>
        <time>2021-09-15T21:45:15.000Z</time>
      </trkpt>
      <trkpt lat="40.783275" lon="-3.991961">
        <ele>2076.603907</ele>
        <time>2021-09-15T21:45:15.000Z</time>
      </trkpt>
      <trkpt lat="40.783275" lon="-3.991996">
        <ele>2076.144188</ele>
        <time>2021-09-15T21:45:15.000Z</time>
      </trkpt>
      <trkpt lat="40.783271" lon="-3.992029">
        <ele>2075.705221</ele>
        <time>2021-09-15T21:45:15.000Z</time>
      </trkpt>
      <trkpt lat="40.783265" lon="-3.99206"/>
      <trkpt lat="40.783259" lon="-3.992141">
        <ele>2074.215949</ele>
        <time>2021-09-15T21:45:15.000Z</time>
      </trkpt>
      <trkpt lat="40.783264" lon="-3.9922"/>
      <trkpt lat="40.78326" lon="-3.992259"/>
      <trkpt lat="40.78326" lon="-3.992274"/>
      <trkpt lat="40.783256" lon="-3.992323">
        <ele>2071.813742</ele>
        <time>2021-09-15T21:45:15.000Z</time>
      </trkpt>
      <trkpt lat="40.783249" lon="-3.992369">
        <ele>2071.197459</ele>
        <time>2021-09-15T21:45:15.000Z</time>
      </trkpt>
      <trkpt lat="40.783241" lon="-3.992442">
        <ele>2070.340425</ele>
        <time>2021-09-15T21:45:15.000Z</time>
      </trkpt>
      <trkpt lat="40.783241" lon="-3.992458">
        <ele>2070.158763</ele>
        <time>2021-09-15T21:45:15.000Z</time>
      </trkpt>
      <trkpt lat="40.78326" lon="-3.992518"/>
      <trkpt lat="40.783243" lon="-3.992573">
        <ele>2068.745865</ele>
        <time>2021-09-15T21:45:15.000Z</time>
      </trkpt>
      <trkpt lat="40.783271" lon="-3.992634">
        <ele>2067.935955</ele>
        <time>2021-09-15T21:45:15.000Z</time>
      </trkpt>
      <trkpt lat="40.783296" lon="-3.992675">
        <ele>2067.338270</ele>
        <time>2021-09-15T21:45:15.000Z</time>
      </trkpt>
      <trkpt lat="40.783327" lon="-3.992746">
        <ele>2066.407725</ele>
        <time>2021-09-15T21:45:15.000Z</time>
      </trkpt>
      <trkpt lat="40.783341" lon="-3.992772">
        <ele>2066.045492</ele>
        <time>2021-09-15T21:45:15.000Z</time>
      </trkpt>
      <trkpt lat="40.783363" lon="-3.992854">
        <ele>2065.057758</ele>
        <time>2021-09-15T21:45:15.000Z</time>
      </trkpt>
      <trkpt lat="40.783365" lon="-3.992867">
        <ele>2064.907142</ele>
        <time>2021-09-15T21:45:15.000Z</time>
      </trkpt>
      <trkpt lat="40.78335" lon="-3.992914"/>
      <trkpt lat="40.783335" lon="-3.992941">
        <ele>2063.947827</ele>
        <time>2021-09-15T21:45:15.000Z</time>
      </trkpt>
      <trkpt lat="40.783271" lon="-3.993008">
        <ele>2062.723228</ele>
        <time>2021-09-15T21:45:15.000Z</time>
      </trkpt>
      <trkpt lat="40.783229" lon="-3.993014">
        <ele>2062.089771</ele>
        <time>2021-09-15T21:45:15.000Z</time>
      </trkpt>
      <trkpt lat="40.783169" lon="-3.993012">
        <ele>2061.189794</ele>
        <time>2021-09-15T21:45:15.000Z</time>
      </trkpt>
      <trkpt lat="40.783155" lon="-3.993011">
        <ele>2060.979559</ele>
        <time>2021-09-15T21:45:15.000Z</time>
      </trkpt>
      <trkpt lat="40.783131" lon="-3.993008">
        <ele>2060.618075</ele>
        <time>2021-09-15T21:45:15.000Z</time>
      </trkpt>
      <trkpt lat="40.783106" lon="-3.993003">
        <ele>2060.238929</ele>
        <time>2021-09-15T21:45:15.000Z</time>
      </trkpt>
      <trkpt lat="40.783094" lon="-3.992998">
        <ele>2060.050248</ele>
        <time>2021-09-15T21:45:15.000Z</time>
      </trkpt>
      <trkpt lat="40.783059" lon="-3.993014">
        <ele>2059.494878</ele>
        <time>2021-09-15T21:45:15.000Z</time>
      </trkpt>
      <trkpt lat="40.783045" lon="-3.993019">
        <ele>2059.277409</ele>
        <time>2021-09-15T21:45:15.000Z</time>
      </trkpt>
      <trkpt lat="40.783004" lon="-3.993034">
        <ele>2058.639467</ele>
        <time>2021-09-15T21:45:15.000Z</time>
      </trkpt>
      <trkpt lat="40.78298" lon="-3.993053"/>
      <trkpt lat="40.782911" lon="-3.993082">
        <ele>2057.134114</ele>
        <time>2021-09-15T21:45:15.000Z</time>
      </trkpt>
      <trkpt lat="40.7829" lon="-3.993089"/>
      <trkpt lat="40.782847" lon="-3.993158">
        <ele>2055.835073</ele>
        <time>2021-09-15T21:45:15.000Z</time>
      </trkpt>
      <trkpt lat="40.78284" lon="-3.993175"/>
      <trkpt lat="40.782822" lon="-3.993246">
        <ele>2054.765246</ele>
        <time>2021-09-15T21:45:15.000Z</time>
      </trkpt>
      <trkpt lat="40.78281" lon="-3.993281"/>
      <trkpt lat="40.782805" lon="-3.993302">
        <ele>2054.079074</ele>
        <time>2021-09-15T21:45:15.000Z</time>
      </trkpt>
      <trkpt lat="40.782809" lon="-3.993339">
        <ele>2053.654717</ele>
        <time>2021-09-15T21:45:15.000Z</time>
      </trkpt>
      <trkpt lat="40.782816" lon="-3.993355">
        <ele>2053.444910</ele>
        <time>2021-09-15T21:45:15.000Z</time>
      </trkpt>
      <trkpt lat="40.782828" lon="-3.99339"/>
      <trkpt lat="40.782828" lon="-3.993444">
        <ele>2052.395568</ele>
        <time>2021-09-15T21:45:15.000Z</time>
      </trkpt>
      <trkpt lat="40.782833" lon="-3.993459">
        <ele>2052.209487</ele>
        <time>2021-09-15T21:45:15.000Z</time>
      </trkpt>
      <trkpt lat="40.782853" lon="-3.99348"/>
      <trkpt lat="40.782877" lon="-3.993515">
        <ele>2051.290234</ele>
        <time>2021-09-15T21:45:15.000Z</time>
      </trkpt>
      <trkpt lat="40.782897" lon="-3.993541">
        <ele>2050.869422</ele>
        <time>2021-09-15T21:45:15.000Z</time>
      </trkpt>
      <trkpt lat="40.782912" lon="-3.993561">
        <ele>2050.549805</ele>
        <time>2021-09-15T21:45:15.000Z</time>
      </trkpt>
      <trkpt lat="40.78292" lon="-3.993572"/>
      <trkpt lat="40.782949" lon="-3.993595">
        <ele>2049.869396</ele>
        <time>2021-09-15T21:45:15.000Z</time>
      </trkpt>
      <trkpt lat="40.782993" lon="-3.993628">
        <ele>2049.110657</ele>
        <time>2021-09-15T21:45:15.000Z</time>
      </trkpt>
      <trkpt lat="40.783005" lon="-3.993636">
        <ele>2048.909093</ele>
        <time>2021-09-15T21:45:15.000Z</time>
      </trkpt>
      <trkpt lat="40.783015" lon="-3.993645">
        <ele>2048.727637</ele>
        <time>2021-09-15T21:45:15.000Z</time>
      </trkpt>
      <trkpt lat="40.78303" lon="-3.993672"/>
      <trkpt lat="40.783052" lon="-3.993685">
        <ele>2047.986016</ele>
        <time>2021-09-15T21:45:15.000Z</time>
      </trkpt>
      <trkpt lat="40.783072" lon="-3.993703">
        <ele>2047.623103</ele>
        <time>2021-09-15T21:45:15.000Z</time>
      </trkpt>
      <trkpt lat="40.78308" lon="-3.993715"/>
      <trkpt lat="40.783116" lon="-3.993734">
        <ele>2046.860250</ele>
        <time>2021-09-15T21:45:15.000Z</time>
      </trkpt>
      <trkpt lat="40.783127" lon="-3.993738">
        <ele>2046.689169</ele>
        <time>2021-09-15T21:45:15.000Z</time>
      </trkpt>
      <trkpt lat="40.783165" lon="-3.993774">
        <ele>2045.987923</ele>
        <time>2021-09-15T21:45:15.000Z</time>
      </trkpt>
      <trkpt lat="40.783206" lon="-3.993791">
        <ele>2045.343547</ele>
        <time>2021-09-15T21:45:15.000Z</time>
      </trkpt>
      <trkpt lat="40.783233" lon="-3.993809">
        <ele>2044.890029</ele>
        <time>2021-09-15T21:45:15.000Z</time>
      </trkpt>
      <trkpt lat="40.783286" lon="-3.993818">
        <ele>2044.088760</ele>
        <time>2021-09-15T21:45:15.000Z</time>
      </trkpt>
      <trkpt lat="40.783294" lon="-3.993834">
        <ele>2043.922401</ele>
        <time>2021-09-15T21:45:15.000Z</time>
      </trkpt>
      <trkpt lat="40.783309" lon="-3.993846">
        <ele>2043.723189</ele>
        <time>2021-09-15T21:45:15.000Z</time>
      </trkpt>
      <trkpt lat="40.783381" lon="-3.993861">
        <ele>2042.895209</ele>
        <time>2021-09-15T21:45:15.000Z</time>
      </trkpt>
      <trkpt lat="40.783399" lon="-3.993865">
        <ele>2042.687868</ele>
        <time>2021-09-15T21:45:15.000Z</time>
      </trkpt>
      <trkpt lat="40.78345" lon="-3.993881"/>
      <trkpt lat="40.78354" lon="-3.993911"/>
      <trkpt lat="40.783606" lon="-3.993924">
        <ele>2040.280029</ele>
        <time>2021-09-15T21:45:15.000Z</time>
      </trkpt>
      <trkpt lat="40.783653" lon="-3.993947">
        <ele>2039.710672</ele>
        <time>2021-09-15T21:45:15.000Z</time>
      </trkpt>
      <trkpt lat="40.783687" lon="-3.993956">
        <ele>2039.316776</ele>
        <time>2021-09-15T21:45:15.000Z</time>
      </trkpt>
      <trkpt lat="40.783779" lon="-3.993975">
        <ele>2038.259025</ele>
        <time>2021-09-15T21:45:15.000Z</time>
      </trkpt>
      <trkpt lat="40.783906" lon="-3.993992">
        <ele>2036.809008</ele>
        <time>2021-09-15T21:45:15.000Z</time>
      </trkpt>
      <trkpt lat="40.784017" lon="-3.993989">
        <ele>2035.547867</ele>
        <time>2021-09-15T21:45:15.000Z</time>
      </trkpt>
      <trkpt lat="40.78405" lon="-3.993999"/>
      <trkpt lat="40.784138" lon="-3.994013">
        <ele>2034.156429</ele>
        <time>2021-09-15T21:45:15.000Z</time>
      </trkpt>
      <trkpt lat="40.784225" lon="-3.994035">
        <ele>2033.150222</ele>
        <time>2021-09-15T21:45:15.000Z</time>
      </trkpt>
      <trkpt lat="40.784305" lon="-3.99407"/>
      <trkpt lat="40.784338" lon="-3.994082">
        <ele>2031.804114</ele>
        <time>2021-09-15T21:45:15.000Z</time>
      </trkpt>
      <trkpt lat="40.784446" lon="-3.994141">
        <ele>2030.476504</ele>
        <time>2021-09-15T21:45:15.000Z</time>
      </trkpt>
      <trkpt lat="40.784462" lon="-3.994147">
        <ele>2030.287572</ele>
        <time>2021-09-15T21:45:15.000Z</time>
      </trkpt>
      <trkpt lat="40.784545" lon="-3.994209">
        <ele>2029.204396</ele>
        <time>2021-09-15T21:45:15.000Z</time>
      </trkpt>
      <trkpt lat="40.784591" lon="-3.994232">
        <ele>2028.645678</ele>
        <time>2021-09-15T21:45:15.000Z</time>
      </trkpt>
      <trkpt lat="40.784692" lon="-3.994292">
        <ele>2027.387674</ele>
        <time>2021-09-15T21:45:15.000Z</time>
      </trkpt>
      <trkpt lat="40.784732" lon="-3.994324">
        <ele>2026.856446</ele>
        <time>2021-09-15T21:45:15.000Z</time>
      </trkpt>
      <trkpt lat="40.784762" lon="-3.994335">
        <ele>2026.502779</ele>
        <time>2021-09-15T21:45:15.000Z</time>
      </trkpt>
      <trkpt lat="40.784775" lon="-3.994344">
        <ele>2026.336050</ele>
        <time>2021-09-15T21:45:15.000Z</time>
      </trkpt>
      <trkpt lat="40.784825" lon="-3.994392">
        <ele>2025.633897</ele>
        <time>2021-09-15T21:45:15.000Z</time>
      </trkpt>
      <trkpt lat="40.784851" lon="-3.994414">
        <ele>2025.283140</ele>
        <time>2021-09-15T21:45:15.000Z</time>
      </trkpt>
      <trkpt lat="40.784916" lon="-3.994456">
        <ele>2024.461158</ele>
        <time>2021-09-15T21:45:15.000Z</time>
      </trkpt>
      <trkpt lat="40.784931" lon="-3.99446"/>
      <trkpt lat="40.785021" lon="-3.994505">
        <ele>2023.204392</ele>
        <time>2021-09-15T21:45:15.000Z</time>
      </trkpt>
      <trkpt lat="40.785053" lon="-3.994519">
        <ele>2022.830016</ele>
        <time>2021-09-15T21:45:15.000Z</time>
      </trkpt>
      <trkpt lat="40.785155" lon="-3.994578">
        <ele>2021.593345</ele>
        <time>2021-09-15T21:45:15.000Z</time>
      </trkpt>
      <trkpt lat="40.785215" lon="-3.9946"/>
      <trkpt lat="40.785246" lon="-3.994608">
        <ele>2020.551004</ele>
        <time>2021-09-15T21:45:15.000Z</time>
      </trkpt>
      <trkpt lat="40.785328" lon="-3.994634">
        <ele>2019.614453</ele>
        <time>2021-09-15T21:45:15.000Z</time>
      </trkpt>
      <trkpt lat="40.785355" lon="-3.994633">
        <ele>2019.314479</ele>
        <time>2021-09-15T21:45:15.000Z</time>
      </trkpt>
      <trkpt lat="40.78543" lon="-3.994659"/>
      <trkpt lat="40.785531" lon="-3.994666">
        <ele>2017.330101</ele>
        <time>2021-09-15T21:45:15.000Z</time>
      </trkpt>
      <trkpt lat="40.785549" lon="-3.994666">
        <ele>2017.130197</ele>
        <time>2021-09-15T21:45:15.000Z</time>
      </trkpt>
      <trkpt lat="40.785628" lon="-3.994696">
        <ele>2016.217293</ele>
        <time>2021-09-15T21:45:15.000Z</time>
      </trkpt>
      <trkpt lat="40.785644" lon="-3.994698">
        <ele>2016.038807</ele>
        <time>2021-09-15T21:45:15.000Z</time>
      </trkpt>
      <trkpt lat="40.78566" lon="-3.994697"/>
      <trkpt lat="40.785739" lon="-3.994718">
        <ele>2014.965964</ele>
        <time>2021-09-15T21:45:15.000Z</time>
      </trkpt>
      <trkpt lat="40.785773" lon="-3.994721">
        <ele>2014.587525</ele>
        <time>2021-09-15T21:45:15.000Z</time>
      </trkpt>
      <trkpt lat="40.785895" lon="-3.994749">
        <ele>2013.212314</ele>
        <time>2021-09-15T21:45:15.000Z</time>
      </trkpt>
      <trkpt lat="40.785948" lon="-3.994749">
        <ele>2012.623707</ele>
        <time>2021-09-15T21:45:15.000Z</time>
      </trkpt>
      <trkpt lat="40.786014" lon="-3.994758">
        <ele>2011.886828</ele>
        <time>2021-09-15T21:45:15.000Z</time>
      </trkpt>
      <trkpt lat="40.786066" lon="-3.994766">
        <ele>2011.305423</ele>
        <time>2021-09-15T21:45:15.000Z</time>
      </trkpt>
      <trkpt lat="40.786151" lon="-3.994779">
        <ele>2010.355123</ele>
        <time>2021-09-15T21:45:15.000Z</time>
      </trkpt>
      <trkpt lat="40.786182" lon="-3.994787">
        <ele>2010.004333</ele>
        <time>2021-09-15T21:45:15.000Z</time>
      </trkpt>
      <trkpt lat="40.786262" lon="-3.994799">
        <ele>2009.110158</ele>
        <time>2021-09-15T21:45:15.000Z</time>
      </trkpt>
      <trkpt lat="40.786308" lon="-3.9948"/>
      <trkpt lat="40.786348" lon="-3.994815">
        <ele>2008.137431</ele>
        <time>2021-09-15T21:45:15.000Z</time>
      </trkpt>
      <trkpt lat="40.786405" lon="-3.994831">
        <ele>2007.490262</ele>
        <time>2021-09-15T21:45:15.000Z</time>
      </trkpt>
      <trkpt lat="40.786445" lon="-3.994845">
        <ele>2007.030697</ele>
        <time>2021-09-15T21:45:15.000Z</time>
      </trkpt>
      <trkpt lat="40.78647" lon="-3.994859"/>
      <trkpt lat="40.786482" lon="-3.994865">
        <ele>2006.586626</ele>
        <time>2021-09-15T21:45:15.000Z</time>
      </trkpt>
      <trkpt lat="40.786522" lon="-3.99486"/>
      <trkpt lat="40.786535" lon="-3.994865">
        <ele>2005.990037</ele>
        <time>2021-09-15T21:45:15.000Z</time>
      </trkpt>
      <trkpt lat="40.786554" lon="-3.99489"/>
      <trkpt lat="40.78658" lon="-3.994904"/>
      <trkpt lat="40.786608" lon="-3.994914">
        <ele>2005.058227</ele>
        <time>2021-09-15T21:45:15.000Z</time>
      </trkpt>
      <trkpt lat="40.786692" lon="-3.994947">
        <ele>2004.084946</ele>
        <time>2021-09-15T21:45:15.000Z</time>
      </trkpt>
      <trkpt lat="40.786744" lon="-3.994977">
        <ele>2003.424220</ele>
        <time>2021-09-15T21:45:15.000Z</time>
      </trkpt>
      <trkpt lat="40.78681" lon="-3.995006"/>
      <trkpt lat="40.786845" lon="-3.995014">
        <ele>2002.096358</ele>
        <time>2021-09-15T21:45:15.000Z</time>
      </trkpt>
      <trkpt lat="40.786929" lon="-3.995053">
        <ele>2000.971168</ele>
        <time>2021-09-15T21:45:15.000Z</time>
      </trkpt>
      <trkpt lat="40.786965" lon="-3.995061">
        <ele>2000.509840</ele>
        <time>2021-09-15T21:45:15.000Z</time>
      </trkpt>
      <trkpt lat="40.787041" lon="-3.995079">
        <ele>1999.534104</ele>
        <time>2021-09-15T21:45:15.000Z</time>
      </trkpt>
      <trkpt lat="40.787172" lon="-3.995104">
        <ele>1997.861459</ele>
        <time>2021-09-15T21:45:15.000Z</time>
      </trkpt>
      <trkpt lat="40.787303" lon="-3.99515"/>
      <trkpt lat="40.787321" lon="-3.99516"/>
      <trkpt lat="40.787375" lon="-3.995173">
        <ele>1995.208081</ele>
        <time>2021-09-15T21:45:15.000Z</time>
      </trkpt>
      <trkpt lat="40.787471" lon="-3.995182">
        <ele>1993.991872</ele>
        <time>2021-09-15T21:45:15.000Z</time>
      </trkpt>
      <trkpt lat="40.787578" lon="-3.995207">
        <ele>1992.618714</ele>
        <time>2021-09-15T21:45:15.000Z</time>
      </trkpt>
      <trkpt lat="40.787594" lon="-3.99521"/>
      <trkpt lat="40.78764" lon="-3.995215"/>
      <trkpt lat="40.787668" lon="-3.995218">
        <ele>1991.476224</ele>
        <time>2021-09-15T21:45:15.000Z</time>
      </trkpt>
      <trkpt lat="40.787691" lon="-3.995218">
        <ele>1991.185572</ele>
        <time>2021-09-15T21:45:15.000Z</time>
      </trkpt>
      <trkpt lat="40.787749" lon="-3.995238">
        <ele>1990.428055</ele>
        <time>2021-09-15T21:45:15.000Z</time>
      </trkpt>
      <trkpt lat="40.787764" lon="-3.995232">
        <ele>1990.229997</ele>
        <time>2021-09-15T21:45:15.000Z</time>
      </trkpt>
      <trkpt lat="40.787777" lon="-3.995226">
        <ele>1990.055973</ele>
        <time>2021-09-15T21:45:15.000Z</time>
      </trkpt>
      <trkpt lat="40.787822" lon="-3.995239">
        <ele>1989.473862</ele>
        <time>2021-09-15T21:45:15.000Z</time>
      </trkpt>
      <trkpt lat="40.787862" lon="-3.995245">
        <ele>1988.965131</ele>
        <time>2021-09-15T21:45:15.000Z</time>
      </trkpt>
      <trkpt lat="40.787888" lon="-3.995247">
        <ele>1988.636011</ele>
        <time>2021-09-15T21:45:15.000Z</time>
      </trkpt>
      <trkpt lat="40.787927" lon="-3.995264">
        <ele>1988.117019</ele>
        <time>2021-09-15T21:45:15.000Z</time>
      </trkpt>
      <trkpt lat="40.787936" lon="-3.995309">
        <ele>1987.671694</ele>
        <time>2021-09-15T21:45:15.000Z</time>
      </trkpt>
      <trkpt lat="40.787926" lon="-3.995333">
        <ele>1987.409588</ele>
        <time>2021-09-15T21:45:15.000Z</time>
      </trkpt>
      <trkpt lat="40.787917" lon="-3.995344">
        <ele>1987.254629</ele>
        <time>2021-09-15T21:45:15.000Z</time>
      </trkpt>
      <trkpt lat="40.78791" lon="-3.995357"/>
      <trkpt lat="40.787857" lon="-3.995424">
        <ele>1986.174890</ele>
        <time>2021-09-15T21:45:15.000Z</time>
      </trkpt>
      <trkpt lat="40.787822" lon="-3.995466">
        <ele>1985.577301</ele>
        <time>2021-09-15T21:45:15.000Z</time>
      </trkpt>
      <trkpt lat="40.787795" lon="-3.995494">
        <ele>1985.143493</ele>
        <time>2021-09-15T21:45:15.000Z</time>
      </trkpt>
      <trkpt lat="40.787786" lon="-3.995506">
        <ele>1984.981882</ele>
        <time>2021-09-15T21:45:15.000Z</time>
      </trkpt>
      <trkpt lat="40.787758" lon="-3.995551">
        <ele>1984.424585</ele>
        <time>2021-09-15T21:45:15.000Z</time>
      </trkpt>
      <trkpt lat="40.787751" lon="-3.995563">
        <ele>1984.279645</ele>
        <time>2021-09-15T21:45:15.000Z</time>
      </trkpt>
      <trkpt lat="40.787729" lon="-3.995585">
        <ele>1983.930932</ele>
        <time>2021-09-15T21:45:15.000Z</time>
      </trkpt>
      <trkpt lat="40.787675" lon="-3.99565"/>
      <trkpt lat="40.787574" lon="-3.995758">
        <ele>1981.365443</ele>
        <time>2021-09-15T21:45:15.000Z</time>
      </trkpt>
      <trkpt lat="40.787559" lon="-3.995771">
        <ele>1981.138721</ele>
        <time>2021-09-15T21:45:15.000Z</time>
      </trkpt>
      <trkpt lat="40.787469" lon="-3.995845">
        <ele>1979.632412</ele>
        <time>2021-09-15T21:45:15.000Z</time>
      </trkpt>
      <trkpt lat="40.787311" lon="-3.995868">
        <ele>1977.332076</ele>
        <time>2021-09-15T21:45:15.000Z</time>
      </trkpt>
      <trkpt lat="40.787229" lon="-3.995855">
        <ele>1976.136898</ele>
        <time>2021-09-15T21:45:15.000Z</time>
      </trkpt>
      <trkpt lat="40.787172" lon="-3.99585"/>
      <trkpt lat="40.787155" lon="-3.995843">
        <ele>1975.052514</ele>
        <time>2021-09-15T21:45:15.000Z</time>
      </trkpt>
      <trkpt lat="40.787039" lon="-3.995836">
        <ele>1973.372074</ele>
        <time>2021-09-15T21:45:15.000Z</time>
      </trkpt>
      <trkpt lat="40.786977" lon="-3.995857">
        <ele>1972.445809</ele>
        <time>2021-09-15T21:45:15.000Z</time>
      </trkpt>
      <trkpt lat="40.786949" lon="-3.995881">
        <ele>1971.962757</ele>
        <time>2021-09-15T21:45:15.000Z</time>
      </trkpt>
      <trkpt lat="40.786886" lon="-3.99589"/>
      <trkpt lat="40.786858" lon="-3.995898">
        <ele>1970.631164</ele>
        <time>2021-09-15T21:45:15.000Z</time>
      </trkpt>
      <trkpt lat="40.786846" lon="-3.995908">
        <ele>1970.425829</ele>
        <time>2021-09-15T21:45:15.000Z</time>
      </trkpt>
      <trkpt lat="40.786834" lon="-3.995919">
        <ele>1970.214444</ele>
        <time>2021-09-15T21:45:15.000Z</time>
      </trkpt>
      <trkpt lat="40.786792" lon="-3.995935">
        <ele>1969.581865</ele>
        <time>2021-09-15T21:45:15.000Z</time>
      </trkpt>
      <trkpt lat="40.786778" lon="-3.995936">
        <ele>1969.378968</ele>
        <time>2021-09-15T21:45:15.000Z</time>
      </trkpt>
      <trkpt lat="40.78674" lon="-3.99593"/>
      <trkpt lat="40.78673" lon="-3.995936"/>
      <trkpt lat="40.786721" lon="-3.995943">
        <ele>1968.515041</ele>
        <time>2021-09-15T21:45:15.000Z</time>
      </trkpt>
      <trkpt lat="40.786677" lon="-3.995953">
        <ele>1967.868938</ele>
        <time>2021-09-15T21:45:15.000Z</time>
      </trkpt>
      <trkpt lat="40.786631" lon="-3.995969">
        <ele>1967.180553</ele>
        <time>2021-09-15T21:45:15.000Z</time>
      </trkpt>
      <trkpt lat="40.786618" lon="-3.995975">
        <ele>1966.981268</ele>
        <time>2021-09-15T21:45:15.000Z</time>
      </trkpt>
      <trkpt lat="40.786592" lon="-3.995987">
        <ele>1966.582698</ele>
        <time>2021-09-15T21:45:15.000Z</time>
      </trkpt>
      <trkpt lat="40.78654" lon="-3.995998"/>
      <trkpt lat="40.786512" lon="-3.996004">
        <ele>1965.410092</ele>
        <time>2021-09-15T21:45:15.000Z</time>
      </trkpt>
      <trkpt lat="40.786489" lon="-3.996028">
        <ele>1964.985902</ele>
        <time>2021-09-15T21:45:15.000Z</time>
      </trkpt>
      <trkpt lat="40.786479" lon="-3.996038">
        <ele>1964.804386</ele>
        <time>2021-09-15T21:45:15.000Z</time>
      </trkpt>
      <trkpt lat="40.78645" lon="-3.99605"/>
      <trkpt lat="40.786371" lon="-3.996075">
        <ele>1963.188994</ele>
        <time>2021-09-15T21:45:15.000Z</time>
      </trkpt>
      <trkpt lat="40.78631" lon="-3.996098"/>
      <trkpt lat="40.786297" lon="-3.996107">
        <ele>1962.058559</ele>
        <time>2021-09-15T21:45:15.000Z</time>
      </trkpt>
      <trkpt lat="40.786286" lon="-3.996121">
        <ele>1961.837490</ele>
        <time>2021-09-15T21:45:15.000Z</time>
      </trkpt>
      <trkpt lat="40.786276" lon="-3.996137">
        <ele>1961.610164</ele>
        <time>2021-09-15T21:45:15.000Z</time>
      </trkpt>
      <trkpt lat="40.78625" lon="-3.996154"/>
      <trkpt lat="40.786209" lon="-3.996181">
        <ele>1960.527328</ele>
        <time>2021-09-15T21:45:15.000Z</time>
      </trkpt>
      <trkpt lat="40.786167" lon="-3.996198">
        <ele>1959.891624</ele>
        <time>2021-09-15T21:45:15.000Z</time>
      </trkpt>
      <trkpt lat="40.786098" lon="-3.996263">
        <ele>1958.665122</ele>
        <time>2021-09-15T21:45:15.000Z</time>
      </trkpt>
      <trkpt lat="40.786089" lon="-3.996262">
        <ele>1958.534418</ele>
        <time>2021-09-15T21:45:15.000Z</time>
      </trkpt>
      <trkpt lat="40.786077" lon="-3.996261">
        <ele>1958.360416</ele>
        <time>2021-09-15T21:45:15.000Z</time>
      </trkpt>
      <trkpt lat="40.786026" lon="-3.996293">
        <ele>1957.543318</ele>
        <time>2021-09-15T21:45:15.000Z</time>
      </trkpt>
      <trkpt lat="40.785998" lon="-3.99632"/>
      <trkpt lat="40.785981" lon="-3.996338">
        <ele>1956.726297</ele>
        <time>2021-09-15T21:45:15.000Z</time>
      </trkpt>
      <trkpt lat="40.785938" lon="-3.996348">
        <ele>1956.094451</ele>
        <time>2021-09-15T21:45:15.000Z</time>
      </trkpt>
      <trkpt lat="40.785931" lon="-3.996359">
        <ele>1955.937006</ele>
        <time>2021-09-15T21:45:15.000Z</time>
      </trkpt>
      <trkpt lat="40.785887" lon="-3.996381">
        <ele>1955.256160</ele>
        <time>2021-09-15T21:45:15.000Z</time>
      </trkpt>
      <trkpt lat="40.785874" lon="-3.996384">
        <ele>1955.065181</ele>
        <time>2021-09-15T21:45:15.000Z</time>
      </trkpt>
      <trkpt lat="40.785863" lon="-3.996391">
        <ele>1954.890633</ele>
        <time>2021-09-15T21:45:15.000Z</time>
      </trkpt>
      <trkpt lat="40.785851" lon="-3.996398">
        <ele>1954.714788</ele>
        <time>2021-09-15T21:45:15.000Z</time>
      </trkpt>
      <trkpt lat="40.785806" lon="-3.996425">
        <ele>1954.052261</ele>
        <time>2021-09-15T21:45:15.000Z</time>
      </trkpt>
      <trkpt lat="40.785795" lon="-3.996434">
        <ele>1953.878811</ele>
        <time>2021-09-15T21:45:15.000Z</time>
      </trkpt>
      <trkpt lat="40.785763" lon="-3.996463">
        <ele>1953.358598</ele>
        <time>2021-09-15T21:45:15.000Z</time>
      </trkpt>
      <trkpt lat="40.785748" lon="-3.996464">
        <ele>1953.157275</ele>
        <time>2021-09-15T21:45:15.000Z</time>
      </trkpt>
      <trkpt lat="40.785724" lon="-3.996482">
        <ele>1952.787316</ele>
        <time>2021-09-15T21:45:15.000Z</time>
      </trkpt>
      <trkpt lat="40.785701" lon="-3.996497">
        <ele>1952.443474</ele>
        <time>2021-09-15T21:45:15.000Z</time>
      </trkpt>
      <trkpt lat="40.785687" lon="-3.9965"/>
      <trkpt lat="40.785605" lon="-3.996543">
        <ele>1951.070723</ele>
        <time>2021-09-15T21:45:15.000Z</time>
      </trkpt>
      <trkpt lat="40.785531" lon="-3.996563">
        <ele>1950.058237</ele>
        <time>2021-09-15T21:45:15.000Z</time>
      </trkpt>
      <trkpt lat="40.785501" lon="-3.996568">
        <ele>1949.652915</ele>
        <time>2021-09-15T21:45:15.000Z</time>
      </trkpt>
      <trkpt lat="40.785464" lon="-3.996616">
        <ele>1948.957707</ele>
        <time>2021-09-15T21:45:15.000Z</time>
      </trkpt>
      <trkpt lat="40.785462" lon="-3.99667"/>
      <trkpt lat="40.785485" lon="-3.996696">
        <ele>1948.003176</ele>
        <time>2021-09-15T21:45:15.000Z</time>
      </trkpt>
      <trkpt lat="40.785498" lon="-3.996705">
        <ele>1947.806428</ele>
        <time>2021-09-15T21:45:15.000Z</time>
      </trkpt>
      <trkpt lat="40.785529" lon="-3.99671"/>
      <trkpt lat="40.785596" lon="-3.996713">
        <ele>1946.489189</ele>
        <time>2021-09-15T21:45:15.000Z</time>
      </trkpt>
      <trkpt lat="40.78564" lon="-3.996694"/>
      <trkpt lat="40.785698" lon="-3.996703">
        <ele>1945.085863</ele>
        <time>2021-09-15T21:45:15.000Z</time>
      </trkpt>
      <trkpt lat="40.785714" lon="-3.996706">
        <ele>1944.869241</ele>
        <time>2021-09-15T21:45:15.000Z</time>
      </trkpt>
      <trkpt lat="40.785818" lon="-3.99671"/>
      <trkpt lat="40.785833" lon="-3.996714">
        <ele>1943.269463</ele>
        <time>2021-09-15T21:45:15.000Z</time>
      </trkpt>
      <trkpt lat="40.785863" lon="-3.996726">
        <ele>1942.849291</ele>
        <time>2021-09-15T21:45:15.000Z</time>
      </trkpt>
      <trkpt lat="40.785926" lon="-3.996745">
        <ele>1941.983074</ele>
        <time>2021-09-15T21:45:15.000Z</time>
      </trkpt>
      <trkpt lat="40.785942" lon="-3.996748">
        <ele>1941.766452</ele>
        <time>2021-09-15T21:45:15.000Z</time>
      </trkpt>
      <trkpt lat="40.786035" lon="-3.996794">
        <ele>1940.435284</ele>
        <time>2021-09-15T21:45:15.000Z</time>
      </trkpt>
      <trkpt lat="40.786051" lon="-3.996799">
        <ele>1940.214891</ele>
        <time>2021-09-15T21:45:15.000Z</time>
      </trkpt>
      <trkpt lat="40.786144" lon="-3.996822">
        <ele>1938.946610</ele>
        <time>2021-09-15T21:45:15.000Z</time>
      </trkpt>
      <trkpt lat="40.786236" lon="-3.996871">
        <ele>1937.616901</ele>
        <time>2021-09-15T21:45:15.000Z</time>
      </trkpt>
      <trkpt lat="40.786252" lon="-3.996879">
        <ele>1937.387576</ele>
        <time>2021-09-15T21:45:15.000Z</time>
      </trkpt>
      <trkpt lat="40.786269" lon="-3.996885">
        <ele>1937.151704</ele>
        <time>2021-09-15T21:45:15.000Z</time>
      </trkpt>
      <trkpt lat="40.786334" lon="-3.99689"/>
      <trkpt lat="40.786347" lon="-3.996903">
        <ele>1936.060366</ele>
        <time>2021-09-15T21:45:15.000Z</time>
      </trkpt>
      <trkpt lat="40.786458" lon="-3.996962">
        <ele>1934.456498</ele>
        <time>2021-09-15T21:45:15.000Z</time>
      </trkpt>
      <trkpt lat="40.786594" lon="-3.997051">
        <ele>1932.421982</ele>
        <time>2021-09-15T21:45:15.000Z</time>
      </trkpt>
      <trkpt lat="40.786618" lon="-3.99708"/>
      <trkpt lat="40.786674" lon="-3.997123">
        <ele>1931.117660</ele>
        <time>2021-09-15T21:45:15.000Z</time>
      </trkpt>
      <trkpt lat="40.786761" lon="-3.997177">
        <ele>1929.809724</ele>
        <time>2021-09-15T21:45:15.000Z</time>
      </trkpt>
      <trkpt lat="40.78687" lon="-3.997316"/>
      <trkpt lat="40.786893" lon="-3.997347">
        <ele>1927.289277</ele>
        <time>2021-09-15T21:45:15.000Z</time>
      </trkpt>
      <trkpt lat="40.786928" lon="-3.997415">
        <ele>1926.438240</ele>
        <time>2021-09-15T21:45:15.000Z</time>
      </trkpt>
      <trkpt lat="40.786947" lon="-3.997475">
        <ele>1925.765104</ele>
        <time>2021-09-15T21:45:15.000Z</time>
      </trkpt>
      <trkpt lat="40.786975" lon="-3.997526">
        <ele>1925.113078</ele>
        <time>2021-09-15T21:45:15.000Z</time>
      </trkpt>
      <trkpt lat="40.787017" lon="-3.997619">
        <ele>1923.992290</ele>
        <time>2021-09-15T21:45:15.000Z</time>
      </trkpt>
      <trkpt lat="40.787024" lon="-3.99766"/>
      <trkpt lat="40.787031" lon="-3.9977"/>
      <trkpt lat="40.787059" lon="-3.997792">
        <ele>1922.106098</ele>
        <time>2021-09-15T21:45:15.000Z</time>
      </trkpt>
      <trkpt lat="40.787065" lon="-3.99781"/>
      <trkpt lat="40.787079" lon="-3.997844">
        <ele>1921.501961</ele>
        <time>2021-09-15T21:45:15.000Z</time>
      </trkpt>
      <trkpt lat="40.787106" lon="-3.997915">
        <ele>1920.679620</ele>
        <time>2021-09-15T21:45:15.000Z</time>
      </trkpt>
      <trkpt lat="40.78711" lon="-3.997933"/>
      <trkpt lat="40.787146" lon="-3.998016">
        <ele>1919.495426</ele>
        <time>2021-09-15T21:45:15.000Z</time>
      </trkpt>
      <trkpt lat="40.787152" lon="-3.998032">
        <ele>1919.310625</ele>
        <time>2021-09-15T21:45:15.000Z</time>
      </trkpt>
      <trkpt lat="40.787167" lon="-3.998096">
        <ele>1918.617207</ele>
        <time>2021-09-15T21:45:15.000Z</time>
      </trkpt>
      <trkpt lat="40.787167" lon="-3.998114">
        <ele>1918.430905</ele>
        <time>2021-09-15T21:45:15.000Z</time>
      </trkpt>
      <trkpt lat="40.787203" lon="-3.998172">
        <ele>1917.654664</ele>
        <time>2021-09-15T21:45:15.000Z</time>
      </trkpt>
      <trkpt lat="40.787211" lon="-3.998185">
        <ele>1917.481275</ele>
        <time>2021-09-15T21:45:15.000Z</time>
      </trkpt>
      <trkpt lat="40.787215" lon="-3.9982"/>
      <trkpt lat="40.787238" lon="-3.998262">
        <ele>1916.602085</ele>
        <time>2021-09-15T21:45:15.000Z</time>
      </trkpt>
      <trkpt lat="40.787249" lon="-3.998309">
        <ele>1916.092919</ele>
        <time>2021-09-15T21:45:15.000Z</time>
      </trkpt>
      <trkpt lat="40.787256" lon="-3.998341">
        <ele>1915.748170</ele>
        <time>2021-09-15T21:45:15.000Z</time>
      </trkpt>
      <trkpt lat="40.787263" lon="-3.998357">
        <ele>1915.556910</ele>
        <time>2021-09-15T21:45:15.000Z</time>
      </trkpt>
      <trkpt lat="40.787284" lon="-3.998388">
        <ele>1915.126380</ele>
        <time>2021-09-15T21:45:15.000Z</time>
      </trkpt>
      <trkpt lat="40.787324" lon="-3.998493">
        <ele>1913.909812</ele>
        <time>2021-09-15T21:45:15.000Z</time>
      </trkpt>
      <trkpt lat="40.787342" lon="-3.998527">
        <ele>1913.480416</ele>
        <time>2021-09-15T21:45:15.000Z</time>
      </trkpt>
      <trkpt lat="40.787373" lon="-3.998574">
        <ele>1912.835266</ele>
        <time>2021-09-15T21:45:15.000Z</time>
      </trkpt>
      <trkpt lat="40.787374" lon="-3.998594">
        <ele>1912.627814</ele>
        <time>2021-09-15T21:45:15.000Z</time>
      </trkpt>
      <trkpt lat="40.787395" lon="-3.998669">
        <ele>1911.800177</ele>
        <time>2021-09-15T21:45:15.000Z</time>
      </trkpt>
      <trkpt lat="40.787405" lon="-3.998687">
        <ele>1911.569103</ele>
        <time>2021-09-15T21:45:15.000Z</time>
      </trkpt>
      <trkpt lat="40.787423" lon="-3.998721">
        <ele>1911.139707</ele>
        <time>2021-09-15T21:45:15.000Z</time>
      </trkpt>
      <trkpt lat="40.787451" lon="-3.998772">
        <ele>1910.487684</ele>
        <time>2021-09-15T21:45:15.000Z</time>
      </trkpt>
      <trkpt lat="40.787463" lon="-3.998811">
        <ele>1910.051972</ele>
        <time>2021-09-15T21:45:15.000Z</time>
      </trkpt>
      <trkpt lat="40.787488" lon="-3.998864">
        <ele>1909.405672</ele>
        <time>2021-09-15T21:45:15.000Z</time>
      </trkpt>
      <trkpt lat="40.787521" lon="-3.998939">
        <ele>1908.507857</ele>
        <time>2021-09-15T21:45:15.000Z</time>
      </trkpt>
      <trkpt lat="40.787576" lon="-3.999085">
        <ele>1906.820040</ele>
        <time>2021-09-15T21:45:15.000Z</time>
      </trkpt>
      <trkpt lat="40.787583" lon="-3.999104">
        <ele>1906.601344</ele>
        <time>2021-09-15T21:45:15.000Z</time>
      </trkpt>
      <trkpt lat="40.787596" lon="-3.999166">
        <ele>1905.890711</ele>
        <time>2021-09-15T21:45:15.000Z</time>
      </trkpt>
      <trkpt lat="40.787606" lon="-3.999204">
        <ele>1905.408894</ele>
        <time>2021-09-15T21:45:15.000Z</time>
      </trkpt>
      <trkpt lat="40.787614" lon="-3.999266">
        <ele>1904.655638</ele>
        <time>2021-09-15T21:45:15.000Z</time>
      </trkpt>
      <trkpt lat="40.78762" lon="-3.999284"/>
      <trkpt lat="40.787629" lon="-3.9993"/>
      <trkpt lat="40.787632" lon="-3.999336">
        <ele>1903.747609</ele>
        <time>2021-09-15T21:45:15.000Z</time>
      </trkpt>
      <trkpt lat="40.787627" lon="-3.999372">
        <ele>1903.309257</ele>
        <time>2021-09-15T21:45:15.000Z</time>
      </trkpt>
      <trkpt lat="40.78764" lon="-3.999466"/>
      <trkpt lat="40.787644" lon="-3.999485">
        <ele>1901.928641</ele>
        <time>2021-09-15T21:45:15.000Z</time>
      </trkpt>
      <trkpt lat="40.78766" lon="-3.999537"/>
      <trkpt lat="40.787664" lon="-3.999555">
        <ele>1901.031722</ele>
        <time>2021-09-15T21:45:15.000Z</time>
      </trkpt>
      <trkpt lat="40.787664" lon="-3.999592">
        <ele>1900.588588</ele>
        <time>2021-09-15T21:45:15.000Z</time>
      </trkpt>
      <trkpt lat="40.787672" lon="-3.999679">
        <ele>1899.538967</ele>
        <time>2021-09-15T21:45:15.000Z</time>
      </trkpt>
      <trkpt lat="40.787678" lon="-3.999692">
        <ele>1899.356624</ele>
        <time>2021-09-15T21:45:15.000Z</time>
      </trkpt>
      <trkpt lat="40.787677" lon="-3.999723">
        <ele>1898.985013</ele>
        <time>2021-09-15T21:45:15.000Z</time>
      </trkpt>
      <trkpt lat="40.787671" lon="-3.999773">
        <ele>1898.378709</ele>
        <time>2021-09-15T21:45:15.000Z</time>
      </trkpt>
      <trkpt lat="40.787671" lon="-3.999807">
        <ele>1897.971504</ele>
        <time>2021-09-15T21:45:15.000Z</time>
      </trkpt>
      <trkpt lat="40.787675" lon="-3.999837">
        <ele>1897.606678</ele>
        <time>2021-09-15T21:45:15.000Z</time>
      </trkpt>
      <trkpt lat="40.787676" lon="-3.999868">
        <ele>1897.235066</ele>
        <time>2021-09-15T21:45:15.000Z</time>
      </trkpt>
      <trkpt lat="40.787679" lon="-3.999883">
        <ele>1897.049255</ele>
        <time>2021-09-15T21:45:15.000Z</time>
      </trkpt>
      <trkpt lat="40.787685" lon="-3.999898">
        <ele>1896.846077</ele>
        <time>2021-09-15T21:45:15.000Z</time>
      </trkpt>
      <trkpt lat="40.787691" lon="-3.999978">
        <ele>1895.883260</ele>
        <time>2021-09-15T21:45:15.000Z</time>
      </trkpt>
      <trkpt lat="40.787692" lon="-3.999994">
        <ele>1895.690983</ele>
        <time>2021-09-15T21:45:15.000Z</time>
      </trkpt>
      <trkpt lat="40.787692" lon="-4.000009">
        <ele>1895.511334</ele>
        <time>2021-09-15T21:45:15.000Z</time>
      </trkpt>
      <trkpt lat="40.787704" lon="-4.000069">
        <ele>1894.768090</ele>
        <time>2021-09-15T21:45:15.000Z</time>
      </trkpt>
      <trkpt lat="40.787707" lon="-4.000085">
        <ele>1894.570676</ele>
        <time>2021-09-15T21:45:15.000Z</time>
      </trkpt>
      <trkpt lat="40.787707" lon="-4.000148">
        <ele>1893.816151</ele>
        <time>2021-09-15T21:45:15.000Z</time>
      </trkpt>
      <trkpt lat="40.787719" lon="-4.000179">
        <ele>1893.399166</ele>
        <time>2021-09-15T21:45:15.000Z</time>
      </trkpt>
      <trkpt lat="40.787723" lon="-4.000228">
        <ele>1892.808912</ele>
        <time>2021-09-15T21:45:15.000Z</time>
      </trkpt>
      <trkpt lat="40.787727" lon="-4.000296">
        <ele>1891.992050</ele>
        <time>2021-09-15T21:45:15.000Z</time>
      </trkpt>
      <trkpt lat="40.787729" lon="-4.000312">
        <ele>1891.797831</ele>
        <time>2021-09-15T21:45:15.000Z</time>
      </trkpt>
      <trkpt lat="40.787742" lon="-4.000355">
        <ele>1891.243300</ele>
        <time>2021-09-15T21:45:15.000Z</time>
      </trkpt>
      <trkpt lat="40.787746" lon="-4.000371">
        <ele>1891.041498</ele>
        <time>2021-09-15T21:45:15.000Z</time>
      </trkpt>
      <trkpt lat="40.787747" lon="-4.000388">
        <ele>1890.837283</ele>
        <time>2021-09-15T21:45:15.000Z</time>
      </trkpt>
      <trkpt lat="40.787746" lon="-4.000405">
        <ele>1890.633067</ele>
        <time>2021-09-15T21:45:15.000Z</time>
      </trkpt>
      <trkpt lat="40.787743" lon="-4.000423">
        <ele>1890.412328</ele>
        <time>2021-09-15T21:45:15.000Z</time>
      </trkpt>
      <trkpt lat="40.787753" lon="-4.000506">
        <ele>1889.405764</ele>
        <time>2021-09-15T21:45:15.000Z</time>
      </trkpt>
      <trkpt lat="40.787771" lon="-4.000564">
        <ele>1888.655033</ele>
        <time>2021-09-15T21:45:15.000Z</time>
      </trkpt>
      <trkpt lat="40.78776" lon="-4.000595"/>
      <trkpt lat="40.787768" lon="-4.000609">
        <ele>1888.034941</ele>
        <time>2021-09-15T21:45:15.000Z</time>
      </trkpt>
      <trkpt lat="40.78778" lon="-4.000621"/>
      <trkpt lat="40.787796" lon="-4.000646">
        <ele>1887.404799</ele>
        <time>2021-09-15T21:45:15.000Z</time>
      </trkpt>
      <trkpt lat="40.787792" lon="-4.00066"/>
      <trkpt lat="40.787792" lon="-4.000687">
        <ele>1886.902218</ele>
        <time>2021-09-15T21:45:15.000Z</time>
      </trkpt>
      <trkpt lat="40.787795" lon="-4.000717">
        <ele>1886.539801</ele>
        <time>2021-09-15T21:45:15.000Z</time>
      </trkpt>
      <trkpt lat="40.787809" lon="-4.000795">
        <ele>1885.579737</ele>
        <time>2021-09-15T21:45:15.000Z</time>
      </trkpt>
      <trkpt lat="40.787828" lon="-4.000872">
        <ele>1884.609802</ele>
        <time>2021-09-15T21:45:15.000Z</time>
      </trkpt>
      <trkpt lat="40.787846" lon="-4.000914">
        <ele>1884.031792</ele>
        <time>2021-09-15T21:45:15.000Z</time>
      </trkpt>
      <trkpt lat="40.787858" lon="-4.000958">
        <ele>1883.471678</ele>
        <time>2021-09-15T21:45:15.000Z</time>
      </trkpt>
      <trkpt lat="40.787868" lon="-4.001015">
        <ele>1882.770927</ele>
        <time>2021-09-15T21:45:15.000Z</time>
      </trkpt>
      <trkpt lat="40.787882" lon="-4.001039">
        <ele>1882.408073</ele>
        <time>2021-09-15T21:45:15.000Z</time>
      </trkpt>
      <trkpt lat="40.787895" lon="-4.001112">
        <ele>1881.509926</ele>
        <time>2021-09-15T21:45:15.000Z</time>
      </trkpt>
      <trkpt lat="40.787904" lon="-4.001141">
        <ele>1881.134561</ele>
        <time>2021-09-15T21:45:15.000Z</time>
      </trkpt>
      <trkpt lat="40.787925" lon="-4.001222">
        <ele>1880.109162</ele>
        <time>2021-09-15T21:45:15.000Z</time>
      </trkpt>
      <trkpt lat="40.787937" lon="-4.001274">
        <ele>1879.458096</ele>
        <time>2021-09-15T21:45:15.000Z</time>
      </trkpt>
      <trkpt lat="40.787979" lon="-4.001369">
        <ele>1878.140557</ele>
        <time>2021-09-15T21:45:15.000Z</time>
      </trkpt>
      <trkpt lat="40.787992" lon="-4.001422">
        <ele>1877.546010</ele>
        <time>2021-09-15T21:45:15.000Z</time>
      </trkpt>
      <trkpt lat="40.78801" lon="-4.00147"/>
      <trkpt lat="40.78802" lon="-4.001485"/>
      <trkpt lat="40.788055" lon="-4.001563">
        <ele>1876.062834</ele>
        <time>2021-09-15T21:45:15.000Z</time>
      </trkpt>
      <trkpt lat="40.788087" lon="-4.001621">
        <ele>1875.414674</ele>
        <time>2021-09-15T21:45:15.000Z</time>
      </trkpt>
      <trkpt lat="40.788097" lon="-4.001653">
        <ele>1875.102012</ele>
        <time>2021-09-15T21:45:15.000Z</time>
      </trkpt>
      <trkpt lat="40.788149" lon="-4.001736">
        <ele>1874.129027</ele>
        <time>2021-09-15T21:45:15.000Z</time>
      </trkpt>
      <trkpt lat="40.788155" lon="-4.001762">
        <ele>1873.883540</ele>
        <time>2021-09-15T21:45:15.000Z</time>
      </trkpt>
      <trkpt lat="40.788199" lon="-4.001888">
        <ele>1872.630350</ele>
        <time>2021-09-15T21:45:15.000Z</time>
      </trkpt>
      <trkpt lat="40.788222" lon="-4.001986">
        <ele>1871.703706</ele>
        <time>2021-09-15T21:45:15.000Z</time>
      </trkpt>
      <trkpt lat="40.788236" lon="-4.002062">
        <ele>1870.997281</ele>
        <time>2021-09-15T21:45:15.000Z</time>
      </trkpt>
      <trkpt lat="40.78824" lon="-4.002099"/>
      <trkpt lat="40.788232" lon="-4.002146">
        <ele>1870.224643</ele>
        <time>2021-09-15T21:45:15.000Z</time>
      </trkpt>
      <trkpt lat="40.788221" lon="-4.002182">
        <ele>1869.874027</ele>
        <time>2021-09-15T21:45:15.000Z</time>
      </trkpt>
      <trkpt lat="40.788208" lon="-4.002218">
        <ele>1869.513802</ele>
        <time>2021-09-15T21:45:15.000Z</time>
      </trkpt>
      <trkpt lat="40.788187" lon="-4.002244">
        <ele>1869.170446</ele>
        <time>2021-09-15T21:45:15.000Z</time>
      </trkpt>
      <trkpt lat="40.788159" lon="-4.002265">
        <ele>1868.786348</ele>
        <time>2021-09-15T21:45:15.000Z</time>
      </trkpt>
      <trkpt lat="40.788115" lon="-4.002304">
        <ele>1868.154248</ele>
        <time>2021-09-15T21:45:15.000Z</time>
      </trkpt>
      <trkpt lat="40.788106" lon="-4.002326">
        <ele>1867.928404</ele>
        <time>2021-09-15T21:45:15.000Z</time>
      </trkpt>
      <trkpt lat="40.788102" lon="-4.002352">
        <ele>1867.688783</ele>
        <time>2021-09-15T21:45:15.000Z</time>
      </trkpt>
      <trkpt lat="40.788105" lon="-4.002378">
        <ele>1867.451250</ele>
        <time>2021-09-15T21:45:15.000Z</time>
      </trkpt>
      <trkpt lat="40.788144" lon="-4.002431">
        <ele>1866.783747</ele>
        <time>2021-09-15T21:45:15.000Z</time>
      </trkpt>
      <trkpt lat="40.788173" lon="-4.002464">
        <ele>1866.327130</ele>
        <time>2021-09-15T21:45:15.000Z</time>
      </trkpt>
      <trkpt lat="40.788191" lon="-4.002478">
        <ele>1866.077949</ele>
        <time>2021-09-15T21:45:15.000Z</time>
      </trkpt>
      <trkpt lat="40.788305" lon="-4.002529">
        <ele>1864.642183</ele>
        <time>2021-09-15T21:45:15.000Z</time>
      </trkpt>
      <trkpt lat="40.788327" lon="-4.00254"/>
      <trkpt lat="40.788452" lon="-4.00261"/>
      <trkpt lat="40.78857" lon="-4.002706"/>
      <trkpt lat="40.788587" lon="-4.002722">
        <ele>1860.839792</ele>
        <time>2021-09-15T21:45:15.000Z</time>
      </trkpt>
      <trkpt lat="40.788612" lon="-4.00277"/>
      <trkpt lat="40.788612" lon="-4.002773">
        <ele>1860.286515</ele>
        <time>2021-09-15T21:45:15.000Z</time>
      </trkpt>
      <trkpt lat="40.788621" lon="-4.00278"/>
      <trkpt lat="40.788674" lon="-4.002782">
        <ele>1859.529444</ele>
        <time>2021-09-15T21:45:15.000Z</time>
      </trkpt>
      <trkpt lat="40.788789" lon="-4.002848">
        <ele>1858.033730</ele>
        <time>2021-09-15T21:45:15.000Z</time>
      </trkpt>
      <trkpt lat="40.788833" lon="-4.002886">
        <ele>1857.406620</ele>
        <time>2021-09-15T21:45:15.000Z</time>
      </trkpt>
      <trkpt lat="40.78888" lon="-4.002901"/>
      <trkpt lat="40.788909" lon="-4.002891">
        <ele>1856.472306</ele>
        <time>2021-09-15T21:45:15.000Z</time>
      </trkpt>
      <trkpt lat="40.789002" lon="-4.002723">
        <ele>1855.558353</ele>
        <time>2021-09-15T21:45:15.000Z</time>
      </trkpt>
      <trkpt lat="40.789144" lon="-4.002479">
        <ele>1854.338707</ele>
        <time>2021-09-15T21:45:15.000Z</time>
      </trkpt>
      <trkpt lat="40.789247" lon="-4.002275">
        <ele>1853.366963</ele>
        <time>2021-09-15T21:45:15.000Z</time>
      </trkpt>
      <trkpt lat="40.789264" lon="-4.002243">
        <ele>1853.212040</ele>
        <time>2021-09-15T21:45:15.000Z</time>
      </trkpt>
      <trkpt lat="40.789388" lon="-4.002017">
        <ele>1852.105934</ele>
        <time>2021-09-15T21:45:15.000Z</time>
      </trkpt>
      <trkpt lat="40.78951" lon="-4.001682"/>
      <trkpt lat="40.789571" lon="-4.001533">
        <ele>1849.961422</ele>
        <time>2021-09-15T21:45:15.000Z</time>
      </trkpt>
      <trkpt lat="40.789625" lon="-4.001375">
        <ele>1849.274422</ele>
        <time>2021-09-15T21:45:15.000Z</time>
      </trkpt>
      <trkpt lat="40.789653" lon="-4.001294">
        <ele>1848.921540</ele>
        <time>2021-09-15T21:45:15.000Z</time>
      </trkpt>
      <trkpt lat="40.789743" lon="-4.001006">
        <ele>1847.686788</ele>
        <time>2021-09-15T21:45:15.000Z</time>
      </trkpt>
      <trkpt lat="40.789811" lon="-4.000711">
        <ele>1846.465887</ele>
        <time>2021-09-15T21:45:15.000Z</time>
      </trkpt>
      <trkpt lat="40.789816" lon="-4.000668">
        <ele>1846.293946</ele>
        <time>2021-09-15T21:45:15.000Z</time>
      </trkpt>
      <trkpt lat="40.789962" lon="-4.000367">
        <ele>1844.881106</ele>
        <time>2021-09-15T21:45:15.000Z</time>
      </trkpt>
      <trkpt lat="40.78998" lon="-4.000329"/>
      <trkpt lat="40.790101" lon="-4.000017">
        <ele>1843.318472</ele>
        <time>2021-09-15T21:45:15.000Z</time>
      </trkpt>
      <trkpt lat="40.790137" lon="-3.999938">
        <ele>1842.954049</ele>
        <time>2021-09-15T21:45:15.000Z</time>
      </trkpt>
      <trkpt lat="40.790201" lon="-3.999775">
        <ele>1842.228350</ele>
        <time>2021-09-15T21:45:15.000Z</time>
      </trkpt>
      <trkpt lat="40.7903" lon="-3.99954"/>
      <trkpt lat="40.790345" lon="-3.999422">
        <ele>1840.643277</ele>
        <time>2021-09-15T21:45:15.000Z</time>
      </trkpt>
      <trkpt lat="40.790455" lon="-3.999142">
        <ele>1839.396534</ele>
        <time>2021-09-15T21:45:15.000Z</time>
      </trkpt>
      <trkpt lat="40.790593" lon="-3.998834">
        <ele>1837.982050</ele>
        <time>2021-09-15T21:45:15.000Z</time>
      </trkpt>
      <trkpt lat="40.790617" lon="-3.998795">
        <ele>1837.783417</ele>
        <time>2021-09-15T21:45:15.000Z</time>
      </trkpt>
      <trkpt lat="40.790695" lon="-3.998624">
        <ele>1836.994036</ele>
        <time>2021-09-15T21:45:15.000Z</time>
      </trkpt>
      <trkpt lat="40.790759" lon="-3.998174">
        <ele>1835.183134</ele>
        <time>2021-09-15T21:45:15.000Z</time>
      </trkpt>
      <trkpt lat="40.790817" lon="-3.997938">
        <ele>1834.201797</ele>
        <time>2021-09-15T21:45:15.000Z</time>
      </trkpt>
      <trkpt lat="40.790835" lon="-3.997895">
        <ele>1834.007466</ele>
        <time>2021-09-15T21:45:15.000Z</time>
      </trkpt>
      <trkpt lat="40.791001" lon="-3.997579">
        <ele>1832.486292</ele>
        <time>2021-09-15T21:45:15.000Z</time>
      </trkpt>
      <trkpt lat="40.791077" lon="-3.997484">
        <ele>1831.939670</ele>
        <time>2021-09-15T21:45:15.000Z</time>
      </trkpt>
      <trkpt lat="40.791178" lon="-3.997356">
        <ele>1831.208463</ele>
        <time>2021-09-15T21:45:15.000Z</time>
      </trkpt>
      <trkpt lat="40.791321" lon="-3.997219">
        <ele>1830.285624</ele>
        <time>2021-09-15T21:45:15.000Z</time>
      </trkpt>
      <trkpt lat="40.791382" lon="-3.997176">
        <ele>1829.924422</ele>
        <time>2021-09-15T21:45:15.000Z</time>
      </trkpt>
      <trkpt lat="40.791607" lon="-3.997059">
        <ele>1828.661229</ele>
        <time>2021-09-15T21:45:15.000Z</time>
      </trkpt>
      <trkpt lat="40.791636" lon="-3.997045">
        <ele>1828.499933</ele>
        <time>2021-09-15T21:45:15.000Z</time>
      </trkpt>
      <trkpt lat="40.791766" lon="-3.997009">
        <ele>1827.911043</ele>
        <time>2021-09-15T21:45:15.000Z</time>
      </trkpt>
      <trkpt lat="40.791928" lon="-3.997004">
        <ele>1827.353827</ele>
        <time>2021-09-15T21:45:15.000Z</time>
      </trkpt>
      <trkpt lat="40.791959" lon="-3.997013">
        <ele>1827.244683</ele>
        <time>2021-09-15T21:45:15.000Z</time>
      </trkpt>
      <trkpt lat="40.792178" lon="-3.997095">
        <ele>1826.461942</ele>
        <time>2021-09-15T21:45:15.000Z</time>
      </trkpt>
      <trkpt lat="40.79222" lon="-3.997108"/>
      <trkpt lat="40.79247" lon="-3.99714"/>
      <trkpt lat="40.7926" lon="-3.997126"/>
      <trkpt lat="40.79277" lon="-3.997073"/>
      <trkpt lat="40.79294" lon="-3.997007"/>
      <trkpt lat="40.79306" lon="-3.996934"/>
      <trkpt lat="40.793182" lon="-3.996853">
        <ele>1822.867630</ele>
        <time>2021-09-15T21:45:15.000Z</time>
      </trkpt>
      <trkpt lat="40.79339" lon="-3.996684"/>
      <trkpt lat="40.79343" lon="-3.996649"/>
      <trkpt lat="40.793546" lon="-3.996531">
        <ele>1821.557260</ele>
        <time>2021-09-15T21:45:15.000Z</time>
      </trkpt>
      <trkpt lat="40.793689" lon="-3.996359">
        <ele>1821.123460</ele>
        <time>2021-09-15T21:45:15.000Z</time>
      </trkpt>
      <trkpt lat="40.793817" lon="-3.996161">
        <ele>1820.681340</ele>
        <time>2021-09-15T21:45:15.000Z</time>
      </trkpt>
      <trkpt lat="40.793904" lon="-3.996005">
        <ele>1820.352325</ele>
        <time>2021-09-15T21:45:15.000Z</time>
      </trkpt>
      <trkpt lat="40.794126" lon="-3.995595">
        <ele>1819.496373</ele>
        <time>2021-09-15T21:45:15.000Z</time>
      </trkpt>
      <trkpt lat="40.794179" lon="-3.995501">
        <ele>1819.297351</ele>
        <time>2021-09-15T21:45:15.000Z</time>
      </trkpt>
      <trkpt lat="40.794317" lon="-3.995254">
        <ele>1818.776079</ele>
        <time>2021-09-15T21:45:15.000Z</time>
      </trkpt>
      <trkpt lat="40.794362" lon="-3.995146">
        <ele>1818.566747</ele>
        <time>2021-09-15T21:45:15.000Z</time>
      </trkpt>
      <trkpt lat="40.794424" lon="-3.994989">
        <ele>1818.266061</ele>
        <time>2021-09-15T21:45:15.000Z</time>
      </trkpt>
      <trkpt lat="40.794531" lon="-3.994559">
        <ele>1817.694908</ele>
        <time>2021-09-15T21:45:15.000Z</time>
      </trkpt>
      <trkpt lat="40.79454" lon="-3.994492"/>
      <trkpt lat="40.794547" lon="-3.994355">
        <ele>1817.519821</ele>
        <time>2021-09-15T21:45:15.000Z</time>
      </trkpt>
      <trkpt lat="40.794542" lon="-3.994217">
        <ele>1817.402029</ele>
        <time>2021-09-15T21:45:15.000Z</time>
      </trkpt>
      <trkpt lat="40.79452" lon="-3.994084"/>
      <trkpt lat="40.794435" lon="-3.993824">
        <ele>1817.044499</ele>
        <time>2021-09-15T21:45:15.000Z</time>
      </trkpt>
      <trkpt lat="40.79419" lon="-3.993306"/>
      <trkpt lat="40.793878" lon="-3.992796">
        <ele>1815.964702</ele>
        <time>2021-09-15T21:45:15.000Z</time>
      </trkpt>
      <trkpt lat="40.793618" lon="-3.992458">
        <ele>1815.871619</ele>
        <time>2021-09-15T21:45:15.000Z</time>
      </trkpt>
      <trkpt lat="40.793403" lon="-3.99231"/>
      <trkpt lat="40.793347" lon="-3.992284">
        <ele>1815.875099</ele>
        <time>2021-09-15T21:45:15.000Z</time>
      </trkpt>
      <trkpt lat="40.793231" lon="-3.992249">
        <ele>1815.876471</ele>
        <time>2021-09-15T21:45:15.000Z</time>
      </trkpt>
      <trkpt lat="40.793058" lon="-3.992194">
        <ele>1815.878523</ele>
        <time>2021-09-15T21:45:15.000Z</time>
      </trkpt>
      <trkpt lat="40.79293" lon="-3.992045"/>
      <trkpt lat="40.79288" lon="-3.991911"/>
      <trkpt lat="40.792849" lon="-3.991762">
        <ele>1815.883143</ele>
        <time>2021-09-15T21:45:15.000Z</time>
      </trkpt>
      <trkpt lat="40.792786" lon="-3.991295">
        <ele>1815.887284</ele>
        <time>2021-09-15T21:45:15.000Z</time>
      </trkpt>
      <trkpt lat="40.79263" lon="-3.990773"/>
      <trkpt lat="40.792401" lon="-3.990289">
        <ele>1815.897571</ele>
        <time>2021-09-15T21:45:15.000Z</time>
      </trkpt>
      <trkpt lat="40.792365" lon="-3.990225">
        <ele>1815.898302</ele>
        <time>2021-09-15T21:45:15.000Z</time>
      </trkpt>
      <trkpt lat="40.792277" lon="-3.990022">
        <ele>1815.900448</ele>
        <time>2021-09-15T21:45:15.000Z</time>
      </trkpt>
      <trkpt lat="40.792307" lon="-3.989805">
        <ele>1815.902471</ele>
        <time>2021-09-15T21:45:15.000Z</time>
      </trkpt>
      <trkpt lat="40.79262" lon="-3.989415"/>
      <trkpt lat="40.792886" lon="-3.989046">
        <ele>1815.915601</ele>
        <time>2021-09-15T21:45:15.000Z</time>
      </trkpt>
      <trkpt lat="40.792927" lon="-3.988977">
        <ele>1815.918231</ele>
        <time>2021-09-15T21:45:15.000Z</time>
      </trkpt>
      <trkpt lat="40.792998" lon="-3.988829">
        <ele>1815.923485</ele>
        <time>2021-09-15T21:45:15.000Z</time>
      </trkpt>
      <trkpt lat="40.793069" lon="-3.988593">
        <ele>1815.931101</ele>
        <time>2021-09-15T21:45:15.000Z</time>
      </trkpt>
      <trkpt lat="40.793196" lon="-3.988109">
        <ele>1815.946462</ele>
        <time>2021-09-15T21:45:15.000Z</time>
      </trkpt>
      <trkpt lat="40.793242" lon="-3.98795"/>
      <trkpt lat="40.793368" lon="-3.987473">
        <ele>1815.966716</ele>
        <time>2021-09-15T21:45:15.000Z</time>
      </trkpt>
      <trkpt lat="40.793392" lon="-3.9874"/>
      <trkpt lat="40.793543" lon="-3.987169">
        <ele>1815.978255</ele>
        <time>2021-09-15T21:45:15.000Z</time>
      </trkpt>
      <trkpt lat="40.793759" lon="-3.98711"/>
      <trkpt lat="40.793862" lon="-3.987133">
        <ele>1815.976455</ele>
        <time>2021-09-15T21:45:15.000Z</time>
      </trkpt>
      <trkpt lat="40.793957" lon="-3.98718"/>
      <trkpt lat="40.794003" lon="-3.987211">
        <ele>1815.972586</ele>
        <time>2021-09-15T21:45:15.000Z</time>
      </trkpt>
      <trkpt lat="40.794327" lon="-3.987516">
        <ele>1815.962532</ele>
        <time>2021-09-15T21:45:15.000Z</time>
      </trkpt>
      <trkpt lat="40.794598" lon="-3.987712">
        <ele>1815.954725</ele>
        <time>2021-09-15T21:45:15.000Z</time>
      </trkpt>
      <trkpt lat="40.794957" lon="-3.987778">
        <ele>1815.945565</ele>
        <time>2021-09-15T21:45:15.000Z</time>
      </trkpt>
      <trkpt lat="40.795256" lon="-3.987732">
        <ele>1815.937958</ele>
        <time>2021-09-15T21:45:15.000Z</time>
      </trkpt>
      <trkpt lat="40.795315" lon="-3.987708">
        <ele>1815.938881</ele>
        <time>2021-09-15T21:45:15.000Z</time>
      </trkpt>
      <trkpt lat="40.795535" lon="-3.987572">
        <ele>1815.980379</ele>
        <time>2021-09-15T21:45:15.000Z</time>
      </trkpt>
      <trkpt lat="40.795735" lon="-3.987281">
        <ele>1816.031213</ele>
        <time>2021-09-15T21:45:15.000Z</time>
      </trkpt>
      <trkpt lat="40.795867" lon="-3.986834">
        <ele>1816.093270</ele>
        <time>2021-09-15T21:45:15.000Z</time>
      </trkpt>
      <trkpt lat="40.796041" lon="-3.98613"/>
      <trkpt lat="40.796224" lon="-3.985688">
        <ele>1816.249146</ele>
        <time>2021-09-15T21:45:15.000Z</time>
      </trkpt>
      <trkpt lat="40.796393" lon="-3.985453">
        <ele>1816.270259</ele>
        <time>2021-09-15T21:45:15.000Z</time>
      </trkpt>
      <trkpt lat="40.796502" lon="-3.985381">
        <ele>1816.280744</ele>
        <time>2021-09-15T21:45:15.000Z</time>
      </trkpt>
      <trkpt lat="40.796727" lon="-3.985306">
        <ele>1816.300711</ele>
        <time>2021-09-15T21:45:15.000Z</time>
      </trkpt>
      <trkpt lat="40.797216" lon="-3.985221">
        <ele>1816.343148</ele>
        <time>2021-09-15T21:45:15.000Z</time>
      </trkpt>
      <trkpt lat="40.797485" lon="-3.985207">
        <ele>1816.366311</ele>
        <time>2021-09-15T21:45:15.000Z</time>
      </trkpt>
      <trkpt lat="40.79759" lon="-3.985209"/>
      <trkpt lat="40.797827" lon="-3.985324">
        <ele>1816.397070</ele>
        <time>2021-09-15T21:45:15.000Z</time>
      </trkpt>
      <trkpt lat="40.798038" lon="-3.985615">
        <ele>1816.339359</ele>
        <time>2021-09-15T21:45:15.000Z</time>
      </trkpt>
      <trkpt lat="40.798076" lon="-3.985668">
        <ele>1816.327854</ele>
        <time>2021-09-15T21:45:15.000Z</time>
      </trkpt>
      <trkpt lat="40.79812" lon="-3.985718"/>
      <trkpt lat="40.798218" lon="-3.985801">
        <ele>1816.291533</ele>
        <time>2021-09-15T21:45:15.000Z</time>
      </trkpt>
      <trkpt lat="40.798506" lon="-3.985888">
        <ele>1816.230023</ele>
        <time>2021-09-15T21:45:15.000Z</time>
      </trkpt>
      <trkpt lat="40.798621" lon="-3.985882">
        <ele>1816.206062</ele>
        <time>2021-09-15T21:45:15.000Z</time>
      </trkpt>
      <trkpt lat="40.798964" lon="-3.985792">
        <ele>1816.133254</ele>
        <time>2021-09-15T21:45:15.000Z</time>
      </trkpt>
      <trkpt lat="40.799541" lon="-3.98562"/>
      <trkpt lat="40.799999" lon="-3.985512">
        <ele>1815.693298</ele>
        <time>2021-09-15T21:45:15.000Z</time>
      </trkpt>
      <trkpt lat="40.800455" lon="-3.985556">
        <ele>1815.409571</ele>
        <time>2021-09-15T21:45:15.000Z</time>
      </trkpt>
      <trkpt lat="40.800802" lon="-3.985588">
        <ele>1815.193715</ele>
        <time>2021-09-15T21:45:15.000Z</time>
      </trkpt>
      <trkpt lat="40.800861" lon="-3.985579">
        <ele>1815.156859</ele>
        <time>2021-09-15T21:45:15.000Z</time>
      </trkpt>
      <trkpt lat="40.80108" lon="-3.985481"/>
      <trkpt lat="40.801129" lon="-3.985443">
        <ele>1814.978112</ele>
        <time>2021-09-15T21:45:15.000Z</time>
      </trkpt>
      <trkpt lat="40.801266" lon="-3.985297">
        <ele>1814.870766</ele>
        <time>2021-09-15T21:45:15.000Z</time>
      </trkpt>
      <trkpt lat="40.801383" lon="-3.985111">
        <ele>1814.762616</ele>
        <time>2021-09-15T21:45:15.000Z</time>
      </trkpt>
      <trkpt lat="40.801501" lon="-3.984827">
        <ele>1814.617738</ele>
        <time>2021-09-15T21:45:15.000Z</time>
      </trkpt>
      <trkpt lat="40.801768" lon="-3.984158">
        <ele>1814.279528</ele>
        <time>2021-09-15T21:45:15.000Z</time>
      </trkpt>
      <trkpt lat="40.802077" lon="-3.983601">
        <ele>1813.970710</ele>
        <time>2021-09-15T21:45:15.000Z</time>
      </trkpt>
      <trkpt lat="40.802168" lon="-3.983473">
        <ele>1813.892182</ele>
        <time>2021-09-15T21:45:15.000Z</time>
      </trkpt>
      <trkpt lat="40.802371" lon="-3.983259">
        <ele>1813.840664</ele>
        <time>2021-09-15T21:45:15.000Z</time>
      </trkpt>
      <trkpt lat="40.802482" lon="-3.983161">
        <ele>1813.837054</ele>
        <time>2021-09-15T21:45:15.000Z</time>
      </trkpt>
      <trkpt lat="40.802743" lon="-3.982881">
        <ele>1813.827963</ele>
        <time>2021-09-15T21:45:15.000Z</time>
      </trkpt>
      <trkpt lat="40.803102" lon="-3.982459">
        <ele>1813.814969</ele>
        <time>2021-09-15T21:45:15.000Z</time>
      </trkpt>
      <trkpt lat="40.803362" lon="-3.982058">
        <ele>1813.804162</ele>
        <time>2021-09-15T21:45:15.000Z</time>
      </trkpt>
      <trkpt lat="40.803572" lon="-3.981497">
        <ele>1813.794423</ele>
        <time>2021-09-15T21:45:15.000Z</time>
      </trkpt>
      <trkpt lat="40.803738" lon="-3.981011">
        <ele>1813.789532</ele>
        <time>2021-09-15T21:45:15.000Z</time>
      </trkpt>
      <trkpt lat="40.803854" lon="-3.980801">
        <ele>1813.787147</ele>
        <time>2021-09-15T21:45:15.000Z</time>
      </trkpt>
      <trkpt lat="40.803943" lon="-3.98068"/>
      <trkpt lat="40.80414" lon="-3.980473"/>
      <trkpt lat="40.80424" lon="-3.980378"/>
      <trkpt lat="40.804478" lon="-3.980262">
        <ele>1813.777980</ele>
        <time>2021-09-15T21:45:15.000Z</time>
      </trkpt>
      <trkpt lat="40.804543" lon="-3.980252">
        <ele>1813.777187</ele>
        <time>2021-09-15T21:45:15.000Z</time>
      </trkpt>
      <trkpt lat="40.80492" lon="-3.980294"/>
      <trkpt lat="40.805476" lon="-3.980369">
        <ele>1813.607575</ele>
        <time>2021-09-15T21:45:15.000Z</time>
      </trkpt>
      <trkpt lat="40.805722" lon="-3.980398">
        <ele>1813.553591</ele>
        <time>2021-09-15T21:45:15.000Z</time>
      </trkpt>
      <trkpt lat="40.805846" lon="-3.980398">
        <ele>1813.526487</ele>
        <time>2021-09-15T21:45:15.000Z</time>
      </trkpt>
      <trkpt lat="40.806026" lon="-3.980358">
        <ele>1813.486590</ele>
        <time>2021-09-15T21:45:15.000Z</time>
      </trkpt>
      <trkpt lat="40.806081" lon="-3.980328">
        <ele>1813.473583</ele>
        <time>2021-09-15T21:45:15.000Z</time>
      </trkpt>
      <trkpt lat="40.806401" lon="-3.980091">
        <ele>1813.393396</ele>
        <time>2021-09-15T21:45:15.000Z</time>
      </trkpt>
      <trkpt lat="40.806455" lon="-3.980051">
        <ele>1813.375759</ele>
        <time>2021-09-15T21:45:15.000Z</time>
      </trkpt>
      <trkpt lat="40.806631" lon="-3.97998"/>
      <trkpt lat="40.806692" lon="-3.979984">
        <ele>1813.217680</ele>
        <time>2021-09-15T21:45:15.000Z</time>
      </trkpt>
      <trkpt lat="40.806922" lon="-3.980081">
        <ele>1813.061963</ele>
        <time>2021-09-15T21:45:15.000Z</time>
      </trkpt>
      <trkpt lat="40.80721" lon="-3.980319"/>
      <trkpt lat="40.807533" lon="-3.980701">
        <ele>1812.563270</ele>
        <time>2021-09-15T21:45:15.000Z</time>
      </trkpt>
      <trkpt lat="40.80784" lon="-3.980995"/>
      <trkpt lat="40.808183" lon="-3.981207">
        <ele>1811.910086</ele>
        <time>2021-09-15T21:45:15.000Z</time>
      </trkpt>
      <trkpt lat="40.808233" lon="-3.981232">
        <ele>1811.837155</ele>
        <time>2021-09-15T21:45:15.000Z</time>
      </trkpt>
      <trkpt lat="40.808594" lon="-3.981402">
        <ele>1811.314332</ele>
        <time>2021-09-15T21:45:15.000Z</time>
      </trkpt>
      <trkpt lat="40.809007" lon="-3.981557">
        <ele>1810.728628</ele>
        <time>2021-09-15T21:45:15.000Z</time>
      </trkpt>
      <trkpt lat="40.809058" lon="-3.981578">
        <ele>1810.655753</ele>
        <time>2021-09-15T21:45:15.000Z</time>
      </trkpt>
      <trkpt lat="40.809583" lon="-3.981754">
        <ele>1809.916854</ele>
        <time>2021-09-15T21:45:15.000Z</time>
      </trkpt>
      <trkpt lat="40.80991" lon="-3.981793"/>
      <trkpt lat="40.809962" lon="-3.981789">
        <ele>1809.325643</ele>
        <time>2021-09-15T21:45:15.000Z</time>
      </trkpt>
      <trkpt lat="40.810226" lon="-3.981696">
        <ele>1808.880196</ele>
        <time>2021-09-15T21:45:15.000Z</time>
      </trkpt>
      <trkpt lat="40.810277" lon="-3.981665">
        <ele>1808.788671</ele>
        <time>2021-09-15T21:45:15.000Z</time>
      </trkpt>
      <trkpt lat="40.810469" lon="-3.981504">
        <ele>1808.417922</ele>
        <time>2021-09-15T21:45:15.000Z</time>
      </trkpt>
      <trkpt lat="40.810547" lon="-3.981387">
        <ele>1808.225529</ele>
        <time>2021-09-15T21:45:15.000Z</time>
      </trkpt>
      <trkpt lat="40.810648" lon="-3.981195">
        <ele>1807.937005</ele>
        <time>2021-09-15T21:45:15.000Z</time>
      </trkpt>
      <trkpt lat="40.810684" lon="-3.98113"/>
      <trkpt lat="40.810907" lon="-3.98064"/>
      <trkpt lat="40.811067" lon="-3.980161">
        <ele>1806.726825</ele>
        <time>2021-09-15T21:45:15.000Z</time>
      </trkpt>
      <trkpt lat="40.811191" lon="-3.979561">
        <ele>1806.487716</ele>
        <time>2021-09-15T21:45:15.000Z</time>
      </trkpt>
      <trkpt lat="40.811261" lon="-3.978822">
        <ele>1806.201398</ele>
        <time>2021-09-15T21:45:15.000Z</time>
      </trkpt>
      <trkpt lat="40.811311" lon="-3.978346">
        <ele>1806.016651</ele>
        <time>2021-09-15T21:45:15.000Z</time>
      </trkpt>
      <trkpt lat="40.811342" lon="-3.978068">
        <ele>1805.941328</ele>
        <time>2021-09-15T21:45:15.000Z</time>
      </trkpt>
      <trkpt lat="40.811397" lon="-3.9778"/>
      <trkpt lat="40.811539" lon="-3.97762"/>
      <trkpt lat="40.811944" lon="-3.977473">
        <ele>1806.532860</ele>
        <time>2021-09-15T21:45:15.000Z</time>
      </trkpt>
      <trkpt lat="40.81248" lon="-3.977365"/>
      <trkpt lat="40.813057" lon="-3.977347">
        <ele>1807.300762</ele>
        <time>2021-09-15T21:45:15.000Z</time>
      </trkpt>
      <trkpt lat="40.813118" lon="-3.977344">
        <ele>1807.332950</ele>
        <time>2021-09-15T21:45:15.000Z</time>
      </trkpt>
      <trkpt lat="40.813295" lon="-3.97731"/>
      <trkpt lat="40.813405" lon="-3.977277">
        <ele>1807.486741</ele>
        <time>2021-09-15T21:45:15.000Z</time>
      </trkpt>
      <trkpt lat="40.813494" lon="-3.977218">
        <ele>1807.539246</ele>
        <time>2021-09-15T21:45:15.000Z</time>
      </trkpt>
      <trkpt lat="40.813617" lon="-3.977043">
        <ele>1807.634556</ele>
        <time>2021-09-15T21:45:15.000Z</time>
      </trkpt>
      <trkpt lat="40.813791" lon="-3.97678"/>
      <trkpt lat="40.814114" lon="-3.976357">
        <ele>1808.013763</ele>
        <time>2021-09-15T21:45:15.000Z</time>
      </trkpt>
      <trkpt lat="40.814405" lon="-3.975991">
        <ele>1808.174028</ele>
        <time>2021-09-15T21:45:15.000Z</time>
      </trkpt>
      <trkpt lat="40.814454" lon="-3.975927">
        <ele>1808.182958</ele>
        <time>2021-09-15T21:45:15.000Z</time>
      </trkpt>
      <trkpt lat="40.814543" lon="-3.975791">
        <ele>1808.200594</ele>
        <time>2021-09-15T21:45:15.000Z</time>
      </trkpt>
      <trkpt lat="40.81458" lon="-3.975719"/>
      <trkpt lat="40.814613" lon="-3.97564"/>
      <trkpt lat="40.81469" lon="-3.975302"/>
      <trkpt lat="40.814642" lon="-3.974952">
        <ele>1808.287496</ele>
        <time>2021-09-15T21:45:15.000Z</time>
      </trkpt>
      <trkpt lat="40.814569" lon="-3.974799">
        <ele>1808.305237</ele>
        <time>2021-09-15T21:45:15.000Z</time>
      </trkpt>
      <trkpt lat="40.814473" lon="-3.974667">
        <ele>1808.323194</ele>
        <time>2021-09-15T21:45:15.000Z</time>
      </trkpt>
      <trkpt lat="40.814419" lon="-3.974609">
        <ele>1808.332213</ele>
        <time>2021-09-15T21:45:15.000Z</time>
      </trkpt>
      <trkpt lat="40.813926" lon="-3.974247">
        <ele>1808.395487</ele>
        <time>2021-09-15T21:45:15.000Z</time>
      </trkpt>
      <trkpt lat="40.813864" lon="-3.974204">
        <ele>1808.398609</ele>
        <time>2021-09-15T21:45:15.000Z</time>
      </trkpt>
      <trkpt lat="40.813693" lon="-3.974059">
        <ele>1808.407669</ele>
        <time>2021-09-15T21:45:15.000Z</time>
      </trkpt>
      <trkpt lat="40.813584" lon="-3.973839">
        <ele>1808.416542</ele>
        <time>2021-09-15T21:45:15.000Z</time>
      </trkpt>
      <trkpt lat="40.813561" lon="-3.973756">
        <ele>1808.419525</ele>
        <time>2021-09-15T21:45:15.000Z</time>
      </trkpt>
      <trkpt lat="40.813488" lon="-3.97316"/>
      <trkpt lat="40.813484" lon="-3.973075">
        <ele>1808.442773</ele>
        <time>2021-09-15T21:45:15.000Z</time>
      </trkpt>
      <trkpt lat="40.813474" lon="-3.972543">
        <ele>1808.460732</ele>
        <time>2021-09-15T21:45:15.000Z</time>
      </trkpt>
      <trkpt lat="40.813524" lon="-3.971924">
        <ele>1808.547922</ele>
        <time>2021-09-15T21:45:15.000Z</time>
      </trkpt>
      <trkpt lat="40.813605" lon="-3.971209">
        <ele>1808.716391</ele>
        <time>2021-09-15T21:45:15.000Z</time>
      </trkpt>
      <trkpt lat="40.813764" lon="-3.970589">
        <ele>1808.868935</ele>
        <time>2021-09-15T21:45:15.000Z</time>
      </trkpt>
      <trkpt lat="40.813789" lon="-3.9705"/>
      <trkpt lat="40.813814" lon="-3.970413">
        <ele>1808.912742</ele>
        <time>2021-09-15T21:45:15.000Z</time>
      </trkpt>
      <trkpt lat="40.813865" lon="-3.97024"/>
      <trkpt lat="40.814009" lon="-3.970034">
        <ele>1809.021351</ele>
        <time>2021-09-15T21:45:15.000Z</time>
      </trkpt>
      <trkpt lat="40.814495" lon="-3.969647">
        <ele>1809.535301</ele>
        <time>2021-09-15T21:45:15.000Z</time>
      </trkpt>
      <trkpt lat="40.814609" lon="-3.969533">
        <ele>1809.666271</ele>
        <time>2021-09-15T21:45:15.000Z</time>
      </trkpt>
      <trkpt lat="40.814815" lon="-3.969281">
        <ele>1809.923444</ele>
        <time>2021-09-15T21:45:15.000Z</time>
      </trkpt>
      <trkpt lat="40.815107" lon="-3.968885">
        <ele>1810.306760</ele>
        <time>2021-09-15T21:45:15.000Z</time>
      </trkpt>
      <trkpt lat="40.815458" lon="-3.968426">
        <ele>1810.780836</ele>
        <time>2021-09-15T21:45:15.000Z</time>
      </trkpt>
      <trkpt lat="40.815649" lon="-3.968148">
        <ele>1811.105925</ele>
        <time>2021-09-15T21:45:15.000Z</time>
      </trkpt>
      <trkpt lat="40.815842" lon="-3.967875">
        <ele>1811.429379</ele>
        <time>2021-09-15T21:45:15.000Z</time>
      </trkpt>
      <trkpt lat="40.815995" lon="-3.967688">
        <ele>1811.667817</ele>
        <time>2021-09-15T21:45:15.000Z</time>
      </trkpt>
      <trkpt lat="40.816196" lon="-3.967629">
        <ele>1811.903373</ele>
        <time>2021-09-15T21:45:15.000Z</time>
      </trkpt>
      <trkpt lat="40.816722" lon="-3.967758">
        <ele>1812.515412</ele>
        <time>2021-09-15T21:45:15.000Z</time>
      </trkpt>
      <trkpt lat="40.816908" lon="-3.967829">
        <ele>1812.731364</ele>
        <time>2021-09-15T21:45:15.000Z</time>
      </trkpt>
      <trkpt lat="40.817321" lon="-3.968046">
        <ele>1812.847345</ele>
        <time>2021-09-15T21:45:15.000Z</time>
      </trkpt>
      <trkpt lat="40.817377" lon="-3.968075">
        <ele>1812.863040</ele>
        <time>2021-09-15T21:45:15.000Z</time>
      </trkpt>
      <trkpt lat="40.817682" lon="-3.968146">
        <ele>1812.943856</ele>
        <time>2021-09-15T21:45:15.000Z</time>
      </trkpt>
      <trkpt lat="40.817869" lon="-3.968141">
        <ele>1812.992664</ele>
        <time>2021-09-15T21:45:15.000Z</time>
      </trkpt>
      <trkpt lat="40.817991" lon="-3.968108">
        <ele>1813.025160</ele>
        <time>2021-09-15T21:45:15.000Z</time>
      </trkpt>
      <trkpt lat="40.818323" lon="-3.96794"/>
      <trkpt lat="40.81861" lon="-3.967674"/>
      <trkpt lat="40.819076" lon="-3.96722"/>
      <trkpt lat="40.819182" lon="-3.967129">
        <ele>1813.002635</ele>
        <time>2021-09-15T21:45:15.000Z</time>
      </trkpt>
      <trkpt lat="40.819414" lon="-3.966991">
        <ele>1812.935541</ele>
        <time>2021-09-15T21:45:15.000Z</time>
      </trkpt>
      <trkpt lat="40.81992" lon="-3.966787"/>
      <trkpt lat="40.820313" lon="-3.96664"/>
      <trkpt lat="40.820684" lon="-3.966395">
        <ele>1812.821619</ele>
        <time>2021-09-15T21:45:15.000Z</time>
      </trkpt>
      <trkpt lat="40.821104" lon="-3.965912">
        <ele>1812.919148</ele>
        <time>2021-09-15T21:45:15.000Z</time>
      </trkpt>
      <trkpt lat="40.821469" lon="-3.965359">
        <ele>1813.016419</ele>
        <time>2021-09-15T21:45:15.000Z</time>
      </trkpt>
      <trkpt lat="40.82182" lon="-3.964784"/>
      <trkpt lat="40.822206" lon="-3.964222">
        <ele>1814.431571</ele>
        <time>2021-09-15T21:45:15.000Z</time>
      </trkpt>
      <trkpt lat="40.822563" lon="-3.963765">
        <ele>1815.123488</ele>
        <time>2021-09-15T21:45:15.000Z</time>
      </trkpt>
      <trkpt lat="40.822953" lon="-3.963281">
        <ele>1816.437645</ele>
        <time>2021-09-15T21:45:15.000Z</time>
      </trkpt>
      <trkpt lat="40.823107" lon="-3.963002">
        <ele>1817.439535</ele>
        <time>2021-09-15T21:45:15.000Z</time>
      </trkpt>
      <trkpt lat="40.823171" lon="-3.962851">
        <ele>1817.941653</ele>
        <time>2021-09-15T21:45:15.000Z</time>
      </trkpt>
      <trkpt lat="40.823286" lon="-3.962669">
        <ele>1818.629544</ele>
        <time>2021-09-15T21:45:15.000Z</time>
      </trkpt>
      <trkpt lat="40.823395" lon="-3.962592">
        <ele>1819.103399</ele>
        <time>2021-09-15T21:45:15.000Z</time>
      </trkpt>
      <trkpt lat="40.823484" lon="-3.962474">
        <ele>1819.586747</ele>
        <time>2021-09-15T21:45:15.000Z</time>
      </trkpt>
      <trkpt lat="40.823587" lon="-3.962339">
        <ele>1820.142927</ele>
        <time>2021-09-15T21:45:15.000Z</time>
      </trkpt>
      <trkpt lat="40.823617" lon="-3.962294">
        <ele>1820.316918</ele>
        <time>2021-09-15T21:45:15.000Z</time>
      </trkpt>
      <trkpt lat="40.823627" lon="-3.962284">
        <ele>1820.364997</ele>
        <time>2021-09-15T21:45:15.000Z</time>
      </trkpt>
      <trkpt lat="40.823636" lon="-3.962282">
        <ele>1820.399986</ele>
        <time>2021-09-15T21:45:15.000Z</time>
      </trkpt>
      <trkpt lat="40.823643" lon="-3.96229"/>
      <trkpt lat="40.823624" lon="-3.962381">
        <ele>1820.709340</ele>
        <time>2021-09-15T21:45:15.000Z</time>
      </trkpt>
      <trkpt lat="40.823541" lon="-3.962408">
        <ele>1821.037052</ele>
        <time>2021-09-15T21:45:15.000Z</time>
      </trkpt>
      <trkpt lat="40.823521" lon="-3.962403">
        <ele>1821.115089</ele>
        <time>2021-09-15T21:45:15.000Z</time>
      </trkpt>
      <trkpt lat="40.823475" lon="-3.962447">
        <ele>1821.332799</ele>
        <time>2021-09-15T21:45:15.000Z</time>
      </trkpt>
      <trkpt lat="40.823509" lon="-3.962546">
        <ele>1821.648213</ele>
        <time>2021-09-15T21:45:15.000Z</time>
      </trkpt>
      <trkpt lat="40.823522" lon="-3.96259"/>
      <trkpt lat="40.823555" lon="-3.962766">
        <ele>1822.311301</ele>
        <time>2021-09-15T21:45:15.000Z</time>
      </trkpt>
      <trkpt lat="40.823557" lon="-3.962773">
        <ele>1822.333009</ele>
        <time>2021-09-15T21:45:15.000Z</time>
      </trkpt>
      <trkpt lat="40.823546" lon="-3.962788">
        <ele>1822.393609</ele>
        <time>2021-09-15T21:45:15.000Z</time>
      </trkpt>
      <trkpt lat="40.823541" lon="-3.962805">
        <ele>1822.423272</ele>
        <time>2021-09-15T21:45:15.000Z</time>
      </trkpt>
      <trkpt lat="40.823551" lon="-3.962854">
        <ele>1822.086349</ele>
        <time>2021-09-15T21:45:15.000Z</time>
      </trkpt>
      <trkpt lat="40.823553" lon="-3.962907">
        <ele>1821.734057</ele>
        <time>2021-09-15T21:45:15.000Z</time>
      </trkpt>
      <trkpt lat="40.823555" lon="-3.962949">
        <ele>1821.454677</ele>
        <time>2021-09-15T21:45:15.000Z</time>
      </trkpt>
      <trkpt lat="40.823555" lon="-3.963018">
        <ele>1820.996601</ele>
        <time>2021-09-15T21:45:15.000Z</time>
      </trkpt>
      <trkpt lat="40.823557" lon="-3.963032">
        <ele>1820.902017</ele>
        <time>2021-09-15T21:45:15.000Z</time>
      </trkpt>
      <trkpt lat="40.823546" lon="-3.963059">
        <ele>1820.698443</ele>
        <time>2021-09-15T21:45:15.000Z</time>
      </trkpt>
      <trkpt lat="40.823541" lon="-3.963087">
        <ele>1820.507451</ele>
        <time>2021-09-15T21:45:15.000Z</time>
      </trkpt>
      <trkpt lat="40.823544" lon="-3.963107">
        <ele>1820.372092</ele>
        <time>2021-09-15T21:45:15.000Z</time>
      </trkpt>
      <trkpt lat="40.823554" lon="-3.963168">
        <ele>1819.957733</ele>
        <time>2021-09-15T21:45:15.000Z</time>
      </trkpt>
      <trkpt lat="40.823556" lon="-3.963223">
        <ele>1819.592179</ele>
        <time>2021-09-15T21:45:15.000Z</time>
      </trkpt>
      <trkpt lat="40.823551" lon="-3.963242">
        <ele>1819.458633</ele>
        <time>2021-09-15T21:45:15.000Z</time>
      </trkpt>
      <trkpt lat="40.823539" lon="-3.963354">
        <ele>1818.707674</ele>
        <time>2021-09-15T21:45:15.000Z</time>
      </trkpt>
      <trkpt lat="40.823543" lon="-3.963375">
        <ele>1818.563911</ele>
        <time>2021-09-15T21:45:15.000Z</time>
      </trkpt>
      <trkpt lat="40.823547" lon="-3.963452">
        <ele>1818.051522</ele>
        <time>2021-09-15T21:45:15.000Z</time>
      </trkpt>
      <trkpt lat="40.823548" lon="-3.963467">
        <ele>1817.951554</ele>
        <time>2021-09-15T21:45:15.000Z</time>
      </trkpt>
      <trkpt lat="40.823551" lon="-3.963482">
        <ele>1817.848553</ele>
        <time>2021-09-15T21:45:15.000Z</time>
      </trkpt>
      <trkpt lat="40.823551" lon="-3.963544">
        <ele>1817.436949</ele>
        <time>2021-09-15T21:45:15.000Z</time>
      </trkpt>
      <trkpt lat="40.823547" lon="-3.963576">
        <ele>1817.221630</ele>
        <time>2021-09-15T21:45:15.000Z</time>
      </trkpt>
      <trkpt lat="40.823548" lon="-3.963659">
        <ele>1816.670541</ele>
        <time>2021-09-15T21:45:15.000Z</time>
      </trkpt>
      <trkpt lat="40.823547" lon="-3.963729">
        <ele>1816.205744</ele>
        <time>2021-09-15T21:45:15.000Z</time>
      </trkpt>
      <trkpt lat="40.823545" lon="-3.963754">
        <ele>1816.038850</ele>
        <time>2021-09-15T21:45:15.000Z</time>
      </trkpt>
      <trkpt lat="40.823543" lon="-3.963775">
        <ele>1815.898336</ele>
        <time>2021-09-15T21:45:15.000Z</time>
      </trkpt>
      <trkpt lat="40.82354" lon="-3.963789"/>
      <trkpt lat="40.823541" lon="-3.963822">
        <ele>1815.582483</ele>
        <time>2021-09-15T21:45:15.000Z</time>
      </trkpt>
      <trkpt lat="40.82354" lon="-3.963841"/>
      <trkpt lat="40.823541" lon="-3.963939">
        <ele>1814.805382</ele>
        <time>2021-09-15T21:45:15.000Z</time>
      </trkpt>
      <trkpt lat="40.823539" lon="-3.963958">
        <ele>1814.678031</ele>
        <time>2021-09-15T21:45:15.000Z</time>
      </trkpt>
      <trkpt lat="40.823537" lon="-3.963976">
        <ele>1814.557251</ele>
        <time>2021-09-15T21:45:15.000Z</time>
      </trkpt>
      <trkpt lat="40.823541" lon="-3.964071">
        <ele>1813.925592</ele>
        <time>2021-09-15T21:45:15.000Z</time>
      </trkpt>
      <trkpt lat="40.82354" lon="-3.964092"/>
      <trkpt lat="40.823539" lon="-3.96413"/>
      <trkpt lat="40.823539" lon="-3.964195">
        <ele>1813.101955</ele>
        <time>2021-09-15T21:45:15.000Z</time>
      </trkpt>
      <trkpt lat="40.823512" lon="-3.964269">
        <ele>1812.556562</ele>
        <time>2021-09-15T21:45:15.000Z</time>
      </trkpt>
      <trkpt lat="40.823505" lon="-3.964285">
        <ele>1812.433866</ele>
        <time>2021-09-15T21:45:15.000Z</time>
      </trkpt>
      <trkpt lat="40.823498" lon="-3.964298">
        <ele>1812.327943</ele>
        <time>2021-09-15T21:45:15.000Z</time>
      </trkpt>
      <trkpt lat="40.82346" lon="-3.964396"/>
      <trkpt lat="40.823452" lon="-3.964441">
        <ele>1811.290024</ele>
        <time>2021-09-15T21:45:15.000Z</time>
      </trkpt>
      <trkpt lat="40.823425" lon="-3.964558">
        <ele>1810.477970</ele>
        <time>2021-09-15T21:45:15.000Z</time>
      </trkpt>
      <trkpt lat="40.823426" lon="-3.964627">
        <ele>1810.019810</ele>
        <time>2021-09-15T21:45:15.000Z</time>
      </trkpt>
      <trkpt lat="40.823439" lon="-3.964706">
        <ele>1809.483088</ele>
        <time>2021-09-15T21:45:15.000Z</time>
      </trkpt>
      <trkpt lat="40.823445" lon="-3.96481"/>
      <trkpt lat="40.823453" lon="-3.964833">
        <ele>1808.622601</ele>
        <time>2021-09-15T21:45:15.000Z</time>
      </trkpt>
      <trkpt lat="40.823469" lon="-3.964882">
        <ele>1808.268308</ele>
        <time>2021-09-15T21:45:15.000Z</time>
      </trkpt>
      <trkpt lat="40.823469" lon="-3.964952">
        <ele>1807.803593</ele>
        <time>2021-09-15T21:45:15.000Z</time>
      </trkpt>
      <trkpt lat="40.823471" lon="-3.964992">
        <ele>1807.537462</ele>
        <time>2021-09-15T21:45:15.000Z</time>
      </trkpt>
      <trkpt lat="40.823486" lon="-3.965071">
        <ele>1806.996741</ele>
        <time>2021-09-15T21:45:15.000Z</time>
      </trkpt>
      <trkpt lat="40.82349" lon="-3.96509"/>
      <trkpt lat="40.823485" lon="-3.96515"/>
      <trkpt lat="40.823484" lon="-3.965197">
        <ele>1806.108702</ele>
        <time>2021-09-15T21:45:15.000Z</time>
      </trkpt>
      <trkpt lat="40.823505" lon="-3.965293">
        <ele>1805.387406</ele>
        <time>2021-09-15T21:45:15.000Z</time>
      </trkpt>
      <trkpt lat="40.823512" lon="-3.965326">
        <ele>1805.140031</ele>
        <time>2021-09-15T21:45:15.000Z</time>
      </trkpt>
      <trkpt lat="40.823506" lon="-3.965435">
        <ele>1804.351194</ele>
        <time>2021-09-15T21:45:15.000Z</time>
      </trkpt>
      <trkpt lat="40.8235" lon="-3.965463"/>
      <trkpt lat="40.823494" lon="-3.965541">
        <ele>1803.575241</ele>
        <time>2021-09-15T21:45:15.000Z</time>
      </trkpt>
      <trkpt lat="40.823491" lon="-3.965559">
        <ele>1803.442204</ele>
        <time>2021-09-15T21:45:15.000Z</time>
      </trkpt>
      <trkpt lat="40.823448" lon="-3.965685">
        <ele>1802.444532</ele>
        <time>2021-09-15T21:45:15.000Z</time>
      </trkpt>
      <trkpt lat="40.823441" lon="-3.965705">
        <ele>1802.285479</ele>
        <time>2021-09-15T21:45:15.000Z</time>
      </trkpt>
      <trkpt lat="40.823427" lon="-3.965801">
        <ele>1801.579803</ele>
        <time>2021-09-15T21:45:15.000Z</time>
      </trkpt>
      <trkpt lat="40.82342" lon="-3.96582"/>
      <trkpt lat="40.823414" lon="-3.965836">
        <ele>1801.298381</ele>
        <time>2021-09-15T21:45:15.000Z</time>
      </trkpt>
      <trkpt lat="40.823396" lon="-3.965902">
        <ele>1800.792000</ele>
        <time>2021-09-15T21:45:15.000Z</time>
      </trkpt>
      <trkpt lat="40.823392" lon="-3.965917">
        <ele>1800.677204</ele>
        <time>2021-09-15T21:45:15.000Z</time>
      </trkpt>
      <trkpt lat="40.823389" lon="-3.965947">
        <ele>1800.458782</ele>
        <time>2021-09-15T21:45:15.000Z</time>
      </trkpt>
      <trkpt lat="40.823391" lon="-3.966004">
        <ele>1800.046915</ele>
        <time>2021-09-15T21:45:15.000Z</time>
      </trkpt>
      <trkpt lat="40.823389" lon="-3.966023">
        <ele>1799.908453</ele>
        <time>2021-09-15T21:45:15.000Z</time>
      </trkpt>
      <trkpt lat="40.82337" lon="-3.966148"/>
      <trkpt lat="40.823363" lon="-3.966166">
        <ele>1798.842108</ele>
        <time>2021-09-15T21:45:15.000Z</time>
      </trkpt>
      <trkpt lat="40.823335" lon="-3.96626"/>
      <trkpt lat="40.823331" lon="-3.966306">
        <ele>1797.778732</ele>
        <time>2021-09-15T21:45:15.000Z</time>
      </trkpt>
      <trkpt lat="40.823326" lon="-3.966345">
        <ele>1797.493219</ele>
        <time>2021-09-15T21:45:15.000Z</time>
      </trkpt>
      <trkpt lat="40.823327" lon="-3.966407">
        <ele>1797.045603</ele>
        <time>2021-09-15T21:45:15.000Z</time>
      </trkpt>
      <trkpt lat="40.823309" lon="-3.966475">
        <ele>1796.525617</ele>
        <time>2021-09-15T21:45:15.000Z</time>
      </trkpt>
      <trkpt lat="40.823305" lon="-3.966535">
        <ele>1796.090860</ele>
        <time>2021-09-15T21:45:15.000Z</time>
      </trkpt>
      <trkpt lat="40.823292" lon="-3.96662"/>
      <trkpt lat="40.823288" lon="-3.966643">
        <ele>1795.294584</ele>
        <time>2021-09-15T21:45:15.000Z</time>
      </trkpt>
      <trkpt lat="40.823279" lon="-3.966732">
        <ele>1794.646472</ele>
        <time>2021-09-15T21:45:15.000Z</time>
      </trkpt>
      <trkpt lat="40.823276" lon="-3.966749">
        <ele>1794.520474</ele>
        <time>2021-09-15T21:45:15.000Z</time>
      </trkpt>
      <trkpt lat="40.823269" lon="-3.966766">
        <ele>1794.380778</ele>
        <time>2021-09-15T21:45:15.000Z</time>
      </trkpt>
      <trkpt lat="40.823245" lon="-3.966881">
        <ele>1793.519720</ele>
        <time>2021-09-15T21:45:15.000Z</time>
      </trkpt>
      <trkpt lat="40.823238" lon="-3.966966">
        <ele>1792.902568</ele>
        <time>2021-09-15T21:45:15.000Z</time>
      </trkpt>
      <trkpt lat="40.823231" lon="-3.967015">
        <ele>1792.542639</ele>
        <time>2021-09-15T21:45:15.000Z</time>
      </trkpt>
      <trkpt lat="40.823234" lon="-3.967055">
        <ele>1792.252505</ele>
        <time>2021-09-15T21:45:15.000Z</time>
      </trkpt>
      <trkpt lat="40.823236" lon="-3.967073">
        <ele>1792.121188</ele>
        <time>2021-09-15T21:45:15.000Z</time>
      </trkpt>
      <trkpt lat="40.823223" lon="-3.967129">
        <ele>1791.698387</ele>
        <time>2021-09-15T21:45:15.000Z</time>
      </trkpt>
      <trkpt lat="40.823217" lon="-3.967175">
        <ele>1791.361463</ele>
        <time>2021-09-15T21:45:15.000Z</time>
      </trkpt>
      <trkpt lat="40.823223" lon="-3.967223">
        <ele>1791.010304</ele>
        <time>2021-09-15T21:45:15.000Z</time>
      </trkpt>
      <trkpt lat="40.82323" lon="-3.967287"/>
      <trkpt lat="40.823255" lon="-3.967363">
        <ele>1789.945397</ele>
        <time>2021-09-15T21:45:15.000Z</time>
      </trkpt>
      <trkpt lat="40.823268" lon="-3.967371">
        <ele>1789.808612</ele>
        <time>2021-09-15T21:45:15.000Z</time>
      </trkpt>
      <trkpt lat="40.823313" lon="-3.967531">
        <ele>1788.828317</ele>
        <time>2021-09-15T21:45:15.000Z</time>
      </trkpt>
      <trkpt lat="40.823406" lon="-3.96769"/>
      <trkpt lat="40.823439" lon="-3.967792">
        <ele>1787.188399</ele>
        <time>2021-09-15T21:45:15.000Z</time>
      </trkpt>
      <trkpt lat="40.823439" lon="-3.968006">
        <ele>1786.063191</ele>
        <time>2021-09-15T21:45:15.000Z</time>
      </trkpt>
      <trkpt lat="40.823421" lon="-3.968145">
        <ele>1785.321707</ele>
        <time>2021-09-15T21:45:15.000Z</time>
      </trkpt>
      <trkpt lat="40.82343" lon="-3.968265"/>
      <trkpt lat="40.823442" lon="-3.96833"/>
      <trkpt lat="40.823455" lon="-3.968399">
        <ele>1783.961988</ele>
        <time>2021-09-15T21:45:15.000Z</time>
      </trkpt>
      <trkpt lat="40.823462" lon="-3.968418">
        <ele>1783.850876</ele>
        <time>2021-09-15T21:45:15.000Z</time>
      </trkpt>
      <trkpt lat="40.823459" lon="-3.968499">
        <ele>1783.424469</ele>
        <time>2021-09-15T21:45:15.000Z</time>
      </trkpt>
      <trkpt lat="40.82346" lon="-3.968523"/>
      <trkpt lat="40.823488" lon="-3.968636">
        <ele>1782.672893</ele>
        <time>2021-09-15T21:45:15.000Z</time>
      </trkpt>
      <trkpt lat="40.823498" lon="-3.968666">
        <ele>1782.500528</ele>
        <time>2021-09-15T21:45:15.000Z</time>
      </trkpt>
      <trkpt lat="40.82351" lon="-3.968724"/>
      <trkpt lat="40.823523" lon="-3.968782">
        <ele>1781.866314</ele>
        <time>2021-09-15T21:45:15.000Z</time>
      </trkpt>
      <trkpt lat="40.823532" lon="-3.96885"/>
      <trkpt lat="40.823539" lon="-3.968883">
        <ele>1781.323143</ele>
        <time>2021-09-15T21:45:15.000Z</time>
      </trkpt>
      <trkpt lat="40.823547" lon="-3.968991">
        <ele>1780.752567</ele>
        <time>2021-09-15T21:45:15.000Z</time>
      </trkpt>
      <trkpt lat="40.823544" lon="-3.969031">
        <ele>1780.541218</ele>
        <time>2021-09-15T21:45:15.000Z</time>
      </trkpt>
      <trkpt lat="40.82353" lon="-3.969097"/>
      <trkpt lat="40.823525" lon="-3.969135">
        <ele>1779.978014</ele>
        <time>2021-09-15T21:45:15.000Z</time>
      </trkpt>
      <trkpt lat="40.823522" lon="-3.969172">
        <ele>1779.782356</ele>
        <time>2021-09-15T21:45:15.000Z</time>
      </trkpt>
      <trkpt lat="40.823513" lon="-3.969207">
        <ele>1779.587992</ele>
        <time>2021-09-15T21:45:15.000Z</time>
      </trkpt>
      <trkpt lat="40.823492" lon="-3.96928"/>
      <trkpt lat="40.823477" lon="-3.969314">
        <ele>1778.970425</ele>
        <time>2021-09-15T21:45:15.000Z</time>
      </trkpt>
      <trkpt lat="40.823443" lon="-3.96939"/>
      <trkpt lat="40.823423" lon="-3.969429">
        <ele>1778.258497</ele>
        <time>2021-09-15T21:45:15.000Z</time>
      </trkpt>
      <trkpt lat="40.823373" lon="-3.9695"/>
      <trkpt lat="40.823362" lon="-3.969514">
        <ele>1777.642417</ele>
        <time>2021-09-15T21:45:15.000Z</time>
      </trkpt>
      <trkpt lat="40.823315" lon="-3.969601">
        <ele>1777.080363</ele>
        <time>2021-09-15T21:45:15.000Z</time>
      </trkpt>
      <trkpt lat="40.823162" lon="-3.969825">
        <ele>1774.341686</ele>
        <time>2021-09-15T21:45:15.000Z</time>
      </trkpt>
      <trkpt lat="40.823148" lon="-3.969847">
        <ele>1774.075417</ele>
        <time>2021-09-15T21:45:15.000Z</time>
      </trkpt>
      <trkpt lat="40.823135" lon="-3.969873">
        <ele>1773.786751</ele>
        <time>2021-09-15T21:45:15.000Z</time>
      </trkpt>
      <trkpt lat="40.823092" lon="-3.969925">
        <ele>1773.073255</ele>
        <time>2021-09-15T21:45:15.000Z</time>
      </trkpt>
      <trkpt lat="40.823079" lon="-3.96993"/>
      <trkpt lat="40.823077" lon="-3.969945">
        <ele>1772.766431</ele>
        <time>2021-09-15T21:45:15.000Z</time>
      </trkpt>
      <trkpt lat="40.823015" lon="-3.970016">
        <ele>1771.762170</ele>
        <time>2021-09-15T21:45:15.000Z</time>
      </trkpt>
      <trkpt lat="40.823012" lon="-3.970021">
        <ele>1771.703063</ele>
        <time>2021-09-15T21:45:15.000Z</time>
      </trkpt>
      <trkpt lat="40.823008" lon="-3.970028">
        <ele>1771.621810</ele>
        <time>2021-09-15T21:45:15.000Z</time>
      </trkpt>
      <trkpt lat="40.822993" lon="-3.970043">
        <ele>1771.391548</ele>
        <time>2021-09-15T21:45:15.000Z</time>
      </trkpt>
      <trkpt lat="40.822965" lon="-3.970063">
        <ele>1771.001934</ele>
        <time>2021-09-15T21:45:15.000Z</time>
      </trkpt>
      <trkpt lat="40.822954" lon="-3.970071">
        <ele>1770.848238</ele>
        <time>2021-09-15T21:45:15.000Z</time>
      </trkpt>
      <trkpt lat="40.822924" lon="-3.970116">
        <ele>1770.292707</ele>
        <time>2021-09-15T21:45:15.000Z</time>
      </trkpt>
      <trkpt lat="40.8229" lon="-3.97014"/>
      <trkpt lat="40.822853" lon="-3.970228">
        <ele>1768.926546</ele>
        <time>2021-09-15T21:45:15.000Z</time>
      </trkpt>
      <trkpt lat="40.822846" lon="-3.970233">
        <ele>1768.829143</ele>
        <time>2021-09-15T21:45:15.000Z</time>
      </trkpt>
      <trkpt lat="40.822816" lon="-3.970291">
        <ele>1768.178365</ele>
        <time>2021-09-15T21:45:15.000Z</time>
      </trkpt>
      <trkpt lat="40.82281" lon="-3.970304"/>
      <trkpt lat="40.822786" lon="-3.970348">
        <ele>1767.534889</ele>
        <time>2021-09-15T21:45:15.000Z</time>
      </trkpt>
      <trkpt lat="40.822754" lon="-3.97039"/>
      <trkpt lat="40.822721" lon="-3.970427">
        <ele>1766.453039</ele>
        <time>2021-09-15T21:45:15.000Z</time>
      </trkpt>
      <trkpt lat="40.822685" lon="-3.970481">
        <ele>1765.786400</ele>
        <time>2021-09-15T21:45:15.000Z</time>
      </trkpt>
      <trkpt lat="40.822667" lon="-3.970505">
        <ele>1765.473392</ele>
        <time>2021-09-15T21:45:15.000Z</time>
      </trkpt>
      <trkpt lat="40.822609" lon="-3.970569">
        <ele>1764.548442</ele>
        <time>2021-09-15T21:45:15.000Z</time>
      </trkpt>
      <trkpt lat="40.822586" lon="-3.970585">
        <ele>1764.230270</ele>
        <time>2021-09-15T21:45:15.000Z</time>
      </trkpt>
      <trkpt lat="40.82254" lon="-3.970637"/>
      <trkpt lat="40.822534" lon="-3.970654">
        <ele>1763.315505</ele>
        <time>2021-09-15T21:45:15.000Z</time>
      </trkpt>
      <trkpt lat="40.822492" lon="-3.970726">
        <ele>1762.473397</ele>
        <time>2021-09-15T21:45:15.000Z</time>
      </trkpt>
      <trkpt lat="40.822474" lon="-3.970758">
        <ele>1762.104052</ele>
        <time>2021-09-15T21:45:15.000Z</time>
      </trkpt>
      <trkpt lat="40.822453" lon="-3.970785">
        <ele>1761.745396</ele>
        <time>2021-09-15T21:45:15.000Z</time>
      </trkpt>
      <trkpt lat="40.822404" lon="-3.970846">
        <ele>1760.921345</ele>
        <time>2021-09-15T21:45:15.000Z</time>
      </trkpt>
      <trkpt lat="40.822395" lon="-3.970856">
        <ele>1760.777407</ele>
        <time>2021-09-15T21:45:15.000Z</time>
      </trkpt>
      <trkpt lat="40.822378" lon="-3.970878">
        <ele>1760.486143</ele>
        <time>2021-09-15T21:45:15.000Z</time>
      </trkpt>
      <trkpt lat="40.822359" lon="-3.970891">
        <ele>1760.224237</ele>
        <time>2021-09-15T21:45:15.000Z</time>
      </trkpt>
      <trkpt lat="40.822347" lon="-3.970895">
        <ele>1760.072744</ele>
        <time>2021-09-15T21:45:15.000Z</time>
      </trkpt>
      <trkpt lat="40.822313" lon="-3.970921">
        <ele>1759.591887</ele>
        <time>2021-09-15T21:45:15.000Z</time>
      </trkpt>
      <trkpt lat="40.82228" lon="-3.970949"/>
      <trkpt lat="40.822258" lon="-3.970968">
        <ele>1758.790119</ele>
        <time>2021-09-15T21:45:15.000Z</time>
      </trkpt>
      <trkpt lat="40.822204" lon="-3.971027">
        <ele>1757.932426</ele>
        <time>2021-09-15T21:45:15.000Z</time>
      </trkpt>
      <trkpt lat="40.822192" lon="-3.971037">
        <ele>1757.758766</ele>
        <time>2021-09-15T21:45:15.000Z</time>
      </trkpt>
      <trkpt lat="40.822155" lon="-3.971071">
        <ele>1757.207106</ele>
        <time>2021-09-15T21:45:15.000Z</time>
      </trkpt>
      <trkpt lat="40.822112" lon="-3.971099">
        <ele>1756.620309</ele>
        <time>2021-09-15T21:45:15.000Z</time>
      </trkpt>
      <trkpt lat="40.822081" lon="-3.971111">
        <ele>1756.224892</ele>
        <time>2021-09-15T21:45:15.000Z</time>
      </trkpt>
      <trkpt lat="40.822022" lon="-3.971132">
        <ele>1755.476934</ele>
        <time>2021-09-15T21:45:15.000Z</time>
      </trkpt>
      <trkpt lat="40.821991" lon="-3.971146">
        <ele>1755.075914</ele>
        <time>2021-09-15T21:45:15.000Z</time>
      </trkpt>
      <trkpt lat="40.821918" lon="-3.971195">
        <ele>1753.952646</ele>
        <time>2021-09-15T21:45:15.000Z</time>
      </trkpt>
      <trkpt lat="40.821848" lon="-3.971219">
        <ele>1752.950383</ele>
        <time>2021-09-15T21:45:15.000Z</time>
      </trkpt>
      <trkpt lat="40.821805" lon="-3.971257">
        <ele>1752.233457</ele>
        <time>2021-09-15T21:45:15.000Z</time>
      </trkpt>
      <trkpt lat="40.82179" lon="-3.971271"/>
      <trkpt lat="40.821703" lon="-3.971345">
        <ele>1750.545013</ele>
        <time>2021-09-15T21:45:15.000Z</time>
      </trkpt>
      <trkpt lat="40.821672" lon="-3.971388">
        <ele>1749.922142</ele>
        <time>2021-09-15T21:45:15.000Z</time>
      </trkpt>
      <trkpt lat="40.821672" lon="-3.971397">
        <ele>1749.827751</ele>
        <time>2021-09-15T21:45:15.000Z</time>
      </trkpt>
      <trkpt lat="40.821671" lon="-3.971411">
        <ele>1749.680268</ele>
        <time>2021-09-15T21:45:15.000Z</time>
      </trkpt>
      <trkpt lat="40.82164" lon="-3.971471"/>
      <trkpt lat="40.821618" lon="-3.971495">
        <ele>1748.522940</ele>
        <time>2021-09-15T21:45:15.000Z</time>
      </trkpt>
      <trkpt lat="40.821594" lon="-3.971567">
        <ele>1747.697800</ele>
        <time>2021-09-15T21:45:15.000Z</time>
      </trkpt>
      <trkpt lat="40.821562" lon="-3.971631">
        <ele>1746.893293</ele>
        <time>2021-09-15T21:45:15.000Z</time>
      </trkpt>
      <trkpt lat="40.821537" lon="-3.971676">
        <ele>1746.307810</ele>
        <time>2021-09-15T21:45:15.000Z</time>
      </trkpt>
      <trkpt lat="40.82153" lon="-3.971693"/>
      <trkpt lat="40.821523" lon="-3.971729">
        <ele>1745.715001</ele>
        <time>2021-09-15T21:45:15.000Z</time>
      </trkpt>
      <trkpt lat="40.821518" lon="-3.971765">
        <ele>1745.331130</ele>
        <time>2021-09-15T21:45:15.000Z</time>
      </trkpt>
      <trkpt lat="40.821493" lon="-3.971868">
        <ele>1744.196670</ele>
        <time>2021-09-15T21:45:15.000Z</time>
      </trkpt>
      <trkpt lat="40.821466" lon="-3.971957">
        <ele>1743.191033</ele>
        <time>2021-09-15T21:45:15.000Z</time>
      </trkpt>
      <trkpt lat="40.821456" lon="-3.971987">
        <ele>1742.847224</ele>
        <time>2021-09-15T21:45:15.000Z</time>
      </trkpt>
      <trkpt lat="40.821445" lon="-3.972018">
        <ele>1742.488131</ele>
        <time>2021-09-15T21:45:15.000Z</time>
      </trkpt>
      <trkpt lat="40.821427" lon="-3.972069">
        <ele>1741.897932</ele>
        <time>2021-09-15T21:45:15.000Z</time>
      </trkpt>
      <trkpt lat="40.821409" lon="-3.972122">
        <ele>1741.288659</ele>
        <time>2021-09-15T21:45:15.000Z</time>
      </trkpt>
      <trkpt lat="40.821401" lon="-3.972139">
        <ele>1741.078702</ele>
        <time>2021-09-15T21:45:15.000Z</time>
      </trkpt>
      <trkpt lat="40.821378" lon="-3.972192">
        <ele>1740.437930</ele>
        <time>2021-09-15T21:45:15.000Z</time>
      </trkpt>
      <trkpt lat="40.821372" lon="-3.972256">
        <ele>1739.761571</ele>
        <time>2021-09-15T21:45:15.000Z</time>
      </trkpt>
      <trkpt lat="40.821397" lon="-3.972362">
        <ele>1738.597109</ele>
        <time>2021-09-15T21:45:15.000Z</time>
      </trkpt>
      <trkpt lat="40.821408" lon="-3.972378">
        <ele>1738.370392</ele>
        <time>2021-09-15T21:45:15.000Z</time>
      </trkpt>
      <trkpt lat="40.821419" lon="-3.972396">
        <ele>1738.127740</ele>
        <time>2021-09-15T21:45:15.000Z</time>
      </trkpt>
      <trkpt lat="40.821474" lon="-3.972452">
        <ele>1737.165461</ele>
        <time>2021-09-15T21:45:15.000Z</time>
      </trkpt>
      <trkpt lat="40.821486" lon="-3.972459">
        <ele>1736.983667</ele>
        <time>2021-09-15T21:45:15.000Z</time>
      </trkpt>
      <trkpt lat="40.821551" lon="-3.972486">
        <ele>1736.039363</ele>
        <time>2021-09-15T21:45:15.000Z</time>
      </trkpt>
      <trkpt lat="40.821582" lon="-3.972491">
        <ele>1735.606541</ele>
        <time>2021-09-15T21:45:15.000Z</time>
      </trkpt>
      <trkpt lat="40.821687" lon="-3.97248"/>
      <trkpt lat="40.821706" lon="-3.972479">
        <ele>1733.883230</ele>
        <time>2021-09-15T21:45:15.000Z</time>
      </trkpt>
      <trkpt lat="40.821797" lon="-3.972517">
        <ele>1732.560574</ele>
        <time>2021-09-15T21:45:15.000Z</time>
      </trkpt>
      <trkpt lat="40.821815" lon="-3.972528">
        <ele>1732.285725</ele>
        <time>2021-09-15T21:45:15.000Z</time>
      </trkpt>
      <trkpt lat="40.821831" lon="-3.972542">
        <ele>1732.019773</ele>
        <time>2021-09-15T21:45:15.000Z</time>
      </trkpt>
      <trkpt lat="40.821911" lon="-3.972636">
        <ele>1730.536126</ele>
        <time>2021-09-15T21:45:15.000Z</time>
      </trkpt>
      <trkpt lat="40.821974" lon="-3.972731">
        <ele>1729.138372</ele>
        <time>2021-09-15T21:45:15.000Z</time>
      </trkpt>
      <trkpt lat="40.821999" lon="-3.972809">
        <ele>1728.173704</ele>
        <time>2021-09-15T21:45:15.000Z</time>
      </trkpt>
      <trkpt lat="40.822014" lon="-3.972865">
        <ele>1727.497193</ele>
        <time>2021-09-15T21:45:15.000Z</time>
      </trkpt>
      <trkpt lat="40.822019" lon="-3.972883">
        <ele>1727.278832</ele>
        <time>2021-09-15T21:45:15.000Z</time>
      </trkpt>
      <trkpt lat="40.822027" lon="-3.972918">
        <ele>1726.862460</ele>
        <time>2021-09-15T21:45:15.000Z</time>
      </trkpt>
      <trkpt lat="40.822035" lon="-3.972938">
        <ele>1726.604835</ele>
        <time>2021-09-15T21:45:15.000Z</time>
      </trkpt>
      <trkpt lat="40.822061" lon="-3.972998">
        <ele>1725.817446</ele>
        <time>2021-09-15T21:45:15.000Z</time>
      </trkpt>
      <trkpt lat="40.822073" lon="-3.97304"/>
      <trkpt lat="40.822094" lon="-3.973126">
        <ele>1724.277077</ele>
        <time>2021-09-15T21:45:15.000Z</time>
      </trkpt>
      <trkpt lat="40.822098" lon="-3.97315"/>
      <trkpt lat="40.822117" lon="-3.973228">
        <ele>1723.064047</ele>
        <time>2021-09-15T21:45:15.000Z</time>
      </trkpt>
      <trkpt lat="40.822128" lon="-3.973268">
        <ele>1722.579374</ele>
        <time>2021-09-15T21:45:15.000Z</time>
      </trkpt>
      <trkpt lat="40.822139" lon="-3.973337">
        <ele>1721.776343</ele>
        <time>2021-09-15T21:45:15.000Z</time>
      </trkpt>
      <trkpt lat="40.82214" lon="-3.973366"/>
      <trkpt lat="40.822154" lon="-3.973418">
        <ele>1720.817196</ele>
        <time>2021-09-15T21:45:15.000Z</time>
      </trkpt>
      <trkpt lat="40.822164" lon="-3.973484">
        <ele>1720.050660</ele>
        <time>2021-09-15T21:45:15.000Z</time>
      </trkpt>
      <trkpt lat="40.822169" lon="-3.973502">
        <ele>1719.832299</ele>
        <time>2021-09-15T21:45:15.000Z</time>
      </trkpt>
      <trkpt lat="40.822171" lon="-3.973522">
        <ele>1719.602555</ele>
        <time>2021-09-15T21:45:15.000Z</time>
      </trkpt>
      <trkpt lat="40.822168" lon="-3.973556">
        <ele>1719.212734</ele>
        <time>2021-09-15T21:45:15.000Z</time>
      </trkpt>
      <trkpt lat="40.822165" lon="-3.973586">
        <ele>1718.868119</ele>
        <time>2021-09-15T21:45:15.000Z</time>
      </trkpt>
      <trkpt lat="40.822167" lon="-3.973624">
        <ele>1718.434323</ele>
        <time>2021-09-15T21:45:15.000Z</time>
      </trkpt>
      <trkpt lat="40.822176" lon="-3.973744">
        <ele>1717.061048</ele>
        <time>2021-09-15T21:45:15.000Z</time>
      </trkpt>
      <trkpt lat="40.822177" lon="-3.973744">
        <ele>1717.045999</ele>
        <time>2021-09-15T21:45:15.000Z</time>
      </trkpt>
      <trkpt lat="40.82218" lon="-3.973759"/>
      <trkpt lat="40.822186" lon="-3.97381"/>
      <trkpt lat="40.822187" lon="-3.973823">
        <ele>1716.132729</ele>
        <time>2021-09-15T21:45:15.000Z</time>
      </trkpt>
      <trkpt lat="40.822198" lon="-3.973856">
        <ele>1715.722076</ele>
        <time>2021-09-15T21:45:15.000Z</time>
      </trkpt>
      <trkpt lat="40.82221" lon="-3.973892"/>
      <trkpt lat="40.822214" lon="-3.973907">
        <ele>1715.092973</ele>
        <time>2021-09-15T21:45:15.000Z</time>
      </trkpt>
      <trkpt lat="40.822219" lon="-3.973982">
        <ele>1714.235553</ele>
        <time>2021-09-15T21:45:15.000Z</time>
      </trkpt>
      <trkpt lat="40.822222" lon="-3.974018">
        <ele>1713.823101</ele>
        <time>2021-09-15T21:45:15.000Z</time>
      </trkpt>
      <trkpt lat="40.822219" lon="-3.974071">
        <ele>1713.217842</ele>
        <time>2021-09-15T21:45:15.000Z</time>
      </trkpt>
      <trkpt lat="40.822225" lon="-3.974085">
        <ele>1713.034615</ele>
        <time>2021-09-15T21:45:15.000Z</time>
      </trkpt>
      <trkpt lat="40.822225" lon="-3.9741"/>
      <trkpt lat="40.822228" lon="-3.974157">
        <ele>1712.213100</ele>
        <time>2021-09-15T21:45:15.000Z</time>
      </trkpt>
      <trkpt lat="40.822227" lon="-3.974176">
        <ele>1711.996202</ele>
        <time>2021-09-15T21:45:15.000Z</time>
      </trkpt>
      <trkpt lat="40.822228" lon="-3.974236">
        <ele>1711.312747</ele>
        <time>2021-09-15T21:45:15.000Z</time>
      </trkpt>
      <trkpt lat="40.822227" lon="-3.974365">
        <ele>1709.843597</ele>
        <time>2021-09-15T21:45:15.000Z</time>
      </trkpt>
      <trkpt lat="40.822219" lon="-3.974423">
        <ele>1709.172202</ele>
        <time>2021-09-15T21:45:15.000Z</time>
      </trkpt>
      <trkpt lat="40.822217" lon="-3.97447"/>
      <trkpt lat="40.822216" lon="-3.974491">
        <ele>1708.396488</ele>
        <time>2021-09-15T21:45:15.000Z</time>
      </trkpt>
      <trkpt lat="40.822209" lon="-3.974546">
        <ele>1707.761342</ele>
        <time>2021-09-15T21:45:15.000Z</time>
      </trkpt>
      <trkpt lat="40.82221" lon="-3.974729"/>
      <trkpt lat="40.822222" lon="-3.974762">
        <ele>1705.260308</ele>
        <time>2021-09-15T21:45:15.000Z</time>
      </trkpt>
      <trkpt lat="40.822228" lon="-3.974778">
        <ele>1705.056952</ele>
        <time>2021-09-15T21:45:15.000Z</time>
      </trkpt>
      <trkpt lat="40.822235" lon="-3.974822">
        <ele>1704.544920</ele>
        <time>2021-09-15T21:45:15.000Z</time>
      </trkpt>
      <trkpt lat="40.822247" lon="-3.97491"/>
      <trkpt lat="40.822259" lon="-3.974943">
        <ele>1703.109675</ele>
        <time>2021-09-15T21:45:15.000Z</time>
      </trkpt>
      <trkpt lat="40.82227" lon="-3.974976"/>
      <trkpt lat="40.822281" lon="-3.975021">
        <ele>1702.250085</ele>
        <time>2021-09-15T21:45:15.000Z</time>
      </trkpt>
      <trkpt lat="40.822291" lon="-3.975042">
        <ele>1701.997913</ele>
        <time>2021-09-15T21:45:15.000Z</time>
      </trkpt>
      <trkpt lat="40.8223" lon="-3.97506"/>
      <trkpt lat="40.822321" lon="-3.975107">
        <ele>1701.223916</ele>
        <time>2021-09-15T21:45:15.000Z</time>
      </trkpt>
      <trkpt lat="40.822358" lon="-3.975179">
        <ele>1700.339373</ele>
        <time>2021-09-15T21:45:15.000Z</time>
      </trkpt>
      <trkpt lat="40.822364" lon="-3.975203">
        <ele>1700.082485</ele>
        <time>2021-09-15T21:45:15.000Z</time>
      </trkpt>
      <trkpt lat="40.822369" lon="-3.975227">
        <ele>1699.829489</ele>
        <time>2021-09-15T21:45:15.000Z</time>
      </trkpt>
      <trkpt lat="40.822399" lon="-3.97532"/>
      <trkpt lat="40.822436" lon="-3.975412">
        <ele>1697.743123</ele>
        <time>2021-09-15T21:45:15.000Z</time>
      </trkpt>
      <trkpt lat="40.822446" lon="-3.975429">
        <ele>1697.524285</ele>
        <time>2021-09-15T21:45:15.000Z</time>
      </trkpt>
      <trkpt lat="40.822467" lon="-3.975487">
        <ele>1696.870811</ele>
        <time>2021-09-15T21:45:15.000Z</time>
      </trkpt>
      <trkpt lat="40.822484" lon="-3.975522">
        <ele>1696.448123</ele>
        <time>2021-09-15T21:45:15.000Z</time>
      </trkpt>
      <trkpt lat="40.822515" lon="-3.9756"/>
      <trkpt lat="40.822535" lon="-3.975657">
        <ele>1694.914143</ele>
        <time>2021-09-15T21:45:15.000Z</time>
      </trkpt>
      <trkpt lat="40.82254" lon="-3.975676"/>
      <trkpt lat="40.822565" lon="-3.975809">
        <ele>1693.316892</ele>
        <time>2021-09-15T21:45:15.000Z</time>
      </trkpt>
      <trkpt lat="40.822572" lon="-3.975862">
        <ele>1692.770092</ele>
        <time>2021-09-15T21:45:15.000Z</time>
      </trkpt>
      <trkpt lat="40.822574" lon="-3.97589"/>
      <trkpt lat="40.822574" lon="-3.975907">
        <ele>1692.311475</ele>
        <time>2021-09-15T21:45:15.000Z</time>
      </trkpt>
      <trkpt lat="40.82258" lon="-3.975986"/>
      <trkpt lat="40.822585" lon="-3.97607"/>
      <trkpt lat="40.822581" lon="-3.976088">
        <ele>1690.457512</ele>
        <time>2021-09-15T21:45:15.000Z</time>
      </trkpt>
      <trkpt lat="40.822572" lon="-3.97616"/>
      <trkpt lat="40.822569" lon="-3.976175">
        <ele>1689.558149</ele>
        <time>2021-09-15T21:45:15.000Z</time>
      </trkpt>
      <trkpt lat="40.822562" lon="-3.976237">
        <ele>1688.921046</ele>
        <time>2021-09-15T21:45:15.000Z</time>
      </trkpt>
      <trkpt lat="40.822551" lon="-3.976294">
        <ele>1688.323194</ele>
        <time>2021-09-15T21:45:15.000Z</time>
      </trkpt>
      <trkpt lat="40.822541" lon="-3.976309">
        <ele>1688.120022</ele>
        <time>2021-09-15T21:45:15.000Z</time>
      </trkpt>
      <trkpt lat="40.822511" lon="-3.976401">
        <ele>1687.101876</ele>
        <time>2021-09-15T21:45:15.000Z</time>
      </trkpt>
      <trkpt lat="40.822509" lon="-3.976417">
        <ele>1686.937058</ele>
        <time>2021-09-15T21:45:15.000Z</time>
      </trkpt>
      <trkpt lat="40.822495" lon="-3.976501">
        <ele>1686.062874</ele>
        <time>2021-09-15T21:45:15.000Z</time>
      </trkpt>
      <trkpt lat="40.822474" lon="-3.976609">
        <ele>1684.929574</ele>
        <time>2021-09-15T21:45:15.000Z</time>
      </trkpt>
      <trkpt lat="40.822424" lon="-3.976771">
        <ele>1683.151429</ele>
        <time>2021-09-15T21:45:15.000Z</time>
      </trkpt>
      <trkpt lat="40.822389" lon="-3.976867">
        <ele>1682.068413</ele>
        <time>2021-09-15T21:45:15.000Z</time>
      </trkpt>
      <trkpt lat="40.822379" lon="-3.976892">
        <ele>1681.781016</ele>
        <time>2021-09-15T21:45:15.000Z</time>
      </trkpt>
      <trkpt lat="40.822326" lon="-3.977012">
        <ele>1680.368881</ele>
        <time>2021-09-15T21:45:15.000Z</time>
      </trkpt>
      <trkpt lat="40.822316" lon="-3.977036">
        <ele>1680.090429</ele>
        <time>2021-09-15T21:45:15.000Z</time>
      </trkpt>
      <trkpt lat="40.822262" lon="-3.977139">
        <ele>1678.821057</ele>
        <time>2021-09-15T21:45:15.000Z</time>
      </trkpt>
      <trkpt lat="40.822244" lon="-3.977182">
        <ele>1678.424721</ele>
        <time>2021-09-15T21:45:15.000Z</time>
      </trkpt>
      <trkpt lat="40.82222" lon="-3.977231"/>
      <trkpt lat="40.822195" lon="-3.977292">
        <ele>1677.394453</ele>
        <time>2021-09-15T21:45:15.000Z</time>
      </trkpt>
      <trkpt lat="40.82213" lon="-3.977379"/>
      <trkpt lat="40.822121" lon="-3.9774"/>
      <trkpt lat="40.822073" lon="-3.977443">
        <ele>1675.595692</ele>
        <time>2021-09-15T21:45:15.000Z</time>
      </trkpt>
      <trkpt lat="40.822027" lon="-3.977481">
        <ele>1675.017507</ele>
        <time>2021-09-15T21:45:15.000Z</time>
      </trkpt>
      <trkpt lat="40.821994" lon="-3.977501">
        <ele>1674.630566</ele>
        <time>2021-09-15T21:45:15.000Z</time>
      </trkpt>
      <trkpt lat="40.821946" lon="-3.977531">
        <ele>1674.064646</ele>
        <time>2021-09-15T21:45:15.000Z</time>
      </trkpt>
      <trkpt lat="40.821886" lon="-3.977555">
        <ele>1673.396510</ele>
        <time>2021-09-15T21:45:15.000Z</time>
      </trkpt>
      <trkpt lat="40.821827" lon="-3.977583">
        <ele>1672.728363</ele>
        <time>2021-09-15T21:45:15.000Z</time>
      </trkpt>
      <trkpt lat="40.821794" lon="-3.977609">
        <ele>1672.318878</ele>
        <time>2021-09-15T21:45:15.000Z</time>
      </trkpt>
      <trkpt lat="40.821757" lon="-3.977615">
        <ele>1671.921573</ele>
        <time>2021-09-15T21:45:15.000Z</time>
      </trkpt>
      <trkpt lat="40.821725" lon="-3.977638">
        <ele>1671.533331</ele>
        <time>2021-09-15T21:45:15.000Z</time>
      </trkpt>
      <trkpt lat="40.821648" lon="-3.977693">
        <ele>1670.600445</ele>
        <time>2021-09-15T21:45:15.000Z</time>
      </trkpt>
      <trkpt lat="40.821633" lon="-3.977707">
        <ele>1670.404719</ele>
        <time>2021-09-15T21:45:15.000Z</time>
      </trkpt>
      <trkpt lat="40.82159" lon="-3.977752"/>
      <trkpt lat="40.821544" lon="-3.977781">
        <ele>1669.276908</ele>
        <time>2021-09-15T21:45:15.000Z</time>
      </trkpt>
      <trkpt lat="40.82149" lon="-3.977823"/>
      <trkpt lat="40.821423" lon="-3.977892">
        <ele>1667.703747</ele>
        <time>2021-09-15T21:45:15.000Z</time>
      </trkpt>
      <trkpt lat="40.821406" lon="-3.977905">
        <ele>1667.494409</ele>
        <time>2021-09-15T21:45:15.000Z</time>
      </trkpt>
      <trkpt lat="40.821324" lon="-3.977984">
        <ele>1666.412839</ele>
        <time>2021-09-15T21:45:15.000Z</time>
      </trkpt>
      <trkpt lat="40.821288" lon="-3.97802"/>
      <trkpt lat="40.821205" lon="-3.978089">
        <ele>1664.886557</ele>
        <time>2021-09-15T21:45:15.000Z</time>
      </trkpt>
      <trkpt lat="40.821193" lon="-3.9781"/>
      <trkpt lat="40.821161" lon="-3.978133">
        <ele>1664.298279</ele>
        <time>2021-09-15T21:45:15.000Z</time>
      </trkpt>
      <trkpt lat="40.821139" lon="-3.97817"/>
      <trkpt lat="40.821131" lon="-3.978185">
        <ele>1663.770749</ele>
        <time>2021-09-15T21:45:15.000Z</time>
      </trkpt>
      <trkpt lat="40.821113" lon="-3.978217">
        <ele>1663.449162</ele>
        <time>2021-09-15T21:45:15.000Z</time>
      </trkpt>
      <trkpt lat="40.821049" lon="-3.97831"/>
      <trkpt lat="40.820977" lon="-3.978395">
        <ele>1661.406283</ele>
        <time>2021-09-15T21:45:15.000Z</time>
      </trkpt>
      <trkpt lat="40.82092" lon="-3.978454"/>
      <trkpt lat="40.820795" lon="-3.978618">
        <ele>1658.963500</ele>
        <time>2021-09-15T21:45:15.000Z</time>
      </trkpt>
      <trkpt lat="40.820751" lon="-3.978708">
        <ele>1658.295258</ele>
        <time>2021-09-15T21:45:15.000Z</time>
      </trkpt>
      <trkpt lat="40.82069" lon="-3.978858"/>
      <trkpt lat="40.820646" lon="-3.978978">
        <ele>1656.401618</ele>
        <time>2021-09-15T21:45:15.000Z</time>
      </trkpt>
      <trkpt lat="40.820612" lon="-3.9791"/>
      <trkpt lat="40.820606" lon="-3.979129">
        <ele>1655.403289</ele>
        <time>2021-09-15T21:45:15.000Z</time>
      </trkpt>
      <trkpt lat="40.820583" lon="-3.979268">
        <ele>1654.515910</ele>
        <time>2021-09-15T21:45:15.000Z</time>
      </trkpt>
      <trkpt lat="40.820568" lon="-3.97935"/>
      <trkpt lat="40.820552" lon="-3.97943"/>
      <trkpt lat="40.820535" lon="-3.979536">
        <ele>1652.797939</ele>
        <time>2021-09-15T21:45:15.000Z</time>
      </trkpt>
      <trkpt lat="40.820531" lon="-3.979561">
        <ele>1652.638576</ele>
        <time>2021-09-15T21:45:15.000Z</time>
      </trkpt>
      <trkpt lat="40.820508" lon="-3.97965"/>
      <trkpt lat="40.820506" lon="-3.979674">
        <ele>1651.901453</ele>
        <time>2021-09-15T21:45:15.000Z</time>
      </trkpt>
      <trkpt lat="40.820503" lon="-3.9797"/>
      <trkpt lat="40.8205" lon="-3.979758"/>
      <trkpt lat="40.820501" lon="-3.979788">
        <ele>1651.187572</ele>
        <time>2021-09-15T21:45:15.000Z</time>
      </trkpt>
      <trkpt lat="40.820533" lon="-3.979864">
        <ele>1650.645158</ele>
        <time>2021-09-15T21:45:15.000Z</time>
      </trkpt>
      <trkpt lat="40.820548" lon="-3.979886">
        <ele>1650.460476</ele>
        <time>2021-09-15T21:45:15.000Z</time>
      </trkpt>
      <trkpt lat="40.820595" lon="-3.979989">
        <ele>1649.710355</ele>
        <time>2021-09-15T21:45:15.000Z</time>
      </trkpt>
      <trkpt lat="40.820674" lon="-3.980055">
        <ele>1648.940088</ele>
        <time>2021-09-15T21:45:15.000Z</time>
      </trkpt>
      <trkpt lat="40.820699" lon="-3.980066">
        <ele>1648.722934</ele>
        <time>2021-09-15T21:45:15.000Z</time>
      </trkpt>
      <trkpt lat="40.820821" lon="-3.980116">
        <ele>1647.670251</ele>
        <time>2021-09-15T21:45:15.000Z</time>
      </trkpt>
      <trkpt lat="40.820845" lon="-3.980119">
        <ele>1647.471577</ele>
        <time>2021-09-15T21:45:15.000Z</time>
      </trkpt>
      <trkpt lat="40.820984" lon="-3.980182">
        <ele>1646.260530</ele>
        <time>2021-09-15T21:45:15.000Z</time>
      </trkpt>
      <trkpt lat="40.82101" lon="-3.980202"/>
      <trkpt lat="40.821199" lon="-3.980383">
        <ele>1644.288946</ele>
        <time>2021-09-15T21:45:15.000Z</time>
      </trkpt>
      <trkpt lat="40.821381" lon="-3.980636">
        <ele>1642.688666</ele>
        <time>2021-09-15T21:45:15.000Z</time>
      </trkpt>
      <trkpt lat="40.821489" lon="-3.980859">
        <ele>1641.474911</ele>
        <time>2021-09-15T21:45:15.000Z</time>
      </trkpt>
      <trkpt lat="40.82153" lon="-3.981015"/>
      <trkpt lat="40.821547" lon="-3.98109"/>
      <trkpt lat="40.821607" lon="-3.981282">
        <ele>1639.406621</ele>
        <time>2021-09-15T21:45:15.000Z</time>
      </trkpt>
      <trkpt lat="40.821623" lon="-3.98131"/>
      <trkpt lat="40.821669" lon="-3.981511">
        <ele>1638.283096</ele>
        <time>2021-09-15T21:45:15.000Z</time>
      </trkpt>
      <trkpt lat="40.821715" lon="-3.981671">
        <ele>1637.498443</ele>
        <time>2021-09-15T21:45:15.000Z</time>
      </trkpt>
      <trkpt lat="40.82178" lon="-3.981828"/>
      <trkpt lat="40.821825" lon="-3.981931">
        <ele>1636.132788</ele>
        <time>2021-09-15T21:45:15.000Z</time>
      </trkpt>
      <trkpt lat="40.821845" lon="-3.98199"/>
      <trkpt lat="40.821869" lon="-3.982123">
        <ele>1635.209597</ele>
        <time>2021-09-15T21:45:15.000Z</time>
      </trkpt>
      <trkpt lat="40.821883" lon="-3.982179">
        <ele>1634.939226</ele>
        <time>2021-09-15T21:45:15.000Z</time>
      </trkpt>
      <trkpt lat="40.821894" lon="-3.982245">
        <ele>1634.629406</ele>
        <time>2021-09-15T21:45:15.000Z</time>
      </trkpt>
      <trkpt lat="40.821906" lon="-3.982352">
        <ele>1634.133521</ele>
        <time>2021-09-15T21:45:15.000Z</time>
      </trkpt>
      <trkpt lat="40.821915" lon="-3.982389">
        <ele>1633.955352</ele>
        <time>2021-09-15T21:45:15.000Z</time>
      </trkpt>
      <trkpt lat="40.821927" lon="-3.982512">
        <ele>1633.286054</ele>
        <time>2021-09-15T21:45:15.000Z</time>
      </trkpt>
      <trkpt lat="40.821936" lon="-3.982572">
        <ele>1632.955267</ele>
        <time>2021-09-15T21:45:15.000Z</time>
      </trkpt>
      <trkpt lat="40.821928" lon="-3.982664">
        <ele>1632.454465</ele>
        <time>2021-09-15T21:45:15.000Z</time>
      </trkpt>
      <trkpt lat="40.821914" lon="-3.982704">
        <ele>1632.216132</ele>
        <time>2021-09-15T21:45:15.000Z</time>
      </trkpt>
      <trkpt lat="40.821878" lon="-3.982788">
        <ele>1631.694076</ele>
        <time>2021-09-15T21:45:15.000Z</time>
      </trkpt>
      <trkpt lat="40.821752" lon="-3.982965">
        <ele>1630.379917</ele>
        <time>2021-09-15T21:45:15.000Z</time>
      </trkpt>
      <trkpt lat="40.821626" lon="-3.983106">
        <ele>1629.199997</ele>
        <time>2021-09-15T21:45:15.000Z</time>
      </trkpt>
      <trkpt lat="40.821513" lon="-3.983232">
        <ele>1628.143393</ele>
        <time>2021-09-15T21:45:15.000Z</time>
      </trkpt>
      <trkpt lat="40.821491" lon="-3.983256">
        <ele>1627.939523</ele>
        <time>2021-09-15T21:45:15.000Z</time>
      </trkpt>
      <trkpt lat="40.821371" lon="-3.983402">
        <ele>1626.773844</ele>
        <time>2021-09-15T21:45:15.000Z</time>
      </trkpt>
      <trkpt lat="40.821323" lon="-3.983476">
        <ele>1626.246763</ele>
        <time>2021-09-15T21:45:15.000Z</time>
      </trkpt>
      <trkpt lat="40.821311" lon="-3.983495">
        <ele>1626.112928</ele>
        <time>2021-09-15T21:45:15.000Z</time>
      </trkpt>
      <trkpt lat="40.821284" lon="-3.983516">
        <ele>1625.889037</ele>
        <time>2021-09-15T21:45:15.000Z</time>
      </trkpt>
      <trkpt lat="40.821256" lon="-3.98354"/>
      <trkpt lat="40.821204" lon="-3.983591">
        <ele>1625.187758</ele>
        <time>2021-09-15T21:45:15.000Z</time>
      </trkpt>
      <trkpt lat="40.821132" lon="-3.983676">
        <ele>1624.497796</ele>
        <time>2021-09-15T21:45:15.000Z</time>
      </trkpt>
      <trkpt lat="40.821122" lon="-3.983691">
        <ele>1624.389688</ele>
        <time>2021-09-15T21:45:15.000Z</time>
      </trkpt>
      <trkpt lat="40.821072" lon="-3.983752">
        <ele>1623.903377</ele>
        <time>2021-09-15T21:45:15.000Z</time>
      </trkpt>
      <trkpt lat="40.821033" lon="-3.983808">
        <ele>1623.491803</ele>
        <time>2021-09-15T21:45:15.000Z</time>
      </trkpt>
      <trkpt lat="40.821022" lon="-3.983827">
        <ele>1623.362430</ele>
        <time>2021-09-15T21:45:15.000Z</time>
      </trkpt>
      <trkpt lat="40.820982" lon="-3.983913">
        <ele>1622.816521</ele>
        <time>2021-09-15T21:45:15.000Z</time>
      </trkpt>
      <trkpt lat="40.820952" lon="-3.983983">
        <ele>1622.381469</ele>
        <time>2021-09-15T21:45:15.000Z</time>
      </trkpt>
      <trkpt lat="40.82094" lon="-3.984028"/>
      <trkpt lat="40.820915" lon="-3.984135">
        <ele>1621.517835</ele>
        <time>2021-09-15T21:45:15.000Z</time>
      </trkpt>
      <trkpt lat="40.820916" lon="-3.984318">
        <ele>1620.416478</ele>
        <time>2021-09-15T21:45:15.000Z</time>
      </trkpt>
      <trkpt lat="40.820927" lon="-3.984381">
        <ele>1619.997827</ele>
        <time>2021-09-15T21:45:15.000Z</time>
      </trkpt>
      <trkpt lat="40.820962" lon="-3.984509">
        <ele>1619.116566</ele>
        <time>2021-09-15T21:45:15.000Z</time>
      </trkpt>
      <trkpt lat="40.82097" lon="-3.984539"/>
      <trkpt lat="40.821021" lon="-3.984673">
        <ele>1617.939384</ele>
        <time>2021-09-15T21:45:15.000Z</time>
      </trkpt>
      <trkpt lat="40.821046" lon="-3.984733">
        <ele>1617.495880</ele>
        <time>2021-09-15T21:45:15.000Z</time>
      </trkpt>
      <trkpt lat="40.821081" lon="-3.9848"/>
      <trkpt lat="40.821123" lon="-3.984903">
        <ele>1616.211126</ele>
        <time>2021-09-15T21:45:15.000Z</time>
      </trkpt>
      <trkpt lat="40.821176" lon="-3.985006">
        <ele>1615.404617</ele>
        <time>2021-09-15T21:45:15.000Z</time>
      </trkpt>
      <trkpt lat="40.821199" lon="-3.985052">
        <ele>1615.047620</ele>
        <time>2021-09-15T21:45:15.000Z</time>
      </trkpt>
      <trkpt lat="40.821265" lon="-3.985182">
        <ele>1614.033974</ele>
        <time>2021-09-15T21:45:15.000Z</time>
      </trkpt>
      <trkpt lat="40.821281" lon="-3.985214">
        <ele>1613.785628</ele>
        <time>2021-09-15T21:45:15.000Z</time>
      </trkpt>
      <trkpt lat="40.821319" lon="-3.985292">
        <ele>1613.184961</ele>
        <time>2021-09-15T21:45:15.000Z</time>
      </trkpt>
      <trkpt lat="40.821324" lon="-3.985314">
        <ele>1613.036223</ele>
        <time>2021-09-15T21:45:15.000Z</time>
      </trkpt>
      <trkpt lat="40.821357" lon="-3.985382">
        <ele>1612.513157</ele>
        <time>2021-09-15T21:45:15.000Z</time>
      </trkpt>
      <trkpt lat="40.821373" lon="-3.985404">
        <ele>1612.315585</ele>
        <time>2021-09-15T21:45:15.000Z</time>
      </trkpt>
      <trkpt lat="40.821412" lon="-3.985481">
        <ele>1611.715635</ele>
        <time>2021-09-15T21:45:15.000Z</time>
      </trkpt>
      <trkpt lat="40.821446" lon="-3.985579">
        <ele>1611.017568</ele>
        <time>2021-09-15T21:45:15.000Z</time>
      </trkpt>
      <trkpt lat="40.82146" lon="-3.985609"/>
      <trkpt lat="40.821475" lon="-3.985661">
        <ele>1610.429014</ele>
        <time>2021-09-15T21:45:15.000Z</time>
      </trkpt>
      <trkpt lat="40.821486" lon="-3.985694">
        <ele>1610.195525</ele>
        <time>2021-09-15T21:45:15.000Z</time>
      </trkpt>
      <trkpt lat="40.821486" lon="-3.985825">
        <ele>1609.347291</ele>
        <time>2021-09-15T21:45:15.000Z</time>
      </trkpt>
      <trkpt lat="40.821482" lon="-3.985851">
        <ele>1609.175495</ele>
        <time>2021-09-15T21:45:15.000Z</time>
      </trkpt>
      <trkpt lat="40.82148" lon="-3.985954"/>
      <trkpt lat="40.821467" lon="-3.986072">
        <ele>1607.736229</ele>
        <time>2021-09-15T21:45:15.000Z</time>
      </trkpt>
      <trkpt lat="40.821444" lon="-3.986149">
        <ele>1607.200214</ele>
        <time>2021-09-15T21:45:15.000Z</time>
      </trkpt>
      <trkpt lat="40.821404" lon="-3.986244">
        <ele>1606.496277</ele>
        <time>2021-09-15T21:45:15.000Z</time>
      </trkpt>
      <trkpt lat="40.821386" lon="-3.986277">
        <ele>1606.232878</ele>
        <time>2021-09-15T21:45:15.000Z</time>
      </trkpt>
      <trkpt lat="40.821353" lon="-3.986346">
        <ele>1605.704350</ele>
        <time>2021-09-15T21:45:15.000Z</time>
      </trkpt>
      <trkpt lat="40.821305" lon="-3.986434">
        <ele>1604.920448</ele>
        <time>2021-09-15T21:45:15.000Z</time>
      </trkpt>
      <trkpt lat="40.821285" lon="-3.986479">
        <ele>1604.543307</ele>
        <time>2021-09-15T21:45:15.000Z</time>
      </trkpt>
      <trkpt lat="40.821231" lon="-3.986584">
        <ele>1603.625858</ele>
        <time>2021-09-15T21:45:15.000Z</time>
      </trkpt>
      <trkpt lat="40.821219" lon="-3.986605">
        <ele>1603.435690</ele>
        <time>2021-09-15T21:45:15.000Z</time>
      </trkpt>
      <trkpt lat="40.82115" lon="-3.986726"/>
      <trkpt lat="40.821078" lon="-3.98689"/>
      <trkpt lat="40.821048" lon="-3.986951">
        <ele>1600.444848</ele>
        <time>2021-09-15T21:45:15.000Z</time>
      </trkpt>
      <trkpt lat="40.820991" lon="-3.987041">
        <ele>1599.596717</ele>
        <time>2021-09-15T21:45:15.000Z</time>
      </trkpt>
      <trkpt lat="40.820967" lon="-3.987097">
        <ele>1599.131627</ele>
        <time>2021-09-15T21:45:15.000Z</time>
      </trkpt>
      <trkpt lat="40.820905" lon="-3.987232">
        <ele>1597.990409</ele>
        <time>2021-09-15T21:45:15.000Z</time>
      </trkpt>
      <trkpt lat="40.820893" lon="-3.987259">
        <ele>1597.764124</ele>
        <time>2021-09-15T21:45:15.000Z</time>
      </trkpt>
      <trkpt lat="40.820849" lon="-3.987415">
        <ele>1596.560991</ele>
        <time>2021-09-15T21:45:15.000Z</time>
      </trkpt>
      <trkpt lat="40.820842" lon="-3.987443">
        <ele>1596.347885</ele>
        <time>2021-09-15T21:45:15.000Z</time>
      </trkpt>
      <trkpt lat="40.820817" lon="-3.987638">
        <ele>1594.918585</ele>
        <time>2021-09-15T21:45:15.000Z</time>
      </trkpt>
      <trkpt lat="40.820808" lon="-3.987697">
        <ele>1594.483630</ele>
        <time>2021-09-15T21:45:15.000Z</time>
      </trkpt>
      <trkpt lat="40.820803" lon="-3.987798">
        <ele>1593.752165</ele>
        <time>2021-09-15T21:45:15.000Z</time>
      </trkpt>
      <trkpt lat="40.820812" lon="-3.987893">
        <ele>1593.060263</ele>
        <time>2021-09-15T21:45:15.000Z</time>
      </trkpt>
      <trkpt lat="40.820817" lon="-3.987967">
        <ele>1592.523355</ele>
        <time>2021-09-15T21:45:15.000Z</time>
      </trkpt>
      <trkpt lat="40.820821" lon="-3.988019">
        <ele>1592.145626</ele>
        <time>2021-09-15T21:45:15.000Z</time>
      </trkpt>
      <trkpt lat="40.820848" lon="-3.988144">
        <ele>1591.206203</ele>
        <time>2021-09-15T21:45:15.000Z</time>
      </trkpt>
      <trkpt lat="40.820875" lon="-3.988246">
        <ele>1590.425279</ele>
        <time>2021-09-15T21:45:15.000Z</time>
      </trkpt>
      <trkpt lat="40.820885" lon="-3.988312">
        <ele>1589.938846</ele>
        <time>2021-09-15T21:45:15.000Z</time>
      </trkpt>
      <trkpt lat="40.820901" lon="-3.988378">
        <ele>1589.438004</ele>
        <time>2021-09-15T21:45:15.000Z</time>
      </trkpt>
      <trkpt lat="40.820906" lon="-3.988455">
        <ele>1588.879498</ele>
        <time>2021-09-15T21:45:15.000Z</time>
      </trkpt>
      <trkpt lat="40.820914" lon="-3.988482">
        <ele>1588.669953</ele>
        <time>2021-09-15T21:45:15.000Z</time>
      </trkpt>
      <trkpt lat="40.820918" lon="-3.988595">
        <ele>1587.632025</ele>
        <time>2021-09-15T21:45:15.000Z</time>
      </trkpt>
      <trkpt lat="40.820928" lon="-3.988691">
        <ele>1586.703123</ele>
        <time>2021-09-15T21:45:15.000Z</time>
      </trkpt>
      <trkpt lat="40.820932" lon="-3.988736">
        <ele>1586.268802</ele>
        <time>2021-09-15T21:45:15.000Z</time>
      </trkpt>
      <trkpt lat="40.820944" lon="-3.988793">
        <ele>1585.701669</ele>
        <time>2021-09-15T21:45:15.000Z</time>
      </trkpt>
      <trkpt lat="40.820947" lon="-3.988837">
        <ele>1585.278191</ele>
        <time>2021-09-15T21:45:15.000Z</time>
      </trkpt>
      <trkpt lat="40.820955" lon="-3.988951">
        <ele>1584.180735</ele>
        <time>2021-09-15T21:45:15.000Z</time>
      </trkpt>
      <trkpt lat="40.820973" lon="-3.989042">
        <ele>1583.279133</ele>
        <time>2021-09-15T21:45:15.000Z</time>
      </trkpt>
      <trkpt lat="40.820975" lon="-3.989062">
        <ele>1583.085753</ele>
        <time>2021-09-15T21:45:15.000Z</time>
      </trkpt>
      <trkpt lat="40.821" lon="-3.989135"/>
      <trkpt lat="40.821018" lon="-3.989208">
        <ele>1581.581718</ele>
        <time>2021-09-15T21:45:15.000Z</time>
      </trkpt>
      <trkpt lat="40.821029" lon="-3.989247">
        <ele>1581.182755</ele>
        <time>2021-09-15T21:45:15.000Z</time>
      </trkpt>
      <trkpt lat="40.821051" lon="-3.989324">
        <ele>1580.393805</ele>
        <time>2021-09-15T21:45:15.000Z</time>
      </trkpt>
      <trkpt lat="40.821062" lon="-3.989357">
        <ele>1580.048150</ele>
        <time>2021-09-15T21:45:15.000Z</time>
      </trkpt>
      <trkpt lat="40.821069" lon="-3.989396">
        <ele>1579.663938</ele>
        <time>2021-09-15T21:45:15.000Z</time>
      </trkpt>
      <trkpt lat="40.821097" lon="-3.989473">
        <ele>1578.845051</ele>
        <time>2021-09-15T21:45:15.000Z</time>
      </trkpt>
      <trkpt lat="40.821105" lon="-3.989493">
        <ele>1578.628204</ele>
        <time>2021-09-15T21:45:15.000Z</time>
      </trkpt>
      <trkpt lat="40.821123" lon="-3.989559">
        <ele>1577.955720</ele>
        <time>2021-09-15T21:45:15.000Z</time>
      </trkpt>
      <trkpt lat="40.821126" lon="-3.989584">
        <ele>1577.713084</ele>
        <time>2021-09-15T21:45:15.000Z</time>
      </trkpt>
      <trkpt lat="40.821163" lon="-3.989698">
        <ele>1576.524057</ele>
        <time>2021-09-15T21:45:15.000Z</time>
      </trkpt>
      <trkpt lat="40.821166" lon="-3.989717">
        <ele>1576.338007</ele>
        <time>2021-09-15T21:45:15.000Z</time>
      </trkpt>
      <trkpt lat="40.821191" lon="-3.989786">
        <ele>1575.604698</ele>
        <time>2021-09-15T21:45:15.000Z</time>
      </trkpt>
      <trkpt lat="40.821204" lon="-3.989818">
        <ele>1575.256552</ele>
        <time>2021-09-15T21:45:15.000Z</time>
      </trkpt>
      <trkpt lat="40.821212" lon="-3.989855">
        <ele>1574.887691</ele>
        <time>2021-09-15T21:45:15.000Z</time>
      </trkpt>
      <trkpt lat="40.821243" lon="-3.989947">
        <ele>1573.922341</ele>
        <time>2021-09-15T21:45:15.000Z</time>
      </trkpt>
      <trkpt lat="40.821252" lon="-3.989973">
        <ele>1573.648279</ele>
        <time>2021-09-15T21:45:15.000Z</time>
      </trkpt>
      <trkpt lat="40.821258" lon="-3.99"/>
      <trkpt lat="40.821264" lon="-3.990078">
        <ele>1572.627007</ele>
        <time>2021-09-15T21:45:15.000Z</time>
      </trkpt>
      <trkpt lat="40.82128" lon="-3.990142"/>
      <trkpt lat="40.82128" lon="-3.990188"/>
      <trkpt lat="40.821279" lon="-3.990251">
        <ele>1570.935950</ele>
        <time>2021-09-15T21:45:15.000Z</time>
      </trkpt>
      <trkpt lat="40.821276" lon="-3.990269">
        <ele>1570.759273</ele>
        <time>2021-09-15T21:45:15.000Z</time>
      </trkpt>
      <trkpt lat="40.821278" lon="-3.990303">
        <ele>1570.432379</ele>
        <time>2021-09-15T21:45:15.000Z</time>
      </trkpt>
      <trkpt lat="40.821295" lon="-3.990355">
        <ele>1569.889401</ele>
        <time>2021-09-15T21:45:15.000Z</time>
      </trkpt>
      <trkpt lat="40.821304" lon="-3.990421">
        <ele>1569.246560</ele>
        <time>2021-09-15T21:45:15.000Z</time>
      </trkpt>
      <trkpt lat="40.821317" lon="-3.990459">
        <ele>1568.846815</ele>
        <time>2021-09-15T21:45:15.000Z</time>
      </trkpt>
      <trkpt lat="40.821357" lon="-3.990522">
        <ele>1568.058523</ele>
        <time>2021-09-15T21:45:15.000Z</time>
      </trkpt>
      <trkpt lat="40.821368" lon="-3.990538">
        <ele>1567.851311</ele>
        <time>2021-09-15T21:45:15.000Z</time>
      </trkpt>
      <trkpt lat="40.821387" lon="-3.990571">
        <ele>1567.453840</ele>
        <time>2021-09-15T21:45:15.000Z</time>
      </trkpt>
      <trkpt lat="40.821427" lon="-3.990623">
        <ele>1566.743086</ele>
        <time>2021-09-15T21:45:15.000Z</time>
      </trkpt>
      <trkpt lat="40.82144" lon="-3.990642"/>
      <trkpt lat="40.821456" lon="-3.990664">
        <ele>1566.205072</ele>
        <time>2021-09-15T21:45:15.000Z</time>
      </trkpt>
      <trkpt lat="40.821481" lon="-3.990707">
        <ele>1565.695673</ele>
        <time>2021-09-15T21:45:15.000Z</time>
      </trkpt>
      <trkpt lat="40.821515" lon="-3.990781">
        <ele>1565.011041</ele>
        <time>2021-09-15T21:45:15.000Z</time>
      </trkpt>
      <trkpt lat="40.821539" lon="-3.990857">
        <ele>1564.359779</ele>
        <time>2021-09-15T21:45:15.000Z</time>
      </trkpt>
      <trkpt lat="40.82153" lon="-3.990906"/>
      <trkpt lat="40.821509" lon="-3.990995">
        <ele>1563.223765</ele>
        <time>2021-09-15T21:45:15.000Z</time>
      </trkpt>
      <trkpt lat="40.821491" lon="-3.991088">
        <ele>1562.464620</ele>
        <time>2021-09-15T21:45:15.000Z</time>
      </trkpt>
      <trkpt lat="40.821464" lon="-3.991182">
        <ele>1561.669492</ele>
        <time>2021-09-15T21:45:15.000Z</time>
      </trkpt>
      <trkpt lat="40.821441" lon="-3.991274">
        <ele>1560.903255</ele>
        <time>2021-09-15T21:45:15.000Z</time>
      </trkpt>
      <trkpt lat="40.821434" lon="-3.991384">
        <ele>1560.030272</ele>
        <time>2021-09-15T21:45:15.000Z</time>
      </trkpt>
      <trkpt lat="40.821421" lon="-3.991505">
        <ele>1559.063772</ele>
        <time>2021-09-15T21:45:15.000Z</time>
      </trkpt>
      <trkpt lat="40.821415" lon="-3.991564">
        <ele>1558.592988</ele>
        <time>2021-09-15T21:45:15.000Z</time>
      </trkpt>
      <trkpt lat="40.821404" lon="-3.99168"/>
      <trkpt lat="40.821401" lon="-3.991703">
        <ele>1557.483877</ele>
        <time>2021-09-15T21:45:15.000Z</time>
      </trkpt>
      <trkpt lat="40.821409" lon="-3.991793">
        <ele>1556.767237</ele>
        <time>2021-09-15T21:45:15.000Z</time>
      </trkpt>
      <trkpt lat="40.821407" lon="-3.99186"/>
      <trkpt lat="40.821396" lon="-3.991903">
        <ele>1555.878007</ele>
        <time>2021-09-15T21:45:15.000Z</time>
      </trkpt>
      <trkpt lat="40.821385" lon="-3.992001">
        <ele>1555.094514</ele>
        <time>2021-09-15T21:45:15.000Z</time>
      </trkpt>
      <trkpt lat="40.821392" lon="-3.992027">
        <ele>1554.876273</ele>
        <time>2021-09-15T21:45:15.000Z</time>
      </trkpt>
      <trkpt lat="40.821409" lon="-3.992109">
        <ele>1554.203898</ele>
        <time>2021-09-15T21:45:15.000Z</time>
      </trkpt>
      <trkpt lat="40.821425" lon="-3.992169">
        <ele>1553.700801</ele>
        <time>2021-09-15T21:45:15.000Z</time>
      </trkpt>
      <trkpt lat="40.821438" lon="-3.992239">
        <ele>1553.130794</ele>
        <time>2021-09-15T21:45:15.000Z</time>
      </trkpt>
      <trkpt lat="40.821438" lon="-3.992373">
        <ele>1552.071082</ele>
        <time>2021-09-15T21:45:15.000Z</time>
      </trkpt>
      <trkpt lat="40.821447" lon="-3.992508">
        <ele>1550.999327</ele>
        <time>2021-09-15T21:45:15.000Z</time>
      </trkpt>
      <trkpt lat="40.821426" lon="-3.992593">
        <ele>1550.292205</ele>
        <time>2021-09-15T21:45:15.000Z</time>
      </trkpt>
      <trkpt lat="40.821413" lon="-3.992717">
        <ele>1549.302210</ele>
        <time>2021-09-15T21:45:15.000Z</time>
      </trkpt>
      <trkpt lat="40.821404" lon="-3.99277"/>
      <trkpt lat="40.821388" lon="-3.992906">
        <ele>1547.784198</ele>
        <time>2021-09-15T21:45:15.000Z</time>
      </trkpt>
      <trkpt lat="40.821396" lon="-3.992979">
        <ele>1547.200870</ele>
        <time>2021-09-15T21:45:15.000Z</time>
      </trkpt>
      <trkpt lat="40.821398" lon="-3.992997">
        <ele>1547.056994</ele>
        <time>2021-09-15T21:45:15.000Z</time>
      </trkpt>
      <trkpt lat="40.821395" lon="-3.993024">
        <ele>1546.943224</ele>
        <time>2021-09-15T21:45:15.000Z</time>
      </trkpt>
      <trkpt lat="40.821382" lon="-3.993102">
        <ele>1546.913866</ele>
        <time>2021-09-15T21:45:15.000Z</time>
      </trkpt>
      <trkpt lat="40.821362" lon="-3.993194">
        <ele>1546.878680</ele>
        <time>2021-09-15T21:45:15.000Z</time>
      </trkpt>
      <trkpt lat="40.821312" lon="-3.993361">
        <ele>1546.812664</ele>
        <time>2021-09-15T21:45:15.000Z</time>
      </trkpt>
      <trkpt lat="40.821242" lon="-3.993535">
        <ele>1546.740228</ele>
        <time>2021-09-15T21:45:15.000Z</time>
      </trkpt>
      <trkpt lat="40.821232" lon="-3.993566">
        <ele>1546.727840</ele>
        <time>2021-09-15T21:45:15.000Z</time>
      </trkpt>
      <trkpt lat="40.82122" lon="-3.993595"/>
      <trkpt lat="40.821206" lon="-3.993623">
        <ele>1546.703355</ele>
        <time>2021-09-15T21:45:15.000Z</time>
      </trkpt>
      <trkpt lat="40.821192" lon="-3.993652">
        <ele>1546.690710</ele>
        <time>2021-09-15T21:45:15.000Z</time>
      </trkpt>
      <trkpt lat="40.82118" lon="-3.993688"/>
      <trkpt lat="40.821179" lon="-3.993728">
        <ele>1546.661539</ele>
        <time>2021-09-15T21:45:15.000Z</time>
      </trkpt>
      <trkpt lat="40.821204" lon="-3.993771">
        <ele>1546.641607</ele>
        <time>2021-09-15T21:45:15.000Z</time>
      </trkpt>
      <trkpt lat="40.821241" lon="-3.993803">
        <ele>1546.620127</ele>
        <time>2021-09-15T21:45:15.000Z</time>
      </trkpt>
      <trkpt lat="40.821292" lon="-3.993832">
        <ele>1546.593158</ele>
        <time>2021-09-15T21:45:15.000Z</time>
      </trkpt>
      <trkpt lat="40.821439" lon="-3.993923">
        <ele>1546.514308</ele>
        <time>2021-09-15T21:45:15.000Z</time>
      </trkpt>
      <trkpt lat="40.821539" lon="-3.993989">
        <ele>1546.460012</ele>
        <time>2021-09-15T21:45:15.000Z</time>
      </trkpt>
      <trkpt lat="40.821652" lon="-3.994055">
        <ele>1546.400001</ele>
        <time>2021-09-15T21:45:15.000Z</time>
      </trkpt>
      <trkpt lat="40.821888" lon="-3.99422"/>
      <trkpt lat="40.822004" lon="-3.994305">
        <ele>1546.205882</ele>
        <time>2021-09-15T21:45:15.000Z</time>
      </trkpt>
      <trkpt lat="40.822113" lon="-3.99439"/>
      <trkpt lat="40.822224" lon="-3.994476">
        <ele>1546.081903</ele>
        <time>2021-09-15T21:45:15.000Z</time>
      </trkpt>
      <trkpt lat="40.822342" lon="-3.994555">
        <ele>1546.985196</ele>
        <time>2021-09-15T21:45:15.000Z</time>
      </trkpt>
      <trkpt lat="40.822462" lon="-3.994625">
        <ele>1548.005379</ele>
        <time>2021-09-15T21:45:15.000Z</time>
      </trkpt>
      <trkpt lat="40.822577" lon="-3.994694">
        <ele>1548.987664</ele>
        <time>2021-09-15T21:45:15.000Z</time>
      </trkpt>
      <trkpt lat="40.822692" lon="-3.994762">
        <ele>1549.967530</ele>
        <time>2021-09-15T21:45:15.000Z</time>
      </trkpt>
      <trkpt lat="40.822809" lon="-3.994826">
        <ele>1550.952373</ele>
        <time>2021-09-15T21:45:15.000Z</time>
      </trkpt>
      <trkpt lat="40.82293" lon="-3.994893"/>
      <trkpt lat="40.823057" lon="-3.994961">
        <ele>1553.038459</ele>
        <time>2021-09-15T21:45:15.000Z</time>
      </trkpt>
      <trkpt lat="40.82332" lon="-3.995093"/>
      <trkpt lat="40.82359" lon="-3.995197"/>
      <trkpt lat="40.823717" lon="-3.995238">
        <ele>1558.430584</ele>
        <time>2021-09-15T21:45:15.000Z</time>
      </trkpt>
      <trkpt lat="40.823836" lon="-3.995273">
        <ele>1559.378748</ele>
        <time>2021-09-15T21:45:15.000Z</time>
      </trkpt>
      <trkpt lat="40.823951" lon="-3.995316">
        <ele>1560.315279</ele>
        <time>2021-09-15T21:45:15.000Z</time>
      </trkpt>
      <trkpt lat="40.824173" lon="-3.995401">
        <ele>1562.164334</ele>
        <time>2021-09-15T21:45:15.000Z</time>
      </trkpt>
      <trkpt lat="40.824502" lon="-3.995517">
        <ele>1564.888423</ele>
        <time>2021-09-15T21:45:15.000Z</time>
      </trkpt>
      <trkpt lat="40.824702" lon="-3.995605">
        <ele>1566.574792</ele>
        <time>2021-09-15T21:45:15.000Z</time>
      </trkpt>
      <trkpt lat="40.824889" lon="-3.995681">
        <ele>1568.139952</ele>
        <time>2021-09-15T21:45:15.000Z</time>
      </trkpt>
      <trkpt lat="40.82509" lon="-3.995726"/>
      <trkpt lat="40.825406" lon="-3.995769">
        <ele>1572.312260</ele>
        <time>2021-09-15T21:45:15.000Z</time>
      </trkpt>
      <trkpt lat="40.825494" lon="-3.995772">
        <ele>1573.016499</ele>
        <time>2021-09-15T21:45:15.000Z</time>
      </trkpt>
      <trkpt lat="40.825733" lon="-3.995725">
        <ele>1574.575696</ele>
        <time>2021-09-15T21:45:15.000Z</time>
      </trkpt>
      <trkpt lat="40.825803" lon="-3.995703">
        <ele>1574.718223</ele>
        <time>2021-09-15T21:45:15.000Z</time>
      </trkpt>
      <trkpt lat="40.825872" lon="-3.995693">
        <ele>1574.855721</ele>
        <time>2021-09-15T21:45:15.000Z</time>
      </trkpt>
      <trkpt lat="40.825989" lon="-3.995706">
        <ele>1575.088299</ele>
        <time>2021-09-15T21:45:15.000Z</time>
      </trkpt>
      <trkpt lat="40.826093" lon="-3.995774">
        <ele>1575.318143</ele>
        <time>2021-09-15T21:45:15.000Z</time>
      </trkpt>
      <trkpt lat="40.826232" lon="-3.995957">
        <ele>1575.706797</ele>
        <time>2021-09-15T21:45:15.000Z</time>
      </trkpt>
      <trkpt lat="40.826276" lon="-3.996022">
        <ele>1575.837521</ele>
        <time>2021-09-15T21:45:15.000Z</time>
      </trkpt>
      <trkpt lat="40.826302" lon="-3.996085">
        <ele>1575.945084</ele>
        <time>2021-09-15T21:45:15.000Z</time>
      </trkpt>
      <trkpt lat="40.82643" lon="-3.996333"/>
      <trkpt lat="40.826566" lon="-3.996578">
        <ele>1576.850496</ele>
        <time>2021-09-15T21:45:15.000Z</time>
      </trkpt>
      <trkpt lat="40.826655" lon="-3.996702">
        <ele>1577.106670</ele>
        <time>2021-09-15T21:45:15.000Z</time>
      </trkpt>
      <trkpt lat="40.826693" lon="-3.996742">
        <ele>1577.202902</ele>
        <time>2021-09-15T21:45:15.000Z</time>
      </trkpt>
      <trkpt lat="40.826733" lon="-3.996784">
        <ele>1577.304101</ele>
        <time>2021-09-15T21:45:15.000Z</time>
      </trkpt>
      <trkpt lat="40.826807" lon="-3.996914">
        <ele>1577.547936</ele>
        <time>2021-09-15T21:45:15.000Z</time>
      </trkpt>
      <trkpt lat="40.826799" lon="-3.996965">
        <ele>1577.626005</ele>
        <time>2021-09-15T21:45:15.000Z</time>
      </trkpt>
      <trkpt lat="40.826728" lon="-3.997095">
        <ele>1577.866314</ele>
        <time>2021-09-15T21:45:15.000Z</time>
      </trkpt>
      <trkpt lat="40.82668" lon="-3.997163"/>
      <trkpt lat="40.826524" lon="-3.997354">
        <ele>1578.053426</ele>
        <time>2021-09-15T21:45:15.000Z</time>
      </trkpt>
      <trkpt lat="40.826485" lon="-3.997579">
        <ele>1578.085312</ele>
        <time>2021-09-15T21:45:15.000Z</time>
      </trkpt>
      <trkpt lat="40.826648" lon="-3.997729">
        <ele>1578.121572</ele>
        <time>2021-09-15T21:45:15.000Z</time>
      </trkpt>
      <trkpt lat="40.826725" lon="-3.997766">
        <ele>1578.136529</ele>
        <time>2021-09-15T21:45:15.000Z</time>
      </trkpt>
      <trkpt lat="40.826959" lon="-3.997851">
        <ele>1578.180830</ele>
        <time>2021-09-15T21:45:15.000Z</time>
      </trkpt>
      <trkpt lat="40.827199" lon="-3.997942">
        <ele>1578.226411</ele>
        <time>2021-09-15T21:45:15.000Z</time>
      </trkpt>
      <trkpt lat="40.827366" lon="-3.997992">
        <ele>1578.257670</ele>
        <time>2021-09-15T21:45:15.000Z</time>
      </trkpt>
      <trkpt lat="40.827457" lon="-3.998016">
        <ele>1578.274609</ele>
        <time>2021-09-15T21:45:15.000Z</time>
      </trkpt>
      <trkpt lat="40.827495" lon="-3.998038">
        <ele>1578.282183</ele>
        <time>2021-09-15T21:45:15.000Z</time>
      </trkpt>
      <trkpt lat="40.827546" lon="-3.998125">
        <ele>1578.297385</ele>
        <time>2021-09-15T21:45:15.000Z</time>
      </trkpt>
      <trkpt lat="40.827566" lon="-3.998187">
        <ele>1578.306695</ele>
        <time>2021-09-15T21:45:15.000Z</time>
      </trkpt>
      <trkpt lat="40.827623" lon="-3.998537">
        <ele>1578.159962</ele>
        <time>2021-09-15T21:45:15.000Z</time>
      </trkpt>
      <trkpt lat="40.827692" lon="-3.998905">
        <ele>1577.376557</ele>
        <time>2021-09-15T21:45:15.000Z</time>
      </trkpt>
      <trkpt lat="40.827747" lon="-3.999202">
        <ele>1576.744747</ele>
        <time>2021-09-15T21:45:15.000Z</time>
      </trkpt>
      <trkpt lat="40.82774" lon="-3.999456"/>
      <trkpt lat="40.827752" lon="-3.999535">
        <ele>1576.053056</ele>
        <time>2021-09-15T21:45:15.000Z</time>
      </trkpt>
      <trkpt lat="40.827768" lon="-3.999673">
        <ele>1575.764576</ele>
        <time>2021-09-15T21:45:15.000Z</time>
      </trkpt>
      <trkpt lat="40.827767" lon="-3.999838">
        <ele>1575.423621</ele>
        <time>2021-09-15T21:45:15.000Z</time>
      </trkpt>
      <trkpt lat="40.827768" lon="-3.999923">
        <ele>1575.247963</ele>
        <time>2021-09-15T21:45:15.000Z</time>
      </trkpt>
      <trkpt lat="40.827773" lon="-3.999984">
        <ele>1575.121180</ele>
        <time>2021-09-15T21:45:15.000Z</time>
      </trkpt>
      <trkpt lat="40.827772" lon="-4.000059">
        <ele>1574.966181</ele>
        <time>2021-09-15T21:45:15.000Z</time>
      </trkpt>
      <trkpt lat="40.827768" lon="-4.000165">
        <ele>1574.746879</ele>
        <time>2021-09-15T21:45:15.000Z</time>
      </trkpt>
      <trkpt lat="40.82776" lon="-4.000201"/>
      <trkpt lat="40.827738" lon="-4.000312">
        <ele>1574.432250</ele>
        <time>2021-09-15T21:45:15.000Z</time>
      </trkpt>
      <trkpt lat="40.827719" lon="-4.000377">
        <ele>1574.288266</ele>
        <time>2021-09-15T21:45:15.000Z</time>
      </trkpt>
      <trkpt lat="40.82769" lon="-4.000434"/>
      <trkpt lat="40.827593" lon="-4.000578">
        <ele>1573.747964</ele>
        <time>2021-09-15T21:45:15.000Z</time>
      </trkpt>
      <trkpt lat="40.827568" lon="-4.000619">
        <ele>1573.639161</ele>
        <time>2021-09-15T21:45:15.000Z</time>
      </trkpt>
      <trkpt lat="40.827515" lon="-4.000689">
        <ele>1573.434542</ele>
        <time>2021-09-15T21:45:15.000Z</time>
      </trkpt>
      <trkpt lat="40.827455" lon="-4.000788">
        <ele>1573.066809</ele>
        <time>2021-09-15T21:45:15.000Z</time>
      </trkpt>
      <trkpt lat="40.827397" lon="-4.000982">
        <ele>1572.460459</ele>
        <time>2021-09-15T21:45:15.000Z</time>
      </trkpt>
      <trkpt lat="40.827383" lon="-4.001042">
        <ele>1572.277944</ele>
        <time>2021-09-15T21:45:15.000Z</time>
      </trkpt>
      <trkpt lat="40.827336" lon="-4.001227">
        <ele>1571.710676</ele>
        <time>2021-09-15T21:45:15.000Z</time>
      </trkpt>
      <trkpt lat="40.827308" lon="-4.001482">
        <ele>1570.961666</ele>
        <time>2021-09-15T21:45:15.000Z</time>
      </trkpt>
      <trkpt lat="40.827305" lon="-4.001557">
        <ele>1570.743347</ele>
        <time>2021-09-15T21:45:15.000Z</time>
      </trkpt>
      <trkpt lat="40.827312" lon="-4.001613">
        <ele>1570.578357</ele>
        <time>2021-09-15T21:45:15.000Z</time>
      </trkpt>
      <trkpt lat="40.827341" lon="-4.001776">
        <ele>1570.091620</ele>
        <time>2021-09-15T21:45:15.000Z</time>
      </trkpt>
      <trkpt lat="40.827336" lon="-4.001986">
        <ele>1569.480879</ele>
        <time>2021-09-15T21:45:15.000Z</time>
      </trkpt>
      <trkpt lat="40.827182" lon="-4.002266">
        <ele>1568.474670</ele>
        <time>2021-09-15T21:45:15.000Z</time>
      </trkpt>
      <trkpt lat="40.827144" lon="-4.002308">
        <ele>1568.284366</ele>
        <time>2021-09-15T21:45:15.000Z</time>
      </trkpt>
      <trkpt lat="40.827029" lon="-4.002449">
        <ele>1567.681738</ele>
        <time>2021-09-15T21:45:15.000Z</time>
      </trkpt>
      <trkpt lat="40.827" lon="-4.002482"/>
      <trkpt lat="40.826885" lon="-4.002645">
        <ele>1566.886901</ele>
        <time>2021-09-15T21:45:15.000Z</time>
      </trkpt>
      <trkpt lat="40.826832" lon="-4.002803">
        <ele>1566.324886</ele>
        <time>2021-09-15T21:45:15.000Z</time>
      </trkpt>
      <trkpt lat="40.826803" lon="-4.002887">
        <ele>1565.940566</ele>
        <time>2021-09-15T21:45:15.000Z</time>
      </trkpt>
      <trkpt lat="40.826758" lon="-4.003083">
        <ele>1565.087993</ele>
        <time>2021-09-15T21:45:15.000Z</time>
      </trkpt>
      <trkpt lat="40.826745" lon="-4.003137">
        <ele>1564.852118</ele>
        <time>2021-09-15T21:45:15.000Z</time>
      </trkpt>
      <trkpt lat="40.8267" lon="-4.003365"/>
      <trkpt lat="40.826687" lon="-4.003491">
        <ele>1563.341995</ele>
        <time>2021-09-15T21:45:15.000Z</time>
      </trkpt>
      <trkpt lat="40.826681" lon="-4.003564">
        <ele>1563.036347</ele>
        <time>2021-09-15T21:45:15.000Z</time>
      </trkpt>
      <trkpt lat="40.826667" lon="-4.003681">
        <ele>1562.543285</ele>
        <time>2021-09-15T21:45:15.000Z</time>
      </trkpt>
      <trkpt lat="40.826656" lon="-4.003762">
        <ele>1562.200737</ele>
        <time>2021-09-15T21:45:15.000Z</time>
      </trkpt>
      <trkpt lat="40.826645" lon="-4.003843">
        <ele>1561.858189</ele>
        <time>2021-09-15T21:45:15.000Z</time>
      </trkpt>
      <trkpt lat="40.826626" lon="-4.003969">
        <ele>1561.323403</ele>
        <time>2021-09-15T21:45:15.000Z</time>
      </trkpt>
      <trkpt lat="40.826611" lon="-4.004016">
        <ele>1561.111077</ele>
        <time>2021-09-15T21:45:15.000Z</time>
      </trkpt>
      <trkpt lat="40.826566" lon="-4.004132">
        <ele>1560.568473</ele>
        <time>2021-09-15T21:45:15.000Z</time>
      </trkpt>
      <trkpt lat="40.826562" lon="-4.004159">
        <ele>1560.453952</ele>
        <time>2021-09-15T21:45:15.000Z</time>
      </trkpt>
      <trkpt lat="40.826529" lon="-4.004267">
        <ele>1559.969135</ele>
        <time>2021-09-15T21:45:15.000Z</time>
      </trkpt>
      <trkpt lat="40.826497" lon="-4.004393">
        <ele>1559.415909</ele>
        <time>2021-09-15T21:45:15.000Z</time>
      </trkpt>
      <trkpt lat="40.826478" lon="-4.004595">
        <ele>1558.568614</ele>
        <time>2021-09-15T21:45:15.000Z</time>
      </trkpt>
      <trkpt lat="40.826546" lon="-4.004998">
        <ele>1556.849930</ele>
        <time>2021-09-15T21:45:15.000Z</time>
      </trkpt>
      <trkpt lat="40.826571" lon="-4.005075">
        <ele>1556.487873</ele>
        <time>2021-09-15T21:45:15.000Z</time>
      </trkpt>
      <trkpt lat="40.826592" lon="-4.005185">
        <ele>1555.966331</ele>
        <time>2021-09-15T21:45:15.000Z</time>
      </trkpt>
      <trkpt lat="40.826612" lon="-4.005376">
        <ele>1555.079892</ele>
        <time>2021-09-15T21:45:15.000Z</time>
      </trkpt>
      <trkpt lat="40.826657" lon="-4.005622">
        <ele>1553.916396</ele>
        <time>2021-09-15T21:45:15.000Z</time>
      </trkpt>
      <trkpt lat="40.826676" lon="-4.00577"/>
      <trkpt lat="40.826678" lon="-4.005789">
        <ele>1553.138095</ele>
        <time>2021-09-15T21:45:15.000Z</time>
      </trkpt>
      <trkpt lat="40.826691" lon="-4.005937">
        <ele>1552.453136</ele>
        <time>2021-09-15T21:45:15.000Z</time>
      </trkpt>
      <trkpt lat="40.826695" lon="-4.006043">
        <ele>1551.965225</ele>
        <time>2021-09-15T21:45:15.000Z</time>
      </trkpt>
      <trkpt lat="40.826714" lon="-4.006159">
        <ele>1551.419596</ele>
        <time>2021-09-15T21:45:15.000Z</time>
      </trkpt>
      <trkpt lat="40.826743" lon="-4.006252">
        <ele>1550.957174</ele>
        <time>2021-09-15T21:45:15.000Z</time>
      </trkpt>
      <trkpt lat="40.826767" lon="-4.006306">
        <ele>1550.669270</ele>
        <time>2021-09-15T21:45:15.000Z</time>
      </trkpt>
      <trkpt lat="40.826777" lon="-4.006443">
        <ele>1550.036527</ele>
        <time>2021-09-15T21:45:15.000Z</time>
      </trkpt>
      <trkpt lat="40.826779" lon="-4.006477">
        <ele>1549.879750</ele>
        <time>2021-09-15T21:45:15.000Z</time>
      </trkpt>
      <trkpt lat="40.826807" lon="-4.006593">
        <ele>1549.319997</ele>
        <time>2021-09-15T21:45:15.000Z</time>
      </trkpt>
      <trkpt lat="40.826826" lon="-4.006693">
        <ele>1548.846005</ele>
        <time>2021-09-15T21:45:15.000Z</time>
      </trkpt>
      <trkpt lat="40.826835" lon="-4.006787">
        <ele>1548.410420</ele>
        <time>2021-09-15T21:45:15.000Z</time>
      </trkpt>
      <trkpt lat="40.826823" lon="-4.006875">
        <ele>1547.999349</ele>
        <time>2021-09-15T21:45:15.000Z</time>
      </trkpt>
      <trkpt lat="40.826819" lon="-4.006935">
        <ele>1547.722447</ele>
        <time>2021-09-15T21:45:15.000Z</time>
      </trkpt>
      <trkpt lat="40.826811" lon="-4.007029">
        <ele>1547.287584</ele>
        <time>2021-09-15T21:45:15.000Z</time>
      </trkpt>
      <trkpt lat="40.826819" lon="-4.007045">
        <ele>1547.199421</ele>
        <time>2021-09-15T21:45:15.000Z</time>
      </trkpt>
      <trkpt lat="40.826827" lon="-4.007187">
        <ele>1546.544809</ele>
        <time>2021-09-15T21:45:15.000Z</time>
      </trkpt>
      <trkpt lat="40.826854" lon="-4.007285">
        <ele>1546.065348</ele>
        <time>2021-09-15T21:45:15.000Z</time>
      </trkpt>
      <trkpt lat="40.826865" lon="-4.007345">
        <ele>1545.781535</ele>
        <time>2021-09-15T21:45:15.000Z</time>
      </trkpt>
      <trkpt lat="40.826874" lon="-4.007364">
        <ele>1545.696878</ele>
        <time>2021-09-15T21:45:15.000Z</time>
      </trkpt>
      <trkpt lat="40.826901" lon="-4.007439">
        <ele>1545.629290</ele>
        <time>2021-09-15T21:45:15.000Z</time>
      </trkpt>
      <trkpt lat="40.826909" lon="-4.007504">
        <ele>1545.575700</ele>
        <time>2021-09-15T21:45:15.000Z</time>
      </trkpt>
      <trkpt lat="40.826923" lon="-4.007711">
        <ele>1545.406578</ele>
        <time>2021-09-15T21:45:15.000Z</time>
      </trkpt>
      <trkpt lat="40.826994" lon="-4.007979">
        <ele>1545.175508</ele>
        <time>2021-09-15T21:45:15.000Z</time>
      </trkpt>
      <trkpt lat="40.827041" lon="-4.00816"/>
      <trkpt lat="40.827072" lon="-4.00829"/>
      <trkpt lat="40.827095" lon="-4.008439">
        <ele>1544.785117</ele>
        <time>2021-09-15T21:45:15.000Z</time>
      </trkpt>
      <trkpt lat="40.827058" lon="-4.00867"/>
      <trkpt lat="40.826978" lon="-4.008827">
        <ele>1544.438942</ele>
        <time>2021-09-15T21:45:15.000Z</time>
      </trkpt>
      <trkpt lat="40.826884" lon="-4.008971">
        <ele>1544.284181</ele>
        <time>2021-09-15T21:45:15.000Z</time>
      </trkpt>
      <trkpt lat="40.826829" lon="-4.009041">
        <ele>1544.202062</ele>
        <time>2021-09-15T21:45:15.000Z</time>
      </trkpt>
      <trkpt lat="40.826777" lon="-4.009109">
        <ele>1544.123389</ele>
        <time>2021-09-15T21:45:15.000Z</time>
      </trkpt>
      <trkpt lat="40.82674" lon="-4.009174"/>
      <trkpt lat="40.826718" lon="-4.009256">
        <ele>1543.986398</ele>
        <time>2021-09-15T21:45:15.000Z</time>
      </trkpt>
      <trkpt lat="40.826715" lon="-4.009359">
        <ele>1543.902518</ele>
        <time>2021-09-15T21:45:15.000Z</time>
      </trkpt>
      <trkpt lat="40.826762" lon="-4.009595">
        <ele>1544.051842</ele>
        <time>2021-09-15T21:45:15.000Z</time>
      </trkpt>
      <trkpt lat="40.82685" lon="-4.009826"/>
      <trkpt lat="40.82699" lon="-4.010026"/>
      <trkpt lat="40.827061" lon="-4.010121">
        <ele>1546.517714</ele>
        <time>2021-09-15T21:45:15.000Z</time>
      </trkpt>
      <trkpt lat="40.827205" lon="-4.010298">
        <ele>1547.481992</ele>
        <time>2021-09-15T21:45:15.000Z</time>
      </trkpt>
      <trkpt lat="40.827264" lon="-4.01038"/>
      <trkpt lat="40.827381" lon="-4.010604">
        <ele>1548.911697</ele>
        <time>2021-09-15T21:45:15.000Z</time>
      </trkpt>
      <trkpt lat="40.827412" lon="-4.010665">
        <ele>1549.184330</ele>
        <time>2021-09-15T21:45:15.000Z</time>
      </trkpt>
      <trkpt lat="40.827439" lon="-4.010718">
        <ele>1549.421387</ele>
        <time>2021-09-15T21:45:15.000Z</time>
      </trkpt>
      <trkpt lat="40.827503" lon="-4.010808">
        <ele>1549.879627</ele>
        <time>2021-09-15T21:45:15.000Z</time>
      </trkpt>
      <trkpt lat="40.827608" lon="-4.01094"/>
      <trkpt lat="40.827649" lon="-4.010983">
        <ele>1550.846861</ele>
        <time>2021-09-15T21:45:15.000Z</time>
      </trkpt>
      <trkpt lat="40.827689" lon="-4.011026">
        <ele>1551.099688</ele>
        <time>2021-09-15T21:45:15.000Z</time>
      </trkpt>
      <trkpt lat="40.827805" lon="-4.011163">
        <ele>1551.862507</ele>
        <time>2021-09-15T21:45:15.000Z</time>
      </trkpt>
      <trkpt lat="40.827901" lon="-4.011274">
        <ele>1552.487956</ele>
        <time>2021-09-15T21:45:15.000Z</time>
      </trkpt>
      <trkpt lat="40.827999" lon="-4.011382">
        <ele>1552.954354</ele>
        <time>2021-09-15T21:45:15.000Z</time>
      </trkpt>
      <trkpt lat="40.828051" lon="-4.011434">
        <ele>1553.177599</ele>
        <time>2021-09-15T21:45:15.000Z</time>
      </trkpt>
      <trkpt lat="40.8281" lon="-4.011486"/>
      <trkpt lat="40.828264" lon="-4.011713">
        <ele>1554.205782</ele>
        <time>2021-09-15T21:45:15.000Z</time>
      </trkpt>
      <trkpt lat="40.828313" lon="-4.011783">
        <ele>1554.452811</ele>
        <time>2021-09-15T21:45:15.000Z</time>
      </trkpt>
      <trkpt lat="40.828421" lon="-4.011907">
        <ele>1554.942599</ele>
        <time>2021-09-15T21:45:15.000Z</time>
      </trkpt>
      <trkpt lat="40.828528" lon="-4.012003">
        <ele>1555.385356</ele>
        <time>2021-09-15T21:45:15.000Z</time>
      </trkpt>
      <trkpt lat="40.828633" lon="-4.012089">
        <ele>1555.808264</ele>
        <time>2021-09-15T21:45:15.000Z</time>
      </trkpt>
      <trkpt lat="40.828746" lon="-4.012188">
        <ele>1556.272410</ele>
        <time>2021-09-15T21:45:15.000Z</time>
      </trkpt>
      <trkpt lat="40.82886" lon="-4.012297"/>
      <trkpt lat="40.829036" lon="-4.012428">
        <ele>1557.445657</ele>
        <time>2021-09-15T21:45:15.000Z</time>
      </trkpt>
      <trkpt lat="40.829164" lon="-4.012487">
        <ele>1557.909757</ele>
        <time>2021-09-15T21:45:15.000Z</time>
      </trkpt>
      <trkpt lat="40.829511" lon="-4.012629">
        <ele>1558.546054</ele>
        <time>2021-09-15T21:45:15.000Z</time>
      </trkpt>
      <trkpt lat="40.829809" lon="-4.012764">
        <ele>1558.026201</ele>
        <time>2021-09-15T21:45:15.000Z</time>
      </trkpt>
      <trkpt lat="40.829928" lon="-4.012806">
        <ele>1557.822943</ele>
        <time>2021-09-15T21:45:15.000Z</time>
      </trkpt>
      <trkpt lat="40.830017" lon="-4.012834">
        <ele>1557.671970</ele>
        <time>2021-09-15T21:45:15.000Z</time>
      </trkpt>
      <trkpt lat="40.830213" lon="-4.012851">
        <ele>1557.347832</ele>
        <time>2021-09-15T21:45:15.000Z</time>
      </trkpt>
      <trkpt lat="40.830233" lon="-4.012844">
        <ele>1557.313690</ele>
        <time>2021-09-15T21:45:15.000Z</time>
      </trkpt>
      <trkpt lat="40.830325" lon="-4.012836">
        <ele>1557.161542</ele>
        <time>2021-09-15T21:45:15.000Z</time>
      </trkpt>
      <trkpt lat="40.830523" lon="-4.012877">
        <ele>1556.830813</ele>
        <time>2021-09-15T21:45:15.000Z</time>
      </trkpt>
      <trkpt lat="40.830596" lon="-4.012915">
        <ele>1556.701340</ele>
        <time>2021-09-15T21:45:15.000Z</time>
      </trkpt>
      <trkpt lat="40.83064" lon="-4.012936"/>
      <trkpt lat="40.830675" lon="-4.012958">
        <ele>1556.560184</ele>
        <time>2021-09-15T21:45:15.000Z</time>
      </trkpt>
      <trkpt lat="40.830768" lon="-4.013005">
        <ele>1556.395876</ele>
        <time>2021-09-15T21:45:15.000Z</time>
      </trkpt>
      <trkpt lat="40.830909" lon="-4.013081">
        <ele>1556.144589</ele>
        <time>2021-09-15T21:45:15.000Z</time>
      </trkpt>
      <trkpt lat="40.830935" lon="-4.01309"/>
      <trkpt lat="40.831055" lon="-4.013158">
        <ele>1555.884775</ele>
        <time>2021-09-15T21:45:15.000Z</time>
      </trkpt>
      <trkpt lat="40.831077" lon="-4.013169">
        <ele>1555.845959</ele>
        <time>2021-09-15T21:45:15.000Z</time>
      </trkpt>
      <trkpt lat="40.831135" lon="-4.0132"/>
      <trkpt lat="40.831191" lon="-4.013232">
        <ele>1555.609973</ele>
        <time>2021-09-15T21:45:15.000Z</time>
      </trkpt>
      <trkpt lat="40.83121" lon="-4.013241"/>
      <trkpt lat="40.831311" lon="-4.013315">
        <ele>1555.332286</ele>
        <time>2021-09-15T21:45:15.000Z</time>
      </trkpt>
      <trkpt lat="40.831416" lon="-4.013366">
        <ele>1555.103312</ele>
        <time>2021-09-15T21:45:15.000Z</time>
      </trkpt>
      <trkpt lat="40.831447" lon="-4.013381">
        <ele>1555.035740</ele>
        <time>2021-09-15T21:45:15.000Z</time>
      </trkpt>
      <trkpt lat="40.83161" lon="-4.013477"/>
      <trkpt lat="40.831731" lon="-4.013539">
        <ele>1554.404842</ele>
        <time>2021-09-15T21:45:15.000Z</time>
      </trkpt>
      <trkpt lat="40.831799" lon="-4.013559">
        <ele>1554.262251</ele>
        <time>2021-09-15T21:45:15.000Z</time>
      </trkpt>
      <trkpt lat="40.831873" lon="-4.013569">
        <ele>1554.109994</ele>
        <time>2021-09-15T21:45:15.000Z</time>
      </trkpt>
      <trkpt lat="40.831948" lon="-4.013576">
        <ele>1553.956097</ele>
        <time>2021-09-15T21:45:15.000Z</time>
      </trkpt>
      <trkpt lat="40.832134" lon="-4.013565">
        <ele>1553.575001</ele>
        <time>2021-09-15T21:45:15.000Z</time>
      </trkpt>
      <trkpt lat="40.832184" lon="-4.01355"/>
      <trkpt lat="40.832266" lon="-4.013508">
        <ele>1553.290049</ele>
        <time>2021-09-15T21:45:15.000Z</time>
      </trkpt>
      <trkpt lat="40.832431" lon="-4.013451">
        <ele>1552.940971</ele>
        <time>2021-09-15T21:45:15.000Z</time>
      </trkpt>
      <trkpt lat="40.832635" lon="-4.01342"/>
      <trkpt lat="40.832832" lon="-4.013398">
        <ele>1552.115993</ele>
        <time>2021-09-15T21:45:15.000Z</time>
      </trkpt>
      <trkpt lat="40.832994" lon="-4.013336">
        <ele>1551.354742</ele>
        <time>2021-09-15T21:45:15.000Z</time>
      </trkpt>
      <trkpt lat="40.833213" lon="-4.013245">
        <ele>1550.279766</ele>
        <time>2021-09-15T21:45:15.000Z</time>
      </trkpt>
      <trkpt lat="40.833372" lon="-4.01318"/>
      <trkpt lat="40.833417" lon="-4.013155">
        <ele>1549.271855</ele>
        <time>2021-09-15T21:45:15.000Z</time>
      </trkpt>
      <trkpt lat="40.833518" lon="-4.01301"/>
      <trkpt lat="40.833544" lon="-4.012985">
        <ele>1548.423024</ele>
        <time>2021-09-15T21:45:15.000Z</time>
      </trkpt>
      <trkpt lat="40.833671" lon="-4.012876">
        <ele>1547.713948</ele>
        <time>2021-09-15T21:45:15.000Z</time>
      </trkpt>
      <trkpt lat="40.833717" lon="-4.012855">
        <ele>1547.486061</ele>
        <time>2021-09-15T21:45:15.000Z</time>
      </trkpt>
      <trkpt lat="40.833788" lon="-4.012819">
        <ele>1547.129971</ele>
        <time>2021-09-15T21:45:15.000Z</time>
      </trkpt>
      <trkpt lat="40.83398" lon="-4.012736"/>
      <trkpt lat="40.83401" lon="-4.012726"/>
      <trkpt lat="40.834137" lon="-4.012652">
        <ele>1545.389251</ele>
        <time>2021-09-15T21:45:15.000Z</time>
      </trkpt>
      <trkpt lat="40.83424" lon="-4.012612"/>
      <trkpt lat="40.834261" lon="-4.012599">
        <ele>1544.777968</ele>
        <time>2021-09-15T21:45:15.000Z</time>
      </trkpt>
      <trkpt lat="40.834358" lon="-4.01254"/>
      <trkpt lat="40.834387" lon="-4.012512">
        <ele>1544.109796</ele>
        <time>2021-09-15T21:45:15.000Z</time>
      </trkpt>
      <trkpt lat="40.834437" lon="-4.012465">
        <ele>1543.822491</ele>
        <time>2021-09-15T21:45:15.000Z</time>
      </trkpt>
      <trkpt lat="40.834477" lon="-4.012442">
        <ele>1543.561444</ele>
        <time>2021-09-15T21:45:15.000Z</time>
      </trkpt>
      <trkpt lat="40.834551" lon="-4.0124"/>
      <trkpt lat="40.834602" lon="-4.012371">
        <ele>1542.245740</ele>
        <time>2021-09-15T21:45:15.000Z</time>
      </trkpt>
      <trkpt lat="40.834644" lon="-4.012333">
        <ele>1541.753533</ele>
        <time>2021-09-15T21:45:15.000Z</time>
      </trkpt>
      <trkpt lat="40.834721" lon="-4.012269">
        <ele>1540.873908</ele>
        <time>2021-09-15T21:45:15.000Z</time>
      </trkpt>
      <trkpt lat="40.834747" lon="-4.012241">
        <ele>1540.549581</ele>
        <time>2021-09-15T21:45:15.000Z</time>
      </trkpt>
      <trkpt lat="40.834811" lon="-4.012148">
        <ele>1539.629766</ele>
        <time>2021-09-15T21:45:15.000Z</time>
      </trkpt>
      <trkpt lat="40.834846" lon="-4.01209"/>
      <trkpt lat="40.834904" lon="-4.011976">
        <ele>1538.081811</ele>
        <time>2021-09-15T21:45:15.000Z</time>
      </trkpt>
      <trkpt lat="40.834934" lon="-4.011903">
        <ele>1537.473992</ele>
        <time>2021-09-15T21:45:15.000Z</time>
      </trkpt>
      <trkpt lat="40.83497" lon="-4.011848"/>
      <trkpt lat="40.835009" lon="-4.011786">
        <ele>1536.351953</ele>
        <time>2021-09-15T21:45:15.000Z</time>
      </trkpt>
      <trkpt lat="40.835029" lon="-4.011744">
        <ele>1535.988856</ele>
        <time>2021-09-15T21:45:15.000Z</time>
      </trkpt>
      <trkpt lat="40.835052" lon="-4.011718">
        <ele>1535.696181</ele>
        <time>2021-09-15T21:45:15.000Z</time>
      </trkpt>
      <trkpt lat="40.835117" lon="-4.011627">
        <ele>1534.780529</ele>
        <time>2021-09-15T21:45:15.000Z</time>
      </trkpt>
      <trkpt lat="40.835133" lon="-4.011609">
        <ele>1534.577341</ele>
        <time>2021-09-15T21:45:15.000Z</time>
      </trkpt>
      <trkpt lat="40.835215" lon="-4.011557">
        <ele>1533.697816</ele>
        <time>2021-09-15T21:45:15.000Z</time>
      </trkpt>
      <trkpt lat="40.835235" lon="-4.011543">
        <ele>1533.478956</ele>
        <time>2021-09-15T21:45:15.000Z</time>
      </trkpt>
      <trkpt lat="40.835325" lon="-4.011495">
        <ele>1532.540429</ele>
        <time>2021-09-15T21:45:15.000Z</time>
      </trkpt>
      <trkpt lat="40.8354" lon="-4.011447"/>
      <trkpt lat="40.835429" lon="-4.011442">
        <ele>1531.451772</ele>
        <time>2021-09-15T21:45:15.000Z</time>
      </trkpt>
      <trkpt lat="40.835459" lon="-4.011439">
        <ele>1531.160829</ele>
        <time>2021-09-15T21:45:15.000Z</time>
      </trkpt>
      <trkpt lat="40.835531" lon="-4.011422">
        <ele>1530.453533</ele>
        <time>2021-09-15T21:45:15.000Z</time>
      </trkpt>
      <trkpt lat="40.835544" lon="-4.01142"/>
      <trkpt lat="40.835622" lon="-4.011409">
        <ele>1529.568392</ele>
        <time>2021-09-15T21:45:15.000Z</time>
      </trkpt>
      <trkpt lat="40.835638" lon="-4.01141"/>
      <trkpt lat="40.83571" lon="-4.011402"/>
      <trkpt lat="40.835727" lon="-4.0114"/>
      <trkpt lat="40.835767" lon="-4.011389">
        <ele>1528.154613</ele>
        <time>2021-09-15T21:45:15.000Z</time>
      </trkpt>
      <trkpt lat="40.835797" lon="-4.011386">
        <ele>1527.863670</ele>
        <time>2021-09-15T21:45:15.000Z</time>
      </trkpt>
      <trkpt lat="40.835829" lon="-4.01138"/>
      <trkpt lat="40.835883" lon="-4.011377">
        <ele>1527.028452</ele>
        <time>2021-09-15T21:45:15.000Z</time>
      </trkpt>
      <trkpt lat="40.835903" lon="-4.011378">
        <ele>1526.834904</ele>
        <time>2021-09-15T21:45:15.000Z</time>
      </trkpt>
      <trkpt lat="40.83594" lon="-4.011368"/>
      <trkpt lat="40.835965" lon="-4.011351">
        <ele>1526.196233</ele>
        <time>2021-09-15T21:45:15.000Z</time>
      </trkpt>
      <trkpt lat="40.835997" lon="-4.01134"/>
      <trkpt lat="40.836069" lon="-4.011304">
        <ele>1525.111047</ele>
        <time>2021-09-15T21:45:15.000Z</time>
      </trkpt>
      <trkpt lat="40.836134" lon="-4.011267">
        <ele>1524.413140</ele>
        <time>2021-09-15T21:45:15.000Z</time>
      </trkpt>
      <trkpt lat="40.836192" lon="-4.011261">
        <ele>1523.839431</ele>
        <time>2021-09-15T21:45:15.000Z</time>
      </trkpt>
      <trkpt lat="40.836244" lon="-4.011241">
        <ele>1523.305370</ele>
        <time>2021-09-15T21:45:15.000Z</time>
      </trkpt>
      <trkpt lat="40.836292" lon="-4.011223">
        <ele>1522.813342</ele>
        <time>2021-09-15T21:45:15.000Z</time>
      </trkpt>
      <trkpt lat="40.836356" lon="-4.011225">
        <ele>1522.182038</ele>
        <time>2021-09-15T21:45:15.000Z</time>
      </trkpt>
      <trkpt lat="40.836431" lon="-4.011205">
        <ele>1521.427532</ele>
        <time>2021-09-15T21:45:15.000Z</time>
      </trkpt>
      <trkpt lat="40.836516" lon="-4.011209">
        <ele>1520.588785</ele>
        <time>2021-09-15T21:45:15.000Z</time>
      </trkpt>
      <trkpt lat="40.836543" lon="-4.011219">
        <ele>1520.312272</ele>
        <time>2021-09-15T21:45:15.000Z</time>
      </trkpt>
      <trkpt lat="40.836587" lon="-4.011236">
        <ele>1519.860213</ele>
        <time>2021-09-15T21:45:15.000Z</time>
      </trkpt>
      <trkpt lat="40.836695" lon="-4.011273">
        <ele>1518.759991</ele>
        <time>2021-09-15T21:45:15.000Z</time>
      </trkpt>
      <trkpt lat="40.836722" lon="-4.01129"/>
      <trkpt lat="40.83681" lon="-4.011338"/>
      <trkpt lat="40.836932" lon="-4.011408">
        <ele>1516.214721</ele>
        <time>2021-09-15T21:45:15.000Z</time>
      </trkpt>
      <trkpt lat="40.837072" lon="-4.011507">
        <ele>1514.648962</ele>
        <time>2021-09-15T21:45:15.000Z</time>
      </trkpt>
      <trkpt lat="40.837095" lon="-4.011533">
        <ele>1514.350512</ele>
        <time>2021-09-15T21:45:15.000Z</time>
      </trkpt>
      <trkpt lat="40.837158" lon="-4.011594">
        <ele>1513.580384</ele>
        <time>2021-09-15T21:45:15.000Z</time>
      </trkpt>
      <trkpt lat="40.83723" lon="-4.011643"/>
      <trkpt lat="40.837379" lon="-4.011752">
        <ele>1511.102396</ele>
        <time>2021-09-15T21:45:15.000Z</time>
      </trkpt>
      <trkpt lat="40.83754" lon="-4.011847"/>
      <trkpt lat="40.837766" lon="-4.011897">
        <ele>1507.727371</ele>
        <time>2021-09-15T21:45:15.000Z</time>
      </trkpt>
      <trkpt lat="40.837907" lon="-4.011842">
        <ele>1506.906629</ele>
        <time>2021-09-15T21:45:15.000Z</time>
      </trkpt>
      <trkpt lat="40.837939" lon="-4.011835">
        <ele>1506.725548</ele>
        <time>2021-09-15T21:45:15.000Z</time>
      </trkpt>
      <trkpt lat="40.838029" lon="-4.011806">
        <ele>1506.208378</ele>
        <time>2021-09-15T21:45:15.000Z</time>
      </trkpt>
      <trkpt lat="40.838051" lon="-4.0118"/>
      <trkpt lat="40.838094" lon="-4.011771">
        <ele>1505.813463</ele>
        <time>2021-09-15T21:45:15.000Z</time>
      </trkpt>
      <trkpt lat="40.838156" lon="-4.011726">
        <ele>1505.418576</ele>
        <time>2021-09-15T21:45:15.000Z</time>
      </trkpt>
      <trkpt lat="40.838205" lon="-4.011715">
        <ele>1505.141100</ele>
        <time>2021-09-15T21:45:15.000Z</time>
      </trkpt>
      <trkpt lat="40.838287" lon="-4.011679">
        <ele>1504.658715</ele>
        <time>2021-09-15T21:45:15.000Z</time>
      </trkpt>
      <trkpt lat="40.838377" lon="-4.011646">
        <ele>1504.137286</ele>
        <time>2021-09-15T21:45:15.000Z</time>
      </trkpt>
      <trkpt lat="40.838474" lon="-4.011638">
        <ele>1503.594698</ele>
        <time>2021-09-15T21:45:15.000Z</time>
      </trkpt>
      <trkpt lat="40.838542" lon="-4.01166"/>
      <trkpt lat="40.838716" lon="-4.011832">
        <ele>1501.990840</ele>
        <time>2021-09-15T21:45:15.000Z</time>
      </trkpt>
      <trkpt lat="40.838831" lon="-4.01196"/>
      <trkpt lat="40.838868" lon="-4.012002">
        <ele>1500.879222</ele>
        <time>2021-09-15T21:45:15.000Z</time>
      </trkpt>
      <trkpt lat="40.838905" lon="-4.012034">
        <ele>1500.632368</ele>
        <time>2021-09-15T21:45:15.000Z</time>
      </trkpt>
      <trkpt lat="40.839007" lon="-4.01213"/>
      <trkpt lat="40.839097" lon="-4.012183">
        <ele>1499.383244</ele>
        <time>2021-09-15T21:45:15.000Z</time>
      </trkpt>
      <trkpt lat="40.839148" lon="-4.012206">
        <ele>1499.082403</ele>
        <time>2021-09-15T21:45:15.000Z</time>
      </trkpt>
      <trkpt lat="40.839289" lon="-4.012256">
        <ele>1498.466957</ele>
        <time>2021-09-15T21:45:15.000Z</time>
      </trkpt>
      <trkpt lat="40.839362" lon="-4.01224"/>
      <trkpt lat="40.839536" lon="-4.012255">
        <ele>1498.273959</ele>
        <time>2021-09-15T21:45:15.000Z</time>
      </trkpt>
      <trkpt lat="40.839578" lon="-4.012257">
        <ele>1498.241300</ele>
        <time>2021-09-15T21:45:15.000Z</time>
      </trkpt>
      <trkpt lat="40.839807" lon="-4.012259">
        <ele>1498.063347</ele>
        <time>2021-09-15T21:45:15.000Z</time>
      </trkpt>
      <trkpt lat="40.840034" lon="-4.012259">
        <ele>1497.886952</ele>
        <time>2021-09-15T21:45:15.000Z</time>
      </trkpt>
      <trkpt lat="40.840122" lon="-4.012257">
        <ele>1497.818559</ele>
        <time>2021-09-15T21:45:15.000Z</time>
      </trkpt>
      <trkpt lat="40.840172" lon="-4.012256">
        <ele>1497.779701</ele>
        <time>2021-09-15T21:45:15.000Z</time>
      </trkpt>
      <trkpt lat="40.840274" lon="-4.012233">
        <ele>1497.699295</ele>
        <time>2021-09-15T21:45:15.000Z</time>
      </trkpt>
      <trkpt lat="40.84051" lon="-4.01219"/>
      <trkpt lat="40.840562" lon="-4.012183">
        <ele>1497.473555</ele>
        <time>2021-09-15T21:45:15.000Z</time>
      </trkpt>
      <trkpt lat="40.840656" lon="-4.012146">
        <ele>1497.397340</ele>
        <time>2021-09-15T21:45:15.000Z</time>
      </trkpt>
      <trkpt lat="40.840692" lon="-4.012113">
        <ele>1497.363297</ele>
        <time>2021-09-15T21:45:15.000Z</time>
      </trkpt>
      <trkpt lat="40.840725" lon="-4.012068">
        <ele>1497.326454</ele>
        <time>2021-09-15T21:45:15.000Z</time>
      </trkpt>
      <trkpt lat="40.840753" lon="-4.012007">
        <ele>1497.284509</ele>
        <time>2021-09-15T21:45:15.000Z</time>
      </trkpt>
      <trkpt lat="40.840801" lon="-4.011842">
        <ele>1497.180585</ele>
        <time>2021-09-15T21:45:15.000Z</time>
      </trkpt>
      <trkpt lat="40.840886" lon="-4.011697">
        <ele>1497.443528</ele>
        <time>2021-09-15T21:45:15.000Z</time>
      </trkpt>
      <trkpt lat="40.84095" lon="-4.011649"/>
      <trkpt lat="40.841019" lon="-4.011625">
        <ele>1498.780627</ele>
        <time>2021-09-15T21:45:15.000Z</time>
      </trkpt>
      <trkpt lat="40.841108" lon="-4.011621">
        <ele>1499.602182</ele>
        <time>2021-09-15T21:45:15.000Z</time>
      </trkpt>
      <trkpt lat="40.841323" lon="-4.011638">
        <ele>1501.589236</ele>
        <time>2021-09-15T21:45:15.000Z</time>
      </trkpt>
      <trkpt lat="40.841437" lon="-4.01165"/>
      <trkpt lat="40.841548" lon="-4.01165"/>
      <trkpt lat="40.841664" lon="-4.011662">
        <ele>1504.741775</ele>
        <time>2021-09-15T21:45:15.000Z</time>
      </trkpt>
      <trkpt lat="40.841768" lon="-4.011668">
        <ele>1505.702153</ele>
        <time>2021-09-15T21:45:15.000Z</time>
      </trkpt>
      <trkpt lat="40.841869" lon="-4.011663">
        <ele>1506.634594</ele>
        <time>2021-09-15T21:45:15.000Z</time>
      </trkpt>
      <trkpt lat="40.841968" lon="-4.011655">
        <ele>1507.549635</ele>
        <time>2021-09-15T21:45:15.000Z</time>
      </trkpt>
      <trkpt lat="40.842052" lon="-4.011634">
        <ele>1508.338326</ele>
        <time>2021-09-15T21:45:15.000Z</time>
      </trkpt>
      <trkpt lat="40.842123" lon="-4.011599">
        <ele>1509.037411</ele>
        <time>2021-09-15T21:45:15.000Z</time>
      </trkpt>
      <trkpt lat="40.842188" lon="-4.011561">
        <ele>1509.693107</ele>
        <time>2021-09-15T21:45:15.000Z</time>
      </trkpt>
      <trkpt lat="40.84224" lon="-4.011516"/>
      <trkpt lat="40.84229" lon="-4.011465"/>
      <trkpt lat="40.842347" lon="-4.011394">
        <ele>1511.571699</ele>
        <time>2021-09-15T21:45:15.000Z</time>
      </trkpt>
      <trkpt lat="40.842451" lon="-4.011205">
        <ele>1513.202821</ele>
        <time>2021-09-15T21:45:15.000Z</time>
      </trkpt>
      <trkpt lat="40.842548" lon="-4.010933">
        <ele>1515.859977</ele>
        <time>2021-09-15T21:45:15.000Z</time>
      </trkpt>
      <trkpt lat="40.842597" lon="-4.010772">
        <ele>1517.492219</ele>
        <time>2021-09-15T21:45:15.000Z</time>
      </trkpt>
      <trkpt lat="40.84265" lon="-4.010608"/>
      <trkpt lat="40.8427" lon="-4.010445"/>
      <trkpt lat="40.842794" lon="-4.010122">
        <ele>1524.078932</ele>
        <time>2021-09-15T21:45:15.000Z</time>
      </trkpt>
      <trkpt lat="40.842865" lon="-4.009797">
        <ele>1527.260624</ele>
        <time>2021-09-15T21:45:15.000Z</time>
      </trkpt>
      <trkpt lat="40.843037" lon="-4.009048">
        <ele>1534.622745</ele>
        <time>2021-09-15T21:45:15.000Z</time>
      </trkpt>
      <trkpt lat="40.843206" lon="-4.00857"/>
      <trkpt lat="40.843268" lon="-4.008381">
        <ele>1539.558176</ele>
        <time>2021-09-15T21:45:15.000Z</time>
      </trkpt>
      <trkpt lat="40.843287" lon="-4.008283">
        <ele>1540.167653</ele>
        <time>2021-09-15T21:45:15.000Z</time>
      </trkpt>
      <trkpt lat="40.843309" lon="-4.008081">
        <ele>1541.397139</ele>
        <time>2021-09-15T21:45:15.000Z</time>
      </trkpt>
      <trkpt lat="40.843318" lon="-4.007866">
        <ele>1542.694378</ele>
        <time>2021-09-15T21:45:15.000Z</time>
      </trkpt>
      <trkpt lat="40.843318" lon="-4.007745">
        <ele>1543.423336</ele>
        <time>2021-09-15T21:45:15.000Z</time>
      </trkpt>
      <trkpt lat="40.843317" lon="-4.007621">
        <ele>1544.170410</ele>
        <time>2021-09-15T21:45:15.000Z</time>
      </trkpt>
      <trkpt lat="40.84332" lon="-4.007197"/>
      <trkpt lat="40.843309" lon="-4.006884">
        <ele>1548.612576</ele>
        <time>2021-09-15T21:45:15.000Z</time>
      </trkpt>
      <trkpt lat="40.843301" lon="-4.006721">
        <ele>1549.596626</ele>
        <time>2021-09-15T21:45:15.000Z</time>
      </trkpt>
      <trkpt lat="40.843291" lon="-4.00657"/>
      <trkpt lat="40.843269" lon="-4.006419">
        <ele>1551.604204</ele>
        <time>2021-09-15T21:45:15.000Z</time>
      </trkpt>
      <trkpt lat="40.843228" lon="-4.006279">
        <ele>1552.652608</ele>
        <time>2021-09-15T21:45:15.000Z</time>
      </trkpt>
      <trkpt lat="40.843188" lon="-4.006151">
        <ele>1553.619770</ele>
        <time>2021-09-15T21:45:15.000Z</time>
      </trkpt>
      <trkpt lat="40.843149" lon="-4.006028">
        <ele>1554.551148</ele>
        <time>2021-09-15T21:45:15.000Z</time>
      </trkpt>
      <trkpt lat="40.843106" lon="-4.005908">
        <ele>1555.478436</ele>
        <time>2021-09-15T21:45:15.000Z</time>
      </trkpt>
      <trkpt lat="40.843065" lon="-4.005785">
        <ele>1556.417106</ele>
        <time>2021-09-15T21:45:15.000Z</time>
      </trkpt>
      <trkpt lat="40.843026" lon="-4.005672">
        <ele>1557.284498</ele>
        <time>2021-09-15T21:45:15.000Z</time>
      </trkpt>
      <trkpt lat="40.842976" lon="-4.005571">
        <ele>1558.127443</ele>
        <time>2021-09-15T21:45:15.000Z</time>
      </trkpt>
      <trkpt lat="40.842915" lon="-4.005481">
        <ele>1558.971328</ele>
        <time>2021-09-15T21:45:15.000Z</time>
      </trkpt>
      <trkpt lat="40.842851" lon="-4.005404">
        <ele>1559.770213</ele>
        <time>2021-09-15T21:45:15.000Z</time>
      </trkpt>
      <trkpt lat="40.842789" lon="-4.005337">
        <ele>1560.509479</ele>
        <time>2021-09-15T21:45:15.000Z</time>
      </trkpt>
      <trkpt lat="40.842706" lon="-4.005206">
        <ele>1561.702806</ele>
        <time>2021-09-15T21:45:15.000Z</time>
      </trkpt>
      <trkpt lat="40.842674" lon="-4.00507"/>
      <trkpt lat="40.842693" lon="-4.004983">
        <ele>1563.329845</ele>
        <time>2021-09-15T21:45:15.000Z</time>
      </trkpt>
      <trkpt lat="40.842769" lon="-4.004781">
        <ele>1564.905369</ele>
        <time>2021-09-15T21:45:15.000Z</time>
      </trkpt>
      <trkpt lat="40.842826" lon="-4.004662">
        <ele>1565.888995</ele>
        <time>2021-09-15T21:45:15.000Z</time>
      </trkpt>
      <trkpt lat="40.842928" lon="-4.004425">
        <ele>1567.438252</ele>
        <time>2021-09-15T21:45:15.000Z</time>
      </trkpt>
      <trkpt lat="40.843" lon="-4.004166"/>
      <trkpt lat="40.843019" lon="-4.003744">
        <ele>1570.174709</ele>
        <time>2021-09-15T21:45:15.000Z</time>
      </trkpt>
      <trkpt lat="40.843042" lon="-4.003265">
        <ele>1572.054540</ele>
        <time>2021-09-15T21:45:15.000Z</time>
      </trkpt>
      <trkpt lat="40.843058" lon="-4.003182">
        <ele>1572.390006</ele>
        <time>2021-09-15T21:45:15.000Z</time>
      </trkpt>
      <trkpt lat="40.843087" lon="-4.003017">
        <ele>1573.053458</ele>
        <time>2021-09-15T21:45:15.000Z</time>
      </trkpt>
      <trkpt lat="40.843116" lon="-4.002865">
        <ele>1573.667422</ele>
        <time>2021-09-15T21:45:15.000Z</time>
      </trkpt>
      <trkpt lat="40.843241" lon="-4.00271"/>
      <trkpt lat="40.843307" lon="-4.002701">
        <ele>1574.898260</ele>
        <time>2021-09-15T21:45:15.000Z</time>
      </trkpt>
      <trkpt lat="40.843541" lon="-4.002743">
        <ele>1576.120852</ele>
        <time>2021-09-15T21:45:15.000Z</time>
      </trkpt>
      <trkpt lat="40.843592" lon="-4.00275"/>
      <trkpt lat="40.843778" lon="-4.002782">
        <ele>1575.702646</ele>
        <time>2021-09-15T21:45:15.000Z</time>
      </trkpt>
      <trkpt lat="40.843823" lon="-4.002789">
        <ele>1575.571168</ele>
        <time>2021-09-15T21:45:15.000Z</time>
      </trkpt>
      <trkpt lat="40.844033" lon="-4.002785">
        <ele>1574.961742</ele>
        <time>2021-09-15T21:45:15.000Z</time>
      </trkpt>
      <trkpt lat="40.844119" lon="-4.002735">
        <ele>1574.689124</ele>
        <time>2021-09-15T21:45:15.000Z</time>
      </trkpt>
      <trkpt lat="40.844184" lon="-4.002712">
        <ele>1574.493871</ele>
        <time>2021-09-15T21:45:15.000Z</time>
      </trkpt>
      <trkpt lat="40.844293" lon="-4.002663">
        <ele>1574.159794</ele>
        <time>2021-09-15T21:45:15.000Z</time>
      </trkpt>
      <trkpt lat="40.844318" lon="-4.002656">
        <ele>1574.085641</ele>
        <time>2021-09-15T21:45:15.000Z</time>
      </trkpt>
      <trkpt lat="40.844342" lon="-4.002651">
        <ele>1574.015140</ele>
        <time>2021-09-15T21:45:15.000Z</time>
      </trkpt>
      <trkpt lat="40.844439" lon="-4.002677">
        <ele>1573.727945</ele>
        <time>2021-09-15T21:45:15.000Z</time>
      </trkpt>
      <trkpt lat="40.844569" lon="-4.002756">
        <ele>1573.312769</ele>
        <time>2021-09-15T21:45:15.000Z</time>
      </trkpt>
      <trkpt lat="40.844594" lon="-4.002775">
        <ele>1573.229091</ele>
        <time>2021-09-15T21:45:15.000Z</time>
      </trkpt>
      <trkpt lat="40.844747" lon="-4.0029"/>
      <trkpt lat="40.844865" lon="-4.002984">
        <ele>1572.318283</ele>
        <time>2021-09-15T21:45:15.000Z</time>
      </trkpt>
      <trkpt lat="40.844943" lon="-4.003035">
        <ele>1572.065775</ele>
        <time>2021-09-15T21:45:15.000Z</time>
      </trkpt>
      <trkpt lat="40.845028" lon="-4.003084">
        <ele>1571.796696</ele>
        <time>2021-09-15T21:45:15.000Z</time>
      </trkpt>
      <trkpt lat="40.845107" lon="-4.003137">
        <ele>1571.539627</ele>
        <time>2021-09-15T21:45:15.000Z</time>
      </trkpt>
      <trkpt lat="40.845234" lon="-4.003195">
        <ele>1571.149735</ele>
        <time>2021-09-15T21:45:15.000Z</time>
      </trkpt>
      <trkpt lat="40.84533" lon="-4.003216"/>
      <trkpt lat="40.845421" lon="-4.00327"/>
      <trkpt lat="40.84551" lon="-4.003321"/>
      <trkpt lat="40.845598" lon="-4.003355">
        <ele>1568.825920</ele>
        <time>2021-09-15T21:45:15.000Z</time>
      </trkpt>
      <trkpt lat="40.845627" lon="-4.003362">
        <ele>1568.642004</ele>
        <time>2021-09-15T21:45:15.000Z</time>
      </trkpt>
      <trkpt lat="40.845712" lon="-4.003386">
        <ele>1568.099749</ele>
        <time>2021-09-15T21:45:15.000Z</time>
      </trkpt>
      <trkpt lat="40.84574" lon="-4.003396"/>
      <trkpt lat="40.845803" lon="-4.003418">
        <ele>1567.512276</ele>
        <time>2021-09-15T21:45:15.000Z</time>
      </trkpt>
      <trkpt lat="40.845945" lon="-4.003451">
        <ele>1566.612787</ele>
        <time>2021-09-15T21:45:15.000Z</time>
      </trkpt>
      <trkpt lat="40.845979" lon="-4.003456">
        <ele>1566.399361</ele>
        <time>2021-09-15T21:45:15.000Z</time>
      </trkpt>
      <trkpt lat="40.846119" lon="-4.00347"/>
      <trkpt lat="40.846286" lon="-4.003474">
        <ele>1564.481396</ele>
        <time>2021-09-15T21:45:15.000Z</time>
      </trkpt>
      <trkpt lat="40.846326" lon="-4.003465">
        <ele>1564.228257</ele>
        <time>2021-09-15T21:45:15.000Z</time>
      </trkpt>
      <trkpt lat="40.846373" lon="-4.003448">
        <ele>1563.924258</ele>
        <time>2021-09-15T21:45:15.000Z</time>
      </trkpt>
      <trkpt lat="40.846518" lon="-4.003353">
        <ele>1562.914630</ele>
        <time>2021-09-15T21:45:15.000Z</time>
      </trkpt>
      <trkpt lat="40.846649" lon="-4.00326"/>
      <trkpt lat="40.846775" lon="-4.003194">
        <ele>1561.141411</ele>
        <time>2021-09-15T21:45:15.000Z</time>
      </trkpt>
      <trkpt lat="40.846877" lon="-4.003151">
        <ele>1560.473484</ele>
        <time>2021-09-15T21:45:15.000Z</time>
      </trkpt>
      <trkpt lat="40.846954" lon="-4.003158">
        <ele>1559.991965</ele>
        <time>2021-09-15T21:45:15.000Z</time>
      </trkpt>
      <trkpt lat="40.847103" lon="-4.003223">
        <ele>1559.472669</ele>
        <time>2021-09-15T21:45:15.000Z</time>
      </trkpt>
      <trkpt lat="40.847136" lon="-4.003246">
        <ele>1559.366748</ele>
        <time>2021-09-15T21:45:15.000Z</time>
      </trkpt>
      <trkpt lat="40.847346" lon="-4.003406">
        <ele>1558.678559</ele>
        <time>2021-09-15T21:45:15.000Z</time>
      </trkpt>
      <trkpt lat="40.84751" lon="-4.003551"/>
      <trkpt lat="40.847601" lon="-4.003649">
        <ele>1557.785116</ele>
        <time>2021-09-15T21:45:15.000Z</time>
      </trkpt>
      <trkpt lat="40.847847" lon="-4.003934">
        <ele>1556.856389</ele>
        <time>2021-09-15T21:45:15.000Z</time>
      </trkpt>
      <trkpt lat="40.847903" lon="-4.003997">
        <ele>1556.647608</ele>
        <time>2021-09-15T21:45:15.000Z</time>
      </trkpt>
      <trkpt lat="40.848116" lon="-4.004244">
        <ele>1555.843140</ele>
        <time>2021-09-15T21:45:15.000Z</time>
      </trkpt>
      <trkpt lat="40.848204" lon="-4.004363">
        <ele>1555.485718</ele>
        <time>2021-09-15T21:45:15.000Z</time>
      </trkpt>
      <trkpt lat="40.848347" lon="-4.004495">
        <ele>1554.990517</ele>
        <time>2021-09-15T21:45:15.000Z</time>
      </trkpt>
      <trkpt lat="40.84839" lon="-4.004528"/>
      <trkpt lat="40.848493" lon="-4.004636">
        <ele>1554.526306</ele>
        <time>2021-09-15T21:45:15.000Z</time>
      </trkpt>
      <trkpt lat="40.848646" lon="-4.004794">
        <ele>1554.076262</ele>
        <time>2021-09-15T21:45:15.000Z</time>
      </trkpt>
      <trkpt lat="40.848777" lon="-4.004915">
        <ele>1553.705820</ele>
        <time>2021-09-15T21:45:15.000Z</time>
      </trkpt>
      <trkpt lat="40.848811" lon="-4.004941">
        <ele>1553.614771</ele>
        <time>2021-09-15T21:45:15.000Z</time>
      </trkpt>
      <trkpt lat="40.848929" lon="-4.005001">
        <ele>1553.321706</ele>
        <time>2021-09-15T21:45:15.000Z</time>
      </trkpt>
      <trkpt lat="40.849059" lon="-4.005041">
        <ele>1553.012305</ele>
        <time>2021-09-15T21:45:15.000Z</time>
      </trkpt>
      <trkpt lat="40.849142" lon="-4.005065">
        <ele>1552.815359</ele>
        <time>2021-09-15T21:45:15.000Z</time>
      </trkpt>
      <trkpt lat="40.849265" lon="-4.005102">
        <ele>1552.522951</ele>
        <time>2021-09-15T21:45:15.000Z</time>
      </trkpt>
      <trkpt lat="40.84942" lon="-4.005124"/>
      <trkpt lat="40.849462" lon="-4.005129">
        <ele>1552.063837</ele>
        <time>2021-09-15T21:45:15.000Z</time>
      </trkpt>
      <trkpt lat="40.849588" lon="-4.005132">
        <ele>1551.771716</ele>
        <time>2021-09-15T21:45:15.000Z</time>
      </trkpt>
      <trkpt lat="40.849628" lon="-4.005125">
        <ele>1551.678186</ele>
        <time>2021-09-15T21:45:15.000Z</time>
      </trkpt>
      <trkpt lat="40.849832" lon="-4.005045">
        <ele>1551.184938</ele>
        <time>2021-09-15T21:45:15.000Z</time>
      </trkpt>
      <trkpt lat="40.849877" lon="-4.005035">
        <ele>1551.079162</ele>
        <time>2021-09-15T21:45:15.000Z</time>
      </trkpt>
      <trkpt lat="40.849974" lon="-4.005005">
        <ele>1550.848241</ele>
        <time>2021-09-15T21:45:15.000Z</time>
      </trkpt>
      <trkpt lat="40.850159" lon="-4.004992">
        <ele>1550.482255</ele>
        <time>2021-09-15T21:45:15.000Z</time>
      </trkpt>
      <trkpt lat="40.850596" lon="-4.005006">
        <ele>1549.867016</ele>
        <time>2021-09-15T21:45:15.000Z</time>
      </trkpt>
      <trkpt lat="40.850957" lon="-4.004941">
        <ele>1549.354233</ele>
        <time>2021-09-15T21:45:15.000Z</time>
      </trkpt>
      <trkpt lat="40.851321" lon="-4.004853">
        <ele>1548.833424</ele>
        <time>2021-09-15T21:45:15.000Z</time>
      </trkpt>
      <trkpt lat="40.851431" lon="-4.004827">
        <ele>1548.676148</ele>
        <time>2021-09-15T21:45:15.000Z</time>
      </trkpt>
      <trkpt lat="40.851483" lon="-4.004817">
        <ele>1548.602191</ele>
        <time>2021-09-15T21:45:15.000Z</time>
      </trkpt>
      <trkpt lat="40.851537" lon="-4.004812">
        <ele>1548.526002</ele>
        <time>2021-09-15T21:45:15.000Z</time>
      </trkpt>
      <trkpt lat="40.851651" lon="-4.004785">
        <ele>1548.362997</ele>
        <time>2021-09-15T21:45:15.000Z</time>
      </trkpt>
      <trkpt lat="40.85183" lon="-4.004711"/>
      <trkpt lat="40.851891" lon="-4.004677">
        <ele>1548.024655</ele>
        <time>2021-09-15T21:45:15.000Z</time>
      </trkpt>
      <trkpt lat="40.852154" lon="-4.004392">
        <ele>1547.755399</ele>
        <time>2021-09-15T21:45:15.000Z</time>
      </trkpt>
      <trkpt lat="40.852247" lon="-4.004286">
        <ele>1547.658175</ele>
        <time>2021-09-15T21:45:15.000Z</time>
      </trkpt>
      <trkpt lat="40.852389" lon="-4.004166">
        <ele>1547.524734</ele>
        <time>2021-09-15T21:45:15.000Z</time>
      </trkpt>
      <trkpt lat="40.852533" lon="-4.004035">
        <ele>1547.386331</ele>
        <time>2021-09-15T21:45:15.000Z</time>
      </trkpt>
      <trkpt lat="40.852627" lon="-4.003944">
        <ele>1547.294082</ele>
        <time>2021-09-15T21:45:15.000Z</time>
      </trkpt>
      <trkpt lat="40.852716" lon="-4.003844">
        <ele>1547.201601</ele>
        <time>2021-09-15T21:45:15.000Z</time>
      </trkpt>
      <trkpt lat="40.852868" lon="-4.003614">
        <ele>1547.018683</ele>
        <time>2021-09-15T21:45:15.000Z</time>
      </trkpt>
      <trkpt lat="40.852973" lon="-4.003423">
        <ele>1546.877272</ele>
        <time>2021-09-15T21:45:15.000Z</time>
      </trkpt>
      <trkpt lat="40.853071" lon="-4.003257">
        <ele>1546.751158</ele>
        <time>2021-09-15T21:45:15.000Z</time>
      </trkpt>
      <trkpt lat="40.853161" lon="-4.003088">
        <ele>1546.627374</ele>
        <time>2021-09-15T21:45:15.000Z</time>
      </trkpt>
      <trkpt lat="40.853238" lon="-4.002899">
        <ele>1546.153004</ele>
        <time>2021-09-15T21:45:15.000Z</time>
      </trkpt>
      <trkpt lat="40.853312" lon="-4.00272"/>
      <trkpt lat="40.853354" lon="-4.002623">
        <ele>1545.444384</ele>
        <time>2021-09-15T21:45:15.000Z</time>
      </trkpt>
      <trkpt lat="40.853413" lon="-4.002475">
        <ele>1545.068941</ele>
        <time>2021-09-15T21:45:15.000Z</time>
      </trkpt>
      <trkpt lat="40.853436" lon="-4.002428">
        <ele>1544.943315</ele>
        <time>2021-09-15T21:45:15.000Z</time>
      </trkpt>
      <trkpt lat="40.853477" lon="-4.002323">
        <ele>1544.678131</ele>
        <time>2021-09-15T21:45:15.000Z</time>
      </trkpt>
      <trkpt lat="40.853569" lon="-4.002049">
        <ele>1544.005368</ele>
        <time>2021-09-15T21:45:15.000Z</time>
      </trkpt>
      <trkpt lat="40.853607" lon="-4.001936">
        <ele>1543.727845</ele>
        <time>2021-09-15T21:45:15.000Z</time>
      </trkpt>
      <trkpt lat="40.853667" lon="-4.001774">
        <ele>1543.323046</ele>
        <time>2021-09-15T21:45:15.000Z</time>
      </trkpt>
      <trkpt lat="40.853686" lon="-4.001718">
        <ele>1543.185309</ele>
        <time>2021-09-15T21:45:15.000Z</time>
      </trkpt>
      <trkpt lat="40.853719" lon="-4.0016"/>
      <trkpt lat="40.853738" lon="-4.00137"/>
      <trkpt lat="40.853745" lon="-4.001241">
        <ele>1542.093513</ele>
        <time>2021-09-15T21:45:15.000Z</time>
      </trkpt>
      <trkpt lat="40.853755" lon="-4.001049">
        <ele>1541.661615</ele>
        <time>2021-09-15T21:45:15.000Z</time>
      </trkpt>
      <trkpt lat="40.853831" lon="-4.000904">
        <ele>1541.249735</ele>
        <time>2021-09-15T21:45:15.000Z</time>
      </trkpt>
      <trkpt lat="40.853921" lon="-4.000857">
        <ele>1540.758278</ele>
        <time>2021-09-15T21:45:15.000Z</time>
      </trkpt>
      <trkpt lat="40.854016" lon="-4.000824">
        <ele>1540.259418</ele>
        <time>2021-09-15T21:45:15.000Z</time>
      </trkpt>
      <trkpt lat="40.854059" lon="-4.000795">
        <ele>1540.014258</ele>
        <time>2021-09-15T21:45:15.000Z</time>
      </trkpt>
      <trkpt lat="40.854096" lon="-4.000756">
        <ele>1539.773930</ele>
        <time>2021-09-15T21:45:15.000Z</time>
      </trkpt>
      <trkpt lat="40.854129" lon="-4.00071"/>
      <trkpt lat="40.854154" lon="-4.000661">
        <ele>1539.303331</ele>
        <time>2021-09-15T21:45:15.000Z</time>
      </trkpt>
      <trkpt lat="40.854219" lon="-4.000507">
        <ele>1538.625869</ele>
        <time>2021-09-15T21:45:15.000Z</time>
      </trkpt>
      <trkpt lat="40.854295" lon="-4.000326">
        <ele>1537.830611</ele>
        <time>2021-09-15T21:45:15.000Z</time>
      </trkpt>
      <trkpt lat="40.854397" lon="-4.000096">
        <ele>1536.806405</ele>
        <time>2021-09-15T21:45:15.000Z</time>
      </trkpt>
      <trkpt lat="40.85448" lon="-3.999916"/>
      <trkpt lat="40.854507" lon="-3.999854">
        <ele>1535.721756</ele>
        <time>2021-09-15T21:45:15.000Z</time>
      </trkpt>
      <trkpt lat="40.854559" lon="-3.999734">
        <ele>1535.190489</ele>
        <time>2021-09-15T21:45:15.000Z</time>
      </trkpt>
      <trkpt lat="40.854634" lon="-3.999561">
        <ele>1534.424496</ele>
        <time>2021-09-15T21:45:15.000Z</time>
      </trkpt>
      <trkpt lat="40.854702" lon="-3.999393">
        <ele>1533.692537</ele>
        <time>2021-09-15T21:45:15.000Z</time>
      </trkpt>
      <trkpt lat="40.854771" lon="-3.99921"/>
      <trkpt lat="40.854836" lon="-3.999035">
        <ele>1532.158116</ele>
        <time>2021-09-15T21:45:15.000Z</time>
      </trkpt>
      <trkpt lat="40.854856" lon="-3.998976">
        <ele>1531.773491</ele>
        <time>2021-09-15T21:45:15.000Z</time>
      </trkpt>
      <trkpt lat="40.854914" lon="-3.99876"/>
      <trkpt lat="40.854933" lon="-3.998655">
        <ele>1529.753532</ele>
        <time>2021-09-15T21:45:15.000Z</time>
      </trkpt>
      <trkpt lat="40.854942" lon="-3.998601">
        <ele>1529.422262</ele>
        <time>2021-09-15T21:45:15.000Z</time>
      </trkpt>
      <trkpt lat="40.854968" lon="-3.99842"/>
      <trkpt lat="40.854977" lon="-3.998312">
        <ele>1527.667593</ele>
        <time>2021-09-15T21:45:15.000Z</time>
      </trkpt>
      <trkpt lat="40.854984" lon="-3.998162">
        <ele>1526.767249</ele>
        <time>2021-09-15T21:45:15.000Z</time>
      </trkpt>
      <trkpt lat="40.854988" lon="-3.998023">
        <ele>1525.933911</ele>
        <time>2021-09-15T21:45:15.000Z</time>
      </trkpt>
      <trkpt lat="40.854993" lon="-3.997977">
        <ele>1525.655498</ele>
        <time>2021-09-15T21:45:15.000Z</time>
      </trkpt>
      <trkpt lat="40.855045" lon="-3.997809">
        <ele>1524.568013</ele>
        <time>2021-09-15T21:45:15.000Z</time>
      </trkpt>
      <trkpt lat="40.85511" lon="-3.997718"/>
      <trkpt lat="40.855165" lon="-3.997639">
        <ele>1523.174914</ele>
        <time>2021-09-15T21:45:15.000Z</time>
      </trkpt>
      <trkpt lat="40.855207" lon="-3.997583">
        <ele>1522.702453</ele>
        <time>2021-09-15T21:45:15.000Z</time>
      </trkpt>
      <trkpt lat="40.855282" lon="-3.997482">
        <ele>1521.854507</ele>
        <time>2021-09-15T21:45:15.000Z</time>
      </trkpt>
      <trkpt lat="40.855302" lon="-3.997449">
        <ele>1521.601171</ele>
        <time>2021-09-15T21:45:15.000Z</time>
      </trkpt>
      <trkpt lat="40.855378" lon="-3.9973"/>
      <trkpt lat="40.855433" lon="-3.997199">
        <ele>1519.778939</ele>
        <time>2021-09-15T21:45:15.000Z</time>
      </trkpt>
      <trkpt lat="40.855472" lon="-3.997075">
        <ele>1518.974406</ele>
        <time>2021-09-15T21:45:15.000Z</time>
      </trkpt>
      <trkpt lat="40.855482" lon="-3.997008">
        <ele>1518.565278</ele>
        <time>2021-09-15T21:45:15.000Z</time>
      </trkpt>
      <trkpt lat="40.855523" lon="-3.996854">
        <ele>1517.650275</ele>
        <time>2021-09-15T21:45:15.000Z</time>
      </trkpt>
      <trkpt lat="40.855562" lon="-3.996648">
        <ele>1516.629086</ele>
        <time>2021-09-15T21:45:15.000Z</time>
      </trkpt>
      <trkpt lat="40.855573" lon="-3.996541">
        <ele>1516.109806</ele>
        <time>2021-09-15T21:45:15.000Z</time>
      </trkpt>
      <trkpt lat="40.855575" lon="-3.996493">
        <ele>1515.878631</ele>
        <time>2021-09-15T21:45:15.000Z</time>
      </trkpt>
      <trkpt lat="40.855576" lon="-3.996313">
        <ele>1515.013011</ele>
        <time>2021-09-15T21:45:15.000Z</time>
      </trkpt>
      <trkpt lat="40.855584" lon="-3.996152">
        <ele>1514.237115</ele>
        <time>2021-09-15T21:45:15.000Z</time>
      </trkpt>
      <trkpt lat="40.855576" lon="-3.995861">
        <ele>1512.836810</ele>
        <time>2021-09-15T21:45:15.000Z</time>
      </trkpt>
      <trkpt lat="40.855566" lon="-3.99574"/>
      <trkpt lat="40.855534" lon="-3.995575">
        <ele>1511.432342</ele>
        <time>2021-09-15T21:45:15.000Z</time>
      </trkpt>
      <trkpt lat="40.855509" lon="-3.99546"/>
      <trkpt lat="40.855464" lon="-3.995301">
        <ele>1510.040547</ele>
        <time>2021-09-15T21:45:15.000Z</time>
      </trkpt>
      <trkpt lat="40.855418" lon="-3.995152">
        <ele>1509.266635</ele>
        <time>2021-09-15T21:45:15.000Z</time>
      </trkpt>
      <trkpt lat="40.855377" lon="-3.995017">
        <ele>1508.567056</ele>
        <time>2021-09-15T21:45:15.000Z</time>
      </trkpt>
      <trkpt lat="40.855359" lon="-3.994919">
        <ele>1508.082089</ele>
        <time>2021-09-15T21:45:15.000Z</time>
      </trkpt>
      <trkpt lat="40.85538" lon="-3.994792"/>
      <trkpt lat="40.8554" lon="-3.994754"/>
      <trkpt lat="40.855563" lon="-3.994565">
        <ele>1505.689755</ele>
        <time>2021-09-15T21:45:15.000Z</time>
      </trkpt>
      <trkpt lat="40.855765" lon="-3.994367">
        <ele>1503.659411</ele>
        <time>2021-09-15T21:45:15.000Z</time>
      </trkpt>
      <trkpt lat="40.855876" lon="-3.994236">
        <ele>1502.458046</ele>
        <time>2021-09-15T21:45:15.000Z</time>
      </trkpt>
      <trkpt lat="40.855983" lon="-3.994102">
        <ele>1501.268055</ele>
        <time>2021-09-15T21:45:15.000Z</time>
      </trkpt>
      <trkpt lat="40.856006" lon="-3.994067">
        <ele>1500.984905</ele>
        <time>2021-09-15T21:45:15.000Z</time>
      </trkpt>
      <trkpt lat="40.856127" lon="-3.993869">
        <ele>1499.430355</ele>
        <time>2021-09-15T21:45:15.000Z</time>
      </trkpt>
      <trkpt lat="40.856142" lon="-3.993831">
        <ele>1499.168586</ele>
        <time>2021-09-15T21:45:15.000Z</time>
      </trkpt>
      <trkpt lat="40.856192" lon="-3.99373"/>
      <trkpt lat="40.856208" lon="-3.993681">
        <ele>1498.105469</ele>
        <time>2021-09-15T21:45:15.000Z</time>
      </trkpt>
      <trkpt lat="40.856232" lon="-3.993629">
        <ele>1497.733451</ele>
        <time>2021-09-15T21:45:15.000Z</time>
      </trkpt>
      <trkpt lat="40.856256" lon="-3.993556">
        <ele>1497.247347</ele>
        <time>2021-09-15T21:45:15.000Z</time>
      </trkpt>
      <trkpt lat="40.856266" lon="-3.99352"/>
      <trkpt lat="40.856278" lon="-3.993477">
        <ele>1496.733233</ele>
        <time>2021-09-15T21:45:15.000Z</time>
      </trkpt>
      <trkpt lat="40.856296" lon="-3.993293">
        <ele>1495.600190</ele>
        <time>2021-09-15T21:45:15.000Z</time>
      </trkpt>
      <trkpt lat="40.85624" lon="-3.99312"/>
      <trkpt lat="40.856152" lon="-3.993073">
        <ele>1493.684675</ele>
        <time>2021-09-15T21:45:15.000Z</time>
      </trkpt>
      <trkpt lat="40.856136" lon="-3.993065">
        <ele>1493.546558</ele>
        <time>2021-09-15T21:45:15.000Z</time>
      </trkpt>
      <trkpt lat="40.856102" lon="-3.993034">
        <ele>1493.213085</ele>
        <time>2021-09-15T21:45:15.000Z</time>
      </trkpt>
      <trkpt lat="40.85605" lon="-3.992918"/>
      <trkpt lat="40.856033" lon="-3.992774">
        <ele>1491.415424</ele>
        <time>2021-09-15T21:45:15.000Z</time>
      </trkpt>
      <trkpt lat="40.856034" lon="-3.99271"/>
      <trkpt lat="40.856033" lon="-3.992648">
        <ele>1490.501603</ele>
        <time>2021-09-15T21:45:15.000Z</time>
      </trkpt>
      <trkpt lat="40.856016" lon="-3.992598">
        <ele>1490.104110</ele>
        <time>2021-09-15T21:45:15.000Z</time>
      </trkpt>
      <trkpt lat="40.855945" lon="-3.992544">
        <ele>1489.318869</ele>
        <time>2021-09-15T21:45:15.000Z</time>
      </trkpt>
      <trkpt lat="40.855916" lon="-3.992517">
        <ele>1488.978839</ele>
        <time>2021-09-15T21:45:15.000Z</time>
      </trkpt>
      <trkpt lat="40.855892" lon="-3.992446">
        <ele>1488.414947</ele>
        <time>2021-09-15T21:45:15.000Z</time>
      </trkpt>
      <trkpt lat="40.855895" lon="-3.992396">
        <ele>1488.051260</ele>
        <time>2021-09-15T21:45:15.000Z</time>
      </trkpt>
      <trkpt lat="40.855903" lon="-3.992357">
        <ele>1487.758257</ele>
        <time>2021-09-15T21:45:15.000Z</time>
      </trkpt>
      <trkpt lat="40.855966" lon="-3.992239">
        <ele>1486.710954</ele>
        <time>2021-09-15T21:45:15.000Z</time>
      </trkpt>
      <trkpt lat="40.856002" lon="-3.99219"/>
      <trkpt lat="40.85611" lon="-3.992128"/>
      <trkpt lat="40.856168" lon="-3.992117">
        <ele>1484.525161</ele>
        <time>2021-09-15T21:45:15.000Z</time>
      </trkpt>
      <trkpt lat="40.856245" lon="-3.992126">
        <ele>1483.784107</ele>
        <time>2021-09-15T21:45:15.000Z</time>
      </trkpt>
      <trkpt lat="40.856269" lon="-3.992142">
        <ele>1483.526432</ele>
        <time>2021-09-15T21:45:15.000Z</time>
      </trkpt>
      <trkpt lat="40.856326" lon="-3.99218"/>
      <trkpt lat="40.856434" lon="-3.992226">
        <ele>1481.826692</ele>
        <time>2021-09-15T21:45:15.000Z</time>
      </trkpt>
      <trkpt lat="40.856551" lon="-3.992252">
        <ele>1480.689316</ele>
        <time>2021-09-15T21:45:15.000Z</time>
      </trkpt>
      <trkpt lat="40.856582" lon="-3.992258">
        <ele>1480.388961</ele>
        <time>2021-09-15T21:45:15.000Z</time>
      </trkpt>
      <trkpt lat="40.856665" lon="-3.992269">
        <ele>1479.589278</ele>
        <time>2021-09-15T21:45:15.000Z</time>
      </trkpt>
      <trkpt lat="40.856711" lon="-3.992269">
        <ele>1479.148291</ele>
        <time>2021-09-15T21:45:15.000Z</time>
      </trkpt>
      <trkpt lat="40.856808" lon="-3.992247">
        <ele>1478.204799</ele>
        <time>2021-09-15T21:45:15.000Z</time>
      </trkpt>
      <trkpt lat="40.85686" lon="-3.992232"/>
      <trkpt lat="40.856962" lon="-3.992172">
        <ele>1476.624309</ele>
        <time>2021-09-15T21:45:15.000Z</time>
      </trkpt>
      <trkpt lat="40.857013" lon="-3.99213"/>
      <trkpt lat="40.857114" lon="-3.992044">
        <ele>1474.896624</ele>
        <time>2021-09-15T21:45:15.000Z</time>
      </trkpt>
      <trkpt lat="40.857141" lon="-3.992023">
        <ele>1474.596712</ele>
        <time>2021-09-15T21:45:15.000Z</time>
      </trkpt>
      <trkpt lat="40.857274" lon="-3.991933">
        <ele>1473.169559</ele>
        <time>2021-09-15T21:45:15.000Z</time>
      </trkpt>
      <trkpt lat="40.857326" lon="-3.991893">
        <ele>1472.594901</ele>
        <time>2021-09-15T21:45:15.000Z</time>
      </trkpt>
      <trkpt lat="40.857348" lon="-3.991874">
        <ele>1472.343896</ele>
        <time>2021-09-15T21:45:15.000Z</time>
      </trkpt>
      <trkpt lat="40.857369" lon="-3.991843">
        <ele>1472.043234</ele>
        <time>2021-09-15T21:45:15.000Z</time>
      </trkpt>
      <trkpt lat="40.857443" lon="-3.991708">
        <ele>1470.838702</ele>
        <time>2021-09-15T21:45:15.000Z</time>
      </trkpt>
      <trkpt lat="40.857458" lon="-3.991682">
        <ele>1470.602454</ele>
        <time>2021-09-15T21:45:15.000Z</time>
      </trkpt>
      <trkpt lat="40.857551" lon="-3.991596">
        <ele>1469.518393</ele>
        <time>2021-09-15T21:45:15.000Z</time>
      </trkpt>
      <trkpt lat="40.857573" lon="-3.991584">
        <ele>1469.291067</ele>
        <time>2021-09-15T21:45:15.000Z</time>
      </trkpt>
      <trkpt lat="40.857675" lon="-3.991571">
        <ele>1468.312239</ele>
        <time>2021-09-15T21:45:15.000Z</time>
      </trkpt>
      <trkpt lat="40.857699" lon="-3.991569">
        <ele>1468.082534</ele>
        <time>2021-09-15T21:45:15.000Z</time>
      </trkpt>
      <trkpt lat="40.857802" lon="-3.991554">
        <ele>1467.092720</ele>
        <time>2021-09-15T21:45:15.000Z</time>
      </trkpt>
      <trkpt lat="40.857855" lon="-3.991536">
        <ele>1466.570025</ele>
        <time>2021-09-15T21:45:15.000Z</time>
      </trkpt>
      <trkpt lat="40.857907" lon="-3.991518">
        <ele>1466.056576</ele>
        <time>2021-09-15T21:45:15.000Z</time>
      </trkpt>
      <trkpt lat="40.857985" lon="-3.991503">
        <ele>1465.303674</ele>
        <time>2021-09-15T21:45:15.000Z</time>
      </trkpt>
      <trkpt lat="40.858015" lon="-3.991496">
        <ele>1465.012683</ele>
        <time>2021-09-15T21:45:15.000Z</time>
      </trkpt>
      <trkpt lat="40.858072" lon="-3.991474">
        <ele>1464.445490</ele>
        <time>2021-09-15T21:45:15.000Z</time>
      </trkpt>
      <trkpt lat="40.858213" lon="-3.991427">
        <ele>1463.056504</ele>
        <time>2021-09-15T21:45:15.000Z</time>
      </trkpt>
      <trkpt lat="40.858356" lon="-3.991342">
        <ele>1461.558869</ele>
        <time>2021-09-15T21:45:15.000Z</time>
      </trkpt>
      <trkpt lat="40.858471" lon="-3.991316">
        <ele>1460.444436</ele>
        <time>2021-09-15T21:45:15.000Z</time>
      </trkpt>
      <trkpt lat="40.858494" lon="-3.991311">
        <ele>1460.221789</ele>
        <time>2021-09-15T21:45:15.000Z</time>
      </trkpt>
      <trkpt lat="40.858588" lon="-3.991277">
        <ele>1459.290901</ele>
        <time>2021-09-15T21:45:15.000Z</time>
      </trkpt>
      <trkpt lat="40.858636" lon="-3.991259">
        <ele>1458.814317</ele>
        <time>2021-09-15T21:45:15.000Z</time>
      </trkpt>
      <trkpt lat="40.858706" lon="-3.991232">
        <ele>1458.117801</ele>
        <time>2021-09-15T21:45:15.000Z</time>
      </trkpt>
      <trkpt lat="40.858775" lon="-3.991207">
        <ele>1457.428073</ele>
        <time>2021-09-15T21:45:15.000Z</time>
      </trkpt>
      <trkpt lat="40.858823" lon="-3.991187">
        <ele>1456.913650</ele>
        <time>2021-09-15T21:45:15.000Z</time>
      </trkpt>
      <trkpt lat="40.858907" lon="-3.991144">
        <ele>1455.992931</ele>
        <time>2021-09-15T21:45:15.000Z</time>
      </trkpt>
      <trkpt lat="40.858929" lon="-3.991135">
        <ele>1455.757538</ele>
        <time>2021-09-15T21:45:15.000Z</time>
      </trkpt>
      <trkpt lat="40.858986" lon="-3.991116">
        <ele>1455.156678</ele>
        <time>2021-09-15T21:45:15.000Z</time>
      </trkpt>
      <trkpt lat="40.859027" lon="-3.991105">
        <ele>1454.729052</ele>
        <time>2021-09-15T21:45:15.000Z</time>
      </trkpt>
      <trkpt lat="40.859089" lon="-3.991064">
        <ele>1454.020468</ele>
        <time>2021-09-15T21:45:15.000Z</time>
      </trkpt>
      <trkpt lat="40.859154" lon="-3.99103"/>
      <trkpt lat="40.859198" lon="-3.991017">
        <ele>1452.845119</ele>
        <time>2021-09-15T21:45:15.000Z</time>
      </trkpt>
      <trkpt lat="40.859275" lon="-3.990967">
        <ele>1451.968261</ele>
        <time>2021-09-15T21:45:15.000Z</time>
      </trkpt>
      <trkpt lat="40.859336" lon="-3.990935">
        <ele>1451.297461</ele>
        <time>2021-09-15T21:45:15.000Z</time>
      </trkpt>
      <trkpt lat="40.859423" lon="-3.990884">
        <ele>1450.324700</ele>
        <time>2021-09-15T21:45:15.000Z</time>
      </trkpt>
      <trkpt lat="40.859548" lon="-3.990823">
        <ele>1448.962754</ele>
        <time>2021-09-15T21:45:15.000Z</time>
      </trkpt>
      <trkpt lat="40.859574" lon="-3.990813">
        <ele>1448.685977</ele>
        <time>2021-09-15T21:45:15.000Z</time>
      </trkpt>
      <trkpt lat="40.859635" lon="-3.990786">
        <ele>1448.028450</ele>
        <time>2021-09-15T21:45:15.000Z</time>
      </trkpt>
      <trkpt lat="40.859723" lon="-3.990746">
        <ele>1447.077281</ele>
        <time>2021-09-15T21:45:15.000Z</time>
      </trkpt>
      <trkpt lat="40.85977" lon="-3.990722"/>
      <trkpt lat="40.859888" lon="-3.990677">
        <ele>1445.306969</ele>
        <time>2021-09-15T21:45:15.000Z</time>
      </trkpt>
      <trkpt lat="40.859993" lon="-3.990636">
        <ele>1444.187878</ele>
        <time>2021-09-15T21:45:15.000Z</time>
      </trkpt>
      <trkpt lat="40.860084" lon="-3.990582">
        <ele>1443.168330</ele>
        <time>2021-09-15T21:45:15.000Z</time>
      </trkpt>
      <trkpt lat="40.860135" lon="-3.990561">
        <ele>1442.622335</ele>
        <time>2021-09-15T21:45:15.000Z</time>
      </trkpt>
      <trkpt lat="40.860258" lon="-3.990526">
        <ele>1441.336294</ele>
        <time>2021-09-15T21:45:15.000Z</time>
      </trkpt>
      <trkpt lat="40.860282" lon="-3.99052"/>
      <trkpt lat="40.860365" lon="-3.990488">
        <ele>1440.202907</ele>
        <time>2021-09-15T21:45:15.000Z</time>
      </trkpt>
      <trkpt lat="40.860381" lon="-3.990479">
        <ele>1440.025177</ele>
        <time>2021-09-15T21:45:15.000Z</time>
      </trkpt>
      <trkpt lat="40.860402" lon="-3.990469">
        <ele>1439.797027</ele>
        <time>2021-09-15T21:45:15.000Z</time>
      </trkpt>
      <trkpt lat="40.860468" lon="-3.990446">
        <ele>1439.098102</ele>
        <time>2021-09-15T21:45:15.000Z</time>
      </trkpt>
      <trkpt lat="40.860535" lon="-3.990435">
        <ele>1438.386453</ele>
        <time>2021-09-15T21:45:15.000Z</time>
      </trkpt>
      <trkpt lat="40.860592" lon="-3.990443">
        <ele>1437.782259</ele>
        <time>2021-09-15T21:45:15.000Z</time>
      </trkpt>
      <trkpt lat="40.860659" lon="-3.990454">
        <ele>1437.070610</ele>
        <time>2021-09-15T21:45:15.000Z</time>
      </trkpt>
      <trkpt lat="40.8607" lon="-3.990447"/>
      <trkpt lat="40.860767" lon="-3.990448">
        <ele>1435.928584</ele>
        <time>2021-09-15T21:45:15.000Z</time>
      </trkpt>
      <trkpt lat="40.860792" lon="-3.990456">
        <ele>1435.657460</ele>
        <time>2021-09-15T21:45:15.000Z</time>
      </trkpt>
      <trkpt lat="40.86085" lon="-3.990448"/>
      <trkpt lat="40.860875" lon="-3.990448">
        <ele>1434.779266</ele>
        <time>2021-09-15T21:45:15.000Z</time>
      </trkpt>
      <trkpt lat="40.860922" lon="-3.990464">
        <ele>1434.267698</ele>
        <time>2021-09-15T21:45:15.000Z</time>
      </trkpt>
      <trkpt lat="40.860937" lon="-3.990477">
        <ele>1434.078650</ele>
        <time>2021-09-15T21:45:15.000Z</time>
      </trkpt>
      <trkpt lat="40.860955" lon="-3.990489">
        <ele>1433.866166</ele>
        <time>2021-09-15T21:45:15.000Z</time>
      </trkpt>
      <trkpt lat="40.861029" lon="-3.990543">
        <ele>1432.975250</ele>
        <time>2021-09-15T21:45:15.000Z</time>
      </trkpt>
      <trkpt lat="40.861045" lon="-3.990557">
        <ele>1432.773015</ele>
        <time>2021-09-15T21:45:15.000Z</time>
      </trkpt>
      <trkpt lat="40.861076" lon="-3.990575">
        <ele>1432.416135</ele>
        <time>2021-09-15T21:45:15.000Z</time>
      </trkpt>
      <trkpt lat="40.861092" lon="-3.990588">
        <ele>1432.218187</ele>
        <time>2021-09-15T21:45:15.000Z</time>
      </trkpt>
      <trkpt lat="40.861107" lon="-3.990608">
        <ele>1431.993645</ele>
        <time>2021-09-15T21:45:15.000Z</time>
      </trkpt>
      <trkpt lat="40.861137" lon="-3.99067"/>
      <trkpt lat="40.861164" lon="-3.990715">
        <ele>1430.948971</ele>
        <time>2021-09-15T21:45:15.000Z</time>
      </trkpt>
      <trkpt lat="40.861177" lon="-3.990733">
        <ele>1430.750559</ele>
        <time>2021-09-15T21:45:15.000Z</time>
      </trkpt>
      <trkpt lat="40.861248" lon="-3.990793">
        <ele>1429.862377</ele>
        <time>2021-09-15T21:45:15.000Z</time>
      </trkpt>
      <trkpt lat="40.861316" lon="-3.990859">
        <ele>1428.973231</ele>
        <time>2021-09-15T21:45:15.000Z</time>
      </trkpt>
      <trkpt lat="40.861333" lon="-3.990872">
        <ele>1428.766229</ele>
        <time>2021-09-15T21:45:15.000Z</time>
      </trkpt>
      <trkpt lat="40.861395" lon="-3.990916">
        <ele>1428.024525</ele>
        <time>2021-09-15T21:45:15.000Z</time>
      </trkpt>
      <trkpt lat="40.861424" lon="-3.990949">
        <ele>1427.621231</ele>
        <time>2021-09-15T21:45:15.000Z</time>
      </trkpt>
      <trkpt lat="40.861488" lon="-3.990999">
        <ele>1426.837671</ele>
        <time>2021-09-15T21:45:15.000Z</time>
      </trkpt>
      <trkpt lat="40.861517" lon="-3.991018">
        <ele>1426.496524</ele>
        <time>2021-09-15T21:45:15.000Z</time>
      </trkpt>
      <trkpt lat="40.861563" lon="-3.991049">
        <ele>1425.952307</ele>
        <time>2021-09-15T21:45:15.000Z</time>
      </trkpt>
      <trkpt lat="40.861593" lon="-3.991063">
        <ele>1425.616970</ele>
        <time>2021-09-15T21:45:15.000Z</time>
      </trkpt>
      <trkpt lat="40.861626" lon="-3.991085">
        <ele>1425.227416</ele>
        <time>2021-09-15T21:45:15.000Z</time>
      </trkpt>
      <trkpt lat="40.861693" lon="-3.991098">
        <ele>1424.513627</ele>
        <time>2021-09-15T21:45:15.000Z</time>
      </trkpt>
      <trkpt lat="40.861741" lon="-3.991106">
        <ele>1424.003671</ele>
        <time>2021-09-15T21:45:15.000Z</time>
      </trkpt>
      <trkpt lat="40.861787" lon="-3.991095">
        <ele>1423.510935</ele>
        <time>2021-09-15T21:45:15.000Z</time>
      </trkpt>
      <trkpt lat="40.861894" lon="-3.991018">
        <ele>1422.226864</ele>
        <time>2021-09-15T21:45:15.000Z</time>
      </trkpt>
      <trkpt lat="40.861927" lon="-3.990981">
        <ele>1421.770801</ele>
        <time>2021-09-15T21:45:15.000Z</time>
      </trkpt>
      <trkpt lat="40.861986" lon="-3.990891">
        <ele>1420.821323</ele>
        <time>2021-09-15T21:45:15.000Z</time>
      </trkpt>
      <trkpt lat="40.862005" lon="-3.990843">
        <ele>1420.389435</ele>
        <time>2021-09-15T21:45:15.000Z</time>
      </trkpt>
      <trkpt lat="40.862024" lon="-3.9908"/>
      <trkpt lat="40.862081" lon="-3.990715">
        <ele>1419.525817</ele>
        <time>2021-09-15T21:45:15.000Z</time>
      </trkpt>
      <trkpt lat="40.862104" lon="-3.990702">
        <ele>1419.367952</ele>
        <time>2021-09-15T21:45:15.000Z</time>
      </trkpt>
      <trkpt lat="40.862181" lon="-3.990689">
        <ele>1418.878041</ele>
        <time>2021-09-15T21:45:15.000Z</time>
      </trkpt>
      <trkpt lat="40.862225" lon="-3.990709">
        <ele>1418.584395</ele>
        <time>2021-09-15T21:45:15.000Z</time>
      </trkpt>
      <trkpt lat="40.862244" lon="-3.990732">
        <ele>1418.421818</ele>
        <time>2021-09-15T21:45:15.000Z</time>
      </trkpt>
      <trkpt lat="40.862313" lon="-3.990838">
        <ele>1417.754268</ele>
        <time>2021-09-15T21:45:15.000Z</time>
      </trkpt>
      <trkpt lat="40.862349" lon="-3.990915">
        <ele>1417.322181</ele>
        <time>2021-09-15T21:45:15.000Z</time>
      </trkpt>
      <trkpt lat="40.862369" lon="-3.990957">
        <ele>1417.085283</ele>
        <time>2021-09-15T21:45:15.000Z</time>
      </trkpt>
      <trkpt lat="40.86243" lon="-3.991029"/>
      <trkpt lat="40.862452" lon="-3.991054">
        <ele>1416.386144</ele>
        <time>2021-09-15T21:45:15.000Z</time>
      </trkpt>
      <trkpt lat="40.862494" lon="-3.991105">
        <ele>1416.026255</ele>
        <time>2021-09-15T21:45:15.000Z</time>
      </trkpt>
      <trkpt lat="40.862567" lon="-3.991181">
        <ele>1415.439864</ele>
        <time>2021-09-15T21:45:15.000Z</time>
      </trkpt>
      <trkpt lat="40.862746" lon="-3.991388">
        <ele>1413.939048</ele>
        <time>2021-09-15T21:45:15.000Z</time>
      </trkpt>
      <trkpt lat="40.862771" lon="-3.991435">
        <ele>1413.664784</ele>
        <time>2021-09-15T21:45:15.000Z</time>
      </trkpt>
      <trkpt lat="40.862857" lon="-3.991611">
        <ele>1412.664637</ele>
        <time>2021-09-15T21:45:15.000Z</time>
      </trkpt>
      <trkpt lat="40.862875" lon="-3.991653">
        <ele>1412.434218</ele>
        <time>2021-09-15T21:45:15.000Z</time>
      </trkpt>
      <trkpt lat="40.863" lon="-3.991814"/>
      <trkpt lat="40.863045" lon="-3.991842">
        <ele>1411.019018</ele>
        <time>2021-09-15T21:45:15.000Z</time>
      </trkpt>
      <trkpt lat="40.863326" lon="-3.991957">
        <ele>1409.162555</ele>
        <time>2021-09-15T21:45:15.000Z</time>
      </trkpt>
      <trkpt lat="40.863432" lon="-3.992009">
        <ele>1408.741812</ele>
        <time>2021-09-15T21:45:15.000Z</time>
      </trkpt>
      <trkpt lat="40.863485" lon="-3.992034">
        <ele>1408.660176</ele>
        <time>2021-09-15T21:45:15.000Z</time>
      </trkpt>
      <trkpt lat="40.863586" lon="-3.992089">
        <ele>1408.501709</ele>
        <time>2021-09-15T21:45:15.000Z</time>
      </trkpt>
      <trkpt lat="40.863639" lon="-3.992108">
        <ele>1408.422043</ele>
        <time>2021-09-15T21:45:15.000Z</time>
      </trkpt>
      <trkpt lat="40.86378" lon="-3.992167"/>
      <trkpt lat="40.863868" lon="-3.992183">
        <ele>1408.078620</ele>
        <time>2021-09-15T21:45:15.000Z</time>
      </trkpt>
      <trkpt lat="40.86395" lon="-3.992181"/>
      <trkpt lat="40.864034" lon="-3.992179">
        <ele>1407.837754</ele>
        <time>2021-09-15T21:45:15.000Z</time>
      </trkpt>
      <trkpt lat="40.864176" lon="-3.992243">
        <ele>1407.620108</ele>
        <time>2021-09-15T21:45:15.000Z</time>
      </trkpt>
      <trkpt lat="40.864275" lon="-3.992471">
        <ele>1407.331657</ele>
        <time>2021-09-15T21:45:15.000Z</time>
      </trkpt>
      <trkpt lat="40.864293" lon="-3.992523">
        <ele>1407.268913</ele>
        <time>2021-09-15T21:45:15.000Z</time>
      </trkpt>
      <trkpt lat="40.864392" lon="-3.992787">
        <ele>1406.945610</ele>
        <time>2021-09-15T21:45:15.000Z</time>
      </trkpt>
      <trkpt lat="40.86449" lon="-3.993072"/>
      <trkpt lat="40.864559" lon="-3.993309">
        <ele>1406.323490</ele>
        <time>2021-09-15T21:45:15.000Z</time>
      </trkpt>
      <trkpt lat="40.864644" lon="-3.993557">
        <ele>1405.760206</ele>
        <time>2021-09-15T21:45:15.000Z</time>
      </trkpt>
      <trkpt lat="40.864753" lon="-3.993817">
        <ele>1404.991677</ele>
        <time>2021-09-15T21:45:15.000Z</time>
      </trkpt>
      <trkpt lat="40.864878" lon="-3.994027">
        <ele>1404.300788</ele>
        <time>2021-09-15T21:45:15.000Z</time>
      </trkpt>
      <trkpt lat="40.865062" lon="-3.994233">
        <ele>1403.476622</ele>
        <time>2021-09-15T21:45:15.000Z</time>
      </trkpt>
      <trkpt lat="40.865196" lon="-3.994381">
        <ele>1402.879779</ele>
        <time>2021-09-15T21:45:15.000Z</time>
      </trkpt>
      <trkpt lat="40.865269" lon="-3.994478">
        <ele>1402.526004</ele>
        <time>2021-09-15T21:45:15.000Z</time>
      </trkpt>
      <trkpt lat="40.865329" lon="-3.994562">
        <ele>1402.227296</ele>
        <time>2021-09-15T21:45:15.000Z</time>
      </trkpt>
      <trkpt lat="40.865402" lon="-3.99466"/>
      <trkpt lat="40.865422" lon="-3.994686">
        <ele>1401.775809</ele>
        <time>2021-09-15T21:45:15.000Z</time>
      </trkpt>
      <trkpt lat="40.865474" lon="-3.99477"/>
      <trkpt lat="40.865505" lon="-3.994826">
        <ele>1401.315762</ele>
        <time>2021-09-15T21:45:15.000Z</time>
      </trkpt>
      <trkpt lat="40.865558" lon="-3.994917">
        <ele>1401.018829</ele>
        <time>2021-09-15T21:45:15.000Z</time>
      </trkpt>
      <trkpt lat="40.865586" lon="-3.994996">
        <ele>1400.793282</ele>
        <time>2021-09-15T21:45:15.000Z</time>
      </trkpt>
      <trkpt lat="40.865613" lon="-3.99507"/>
      <trkpt lat="40.865644" lon="-3.995145">
        <ele>1400.359916</ele>
        <time>2021-09-15T21:45:15.000Z</time>
      </trkpt>
      <trkpt lat="40.865696" lon="-3.995259">
        <ele>1399.985071</ele>
        <time>2021-09-15T21:45:15.000Z</time>
      </trkpt>
      <trkpt lat="40.865707" lon="-3.995294">
        <ele>1399.832921</ele>
        <time>2021-09-15T21:45:15.000Z</time>
      </trkpt>
      <trkpt lat="40.865758" lon="-3.995399">
        <ele>1399.331970</ele>
        <time>2021-09-15T21:45:15.000Z</time>
      </trkpt>
      <trkpt lat="40.865777" lon="-3.995417">
        <ele>1399.207901</ele>
        <time>2021-09-15T21:45:15.000Z</time>
      </trkpt>
      <trkpt lat="40.865883" lon="-3.995521">
        <ele>1398.507264</ele>
        <time>2021-09-15T21:45:15.000Z</time>
      </trkpt>
      <trkpt lat="40.866001" lon="-3.995617">
        <ele>1397.771840</ele>
        <time>2021-09-15T21:45:15.000Z</time>
      </trkpt>
      <trkpt lat="40.866026" lon="-3.995638">
        <ele>1397.614623</ele>
        <time>2021-09-15T21:45:15.000Z</time>
      </trkpt>
      <trkpt lat="40.866183" lon="-3.995752">
        <ele>1396.663856</ele>
        <time>2021-09-15T21:45:15.000Z</time>
      </trkpt>
      <trkpt lat="40.866405" lon="-3.995922">
        <ele>1395.302099</ele>
        <time>2021-09-15T21:45:15.000Z</time>
      </trkpt>
      <trkpt lat="40.86662" lon="-3.996073"/>
      <trkpt lat="40.866803" lon="-3.996209">
        <ele>1392.895550</ele>
        <time>2021-09-15T21:45:15.000Z</time>
      </trkpt>
      <trkpt lat="40.866907" lon="-3.996291">
        <ele>1392.252811</ele>
        <time>2021-09-15T21:45:15.000Z</time>
      </trkpt>
      <trkpt lat="40.866989" lon="-3.996371">
        <ele>1391.711893</ele>
        <time>2021-09-15T21:45:15.000Z</time>
      </trkpt>
      <trkpt lat="40.867015" lon="-3.996394">
        <ele>1391.545845</ele>
        <time>2021-09-15T21:45:15.000Z</time>
      </trkpt>
      <trkpt lat="40.867145" lon="-3.996496">
        <ele>1390.743448</ele>
        <time>2021-09-15T21:45:15.000Z</time>
      </trkpt>
      <trkpt lat="40.867197" lon="-3.996527">
        <ele>1390.432547</ele>
        <time>2021-09-15T21:45:15.000Z</time>
      </trkpt>
      <trkpt lat="40.867248" lon="-3.996555">
        <ele>1390.110747</ele>
        <time>2021-09-15T21:45:15.000Z</time>
      </trkpt>
      <trkpt lat="40.867328" lon="-3.996592">
        <ele>1389.616855</ele>
        <time>2021-09-15T21:45:15.000Z</time>
      </trkpt>
      <trkpt lat="40.867353" lon="-3.996605">
        <ele>1389.460308</ele>
        <time>2021-09-15T21:45:15.000Z</time>
      </trkpt>
      <trkpt lat="40.867504" lon="-3.996708">
        <ele>1388.470181</ele>
        <time>2021-09-15T21:45:15.000Z</time>
      </trkpt>
      <trkpt lat="40.867663" lon="-3.996801">
        <ele>1387.457015</ele>
        <time>2021-09-15T21:45:15.000Z</time>
      </trkpt>
      <trkpt lat="40.867693" lon="-3.996823">
        <ele>1387.257106</ele>
        <time>2021-09-15T21:45:15.000Z</time>
      </trkpt>
      <trkpt lat="40.867787" lon="-3.996871">
        <ele>1386.669898</ele>
        <time>2021-09-15T21:45:15.000Z</time>
      </trkpt>
      <trkpt lat="40.867921" lon="-3.996913">
        <ele>1385.867378</ele>
        <time>2021-09-15T21:45:15.000Z</time>
      </trkpt>
      <trkpt lat="40.867956" lon="-3.996921">
        <ele>1385.660391</ele>
        <time>2021-09-15T21:45:15.000Z</time>
      </trkpt>
      <trkpt lat="40.868134" lon="-3.996951">
        <ele>1384.614705</ele>
        <time>2021-09-15T21:45:15.000Z</time>
      </trkpt>
      <trkpt lat="40.868228" lon="-3.996946">
        <ele>1384.066477</ele>
        <time>2021-09-15T21:45:15.000Z</time>
      </trkpt>
      <trkpt lat="40.868319" lon="-3.996923">
        <ele>1383.526575</ele>
        <time>2021-09-15T21:45:15.000Z</time>
      </trkpt>
      <trkpt lat="40.868478" lon="-3.99692"/>
      <trkpt lat="40.868607" lon="-3.996898">
        <ele>1381.841936</ele>
        <time>2021-09-15T21:45:15.000Z</time>
      </trkpt>
      <trkpt lat="40.868675" lon="-3.996884">
        <ele>1381.440892</ele>
        <time>2021-09-15T21:45:15.000Z</time>
      </trkpt>
      <trkpt lat="40.868711" lon="-3.996879">
        <ele>1381.229948</ele>
        <time>2021-09-15T21:45:15.000Z</time>
      </trkpt>
      <trkpt lat="40.868813" lon="-3.996869">
        <ele>1380.633912</ele>
        <time>2021-09-15T21:45:15.000Z</time>
      </trkpt>
      <trkpt lat="40.868873" lon="-3.996863">
        <ele>1380.283263</ele>
        <time>2021-09-15T21:45:15.000Z</time>
      </trkpt>
      <trkpt lat="40.868904" lon="-3.996859">
        <ele>1380.101753</ele>
        <time>2021-09-15T21:45:15.000Z</time>
      </trkpt>
      <trkpt lat="40.869041" lon="-3.996902">
        <ele>1379.579013</ele>
        <time>2021-09-15T21:45:15.000Z</time>
      </trkpt>
      <trkpt lat="40.869078" lon="-3.996921">
        <ele>1379.438242</ele>
        <time>2021-09-15T21:45:15.000Z</time>
      </trkpt>
      <trkpt lat="40.869179" lon="-3.996944">
        <ele>1379.074763</ele>
        <time>2021-09-15T21:45:15.000Z</time>
      </trkpt>
      <trkpt lat="40.869233" lon="-3.996939">
        <ele>1378.882778</ele>
        <time>2021-09-15T21:45:15.000Z</time>
      </trkpt>
      <trkpt lat="40.869294" lon="-3.99693"/>
      <trkpt lat="40.869419" lon="-3.996915">
        <ele>1378.219946</ele>
        <time>2021-09-15T21:45:15.000Z</time>
      </trkpt>
      <trkpt lat="40.869556" lon="-3.996898">
        <ele>1377.731927</ele>
        <time>2021-09-15T21:45:15.000Z</time>
      </trkpt>
      <trkpt lat="40.869648" lon="-3.9969"/>
      <trkpt lat="40.869691" lon="-3.996901">
        <ele>1377.253068</ele>
        <time>2021-09-15T21:45:15.000Z</time>
      </trkpt>
      <trkpt lat="40.869859" lon="-3.996954">
        <ele>1376.640519</ele>
        <time>2021-09-15T21:45:15.000Z</time>
      </trkpt>
      <trkpt lat="40.870078" lon="-3.997106">
        <ele>1375.763335</ele>
        <time>2021-09-15T21:45:15.000Z</time>
      </trkpt>
      <trkpt lat="40.870341" lon="-3.997308">
        <ele>1374.684667</ele>
        <time>2021-09-15T21:45:15.000Z</time>
      </trkpt>
      <trkpt lat="40.870547" lon="-3.997499">
        <ele>1373.792383</ele>
        <time>2021-09-15T21:45:15.000Z</time>
      </trkpt>
      <trkpt lat="40.870678" lon="-3.997709">
        <ele>1372.928392</ele>
        <time>2021-09-15T21:45:15.000Z</time>
      </trkpt>
      <trkpt lat="40.870751" lon="-3.997907">
        <ele>1372.205957</ele>
        <time>2021-09-15T21:45:15.000Z</time>
      </trkpt>
      <trkpt lat="40.870824" lon="-3.998092">
        <ele>1371.521589</ele>
        <time>2021-09-15T21:45:15.000Z</time>
      </trkpt>
      <trkpt lat="40.870925" lon="-3.998305">
        <ele>1370.697051</ele>
        <time>2021-09-15T21:45:15.000Z</time>
      </trkpt>
      <trkpt lat="40.870941" lon="-3.998337">
        <ele>1370.571236</ele>
        <time>2021-09-15T21:45:15.000Z</time>
      </trkpt>
      <trkpt lat="40.871029" lon="-3.998445">
        <ele>1370.050544</ele>
        <time>2021-09-15T21:45:15.000Z</time>
      </trkpt>
      <trkpt lat="40.871053" lon="-3.998461">
        <ele>1369.933976</ele>
        <time>2021-09-15T21:45:15.000Z</time>
      </trkpt>
      <trkpt lat="40.871164" lon="-3.998517">
        <ele>1369.418721</ele>
        <time>2021-09-15T21:45:15.000Z</time>
      </trkpt>
      <trkpt lat="40.871194" lon="-3.998535">
        <ele>1369.275844</ele>
        <time>2021-09-15T21:45:15.000Z</time>
      </trkpt>
      <trkpt lat="40.871258" lon="-3.998562">
        <ele>1368.984491</ele>
        <time>2021-09-15T21:45:15.000Z</time>
      </trkpt>
      <trkpt lat="40.871408" lon="-3.998624">
        <ele>1368.302898</ele>
        <time>2021-09-15T21:45:15.000Z</time>
      </trkpt>
      <trkpt lat="40.871472" lon="-3.998656">
        <ele>1368.006150</ele>
        <time>2021-09-15T21:45:15.000Z</time>
      </trkpt>
      <trkpt lat="40.871597" lon="-3.998758">
        <ele>1367.369120</ele>
        <time>2021-09-15T21:45:15.000Z</time>
      </trkpt>
      <trkpt lat="40.871742" lon="-3.99892"/>
      <trkpt lat="40.871768" lon="-3.998953">
        <ele>1366.389568</ele>
        <time>2021-09-15T21:45:15.000Z</time>
      </trkpt>
      <trkpt lat="40.871908" lon="-3.999141">
        <ele>1365.347751</ele>
        <time>2021-09-15T21:45:15.000Z</time>
      </trkpt>
      <trkpt lat="40.871933" lon="-3.999172">
        <ele>1365.121509</ele>
        <time>2021-09-15T21:45:15.000Z</time>
      </trkpt>
      <trkpt lat="40.87198" lon="-3.999239"/>
      <trkpt lat="40.872081" lon="-3.999356">
        <ele>1363.778905</ele>
        <time>2021-09-15T21:45:15.000Z</time>
      </trkpt>
      <trkpt lat="40.872108" lon="-3.999384">
        <ele>1363.552394</ele>
        <time>2021-09-15T21:45:15.000Z</time>
      </trkpt>
      <trkpt lat="40.872208" lon="-3.999485">
        <ele>1362.721728</ele>
        <time>2021-09-15T21:45:15.000Z</time>
      </trkpt>
      <trkpt lat="40.872258" lon="-3.999537">
        <ele>1362.301808</ele>
        <time>2021-09-15T21:45:15.000Z</time>
      </trkpt>
      <trkpt lat="40.87234" lon="-3.999602"/>
      <trkpt lat="40.872421" lon="-3.999647">
        <ele>1361.090688</ele>
        <time>2021-09-15T21:45:15.000Z</time>
      </trkpt>
      <trkpt lat="40.8725" lon="-3.999689"/>
      <trkpt lat="40.872607" lon="-3.999752">
        <ele>1359.755388</ele>
        <time>2021-09-15T21:45:15.000Z</time>
      </trkpt>
      <trkpt lat="40.872633" lon="-3.999769">
        <ele>1359.563914</ele>
        <time>2021-09-15T21:45:15.000Z</time>
      </trkpt>
      <trkpt lat="40.872756" lon="-3.999842">
        <ele>1358.673901</ele>
        <time>2021-09-15T21:45:15.000Z</time>
      </trkpt>
      <trkpt lat="40.87282" lon="-3.999879"/>
      <trkpt lat="40.872952" lon="-3.999965">
        <ele>1357.241379</ele>
        <time>2021-09-15T21:45:15.000Z</time>
      </trkpt>
      <trkpt lat="40.87298" lon="-3.99998"/>
      <trkpt lat="40.873117" lon="-4.000062">
        <ele>1356.049214</ele>
        <time>2021-09-15T21:45:15.000Z</time>
      </trkpt>
      <trkpt lat="40.873273" lon="-4.000171">
        <ele>1354.884468</ele>
        <time>2021-09-15T21:45:15.000Z</time>
      </trkpt>
      <trkpt lat="40.873399" lon="-4.000262">
        <ele>1353.934427</ele>
        <time>2021-09-15T21:45:15.000Z</time>
      </trkpt>
      <trkpt lat="40.873423" lon="-4.000282">
        <ele>1353.738858</ele>
        <time>2021-09-15T21:45:15.000Z</time>
      </trkpt>
      <trkpt lat="40.873498" lon="-4.000348">
        <ele>1353.117785</ele>
        <time>2021-09-15T21:45:15.000Z</time>
      </trkpt>
      <trkpt lat="40.87357" lon="-4.000417"/>
      <trkpt lat="40.873595" lon="-4.000444">
        <ele>1352.282254</ele>
        <time>2021-09-15T21:45:15.000Z</time>
      </trkpt>
      <trkpt lat="40.873672" lon="-4.000522">
        <ele>1351.613568</ele>
        <time>2021-09-15T21:45:15.000Z</time>
      </trkpt>
      <trkpt lat="40.87372" lon="-4.000572"/>
      <trkpt lat="40.873783" lon="-4.000658">
        <ele>1350.568115</ele>
        <time>2021-09-15T21:45:15.000Z</time>
      </trkpt>
      <trkpt lat="40.873822" lon="-4.000721">
        <ele>1350.143671</ele>
        <time>2021-09-15T21:45:15.000Z</time>
      </trkpt>
      <trkpt lat="40.873897" lon="-4.00088"/>
      <trkpt lat="40.873914" lon="-4.00091"/>
      <trkpt lat="40.874009" lon="-4.001028">
        <ele>1348.072789</ele>
        <time>2021-09-15T21:45:15.000Z</time>
      </trkpt>
      <trkpt lat="40.874169" lon="-4.001099">
        <ele>1346.909284</ele>
        <time>2021-09-15T21:45:15.000Z</time>
      </trkpt>
      <trkpt lat="40.874324" lon="-4.001063">
        <ele>1345.824335</ele>
        <time>2021-09-15T21:45:15.000Z</time>
      </trkpt>
      <trkpt lat="40.874479" lon="-4.001012">
        <ele>1344.723164</ele>
        <time>2021-09-15T21:45:15.000Z</time>
      </trkpt>
      <trkpt lat="40.874619" lon="-4.000993">
        <ele>1343.752914</ele>
        <time>2021-09-15T21:45:15.000Z</time>
      </trkpt>
      <trkpt lat="40.87465" lon="-4.000983"/>
      <trkpt lat="40.874761" lon="-4.000961">
        <ele>1342.759132</ele>
        <time>2021-09-15T21:45:15.000Z</time>
      </trkpt>
      <trkpt lat="40.874851" lon="-4.000951">
        <ele>1342.136471</ele>
        <time>2021-09-15T21:45:15.000Z</time>
      </trkpt>
      <trkpt lat="40.874882" lon="-4.000946">
        <ele>1341.921169</ele>
        <time>2021-09-15T21:45:15.000Z</time>
      </trkpt>
      <trkpt lat="40.874943" lon="-4.000937">
        <ele>1341.460401</ele>
        <time>2021-09-15T21:45:15.000Z</time>
      </trkpt>
      <trkpt lat="40.875028" lon="-4.000928">
        <ele>1340.627400</ele>
        <time>2021-09-15T21:45:15.000Z</time>
      </trkpt>
      <trkpt lat="40.875082" lon="-4.000917">
        <ele>1340.093666</ele>
        <time>2021-09-15T21:45:15.000Z</time>
      </trkpt>
      <trkpt lat="40.875107" lon="-4.000915">
        <ele>1339.849001</ele>
        <time>2021-09-15T21:45:15.000Z</time>
      </trkpt>
      <trkpt lat="40.875203" lon="-4.000896">
        <ele>1338.900757</ele>
        <time>2021-09-15T21:45:15.000Z</time>
      </trkpt>
      <trkpt lat="40.875225" lon="-4.00089"/>
      <trkpt lat="40.875297" lon="-4.000871">
        <ele>1337.964107</ele>
        <time>2021-09-15T21:45:15.000Z</time>
      </trkpt>
      <trkpt lat="40.875386" lon="-4.000852">
        <ele>1337.083434</ele>
        <time>2021-09-15T21:45:15.000Z</time>
      </trkpt>
      <trkpt lat="40.875466" lon="-4.000844">
        <ele>1336.299703</ele>
        <time>2021-09-15T21:45:15.000Z</time>
      </trkpt>
      <trkpt lat="40.875486" lon="-4.000837">
        <ele>1336.097601</ele>
        <time>2021-09-15T21:45:15.000Z</time>
      </trkpt>
      <trkpt lat="40.875562" lon="-4.000816">
        <ele>1335.339145</ele>
        <time>2021-09-15T21:45:15.000Z</time>
      </trkpt>
      <trkpt lat="40.875602" lon="-4.000798">
        <ele>1334.926394</ele>
        <time>2021-09-15T21:45:15.000Z</time>
      </trkpt>
      <trkpt lat="40.875645" lon="-4.000758">
        <ele>1334.412835</ele>
        <time>2021-09-15T21:45:15.000Z</time>
      </trkpt>
      <trkpt lat="40.875705" lon="-4.000692">
        <ele>1333.650467</ele>
        <time>2021-09-15T21:45:15.000Z</time>
      </trkpt>
      <trkpt lat="40.875779" lon="-4.000613">
        <ele>1332.721449</ele>
        <time>2021-09-15T21:45:15.000Z</time>
      </trkpt>
      <trkpt lat="40.875818" lon="-4.00056"/>
      <trkpt lat="40.875844" lon="-4.000529">
        <ele>1331.833218</ele>
        <time>2021-09-15T21:45:15.000Z</time>
      </trkpt>
      <trkpt lat="40.875929" lon="-4.000462">
        <ele>1330.866580</ele>
        <time>2021-09-15T21:45:15.000Z</time>
      </trkpt>
      <trkpt lat="40.875964" lon="-4.000451">
        <ele>1330.515152</ele>
        <time>2021-09-15T21:45:15.000Z</time>
      </trkpt>
      <trkpt lat="40.876035" lon="-4.000425">
        <ele>1329.795473</ele>
        <time>2021-09-15T21:45:15.000Z</time>
      </trkpt>
      <trkpt lat="40.876068" lon="-4.000419">
        <ele>1329.470072</ele>
        <time>2021-09-15T21:45:15.000Z</time>
      </trkpt>
      <trkpt lat="40.876103" lon="-4.000413">
        <ele>1329.125306</ele>
        <time>2021-09-15T21:45:15.000Z</time>
      </trkpt>
      <trkpt lat="40.876171" lon="-4.000409">
        <ele>1328.460374</ele>
        <time>2021-09-15T21:45:15.000Z</time>
      </trkpt>
      <trkpt lat="40.876247" lon="-4.000463">
        <ele>1327.617587</ele>
        <time>2021-09-15T21:45:15.000Z</time>
      </trkpt>
      <trkpt lat="40.876269" lon="-4.00046"/>
      <trkpt lat="40.876293" lon="-4.00045"/>
      <trkpt lat="40.87637" lon="-4.000461"/>
      <trkpt lat="40.876398" lon="-4.000471">
        <ele>1326.115832</ele>
        <time>2021-09-15T21:45:15.000Z</time>
      </trkpt>
      <trkpt lat="40.876541" lon="-4.000561">
        <ele>1324.568789</ele>
        <time>2021-09-15T21:45:15.000Z</time>
      </trkpt>
      <trkpt lat="40.876644" lon="-4.000681">
        <ele>1323.273918</ele>
        <time>2021-09-15T21:45:15.000Z</time>
      </trkpt>
      <trkpt lat="40.876694" lon="-4.000762">
        <ele>1322.546585</ele>
        <time>2021-09-15T21:45:15.000Z</time>
      </trkpt>
      <trkpt lat="40.876737" lon="-4.000861">
        <ele>1321.752431</ele>
        <time>2021-09-15T21:45:15.000Z</time>
      </trkpt>
      <trkpt lat="40.87677" lon="-4.000979"/>
      <trkpt lat="40.876779" lon="-4.001024">
        <ele>1320.553528</ele>
        <time>2021-09-15T21:45:15.000Z</time>
      </trkpt>
      <trkpt lat="40.876808" lon="-4.001174">
        <ele>1319.476592</ele>
        <time>2021-09-15T21:45:15.000Z</time>
      </trkpt>
      <trkpt lat="40.876828" lon="-4.00124"/>
      <trkpt lat="40.87686" lon="-4.00134"/>
      <trkpt lat="40.876911" lon="-4.001431">
        <ele>1317.438812</ele>
        <time>2021-09-15T21:45:15.000Z</time>
      </trkpt>
      <trkpt lat="40.876977" lon="-4.00151"/>
      <trkpt lat="40.877075" lon="-4.001599">
        <ele>1315.526290</ele>
        <time>2021-09-15T21:45:15.000Z</time>
      </trkpt>
      <trkpt lat="40.877102" lon="-4.00162"/>
      <trkpt lat="40.877204" lon="-4.001698">
        <ele>1314.154245</ele>
        <time>2021-09-15T21:45:15.000Z</time>
      </trkpt>
      <trkpt lat="40.87723" lon="-4.001709"/>
      <trkpt lat="40.877313" lon="-4.001726">
        <ele>1313.130474</ele>
        <time>2021-09-15T21:45:15.000Z</time>
      </trkpt>
      <trkpt lat="40.877362" lon="-4.001729">
        <ele>1312.679223</ele>
        <time>2021-09-15T21:45:15.000Z</time>
      </trkpt>
      <trkpt lat="40.877433" lon="-4.001753">
        <ele>1312.005073</ele>
        <time>2021-09-15T21:45:15.000Z</time>
      </trkpt>
      <trkpt lat="40.877479" lon="-4.001775">
        <ele>1311.555084</ele>
        <time>2021-09-15T21:45:15.000Z</time>
      </trkpt>
      <trkpt lat="40.87753" lon="-4.001789"/>
      <trkpt lat="40.877628" lon="-4.001812">
        <ele>1310.160297</ele>
        <time>2021-09-15T21:45:15.000Z</time>
      </trkpt>
      <trkpt lat="40.877651" lon="-4.001819">
        <ele>1309.943182</ele>
        <time>2021-09-15T21:45:15.000Z</time>
      </trkpt>
      <trkpt lat="40.877767" lon="-4.001855">
        <ele>1308.847073</ele>
        <time>2021-09-15T21:45:15.000Z</time>
      </trkpt>
      <trkpt lat="40.87787" lon="-4.001901"/>
      <trkpt lat="40.877914" lon="-4.001926">
        <ele>1307.399997</ele>
        <time>2021-09-15T21:45:15.000Z</time>
      </trkpt>
      <trkpt lat="40.878004" lon="-4.001969">
        <ele>1306.432469</ele>
        <time>2021-09-15T21:45:15.000Z</time>
      </trkpt>
      <trkpt lat="40.878041" lon="-4.001983">
        <ele>1306.043361</ele>
        <time>2021-09-15T21:45:15.000Z</time>
      </trkpt>
      <trkpt lat="40.878081" lon="-4.002003">
        <ele>1305.610992</ele>
        <time>2021-09-15T21:45:15.000Z</time>
      </trkpt>
      <trkpt lat="40.878191" lon="-4.002035">
        <ele>1304.472218</ele>
        <time>2021-09-15T21:45:15.000Z</time>
      </trkpt>
      <trkpt lat="40.878213" lon="-4.00204"/>
      <trkpt lat="40.878305" lon="-4.002072">
        <ele>1303.284696</ele>
        <time>2021-09-15T21:45:15.000Z</time>
      </trkpt>
      <trkpt lat="40.878374" lon="-4.00208"/>
      <trkpt lat="40.87842" lon="-4.002096"/>
      <trkpt lat="40.878462" lon="-4.002101">
        <ele>1301.677093</ele>
        <time>2021-09-15T21:45:15.000Z</time>
      </trkpt>
      <trkpt lat="40.878558" lon="-4.002099">
        <ele>1300.706336</ele>
        <time>2021-09-15T21:45:15.000Z</time>
      </trkpt>
      <trkpt lat="40.878663" lon="-4.002091">
        <ele>1299.642942</ele>
        <time>2021-09-15T21:45:15.000Z</time>
      </trkpt>
      <trkpt lat="40.878709" lon="-4.002072">
        <ele>1299.155693</ele>
        <time>2021-09-15T21:45:15.000Z</time>
      </trkpt>
      <trkpt lat="40.878776" lon="-4.002047">
        <ele>1298.451826</ele>
        <time>2021-09-15T21:45:15.000Z</time>
      </trkpt>
      <trkpt lat="40.878857" lon="-4.00204"/>
      <trkpt lat="40.878877" lon="-4.002038">
        <ele>1297.428311</ele>
        <time>2021-09-15T21:45:15.000Z</time>
      </trkpt>
      <trkpt lat="40.878957" lon="-4.002048">
        <ele>1296.615843</ele>
        <time>2021-09-15T21:45:15.000Z</time>
      </trkpt>
      <trkpt lat="40.878995" lon="-4.002068">
        <ele>1296.202329</ele>
        <time>2021-09-15T21:45:15.000Z</time>
      </trkpt>
      <trkpt lat="40.879032" lon="-4.002103">
        <ele>1295.742392</ele>
        <time>2021-09-15T21:45:15.000Z</time>
      </trkpt>
      <trkpt lat="40.879106" lon="-4.002211">
        <ele>1294.628183</ele>
        <time>2021-09-15T21:45:15.000Z</time>
      </trkpt>
      <trkpt lat="40.879121" lon="-4.002233">
        <ele>1294.401717</ele>
        <time>2021-09-15T21:45:15.000Z</time>
      </trkpt>
      <trkpt lat="40.879202" lon="-4.002415">
        <ele>1292.787242</ele>
        <time>2021-09-15T21:45:15.000Z</time>
      </trkpt>
      <trkpt lat="40.879226" lon="-4.002464">
        <ele>1292.340923</ele>
        <time>2021-09-15T21:45:15.000Z</time>
      </trkpt>
      <trkpt lat="40.879261" lon="-4.00252"/>
      <trkpt lat="40.879296" lon="-4.002569">
        <ele>1291.270182</ele>
        <time>2021-09-15T21:45:15.000Z</time>
      </trkpt>
      <trkpt lat="40.879355" lon="-4.002618">
        <ele>1290.565787</ele>
        <time>2021-09-15T21:45:15.000Z</time>
      </trkpt>
      <trkpt lat="40.879375" lon="-4.002628">
        <ele>1290.349603</ele>
        <time>2021-09-15T21:45:15.000Z</time>
      </trkpt>
      <trkpt lat="40.87946" lon="-4.002649"/>
      <trkpt lat="40.879525" lon="-4.002651">
        <ele>1288.790370</ele>
        <time>2021-09-15T21:45:15.000Z</time>
      </trkpt>
      <trkpt lat="40.879598" lon="-4.002637">
        <ele>1288.000602</ele>
        <time>2021-09-15T21:45:15.000Z</time>
      </trkpt>
      <trkpt lat="40.879645" lon="-4.002627">
        <ele>1287.490914</ele>
        <time>2021-09-15T21:45:15.000Z</time>
      </trkpt>
      <trkpt lat="40.879725" lon="-4.002644">
        <ele>1286.623387</ele>
        <time>2021-09-15T21:45:15.000Z</time>
      </trkpt>
      <trkpt lat="40.879746" lon="-4.002652">
        <ele>1286.389404</ele>
        <time>2021-09-15T21:45:15.000Z</time>
      </trkpt>
      <trkpt lat="40.879808" lon="-4.002684">
        <ele>1285.676829</ele>
        <time>2021-09-15T21:45:15.000Z</time>
      </trkpt>
      <trkpt lat="40.87988" lon="-4.002761"/>
      <trkpt lat="40.879909" lon="-4.002805">
        <ele>1284.212938</ele>
        <time>2021-09-15T21:45:15.000Z</time>
      </trkpt>
      <trkpt lat="40.879978" lon="-4.002883">
        <ele>1283.241096</ele>
        <time>2021-09-15T21:45:15.000Z</time>
      </trkpt>
      <trkpt lat="40.88001" lon="-4.002918"/>
      <trkpt lat="40.880084" lon="-4.00301"/>
      <trkpt lat="40.880145" lon="-4.00312"/>
      <trkpt lat="40.880192" lon="-4.003193">
        <ele>1279.828636</ele>
        <time>2021-09-15T21:45:15.000Z</time>
      </trkpt>
      <trkpt lat="40.880251" lon="-4.003291">
        <ele>1278.814530</ele>
        <time>2021-09-15T21:45:15.000Z</time>
      </trkpt>
      <trkpt lat="40.880277" lon="-4.003344">
        <ele>1278.303089</ele>
        <time>2021-09-15T21:45:15.000Z</time>
      </trkpt>
      <trkpt lat="40.88032" lon="-4.003403"/>
      <trkpt lat="40.880372" lon="-4.003477">
        <ele>1276.821891</ele>
        <time>2021-09-15T21:45:15.000Z</time>
      </trkpt>
      <trkpt lat="40.880405" lon="-4.003522">
        <ele>1276.314408</ele>
        <time>2021-09-15T21:45:15.000Z</time>
      </trkpt>
      <trkpt lat="40.880489" lon="-4.003607">
        <ele>1275.182008</ele>
        <time>2021-09-15T21:45:15.000Z</time>
      </trkpt>
      <trkpt lat="40.880544" lon="-4.003647">
        <ele>1274.509981</ele>
        <time>2021-09-15T21:45:15.000Z</time>
      </trkpt>
      <trkpt lat="40.880584" lon="-4.003665">
        <ele>1274.057601</ele>
        <time>2021-09-15T21:45:15.000Z</time>
      </trkpt>
      <trkpt lat="40.880659" lon="-4.003693">
        <ele>1273.223216</ele>
        <time>2021-09-15T21:45:15.000Z</time>
      </trkpt>
      <trkpt lat="40.880688" lon="-4.003704">
        <ele>1272.900203</ele>
        <time>2021-09-15T21:45:15.000Z</time>
      </trkpt>
      <trkpt lat="40.880705" lon="-4.003714">
        <ele>1272.700998</ele>
        <time>2021-09-15T21:45:15.000Z</time>
      </trkpt>
      <trkpt lat="40.880721" lon="-4.003727">
        <ele>1272.499948</ele>
        <time>2021-09-15T21:45:15.000Z</time>
      </trkpt>
      <trkpt lat="40.880751" lon="-4.003747">
        <ele>1272.140248</ele>
        <time>2021-09-15T21:45:15.000Z</time>
      </trkpt>
      <trkpt lat="40.880771" lon="-4.003753">
        <ele>1271.920674</ele>
        <time>2021-09-15T21:45:15.000Z</time>
      </trkpt>
      <trkpt lat="40.88081" lon="-4.003769"/>
      <trkpt lat="40.880886" lon="-4.00382"/>
      <trkpt lat="40.880903" lon="-4.003835">
        <ele>1270.352226</ele>
        <time>2021-09-15T21:45:15.000Z</time>
      </trkpt>
      <trkpt lat="40.880949" lon="-4.003893">
        <ele>1269.695582</ele>
        <time>2021-09-15T21:45:15.000Z</time>
      </trkpt>
      <trkpt lat="40.880963" lon="-4.003912">
        <ele>1269.495167</ele>
        <time>2021-09-15T21:45:15.000Z</time>
      </trkpt>
      <trkpt lat="40.881022" lon="-4.003972">
        <ele>1268.751579</ele>
        <time>2021-09-15T21:45:15.000Z</time>
      </trkpt>
      <trkpt lat="40.881093" lon="-4.004056">
        <ele>1267.799810</ele>
        <time>2021-09-15T21:45:15.000Z</time>
      </trkpt>
      <trkpt lat="40.881107" lon="-4.004073">
        <ele>1267.609922</ele>
        <time>2021-09-15T21:45:15.000Z</time>
      </trkpt>
      <trkpt lat="40.881121" lon="-4.004091">
        <ele>1267.414846</ele>
        <time>2021-09-15T21:45:15.000Z</time>
      </trkpt>
      <trkpt lat="40.881164" lon="-4.004167">
        <ele>1266.697783</ele>
        <time>2021-09-15T21:45:15.000Z</time>
      </trkpt>
      <trkpt lat="40.881183" lon="-4.0042"/>
      <trkpt lat="40.881283" lon="-4.00428"/>
      <trkpt lat="40.881322" lon="-4.004307">
        <ele>1264.776962</ele>
        <time>2021-09-15T21:45:15.000Z</time>
      </trkpt>
      <trkpt lat="40.88138" lon="-4.004336"/>
      <trkpt lat="40.881475" lon="-4.004358">
        <ele>1263.193835</ele>
        <time>2021-09-15T21:45:15.000Z</time>
      </trkpt>
      <trkpt lat="40.881499" lon="-4.004366">
        <ele>1262.946547</ele>
        <time>2021-09-15T21:45:15.000Z</time>
      </trkpt>
      <trkpt lat="40.881563" lon="-4.004384">
        <ele>1262.292809</ele>
        <time>2021-09-15T21:45:15.000Z</time>
      </trkpt>
      <trkpt lat="40.881617" lon="-4.004407">
        <ele>1261.725996</ele>
        <time>2021-09-15T21:45:15.000Z</time>
      </trkpt>
      <trkpt lat="40.881668" lon="-4.004411">
        <ele>1261.215547</ele>
        <time>2021-09-15T21:45:15.000Z</time>
      </trkpt>
      <trkpt lat="40.881741" lon="-4.004409">
        <ele>1260.486028</ele>
        <time>2021-09-15T21:45:15.000Z</time>
      </trkpt>
      <trkpt lat="40.881762" lon="-4.004408">
        <ele>1260.276076</ele>
        <time>2021-09-15T21:45:15.000Z</time>
      </trkpt>
      <trkpt lat="40.881855" lon="-4.004401">
        <ele>1259.345385</ele>
        <time>2021-09-15T21:45:15.000Z</time>
      </trkpt>
      <trkpt lat="40.881901" lon="-4.004385">
        <ele>1258.870161</ele>
        <time>2021-09-15T21:45:15.000Z</time>
      </trkpt>
      <trkpt lat="40.882019" lon="-4.004341">
        <ele>1257.645236</ele>
        <time>2021-09-15T21:45:15.000Z</time>
      </trkpt>
      <trkpt lat="40.882043" lon="-4.004336">
        <ele>1257.402489</ele>
        <time>2021-09-15T21:45:15.000Z</time>
      </trkpt>
      <trkpt lat="40.882134" lon="-4.004344">
        <ele>1256.491279</ele>
        <time>2021-09-15T21:45:15.000Z</time>
      </trkpt>
      <trkpt lat="40.882209" lon="-4.004362">
        <ele>1255.729698</ele>
        <time>2021-09-15T21:45:15.000Z</time>
      </trkpt>
      <trkpt lat="40.882265" lon="-4.004376">
        <ele>1255.160280</ele>
        <time>2021-09-15T21:45:15.000Z</time>
      </trkpt>
      <trkpt lat="40.882342" lon="-4.004404">
        <ele>1254.362408</ele>
        <time>2021-09-15T21:45:15.000Z</time>
      </trkpt>
      <trkpt lat="40.882421" lon="-4.004428">
        <ele>1253.552545</ele>
        <time>2021-09-15T21:45:15.000Z</time>
      </trkpt>
      <trkpt lat="40.882499" lon="-4.004462">
        <ele>1252.731996</ele>
        <time>2021-09-15T21:45:15.000Z</time>
      </trkpt>
      <trkpt lat="40.882564" lon="-4.004493">
        <ele>1252.057292</ele>
        <time>2021-09-15T21:45:15.000Z</time>
      </trkpt>
      <trkpt lat="40.882608" lon="-4.004523">
        <ele>1252.057292</ele>
        <time>2021-09-15T21:45:15.000Z</time>
      </trkpt>
      <trkpt lat="40.882685" lon="-4.004576">
        <ele>1252.057292</ele>
        <time>2021-09-15T21:45:15.000Z</time>
      </trkpt>
      <trkpt lat="40.882705" lon="-4.00459"/>
      <trkpt lat="40.88276" lon="-4.004642"/>
      <trkpt lat="40.882819" lon="-4.004687">
        <ele>1252.057292</ele>
        <time>2021-09-15T21:45:15.000Z</time>
      </trkpt>
      <trkpt lat="40.882838" lon="-4.004701">
        <ele>1252.057292</ele>
        <time>2021-09-15T21:45:15.000Z</time>
      </trkpt>
      <trkpt lat="40.882879" lon="-4.004728">
        <ele>1252.057292</ele>
        <time>2021-09-15T21:45:15.000Z</time>
      </trkpt>
      <trkpt lat="40.882952" lon="-4.004753">
        <ele>1252.057292</ele>
        <time>2021-09-15T21:45:15.000Z</time>
      </trkpt>
      <trkpt lat="40.882979" lon="-4.004758">
        <ele>1252.057292</ele>
        <time>2021-09-15T21:45:15.000Z</time>
      </trkpt>
      <trkpt lat="40.883066" lon="-4.004793">
        <ele>1252.057292</ele>
        <time>2021-09-15T21:45:15.000Z</time>
      </trkpt>
      <trkpt lat="40.883146" lon="-4.004825">
        <ele>1252.057292</ele>
        <time>2021-09-15T21:45:15.000Z</time>
      </trkpt>
      <trkpt lat="40.88317" lon="-4.004833"/>
      <trkpt lat="40.883258" lon="-4.004858">
        <ele>1252.057292</ele>
        <time>2021-09-15T21:45:15.000Z</time>
      </trkpt>
      <trkpt lat="40.883396" lon="-4.004919">
        <ele>1252.057292</ele>
        <time>2021-09-15T21:45:15.000Z</time>
      </trkpt>
      <trkpt lat="40.88344" lon="-4.004938"/>
      <trkpt lat="40.88336" lon="-4.004769"/>
      <trkpt lat="40.883459" lon="-4.004766">
        <ele>1244.899085</ele>
        <time>2021-09-14T23:00:07.000Z</time>
      </trkpt>
      <trkpt lat="40.883519" lon="-4.00471"/>
      <trkpt lat="40.883511" lon="-4.004669">
        <ele>1244.899085</ele>
        <time>2021-09-14T23:00:11.000Z</time>
      </trkpt>
      <trkpt lat="40.883543" lon="-4.004573">
        <ele>1244.899085</ele>
        <time>2021-09-14T23:00:14.000Z</time>
      </trkpt>
      <trkpt lat="40.883562" lon="-4.004548">
        <ele>1244.899085</ele>
        <time>2021-09-14T23:00:15.000Z</time>
      </trkpt>
      <trkpt lat="40.883603" lon="-4.004503">
        <ele>1244.899085</ele>
        <time>2021-09-14T23:00:17.000Z</time>
      </trkpt>
      <trkpt lat="40.883673" lon="-4.004458">
        <ele>1244.899085</ele>
        <time>2021-09-14T23:00:20.000Z</time>
      </trkpt>
      <trkpt lat="40.883751" lon="-4.004439">
        <ele>1244.899085</ele>
        <time>2021-09-14T23:00:23.000Z</time>
      </trkpt>
      <trkpt lat="40.883842" lon="-4.004426">
        <ele>1244.899085</ele>
        <time>2021-09-14T23:00:26.000Z</time>
      </trkpt>
      <trkpt lat="40.883965" lon="-4.004394">
        <ele>1244.899085</ele>
        <time>2021-09-14T23:00:31.000Z</time>
      </trkpt>
      <trkpt lat="40.884058" lon="-4.004343">
        <ele>1244.899085</ele>
        <time>2021-09-14T23:00:35.000Z</time>
      </trkpt>
      <trkpt lat="40.884081" lon="-4.004324">
        <ele>1244.899085</ele>
        <time>2021-09-14T23:00:36.000Z</time>
      </trkpt>
      <trkpt lat="40.8842" lon="-4.004231"/>
      <trkpt lat="40.884224" lon="-4.00421"/>
      <trkpt lat="40.884303" lon="-4.004118">
        <ele>1246.582658</ele>
        <time>2021-09-14T23:00:46.000Z</time>
      </trkpt>
      <trkpt lat="40.88432" lon="-4.004096"/>
      <trkpt lat="40.884408" lon="-4.003942">
        <ele>1247.845394</ele>
        <time>2021-09-14T23:00:52.000Z</time>
      </trkpt>
      <trkpt lat="40.88442" lon="-4.003909"/>
      <trkpt lat="40.884432" lon="-4.003733">
        <ele>1249.045330</ele>
        <time>2021-09-14T23:00:58.000Z</time>
      </trkpt>
      <trkpt lat="40.884359" lon="-4.003658">
        <ele>1249.733024</ele>
        <time>2021-09-14T23:01:02.000Z</time>
      </trkpt>
      <trkpt lat="40.884262" lon="-4.003648">
        <ele>1250.456871</ele>
        <time>2021-09-14T23:01:06.000Z</time>
      </trkpt>
      <trkpt lat="40.884239" lon="-4.003649">
        <ele>1250.628079</ele>
        <time>2021-09-14T23:01:07.000Z</time>
      </trkpt>
      <trkpt lat="40.884151" lon="-4.003655">
        <ele>1251.283649</ele>
        <time>2021-09-14T23:01:11.000Z</time>
      </trkpt>
      <trkpt lat="40.884077" lon="-4.003672">
        <ele>1251.842435</ele>
        <time>2021-09-14T23:01:14.000Z</time>
      </trkpt>
      <trkpt lat="40.88402" lon="-4.003684"/>
      <trkpt lat="40.883942" lon="-4.00368"/>
      <trkpt lat="40.883876" lon="-4.003662">
        <ele>1253.353935</ele>
        <time>2021-09-14T23:01:22.000Z</time>
      </trkpt>
      <trkpt lat="40.883829" lon="-4.003653">
        <ele>1253.707251</ele>
        <time>2021-09-14T23:01:24.000Z</time>
      </trkpt>
      <trkpt lat="40.883747" lon="-4.003606">
        <ele>1254.372130</ele>
        <time>2021-09-14T23:01:28.000Z</time>
      </trkpt>
      <trkpt lat="40.883679" lon="-4.003567">
        <ele>1254.923548</ele>
        <time>2021-09-14T23:01:31.000Z</time>
      </trkpt>
      <trkpt lat="40.883576" lon="-4.003528">
        <ele>1255.720626</ele>
        <time>2021-09-14T23:01:35.000Z</time>
      </trkpt>
      <trkpt lat="40.883551" lon="-4.003517">
        <ele>1255.916642</ele>
        <time>2021-09-14T23:01:36.000Z</time>
      </trkpt>
      <trkpt lat="40.883416" lon="-4.003453">
        <ele>1256.983577</ele>
        <time>2021-09-14T23:01:41.000Z</time>
      </trkpt>
      <trkpt lat="40.883366" lon="-4.00343"/>
      <trkpt lat="40.883269" lon="-4.003389">
        <ele>1258.135033</ele>
        <time>2021-09-14T23:01:47.000Z</time>
      </trkpt>
      <trkpt lat="40.883247" lon="-4.003382">
        <ele>1258.303690</ele>
        <time>2021-09-14T23:01:48.000Z</time>
      </trkpt>
      <trkpt lat="40.883111" lon="-4.003354">
        <ele>1259.341765</ele>
        <time>2021-09-14T23:01:54.000Z</time>
      </trkpt>
      <trkpt lat="40.883085" lon="-4.00335"/>
      <trkpt lat="40.882917" lon="-4.003331">
        <ele>1260.810875</ele>
        <time>2021-09-14T23:02:00.000Z</time>
      </trkpt>
      <trkpt lat="40.882752" lon="-4.003286">
        <ele>1262.081497</ele>
        <time>2021-09-14T23:02:05.000Z</time>
      </trkpt>
      <trkpt lat="40.88269" lon="-4.003259"/>
      <trkpt lat="40.882597" lon="-4.003215">
        <ele>1263.318736</ele>
        <time>2021-09-14T23:02:10.000Z</time>
      </trkpt>
      <trkpt lat="40.882474" lon="-4.003142">
        <ele>1264.335524</ele>
        <time>2021-09-14T23:02:14.000Z</time>
      </trkpt>
      <trkpt lat="40.882416" lon="-4.003088">
        <ele>1264.870472</ele>
        <time>2021-09-14T23:02:16.000Z</time>
      </trkpt>
      <trkpt lat="40.882351" lon="-4.002988">
        <ele>1265.622459</ele>
        <time>2021-09-14T23:02:19.000Z</time>
      </trkpt>
      <trkpt lat="40.882311" lon="-4.002912">
        <ele>1266.150495</ele>
        <time>2021-09-14T23:02:21.000Z</time>
      </trkpt>
      <trkpt lat="40.882279" lon="-4.002815">
        <ele>1266.753973</ele>
        <time>2021-09-14T23:02:23.000Z</time>
      </trkpt>
      <trkpt lat="40.882238" lon="-4.002614">
        <ele>1267.941104</ele>
        <time>2021-09-14T23:02:27.000Z</time>
      </trkpt>
      <trkpt lat="40.88223" lon="-4.002558"/>
      <trkpt lat="40.882204" lon="-4.002284">
        <ele>1269.840752</ele>
        <time>2021-09-14T23:02:33.000Z</time>
      </trkpt>
      <trkpt lat="40.882199" lon="-4.002224">
        <ele>1270.184958</ele>
        <time>2021-09-14T23:02:34.000Z</time>
      </trkpt>
      <trkpt lat="40.882187" lon="-4.00206"/>
      <trkpt lat="40.882162" lon="-4.001872">
        <ele>1272.306939</ele>
        <time>2021-09-14T23:02:41.000Z</time>
      </trkpt>
      <trkpt lat="40.882135" lon="-4.001777">
        <ele>1273.033897</ele>
        <time>2021-09-14T23:02:43.000Z</time>
      </trkpt>
      <trkpt lat="40.882076" lon="-4.001626">
        <ele>1274.251381</ele>
        <time>2021-09-14T23:02:46.000Z</time>
      </trkpt>
      <trkpt lat="40.882051" lon="-4.00158"/>
      <trkpt lat="40.882023" lon="-4.00154"/>
      <trkpt lat="40.881966" lon="-4.001461">
        <ele>1275.829810</ele>
        <time>2021-09-14T23:02:50.000Z</time>
      </trkpt>
      <trkpt lat="40.881883" lon="-4.00135"/>
      <trkpt lat="40.881828" lon="-4.001287">
        <ele>1277.637359</ele>
        <time>2021-09-14T23:02:55.000Z</time>
      </trkpt>
      <trkpt lat="40.881745" lon="-4.001201">
        <ele>1278.636251</ele>
        <time>2021-09-14T23:02:58.000Z</time>
      </trkpt>
      <trkpt lat="40.881625" lon="-4.001066">
        <ele>1280.128744</ele>
        <time>2021-09-14T23:03:02.000Z</time>
      </trkpt>
      <trkpt lat="40.881496" lon="-4.000964">
        <ele>1281.552615</ele>
        <time>2021-09-14T23:03:06.000Z</time>
      </trkpt>
      <trkpt lat="40.88143" lon="-4.000935"/>
      <trkpt lat="40.881398" lon="-4.000914">
        <ele>1282.549925</ele>
        <time>2021-09-14T23:03:09.000Z</time>
      </trkpt>
      <trkpt lat="40.881294" lon="-4.000859">
        <ele>1283.611054</ele>
        <time>2021-09-14T23:03:12.000Z</time>
      </trkpt>
      <trkpt lat="40.881201" lon="-4.000806">
        <ele>1284.570436</ele>
        <time>2021-09-14T23:03:15.000Z</time>
      </trkpt>
      <trkpt lat="40.881102" lon="-4.000753">
        <ele>1285.582271</ele>
        <time>2021-09-14T23:03:18.000Z</time>
      </trkpt>
      <trkpt lat="40.881003" lon="-4.000708">
        <ele>1286.574030</ele>
        <time>2021-09-14T23:03:21.000Z</time>
      </trkpt>
      <trkpt lat="40.880882" lon="-4.000652">
        <ele>1287.788527</ele>
        <time>2021-09-14T23:03:25.000Z</time>
      </trkpt>
      <trkpt lat="40.880791" lon="-4.000585">
        <ele>1288.775230</ele>
        <time>2021-09-14T23:03:28.000Z</time>
      </trkpt>
      <trkpt lat="40.880759" lon="-4.000565">
        <ele>1289.169684</ele>
        <time>2021-09-14T23:03:29.000Z</time>
      </trkpt>
      <trkpt lat="40.880693" lon="-4.000521">
        <ele>1290.054588</ele>
        <time>2021-09-14T23:03:31.000Z</time>
      </trkpt>
      <trkpt lat="40.880595" lon="-4.000442">
        <ele>1291.428669</ele>
        <time>2021-09-14T23:03:34.000Z</time>
      </trkpt>
      <trkpt lat="40.880542" lon="-4.000387">
        <ele>1292.235227</ele>
        <time>2021-09-14T23:03:36.000Z</time>
      </trkpt>
      <trkpt lat="40.880518" lon="-4.000358">
        <ele>1292.624434</ele>
        <time>2021-09-14T23:03:37.000Z</time>
      </trkpt>
      <trkpt lat="40.880456" lon="-4.000282">
        <ele>1293.636524</ele>
        <time>2021-09-14T23:03:40.000Z</time>
      </trkpt>
      <trkpt lat="40.880416" lon="-4.000198">
        <ele>1294.535161</ele>
        <time>2021-09-14T23:03:43.000Z</time>
      </trkpt>
      <trkpt lat="40.880408" lon="-4.000162">
        <ele>1294.874827</ele>
        <time>2021-09-14T23:03:44.000Z</time>
      </trkpt>
      <trkpt lat="40.8804" lon="-3.999981"/>
      <trkpt lat="40.880403" lon="-3.999944">
        <ele>1296.852943</ele>
        <time>2021-09-14T23:03:50.000Z</time>
      </trkpt>
      <trkpt lat="40.880401" lon="-3.999828">
        <ele>1297.903281</ele>
        <time>2021-09-14T23:03:53.000Z</time>
      </trkpt>
      <trkpt lat="40.880403" lon="-3.999685">
        <ele>1299.197980</ele>
        <time>2021-09-14T23:03:57.000Z</time>
      </trkpt>
      <trkpt lat="40.880394" lon="-3.999543">
        <ele>1300.487913</ele>
        <time>2021-09-14T23:04:01.000Z</time>
      </trkpt>
      <trkpt lat="40.880377" lon="-3.999412">
        <ele>1301.691103</ele>
        <time>2021-09-14T23:04:05.000Z</time>
      </trkpt>
      <trkpt lat="40.880367" lon="-3.999321">
        <ele>1302.523517</ele>
        <time>2021-09-14T23:04:08.000Z</time>
      </trkpt>
      <trkpt lat="40.880363" lon="-3.999227">
        <ele>1303.375779</ele>
        <time>2021-09-14T23:04:11.000Z</time>
      </trkpt>
      <trkpt lat="40.88036" lon="-3.999167"/>
      <trkpt lat="40.880359" lon="-3.999134">
        <ele>1304.219068</ele>
        <time>2021-09-14T23:04:14.000Z</time>
      </trkpt>
      <trkpt lat="40.880355" lon="-3.999029">
        <ele>1305.170764</ele>
        <time>2021-09-14T23:04:17.000Z</time>
      </trkpt>
      <trkpt lat="40.880358" lon="-3.998889">
        <ele>1306.438594</ele>
        <time>2021-09-14T23:04:21.000Z</time>
      </trkpt>
      <trkpt lat="40.88035" lon="-3.998772"/>
      <trkpt lat="40.880337" lon="-3.998667">
        <ele>1308.465185</ele>
        <time>2021-09-14T23:04:27.000Z</time>
      </trkpt>
      <trkpt lat="40.880323" lon="-3.998607">
        <ele>1309.033599</ele>
        <time>2021-09-14T23:04:29.000Z</time>
      </trkpt>
      <trkpt lat="40.880318" lon="-3.998574">
        <ele>1309.338264</ele>
        <time>2021-09-14T23:04:30.000Z</time>
      </trkpt>
      <trkpt lat="40.8803" lon="-3.998472"/>
      <trkpt lat="40.880287" lon="-3.998364">
        <ele>1311.242299</ele>
        <time>2021-09-14T23:04:36.000Z</time>
      </trkpt>
      <trkpt lat="40.880267" lon="-3.998268">
        <ele>1312.107800</ele>
        <time>2021-09-14T23:04:39.000Z</time>
      </trkpt>
      <trkpt lat="40.880257" lon="-3.998154">
        <ele>1313.105301</ele>
        <time>2021-09-14T23:04:42.000Z</time>
      </trkpt>
      <trkpt lat="40.880228" lon="-3.997991">
        <ele>1314.560747</ele>
        <time>2021-09-14T23:04:46.000Z</time>
      </trkpt>
      <trkpt lat="40.880203" lon="-3.997876">
        <ele>1315.600791</ele>
        <time>2021-09-14T23:04:49.000Z</time>
      </trkpt>
      <trkpt lat="40.880186" lon="-3.99781"/>
      <trkpt lat="40.88018" lon="-3.997737"/>
      <trkpt lat="40.88017" lon="-3.997587"/>
      <trkpt lat="40.88016" lon="-3.997545"/>
      <trkpt lat="40.880149" lon="-3.997333">
        <ele>1320.383576</ele>
        <time>2021-09-14T23:05:02.000Z</time>
      </trkpt>
      <trkpt lat="40.880148" lon="-3.997275">
        <ele>1320.887827</ele>
        <time>2021-09-14T23:05:03.000Z</time>
      </trkpt>
      <trkpt lat="40.880147" lon="-3.997118">
        <ele>1322.252477</ele>
        <time>2021-09-14T23:05:06.000Z</time>
      </trkpt>
      <trkpt lat="40.880166" lon="-3.997026">
        <ele>1323.081410</ele>
        <time>2021-09-14T23:05:08.000Z</time>
      </trkpt>
      <trkpt lat="40.880183" lon="-3.996986">
        <ele>1323.480241</ele>
        <time>2021-09-14T23:05:09.000Z</time>
      </trkpt>
      <trkpt lat="40.880234" lon="-3.996928">
        <ele>1324.253459</ele>
        <time>2021-09-14T23:05:11.000Z</time>
      </trkpt>
      <trkpt lat="40.880267" lon="-3.996908">
        <ele>1324.670751</ele>
        <time>2021-09-14T23:05:12.000Z</time>
      </trkpt>
      <trkpt lat="40.880302" lon="-3.996892">
        <ele>1325.096459</ele>
        <time>2021-09-14T23:05:13.000Z</time>
      </trkpt>
      <trkpt lat="40.880368" lon="-3.99687"/>
      <trkpt lat="40.880432" lon="-3.996865">
        <ele>1326.615917</ele>
        <time>2021-09-14T23:05:17.000Z</time>
      </trkpt>
      <trkpt lat="40.880492" lon="-3.996857">
        <ele>1327.309160</ele>
        <time>2021-09-14T23:05:19.000Z</time>
      </trkpt>
      <trkpt lat="40.880568" lon="-3.996837">
        <ele>1328.199965</ele>
        <time>2021-09-14T23:05:21.000Z</time>
      </trkpt>
      <trkpt lat="40.880606" lon="-3.996819">
        <ele>1328.663975</ele>
        <time>2021-09-14T23:05:22.000Z</time>
      </trkpt>
      <trkpt lat="40.880641" lon="-3.996793">
        <ele>1329.125446</ele>
        <time>2021-09-14T23:05:23.000Z</time>
      </trkpt>
      <trkpt lat="40.880721" lon="-3.996678">
        <ele>1330.483702</ele>
        <time>2021-09-14T23:05:26.000Z</time>
      </trkpt>
      <trkpt lat="40.880778" lon="-3.996512">
        <ele>1331.781800</ele>
        <time>2021-09-14T23:05:30.000Z</time>
      </trkpt>
      <trkpt lat="40.880783" lon="-3.99648"/>
      <trkpt lat="40.880804" lon="-3.996372">
        <ele>1332.665081</ele>
        <time>2021-09-14T23:05:34.000Z</time>
      </trkpt>
      <trkpt lat="40.880847" lon="-3.996244">
        <ele>1333.523096</ele>
        <time>2021-09-14T23:05:37.000Z</time>
      </trkpt>
      <trkpt lat="40.880867" lon="-3.996204">
        <ele>1333.816861</ele>
        <time>2021-09-14T23:05:38.000Z</time>
      </trkpt>
      <trkpt lat="40.880938" lon="-3.996062">
        <ele>1334.859727</ele>
        <time>2021-09-14T23:05:42.000Z</time>
      </trkpt>
      <trkpt lat="40.880959" lon="-3.996038">
        <ele>1335.084590</ele>
        <time>2021-09-14T23:05:43.000Z</time>
      </trkpt>
      <trkpt lat="40.881068" lon="-3.995916">
        <ele>1336.241501</ele>
        <time>2021-09-14T23:05:47.000Z</time>
      </trkpt>
      <trkpt lat="40.881127" lon="-3.99586"/>
      <trkpt lat="40.881238" lon="-3.995759">
        <ele>1337.921477</ele>
        <time>2021-09-14T23:05:53.000Z</time>
      </trkpt>
      <trkpt lat="40.88129" lon="-3.99569"/>
      <trkpt lat="40.881373" lon="-3.995597">
        <ele>1339.399614</ele>
        <time>2021-09-14T23:05:58.000Z</time>
      </trkpt>
      <trkpt lat="40.88148" lon="-3.995485"/>
      <trkpt lat="40.881508" lon="-3.995459">
        <ele>1340.782361</ele>
        <time>2021-09-14T23:06:03.000Z</time>
      </trkpt>
      <trkpt lat="40.881597" lon="-3.995373">
        <ele>1341.675389</ele>
        <time>2021-09-14T23:06:06.000Z</time>
      </trkpt>
      <trkpt lat="40.881685" lon="-3.995305">
        <ele>1342.501138</ele>
        <time>2021-09-14T23:06:09.000Z</time>
      </trkpt>
      <trkpt lat="40.881747" lon="-3.995263">
        <ele>1343.065521</ele>
        <time>2021-09-14T23:06:11.000Z</time>
      </trkpt>
      <trkpt lat="40.881781" lon="-3.995242">
        <ele>1343.369549</ele>
        <time>2021-09-14T23:06:12.000Z</time>
      </trkpt>
      <trkpt lat="40.881908" lon="-3.99516"/>
      <trkpt lat="40.882016" lon="-3.995068">
        <ele>1345.555382</ele>
        <time>2021-09-14T23:06:20.000Z</time>
      </trkpt>
      <trkpt lat="40.882044" lon="-3.995046">
        <ele>1345.835191</ele>
        <time>2021-09-14T23:06:21.000Z</time>
      </trkpt>
      <trkpt lat="40.882198" lon="-3.994946">
        <ele>1347.374150</ele>
        <time>2021-09-14T23:06:26.000Z</time>
      </trkpt>
      <trkpt lat="40.882281" lon="-3.994889">
        <ele>1348.213079</ele>
        <time>2021-09-14T23:06:29.000Z</time>
      </trkpt>
      <trkpt lat="40.882386" lon="-3.994806">
        <ele>1349.310374</ele>
        <time>2021-09-14T23:06:33.000Z</time>
      </trkpt>
      <trkpt lat="40.882481" lon="-3.994719">
        <ele>1350.346903</ele>
        <time>2021-09-14T23:06:37.000Z</time>
      </trkpt>
      <trkpt lat="40.882553" lon="-3.99465"/>
      <trkpt lat="40.882654" lon="-3.994553">
        <ele>1352.264162</ele>
        <time>2021-09-14T23:06:44.000Z</time>
      </trkpt>
      <trkpt lat="40.882725" lon="-3.994479">
        <ele>1353.075043</ele>
        <time>2021-09-14T23:06:47.000Z</time>
      </trkpt>
      <trkpt lat="40.882769" lon="-3.994425">
        <ele>1353.613482</ele>
        <time>2021-09-14T23:06:49.000Z</time>
      </trkpt>
      <trkpt lat="40.882883" lon="-3.994237">
        <ele>1355.247956</ele>
        <time>2021-09-14T23:06:55.000Z</time>
      </trkpt>
      <trkpt lat="40.88294" lon="-3.994059"/>
      <trkpt lat="40.882958" lon="-3.993992">
        <ele>1357.041230</ele>
        <time>2021-09-14T23:07:02.000Z</time>
      </trkpt>
      <trkpt lat="40.882967" lon="-3.993958">
        <ele>1357.285547</ele>
        <time>2021-09-14T23:07:03.000Z</time>
      </trkpt>
      <trkpt lat="40.882991" lon="-3.993847">
        <ele>1358.068541</ele>
        <time>2021-09-14T23:07:06.000Z</time>
      </trkpt>
      <trkpt lat="40.883017" lon="-3.993704">
        <ele>1359.066032</ele>
        <time>2021-09-14T23:07:10.000Z</time>
      </trkpt>
      <trkpt lat="40.883016" lon="-3.993673">
        <ele>1359.276469</ele>
        <time>2021-09-14T23:07:11.000Z</time>
      </trkpt>
      <trkpt lat="40.883033" lon="-3.993523">
        <ele>1360.305151</ele>
        <time>2021-09-14T23:07:15.000Z</time>
      </trkpt>
      <trkpt lat="40.88305" lon="-3.993415"/>
      <trkpt lat="40.883057" lon="-3.993377">
        <ele>1361.318584</ele>
        <time>2021-09-14T23:07:19.000Z</time>
      </trkpt>
      <trkpt lat="40.883099" lon="-3.99319"/>
      <trkpt lat="40.883117" lon="-3.99311"/>
      <trkpt lat="40.883138" lon="-3.993006">
        <ele>1364.208148</ele>
        <time>2021-09-14T23:07:29.000Z</time>
      </trkpt>
      <trkpt lat="40.883158" lon="-3.992933">
        <ele>1364.801512</ele>
        <time>2021-09-14T23:07:31.000Z</time>
      </trkpt>
      <trkpt lat="40.883174" lon="-3.992859">
        <ele>1365.389690</ele>
        <time>2021-09-14T23:07:33.000Z</time>
      </trkpt>
      <trkpt lat="40.883192" lon="-3.992743">
        <ele>1366.294639</ele>
        <time>2021-09-14T23:07:36.000Z</time>
      </trkpt>
      <trkpt lat="40.883195" lon="-3.992707">
        <ele>1366.571417</ele>
        <time>2021-09-14T23:07:37.000Z</time>
      </trkpt>
      <trkpt lat="40.8832" lon="-3.992636"/>
      <trkpt lat="40.883205" lon="-3.992536">
        <ele>1367.882214</ele>
        <time>2021-09-14T23:07:42.000Z</time>
      </trkpt>
      <trkpt lat="40.883204" lon="-3.992461">
        <ele>1368.455452</ele>
        <time>2021-09-14T23:07:44.000Z</time>
      </trkpt>
      <trkpt lat="40.883201" lon="-3.992427">
        <ele>1368.717043</ele>
        <time>2021-09-14T23:07:45.000Z</time>
      </trkpt>
      <trkpt lat="40.883198" lon="-3.992289">
        <ele>1369.772073</ele>
        <time>2021-09-14T23:07:49.000Z</time>
      </trkpt>
      <trkpt lat="40.883194" lon="-3.992232">
        <ele>1370.209539</ele>
        <time>2021-09-14T23:07:51.000Z</time>
      </trkpt>
      <trkpt lat="40.883191" lon="-3.992204">
        <ele>1370.425653</ele>
        <time>2021-09-14T23:07:52.000Z</time>
      </trkpt>
      <trkpt lat="40.883177" lon="-3.992079">
        <ele>1371.391326</ele>
        <time>2021-09-14T23:07:56.000Z</time>
      </trkpt>
      <trkpt lat="40.883168" lon="-3.992018">
        <ele>1371.866281</ele>
        <time>2021-09-14T23:07:58.000Z</time>
      </trkpt>
      <trkpt lat="40.883165" lon="-3.991983">
        <ele>1372.135464</ele>
        <time>2021-09-14T23:07:59.000Z</time>
      </trkpt>
      <trkpt lat="40.883167" lon="-3.991838">
        <ele>1373.243737</ele>
        <time>2021-09-14T23:08:03.000Z</time>
      </trkpt>
      <trkpt lat="40.883175" lon="-3.991763">
        <ele>1373.822562</ele>
        <time>2021-09-14T23:08:05.000Z</time>
      </trkpt>
      <trkpt lat="40.883191" lon="-3.991645">
        <ele>1374.738704</ele>
        <time>2021-09-14T23:08:08.000Z</time>
      </trkpt>
      <trkpt lat="40.883233" lon="-3.991496">
        <ele>1375.953925</ele>
        <time>2021-09-14T23:08:12.000Z</time>
      </trkpt>
      <trkpt lat="40.883242" lon="-3.991463">
        <ele>1376.222017</ele>
        <time>2021-09-14T23:08:13.000Z</time>
      </trkpt>
      <trkpt lat="40.883292" lon="-3.991319">
        <ele>1377.432967</ele>
        <time>2021-09-14T23:08:17.000Z</time>
      </trkpt>
      <trkpt lat="40.883332" lon="-3.991236">
        <ele>1378.185154</ele>
        <time>2021-09-14T23:08:19.000Z</time>
      </trkpt>
      <trkpt lat="40.883359" lon="-3.991189">
        <ele>1378.636248</ele>
        <time>2021-09-14T23:08:20.000Z</time>
      </trkpt>
      <trkpt lat="40.883435" lon="-3.991036">
        <ele>1380.038151</ele>
        <time>2021-09-14T23:08:23.000Z</time>
      </trkpt>
      <trkpt lat="40.883495" lon="-3.990932">
        <ele>1381.096332</ele>
        <time>2021-09-14T23:08:25.000Z</time>
      </trkpt>
      <trkpt lat="40.88365" lon="-3.990664"/>
      <trkpt lat="40.883721" lon="-3.99056"/>
      <trkpt lat="40.883788" lon="-3.990462">
        <ele>1386.027857</ele>
        <time>2021-09-14T23:08:34.000Z</time>
      </trkpt>
      <trkpt lat="40.883852" lon="-3.990375">
        <ele>1387.009728</ele>
        <time>2021-09-14T23:08:36.000Z</time>
      </trkpt>
      <trkpt lat="40.883906" lon="-3.990297">
        <ele>1387.865205</ele>
        <time>2021-09-14T23:08:38.000Z</time>
      </trkpt>
      <trkpt lat="40.883928" lon="-3.990262">
        <ele>1388.233376</ele>
        <time>2021-09-14T23:08:39.000Z</time>
      </trkpt>
      <trkpt lat="40.883951" lon="-3.990228">
        <ele>1388.602410</ele>
        <time>2021-09-14T23:08:40.000Z</time>
      </trkpt>
      <trkpt lat="40.883992" lon="-3.990157">
        <ele>1389.325069</ele>
        <time>2021-09-14T23:08:42.000Z</time>
      </trkpt>
      <trkpt lat="40.88403" lon="-3.990086"/>
      <trkpt lat="40.884057" lon="-3.990028">
        <ele>1390.579653</ele>
        <time>2021-09-14T23:08:46.000Z</time>
      </trkpt>
      <trkpt lat="40.884101" lon="-3.989944">
        <ele>1391.406247</ele>
        <time>2021-09-14T23:08:50.000Z</time>
      </trkpt>
      <trkpt lat="40.884132" lon="-3.989861">
        <ele>1392.155065</ele>
        <time>2021-09-14T23:08:53.000Z</time>
      </trkpt>
      <trkpt lat="40.884166" lon="-3.989784">
        <ele>1392.876340</ele>
        <time>2021-09-14T23:08:55.000Z</time>
      </trkpt>
      <trkpt lat="40.884178" lon="-3.98975"/>
      <trkpt lat="40.884216" lon="-3.989654">
        <ele>1394.056353</ele>
        <time>2021-09-14T23:08:59.000Z</time>
      </trkpt>
      <trkpt lat="40.884264" lon="-3.98953"/>
      <trkpt lat="40.884291" lon="-3.989455">
        <ele>1395.855091</ele>
        <time>2021-09-14T23:09:06.000Z</time>
      </trkpt>
      <trkpt lat="40.884302" lon="-3.989435">
        <ele>1396.055143</ele>
        <time>2021-09-14T23:09:07.000Z</time>
      </trkpt>
      <trkpt lat="40.884318" lon="-3.989383">
        <ele>1396.509254</ele>
        <time>2021-09-14T23:09:09.000Z</time>
      </trkpt>
      <trkpt lat="40.88437" lon="-3.989258"/>
      <trkpt lat="40.884387" lon="-3.989226">
        <ele>1397.979642</ele>
        <time>2021-09-14T23:09:13.000Z</time>
      </trkpt>
      <trkpt lat="40.884437" lon="-3.98913"/>
      <trkpt lat="40.884511" lon="-3.988974">
        <ele>1400.514179</ele>
        <time>2021-09-14T23:09:18.000Z</time>
      </trkpt>
      <trkpt lat="40.884529" lon="-3.988936">
        <ele>1400.908149</ele>
        <time>2021-09-14T23:09:19.000Z</time>
      </trkpt>
      <trkpt lat="40.88456" lon="-3.988859"/>
      <trkpt lat="40.884603" lon="-3.98873"/>
      <trkpt lat="40.884619" lon="-3.98869"/>
      <trkpt lat="40.884634" lon="-3.988655">
        <ele>1403.664247</ele>
        <time>2021-09-14T23:09:26.000Z</time>
      </trkpt>
      <trkpt lat="40.884698" lon="-3.988484">
        <ele>1405.340602</ele>
        <time>2021-09-14T23:09:30.000Z</time>
      </trkpt>
      <trkpt lat="40.884711" lon="-3.988441">
        <ele>1405.747469</ele>
        <time>2021-09-14T23:09:31.000Z</time>
      </trkpt>
      <trkpt lat="40.88474" lon="-3.988351"/>
      <trkpt lat="40.884788" lon="-3.988225">
        <ele>1407.846576</ele>
        <time>2021-09-14T23:09:36.000Z</time>
      </trkpt>
      <trkpt lat="40.884818" lon="-3.988167">
        <ele>1408.463986</ele>
        <time>2021-09-14T23:09:38.000Z</time>
      </trkpt>
      <trkpt lat="40.884842" lon="-3.988138">
        <ele>1408.841740</ele>
        <time>2021-09-14T23:09:39.000Z</time>
      </trkpt>
      <trkpt lat="40.88489" lon="-3.988059"/>
      <trkpt lat="40.884915" lon="-3.987986">
        <ele>1410.436248</ele>
        <time>2021-09-14T23:09:45.000Z</time>
      </trkpt>
      <trkpt lat="40.884955" lon="-3.987892">
        <ele>1411.383923</ele>
        <time>2021-09-14T23:09:48.000Z</time>
      </trkpt>
      <trkpt lat="40.885011" lon="-3.98776"/>
      <trkpt lat="40.885044" lon="-3.987662">
        <ele>1413.656260</ele>
        <time>2021-09-14T23:09:55.000Z</time>
      </trkpt>
      <trkpt lat="40.885064" lon="-3.987551">
        <ele>1414.658772</ele>
        <time>2021-09-14T23:09:59.000Z</time>
      </trkpt>
      <trkpt lat="40.885069" lon="-3.987523">
        <ele>1414.911537</ele>
        <time>2021-09-14T23:10:00.000Z</time>
      </trkpt>
      <trkpt lat="40.885096" lon="-3.987393">
        <ele>1416.095975</ele>
        <time>2021-09-14T23:10:05.000Z</time>
      </trkpt>
      <trkpt lat="40.885091" lon="-3.987348">
        <ele>1416.495573</ele>
        <time>2021-09-14T23:10:07.000Z</time>
      </trkpt>
      <trkpt lat="40.885092" lon="-3.987251">
        <ele>1417.347853</ele>
        <time>2021-09-14T23:10:10.000Z</time>
      </trkpt>
      <trkpt lat="40.88509" lon="-3.987216"/>
      <trkpt lat="40.885081" lon="-3.987071">
        <ele>1418.934419</ele>
        <time>2021-09-14T23:10:15.000Z</time>
      </trkpt>
      <trkpt lat="40.885058" lon="-3.986975">
        <ele>1419.819171</ele>
        <time>2021-09-14T23:10:18.000Z</time>
      </trkpt>
      <trkpt lat="40.885051" lon="-3.986945">
        <ele>1420.095006</ele>
        <time>2021-09-14T23:10:19.000Z</time>
      </trkpt>
      <trkpt lat="40.885024" lon="-3.986788">
        <ele>1421.783959</ele>
        <time>2021-09-14T23:10:24.000Z</time>
      </trkpt>
      <trkpt lat="40.885018" lon="-3.986648">
        <ele>1423.261042</ele>
        <time>2021-09-14T23:10:28.000Z</time>
      </trkpt>
      <trkpt lat="40.885022" lon="-3.986544">
        <ele>1424.357962</ele>
        <time>2021-09-14T23:10:31.000Z</time>
      </trkpt>
      <trkpt lat="40.885028" lon="-3.986416">
        <ele>1425.708863</ele>
        <time>2021-09-14T23:10:35.000Z</time>
      </trkpt>
      <trkpt lat="40.885027" lon="-3.986385">
        <ele>1426.035704</ele>
        <time>2021-09-14T23:10:36.000Z</time>
      </trkpt>
      <trkpt lat="40.885013" lon="-3.986265">
        <ele>1427.314708</ele>
        <time>2021-09-14T23:10:40.000Z</time>
      </trkpt>
      <trkpt lat="40.885011" lon="-3.986206">
        <ele>1427.936820</ele>
        <time>2021-09-14T23:10:42.000Z</time>
      </trkpt>
      <trkpt lat="40.88501" lon="-3.986176"/>
      <trkpt lat="40.884998" lon="-3.986091">
        <ele>1429.163978</ele>
        <time>2021-09-14T23:10:46.000Z</time>
      </trkpt>
      <trkpt lat="40.885002" lon="-3.986037">
        <ele>1429.735521</ele>
        <time>2021-09-14T23:10:48.000Z</time>
      </trkpt>
      <trkpt lat="40.885006" lon="-3.985979">
        <ele>1430.349011</ele>
        <time>2021-09-14T23:10:50.000Z</time>
      </trkpt>
      <trkpt lat="40.885009" lon="-3.985922">
        <ele>1430.950884</ele>
        <time>2021-09-14T23:10:52.000Z</time>
      </trkpt>
      <trkpt lat="40.885008" lon="-3.98581"/>
      <trkpt lat="40.885012" lon="-3.985732">
        <ele>1432.954255</ele>
        <time>2021-09-14T23:10:59.000Z</time>
      </trkpt>
      <trkpt lat="40.885025" lon="-3.985626">
        <ele>1434.085421</ele>
        <time>2021-09-14T23:11:03.000Z</time>
      </trkpt>
      <trkpt lat="40.88504" lon="-3.98552"/>
      <trkpt lat="40.885055" lon="-3.98542"/>
      <trkpt lat="40.885078" lon="-3.98533"/>
      <trkpt lat="40.885095" lon="-3.985252">
        <ele>1438.151098</ele>
        <time>2021-09-14T23:11:18.000Z</time>
      </trkpt>
      <trkpt lat="40.885112" lon="-3.98517"/>
      <trkpt lat="40.885122" lon="-3.98505"/>
      <trkpt lat="40.885126" lon="-3.984969">
        <ele>1441.173488</ele>
        <time>2021-09-14T23:11:30.000Z</time>
      </trkpt>
      <trkpt lat="40.885129" lon="-3.984877">
        <ele>1442.143486</ele>
        <time>2021-09-14T23:11:34.000Z</time>
      </trkpt>
      <trkpt lat="40.88513" lon="-3.984807"/>
      <trkpt lat="40.885131" lon="-3.984748">
        <ele>1443.502617</ele>
        <time>2021-09-14T23:11:40.000Z</time>
      </trkpt>
      <trkpt lat="40.88512" lon="-3.984683"/>
      <trkpt lat="40.885114" lon="-3.984617">
        <ele>1444.904479</ele>
        <time>2021-09-14T23:11:46.000Z</time>
      </trkpt>
      <trkpt lat="40.885111" lon="-3.984597">
        <ele>1445.119259</ele>
        <time>2021-09-14T23:11:47.000Z</time>
      </trkpt>
      <trkpt lat="40.885094" lon="-3.984528">
        <ele>1445.569189</ele>
        <time>2021-09-14T23:11:50.000Z</time>
      </trkpt>
      <trkpt lat="40.885073" lon="-3.984462">
        <ele>1445.980961</ele>
        <time>2021-09-14T23:11:53.000Z</time>
      </trkpt>
      <trkpt lat="40.885051" lon="-3.98442"/>
      <trkpt lat="40.885031" lon="-3.984321">
        <ele>1446.864053</ele>
        <time>2021-09-14T23:11:59.000Z</time>
      </trkpt>
      <trkpt lat="40.885027" lon="-3.984295">
        <ele>1447.016628</ele>
        <time>2021-09-14T23:12:00.000Z</time>
      </trkpt>
      <trkpt lat="40.885024" lon="-3.984185">
        <ele>1447.649589</ele>
        <time>2021-09-14T23:12:04.000Z</time>
      </trkpt>
      <trkpt lat="40.885037" lon="-3.984112">
        <ele>1448.080860</ele>
        <time>2021-09-14T23:12:06.000Z</time>
      </trkpt>
      <trkpt lat="40.885043" lon="-3.984009">
        <ele>1448.674911</ele>
        <time>2021-09-14T23:12:09.000Z</time>
      </trkpt>
      <trkpt lat="40.885067" lon="-3.983832">
        <ele>1449.708980</ele>
        <time>2021-09-14T23:12:13.000Z</time>
      </trkpt>
      <trkpt lat="40.885058" lon="-3.983737">
        <ele>1450.259544</ele>
        <time>2021-09-14T23:12:16.000Z</time>
      </trkpt>
      <trkpt lat="40.885049" lon="-3.98366"/>
      <trkpt lat="40.885009" lon="-3.983472">
        <ele>1451.830668</ele>
        <time>2021-09-14T23:12:23.000Z</time>
      </trkpt>
      <trkpt lat="40.884994" lon="-3.983375">
        <ele>1452.400010</ele>
        <time>2021-09-14T23:12:25.000Z</time>
      </trkpt>
      <trkpt lat="40.884961" lon="-3.983163">
        <ele>1453.644677</ele>
        <time>2021-09-14T23:12:29.000Z</time>
      </trkpt>
      <trkpt lat="40.884919" lon="-3.983013">
        <ele>1454.564502</ele>
        <time>2021-09-14T23:12:32.000Z</time>
      </trkpt>
      <trkpt lat="40.884801" lon="-3.982822">
        <ele>1455.982916</ele>
        <time>2021-09-14T23:12:37.000Z</time>
      </trkpt>
      <trkpt lat="40.884696" lon="-3.982666">
        <ele>1457.183990</ele>
        <time>2021-09-14T23:12:41.000Z</time>
      </trkpt>
      <trkpt lat="40.884638" lon="-3.982609">
        <ele>1457.733588</ele>
        <time>2021-09-14T23:12:43.000Z</time>
      </trkpt>
      <trkpt lat="40.884566" lon="-3.982434">
        <ele>1458.871186</ele>
        <time>2021-09-14T23:12:47.000Z</time>
      </trkpt>
      <trkpt lat="40.884493" lon="-3.982125">
        <ele>1458.705538</ele>
        <time>2021-09-14T23:12:53.000Z</time>
      </trkpt>
      <trkpt lat="40.884432" lon="-3.981846">
        <ele>1458.556930</ele>
        <time>2021-09-14T23:12:59.000Z</time>
      </trkpt>
      <trkpt lat="40.884385" lon="-3.981626">
        <ele>1458.439952</ele>
        <time>2021-09-14T23:13:04.000Z</time>
      </trkpt>
      <trkpt lat="40.884353" lon="-3.981558">
        <ele>1458.398968</ele>
        <time>2021-09-14T23:13:07.000Z</time>
      </trkpt>
      <trkpt lat="40.88434" lon="-3.98154"/>
      <trkpt lat="40.884337" lon="-3.981533">
        <ele>1458.382114</ele>
        <time>2021-09-14T23:13:10.000Z</time>
      </trkpt>
      <trkpt lat="40.884339" lon="-3.981496">
        <ele>1458.363133</ele>
        <time>2021-09-14T23:18:34.000Z</time>
      </trkpt>
      <trkpt lat="40.884346" lon="-3.981515">
        <ele>1458.352318</ele>
        <time>2021-09-14T23:18:37.000Z</time>
      </trkpt>
      <trkpt lat="40.884346" lon="-3.981508">
        <ele>1458.348737</ele>
        <time>2021-09-14T23:18:39.000Z</time>
      </trkpt>
      <trkpt lat="40.884323" lon="-3.981635">
        <ele>1458.281915</ele>
        <time>2021-09-14T23:19:07.000Z</time>
      </trkpt>
      <trkpt lat="40.884342" lon="-3.98169"/>
      <trkpt lat="40.884427" lon="-3.981901">
        <ele>1458.128639</ele>
        <time>2021-09-14T23:19:14.000Z</time>
      </trkpt>
      <trkpt lat="40.88455" lon="-3.982252"/>
      <trkpt lat="40.884627" lon="-3.982402">
        <ele>1457.837913</ele>
        <time>2021-09-14T23:19:24.000Z</time>
      </trkpt>
      <trkpt lat="40.884686" lon="-3.982512">
        <ele>1457.768903</ele>
        <time>2021-09-14T23:19:26.000Z</time>
      </trkpt>
      <trkpt lat="40.884713" lon="-3.982566">
        <ele>1457.735776</ele>
        <time>2021-09-14T23:19:27.000Z</time>
      </trkpt>
      <trkpt lat="40.884857" lon="-3.982851">
        <ele>1458.624903</ele>
        <time>2021-09-14T23:19:32.000Z</time>
      </trkpt>
      <trkpt lat="40.884885" lon="-3.982923">
        <ele>1459.051883</ele>
        <time>2021-09-14T23:19:33.000Z</time>
      </trkpt>
      <trkpt lat="40.884964" lon="-3.983265">
        <ele>1460.937727</ele>
        <time>2021-09-14T23:19:37.000Z</time>
      </trkpt>
      <trkpt lat="40.885046" lon="-3.98364"/>
      <trkpt lat="40.885053" lon="-3.9838"/>
      <trkpt lat="40.885043" lon="-3.983818">
        <ele>1463.959312</ele>
        <time>2021-09-14T23:19:46.000Z</time>
      </trkpt>
      <trkpt lat="40.885019" lon="-3.983804">
        <ele>1464.142276</ele>
        <time>2021-09-14T23:19:49.000Z</time>
      </trkpt>
      <trkpt lat="40.885017" lon="-3.983792">
        <ele>1464.207077</ele>
        <time>2021-09-14T23:19:50.000Z</time>
      </trkpt>
      <trkpt lat="40.885012" lon="-3.983776">
        <ele>1464.298377</ele>
        <time>2021-09-14T23:19:51.000Z</time>
      </trkpt>
      <trkpt lat="40.884991" lon="-3.983696">
        <ele>1464.744964</ele>
        <time>2021-09-14T23:19:55.000Z</time>
      </trkpt>
      <trkpt lat="40.884927" lon="-3.983528">
        <ele>1465.737030</ele>
        <time>2021-09-14T23:20:03.000Z</time>
      </trkpt>
      <trkpt lat="40.884895" lon="-3.983476">
        <ele>1466.090612</ele>
        <time>2021-09-14T23:20:07.000Z</time>
      </trkpt>
      <trkpt lat="40.88489" lon="-3.98346"/>
      <trkpt lat="40.884874" lon="-3.983434">
        <ele>1466.358704</ele>
        <time>2021-09-14T23:20:10.000Z</time>
      </trkpt>
      <trkpt lat="40.88486" lon="-3.983369"/>
      <trkpt lat="40.884857" lon="-3.983355">
        <ele>1466.791858</ele>
        <time>2021-09-14T23:20:15.000Z</time>
      </trkpt>
      <trkpt lat="40.884834" lon="-3.983333">
        <ele>1466.989844</ele>
        <time>2021-09-14T23:20:17.000Z</time>
      </trkpt>
      <trkpt lat="40.884823" lon="-3.983327">
        <ele>1467.072840</ele>
        <time>2021-09-14T23:20:18.000Z</time>
      </trkpt>
      <trkpt lat="40.884792" lon="-3.983309">
        <ele>1467.308992</ele>
        <time>2021-09-14T23:20:21.000Z</time>
      </trkpt>
      <trkpt lat="40.884783" lon="-3.983302">
        <ele>1467.381819</ele>
        <time>2021-09-14T23:20:22.000Z</time>
      </trkpt>
      <trkpt lat="40.88476" lon="-3.983295"/>
      <trkpt lat="40.88474" lon="-3.983309"/>
      <trkpt lat="40.884731" lon="-3.98332"/>
      <trkpt lat="40.884716" lon="-3.983338">
        <ele>1467.931028</ele>
        <time>2021-09-14T23:20:29.000Z</time>
      </trkpt>
      <trkpt lat="40.884683" lon="-3.98338"/>
      <trkpt lat="40.884667" lon="-3.983416">
        <ele>1468.470690</ele>
        <time>2021-09-14T23:20:36.000Z</time>
      </trkpt>
      <trkpt lat="40.88466" lon="-3.983434"/>
      <trkpt lat="40.884642" lon="-3.983488">
        <ele>1468.888656</ele>
        <time>2021-09-14T23:20:42.000Z</time>
      </trkpt>
      <trkpt lat="40.884628" lon="-3.98353"/>
      <trkpt lat="40.884623" lon="-3.983544">
        <ele>1469.212369</ele>
        <time>2021-09-14T23:20:46.000Z</time>
      </trkpt>
      <trkpt lat="40.884604" lon="-3.983616">
        <ele>1469.614528</ele>
        <time>2021-09-14T23:20:51.000Z</time>
      </trkpt>
      <trkpt lat="40.884598" lon="-3.98363"/>
      <trkpt lat="40.88458" lon="-3.983687"/>
      <trkpt lat="40.884568" lon="-3.983739">
        <ele>1470.378074</ele>
        <time>2021-09-14T23:20:58.000Z</time>
      </trkpt>
      <trkpt lat="40.884563" lon="-3.983758">
        <ele>1470.547297</ele>
        <time>2021-09-14T23:20:59.000Z</time>
      </trkpt>
      <trkpt lat="40.884546" lon="-3.983841">
        <ele>1471.270619</ele>
        <time>2021-09-14T23:21:03.000Z</time>
      </trkpt>
      <trkpt lat="40.884527" lon="-3.983923">
        <ele>1471.992030</ele>
        <time>2021-09-14T23:21:07.000Z</time>
      </trkpt>
      <trkpt lat="40.884497" lon="-3.984001">
        <ele>1472.728149</ele>
        <time>2021-09-14T23:21:11.000Z</time>
      </trkpt>
      <trkpt lat="40.884453" lon="-3.984073">
        <ele>1473.506888</ele>
        <time>2021-09-14T23:21:15.000Z</time>
      </trkpt>
      <trkpt lat="40.884446" lon="-3.984092">
        <ele>1473.684674</ele>
        <time>2021-09-14T23:21:16.000Z</time>
      </trkpt>
      <trkpt lat="40.884411" lon="-3.984169">
        <ele>1474.440409</ele>
        <time>2021-09-14T23:21:20.000Z</time>
      </trkpt>
      <trkpt lat="40.884386" lon="-3.984233">
        <ele>1475.046357</ele>
        <time>2021-09-14T23:21:23.000Z</time>
      </trkpt>
      <trkpt lat="40.884367" lon="-3.984277">
        <ele>1475.472580</ele>
        <time>2021-09-14T23:21:25.000Z</time>
      </trkpt>
      <trkpt lat="40.884329" lon="-3.984366">
        <ele>1476.332341</ele>
        <time>2021-09-14T23:21:29.000Z</time>
      </trkpt>
      <trkpt lat="40.884283" lon="-3.984451">
        <ele>1477.211618</ele>
        <time>2021-09-14T23:21:33.000Z</time>
      </trkpt>
      <trkpt lat="40.884242" lon="-3.984538">
        <ele>1478.073952</ele>
        <time>2021-09-14T23:21:37.000Z</time>
      </trkpt>
      <trkpt lat="40.884209" lon="-3.9846"/>
      <trkpt lat="40.884195" lon="-3.984643">
        <ele>1479.105557</ele>
        <time>2021-09-14T23:21:42.000Z</time>
      </trkpt>
      <trkpt lat="40.884151" lon="-3.984735">
        <ele>1480.021260</ele>
        <time>2021-09-14T23:21:46.000Z</time>
      </trkpt>
      <trkpt lat="40.884139" lon="-3.984757">
        <ele>1480.249449</ele>
        <time>2021-09-14T23:21:47.000Z</time>
      </trkpt>
      <trkpt lat="40.884103" lon="-3.984836">
        <ele>1481.025338</ele>
        <time>2021-09-14T23:21:51.000Z</time>
      </trkpt>
      <trkpt lat="40.884095" lon="-3.984861">
        <ele>1481.253688</ele>
        <time>2021-09-14T23:21:52.000Z</time>
      </trkpt>
      <trkpt lat="40.884061" lon="-3.984964">
        <ele>1482.199061</ele>
        <time>2021-09-14T23:21:56.000Z</time>
      </trkpt>
      <trkpt lat="40.88405" lon="-3.985012"/>
      <trkpt lat="40.884042" lon="-3.985094">
        <ele>1483.316426</ele>
        <time>2021-09-14T23:22:01.000Z</time>
      </trkpt>
      <trkpt lat="40.884035" lon="-3.985163">
        <ele>1483.902026</ele>
        <time>2021-09-14T23:22:04.000Z</time>
      </trkpt>
      <trkpt lat="40.88402" lon="-3.985225"/>
      <trkpt lat="40.883995" lon="-3.985323">
        <ele>1485.319592</ele>
        <time>2021-09-14T23:22:09.000Z</time>
      </trkpt>
      <trkpt lat="40.883971" lon="-3.985388">
        <ele>1485.928065</ele>
        <time>2021-09-14T23:22:11.000Z</time>
      </trkpt>
      <trkpt lat="40.883913" lon="-3.985531">
        <ele>1487.293084</ele>
        <time>2021-09-14T23:22:16.000Z</time>
      </trkpt>
      <trkpt lat="40.883901" lon="-3.985555">
        <ele>1487.535117</ele>
        <time>2021-09-14T23:22:17.000Z</time>
      </trkpt>
      <trkpt lat="40.883853" lon="-3.985658">
        <ele>1488.552880</ele>
        <time>2021-09-14T23:22:21.000Z</time>
      </trkpt>
      <trkpt lat="40.883833" lon="-3.985743">
        <ele>1489.301691</ele>
        <time>2021-09-14T23:22:24.000Z</time>
      </trkpt>
      <trkpt lat="40.883801" lon="-3.985837">
        <ele>1490.168841</ele>
        <time>2021-09-14T23:22:27.000Z</time>
      </trkpt>
      <trkpt lat="40.883762" lon="-3.985922">
        <ele>1490.276517</ele>
        <time>2021-09-14T23:22:30.000Z</time>
      </trkpt>
      <trkpt lat="40.88369" lon="-3.98608"/>
      <trkpt lat="40.88366" lon="-3.986147"/>
      <trkpt lat="40.883587" lon="-3.986329">
        <ele>1490.596435</ele>
        <time>2021-09-14T23:22:42.000Z</time>
      </trkpt>
      <trkpt lat="40.883567" lon="-3.986372">
        <ele>1490.630918</ele>
        <time>2021-09-14T23:22:43.000Z</time>
      </trkpt>
      <trkpt lat="40.883444" lon="-3.986636">
        <ele>1490.842730</ele>
        <time>2021-09-14T23:22:49.000Z</time>
      </trkpt>
      <trkpt lat="40.883301" lon="-3.986912">
        <ele>1491.071268</ele>
        <time>2021-09-14T23:22:54.000Z</time>
      </trkpt>
      <trkpt lat="40.883257" lon="-3.986973">
        <ele>1491.128854</ele>
        <time>2021-09-14T23:22:55.000Z</time>
      </trkpt>
      <trkpt lat="40.883203" lon="-3.987039">
        <ele>1491.195279</ele>
        <time>2021-09-14T23:22:56.000Z</time>
      </trkpt>
      <trkpt lat="40.883145" lon="-3.987093">
        <ele>1491.259359</ele>
        <time>2021-09-14T23:22:57.000Z</time>
      </trkpt>
      <trkpt lat="40.883014" lon="-3.987157">
        <ele>1491.385524</ele>
        <time>2021-09-14T23:22:59.000Z</time>
      </trkpt>
      <trkpt lat="40.882844" lon="-3.987185">
        <ele>1491.540295</ele>
        <time>2021-09-14T23:23:01.000Z</time>
      </trkpt>
      <trkpt lat="40.882669" lon="-3.987211">
        <ele>1491.699391</ele>
        <time>2021-09-14T23:23:03.000Z</time>
      </trkpt>
      <trkpt lat="40.882366" lon="-3.987322">
        <ele>1491.912907</ele>
        <time>2021-09-14T23:23:07.000Z</time>
      </trkpt>
      <trkpt lat="40.882196" lon="-3.987401">
        <ele>1491.997246</ele>
        <time>2021-09-14T23:23:10.000Z</time>
      </trkpt>
      <trkpt lat="40.882148" lon="-3.987431">
        <ele>1492.022096</ele>
        <time>2021-09-14T23:23:11.000Z</time>
      </trkpt>
      <trkpt lat="40.881717" lon="-3.987582">
        <ele>1492.230789</ele>
        <time>2021-09-14T23:23:18.000Z</time>
      </trkpt>
      <trkpt lat="40.881327" lon="-3.98776"/>
      <trkpt lat="40.881027" lon="-3.987905">
        <ele>1492.573399</ele>
        <time>2021-09-14T23:23:29.000Z</time>
      </trkpt>
      <trkpt lat="40.880955" lon="-3.98793"/>
      <trkpt lat="40.880673" lon="-3.988013">
        <ele>1492.883444</ele>
        <time>2021-09-14T23:23:34.000Z</time>
      </trkpt>
      <trkpt lat="40.880273" lon="-3.988116">
        <ele>1493.488121</ele>
        <time>2021-09-14T23:23:40.000Z</time>
      </trkpt>
      <trkpt lat="40.879905" lon="-3.988198">
        <ele>1494.041867</ele>
        <time>2021-09-14T23:23:46.000Z</time>
      </trkpt>
      <trkpt lat="40.879495" lon="-3.988305">
        <ele>1494.661969</ele>
        <time>2021-09-14T23:23:53.000Z</time>
      </trkpt>
      <trkpt lat="40.879189" lon="-3.988356">
        <ele>1495.119612</ele>
        <time>2021-09-14T23:23:59.000Z</time>
      </trkpt>
      <trkpt lat="40.879142" lon="-3.988358">
        <ele>1495.189389</ele>
        <time>2021-09-14T23:24:00.000Z</time>
      </trkpt>
      <trkpt lat="40.878953" lon="-3.988356">
        <ele>1496.394505</ele>
        <time>2021-09-14T23:24:04.000Z</time>
      </trkpt>
      <trkpt lat="40.878768" lon="-3.988332">
        <ele>1498.760974</ele>
        <time>2021-09-14T23:24:09.000Z</time>
      </trkpt>
      <trkpt lat="40.878536" lon="-3.988273">
        <ele>1501.768585</ele>
        <time>2021-09-14T23:24:15.000Z</time>
      </trkpt>
      <trkpt lat="40.878463" lon="-3.988267">
        <ele>1502.699714</ele>
        <time>2021-09-14T23:24:17.000Z</time>
      </trkpt>
      <trkpt lat="40.878342" lon="-3.988269">
        <ele>1504.240240</ele>
        <time>2021-09-14T23:24:20.000Z</time>
      </trkpt>
      <trkpt lat="40.878209" lon="-3.988242">
        <ele>1505.953244</ele>
        <time>2021-09-14T23:24:23.000Z</time>
      </trkpt>
      <trkpt lat="40.87814" lon="-3.988227"/>
      <trkpt lat="40.878113" lon="-3.988215">
        <ele>1507.206061</ele>
        <time>2021-09-14T23:24:26.000Z</time>
      </trkpt>
      <trkpt lat="40.878041" lon="-3.988202">
        <ele>1508.131169</ele>
        <time>2021-09-14T23:24:29.000Z</time>
      </trkpt>
      <trkpt lat="40.87802" lon="-3.988201"/>
      <trkpt lat="40.877982" lon="-3.988188">
        <ele>1508.898371</ele>
        <time>2021-09-14T23:24:32.000Z</time>
      </trkpt>
      <trkpt lat="40.877919" lon="-3.988182">
        <ele>1509.702478</ele>
        <time>2021-09-14T23:24:35.000Z</time>
      </trkpt>
      <trkpt lat="40.877879" lon="-3.988178">
        <ele>1510.213156</ele>
        <time>2021-09-14T23:24:37.000Z</time>
      </trkpt>
      <trkpt lat="40.877849" lon="-3.988149">
        <ele>1510.686215</ele>
        <time>2021-09-14T23:24:39.000Z</time>
      </trkpt>
      <trkpt lat="40.877797" lon="-3.988124">
        <ele>1511.390589</ele>
        <time>2021-09-14T23:24:42.000Z</time>
      </trkpt>
      <trkpt lat="40.877769" lon="-3.988102">
        <ele>1511.805206</ele>
        <time>2021-09-14T23:24:44.000Z</time>
      </trkpt>
      <trkpt lat="40.877743" lon="-3.98809"/>
      <trkpt lat="40.877719" lon="-3.988084">
        <ele>1512.466724</ele>
        <time>2021-09-14T23:24:48.000Z</time>
      </trkpt>
      <trkpt lat="40.877651" lon="-3.988071">
        <ele>1513.341404</ele>
        <time>2021-09-14T23:24:53.000Z</time>
      </trkpt>
      <trkpt lat="40.877601" lon="-3.988042">
        <ele>1514.036455</ele>
        <time>2021-09-14T23:24:57.000Z</time>
      </trkpt>
      <trkpt lat="40.877585" lon="-3.988019">
        <ele>1514.337294</ele>
        <time>2021-09-14T23:24:59.000Z</time>
      </trkpt>
      <trkpt lat="40.877576" lon="-3.988008">
        <ele>1514.493303</ele>
        <time>2021-09-14T23:25:00.000Z</time>
      </trkpt>
      <trkpt lat="40.877559" lon="-3.987979">
        <ele>1514.846518</ele>
        <time>2021-09-14T23:25:02.000Z</time>
      </trkpt>
      <trkpt lat="40.877526" lon="-3.987927">
        <ele>1515.499996</ele>
        <time>2021-09-14T23:25:05.000Z</time>
      </trkpt>
      <trkpt lat="40.877498" lon="-3.987902">
        <ele>1515.930079</ele>
        <time>2021-09-14T23:25:07.000Z</time>
      </trkpt>
      <trkpt lat="40.877494" lon="-3.98788"/>
      <trkpt lat="40.877476" lon="-3.987825">
        <ele>1516.724764</ele>
        <time>2021-09-14T23:25:11.000Z</time>
      </trkpt>
      <trkpt lat="40.877467" lon="-3.98781"/>
      <trkpt lat="40.877441" lon="-3.98776"/>
      <trkpt lat="40.877433" lon="-3.987743">
        <ele>1517.685951</ele>
        <time>2021-09-14T23:25:16.000Z</time>
      </trkpt>
      <trkpt lat="40.877417" lon="-3.987699">
        <ele>1518.155920</ele>
        <time>2021-09-14T23:25:19.000Z</time>
      </trkpt>
      <trkpt lat="40.877408" lon="-3.987669">
        <ele>1518.549548</ele>
        <time>2021-09-14T23:25:21.000Z</time>
      </trkpt>
      <trkpt lat="40.877403" lon="-3.987631">
        <ele>1519.060262</ele>
        <time>2021-09-14T23:25:23.000Z</time>
      </trkpt>
      <trkpt lat="40.877399" lon="-3.987613">
        <ele>1519.308678</ele>
        <time>2021-09-14T23:25:24.000Z</time>
      </trkpt>
      <trkpt lat="40.877376" lon="-3.987566">
        <ele>1520.049965</ele>
        <time>2021-09-14T23:25:27.000Z</time>
      </trkpt>
      <trkpt lat="40.877365" lon="-3.98752"/>
      <trkpt lat="40.877349" lon="-3.987481">
        <ele>1521.276289</ele>
        <time>2021-09-14T23:25:33.000Z</time>
      </trkpt>
      <trkpt lat="40.877334" lon="-3.987436">
        <ele>1521.927460</ele>
        <time>2021-09-14T23:25:36.000Z</time>
      </trkpt>
      <trkpt lat="40.877321" lon="-3.987406">
        <ele>1522.385297</ele>
        <time>2021-09-14T23:25:38.000Z</time>
      </trkpt>
      <trkpt lat="40.877295" lon="-3.987338">
        <ele>1523.394250</ele>
        <time>2021-09-14T23:25:43.000Z</time>
      </trkpt>
      <trkpt lat="40.87729" lon="-3.987327"/>
      <trkpt lat="40.877272" lon="-3.987295">
        <ele>1524.092290</ele>
        <time>2021-09-14T23:25:47.000Z</time>
      </trkpt>
      <trkpt lat="40.877256" lon="-3.987243">
        <ele>1524.835642</ele>
        <time>2021-09-14T23:25:51.000Z</time>
      </trkpt>
      <trkpt lat="40.877249" lon="-3.987235">
        <ele>1524.997651</ele>
        <time>2021-09-14T23:25:52.000Z</time>
      </trkpt>
      <trkpt lat="40.877239" lon="-3.98721"/>
      <trkpt lat="40.877216" lon="-3.987177">
        <ele>1525.966404</ele>
        <time>2021-09-14T23:25:57.000Z</time>
      </trkpt>
      <trkpt lat="40.877209" lon="-3.987165">
        <ele>1526.167084</ele>
        <time>2021-09-14T23:25:58.000Z</time>
      </trkpt>
      <trkpt lat="40.877196" lon="-3.987136">
        <ele>1526.613482</ele>
        <time>2021-09-14T23:26:00.000Z</time>
      </trkpt>
      <trkpt lat="40.877164" lon="-3.987116">
        <ele>1527.233281</ele>
        <time>2021-09-14T23:26:03.000Z</time>
      </trkpt>
      <trkpt lat="40.877127" lon="-3.987043">
        <ele>1528.396943</ele>
        <time>2021-09-14T23:26:08.000Z</time>
      </trkpt>
      <trkpt lat="40.877123" lon="-3.987028">
        <ele>1528.607546</ele>
        <time>2021-09-14T23:26:09.000Z</time>
      </trkpt>
      <trkpt lat="40.877096" lon="-3.986964">
        <ele>1529.577946</ele>
        <time>2021-09-14T23:26:13.000Z</time>
      </trkpt>
      <trkpt lat="40.87708" lon="-3.98693"/>
      <trkpt lat="40.877062" lon="-3.9869"/>
      <trkpt lat="40.877018" lon="-3.986837">
        <ele>1531.750889</ele>
        <time>2021-09-14T23:26:21.000Z</time>
      </trkpt>
      <trkpt lat="40.87701" lon="-3.986823"/>
      <trkpt lat="40.876983" lon="-3.986768">
        <ele>1532.851524</ele>
        <time>2021-09-14T23:26:26.000Z</time>
      </trkpt>
      <trkpt lat="40.876968" lon="-3.98669"/>
      <trkpt lat="40.87696" lon="-3.98665"/>
      <trkpt lat="40.87693" lon="-3.986583"/>
      <trkpt lat="40.876904" lon="-3.986496">
        <ele>1536.734756</ele>
        <time>2021-09-14T23:26:41.000Z</time>
      </trkpt>
      <trkpt lat="40.876894" lon="-3.986464">
        <ele>1537.193228</ele>
        <time>2021-09-14T23:26:43.000Z</time>
      </trkpt>
      <trkpt lat="40.876881" lon="-3.98643"/>
      <trkpt lat="40.876863" lon="-3.986353">
        <ele>1538.764875</ele>
        <time>2021-09-14T23:26:49.000Z</time>
      </trkpt>
      <trkpt lat="40.87686" lon="-3.986338"/>
      <trkpt lat="40.876853" lon="-3.986261">
        <ele>1539.997217</ele>
        <time>2021-09-14T23:26:55.000Z</time>
      </trkpt>
      <trkpt lat="40.876854" lon="-3.986243">
        <ele>1540.236197</ele>
        <time>2021-09-14T23:26:56.000Z</time>
      </trkpt>
      <trkpt lat="40.876858" lon="-3.986155">
        <ele>1541.403505</ele>
        <time>2021-09-14T23:27:00.000Z</time>
      </trkpt>
      <trkpt lat="40.876861" lon="-3.986113">
        <ele>1541.962101</ele>
        <time>2021-09-14T23:27:02.000Z</time>
      </trkpt>
      <trkpt lat="40.87687" lon="-3.986062"/>
      <trkpt lat="40.876883" lon="-3.985977">
        <ele>1543.803813</ele>
        <time>2021-09-14T23:27:09.000Z</time>
      </trkpt>
      <trkpt lat="40.876906" lon="-3.985898">
        <ele>1544.924712</ele>
        <time>2021-09-14T23:27:13.000Z</time>
      </trkpt>
      <trkpt lat="40.876926" lon="-3.985811">
        <ele>1546.128739</ele>
        <time>2021-09-14T23:27:17.000Z</time>
      </trkpt>
      <trkpt lat="40.876953" lon="-3.985729">
        <ele>1547.312980</ele>
        <time>2021-09-14T23:27:21.000Z</time>
      </trkpt>
      <trkpt lat="40.876973" lon="-3.985647">
        <ele>1548.453828</ele>
        <time>2021-09-14T23:27:25.000Z</time>
      </trkpt>
      <trkpt lat="40.876979" lon="-3.985625">
        <ele>1548.763498</ele>
        <time>2021-09-14T23:27:26.000Z</time>
      </trkpt>
      <trkpt lat="40.877001" lon="-3.985548">
        <ele>1549.816124</ele>
        <time>2021-09-14T23:27:30.000Z</time>
      </trkpt>
      <trkpt lat="40.877019" lon="-3.985487">
        <ele>1550.389977</ele>
        <time>2021-09-14T23:27:33.000Z</time>
      </trkpt>
      <trkpt lat="40.877022" lon="-3.985466">
        <ele>1550.577270</ele>
        <time>2021-09-14T23:27:34.000Z</time>
      </trkpt>
      <trkpt lat="40.877037" lon="-3.985383">
        <ele>1551.325146</ele>
        <time>2021-09-14T23:27:38.000Z</time>
      </trkpt>
      <trkpt lat="40.877053" lon="-3.985323">
        <ele>1551.882711</ele>
        <time>2021-09-14T23:27:41.000Z</time>
      </trkpt>
      <trkpt lat="40.877058" lon="-3.985302">
        <ele>1552.075657</ele>
        <time>2021-09-14T23:27:42.000Z</time>
      </trkpt>
      <trkpt lat="40.877078" lon="-3.985203">
        <ele>1552.973696</ele>
        <time>2021-09-14T23:27:47.000Z</time>
      </trkpt>
      <trkpt lat="40.877097" lon="-3.985112">
        <ele>1553.801039</ele>
        <time>2021-09-14T23:27:51.000Z</time>
      </trkpt>
      <trkpt lat="40.877124" lon="-3.985008">
        <ele>1554.764691</ele>
        <time>2021-09-14T23:27:56.000Z</time>
      </trkpt>
      <trkpt lat="40.87715" lon="-3.984931"/>
      <trkpt lat="40.877168" lon="-3.984886">
        <ele>1555.949875</ele>
        <time>2021-09-14T23:28:02.000Z</time>
      </trkpt>
      <trkpt lat="40.877225" lon="-3.984727">
        <ele>1557.491983</ele>
        <time>2021-09-14T23:28:08.000Z</time>
      </trkpt>
      <trkpt lat="40.877247" lon="-3.98466"/>
      <trkpt lat="40.87732" lon="-3.984443"/>
      <trkpt lat="40.877326" lon="-3.984414">
        <ele>1560.477058</ele>
        <time>2021-09-14T23:28:18.000Z</time>
      </trkpt>
      <trkpt lat="40.877373" lon="-3.98423"/>
      <trkpt lat="40.877393" lon="-3.984175">
        <ele>1562.713946</ele>
        <time>2021-09-14T23:28:26.000Z</time>
      </trkpt>
      <trkpt lat="40.87742" lon="-3.984043"/>
      <trkpt lat="40.877419" lon="-3.984023">
        <ele>1564.087985</ele>
        <time>2021-09-14T23:28:32.000Z</time>
      </trkpt>
      <trkpt lat="40.87743" lon="-3.983889"/>
      <trkpt lat="40.877439" lon="-3.983726">
        <ele>1566.701492</ele>
        <time>2021-09-14T23:28:43.000Z</time>
      </trkpt>
      <trkpt lat="40.877438" lon="-3.983664">
        <ele>1567.244961</ele>
        <time>2021-09-14T23:28:46.000Z</time>
      </trkpt>
      <trkpt lat="40.877431" lon="-3.983608">
        <ele>1567.742387</ele>
        <time>2021-09-14T23:28:48.000Z</time>
      </trkpt>
      <trkpt lat="40.877428" lon="-3.983487">
        <ele>1568.803358</ele>
        <time>2021-09-14T23:28:52.000Z</time>
      </trkpt>
      <trkpt lat="40.877425" lon="-3.983431">
        <ele>1569.295352</ele>
        <time>2021-09-14T23:28:54.000Z</time>
      </trkpt>
      <trkpt lat="40.877432" lon="-3.98337"/>
      <trkpt lat="40.877455" lon="-3.983273">
        <ele>1570.761174</ele>
        <time>2021-09-14T23:28:59.000Z</time>
      </trkpt>
      <trkpt lat="40.877464" lon="-3.983236">
        <ele>1571.187019</ele>
        <time>2021-09-14T23:29:00.000Z</time>
      </trkpt>
      <trkpt lat="40.877483" lon="-3.983124">
        <ele>1572.444633</ele>
        <time>2021-09-14T23:29:03.000Z</time>
      </trkpt>
      <trkpt lat="40.877492" lon="-3.983041">
        <ele>1573.363312</ele>
        <time>2021-09-14T23:29:06.000Z</time>
      </trkpt>
      <trkpt lat="40.877497" lon="-3.983016">
        <ele>1573.646640</ele>
        <time>2021-09-14T23:29:07.000Z</time>
      </trkpt>
      <trkpt lat="40.8775" lon="-3.982988"/>
      <trkpt lat="40.877513" lon="-3.982912">
        <ele>1574.810204</ele>
        <time>2021-09-14T23:29:11.000Z</time>
      </trkpt>
      <trkpt lat="40.877524" lon="-3.982821">
        <ele>1575.819889</ele>
        <time>2021-09-14T23:29:14.000Z</time>
      </trkpt>
      <trkpt lat="40.877534" lon="-3.982725">
        <ele>1576.881630</ele>
        <time>2021-09-14T23:29:18.000Z</time>
      </trkpt>
      <trkpt lat="40.877552" lon="-3.982623">
        <ele>1578.029208</ele>
        <time>2021-09-14T23:29:22.000Z</time>
      </trkpt>
      <trkpt lat="40.877583" lon="-3.982472">
        <ele>1579.743510</ele>
        <time>2021-09-14T23:29:26.000Z</time>
      </trkpt>
      <trkpt lat="40.877584" lon="-3.982447">
        <ele>1580.017800</ele>
        <time>2021-09-14T23:29:27.000Z</time>
      </trkpt>
      <trkpt lat="40.877585" lon="-3.982359">
        <ele>1580.982064</ele>
        <time>2021-09-14T23:29:30.000Z</time>
      </trkpt>
      <trkpt lat="40.877588" lon="-3.982246">
        <ele>1582.220890</ele>
        <time>2021-09-14T23:29:34.000Z</time>
      </trkpt>
      <trkpt lat="40.877606" lon="-3.982159">
        <ele>1583.209130</ele>
        <time>2021-09-14T23:29:37.000Z</time>
      </trkpt>
      <trkpt lat="40.877613" lon="-3.982077">
        <ele>1584.113254</ele>
        <time>2021-09-14T23:29:40.000Z</time>
      </trkpt>
      <trkpt lat="40.877619" lon="-3.982057">
        <ele>1584.348998</ele>
        <time>2021-09-14T23:29:41.000Z</time>
      </trkpt>
      <trkpt lat="40.877626" lon="-3.981937">
        <ele>1585.667661</ele>
        <time>2021-09-14T23:29:45.000Z</time>
      </trkpt>
      <trkpt lat="40.877626" lon="-3.981914">
        <ele>1585.919656</ele>
        <time>2021-09-14T23:29:46.000Z</time>
      </trkpt>
      <trkpt lat="40.877627" lon="-3.981866">
        <ele>1586.445758</ele>
        <time>2021-09-14T23:29:48.000Z</time>
      </trkpt>
      <trkpt lat="40.877632" lon="-3.981785">
        <ele>1587.336171</ele>
        <time>2021-09-14T23:29:52.000Z</time>
      </trkpt>
      <trkpt lat="40.877633" lon="-3.981764">
        <ele>1587.566709</ele>
        <time>2021-09-14T23:29:53.000Z</time>
      </trkpt>
      <trkpt lat="40.877638" lon="-3.981674">
        <ele>1588.555434</ele>
        <time>2021-09-14T23:29:56.000Z</time>
      </trkpt>
      <trkpt lat="40.877635" lon="-3.981576">
        <ele>1589.630031</ele>
        <time>2021-09-14T23:29:59.000Z</time>
      </trkpt>
      <trkpt lat="40.877634" lon="-3.981535">
        <ele>1590.079473</ele>
        <time>2021-09-14T23:30:00.000Z</time>
      </trkpt>
      <trkpt lat="40.877634" lon="-3.98142"/>
      <trkpt lat="40.877629" lon="-3.981361">
        <ele>1591.989916</ele>
        <time>2021-09-14T23:30:07.000Z</time>
      </trkpt>
      <trkpt lat="40.877621" lon="-3.981295">
        <ele>1592.722265</ele>
        <time>2021-09-14T23:30:11.000Z</time>
      </trkpt>
      <trkpt lat="40.87763" lon="-3.981224"/>
      <trkpt lat="40.877634" lon="-3.981202">
        <ele>1593.758928</ele>
        <time>2021-09-14T23:30:15.000Z</time>
      </trkpt>
      <trkpt lat="40.87764" lon="-3.98114"/>
      <trkpt lat="40.877639" lon="-3.981019">
        <ele>1595.769550</ele>
        <time>2021-09-14T23:30:22.000Z</time>
      </trkpt>
      <trkpt lat="40.877642" lon="-3.980982">
        <ele>1596.177258</ele>
        <time>2021-09-14T23:30:23.000Z</time>
      </trkpt>
      <trkpt lat="40.877649" lon="-3.980878">
        <ele>1597.293501</ele>
        <time>2021-09-14T23:30:26.000Z</time>
      </trkpt>
      <trkpt lat="40.877657" lon="-3.980751">
        <ele>1598.631840</ele>
        <time>2021-09-14T23:30:30.000Z</time>
      </trkpt>
      <trkpt lat="40.877663" lon="-3.980693">
        <ele>1599.246614</ele>
        <time>2021-09-14T23:30:32.000Z</time>
      </trkpt>
      <trkpt lat="40.877666" lon="-3.980642">
        <ele>1599.783820</ele>
        <time>2021-09-14T23:30:34.000Z</time>
      </trkpt>
      <trkpt lat="40.877672" lon="-3.980587">
        <ele>1600.367395</ele>
        <time>2021-09-14T23:30:36.000Z</time>
      </trkpt>
      <trkpt lat="40.877672" lon="-3.980532">
        <ele>1600.944990</ele>
        <time>2021-09-14T23:30:38.000Z</time>
      </trkpt>
      <trkpt lat="40.877668" lon="-3.980405">
        <ele>1602.279865</ele>
        <time>2021-09-14T23:30:42.000Z</time>
      </trkpt>
      <trkpt lat="40.877663" lon="-3.980367">
        <ele>1602.684927</ele>
        <time>2021-09-14T23:30:43.000Z</time>
      </trkpt>
      <trkpt lat="40.877658" lon="-3.980254">
        <ele>1603.873652</ele>
        <time>2021-09-14T23:30:46.000Z</time>
      </trkpt>
      <trkpt lat="40.877649" lon="-3.980177">
        <ele>1604.691889</ele>
        <time>2021-09-14T23:30:48.000Z</time>
      </trkpt>
      <trkpt lat="40.87763" lon="-3.980091"/>
      <trkpt lat="40.877609" lon="-3.97999"/>
      <trkpt lat="40.877596" lon="-3.979881">
        <ele>1607.891690</ele>
        <time>2021-09-14T23:30:57.000Z</time>
      </trkpt>
      <trkpt lat="40.877576" lon="-3.979773">
        <ele>1609.059399</ele>
        <time>2021-09-14T23:31:00.000Z</time>
      </trkpt>
      <trkpt lat="40.877573" lon="-3.979701">
        <ele>1609.816671</ele>
        <time>2021-09-14T23:31:02.000Z</time>
      </trkpt>
      <trkpt lat="40.877577" lon="-3.979669">
        <ele>1610.157287</ele>
        <time>2021-09-14T23:31:03.000Z</time>
      </trkpt>
      <trkpt lat="40.877603" lon="-3.979619">
        <ele>1610.794565</ele>
        <time>2021-09-14T23:31:05.000Z</time>
      </trkpt>
      <trkpt lat="40.877621" lon="-3.979602">
        <ele>1611.101770</ele>
        <time>2021-09-14T23:31:06.000Z</time>
      </trkpt>
      <trkpt lat="40.87764" lon="-3.979588"/>
      <trkpt lat="40.877662" lon="-3.979577">
        <ele>1611.730526</ele>
        <time>2021-09-14T23:31:08.000Z</time>
      </trkpt>
      <trkpt lat="40.877699" lon="-3.979552">
        <ele>1612.307605</ele>
        <time>2021-09-14T23:31:10.000Z</time>
      </trkpt>
      <trkpt lat="40.87773" lon="-3.97952"/>
      <trkpt lat="40.877762" lon="-3.979487">
        <ele>1613.417386</ele>
        <time>2021-09-14T23:31:14.000Z</time>
      </trkpt>
      <trkpt lat="40.87778" lon="-3.97947"/>
      <trkpt lat="40.877844" lon="-3.979404">
        <ele>1614.851782</ele>
        <time>2021-09-14T23:31:18.000Z</time>
      </trkpt>
      <trkpt lat="40.877903" lon="-3.979339">
        <ele>1615.918306</ele>
        <time>2021-09-14T23:31:21.000Z</time>
      </trkpt>
      <trkpt lat="40.87792" lon="-3.979314"/>
      <trkpt lat="40.877958" lon="-3.979219">
        <ele>1617.400070</ele>
        <time>2021-09-14T23:31:25.000Z</time>
      </trkpt>
      <trkpt lat="40.877954" lon="-3.979191">
        <ele>1617.699319</ele>
        <time>2021-09-14T23:31:26.000Z</time>
      </trkpt>
      <trkpt lat="40.877949" lon="-3.979167">
        <ele>1617.960751</ele>
        <time>2021-09-14T23:31:27.000Z</time>
      </trkpt>
      <trkpt lat="40.877952" lon="-3.979129">
        <ele>1618.361984</ele>
        <time>2021-09-14T23:31:29.000Z</time>
      </trkpt>
      <trkpt lat="40.877977" lon="-3.979125">
        <ele>1618.711745</ele>
        <time>2021-09-14T23:31:31.000Z</time>
      </trkpt>
      <trkpt lat="40.877982" lon="-3.979133">
        <ele>1618.820745</ele>
        <time>2021-09-14T23:31:32.000Z</time>
      </trkpt>
      <trkpt lat="40.877983" lon="-3.979142">
        <ele>1618.916275</ele>
        <time>2021-09-14T23:31:34.000Z</time>
      </trkpt>
      <trkpt lat="40.878046" lon="-3.979172">
        <ele>1619.846282</ele>
        <time>2021-09-14T23:33:41.000Z</time>
      </trkpt>
      <trkpt lat="40.878212" lon="-3.979262">
        <ele>1622.373970</ele>
        <time>2021-09-14T23:33:49.000Z</time>
      </trkpt>
      <trkpt lat="40.878352" lon="-3.97936"/>
      <trkpt lat="40.878446" lon="-3.979555">
        <ele>1627.238765</ele>
        <time>2021-09-14T23:34:03.000Z</time>
      </trkpt>
      <trkpt lat="40.878483" lon="-3.979663">
        <ele>1628.547460</ele>
        <time>2021-09-14T23:34:07.000Z</time>
      </trkpt>
      <trkpt lat="40.878511" lon="-3.979709">
        <ele>1629.199262</ele>
        <time>2021-09-14T23:34:09.000Z</time>
      </trkpt>
      <trkpt lat="40.878598" lon="-3.979882">
        <ele>1631.492510</ele>
        <time>2021-09-14T23:34:16.000Z</time>
      </trkpt>
      <trkpt lat="40.878618" lon="-3.979933">
        <ele>1632.126624</ele>
        <time>2021-09-14T23:34:18.000Z</time>
      </trkpt>
      <trkpt lat="40.878637" lon="-3.980012">
        <ele>1633.041625</ele>
        <time>2021-09-14T23:34:21.000Z</time>
      </trkpt>
      <trkpt lat="40.878637" lon="-3.980038">
        <ele>1633.328597</ele>
        <time>2021-09-14T23:34:22.000Z</time>
      </trkpt>
      <trkpt lat="40.878648" lon="-3.980113">
        <ele>1634.171829</ele>
        <time>2021-09-14T23:34:25.000Z</time>
      </trkpt>
      <trkpt lat="40.87867" lon="-3.980174"/>
      <trkpt lat="40.878678" lon="-3.980197">
        <ele>1635.197213</ele>
        <time>2021-09-14T23:34:29.000Z</time>
      </trkpt>
      <trkpt lat="40.878719" lon="-3.980263">
        <ele>1636.140015</ele>
        <time>2021-09-14T23:34:33.000Z</time>
      </trkpt>
      <trkpt lat="40.878748" lon="-3.980278">
        <ele>1636.594574</ele>
        <time>2021-09-14T23:34:35.000Z</time>
      </trkpt>
      <trkpt lat="40.878759" lon="-3.980286">
        <ele>1636.777826</ele>
        <time>2021-09-14T23:34:36.000Z</time>
      </trkpt>
      <trkpt lat="40.878796" lon="-3.980313">
        <ele>1637.394702</ele>
        <time>2021-09-14T23:34:39.000Z</time>
      </trkpt>
      <trkpt lat="40.878818" lon="-3.980338">
        <ele>1637.818114</ele>
        <time>2021-09-14T23:34:41.000Z</time>
      </trkpt>
      <trkpt lat="40.878838" lon="-3.980368">
        <ele>1638.259565</ele>
        <time>2021-09-14T23:34:43.000Z</time>
      </trkpt>
      <trkpt lat="40.878863" lon="-3.980414">
        <ele>1638.884834</ele>
        <time>2021-09-14T23:34:46.000Z</time>
      </trkpt>
      <trkpt lat="40.878875" lon="-3.980424">
        <ele>1639.091880</ele>
        <time>2021-09-14T23:34:47.000Z</time>
      </trkpt>
      <trkpt lat="40.878904" lon="-3.980459">
        <ele>1639.664982</ele>
        <time>2021-09-14T23:34:50.000Z</time>
      </trkpt>
      <trkpt lat="40.87894" lon="-3.980487"/>
      <trkpt lat="40.878953" lon="-3.98049"/>
      <trkpt lat="40.878968" lon="-3.980494">
        <ele>1640.690651</ele>
        <time>2021-09-14T23:34:55.000Z</time>
      </trkpt>
      <trkpt lat="40.879012" lon="-3.980507">
        <ele>1641.348785</ele>
        <time>2021-09-14T23:34:58.000Z</time>
      </trkpt>
      <trkpt lat="40.879026" lon="-3.980505">
        <ele>1641.554343</ele>
        <time>2021-09-14T23:34:59.000Z</time>
      </trkpt>
      <trkpt lat="40.879052" lon="-3.9805"/>
      <trkpt lat="40.879065" lon="-3.980497">
        <ele>1642.130516</ele>
        <time>2021-09-14T23:35:02.000Z</time>
      </trkpt>
      <trkpt lat="40.879097" lon="-3.980499">
        <ele>1642.598167</ele>
        <time>2021-09-14T23:35:05.000Z</time>
      </trkpt>
      <trkpt lat="40.879102" lon="-3.980512">
        <ele>1642.759149</ele>
        <time>2021-09-14T23:35:06.000Z</time>
      </trkpt>
      <trkpt lat="40.879108" lon="-3.98053"/>
      <trkpt lat="40.879115" lon="-3.980576">
        <ele>1643.494166</ele>
        <time>2021-09-14T23:35:10.000Z</time>
      </trkpt>
      <trkpt lat="40.87912" lon="-3.980615"/>
      <trkpt lat="40.879154" lon="-3.980704">
        <ele>1645.031349</ele>
        <time>2021-09-14T23:35:16.000Z</time>
      </trkpt>
      <trkpt lat="40.879168" lon="-3.980744">
        <ele>1645.517848</ele>
        <time>2021-09-14T23:35:18.000Z</time>
      </trkpt>
      <trkpt lat="40.879195" lon="-3.980813">
        <ele>1646.375367</ele>
        <time>2021-09-14T23:35:22.000Z</time>
      </trkpt>
      <trkpt lat="40.879233" lon="-3.98088"/>
      <trkpt lat="40.879243" lon="-3.980893">
        <ele>1647.504483</ele>
        <time>2021-09-14T23:35:27.000Z</time>
      </trkpt>
      <trkpt lat="40.879311" lon="-3.980984">
        <ele>1648.924115</ele>
        <time>2021-09-14T23:35:33.000Z</time>
      </trkpt>
      <trkpt lat="40.879334" lon="-3.981017">
        <ele>1649.423100</ele>
        <time>2021-09-14T23:35:35.000Z</time>
      </trkpt>
      <trkpt lat="40.879356" lon="-3.981033">
        <ele>1649.792278</ele>
        <time>2021-09-14T23:35:37.000Z</time>
      </trkpt>
      <trkpt lat="40.879393" lon="-3.981042">
        <ele>1650.345464</ele>
        <time>2021-09-14T23:35:40.000Z</time>
      </trkpt>
      <trkpt lat="40.879407" lon="-3.981053">
        <ele>1650.584912</ele>
        <time>2021-09-14T23:35:41.000Z</time>
      </trkpt>
      <trkpt lat="40.879423" lon="-3.981069">
        <ele>1650.879861</ele>
        <time>2021-09-14T23:35:42.000Z</time>
      </trkpt>
      <trkpt lat="40.879468" lon="-3.981101">
        <ele>1651.631135</ele>
        <time>2021-09-14T23:35:45.000Z</time>
      </trkpt>
      <trkpt lat="40.879481" lon="-3.981111">
        <ele>1651.852272</ele>
        <time>2021-09-14T23:35:46.000Z</time>
      </trkpt>
      <trkpt lat="40.879508" lon="-3.981131">
        <ele>1652.307316</ele>
        <time>2021-09-14T23:35:48.000Z</time>
      </trkpt>
      <trkpt lat="40.879536" lon="-3.981145">
        <ele>1652.747477</ele>
        <time>2021-09-14T23:35:50.000Z</time>
      </trkpt>
      <trkpt lat="40.879589" lon="-3.981171">
        <ele>1653.578690</ele>
        <time>2021-09-14T23:35:54.000Z</time>
      </trkpt>
      <trkpt lat="40.879648" lon="-3.981215">
        <ele>1654.574659</ele>
        <time>2021-09-14T23:35:59.000Z</time>
      </trkpt>
      <trkpt lat="40.879675" lon="-3.981226">
        <ele>1654.990085</ele>
        <time>2021-09-14T23:36:01.000Z</time>
      </trkpt>
      <trkpt lat="40.879705" lon="-3.981238">
        <ele>1655.450949</ele>
        <time>2021-09-14T23:36:04.000Z</time>
      </trkpt>
      <trkpt lat="40.879713" lon="-3.981251">
        <ele>1655.637301</ele>
        <time>2021-09-14T23:36:05.000Z</time>
      </trkpt>
      <trkpt lat="40.879718" lon="-3.981262">
        <ele>1655.779995</ele>
        <time>2021-09-14T23:36:06.000Z</time>
      </trkpt>
      <trkpt lat="40.879755" lon="-3.981293">
        <ele>1656.424035</ele>
        <time>2021-09-14T23:36:10.000Z</time>
      </trkpt>
      <trkpt lat="40.879791" lon="-3.981337">
        <ele>1657.144810</ele>
        <time>2021-09-14T23:36:14.000Z</time>
      </trkpt>
      <trkpt lat="40.879803" lon="-3.98135"/>
      <trkpt lat="40.879853" lon="-3.981412">
        <ele>1658.380708</ele>
        <time>2021-09-14T23:36:20.000Z</time>
      </trkpt>
      <trkpt lat="40.879853" lon="-3.981429">
        <ele>1658.569709</ele>
        <time>2021-09-14T23:36:21.000Z</time>
      </trkpt>
      <trkpt lat="40.879851" lon="-3.981463">
        <ele>1658.948854</ele>
        <time>2021-09-14T23:36:23.000Z</time>
      </trkpt>
      <trkpt lat="40.879866" lon="-3.981518">
        <ele>1659.598893</ele>
        <time>2021-09-14T23:36:27.000Z</time>
      </trkpt>
      <trkpt lat="40.879874" lon="-3.981529">
        <ele>1659.768581</ele>
        <time>2021-09-14T23:36:28.000Z</time>
      </trkpt>
      <trkpt lat="40.879882" lon="-3.981535">
        <ele>1659.903813</ele>
        <time>2021-09-14T23:36:29.000Z</time>
      </trkpt>
      <trkpt lat="40.879893" lon="-3.981541">
        <ele>1660.078776</ele>
        <time>2021-09-14T23:36:30.000Z</time>
      </trkpt>
      <trkpt lat="40.879941" lon="-3.981577">
        <ele>1660.890168</ele>
        <time>2021-09-14T23:36:34.000Z</time>
      </trkpt>
      <trkpt lat="40.879959" lon="-3.981598">
        <ele>1661.243104</ele>
        <time>2021-09-14T23:36:36.000Z</time>
      </trkpt>
      <trkpt lat="40.879963" lon="-3.981612">
        <ele>1661.409495</ele>
        <time>2021-09-14T23:36:37.000Z</time>
      </trkpt>
      <trkpt lat="40.87997" lon="-3.981665"/>
      <trkpt lat="40.879973" lon="-3.981685">
        <ele>1662.234344</ele>
        <time>2021-09-14T23:36:41.000Z</time>
      </trkpt>
      <trkpt lat="40.879977" lon="-3.98174"/>
      <trkpt lat="40.88" lon="-3.981792"/>
      <trkpt lat="40.880021" lon="-3.981828">
        <ele>1664.023930</ele>
        <time>2021-09-14T23:36:49.000Z</time>
      </trkpt>
      <trkpt lat="40.880048" lon="-3.981909">
        <ele>1665.008096</ele>
        <time>2021-09-14T23:36:53.000Z</time>
      </trkpt>
      <trkpt lat="40.880089" lon="-3.981963">
        <ele>1665.858913</ele>
        <time>2021-09-14T23:36:57.000Z</time>
      </trkpt>
      <trkpt lat="40.880129" lon="-3.982015">
        <ele>1666.683638</ele>
        <time>2021-09-14T23:37:01.000Z</time>
      </trkpt>
      <trkpt lat="40.880139" lon="-3.982027">
        <ele>1666.882185</ele>
        <time>2021-09-14T23:37:02.000Z</time>
      </trkpt>
      <trkpt lat="40.880168" lon="-3.982077">
        <ele>1667.582789</ele>
        <time>2021-09-14T23:37:05.000Z</time>
      </trkpt>
      <trkpt lat="40.880169" lon="-3.982099">
        <ele>1667.827819</ele>
        <time>2021-09-14T23:37:06.000Z</time>
      </trkpt>
      <trkpt lat="40.880168" lon="-3.982125">
        <ele>1668.117253</ele>
        <time>2021-09-14T23:37:07.000Z</time>
      </trkpt>
      <trkpt lat="40.880164" lon="-3.982172">
        <ele>1668.643083</ele>
        <time>2021-09-14T23:37:09.000Z</time>
      </trkpt>
      <trkpt lat="40.880171" lon="-3.982242">
        <ele>1669.428098</ele>
        <time>2021-09-14T23:37:12.000Z</time>
      </trkpt>
      <trkpt lat="40.880187" lon="-3.982272">
        <ele>1669.836257</ele>
        <time>2021-09-14T23:37:14.000Z</time>
      </trkpt>
      <trkpt lat="40.880197" lon="-3.982286">
        <ele>1670.050379</ele>
        <time>2021-09-14T23:37:15.000Z</time>
      </trkpt>
      <trkpt lat="40.880216" lon="-3.982337">
        <ele>1670.682475</ele>
        <time>2021-09-14T23:37:18.000Z</time>
      </trkpt>
      <trkpt lat="40.880238" lon="-3.982374">
        <ele>1671.205792</ele>
        <time>2021-09-14T23:37:21.000Z</time>
      </trkpt>
      <trkpt lat="40.880263" lon="-3.982398">
        <ele>1671.660029</ele>
        <time>2021-09-14T23:37:23.000Z</time>
      </trkpt>
      <trkpt lat="40.880305" lon="-3.982466">
        <ele>1672.636219</ele>
        <time>2021-09-14T23:37:27.000Z</time>
      </trkpt>
      <trkpt lat="40.880316" lon="-3.982479">
        <ele>1672.853132</ele>
        <time>2021-09-14T23:37:28.000Z</time>
      </trkpt>
      <trkpt lat="40.880356" lon="-3.982561">
        <ele>1673.938051</ele>
        <time>2021-09-14T23:37:32.000Z</time>
      </trkpt>
      <trkpt lat="40.880371" lon="-3.9826"/>
      <trkpt lat="40.880391" lon="-3.982669">
        <ele>1673.735259</ele>
        <time>2021-09-14T23:37:37.000Z</time>
      </trkpt>
      <trkpt lat="40.880398" lon="-3.98273"/>
      <trkpt lat="40.880393" lon="-3.982814">
        <ele>1672.655323</ele>
        <time>2021-09-14T23:37:44.000Z</time>
      </trkpt>
      <trkpt lat="40.880396" lon="-3.982849">
        <ele>1672.394702</ele>
        <time>2021-09-14T23:37:46.000Z</time>
      </trkpt>
      <trkpt lat="40.880391" lon="-3.982886">
        <ele>1672.116603</ele>
        <time>2021-09-14T23:37:48.000Z</time>
      </trkpt>
      <trkpt lat="40.88037" lon="-3.982913"/>
      <trkpt lat="40.88036" lon="-3.982922"/>
      <trkpt lat="40.880396" lon="-3.982705">
        <ele>1670.067872</ele>
        <time>2021-09-14T23:48:59.000Z</time>
      </trkpt>
      <trkpt lat="40.880373" lon="-3.982652">
        <ele>1669.615727</ele>
        <time>2021-09-14T23:49:01.000Z</time>
      </trkpt>
      <trkpt lat="40.880277" lon="-3.982457">
        <ele>1667.894037</ele>
        <time>2021-09-14T23:49:06.000Z</time>
      </trkpt>
      <trkpt lat="40.880259" lon="-3.982431">
        <ele>1667.633203</ele>
        <time>2021-09-14T23:49:07.000Z</time>
      </trkpt>
      <trkpt lat="40.880202" lon="-3.98233"/>
      <trkpt lat="40.880151" lon="-3.982265">
        <ele>1666.007593</ele>
        <time>2021-09-14T23:49:14.000Z</time>
      </trkpt>
      <trkpt lat="40.880097" lon="-3.982215">
        <ele>1665.362527</ele>
        <time>2021-09-14T23:49:17.000Z</time>
      </trkpt>
      <trkpt lat="40.880083" lon="-3.982198">
        <ele>1665.176540</ele>
        <time>2021-09-14T23:49:18.000Z</time>
      </trkpt>
      <trkpt lat="40.880061" lon="-3.98217"/>
      <trkpt lat="40.880035" lon="-3.982144">
        <ele>1664.558786</ele>
        <time>2021-09-14T23:49:23.000Z</time>
      </trkpt>
      <trkpt lat="40.880007" lon="-3.982118">
        <ele>1664.223992</ele>
        <time>2021-09-14T23:49:25.000Z</time>
      </trkpt>
      <trkpt lat="40.880002" lon="-3.9821"/>
      <trkpt lat="40.880006" lon="-3.982051">
        <ele>1663.717451</ele>
        <time>2021-09-14T23:49:28.000Z</time>
      </trkpt>
      <trkpt lat="40.880024" lon="-3.981999">
        <ele>1663.294299</ele>
        <time>2021-09-14T23:49:30.000Z</time>
      </trkpt>
      <trkpt lat="40.880012" lon="-3.981933">
        <ele>1662.792046</ele>
        <time>2021-09-14T23:49:33.000Z</time>
      </trkpt>
      <trkpt lat="40.880007" lon="-3.981904">
        <ele>1662.571968</ele>
        <time>2021-09-14T23:49:34.000Z</time>
      </trkpt>
      <trkpt lat="40.880005" lon="-3.981882">
        <ele>1662.408018</ele>
        <time>2021-09-14T23:49:35.000Z</time>
      </trkpt>
      <trkpt lat="40.879986" lon="-3.981831">
        <ele>1661.987350</ele>
        <time>2021-09-14T23:49:39.000Z</time>
      </trkpt>
      <trkpt lat="40.879963" lon="-3.981772">
        <ele>1661.496202</ele>
        <time>2021-09-14T23:49:41.000Z</time>
      </trkpt>
      <trkpt lat="40.879943" lon="-3.981728">
        <ele>1661.116345</ele>
        <time>2021-09-14T23:49:43.000Z</time>
      </trkpt>
      <trkpt lat="40.879937" lon="-3.981712">
        <ele>1660.984200</ele>
        <time>2021-09-14T23:49:44.000Z</time>
      </trkpt>
      <trkpt lat="40.879934" lon="-3.981704">
        <ele>1660.918128</ele>
        <time>2021-09-14T23:49:45.000Z</time>
      </trkpt>
      <trkpt lat="40.879931" lon="-3.9817"/>
      <trkpt lat="40.879895" lon="-3.981661">
        <ele>1660.421053</ele>
        <time>2021-09-14T23:50:27.000Z</time>
      </trkpt>
      <trkpt lat="40.87988" lon="-3.981648"/>
      <trkpt lat="40.879828" lon="-3.98158"/>
      <trkpt lat="40.879794" lon="-3.981529">
        <ele>1659.026868</ele>
        <time>2021-09-14T23:50:34.000Z</time>
      </trkpt>
      <trkpt lat="40.879731" lon="-3.981467">
        <ele>1658.258409</ele>
        <time>2021-09-14T23:50:38.000Z</time>
      </trkpt>
      <trkpt lat="40.879699" lon="-3.981433">
        <ele>1657.856727</ele>
        <time>2021-09-14T23:50:40.000Z</time>
      </trkpt>
      <trkpt lat="40.879682" lon="-3.981415">
        <ele>1657.643623</ele>
        <time>2021-09-14T23:50:41.000Z</time>
      </trkpt>
      <trkpt lat="40.879652" lon="-3.981374">
        <ele>1657.221468</ele>
        <time>2021-09-14T23:50:43.000Z</time>
      </trkpt>
      <trkpt lat="40.8796" lon="-3.9813"/>
      <trkpt lat="40.879562" lon="-3.981273">
        <ele>1655.572223</ele>
        <time>2021-09-14T23:50:47.000Z</time>
      </trkpt>
      <trkpt lat="40.879513" lon="-3.981244">
        <ele>1654.679437</ele>
        <time>2021-09-14T23:50:48.000Z</time>
      </trkpt>
      <trkpt lat="40.87946" lon="-3.981213"/>
      <trkpt lat="40.879364" lon="-3.981157">
        <ele>1651.970682</ele>
        <time>2021-09-14T23:50:51.000Z</time>
      </trkpt>
      <trkpt lat="40.879325" lon="-3.98113"/>
      <trkpt lat="40.879294" lon="-3.981096">
        <ele>1650.568822</ele>
        <time>2021-09-14T23:50:53.000Z</time>
      </trkpt>
      <trkpt lat="40.879264" lon="-3.981059">
        <ele>1649.886624</ele>
        <time>2021-09-14T23:50:54.000Z</time>
      </trkpt>
      <trkpt lat="40.879233" lon="-3.981022">
        <ele>1649.192170</ele>
        <time>2021-09-14T23:50:55.000Z</time>
      </trkpt>
      <trkpt lat="40.879183" lon="-3.980946">
        <ele>1647.925376</ele>
        <time>2021-09-14T23:50:57.000Z</time>
      </trkpt>
      <trkpt lat="40.879152" lon="-3.980861">
        <ele>1646.738695</ele>
        <time>2021-09-14T23:50:59.000Z</time>
      </trkpt>
      <trkpt lat="40.879133" lon="-3.98082"/>
      <trkpt lat="40.879115" lon="-3.980792">
        <ele>1645.671860</ele>
        <time>2021-09-14T23:51:01.000Z</time>
      </trkpt>
      <trkpt lat="40.879094" lon="-3.980774">
        <ele>1645.255679</ele>
        <time>2021-09-14T23:51:02.000Z</time>
      </trkpt>
      <trkpt lat="40.879072" lon="-3.980755">
        <ele>1644.818700</ele>
        <time>2021-09-14T23:51:03.000Z</time>
      </trkpt>
      <trkpt lat="40.879049" lon="-3.980736">
        <ele>1644.367705</ele>
        <time>2021-09-14T23:51:04.000Z</time>
      </trkpt>
      <trkpt lat="40.879009" lon="-3.980697">
        <ele>1643.541241</ele>
        <time>2021-09-14T23:51:06.000Z</time>
      </trkpt>
      <trkpt lat="40.878954" lon="-3.980644">
        <ele>1642.409498</ele>
        <time>2021-09-14T23:51:09.000Z</time>
      </trkpt>
      <trkpt lat="40.878905" lon="-3.980597">
        <ele>1641.402831</ele>
        <time>2021-09-14T23:51:12.000Z</time>
      </trkpt>
      <trkpt lat="40.878866" lon="-3.980565">
        <ele>1640.639544</ele>
        <time>2021-09-14T23:51:14.000Z</time>
      </trkpt>
      <trkpt lat="40.878848" lon="-3.980545">
        <ele>1640.248567</ele>
        <time>2021-09-14T23:51:15.000Z</time>
      </trkpt>
      <trkpt lat="40.878824" lon="-3.980503">
        <ele>1639.586570</ele>
        <time>2021-09-14T23:51:17.000Z</time>
      </trkpt>
      <trkpt lat="40.878789" lon="-3.980443">
        <ele>1638.633650</ele>
        <time>2021-09-14T23:51:20.000Z</time>
      </trkpt>
      <trkpt lat="40.878777" lon="-3.980427">
        <ele>1638.350264</ele>
        <time>2021-09-14T23:51:21.000Z</time>
      </trkpt>
      <trkpt lat="40.87875" lon="-3.980401"/>
      <trkpt lat="40.878695" lon="-3.980356">
        <ele>1636.719232</ele>
        <time>2021-09-14T23:51:26.000Z</time>
      </trkpt>
      <trkpt lat="40.878654" lon="-3.98026"/>
      <trkpt lat="40.878634" lon="-3.980165">
        <ele>1634.092768</ele>
        <time>2021-09-14T23:51:32.000Z</time>
      </trkpt>
      <trkpt lat="40.878633" lon="-3.980094">
        <ele>1633.199813</ele>
        <time>2021-09-14T23:51:35.000Z</time>
      </trkpt>
      <trkpt lat="40.878604" lon="-3.980033">
        <ele>1632.293733</ele>
        <time>2021-09-14T23:51:37.000Z</time>
      </trkpt>
      <trkpt lat="40.878559" lon="-3.979933">
        <ele>1630.830411</ele>
        <time>2021-09-14T23:51:39.000Z</time>
      </trkpt>
      <trkpt lat="40.878509" lon="-3.979823">
        <ele>1629.216487</ele>
        <time>2021-09-14T23:51:41.000Z</time>
      </trkpt>
      <trkpt lat="40.878482" lon="-3.979757">
        <ele>1628.272870</ele>
        <time>2021-09-14T23:51:42.000Z</time>
      </trkpt>
      <trkpt lat="40.878367" lon="-3.979477">
        <ele>1624.657519</ele>
        <time>2021-09-14T23:51:46.000Z</time>
      </trkpt>
      <trkpt lat="40.878288" lon="-3.979379">
        <ele>1623.131828</ele>
        <time>2021-09-14T23:51:48.000Z</time>
      </trkpt>
      <trkpt lat="40.878187" lon="-3.979308">
        <ele>1621.520657</ele>
        <time>2021-09-14T23:51:50.000Z</time>
      </trkpt>
      <trkpt lat="40.878138" lon="-3.979281">
        <ele>1620.772932</ele>
        <time>2021-09-14T23:51:51.000Z</time>
      </trkpt>
      <trkpt lat="40.878042" lon="-3.97922"/>
      <trkpt lat="40.877987" lon="-3.979173">
        <ele>1618.350316</ele>
        <time>2021-09-14T23:51:56.000Z</time>
      </trkpt>
      <trkpt lat="40.877971" lon="-3.979196">
        <ele>1618.017448</ele>
        <time>2021-09-14T23:51:57.000Z</time>
      </trkpt>
      <trkpt lat="40.877951" lon="-3.979222">
        <ele>1617.622418</ele>
        <time>2021-09-15T00:00:13.000Z</time>
      </trkpt>
      <trkpt lat="40.877932" lon="-3.979249">
        <ele>1617.229579</ele>
        <time>2021-09-15T00:00:14.000Z</time>
      </trkpt>
      <trkpt lat="40.877893" lon="-3.979294">
        <ele>1616.500541</ele>
        <time>2021-09-15T00:00:15.000Z</time>
      </trkpt>
      <trkpt lat="40.877782" lon="-3.979386">
        <ele>1614.655328</ele>
        <time>2021-09-15T00:00:17.000Z</time>
      </trkpt>
      <trkpt lat="40.877658" lon="-3.979515">
        <ele>1612.433046</ele>
        <time>2021-09-15T00:00:19.000Z</time>
      </trkpt>
      <trkpt lat="40.877627" lon="-3.979617">
        <ele>1611.262208</ele>
        <time>2021-09-15T00:00:20.000Z</time>
      </trkpt>
      <trkpt lat="40.877639" lon="-3.979839">
        <ele>1608.891740</ele>
        <time>2021-09-15T00:00:22.000Z</time>
      </trkpt>
      <trkpt lat="40.877663" lon="-3.979979">
        <ele>1607.362813</ele>
        <time>2021-09-15T00:00:23.000Z</time>
      </trkpt>
      <trkpt lat="40.877704" lon="-3.980304">
        <ele>1603.853521</ele>
        <time>2021-09-15T00:00:25.000Z</time>
      </trkpt>
      <trkpt lat="40.877709" lon="-3.980499">
        <ele>1601.775461</ele>
        <time>2021-09-15T00:00:26.000Z</time>
      </trkpt>
      <trkpt lat="40.877685" lon="-3.980904">
        <ele>1597.252415</ele>
        <time>2021-09-15T00:00:28.000Z</time>
      </trkpt>
      <trkpt lat="40.877661" lon="-3.981109">
        <ele>1594.935651</ele>
        <time>2021-09-15T00:00:29.000Z</time>
      </trkpt>
      <trkpt lat="40.877643" lon="-3.981319">
        <ele>1592.575307</ele>
        <time>2021-09-15T00:00:30.000Z</time>
      </trkpt>
      <trkpt lat="40.877631" lon="-3.98154"/>
      <trkpt lat="40.877618" lon="-3.981756">
        <ele>1587.680813</ele>
        <time>2021-09-15T00:00:32.000Z</time>
      </trkpt>
      <trkpt lat="40.877605" lon="-3.981982">
        <ele>1585.149504</ele>
        <time>2021-09-15T00:00:33.000Z</time>
      </trkpt>
      <trkpt lat="40.877584" lon="-3.982209">
        <ele>1582.595414</ele>
        <time>2021-09-15T00:00:34.000Z</time>
      </trkpt>
      <trkpt lat="40.877559" lon="-3.982449">
        <ele>1579.889725</ele>
        <time>2021-09-15T00:00:35.000Z</time>
      </trkpt>
      <trkpt lat="40.877528" lon="-3.982695">
        <ele>1577.104447</ele>
        <time>2021-09-15T00:00:36.000Z</time>
      </trkpt>
      <trkpt lat="40.877497" lon="-3.982941">
        <ele>1574.453396</ele>
        <time>2021-09-15T00:00:37.000Z</time>
      </trkpt>
      <trkpt lat="40.877464" lon="-3.983183">
        <ele>1572.319133</ele>
        <time>2021-09-15T00:00:38.000Z</time>
      </trkpt>
      <trkpt lat="40.877433" lon="-3.983427">
        <ele>1570.171708</ele>
        <time>2021-09-15T00:00:39.000Z</time>
      </trkpt>
      <trkpt lat="40.877402" lon="-3.983673">
        <ele>1568.007162</ele>
        <time>2021-09-15T00:00:40.000Z</time>
      </trkpt>
      <trkpt lat="40.877365" lon="-3.983946">
        <ele>1565.599960</ele>
        <time>2021-09-15T00:00:41.000Z</time>
      </trkpt>
      <trkpt lat="40.877319" lon="-3.984209">
        <ele>1563.257038</ele>
        <time>2021-09-15T00:00:42.000Z</time>
      </trkpt>
      <trkpt lat="40.877254" lon="-3.984465">
        <ele>1560.913214</ele>
        <time>2021-09-15T00:00:43.000Z</time>
      </trkpt>
      <trkpt lat="40.877184" lon="-3.984708">
        <ele>1558.656270</ele>
        <time>2021-09-15T00:00:44.000Z</time>
      </trkpt>
      <trkpt lat="40.877116" lon="-3.984931">
        <ele>1556.569320</ele>
        <time>2021-09-15T00:00:45.000Z</time>
      </trkpt>
      <trkpt lat="40.87705" lon="-3.98514"/>
      <trkpt lat="40.876988" lon="-3.98535"/>
      <trkpt lat="40.876935" lon="-3.985547">
        <ele>1549.375866</ele>
        <time>2021-09-15T00:00:48.000Z</time>
      </trkpt>
      <trkpt lat="40.876889" lon="-3.985732">
        <ele>1546.970787</ele>
        <time>2021-09-15T00:00:49.000Z</time>
      </trkpt>
      <trkpt lat="40.87685" lon="-3.985911"/>
      <trkpt lat="40.876824" lon="-3.986087">
        <ele>1542.455563</ele>
        <time>2021-09-15T00:00:51.000Z</time>
      </trkpt>
      <trkpt lat="40.87681" lon="-3.986268"/>
      <trkpt lat="40.876817" lon="-3.986453">
        <ele>1537.921005</ele>
        <time>2021-09-15T00:00:53.000Z</time>
      </trkpt>
      <trkpt lat="40.876838" lon="-3.986625">
        <ele>1535.769323</ele>
        <time>2021-09-15T00:00:54.000Z</time>
      </trkpt>
      <trkpt lat="40.876872" lon="-3.98678"/>
      <trkpt lat="40.876928" lon="-3.986922">
        <ele>1531.798309</ele>
        <time>2021-09-15T00:00:56.000Z</time>
      </trkpt>
      <trkpt lat="40.877002" lon="-3.987061">
        <ele>1529.698872</ele>
        <time>2021-09-15T00:00:57.000Z</time>
      </trkpt>
      <trkpt lat="40.877082" lon="-3.987201">
        <ele>1527.531690</ele>
        <time>2021-09-15T00:00:58.000Z</time>
      </trkpt>
      <trkpt lat="40.877167" lon="-3.987355">
        <ele>1525.177010</ele>
        <time>2021-09-15T00:00:59.000Z</time>
      </trkpt>
      <trkpt lat="40.877248" lon="-3.987525">
        <ele>1522.872105</ele>
        <time>2021-09-15T00:01:00.000Z</time>
      </trkpt>
      <trkpt lat="40.877331" lon="-3.987693">
        <ele>1520.592504</ele>
        <time>2021-09-15T00:01:01.000Z</time>
      </trkpt>
      <trkpt lat="40.877406" lon="-3.987856">
        <ele>1518.425074</ele>
        <time>2021-09-15T00:01:02.000Z</time>
      </trkpt>
      <trkpt lat="40.877488" lon="-3.987992">
        <ele>1516.449190</ele>
        <time>2021-09-15T00:01:03.000Z</time>
      </trkpt>
      <trkpt lat="40.877577" lon="-3.988116">
        <ele>1514.507105</ele>
        <time>2021-09-15T00:01:04.000Z</time>
      </trkpt>
      <trkpt lat="40.877682" lon="-3.988217">
        <ele>1512.556589</ele>
        <time>2021-09-15T00:01:05.000Z</time>
      </trkpt>
      <trkpt lat="40.877809" lon="-3.988276">
        <ele>1510.534368</ele>
        <time>2021-09-15T00:01:06.000Z</time>
      </trkpt>
      <trkpt lat="40.877934" lon="-3.988324">
        <ele>1508.578924</ele>
        <time>2021-09-15T00:01:07.000Z</time>
      </trkpt>
      <trkpt lat="40.878064" lon="-3.988362">
        <ele>1506.578786</ele>
        <time>2021-09-15T00:01:08.000Z</time>
      </trkpt>
      <trkpt lat="40.878205" lon="-3.988386">
        <ele>1504.443054</ele>
        <time>2021-09-15T00:01:09.000Z</time>
      </trkpt>
      <trkpt lat="40.878349" lon="-3.988408">
        <ele>1502.265337</ele>
        <time>2021-09-15T00:01:10.000Z</time>
      </trkpt>
      <trkpt lat="40.878498" lon="-3.988432">
        <ele>1500.010350</ele>
        <time>2021-09-15T00:01:11.000Z</time>
      </trkpt>
      <trkpt lat="40.878644" lon="-3.98846"/>
      <trkpt lat="40.878789" lon="-3.98848"/>
      <trkpt lat="40.878932" lon="-3.988481">
        <ele>1497.050514</ele>
        <time>2021-09-15T00:01:14.000Z</time>
      </trkpt>
      <trkpt lat="40.87907" lon="-3.988465"/>
      <trkpt lat="40.879196" lon="-3.988433">
        <ele>1496.301664</ele>
        <time>2021-09-15T00:01:16.000Z</time>
      </trkpt>
      <trkpt lat="40.879322" lon="-3.988391">
        <ele>1495.936992</ele>
        <time>2021-09-15T00:01:17.000Z</time>
      </trkpt>
      <trkpt lat="40.879441" lon="-3.988351">
        <ele>1495.592407</ele>
        <time>2021-09-15T00:01:18.000Z</time>
      </trkpt>
      <trkpt lat="40.879559" lon="-3.988306">
        <ele>1495.247753</ele>
        <time>2021-09-15T00:01:19.000Z</time>
      </trkpt>
      <trkpt lat="40.879671" lon="-3.988269">
        <ele>1494.923773</ele>
        <time>2021-09-15T00:01:20.000Z</time>
      </trkpt>
      <trkpt lat="40.879777" lon="-3.98824"/>
      <trkpt lat="40.879886" lon="-3.98821"/>
      <trkpt lat="40.880095" lon="-3.988161">
        <ele>1493.711839</ele>
        <time>2021-09-15T00:01:24.000Z</time>
      </trkpt>
      <trkpt lat="40.880289" lon="-3.988106">
        <ele>1493.155019</ele>
        <time>2021-09-15T00:01:26.000Z</time>
      </trkpt>
      <trkpt lat="40.880382" lon="-3.988081">
        <ele>1492.888682</ele>
        <time>2021-09-15T00:01:27.000Z</time>
      </trkpt>
      <trkpt lat="40.880472" lon="-3.988066">
        <ele>1492.784925</ele>
        <time>2021-09-15T00:01:28.000Z</time>
      </trkpt>
      <trkpt lat="40.880705" lon="-3.988037">
        <ele>1492.637568</ele>
        <time>2021-09-15T00:01:31.000Z</time>
      </trkpt>
      <trkpt lat="40.880839" lon="-3.988001">
        <ele>1492.551472</ele>
        <time>2021-09-15T00:01:33.000Z</time>
      </trkpt>
      <trkpt lat="40.881012" lon="-3.987929">
        <ele>1492.437277</ele>
        <time>2021-09-15T00:01:36.000Z</time>
      </trkpt>
      <trkpt lat="40.881363" lon="-3.987794">
        <ele>1492.207116</ele>
        <time>2021-09-15T00:01:43.000Z</time>
      </trkpt>
      <trkpt lat="40.8815" lon="-3.98774"/>
      <trkpt lat="40.881618" lon="-3.987709">
        <ele>1492.041355</ele>
        <time>2021-09-15T00:01:49.000Z</time>
      </trkpt>
      <trkpt lat="40.881781" lon="-3.987642">
        <ele>1491.933880</ele>
        <time>2021-09-15T00:01:54.000Z</time>
      </trkpt>
      <trkpt lat="40.881818" lon="-3.98763"/>
      <trkpt lat="40.882034" lon="-3.98753"/>
      <trkpt lat="40.882279" lon="-3.987443">
        <ele>1491.708580</ele>
        <time>2021-09-15T00:02:07.000Z</time>
      </trkpt>
      <trkpt lat="40.882443" lon="-3.987387">
        <ele>1491.723450</ele>
        <time>2021-09-15T00:02:11.000Z</time>
      </trkpt>
      <trkpt lat="40.882527" lon="-3.987359">
        <ele>1491.731055</ele>
        <time>2021-09-15T00:02:13.000Z</time>
      </trkpt>
      <trkpt lat="40.88257" lon="-3.987351"/>
      <trkpt lat="40.88277" lon="-3.987329"/>
      <trkpt lat="40.882867" lon="-3.987304">
        <ele>1491.761162</ele>
        <time>2021-09-15T00:02:20.000Z</time>
      </trkpt>
      <trkpt lat="40.882999" lon="-3.987206">
        <ele>1491.774451</ele>
        <time>2021-09-15T00:02:23.000Z</time>
      </trkpt>
      <trkpt lat="40.883133" lon="-3.987074">
        <ele>1491.789119</ele>
        <time>2021-09-15T00:02:27.000Z</time>
      </trkpt>
      <trkpt lat="40.883185" lon="-3.987008">
        <ele>1491.795446</ele>
        <time>2021-09-15T00:02:29.000Z</time>
      </trkpt>
      <trkpt lat="40.883349" lon="-3.986749">
        <ele>1491.817870</ele>
        <time>2021-09-15T00:02:37.000Z</time>
      </trkpt>
      <trkpt lat="40.883369" lon="-3.986721">
        <ele>1491.820426</ele>
        <time>2021-09-15T00:02:38.000Z</time>
      </trkpt>
      <trkpt lat="40.883449" lon="-3.986555">
        <ele>1491.833493</ele>
        <time>2021-09-15T00:02:44.000Z</time>
      </trkpt>
      <trkpt lat="40.883488" lon="-3.986449">
        <ele>1491.841317</ele>
        <time>2021-09-15T00:02:48.000Z</time>
      </trkpt>
      <trkpt lat="40.883515" lon="-3.986401">
        <ele>1491.845288</ele>
        <time>2021-09-15T00:02:50.000Z</time>
      </trkpt>
      <trkpt lat="40.883527" lon="-3.98637"/>
      <trkpt lat="40.88354" lon="-3.986338"/>
      <trkpt lat="40.883552" lon="-3.986306">
        <ele>1491.852382</ele>
        <time>2021-09-15T00:06:01.000Z</time>
      </trkpt>
      <trkpt lat="40.883656" lon="-3.986071">
        <ele>1490.259357</ele>
        <time>2021-09-15T00:06:06.000Z</time>
      </trkpt>
      <trkpt lat="40.883722" lon="-3.985904">
        <ele>1489.051656</ele>
        <time>2021-09-15T00:06:11.000Z</time>
      </trkpt>
      <trkpt lat="40.883798" lon="-3.985685">
        <ele>1487.507303</ele>
        <time>2021-09-15T00:06:16.000Z</time>
      </trkpt>
      <trkpt lat="40.883849" lon="-3.985535">
        <ele>1486.453228</ele>
        <time>2021-09-15T00:06:19.000Z</time>
      </trkpt>
      <trkpt lat="40.883886" lon="-3.98534"/>
      <trkpt lat="40.883896" lon="-3.985161">
        <ele>1484.014409</ele>
        <time>2021-09-15T00:06:24.000Z</time>
      </trkpt>
      <trkpt lat="40.883914" lon="-3.985058">
        <ele>1483.336885</ele>
        <time>2021-09-15T00:06:25.000Z</time>
      </trkpt>
      <trkpt lat="40.883972" lon="-3.984842">
        <ele>1481.867843</ele>
        <time>2021-09-15T00:06:27.000Z</time>
      </trkpt>
      <trkpt lat="40.884162" lon="-3.984301">
        <ele>1478.044797</ele>
        <time>2021-09-15T00:06:31.000Z</time>
      </trkpt>
      <trkpt lat="40.884279" lon="-3.983963">
        <ele>1474.791487</ele>
        <time>2021-09-15T00:06:33.000Z</time>
      </trkpt>
      <trkpt lat="40.884374" lon="-3.983651">
        <ele>1470.648387</ele>
        <time>2021-09-15T00:06:35.000Z</time>
      </trkpt>
      <trkpt lat="40.884487" lon="-3.983414">
        <ele>1467.197044</ele>
        <time>2021-09-15T00:06:37.000Z</time>
      </trkpt>
      <trkpt lat="40.884532" lon="-3.983351">
        <ele>1466.129463</ele>
        <time>2021-09-15T00:06:38.000Z</time>
      </trkpt>
      <trkpt lat="40.884575" lon="-3.983305">
        <ele>1465.228429</ele>
        <time>2021-09-15T00:06:39.000Z</time>
      </trkpt>
      <trkpt lat="40.884638" lon="-3.983293">
        <ele>1464.191409</ele>
        <time>2021-09-15T00:06:40.000Z</time>
      </trkpt>
      <trkpt lat="40.884699" lon="-3.983313">
        <ele>1463.167485</ele>
        <time>2021-09-15T00:06:41.000Z</time>
      </trkpt>
      <trkpt lat="40.884745" lon="-3.983361">
        <ele>1462.212886</ele>
        <time>2021-09-15T00:06:42.000Z</time>
      </trkpt>
      <trkpt lat="40.884794" lon="-3.983431">
        <ele>1461.037816</ele>
        <time>2021-09-15T00:06:43.000Z</time>
      </trkpt>
      <trkpt lat="40.884843" lon="-3.983518">
        <ele>1459.701502</ele>
        <time>2021-09-15T00:06:44.000Z</time>
      </trkpt>
      <trkpt lat="40.884891" lon="-3.983625">
        <ele>1458.168964</ele>
        <time>2021-09-15T00:06:45.000Z</time>
      </trkpt>
      <trkpt lat="40.884926" lon="-3.983727">
        <ele>1456.789216</ele>
        <time>2021-09-15T00:06:46.000Z</time>
      </trkpt>
      <trkpt lat="40.884957" lon="-3.983826">
        <ele>1455.469317</ele>
        <time>2021-09-15T00:06:47.000Z</time>
      </trkpt>
      <trkpt lat="40.884988" lon="-3.98393"/>
      <trkpt lat="40.885015" lon="-3.984045">
        <ele>1452.609061</ele>
        <time>2021-09-15T00:06:49.000Z</time>
      </trkpt>
      <trkpt lat="40.885038" lon="-3.984169">
        <ele>1451.036384</ele>
        <time>2021-09-15T00:06:50.000Z</time>
      </trkpt>
      <trkpt lat="40.885055" lon="-3.984292">
        <ele>1449.496213</ele>
        <time>2021-09-15T00:06:51.000Z</time>
      </trkpt>
      <trkpt lat="40.885071" lon="-3.984421">
        <ele>1447.886005</ele>
        <time>2021-09-15T00:06:52.000Z</time>
      </trkpt>
      <trkpt lat="40.885084" lon="-3.984562">
        <ele>1446.268181</ele>
        <time>2021-09-15T00:06:53.000Z</time>
      </trkpt>
      <trkpt lat="40.88509" lon="-3.984713"/>
      <trkpt lat="40.885087" lon="-3.984871">
        <ele>1442.889522</ele>
        <time>2021-09-15T00:06:55.000Z</time>
      </trkpt>
      <trkpt lat="40.885069" lon="-3.985039">
        <ele>1441.035775</ele>
        <time>2021-09-15T00:06:56.000Z</time>
      </trkpt>
      <trkpt lat="40.885033" lon="-3.98522"/>
      <trkpt lat="40.884993" lon="-3.985407">
        <ele>1436.867874</ele>
        <time>2021-09-15T00:06:58.000Z</time>
      </trkpt>
      <trkpt lat="40.884957" lon="-3.985599">
        <ele>1434.706715</ele>
        <time>2021-09-15T00:06:59.000Z</time>
      </trkpt>
      <trkpt lat="40.88493" lon="-3.985802"/>
      <trkpt lat="40.884916" lon="-3.986015">
        <ele>1430.119051</ele>
        <time>2021-09-15T00:07:01.000Z</time>
      </trkpt>
      <trkpt lat="40.884923" lon="-3.986235">
        <ele>1427.713408</ele>
        <time>2021-09-15T00:07:02.000Z</time>
      </trkpt>
      <trkpt lat="40.884936" lon="-3.986456">
        <ele>1425.291670</ele>
        <time>2021-09-15T00:07:03.000Z</time>
      </trkpt>
      <trkpt lat="40.884963" lon="-3.986683">
        <ele>1422.781177</ele>
        <time>2021-09-15T00:07:04.000Z</time>
      </trkpt>
      <trkpt lat="40.884999" lon="-3.986911">
        <ele>1420.445622</ele>
        <time>2021-09-15T00:07:05.000Z</time>
      </trkpt>
      <trkpt lat="40.885033" lon="-3.98712"/>
      <trkpt lat="40.885055" lon="-3.987296">
        <ele>1416.995068</ele>
        <time>2021-09-15T00:07:07.000Z</time>
      </trkpt>
      <trkpt lat="40.885056" lon="-3.987456">
        <ele>1415.587253</ele>
        <time>2021-09-15T00:07:08.000Z</time>
      </trkpt>
      <trkpt lat="40.885036" lon="-3.987608">
        <ele>1414.229771</ele>
        <time>2021-09-15T00:07:09.000Z</time>
      </trkpt>
      <trkpt lat="40.885003" lon="-3.987756">
        <ele>1412.872133</ele>
        <time>2021-09-15T00:07:10.000Z</time>
      </trkpt>
      <trkpt lat="40.884955" lon="-3.987896">
        <ele>1411.519587</ele>
        <time>2021-09-15T00:07:11.000Z</time>
      </trkpt>
      <trkpt lat="40.884896" lon="-3.988039">
        <ele>1410.086227</ele>
        <time>2021-09-15T00:07:12.000Z</time>
      </trkpt>
      <trkpt lat="40.884835" lon="-3.988184">
        <ele>1408.626219</ele>
        <time>2021-09-15T00:07:13.000Z</time>
      </trkpt>
      <trkpt lat="40.884766" lon="-3.988335">
        <ele>1407.073811</ele>
        <time>2021-09-15T00:07:14.000Z</time>
      </trkpt>
      <trkpt lat="40.884697" lon="-3.988488">
        <ele>1405.506314</ele>
        <time>2021-09-15T00:07:15.000Z</time>
      </trkpt>
      <trkpt lat="40.884629" lon="-3.988648">
        <ele>1403.891350</ele>
        <time>2021-09-15T00:07:16.000Z</time>
      </trkpt>
      <trkpt lat="40.884563" lon="-3.988812">
        <ele>1402.256680</ele>
        <time>2021-09-15T00:07:17.000Z</time>
      </trkpt>
      <trkpt lat="40.88449" lon="-3.988984"/>
      <trkpt lat="40.884421" lon="-3.989159">
        <ele>1398.883699</ele>
        <time>2021-09-15T00:07:19.000Z</time>
      </trkpt>
      <trkpt lat="40.884351" lon="-3.989336">
        <ele>1397.235437</ele>
        <time>2021-09-15T00:07:20.000Z</time>
      </trkpt>
      <trkpt lat="40.88428" lon="-3.989516"/>
      <trkpt lat="40.884146" lon="-3.989897">
        <ele>1392.092835</ele>
        <time>2021-09-15T00:07:23.000Z</time>
      </trkpt>
      <trkpt lat="40.88408" lon="-3.990064"/>
      <trkpt lat="40.88401" lon="-3.99021"/>
      <trkpt lat="40.883937" lon="-3.990336">
        <ele>1387.801509</ele>
        <time>2021-09-15T00:07:26.000Z</time>
      </trkpt>
      <trkpt lat="40.88385" lon="-3.990453"/>
      <trkpt lat="40.883764" lon="-3.990578">
        <ele>1385.052792</ele>
        <time>2021-09-15T00:07:28.000Z</time>
      </trkpt>
      <trkpt lat="40.883672" lon="-3.990703">
        <ele>1383.613314</ele>
        <time>2021-09-15T00:07:29.000Z</time>
      </trkpt>
      <trkpt lat="40.883578" lon="-3.990833">
        <ele>1382.128987</ele>
        <time>2021-09-15T00:07:30.000Z</time>
      </trkpt>
      <trkpt lat="40.883486" lon="-3.990967">
        <ele>1380.644029</ele>
        <time>2021-09-15T00:07:31.000Z</time>
      </trkpt>
      <trkpt lat="40.883394" lon="-3.991104">
        <ele>1379.248326</ele>
        <time>2021-09-15T00:07:32.000Z</time>
      </trkpt>
      <trkpt lat="40.883311" lon="-3.991244">
        <ele>1377.893208</ele>
        <time>2021-09-15T00:07:33.000Z</time>
      </trkpt>
      <trkpt lat="40.883247" lon="-3.991393">
        <ele>1376.587926</ele>
        <time>2021-09-15T00:07:34.000Z</time>
      </trkpt>
      <trkpt lat="40.883199" lon="-3.99155"/>
      <trkpt lat="40.883158" lon="-3.991885">
        <ele>1372.713132</ele>
        <time>2021-09-15T00:07:37.000Z</time>
      </trkpt>
      <trkpt lat="40.883157" lon="-3.992063">
        <ele>1371.357290</ele>
        <time>2021-09-15T00:07:38.000Z</time>
      </trkpt>
      <trkpt lat="40.88316" lon="-3.992243"/>
      <trkpt lat="40.883162" lon="-3.992422">
        <ele>1368.622349</ele>
        <time>2021-09-15T00:07:40.000Z</time>
      </trkpt>
      <trkpt lat="40.883155" lon="-3.9926"/>
      <trkpt lat="40.883139" lon="-3.99278"/>
      <trkpt lat="40.883078" lon="-3.993135">
        <ele>1363.111280</ele>
        <time>2021-09-15T00:07:44.000Z</time>
      </trkpt>
      <trkpt lat="40.882994" lon="-3.993495">
        <ele>1362.626998</ele>
        <time>2021-09-15T00:07:46.000Z</time>
      </trkpt>
      <trkpt lat="40.882961" lon="-3.993676">
        <ele>1362.626998</ele>
        <time>2021-09-15T00:07:47.000Z</time>
      </trkpt>
      <trkpt lat="40.882925" lon="-3.993849">
        <ele>1362.626998</ele>
        <time>2021-09-15T00:07:48.000Z</time>
      </trkpt>
      <trkpt lat="40.882887" lon="-3.994022">
        <ele>1362.626998</ele>
        <time>2021-09-15T00:07:49.000Z</time>
      </trkpt>
      <trkpt lat="40.88284" lon="-3.994189"/>
      <trkpt lat="40.882788" lon="-3.994339">
        <ele>1362.626998</ele>
        <time>2021-09-15T00:07:51.000Z</time>
      </trkpt>
      <trkpt lat="40.881193" lon="-3.99575"/>
      <trkpt lat="40.881247" lon="-3.995728">
        <ele>1346.195748</ele>
        <time>2021-09-14T23:00:01.000Z</time>
      </trkpt>
      <trkpt lat="40.881285" lon="-3.995693">
        <ele>1346.195748</ele>
        <time>2021-09-14T23:00:02.000Z</time>
      </trkpt>
      <trkpt lat="40.881315" lon="-3.995657">
        <ele>1346.195748</ele>
        <time>2021-09-14T23:00:03.000Z</time>
      </trkpt>
      <trkpt lat="40.881343" lon="-3.995623">
        <ele>1346.195748</ele>
        <time>2021-09-14T23:00:04.000Z</time>
      </trkpt>
      <trkpt lat="40.88137" lon="-3.995592"/>
      <trkpt lat="40.881393" lon="-3.995565">
        <ele>1346.195748</ele>
        <time>2021-09-14T23:00:06.000Z</time>
      </trkpt>
      <trkpt lat="40.881415" lon="-3.995542">
        <ele>1346.195748</ele>
        <time>2021-09-14T23:00:07.000Z</time>
      </trkpt>
      <trkpt lat="40.881433" lon="-3.995518">
        <ele>1346.195748</ele>
        <time>2021-09-14T23:00:08.000Z</time>
      </trkpt>
      <trkpt lat="40.881457" lon="-3.995495">
        <ele>1346.195748</ele>
        <time>2021-09-14T23:00:09.000Z</time>
      </trkpt>
      <trkpt lat="40.881477" lon="-3.995472">
        <ele>1346.195748</ele>
        <time>2021-09-14T23:00:10.000Z</time>
      </trkpt>
      <trkpt lat="40.881502" lon="-3.995443">
        <ele>1346.195748</ele>
        <time>2021-09-14T23:00:11.000Z</time>
      </trkpt>
      <trkpt lat="40.881528" lon="-3.995422">
        <ele>1346.195748</ele>
        <time>2021-09-14T23:00:12.000Z</time>
      </trkpt>
      <trkpt lat="40.881555" lon="-3.9954"/>
      <trkpt lat="40.881582" lon="-3.995385">
        <ele>1346.195748</ele>
        <time>2021-09-14T23:00:14.000Z</time>
      </trkpt>
      <trkpt lat="40.881613" lon="-3.995372">
        <ele>1346.195748</ele>
        <time>2021-09-14T23:00:15.000Z</time>
      </trkpt>
      <trkpt lat="40.881642" lon="-3.995358">
        <ele>1346.195748</ele>
        <time>2021-09-14T23:00:16.000Z</time>
      </trkpt>
      <trkpt lat="40.881672" lon="-3.995338">
        <ele>1346.195748</ele>
        <time>2021-09-14T23:00:17.000Z</time>
      </trkpt>
      <trkpt lat="40.881702" lon="-3.995318">
        <ele>1346.195748</ele>
        <time>2021-09-14T23:00:18.000Z</time>
      </trkpt>
      <trkpt lat="40.88173" lon="-3.995297"/>
      <trkpt lat="40.881758" lon="-3.995277">
        <ele>1346.195748</ele>
        <time>2021-09-14T23:00:20.000Z</time>
      </trkpt>
      <trkpt lat="40.881783" lon="-3.995257">
        <ele>1346.195748</ele>
        <time>2021-09-14T23:00:21.000Z</time>
      </trkpt>
      <trkpt lat="40.881807" lon="-3.995235">
        <ele>1346.195748</ele>
        <time>2021-09-14T23:00:22.000Z</time>
      </trkpt>
      <trkpt lat="40.881832" lon="-3.995213">
        <ele>1346.195748</ele>
        <time>2021-09-14T23:00:23.000Z</time>
      </trkpt>
      <trkpt lat="40.881855" lon="-3.995193">
        <ele>1346.195748</ele>
        <time>2021-09-14T23:00:24.000Z</time>
      </trkpt>
      <trkpt lat="40.881882" lon="-3.995173">
        <ele>1346.195748</ele>
        <time>2021-09-14T23:00:25.000Z</time>
      </trkpt>
      <trkpt lat="40.881907" lon="-3.995155">
        <ele>1346.195748</ele>
        <time>2021-09-14T23:00:26.000Z</time>
      </trkpt>
      <trkpt lat="40.881928" lon="-3.995133">
        <ele>1346.195748</ele>
        <time>2021-09-14T23:00:27.000Z</time>
      </trkpt>
      <trkpt lat="40.88195" lon="-3.995112"/>
      <trkpt lat="40.88197" lon="-3.995092"/>
      <trkpt lat="40.881992" lon="-3.995072">
        <ele>1346.519866</ele>
        <time>2021-09-14T23:00:30.000Z</time>
      </trkpt>
      <trkpt lat="40.882012" lon="-3.995053">
        <ele>1346.655986</ele>
        <time>2021-09-14T23:00:31.000Z</time>
      </trkpt>
      <trkpt lat="40.882035" lon="-3.99504"/>
      <trkpt lat="40.88206" lon="-3.995027"/>
      <trkpt lat="40.882083" lon="-3.995013">
        <ele>1347.082705</ele>
        <time>2021-09-14T23:00:34.000Z</time>
      </trkpt>
      <trkpt lat="40.882107" lon="-3.995"/>
      <trkpt lat="40.88213" lon="-3.994987"/>
      <trkpt lat="40.88215" lon="-3.994972"/>
      <trkpt lat="40.882172" lon="-3.994953">
        <ele>1347.636672</ele>
        <time>2021-09-14T23:00:38.000Z</time>
      </trkpt>
      <trkpt lat="40.882193" lon="-3.994933">
        <ele>1347.779721</ele>
        <time>2021-09-14T23:00:39.000Z</time>
      </trkpt>
      <trkpt lat="40.882213" lon="-3.994913">
        <ele>1347.918321</ele>
        <time>2021-09-14T23:00:40.000Z</time>
      </trkpt>
      <trkpt lat="40.882232" lon="-3.994897">
        <ele>1348.042832</ele>
        <time>2021-09-14T23:00:41.000Z</time>
      </trkpt>
      <trkpt lat="40.882253" lon="-3.99488"/>
      <trkpt lat="40.882275" lon="-3.994862">
        <ele>1348.321937</ele>
        <time>2021-09-14T23:00:43.000Z</time>
      </trkpt>
      <trkpt lat="40.8823" lon="-3.99484"/>
      <trkpt lat="40.882323" lon="-3.994822">
        <ele>1348.635658</ele>
        <time>2021-09-14T23:00:45.000Z</time>
      </trkpt>
      <trkpt lat="40.882348" lon="-3.994798">
        <ele>1348.806420</ele>
        <time>2021-09-14T23:00:46.000Z</time>
      </trkpt>
      <trkpt lat="40.882375" lon="-3.994773">
        <ele>1348.988612</ele>
        <time>2021-09-14T23:00:47.000Z</time>
      </trkpt>
      <trkpt lat="40.8824" lon="-3.99475"/>
      <trkpt lat="40.882427" lon="-3.994725">
        <ele>1349.339144</ele>
        <time>2021-09-14T23:00:49.000Z</time>
      </trkpt>
      <trkpt lat="40.882453" lon="-3.994698">
        <ele>1349.521875</ele>
        <time>2021-09-14T23:00:50.000Z</time>
      </trkpt>
      <trkpt lat="40.882482" lon="-3.99467"/>
      <trkpt lat="40.882513" lon="-3.99465"/>
      <trkpt lat="40.882545" lon="-3.994628">
        <ele>1350.110379</ele>
        <time>2021-09-14T23:00:53.000Z</time>
      </trkpt>
      <trkpt lat="40.882573" lon="-3.9946"/>
      <trkpt lat="40.8826" lon="-3.994572"/>
      <trkpt lat="40.882623" lon="-3.994542">
        <ele>1350.672645</ele>
        <time>2021-09-14T23:00:56.000Z</time>
      </trkpt>
      <trkpt lat="40.882643" lon="-3.994513">
        <ele>1350.836697</ele>
        <time>2021-09-14T23:00:57.000Z</time>
      </trkpt>
      <trkpt lat="40.882665" lon="-3.994488">
        <ele>1350.997031</ele>
        <time>2021-09-14T23:00:58.000Z</time>
      </trkpt>
      <trkpt lat="40.882688" lon="-3.994468">
        <ele>1351.149188</ele>
        <time>2021-09-14T23:00:59.000Z</time>
      </trkpt>
      <trkpt lat="40.88271" lon="-3.994447"/>
      <trkpt lat="40.88273" lon="-3.994422"/>
      <trkpt lat="40.88275" lon="-3.9944"/>
      <trkpt lat="40.882777" lon="-3.994378">
        <ele>1351.770380</ele>
        <time>2021-09-14T23:01:03.000Z</time>
      </trkpt>
      <trkpt lat="40.882808" lon="-3.994357">
        <ele>1351.962914</ele>
        <time>2021-09-14T23:01:04.000Z</time>
      </trkpt>
      <trkpt lat="40.88284" lon="-3.99434"/>
      <trkpt lat="40.882872" lon="-3.994317">
        <ele>1352.354865</ele>
        <time>2021-09-14T23:01:06.000Z</time>
      </trkpt>
      <trkpt lat="40.882905" lon="-3.994293">
        <ele>1352.563044</ele>
        <time>2021-09-14T23:01:07.000Z</time>
      </trkpt>
      <trkpt lat="40.882935" lon="-3.994265">
        <ele>1352.766012</ele>
        <time>2021-09-14T23:01:08.000Z</time>
      </trkpt>
      <trkpt lat="40.882968" lon="-3.994238">
        <ele>1352.980514</ele>
        <time>2021-09-14T23:01:09.000Z</time>
      </trkpt>
      <trkpt lat="40.883005" lon="-3.994218">
        <ele>1353.201467</ele>
        <time>2021-09-14T23:01:10.000Z</time>
      </trkpt>
      <trkpt lat="40.88305" lon="-3.994197"/>
      <trkpt lat="40.8831" lon="-3.994168"/>
      <trkpt lat="40.883155" lon="-3.994135">
        <ele>1354.100907</ele>
        <time>2021-09-14T23:01:13.000Z</time>
      </trkpt>
      <trkpt lat="40.88321" lon="-3.994097"/>
      <trkpt lat="40.883262" lon="-3.99406"/>
      <trkpt lat="40.883307" lon="-3.994033">
        <ele>1355.043480</ele>
        <time>2021-09-14T23:01:16.000Z</time>
      </trkpt>
      <trkpt lat="40.883353" lon="-3.994017">
        <ele>1355.306409</ele>
        <time>2021-09-14T23:01:17.000Z</time>
      </trkpt>
      <trkpt lat="40.883395" lon="-3.994"/>
      <trkpt lat="40.883433" lon="-3.993985">
        <ele>1355.768424</ele>
        <time>2021-09-14T23:01:19.000Z</time>
      </trkpt>
      <trkpt lat="40.883472" lon="-3.993967">
        <ele>1355.996760</ele>
        <time>2021-09-14T23:01:20.000Z</time>
      </trkpt>
      <trkpt lat="40.883517" lon="-3.993942">
        <ele>1355.985873</ele>
        <time>2021-09-14T23:01:21.000Z</time>
      </trkpt>
      <trkpt lat="40.883567" lon="-3.99392"/>
      <trkpt lat="40.883617" lon="-3.993902">
        <ele>1355.297622</ele>
        <time>2021-09-14T23:01:23.000Z</time>
      </trkpt>
      <trkpt lat="40.883662" lon="-3.993897">
        <ele>1355.000238</ele>
        <time>2021-09-14T23:01:24.000Z</time>
      </trkpt>
      <trkpt lat="40.883708" lon="-3.993893">
        <ele>1354.696660</ele>
        <time>2021-09-14T23:01:25.000Z</time>
      </trkpt>
      <trkpt lat="40.88376" lon="-3.993895"/>
      <trkpt lat="40.883803" lon="-3.993893">
        <ele>1354.070734</ele>
        <time>2021-09-14T23:01:27.000Z</time>
      </trkpt>
      <trkpt lat="40.88384" lon="-3.993885"/>
      <trkpt lat="40.88388" lon="-3.993873"/>
      <trkpt lat="40.88392" lon="-3.993855"/>
      <trkpt lat="40.883965" lon="-3.99384"/>
      <trkpt lat="40.884022" lon="-3.993818">
        <ele>1352.578877</ele>
        <time>2021-09-14T23:01:32.000Z</time>
      </trkpt>
      <trkpt lat="40.884078" lon="-3.993797">
        <ele>1352.195564</ele>
        <time>2021-09-14T23:01:33.000Z</time>
      </trkpt>
      <trkpt lat="40.884138" lon="-3.993777">
        <ele>1351.788091</ele>
        <time>2021-09-14T23:01:34.000Z</time>
      </trkpt>
      <trkpt lat="40.884187" lon="-3.993745">
        <ele>1351.428222</ele>
        <time>2021-09-14T23:01:35.000Z</time>
      </trkpt>
      <trkpt lat="40.884235" lon="-3.993708">
        <ele>1351.062366</ele>
        <time>2021-09-14T23:01:36.000Z</time>
      </trkpt>
      <trkpt lat="40.884285" lon="-3.993673">
        <ele>1350.689832</ele>
        <time>2021-09-14T23:01:37.000Z</time>
      </trkpt>
      <trkpt lat="40.884333" lon="-3.993638">
        <ele>1350.328887</ele>
        <time>2021-09-14T23:01:38.000Z</time>
      </trkpt>
      <trkpt lat="40.884378" lon="-3.99361"/>
      <trkpt lat="40.88443" lon="-3.993587"/>
      <trkpt lat="40.884472" lon="-3.993572">
        <ele>1349.353832</ele>
        <time>2021-09-14T23:01:41.000Z</time>
      </trkpt>
      <trkpt lat="40.884512" lon="-3.993567">
        <ele>1349.089245</ele>
        <time>2021-09-14T23:01:42.000Z</time>
      </trkpt>
      <trkpt lat="40.884547" lon="-3.993557">
        <ele>1348.853443</ele>
        <time>2021-09-14T23:01:43.000Z</time>
      </trkpt>
      <trkpt lat="40.884583" lon="-3.993543">
        <ele>1348.606337</ele>
        <time>2021-09-14T23:01:44.000Z</time>
      </trkpt>
      <trkpt lat="40.88462" lon="-3.993525"/>
      <trkpt lat="40.884663" lon="-3.993503">
        <ele>1348.043108</ele>
        <time>2021-09-14T23:01:46.000Z</time>
      </trkpt>
      <trkpt lat="40.884702" lon="-3.993472">
        <ele>1347.743473</ele>
        <time>2021-09-14T23:01:47.000Z</time>
      </trkpt>
      <trkpt lat="40.884742" lon="-3.993443">
        <ele>1347.443086</ele>
        <time>2021-09-14T23:01:48.000Z</time>
      </trkpt>
      <trkpt lat="40.884788" lon="-3.993427">
        <ele>1347.129862</ele>
        <time>2021-09-14T23:01:49.000Z</time>
      </trkpt>
      <trkpt lat="40.88485" lon="-3.993427"/>
      <trkpt lat="40.88492" lon="-3.993437"/>
      <trkpt lat="40.885005" lon="-3.993452">
        <ele>1345.693206</ele>
        <time>2021-09-14T23:01:52.000Z</time>
      </trkpt>
      <trkpt lat="40.885098" lon="-3.993458">
        <ele>1345.080043</ele>
        <time>2021-09-14T23:01:53.000Z</time>
      </trkpt>
      <trkpt lat="40.885192" lon="-3.993458">
        <ele>1344.461023</ele>
        <time>2021-09-14T23:01:54.000Z</time>
      </trkpt>
      <trkpt lat="40.885288" lon="-3.99346"/>
      <trkpt lat="40.885377" lon="-3.993467">
        <ele>1341.708185</ele>
        <time>2021-09-14T23:01:56.000Z</time>
      </trkpt>
      <trkpt lat="40.885467" lon="-3.993468">
        <ele>1340.251706</ele>
        <time>2021-09-14T23:01:57.000Z</time>
      </trkpt>
      <trkpt lat="40.885547" lon="-3.993473">
        <ele>1338.955659</ele>
        <time>2021-09-14T23:01:58.000Z</time>
      </trkpt>
      <trkpt lat="40.885622" lon="-3.993477">
        <ele>1337.740982</ele>
        <time>2021-09-14T23:01:59.000Z</time>
      </trkpt>
      <trkpt lat="40.885675" lon="-3.99348"/>
      <trkpt lat="40.88569" lon="-3.993478"/>
      <trkpt lat="40.885714" lon="-3.993484">
        <ele>1336.243298</ele>
        <time>2021-09-14T23:02:02.000Z</time>
      </trkpt>
      <trkpt lat="40.885735" lon="-3.993494">
        <ele>1335.882113</ele>
        <time>2021-09-14T23:02:03.000Z</time>
      </trkpt>
      <trkpt lat="40.885756" lon="-3.993503">
        <ele>1335.524887</ele>
        <time>2021-09-14T23:02:04.000Z</time>
      </trkpt>
      <trkpt lat="40.885777" lon="-3.993513">
        <ele>1335.163703</ele>
        <time>2021-09-14T23:02:05.000Z</time>
      </trkpt>
      <trkpt lat="40.885798" lon="-3.993522">
        <ele>1334.806477</ele>
        <time>2021-09-14T23:02:06.000Z</time>
      </trkpt>
      <trkpt lat="40.885819" lon="-3.993532">
        <ele>1334.445292</ele>
        <time>2021-09-14T23:02:47.000Z</time>
      </trkpt>
      <trkpt lat="40.885839" lon="-3.993541">
        <ele>1334.103424</ele>
        <time>2021-09-14T23:02:48.000Z</time>
      </trkpt>
      <trkpt lat="40.88586" lon="-3.993551"/>
      <trkpt lat="40.885881" lon="-3.99356"/>
      <trkpt lat="40.885902" lon="-3.99357"/>
      <trkpt lat="40.885923" lon="-3.993579">
        <ele>1332.666603</ele>
        <time>2021-09-14T23:02:52.000Z</time>
      </trkpt>
      <trkpt lat="40.885944" lon="-3.993589">
        <ele>1332.305419</ele>
        <time>2021-09-14T23:02:53.000Z</time>
      </trkpt>
      <trkpt lat="40.885965" lon="-3.993598">
        <ele>1331.948193</ele>
        <time>2021-09-14T23:02:54.000Z</time>
      </trkpt>
      <trkpt lat="40.88599" lon="-3.993647"/>
      <trkpt lat="40.88602" lon="-3.993702"/>
      <trkpt lat="40.886053" lon="-3.99376"/>
      <trkpt lat="40.886082" lon="-3.993805">
        <ele>1328.783745</ele>
        <time>2021-09-14T23:02:58.000Z</time>
      </trkpt>
      <trkpt lat="40.886113" lon="-3.993857">
        <ele>1327.973569</ele>
        <time>2021-09-14T23:02:59.000Z</time>
      </trkpt>
      <trkpt lat="40.886147" lon="-3.993907">
        <ele>1327.150821</ele>
        <time>2021-09-14T23:03:00.000Z</time>
      </trkpt>
      <trkpt lat="40.886177" lon="-3.993965">
        <ele>1326.291056</ele>
        <time>2021-09-14T23:03:01.000Z</time>
      </trkpt>
      <trkpt lat="40.886212" lon="-3.99401"/>
      <trkpt lat="40.886247" lon="-3.994042">
        <ele>1324.812668</ele>
        <time>2021-09-14T23:03:03.000Z</time>
      </trkpt>
      <trkpt lat="40.886282" lon="-3.99407"/>
      <trkpt lat="40.886322" lon="-3.994098">
        <ele>1323.418391</ele>
        <time>2021-09-14T23:03:05.000Z</time>
      </trkpt>
      <trkpt lat="40.886362" lon="-3.99412"/>
      <trkpt lat="40.886408" lon="-3.994142">
        <ele>1321.925801</ele>
        <time>2021-09-14T23:03:07.000Z</time>
      </trkpt>
      <trkpt lat="40.88645" lon="-3.994177"/>
      <trkpt lat="40.886478" lon="-3.994223">
        <ele>1320.399988</ele>
        <time>2021-09-14T23:03:09.000Z</time>
      </trkpt>
      <trkpt lat="40.886502" lon="-3.994272">
        <ele>1319.685701</ele>
        <time>2021-09-14T23:03:10.000Z</time>
      </trkpt>
      <trkpt lat="40.886532" lon="-3.994318">
        <ele>1318.942467</ele>
        <time>2021-09-14T23:03:11.000Z</time>
      </trkpt>
      <trkpt lat="40.886568" lon="-3.994368">
        <ele>1318.097734</ele>
        <time>2021-09-14T23:03:12.000Z</time>
      </trkpt>
      <trkpt lat="40.886615" lon="-3.99441"/>
      <trkpt lat="40.886657" lon="-3.994445">
        <ele>1316.376551</ele>
        <time>2021-09-14T23:03:14.000Z</time>
      </trkpt>
      <trkpt lat="40.886685" lon="-3.99447"/>
      <trkpt lat="40.886705" lon="-3.994485">
        <ele>1315.457818</ele>
        <time>2021-09-14T23:03:16.000Z</time>
      </trkpt>
      <trkpt lat="40.886715" lon="-3.994493">
        <ele>1315.268698</ele>
        <time>2021-09-14T23:03:17.000Z</time>
      </trkpt>
      <trkpt lat="40.886725" lon="-3.9945"/>
      <trkpt lat="40.886737" lon="-3.994512">
        <ele>1315.018594</ele>
        <time>2021-09-14T23:03:19.000Z</time>
      </trkpt>
      <trkpt lat="40.886743" lon="-3.99452"/>
      <trkpt lat="40.886748" lon="-3.994523">
        <ele>1314.907799</ele>
        <time>2021-09-14T23:03:21.000Z</time>
      </trkpt>
      <trkpt lat="40.886753" lon="-3.994525">
        <ele>1314.866489</ele>
        <time>2021-09-14T23:03:22.000Z</time>
      </trkpt>
      <trkpt lat="40.886757" lon="-3.994525">
        <ele>1314.834855</ele>
        <time>2021-09-14T23:03:23.000Z</time>
      </trkpt>
      <trkpt lat="40.88676" lon="-3.994527"/>
      <trkpt lat="40.886825" lon="-3.994537">
        <ele>1314.290774</ele>
        <time>2021-09-14T23:07:07.000Z</time>
      </trkpt>
      <trkpt lat="40.886842" lon="-3.994538">
        <ele>1314.156198</ele>
        <time>2021-09-14T23:07:08.000Z</time>
      </trkpt>
      <trkpt lat="40.886858" lon="-3.994535">
        <ele>1314.028399</ele>
        <time>2021-09-14T23:07:09.000Z</time>
      </trkpt>
      <trkpt lat="40.88688" lon="-3.994533"/>
      <trkpt lat="40.886895" lon="-3.994533">
        <ele>1313.735377</ele>
        <time>2021-09-14T23:07:11.000Z</time>
      </trkpt>
      <trkpt lat="40.886913" lon="-3.994523">
        <ele>1313.580979</ele>
        <time>2021-09-14T23:07:12.000Z</time>
      </trkpt>
      <trkpt lat="40.88693" lon="-3.994505"/>
      <trkpt lat="40.886948" lon="-3.99448"/>
      <trkpt lat="40.88697" lon="-3.994452"/>
      <trkpt lat="40.886995" lon="-3.994428">
        <ele>1312.716620</ele>
        <time>2021-09-14T23:07:16.000Z</time>
      </trkpt>
      <trkpt lat="40.887022" lon="-3.994413">
        <ele>1312.485024</ele>
        <time>2021-09-14T23:07:17.000Z</time>
      </trkpt>
      <trkpt lat="40.887053" lon="-3.99439"/>
      <trkpt lat="40.88709" lon="-3.99436"/>
      <trkpt lat="40.887128" lon="-3.99433"/>
      <trkpt lat="40.887162" lon="-3.994283">
        <ele>1311.121820</ele>
        <time>2021-09-14T23:07:21.000Z</time>
      </trkpt>
      <trkpt lat="40.887197" lon="-3.994228">
        <ele>1310.692000</ele>
        <time>2021-09-14T23:07:22.000Z</time>
      </trkpt>
      <trkpt lat="40.887238" lon="-3.994172">
        <ele>1310.225917</ele>
        <time>2021-09-14T23:07:23.000Z</time>
      </trkpt>
      <trkpt lat="40.887278" lon="-3.994125">
        <ele>1309.802796</ele>
        <time>2021-09-14T23:07:24.000Z</time>
      </trkpt>
      <trkpt lat="40.887317" lon="-3.994082">
        <ele>1309.401272</ele>
        <time>2021-09-14T23:07:25.000Z</time>
      </trkpt>
      <trkpt lat="40.88735" lon="-3.994045"/>
      <trkpt lat="40.887382" lon="-3.994012">
        <ele>1308.738263</ele>
        <time>2021-09-14T23:07:27.000Z</time>
      </trkpt>
      <trkpt lat="40.887415" lon="-3.993975">
        <ele>1308.396145</ele>
        <time>2021-09-14T23:07:28.000Z</time>
      </trkpt>
      <trkpt lat="40.887453" lon="-3.993932">
        <ele>1308.000663</ele>
        <time>2021-09-14T23:07:29.000Z</time>
      </trkpt>
      <trkpt lat="40.88749" lon="-3.993885"/>
      <trkpt lat="40.887527" lon="-3.99383"/>
      <trkpt lat="40.887567" lon="-3.993777">
        <ele>1306.707056</ele>
        <time>2021-09-14T23:07:32.000Z</time>
      </trkpt>
      <trkpt lat="40.887603" lon="-3.99372"/>
      <trkpt lat="40.887638" lon="-3.993653">
        <ele>1305.776089</ele>
        <time>2021-09-14T23:07:34.000Z</time>
      </trkpt>
      <trkpt lat="40.887673" lon="-3.99359"/>
      <trkpt lat="40.887707" lon="-3.993538">
        <ele>1304.897622</ele>
        <time>2021-09-14T23:07:36.000Z</time>
      </trkpt>
      <trkpt lat="40.887745" lon="-3.99349"/>
      <trkpt lat="40.887783" lon="-3.993447">
        <ele>1304.086607</ele>
        <time>2021-09-14T23:07:38.000Z</time>
      </trkpt>
      <trkpt lat="40.887828" lon="-3.993413">
        <ele>1303.676764</ele>
        <time>2021-09-14T23:07:39.000Z</time>
      </trkpt>
      <trkpt lat="40.88788" lon="-3.993388"/>
      <trkpt lat="40.88793" lon="-3.99337"/>
      <trkpt lat="40.887982" lon="-3.993358">
        <ele>1302.411953</ele>
        <time>2021-09-14T23:07:42.000Z</time>
      </trkpt>
      <trkpt lat="40.888027" lon="-3.993333">
        <ele>1302.025960</ele>
        <time>2021-09-14T23:07:43.000Z</time>
      </trkpt>
      <trkpt lat="40.888067" lon="-3.993297">
        <ele>1301.643345</ele>
        <time>2021-09-14T23:07:44.000Z</time>
      </trkpt>
      <trkpt lat="40.888108" lon="-3.993255">
        <ele>1301.233237</ele>
        <time>2021-09-14T23:07:45.000Z</time>
      </trkpt>
      <trkpt lat="40.888152" lon="-3.993213">
        <ele>1300.943838</ele>
        <time>2021-09-14T23:07:46.000Z</time>
      </trkpt>
      <trkpt lat="40.888198" lon="-3.993177">
        <ele>1300.893345</ele>
        <time>2021-09-14T23:07:47.000Z</time>
      </trkpt>
      <trkpt lat="40.888242" lon="-3.993142">
        <ele>1300.844841</ele>
        <time>2021-09-14T23:07:48.000Z</time>
      </trkpt>
      <trkpt lat="40.888275" lon="-3.9931"/>
      <trkpt lat="40.888313" lon="-3.993055">
        <ele>1300.753395</ele>
        <time>2021-09-14T23:07:50.000Z</time>
      </trkpt>
      <trkpt lat="40.888355" lon="-3.993005">
        <ele>1300.700014</ele>
        <time>2021-09-14T23:07:51.000Z</time>
      </trkpt>
      <trkpt lat="40.888403" lon="-3.992953">
        <ele>1300.641401</ele>
        <time>2021-09-14T23:07:52.000Z</time>
      </trkpt>
      <trkpt lat="40.888455" lon="-3.9929"/>
      <trkpt lat="40.888498" lon="-3.99285"/>
      <trkpt lat="40.888532" lon="-3.992795">
        <ele>1300.474556</ele>
        <time>2021-09-14T23:07:55.000Z</time>
      </trkpt>
      <trkpt lat="40.888558" lon="-3.992737">
        <ele>1300.426399</ele>
        <time>2021-09-14T23:07:56.000Z</time>
      </trkpt>
      <trkpt lat="40.888575" lon="-3.992687">
        <ele>1300.387244</ele>
        <time>2021-09-14T23:07:57.000Z</time>
      </trkpt>
      <trkpt lat="40.888582" lon="-3.992633">
        <ele>1300.348115</ele>
        <time>2021-09-14T23:07:58.000Z</time>
      </trkpt>
      <trkpt lat="40.888593" lon="-3.992583">
        <ele>1300.310924</ele>
        <time>2021-09-14T23:07:59.000Z</time>
      </trkpt>
      <trkpt lat="40.888597" lon="-3.992527">
        <ele>1300.270752</ele>
        <time>2021-09-14T23:08:00.000Z</time>
      </trkpt>
      <trkpt lat="40.8886" lon="-3.992467"/>
      <trkpt lat="40.888607" lon="-3.992415">
        <ele>1300.190085</ele>
        <time>2021-09-14T23:08:02.000Z</time>
      </trkpt>
      <trkpt lat="40.888617" lon="-3.992385">
        <ele>1300.166669</ele>
        <time>2021-09-14T23:08:03.000Z</time>
      </trkpt>
      <trkpt lat="40.888623" lon="-3.992373">
        <ele>1300.156394</ele>
        <time>2021-09-14T23:08:04.000Z</time>
      </trkpt>
      <trkpt lat="40.888632" lon="-3.99237"/>
      <trkpt lat="40.888637" lon="-3.992365">
        <ele>1300.141704</ele>
        <time>2021-09-14T23:08:06.000Z</time>
      </trkpt>
      <trkpt lat="40.88864" lon="-3.992363"/>
      <trkpt lat="40.888642" lon="-3.992362">
        <ele>1300.136511</ele>
        <time>2021-09-14T23:08:08.000Z</time>
      </trkpt>
      <trkpt lat="40.888648" lon="-3.992358">
        <ele>1300.130163</ele>
        <time>2021-09-14T23:08:09.000Z</time>
      </trkpt>
      <trkpt lat="40.888658" lon="-3.992358">
        <ele>1300.120716</ele>
        <time>2021-09-14T23:08:10.000Z</time>
      </trkpt>
      <trkpt lat="40.888662" lon="-3.992357">
        <ele>1300.116870</ele>
        <time>2021-09-14T23:08:11.000Z</time>
      </trkpt>
      <trkpt lat="40.888673" lon="-3.992358">
        <ele>1300.106454</ele>
        <time>2021-09-14T23:08:12.000Z</time>
      </trkpt>
      <trkpt lat="40.888692" lon="-3.99236"/>
      <trkpt lat="40.88871" lon="-3.992362"/>
      <trkpt lat="40.888735" lon="-3.992367">
        <ele>1300.047497</ele>
        <time>2021-09-14T23:08:15.000Z</time>
      </trkpt>
      <trkpt lat="40.888757" lon="-3.992375">
        <ele>1300.025942</ele>
        <time>2021-09-14T23:08:16.000Z</time>
      </trkpt>
      <trkpt lat="40.888778" lon="-3.992382">
        <ele>1300.005483</ele>
        <time>2021-09-14T23:08:17.000Z</time>
      </trkpt>
      <trkpt lat="40.8888" lon="-3.992372"/>
      <trkpt lat="40.888822" lon="-3.992387">
        <ele>1299.963761</ele>
        <time>2021-09-14T23:08:19.000Z</time>
      </trkpt>
      <trkpt lat="40.888837" lon="-3.992387">
        <ele>1299.949590</ele>
        <time>2021-09-14T23:08:20.000Z</time>
      </trkpt>
      <trkpt lat="40.888853" lon="-3.992383">
        <ele>1299.934207</ele>
        <time>2021-09-14T23:08:21.000Z</time>
      </trkpt>
      <trkpt lat="40.88887" lon="-3.99237"/>
      <trkpt lat="40.888888" lon="-3.992355">
        <ele>1299.895558</ele>
        <time>2021-09-14T23:08:23.000Z</time>
      </trkpt>
      <trkpt lat="40.888905" lon="-3.992337">
        <ele>1299.874987</ele>
        <time>2021-09-14T23:08:24.000Z</time>
      </trkpt>
      <trkpt lat="40.888922" lon="-3.992323">
        <ele>1299.856069</ele>
        <time>2021-09-14T23:08:25.000Z</time>
      </trkpt>
      <trkpt lat="40.888937" lon="-3.992313">
        <ele>1299.840200</ele>
        <time>2021-09-14T23:08:26.000Z</time>
      </trkpt>
      <trkpt lat="40.888957" lon="-3.992298">
        <ele>1299.818480</ele>
        <time>2021-09-14T23:08:27.000Z</time>
      </trkpt>
      <trkpt lat="40.888987" lon="-3.992275">
        <ele>1299.785723</ele>
        <time>2021-09-14T23:08:28.000Z</time>
      </trkpt>
      <trkpt lat="40.889013" lon="-3.99225"/>
      <trkpt lat="40.889042" lon="-3.992223">
        <ele>1299.721854</ele>
        <time>2021-09-14T23:08:30.000Z</time>
      </trkpt>
      <trkpt lat="40.889075" lon="-3.992195">
        <ele>1299.684816</ele>
        <time>2021-09-14T23:08:31.000Z</time>
      </trkpt>
      <trkpt lat="40.889108" lon="-3.992158">
        <ele>1299.643948</ele>
        <time>2021-09-14T23:08:32.000Z</time>
      </trkpt>
      <trkpt lat="40.889145" lon="-3.992117">
        <ele>1299.598350</ele>
        <time>2021-09-14T23:08:33.000Z</time>
      </trkpt>
      <trkpt lat="40.889185" lon="-3.992075">
        <ele>1299.550104</ele>
        <time>2021-09-14T23:08:34.000Z</time>
      </trkpt>
      <trkpt lat="40.889218" lon="-3.992038">
        <ele>1299.509236</ele>
        <time>2021-09-14T23:08:35.000Z</time>
      </trkpt>
      <trkpt lat="40.889248" lon="-3.991993">
        <ele>1299.466386</ele>
        <time>2021-09-14T23:08:36.000Z</time>
      </trkpt>
      <trkpt lat="40.889277" lon="-3.991955">
        <ele>1299.427823</ele>
        <time>2021-09-14T23:08:37.000Z</time>
      </trkpt>
      <trkpt lat="40.889312" lon="-3.991923">
        <ele>1299.387629</ele>
        <time>2021-09-14T23:08:38.000Z</time>
      </trkpt>
      <trkpt lat="40.889345" lon="-3.991898">
        <ele>1299.351703</ele>
        <time>2021-09-14T23:08:39.000Z</time>
      </trkpt>
      <trkpt lat="40.889375" lon="-3.991883">
        <ele>1299.321404</ele>
        <time>2021-09-14T23:08:40.000Z</time>
      </trkpt>
      <trkpt lat="40.889397" lon="-3.991872">
        <ele>1299.299186</ele>
        <time>2021-09-14T23:08:41.000Z</time>
      </trkpt>
      <trkpt lat="40.889422" lon="-3.991848">
        <ele>1299.270004</ele>
        <time>2021-09-14T23:08:42.000Z</time>
      </trkpt>
      <trkpt lat="40.889438" lon="-3.991823">
        <ele>1299.443383</ele>
        <time>2021-09-14T23:08:43.000Z</time>
      </trkpt>
      <trkpt lat="40.88945" lon="-3.991808"/>
      <trkpt lat="40.889458" lon="-3.991797">
        <ele>1299.723941</ele>
        <time>2021-09-14T23:08:45.000Z</time>
      </trkpt>
      <trkpt lat="40.889465" lon="-3.991785">
        <ele>1299.838552</ele>
        <time>2021-09-14T23:08:46.000Z</time>
      </trkpt>
      <trkpt lat="40.889472" lon="-3.991778">
        <ele>1299.926324</ele>
        <time>2021-09-14T23:08:47.000Z</time>
      </trkpt>
      <trkpt lat="40.88948" lon="-3.991763"/>
      <trkpt lat="40.889488" lon="-3.991753">
        <ele>1300.175225</ele>
        <time>2021-09-14T23:08:49.000Z</time>
      </trkpt>
      <trkpt lat="40.889493" lon="-3.991742">
        <ele>1300.272279</ele>
        <time>2021-09-14T23:08:50.000Z</time>
      </trkpt>
      <trkpt lat="40.889503" lon="-3.991722">
        <ele>1300.453594</ele>
        <time>2021-09-14T23:08:51.000Z</time>
      </trkpt>
      <trkpt lat="40.889518" lon="-3.9917"/>
      <trkpt lat="40.88953" lon="-3.991677"/>
      <trkpt lat="40.889543" lon="-3.991657">
        <ele>1301.088368</ele>
        <time>2021-09-14T23:08:54.000Z</time>
      </trkpt>
      <trkpt lat="40.889558" lon="-3.991638">
        <ele>1301.296096</ele>
        <time>2021-09-14T23:08:55.000Z</time>
      </trkpt>
      <trkpt lat="40.889568" lon="-3.991625">
        <ele>1301.436336</ele>
        <time>2021-09-14T23:08:56.000Z</time>
      </trkpt>
      <trkpt lat="40.88958" lon="-3.991613"/>
      <trkpt lat="40.88959" lon="-3.991603"/>
      <trkpt lat="40.889605" lon="-3.991593">
        <ele>1301.880202</ele>
        <time>2021-09-14T23:08:59.000Z</time>
      </trkpt>
      <trkpt lat="40.88962" lon="-3.991583"/>
      <trkpt lat="40.889633" lon="-3.991573">
        <ele>1302.198632</ele>
        <time>2021-09-14T23:09:01.000Z</time>
      </trkpt>
      <trkpt lat="40.889648" lon="-3.991562">
        <ele>1302.370179</ele>
        <time>2021-09-14T23:09:02.000Z</time>
      </trkpt>
      <trkpt lat="40.889662" lon="-3.991555">
        <ele>1302.519881</ele>
        <time>2021-09-14T23:09:03.000Z</time>
      </trkpt>
      <trkpt lat="40.889673" lon="-3.991548">
        <ele>1302.641977</ele>
        <time>2021-09-14T23:09:04.000Z</time>
      </trkpt>
      <trkpt lat="40.889685" lon="-3.991547">
        <ele>1302.762242</ele>
        <time>2021-09-14T23:09:05.000Z</time>
      </trkpt>
      <trkpt lat="40.889695" lon="-3.99154"/>
      <trkpt lat="40.889707" lon="-3.991533">
        <ele>1303.006587</ele>
        <time>2021-09-14T23:09:07.000Z</time>
      </trkpt>
      <trkpt lat="40.889713" lon="-3.99153"/>
      <trkpt lat="40.889717" lon="-3.991527">
        <ele>1303.116738</ele>
        <time>2021-09-14T23:09:09.000Z</time>
      </trkpt>
      <trkpt lat="40.88972" lon="-3.99152"/>
      <trkpt lat="40.889752" lon="-3.99147"/>
      <trkpt lat="40.889758" lon="-3.991458">
        <ele>1303.781736</ele>
        <time>2021-09-14T23:09:29.000Z</time>
      </trkpt>
      <trkpt lat="40.889762" lon="-3.99145"/>
      <trkpt lat="40.889767" lon="-3.99144"/>
      <trkpt lat="40.889772" lon="-3.991432">
        <ele>1304.023407</ele>
        <time>2021-09-14T23:09:32.000Z</time>
      </trkpt>
      <trkpt lat="40.889777" lon="-3.991423">
        <ele>1304.107860</ele>
        <time>2021-09-14T23:09:33.000Z</time>
      </trkpt>
      <trkpt lat="40.88978" lon="-3.991415"/>
      <trkpt lat="40.889783" lon="-3.991408">
        <ele>1304.236230</ele>
        <time>2021-09-14T23:09:35.000Z</time>
      </trkpt>
      <trkpt lat="40.889788" lon="-3.991402">
        <ele>1304.303753</ele>
        <time>2021-09-14T23:09:36.000Z</time>
      </trkpt>
      <trkpt lat="40.889792" lon="-3.991395">
        <ele>1304.370104</ele>
        <time>2021-09-14T23:09:37.000Z</time>
      </trkpt>
      <trkpt lat="40.889798" lon="-3.991388">
        <ele>1304.450124</ele>
        <time>2021-09-14T23:09:38.000Z</time>
      </trkpt>
      <trkpt lat="40.889803" lon="-3.991385">
        <ele>1304.505040</ele>
        <time>2021-09-14T23:09:39.000Z</time>
      </trkpt>
      <trkpt lat="40.889807" lon="-3.991382">
        <ele>1304.551032</ele>
        <time>2021-09-14T23:09:40.000Z</time>
      </trkpt>
      <trkpt lat="40.889812" lon="-3.991373">
        <ele>1304.635486</ele>
        <time>2021-09-14T23:09:41.000Z</time>
      </trkpt>
      <trkpt lat="40.88982" lon="-3.99137"/>
      <trkpt lat="40.889825" lon="-3.991365">
        <ele>1304.781352</ele>
        <time>2021-09-14T23:09:43.000Z</time>
      </trkpt>
      <trkpt lat="40.889832" lon="-3.991362">
        <ele>1304.854951</ele>
        <time>2021-09-14T23:09:44.000Z</time>
      </trkpt>
      <trkpt lat="40.88984" lon="-3.991357"/>
      <trkpt lat="40.889852" lon="-3.991355">
        <ele>1305.064428</ele>
        <time>2021-09-14T23:09:46.000Z</time>
      </trkpt>
      <trkpt lat="40.889862" lon="-3.991352">
        <ele>1305.166991</ele>
        <time>2021-09-14T23:09:47.000Z</time>
      </trkpt>
      <trkpt lat="40.88987" lon="-3.991347"/>
      <trkpt lat="40.889878" lon="-3.991345">
        <ele>1305.336927</ele>
        <time>2021-09-14T23:09:49.000Z</time>
      </trkpt>
      <trkpt lat="40.889882" lon="-3.991338">
        <ele>1305.403277</ele>
        <time>2021-09-14T23:09:50.000Z</time>
      </trkpt>
      <trkpt lat="40.889885" lon="-3.991335">
        <ele>1305.440893</ele>
        <time>2021-09-14T23:09:51.000Z</time>
      </trkpt>
      <trkpt lat="40.88989" lon="-3.99133"/>
      <trkpt lat="40.889893" lon="-3.991325">
        <ele>1305.551855</ele>
        <time>2021-09-14T23:09:53.000Z</time>
      </trkpt>
      <trkpt lat="40.889898" lon="-3.99132"/>
      <trkpt lat="40.889902" lon="-3.991317">
        <ele>1305.660542</ele>
        <time>2021-09-14T23:09:55.000Z</time>
      </trkpt>
      <trkpt lat="40.889908" lon="-3.991312">
        <ele>1305.731472</ele>
        <time>2021-09-14T23:09:56.000Z</time>
      </trkpt>
      <trkpt lat="40.889912" lon="-3.991308">
        <ele>1305.781627</ele>
        <time>2021-09-14T23:09:57.000Z</time>
      </trkpt>
      <trkpt lat="40.889917" lon="-3.991303">
        <ele>1305.844321</ele>
        <time>2021-09-14T23:09:58.000Z</time>
      </trkpt>
      <trkpt lat="40.889922" lon="-3.991298">
        <ele>1305.907015</ele>
        <time>2021-09-14T23:09:59.000Z</time>
      </trkpt>
      <trkpt lat="40.889925" lon="-3.991295">
        <ele>1305.944632</ele>
        <time>2021-09-14T23:10:00.000Z</time>
      </trkpt>
      <trkpt lat="40.889932" lon="-3.991292">
        <ele>1306.018231</ele>
        <time>2021-09-14T23:10:01.000Z</time>
      </trkpt>
      <trkpt lat="40.889937" lon="-3.991287">
        <ele>1306.080925</ele>
        <time>2021-09-14T23:10:02.000Z</time>
      </trkpt>
      <trkpt lat="40.889942" lon="-3.99128"/>
      <trkpt lat="40.889948" lon="-3.991273">
        <ele>1306.233765</ele>
        <time>2021-09-14T23:10:04.000Z</time>
      </trkpt>
      <trkpt lat="40.889953" lon="-3.991267">
        <ele>1306.301289</ele>
        <time>2021-09-14T23:10:05.000Z</time>
      </trkpt>
      <trkpt lat="40.889958" lon="-3.991262">
        <ele>1306.363983</ele>
        <time>2021-09-14T23:10:06.000Z</time>
      </trkpt>
      <trkpt lat="40.889962" lon="-3.991253">
        <ele>1306.442926</ele>
        <time>2021-09-14T23:10:07.000Z</time>
      </trkpt>
      <trkpt lat="40.889965" lon="-3.991247">
        <ele>1306.497320</ele>
        <time>2021-09-14T23:10:08.000Z</time>
      </trkpt>
      <trkpt lat="40.889972" lon="-3.99124"/>
      <trkpt lat="40.889975" lon="-3.991235">
        <ele>1306.633359</ele>
        <time>2021-09-14T23:10:10.000Z</time>
      </trkpt>
      <trkpt lat="40.889978" lon="-3.99123"/>
      <trkpt lat="40.889985" lon="-3.991225">
        <ele>1306.761199</ele>
        <time>2021-09-14T23:10:12.000Z</time>
      </trkpt>
      <trkpt lat="40.88999" lon="-3.991218"/>
      <trkpt lat="40.889993" lon="-3.991215">
        <ele>1306.871635</ele>
        <time>2021-09-14T23:10:14.000Z</time>
      </trkpt>
      <trkpt lat="40.889998" lon="-3.99121"/>
      <trkpt lat="40.890003" lon="-3.991207">
        <ele>1306.989245</ele>
        <time>2021-09-14T23:10:16.000Z</time>
      </trkpt>
      <trkpt lat="40.89001" lon="-3.991202"/>
      <trkpt lat="40.890017" lon="-3.991198">
        <ele>1307.145086</ele>
        <time>2021-09-14T23:10:18.000Z</time>
      </trkpt>
      <trkpt lat="40.890022" lon="-3.991195">
        <ele>1307.200002</ele>
        <time>2021-09-14T23:10:19.000Z</time>
      </trkpt>
      <trkpt lat="40.890028" lon="-3.991188">
        <ele>1307.280022</ele>
        <time>2021-09-14T23:10:20.000Z</time>
      </trkpt>
      <trkpt lat="40.890033" lon="-3.991182">
        <ele>1307.347546</ele>
        <time>2021-09-14T23:10:21.000Z</time>
      </trkpt>
      <trkpt lat="40.890038" lon="-3.991175">
        <ele>1307.420366</ele>
        <time>2021-09-14T23:10:22.000Z</time>
      </trkpt>
      <trkpt lat="40.890045" lon="-3.991168">
        <ele>1307.508138</ele>
        <time>2021-09-14T23:10:23.000Z</time>
      </trkpt>
      <trkpt lat="40.890048" lon="-3.991163">
        <ele>1307.556406</ele>
        <time>2021-09-14T23:10:24.000Z</time>
      </trkpt>
      <trkpt lat="40.890053" lon="-3.991157">
        <ele>1307.623929</ele>
        <time>2021-09-14T23:10:25.000Z</time>
      </trkpt>
      <trkpt lat="40.89006" lon="-3.991152"/>
      <trkpt lat="40.890068" lon="-3.991148">
        <ele>1307.789045</ele>
        <time>2021-09-14T23:10:27.000Z</time>
      </trkpt>
      <trkpt lat="40.890073" lon="-3.991143">
        <ele>1307.851739</ele>
        <time>2021-09-14T23:10:28.000Z</time>
      </trkpt>
      <trkpt lat="40.890077" lon="-3.991138">
        <ele>1307.906785</ele>
        <time>2021-09-14T23:10:29.000Z</time>
      </trkpt>
      <trkpt lat="40.890083" lon="-3.99113"/>
      <trkpt lat="40.890088" lon="-3.991123">
        <ele>1308.064816</ele>
        <time>2021-09-14T23:10:31.000Z</time>
      </trkpt>
      <trkpt lat="40.890093" lon="-3.991113">
        <ele>1308.155473</ele>
        <time>2021-09-14T23:10:32.000Z</time>
      </trkpt>
      <trkpt lat="40.890098" lon="-3.991105">
        <ele>1308.233961</ele>
        <time>2021-09-14T23:10:33.000Z</time>
      </trkpt>
      <trkpt lat="40.890103" lon="-3.991095">
        <ele>1308.324618</ele>
        <time>2021-09-14T23:10:34.000Z</time>
      </trkpt>
      <trkpt lat="40.89011" lon="-3.991087"/>
      <trkpt lat="40.890113" lon="-3.991078">
        <ele>1308.491521</ele>
        <time>2021-09-14T23:10:36.000Z</time>
      </trkpt>
      <trkpt lat="40.890117" lon="-3.991075">
        <ele>1308.537513</ele>
        <time>2021-09-14T23:10:37.000Z</time>
      </trkpt>
      <trkpt lat="40.890118" lon="-3.991072">
        <ele>1308.562305</ele>
        <time>2021-09-14T23:10:38.000Z</time>
      </trkpt>
      <trkpt lat="40.89012" lon="-3.991068"/>
      <trkpt lat="40.890125" lon="-3.99106"/>
      <trkpt lat="40.890133" lon="-3.991048">
        <ele>1308.798035</ele>
        <time>2021-09-14T23:10:41.000Z</time>
      </trkpt>
      <trkpt lat="40.890142" lon="-3.991038">
        <ele>1308.915599</ele>
        <time>2021-09-14T23:10:42.000Z</time>
      </trkpt>
      <trkpt lat="40.890152" lon="-3.991028">
        <ele>1309.040987</ele>
        <time>2021-09-14T23:10:43.000Z</time>
      </trkpt>
      <trkpt lat="40.890163" lon="-3.99102"/>
      <trkpt lat="40.89018" lon="-3.991007"/>
      <trkpt lat="40.890195" lon="-3.99099"/>
      <trkpt lat="40.890213" lon="-3.990973">
        <ele>1309.781743</ele>
        <time>2021-09-14T23:10:47.000Z</time>
      </trkpt>
      <trkpt lat="40.89023" lon="-3.990957"/>
      <trkpt lat="40.890247" lon="-3.990938">
        <ele>1310.213036</ele>
        <time>2021-09-14T23:10:49.000Z</time>
      </trkpt>
      <trkpt lat="40.890268" lon="-3.99092"/>
      <trkpt lat="40.890287" lon="-3.990905">
        <ele>1310.684642</ele>
        <time>2021-09-14T23:10:51.000Z</time>
      </trkpt>
      <trkpt lat="40.890298" lon="-3.990893">
        <ele>1310.827256</ele>
        <time>2021-09-14T23:10:52.000Z</time>
      </trkpt>
      <trkpt lat="40.890313" lon="-3.990882">
        <ele>1310.998804</ele>
        <time>2021-09-14T23:10:53.000Z</time>
      </trkpt>
      <trkpt lat="40.89033" lon="-3.99087"/>
      <trkpt lat="40.89035" lon="-3.990858"/>
      <trkpt lat="40.89037" lon="-3.990843"/>
      <trkpt lat="40.890392" lon="-3.990822">
        <ele>1311.912524</ele>
        <time>2021-09-14T23:10:57.000Z</time>
      </trkpt>
      <trkpt lat="40.890413" lon="-3.990793">
        <ele>1312.216175</ele>
        <time>2021-09-14T23:10:58.000Z</time>
      </trkpt>
      <trkpt lat="40.890428" lon="-3.990757">
        <ele>1312.526994</ele>
        <time>2021-09-14T23:10:59.000Z</time>
      </trkpt>
      <trkpt lat="40.890442" lon="-3.990722">
        <ele>1312.826406</ele>
        <time>2021-09-14T23:11:00.000Z</time>
      </trkpt>
      <trkpt lat="40.890453" lon="-3.990692">
        <ele>1313.078523</ele>
        <time>2021-09-14T23:11:01.000Z</time>
      </trkpt>
      <trkpt lat="40.89047" lon="-3.990665"/>
      <trkpt lat="40.890495" lon="-3.990638">
        <ele>1313.667031</ele>
        <time>2021-09-14T23:11:03.000Z</time>
      </trkpt>
      <trkpt lat="40.89052" lon="-3.990615"/>
      <trkpt lat="40.890547" lon="-3.990588">
        <ele>1314.310166</ele>
        <time>2021-09-14T23:11:05.000Z</time>
      </trkpt>
      <trkpt lat="40.890578" lon="-3.990568">
        <ele>1314.655151</ele>
        <time>2021-09-14T23:11:06.000Z</time>
      </trkpt>
      <trkpt lat="40.890605" lon="-3.990555">
        <ele>1314.942546</ele>
        <time>2021-09-14T23:11:07.000Z</time>
      </trkpt>
      <trkpt lat="40.890633" lon="-3.990535">
        <ele>1315.260832</ele>
        <time>2021-09-14T23:11:08.000Z</time>
      </trkpt>
      <trkpt lat="40.890668" lon="-3.990505">
        <ele>1315.677981</ele>
        <time>2021-09-14T23:11:09.000Z</time>
      </trkpt>
      <trkpt lat="40.8907" lon="-3.990475"/>
      <trkpt lat="40.89073" lon="-3.990442"/>
      <trkpt lat="40.890762" lon="-3.990408">
        <ele>1316.871086</ele>
        <time>2021-09-14T23:11:12.000Z</time>
      </trkpt>
      <trkpt lat="40.890795" lon="-3.990372">
        <ele>1317.315260</ele>
        <time>2021-09-14T23:11:13.000Z</time>
      </trkpt>
      <trkpt lat="40.890828" lon="-3.99034"/>
      <trkpt lat="40.89086" lon="-3.990303"/>
      <trkpt lat="40.89089" lon="-3.99027"/>
      <trkpt lat="40.890913" lon="-3.990238">
        <ele>1319.442755</ele>
        <time>2021-09-14T23:11:17.000Z</time>
      </trkpt>
      <trkpt lat="40.890937" lon="-3.99021"/>
      <trkpt lat="40.890962" lon="-3.990183">
        <ele>1320.320360</ele>
        <time>2021-09-14T23:11:19.000Z</time>
      </trkpt>
      <trkpt lat="40.890993" lon="-3.990157">
        <ele>1320.821541</ele>
        <time>2021-09-14T23:11:20.000Z</time>
      </trkpt>
      <trkpt lat="40.891023" lon="-3.990132">
        <ele>1321.305666</ele>
        <time>2021-09-14T23:11:21.000Z</time>
      </trkpt>
      <trkpt lat="40.891048" lon="-3.990112">
        <ele>1321.704585</ele>
        <time>2021-09-14T23:11:22.000Z</time>
      </trkpt>
      <trkpt lat="40.891068" lon="-3.990087">
        <ele>1322.080299</ele>
        <time>2021-09-14T23:11:23.000Z</time>
      </trkpt>
      <trkpt lat="40.891083" lon="-3.990063">
        <ele>1322.401724</ele>
        <time>2021-09-14T23:11:24.000Z</time>
      </trkpt>
      <trkpt lat="40.891092" lon="-3.990042">
        <ele>1322.650894</ele>
        <time>2021-09-14T23:11:25.000Z</time>
      </trkpt>
      <trkpt lat="40.891113" lon="-3.990022">
        <ele>1323.004210</ele>
        <time>2021-09-14T23:11:26.000Z</time>
      </trkpt>
      <trkpt lat="40.891143" lon="-3.990003">
        <ele>1323.458358</ele>
        <time>2021-09-14T23:11:27.000Z</time>
      </trkpt>
      <trkpt lat="40.89117" lon="-3.989985"/>
      <trkpt lat="40.891193" lon="-3.989965">
        <ele>1324.247005</ele>
        <time>2021-09-14T23:11:29.000Z</time>
      </trkpt>
      <trkpt lat="40.891213" lon="-3.989953">
        <ele>1324.546863</ele>
        <time>2021-09-14T23:11:30.000Z</time>
      </trkpt>
      <trkpt lat="40.891232" lon="-3.989938">
        <ele>1324.848978</ele>
        <time>2021-09-14T23:11:31.000Z</time>
      </trkpt>
      <trkpt lat="40.891247" lon="-3.98992"/>
      <trkpt lat="40.89126" lon="-3.989907"/>
      <trkpt lat="40.891273" lon="-3.989893">
        <ele>1325.576903</ele>
        <time>2021-09-14T23:11:34.000Z</time>
      </trkpt>
      <trkpt lat="40.891287" lon="-3.989878">
        <ele>1325.822895</ele>
        <time>2021-09-14T23:11:35.000Z</time>
      </trkpt>
      <trkpt lat="40.891298" lon="-3.989862">
        <ele>1326.046127</ele>
        <time>2021-09-14T23:11:36.000Z</time>
      </trkpt>
      <trkpt lat="40.89131" lon="-3.989843"/>
      <trkpt lat="40.891325" lon="-3.98983"/>
      <trkpt lat="40.89134" lon="-3.989817"/>
      <trkpt lat="40.891353" lon="-3.989803">
        <ele>1327.020269</ele>
        <time>2021-09-14T23:11:40.000Z</time>
      </trkpt>
      <trkpt lat="40.891365" lon="-3.98979"/>
      <trkpt lat="40.891377" lon="-3.989785">
        <ele>1327.403835</ele>
        <time>2021-09-14T23:11:42.000Z</time>
      </trkpt>
      <trkpt lat="40.891393" lon="-3.98978"/>
      <trkpt lat="40.89141" lon="-3.989765"/>
      <trkpt lat="40.891423" lon="-3.989747">
        <ele>1328.164284</ele>
        <time>2021-09-14T23:11:45.000Z</time>
      </trkpt>
      <trkpt lat="40.891438" lon="-3.98973"/>
      <trkpt lat="40.891453" lon="-3.989715">
        <ele>1328.690728</ele>
        <time>2021-09-14T23:11:47.000Z</time>
      </trkpt>
      <trkpt lat="40.891468" lon="-3.989703">
        <ele>1328.930079</ele>
        <time>2021-09-14T23:11:48.000Z</time>
      </trkpt>
      <trkpt lat="40.89148" lon="-3.989685"/>
      <trkpt lat="40.891492" lon="-3.989665">
        <ele>1329.441355</ele>
        <time>2021-09-14T23:11:50.000Z</time>
      </trkpt>
      <trkpt lat="40.891503" lon="-3.989647">
        <ele>1329.680262</ele>
        <time>2021-09-14T23:11:51.000Z</time>
      </trkpt>
      <trkpt lat="40.891513" lon="-3.98963"/>
      <trkpt lat="40.891525" lon="-3.989613">
        <ele>1330.142673</ele>
        <time>2021-09-14T23:11:53.000Z</time>
      </trkpt>
      <trkpt lat="40.891532" lon="-3.989603">
        <ele>1330.283346</ele>
        <time>2021-09-14T23:11:54.000Z</time>
      </trkpt>
      <trkpt lat="40.891535" lon="-3.989597">
        <ele>1330.357598</ele>
        <time>2021-09-14T23:11:55.000Z</time>
      </trkpt>
      <trkpt lat="40.891538" lon="-3.989592">
        <ele>1330.423487</ele>
        <time>2021-09-14T23:11:56.000Z</time>
      </trkpt>
      <trkpt lat="40.891543" lon="-3.989585">
        <ele>1330.522891</ele>
        <time>2021-09-14T23:11:57.000Z</time>
      </trkpt>
      <trkpt lat="40.891548" lon="-3.98958"/>
      <trkpt lat="40.891555" lon="-3.989572">
        <ele>1330.734781</ele>
        <time>2021-09-14T23:11:59.000Z</time>
      </trkpt>
      <trkpt lat="40.89156" lon="-3.989565"/>
      <trkpt lat="40.891565" lon="-3.989558">
        <ele>1330.933589</ele>
        <time>2021-09-14T23:12:01.000Z</time>
      </trkpt>
      <trkpt lat="40.89157" lon="-3.98955"/>
      <trkpt lat="40.891573" lon="-3.989543">
        <ele>1331.123787</ele>
        <time>2021-09-14T23:12:03.000Z</time>
      </trkpt>
      <trkpt lat="40.891577" lon="-3.989537">
        <ele>1331.206360</ele>
        <time>2021-09-14T23:12:04.000Z</time>
      </trkpt>
      <trkpt lat="40.89159" lon="-3.989518"/>
      <trkpt lat="40.891595" lon="-3.989508">
        <ele>1331.594626</ele>
        <time>2021-09-14T23:12:09.000Z</time>
      </trkpt>
      <trkpt lat="40.891598" lon="-3.989505">
        <ele>1331.645975</ele>
        <time>2021-09-14T23:12:10.000Z</time>
      </trkpt>
      <trkpt lat="40.891603" lon="-3.989497">
        <ele>1331.753117</ele>
        <time>2021-09-14T23:12:11.000Z</time>
      </trkpt>
      <trkpt lat="40.891608" lon="-3.989487">
        <ele>1331.876869</ele>
        <time>2021-09-14T23:12:12.000Z</time>
      </trkpt>
      <trkpt lat="40.891617" lon="-3.989472">
        <ele>1332.074536</ele>
        <time>2021-09-14T23:12:13.000Z</time>
      </trkpt>
      <trkpt lat="40.891627" lon="-3.98946"/>
      <trkpt lat="40.891638" lon="-3.989447">
        <ele>1332.460289</ele>
        <time>2021-09-14T23:12:15.000Z</time>
      </trkpt>
      <trkpt lat="40.891648" lon="-3.989435">
        <ele>1332.644639</ele>
        <time>2021-09-14T23:12:16.000Z</time>
      </trkpt>
      <trkpt lat="40.891662" lon="-3.989422">
        <ele>1332.878189</ele>
        <time>2021-09-14T23:12:17.000Z</time>
      </trkpt>
      <trkpt lat="40.891673" lon="-3.98941"/>
      <trkpt lat="40.891682" lon="-3.989398">
        <ele>1333.247346</ele>
        <time>2021-09-14T23:12:19.000Z</time>
      </trkpt>
      <trkpt lat="40.89169" lon="-3.989383"/>
      <trkpt lat="40.891698" lon="-3.989368">
        <ele>1333.626306</ele>
        <time>2021-09-14T23:12:21.000Z</time>
      </trkpt>
      <trkpt lat="40.891707" lon="-3.989353">
        <ele>1333.823973</ele>
        <time>2021-09-14T23:12:22.000Z</time>
      </trkpt>
      <trkpt lat="40.89171" lon="-3.989343"/>
      <trkpt lat="40.891715" lon="-3.98933"/>
      <trkpt lat="40.891725" lon="-3.98932"/>
      <trkpt lat="40.891735" lon="-3.989307">
        <ele>1334.448174</ele>
        <time>2021-09-14T23:12:26.000Z</time>
      </trkpt>
      <trkpt lat="40.891737" lon="-3.989307">
        <ele>1334.475482</ele>
        <time>2021-09-14T23:12:27.000Z</time>
      </trkpt>
      <trkpt lat="40.891738" lon="-3.989305">
        <ele>1334.500232</ele>
        <time>2021-09-14T23:12:28.000Z</time>
      </trkpt>
      <trkpt lat="40.891743" lon="-3.989297">
        <ele>1334.607374</ele>
        <time>2021-09-14T23:12:29.000Z</time>
      </trkpt>
      <trkpt lat="40.891748" lon="-3.98929"/>
      <trkpt lat="40.891753" lon="-3.989287">
        <ele>1334.781742</ele>
        <time>2021-09-14T23:12:31.000Z</time>
      </trkpt>
      <trkpt lat="40.891757" lon="-3.989282">
        <ele>1334.856884</ele>
        <time>2021-09-14T23:12:32.000Z</time>
      </trkpt>
      <trkpt lat="40.89176" lon="-3.98928"/>
      <trkpt lat="40.891762" lon="-3.989278">
        <ele>1334.936987</ele>
        <time>2021-09-14T23:12:34.000Z</time>
      </trkpt>
      <trkpt lat="40.891775" lon="-3.989258">
        <ele>1335.209241</ele>
        <time>2021-09-14T23:12:37.000Z</time>
      </trkpt>
      <trkpt lat="40.891783" lon="-3.98925"/>
      <trkpt lat="40.891795" lon="-3.989238">
        <ele>1335.551569</ele>
        <time>2021-09-14T23:12:39.000Z</time>
      </trkpt>
      <trkpt lat="40.891803" lon="-3.989227">
        <ele>1335.709121</ele>
        <time>2021-09-14T23:12:40.000Z</time>
      </trkpt>
      <trkpt lat="40.891815" lon="-3.989217">
        <ele>1335.902770</ele>
        <time>2021-09-14T23:12:41.000Z</time>
      </trkpt>
      <trkpt lat="40.891823" lon="-3.989203">
        <ele>1336.083914</ele>
        <time>2021-09-14T23:12:42.000Z</time>
      </trkpt>
      <trkpt lat="40.891835" lon="-3.989193">
        <ele>1336.277564</ele>
        <time>2021-09-14T23:12:43.000Z</time>
      </trkpt>
      <trkpt lat="40.891845" lon="-3.989187">
        <ele>1336.427492</ele>
        <time>2021-09-14T23:12:44.000Z</time>
      </trkpt>
      <trkpt lat="40.891858" lon="-3.989178">
        <ele>1336.627834</ele>
        <time>2021-09-14T23:12:45.000Z</time>
      </trkpt>
      <trkpt lat="40.891867" lon="-3.989168">
        <ele>1336.788317</ele>
        <time>2021-09-14T23:12:46.000Z</time>
      </trkpt>
      <trkpt lat="40.891875" lon="-3.989158">
        <ele>1336.938601</ele>
        <time>2021-09-14T23:12:47.000Z</time>
      </trkpt>
      <trkpt lat="40.891882" lon="-3.98915"/>
      <trkpt lat="40.89189" lon="-3.989145"/>
      <trkpt lat="40.891898" lon="-3.989142">
        <ele>1337.299255</ele>
        <time>2021-09-14T23:12:50.000Z</time>
      </trkpt>
      <trkpt lat="40.891902" lon="-3.989138">
        <ele>1337.367721</ele>
        <time>2021-09-14T23:12:51.000Z</time>
      </trkpt>
      <trkpt lat="40.891905" lon="-3.989137">
        <ele>1337.409963</ele>
        <time>2021-09-14T23:12:52.000Z</time>
      </trkpt>
      <trkpt lat="40.89191" lon="-3.989133"/>
      <trkpt lat="40.891915" lon="-3.989132">
        <ele>1337.558793</ele>
        <time>2021-09-14T23:12:54.000Z</time>
      </trkpt>
      <trkpt lat="40.891922" lon="-3.989127">
        <ele>1337.667414</ele>
        <time>2021-09-14T23:12:55.000Z</time>
      </trkpt>
      <trkpt lat="40.89193" lon="-3.98912"/>
      <trkpt lat="40.891935" lon="-3.989117">
        <ele>1337.873344</ele>
        <time>2021-09-14T23:12:57.000Z</time>
      </trkpt>
      <trkpt lat="40.891943" lon="-3.989108">
        <ele>1338.016736</ele>
        <time>2021-09-14T23:12:58.000Z</time>
      </trkpt>
      <trkpt lat="40.891952" lon="-3.989107">
        <ele>1338.140055</ele>
        <time>2021-09-14T23:12:59.000Z</time>
      </trkpt>
      <trkpt lat="40.891963" lon="-3.9891"/>
      <trkpt lat="40.891975" lon="-3.989097">
        <ele>1338.473473</ele>
        <time>2021-09-14T23:13:01.000Z</time>
      </trkpt>
      <trkpt lat="40.891987" lon="-3.989092">
        <ele>1338.645257</ele>
        <time>2021-09-14T23:13:02.000Z</time>
      </trkpt>
      <trkpt lat="40.892" lon="-3.989087"/>
      <trkpt lat="40.892012" lon="-3.98908"/>
      <trkpt lat="40.892022" lon="-3.989075">
        <ele>1339.155149</ele>
        <time>2021-09-14T23:13:05.000Z</time>
      </trkpt>
      <trkpt lat="40.892035" lon="-3.989068">
        <ele>1339.346793</ele>
        <time>2021-09-14T23:13:06.000Z</time>
      </trkpt>
      <trkpt lat="40.892045" lon="-3.98906"/>
      <trkpt lat="40.892055" lon="-3.989053">
        <ele>1339.660838</ele>
        <time>2021-09-14T23:13:08.000Z</time>
      </trkpt>
      <trkpt lat="40.892058" lon="-3.989047">
        <ele>1339.735090</ele>
        <time>2021-09-14T23:13:09.000Z</time>
      </trkpt>
      <trkpt lat="40.892062" lon="-3.989047">
        <ele>1339.789706</ele>
        <time>2021-09-14T23:13:10.000Z</time>
      </trkpt>
      <trkpt lat="40.892063" lon="-3.989043">
        <ele>1339.833192</ele>
        <time>2021-09-14T23:13:11.000Z</time>
      </trkpt>
      <trkpt lat="40.892068" lon="-3.989038">
        <ele>1339.918773</ele>
        <time>2021-09-14T23:13:12.000Z</time>
      </trkpt>
      <trkpt lat="40.892073" lon="-3.989033">
        <ele>1340.004355</ele>
        <time>2021-09-14T23:13:13.000Z</time>
      </trkpt>
      <trkpt lat="40.89208" lon="-3.989025"/>
      <trkpt lat="40.892087" lon="-3.989018">
        <ele>1340.250477</ele>
        <time>2021-09-14T23:13:15.000Z</time>
      </trkpt>
      <trkpt lat="40.892093" lon="-3.989012">
        <ele>1340.353175</ele>
        <time>2021-09-14T23:13:16.000Z</time>
      </trkpt>
      <trkpt lat="40.8921" lon="-3.989007"/>
      <trkpt lat="40.892107" lon="-3.989003">
        <ele>1340.565911</ele>
        <time>2021-09-14T23:13:18.000Z</time>
      </trkpt>
      <trkpt lat="40.892115" lon="-3.988998">
        <ele>1340.686721</ele>
        <time>2021-09-14T23:13:19.000Z</time>
      </trkpt>
      <trkpt lat="40.892125" lon="-3.98899"/>
      <trkpt lat="40.89213" lon="-3.988987"/>
      <trkpt lat="40.892138" lon="-3.988983">
        <ele>1341.038026</ele>
        <time>2021-09-14T23:13:22.000Z</time>
      </trkpt>
      <trkpt lat="40.892148" lon="-3.98898"/>
      <trkpt lat="40.892155" lon="-3.988978">
        <ele>1341.275816</ele>
        <time>2021-09-14T23:13:24.000Z</time>
      </trkpt>
      <trkpt lat="40.892162" lon="-3.988973">
        <ele>1341.384437</ele>
        <time>2021-09-14T23:13:25.000Z</time>
      </trkpt>
      <trkpt lat="40.892168" lon="-3.988968">
        <ele>1341.481262</ele>
        <time>2021-09-14T23:13:26.000Z</time>
      </trkpt>
      <trkpt lat="40.892173" lon="-3.988965">
        <ele>1341.556226</ele>
        <time>2021-09-14T23:13:27.000Z</time>
      </trkpt>
      <trkpt lat="40.892178" lon="-3.988962">
        <ele>1341.631190</ele>
        <time>2021-09-14T23:13:28.000Z</time>
      </trkpt>
      <trkpt lat="40.892182" lon="-3.988958">
        <ele>1341.699656</ele>
        <time>2021-09-14T23:13:29.000Z</time>
      </trkpt>
      <trkpt lat="40.892183" lon="-3.988957">
        <ele>1341.716772</ele>
        <time>2021-09-14T23:13:30.000Z</time>
      </trkpt>
      <trkpt lat="40.892187" lon="-3.988953">
        <ele>1341.785237</ele>
        <time>2021-09-14T23:13:31.000Z</time>
      </trkpt>
      <trkpt lat="40.892195" lon="-3.988945">
        <ele>1341.812907</ele>
        <time>2021-09-14T23:13:32.000Z</time>
      </trkpt>
      <trkpt lat="40.8922" lon="-3.988937"/>
      <trkpt lat="40.892203" lon="-3.988928">
        <ele>1341.812907</ele>
        <time>2021-09-14T23:13:34.000Z</time>
      </trkpt>
      <trkpt lat="40.892207" lon="-3.98892"/>
      <trkpt lat="40.89221" lon="-3.988908"/>
      <trkpt lat="40.892213" lon="-3.988902">
        <ele>1341.812907</ele>
        <time>2021-09-14T23:13:37.000Z</time>
      </trkpt>
      <trkpt lat="40.89222" lon="-3.988895"/>
      <trkpt lat="40.892227" lon="-3.988887">
        <ele>1341.812907</ele>
        <time>2021-09-14T23:13:39.000Z</time>
      </trkpt>
      <trkpt lat="40.892233" lon="-3.98888"/>
      <trkpt lat="40.89224" lon="-3.988873"/>
      <trkpt lat="40.892248" lon="-3.98887"/>
      <trkpt lat="40.89225" lon="-3.98887"/>
      <trkpt lat="40.892252" lon="-3.988868">
        <ele>1341.812907</ele>
        <time>2021-09-14T23:13:44.000Z</time>
      </trkpt>
      <trkpt lat="40.892252" lon="-3.988868">
        <ele>1341.812907</ele>
        <time>2021-09-14T23:13:44.000Z</time>
      </trkpt>
      <trkpt lat="40.892253" lon="-3.988868">
        <ele>1341.812907</ele>
        <time>2021-09-14T23:13:46.000Z</time>
      </trkpt>
      <trkpt lat="40.892267" lon="-3.988863">
        <ele>1341.812907</ele>
        <time>2021-09-14T23:13:55.000Z</time>
      </trkpt>
      <trkpt lat="40.892275" lon="-3.988857">
        <ele>1341.812907</ele>
        <time>2021-09-14T23:13:56.000Z</time>
      </trkpt>
      <trkpt lat="40.892283" lon="-3.988845">
        <ele>1341.812907</ele>
        <time>2021-09-14T23:13:57.000Z</time>
      </trkpt>
      <trkpt lat="40.89229" lon="-3.988837"/>
      <trkpt lat="40.892295" lon="-3.988828">
        <ele>1341.812907</ele>
        <time>2021-09-14T23:13:59.000Z</time>
      </trkpt>
      <trkpt lat="40.8923" lon="-3.98882"/>
      <trkpt lat="40.892307" lon="-3.988813">
        <ele>1341.812907</ele>
        <time>2021-09-14T23:14:01.000Z</time>
      </trkpt>
      <trkpt lat="40.892313" lon="-3.98881"/>
      <trkpt lat="40.89232" lon="-3.988807"/>
      <trkpt lat="40.892325" lon="-3.988802">
        <ele>1341.812907</ele>
        <time>2021-09-14T23:14:04.000Z</time>
      </trkpt>
      <trkpt lat="40.89233" lon="-3.988797"/>
      <trkpt lat="40.892335" lon="-3.98879"/>
      <trkpt lat="40.89234" lon="-3.988782"/>
      <trkpt lat="40.892345" lon="-3.988773">
        <ele>1341.812907</ele>
        <time>2021-09-14T23:14:08.000Z</time>
      </trkpt>
      <trkpt lat="40.892348" lon="-3.988765">
        <ele>1341.812907</ele>
        <time>2021-09-14T23:14:09.000Z</time>
      </trkpt>
      <trkpt lat="40.892352" lon="-3.988757">
        <ele>1341.812907</ele>
        <time>2021-09-14T23:14:10.000Z</time>
      </trkpt>
      <trkpt lat="40.892357" lon="-3.98875"/>
      <trkpt lat="40.89236" lon="-3.988743"/>
      <trkpt lat="40.892365" lon="-3.988737">
        <ele>1341.812907</ele>
        <time>2021-09-14T23:14:13.000Z</time>
      </trkpt>
      <trkpt lat="40.89237" lon="-3.988728"/>
      <trkpt lat="40.892377" lon="-3.988722">
        <ele>1341.812907</ele>
        <time>2021-09-14T23:14:15.000Z</time>
      </trkpt>
      <trkpt lat="40.892382" lon="-3.988715">
        <ele>1341.812907</ele>
        <time>2021-09-14T23:14:16.000Z</time>
      </trkpt>
      <trkpt lat="40.892387" lon="-3.988712">
        <ele>1341.812907</ele>
        <time>2021-09-14T23:14:17.000Z</time>
      </trkpt>
      <trkpt lat="40.892392" lon="-3.988705">
        <ele>1341.812907</ele>
        <time>2021-09-14T23:14:18.000Z</time>
      </trkpt>
      <trkpt lat="40.892395" lon="-3.9887"/>
      <trkpt lat="40.8924" lon="-3.988693"/>
      <trkpt lat="40.892405" lon="-3.988687">
        <ele>1341.812907</ele>
        <time>2021-09-14T23:14:21.000Z</time>
      </trkpt>
      <trkpt lat="40.89241" lon="-3.988675"/>
      <trkpt lat="40.892417" lon="-3.988665">
        <ele>1341.812907</ele>
        <time>2021-09-14T23:14:23.000Z</time>
      </trkpt>
      <trkpt lat="40.892423" lon="-3.988657">
        <ele>1341.812907</ele>
        <time>2021-09-14T23:14:24.000Z</time>
      </trkpt>
      <trkpt lat="40.89243" lon="-3.988648"/>
      <trkpt lat="40.892437" lon="-3.988642">
        <ele>1341.812907</ele>
        <time>2021-09-14T23:14:26.000Z</time>
      </trkpt>
      <trkpt lat="40.892445" lon="-3.988635">
        <ele>1341.812907</ele>
        <time>2021-09-14T23:14:27.000Z</time>
      </trkpt>
      <trkpt lat="40.892452" lon="-3.98863"/>
      <trkpt lat="40.89246" lon="-3.988625"/>
      <trkpt lat="40.892467" lon="-3.988623">
        <ele>1341.812907</ele>
        <time>2021-09-14T23:14:30.000Z</time>
      </trkpt>
      <trkpt lat="40.892475" lon="-3.988625">
        <ele>1341.812907</ele>
        <time>2021-09-14T23:14:31.000Z</time>
      </trkpt>
      <trkpt lat="40.892477" lon="-3.988625">
        <ele>1341.812907</ele>
        <time>2021-09-14T23:14:32.000Z</time>
      </trkpt>
      <trkpt lat="40.892477" lon="-3.988625">
        <ele>1341.812907</ele>
        <time>2021-09-14T23:14:32.000Z</time>
      </trkpt>
      <trkpt lat="40.89248" lon="-3.988623"/>
      <trkpt lat="40.892482" lon="-3.988623">
        <ele>1341.812907</ele>
        <time>2021-09-14T23:14:35.000Z</time>
      </trkpt>
      <trkpt lat="40.892498" lon="-3.988615">
        <ele>1341.812907</ele>
        <time>2021-09-14T23:14:38.000Z</time>
      </trkpt>
      <trkpt lat="40.892507" lon="-3.988608">
        <ele>1341.812907</ele>
        <time>2021-09-14T23:14:39.000Z</time>
      </trkpt>
      <trkpt lat="40.89252" lon="-3.9886"/>
      <trkpt lat="40.892535" lon="-3.988588">
        <ele>1341.812907</ele>
        <time>2021-09-14T23:14:41.000Z</time>
      </trkpt>
      <trkpt lat="40.892552" lon="-3.988575">
        <ele>1341.812907</ele>
        <time>2021-09-14T23:14:42.000Z</time>
      </trkpt>
      <trkpt lat="40.892563" lon="-3.988562">
        <ele>1341.812907</ele>
        <time>2021-09-14T23:14:43.000Z</time>
      </trkpt>
      <trkpt lat="40.892575" lon="-3.988548">
        <ele>1341.812907</ele>
        <time>2021-09-14T23:14:44.000Z</time>
      </trkpt>
      <trkpt lat="40.892585" lon="-3.988532">
        <ele>1341.812907</ele>
        <time>2021-09-14T23:14:45.000Z</time>
      </trkpt>
      <trkpt lat="40.892597" lon="-3.988515">
        <ele>1341.812907</ele>
        <time>2021-09-14T23:14:46.000Z</time>
      </trkpt>
      <trkpt lat="40.892607" lon="-3.9885"/>
      <trkpt lat="40.892615" lon="-3.988482">
        <ele>1341.812907</ele>
        <time>2021-09-14T23:14:48.000Z</time>
      </trkpt>
      <trkpt lat="40.89262" lon="-3.988462"/>
      <trkpt lat="40.892625" lon="-3.98844"/>
      <trkpt lat="40.892625" lon="-3.988423">
        <ele>1341.812907</ele>
        <time>2021-09-14T23:14:51.000Z</time>
      </trkpt>
      <trkpt lat="40.892625" lon="-3.988408">
        <ele>1341.812907</ele>
        <time>2021-09-14T23:14:52.000Z</time>
      </trkpt>
      <trkpt lat="40.892625" lon="-3.988403">
        <ele>1341.812907</ele>
        <time>2021-09-14T23:14:53.000Z</time>
      </trkpt>
      <trkpt lat="40.892627" lon="-3.988403">
        <ele>1341.812907</ele>
        <time>2021-09-14T23:14:54.000Z</time>
      </trkpt>
      <trkpt lat="40.892627" lon="-3.988402">
        <ele>1341.812907</ele>
        <time>2021-09-14T23:14:55.000Z</time>
      </trkpt>
      <trkpt lat="40.892628" lon="-3.988402">
        <ele>1341.812907</ele>
        <time>2021-09-14T23:14:56.000Z</time>
      </trkpt>
      <trkpt lat="40.892633" lon="-3.98839"/>
      <trkpt lat="40.892632" lon="-3.988378">
        <ele>1341.812907</ele>
        <time>2021-09-14T23:15:59.000Z</time>
      </trkpt>
      <trkpt lat="40.892633" lon="-3.988365">
        <ele>1341.812907</ele>
        <time>2021-09-14T23:16:00.000Z</time>
      </trkpt>
      <trkpt lat="40.892638" lon="-3.988347">
        <ele>1341.812907</ele>
        <time>2021-09-14T23:16:01.000Z</time>
      </trkpt>
      <trkpt lat="40.892648" lon="-3.988332">
        <ele>1341.812907</ele>
        <time>2021-09-14T23:16:02.000Z</time>
      </trkpt>
      <trkpt lat="40.892652" lon="-3.988315">
        <ele>1341.812907</ele>
        <time>2021-09-14T23:16:03.000Z</time>
      </trkpt>
      <trkpt lat="40.892653" lon="-3.988297">
        <ele>1341.812907</ele>
        <time>2021-09-14T23:16:04.000Z</time>
      </trkpt>
      <trkpt lat="40.892658" lon="-3.988268">
        <ele>1341.812907</ele>
        <time>2021-09-14T23:16:05.000Z</time>
      </trkpt>
      <trkpt lat="40.892658" lon="-3.988242">
        <ele>1341.812907</ele>
        <time>2021-09-14T23:16:06.000Z</time>
      </trkpt>
      <trkpt lat="40.892655" lon="-3.988217">
        <ele>1341.812907</ele>
        <time>2021-09-14T23:16:07.000Z</time>
      </trkpt>
      <trkpt lat="40.892653" lon="-3.988193">
        <ele>1341.812907</ele>
        <time>2021-09-14T23:16:08.000Z</time>
      </trkpt>
      <trkpt lat="40.892657" lon="-3.988173">
        <ele>1341.812907</ele>
        <time>2021-09-14T23:16:09.000Z</time>
      </trkpt>
      <trkpt lat="40.892658" lon="-3.98815"/>
      <trkpt lat="40.89266" lon="-3.988128"/>
      <trkpt lat="40.89266" lon="-3.988107"/>
      <trkpt lat="40.89266" lon="-3.988085"/>
      <trkpt lat="40.892662" lon="-3.988065">
        <ele>1341.812907</ele>
        <time>2021-09-14T23:16:14.000Z</time>
      </trkpt>
      <trkpt lat="40.892665" lon="-3.988042">
        <ele>1341.812907</ele>
        <time>2021-09-14T23:16:15.000Z</time>
      </trkpt>
      <trkpt lat="40.892668" lon="-3.988018">
        <ele>1341.812907</ele>
        <time>2021-09-14T23:16:16.000Z</time>
      </trkpt>
      <trkpt lat="40.892668" lon="-3.987997">
        <ele>1341.812907</ele>
        <time>2021-09-14T23:16:17.000Z</time>
      </trkpt>
      <trkpt lat="40.89267" lon="-3.987975"/>
      <trkpt lat="40.892665" lon="-3.987952">
        <ele>1341.812907</ele>
        <time>2021-09-14T23:16:19.000Z</time>
      </trkpt>
      <trkpt lat="40.892662" lon="-3.987932">
        <ele>1341.812907</ele>
        <time>2021-09-14T23:16:20.000Z</time>
      </trkpt>
      <trkpt lat="40.892658" lon="-3.987912">
        <ele>1341.812907</ele>
        <time>2021-09-14T23:16:21.000Z</time>
      </trkpt>
      <trkpt lat="40.892657" lon="-3.98789"/>
      <trkpt lat="40.892658" lon="-3.987872">
        <ele>1341.812907</ele>
        <time>2021-09-14T23:16:23.000Z</time>
      </trkpt>
      <trkpt lat="40.892662" lon="-3.987852">
        <ele>1341.812907</ele>
        <time>2021-09-14T23:16:24.000Z</time>
      </trkpt>
      <trkpt lat="40.892662" lon="-3.98783"/>
      <trkpt lat="40.892665" lon="-3.987812">
        <ele>1341.812907</ele>
        <time>2021-09-14T23:16:26.000Z</time>
      </trkpt>
      <trkpt lat="40.892665" lon="-3.98779"/>
      <trkpt lat="40.892667" lon="-3.987768">
        <ele>1341.812907</ele>
        <time>2021-09-14T23:16:28.000Z</time>
      </trkpt>
      <trkpt lat="40.89267" lon="-3.987748"/>
      <trkpt lat="40.89267" lon="-3.987728"/>
      <trkpt lat="40.892675" lon="-3.987707">
        <ele>1341.812907</ele>
        <time>2021-09-14T23:16:31.000Z</time>
      </trkpt>
      <trkpt lat="40.892677" lon="-3.987685">
        <ele>1341.812907</ele>
        <time>2021-09-14T23:16:32.000Z</time>
      </trkpt>
      <trkpt lat="40.892677" lon="-3.987668">
        <ele>1341.812907</ele>
        <time>2021-09-14T23:16:33.000Z</time>
      </trkpt>
      <trkpt lat="40.892677" lon="-3.987653">
        <ele>1341.812907</ele>
        <time>2021-09-14T23:16:34.000Z</time>
      </trkpt>
      <trkpt lat="40.892678" lon="-3.98763"/>
      <trkpt lat="40.892683" lon="-3.98761"/>
      <trkpt lat="40.89269" lon="-3.987588"/>
      <trkpt lat="40.8927" lon="-3.98757"/>
      <trkpt lat="40.892708" lon="-3.987555">
        <ele>1341.812907</ele>
        <time>2021-09-14T23:16:39.000Z</time>
      </trkpt>
      <trkpt lat="40.892718" lon="-3.987545">
        <ele>1341.812907</ele>
        <time>2021-09-14T23:16:40.000Z</time>
      </trkpt>
      <trkpt lat="40.892727" lon="-3.987543">
        <ele>1341.812907</ele>
        <time>2021-09-14T23:16:41.000Z</time>
      </trkpt>
      <trkpt lat="40.892728" lon="-3.987542">
        <ele>1341.812907</ele>
        <time>2021-09-14T23:16:42.000Z</time>
      </trkpt>
      <trkpt lat="40.892728" lon="-3.98754"/>
      <trkpt lat="40.89273" lon="-3.987538"/>
      <trkpt lat="40.89273" lon="-3.987537"/>
      <trkpt lat="40.892727" lon="-3.987535">
        <ele>1341.812907</ele>
        <time>2021-09-14T23:17:28.000Z</time>
      </trkpt>
      <trkpt lat="40.89273" lon="-3.987532"/>
      <trkpt lat="40.892733" lon="-3.987532">
        <ele>1341.812907</ele>
        <time>2021-09-14T23:17:30.000Z</time>
      </trkpt>
      <trkpt lat="40.892737" lon="-3.987533">
        <ele>1341.812907</ele>
        <time>2021-09-14T23:17:31.000Z</time>
      </trkpt>
      <trkpt lat="40.89274" lon="-3.987532"/>
      <trkpt lat="40.892742" lon="-3.987528">
        <ele>1341.812907</ele>
        <time>2021-09-14T23:17:33.000Z</time>
      </trkpt>
      <trkpt lat="40.892733" lon="-3.987535">
        <ele>1341.812907</ele>
        <time>2021-09-14T23:17:52.000Z</time>
      </trkpt>
      <trkpt lat="40.892732" lon="-3.987535">
        <ele>1341.812907</ele>
        <time>2021-09-14T23:17:53.000Z</time>
      </trkpt>
      <trkpt lat="40.892732" lon="-3.987527">
        <ele>1341.812907</ele>
        <time>2021-09-14T23:17:54.000Z</time>
      </trkpt>
      <trkpt lat="40.892733" lon="-3.987525">
        <ele>1341.812907</ele>
        <time>2021-09-14T23:17:55.000Z</time>
      </trkpt>
      <trkpt lat="40.892735" lon="-3.987525">
        <ele>1341.812907</ele>
        <time>2021-09-14T23:17:56.000Z</time>
      </trkpt>
      <trkpt lat="40.892737" lon="-3.987523">
        <ele>1341.812907</ele>
        <time>2021-09-14T23:17:57.000Z</time>
      </trkpt>
      <trkpt lat="40.892738" lon="-3.987517">
        <ele>1341.812907</ele>
        <time>2021-09-14T23:17:58.000Z</time>
      </trkpt>
      <trkpt lat="40.892745" lon="-3.987507">
        <ele>1341.812907</ele>
        <time>2021-09-14T23:17:59.000Z</time>
      </trkpt>
      <trkpt lat="40.89275" lon="-3.987495"/>
      <trkpt lat="40.892755" lon="-3.987477">
        <ele>1341.812907</ele>
        <time>2021-09-14T23:18:01.000Z</time>
      </trkpt>
      <trkpt lat="40.892765" lon="-3.987455">
        <ele>1341.812907</ele>
        <time>2021-09-14T23:18:02.000Z</time>
      </trkpt>
      <trkpt lat="40.892777" lon="-3.987437">
        <ele>1341.812907</ele>
        <time>2021-09-14T23:18:03.000Z</time>
      </trkpt>
      <trkpt lat="40.89279" lon="-3.98742"/>
      <trkpt lat="40.892805" lon="-3.987405">
        <ele>1341.812907</ele>
        <time>2021-09-14T23:18:05.000Z</time>
      </trkpt>
      <trkpt lat="40.892817" lon="-3.987385">
        <ele>1341.812907</ele>
        <time>2021-09-14T23:18:06.000Z</time>
      </trkpt>
      <trkpt lat="40.892827" lon="-3.987368">
        <ele>1341.812907</ele>
        <time>2021-09-14T23:18:07.000Z</time>
      </trkpt>
      <trkpt lat="40.89284" lon="-3.98735"/>
      <trkpt lat="40.892855" lon="-3.987335">
        <ele>1341.812907</ele>
        <time>2021-09-14T23:18:09.000Z</time>
      </trkpt>
      <trkpt lat="40.892868" lon="-3.987318">
        <ele>1341.812907</ele>
        <time>2021-09-14T23:18:10.000Z</time>
      </trkpt>
      <trkpt lat="40.89288" lon="-3.987303"/>
      <trkpt lat="40.892893" lon="-3.98729"/>
      <trkpt lat="40.892907" lon="-3.987277">
        <ele>1341.812907</ele>
        <time>2021-09-14T23:18:13.000Z</time>
      </trkpt>
      <trkpt lat="40.892918" lon="-3.987263">
        <ele>1341.812907</ele>
        <time>2021-09-14T23:18:14.000Z</time>
      </trkpt>
      <trkpt lat="40.89293" lon="-3.98725"/>
      <trkpt lat="40.89294" lon="-3.987245"/>
      <trkpt lat="40.892948" lon="-3.987247">
        <ele>1341.812907</ele>
        <time>2021-09-14T23:18:17.000Z</time>
      </trkpt>
      <trkpt lat="40.892953" lon="-3.987257">
        <ele>1341.812907</ele>
        <time>2021-09-14T23:18:18.000Z</time>
      </trkpt>
      <trkpt lat="40.892852" lon="-3.987516">
        <ele>1383.440655</ele>
      </trkpt>
      <trkpt lat="40.892881" lon="-3.987462">
        <ele>1383.440655</ele>
      </trkpt>
      <trkpt lat="40.892918" lon="-3.9874"/>
      <trkpt lat="40.892957" lon="-3.987335">
        <ele>1383.440655</ele>
      </trkpt>
      <trkpt lat="40.893048" lon="-3.987239">
        <ele>1383.440655</ele>
      </trkpt>
      <trkpt lat="40.893179" lon="-3.987114">
        <ele>1383.440655</ele>
      </trkpt>
      <trkpt lat="40.893345" lon="-3.986936">
        <ele>1383.440655</ele>
      </trkpt>
      <trkpt lat="40.893427" lon="-3.986854">
        <ele>1383.440655</ele>
      </trkpt>
      <trkpt lat="40.893691" lon="-3.9867"/>
      <trkpt lat="40.893787" lon="-3.986661">
        <ele>1383.440655</ele>
      </trkpt>
      <trkpt lat="40.89406" lon="-3.98657"/>
      <trkpt lat="40.894145" lon="-3.98654"/>
      <trkpt lat="40.894312" lon="-3.986489">
        <ele>1383.440655</ele>
      </trkpt>
      <trkpt lat="40.894489" lon="-3.986451">
        <ele>1383.440655</ele>
      </trkpt>
      <trkpt lat="40.894581" lon="-3.986438">
        <ele>1383.888096</ele>
      </trkpt>
      <trkpt lat="40.894675" lon="-3.986427">
        <ele>1384.474027</ele>
      </trkpt>
      <trkpt lat="40.894864" lon="-3.986416">
        <ele>1385.648675</ele>
      </trkpt>
      <trkpt lat="40.894964" lon="-3.986421">
        <ele>1386.270025</ele>
      </trkpt>
      <trkpt lat="40.895068" lon="-3.986436">
        <ele>1386.919595</ele>
      </trkpt>
      <trkpt lat="40.895282" lon="-3.986466">
        <ele>1388.255774</ele>
      </trkpt>
      <trkpt lat="40.895508" lon="-3.986478">
        <ele>1389.660153</ele>
      </trkpt>
      <trkpt lat="40.895737" lon="-3.986459">
        <ele>1391.084822</ele>
      </trkpt>
      <trkpt lat="40.895954" lon="-3.986411">
        <ele>1392.450894</ele>
      </trkpt>
      <trkpt lat="40.896148" lon="-3.986316">
        <ele>1393.735326</ele>
      </trkpt>
      <trkpt lat="40.896234" lon="-3.986245">
        <ele>1394.364753</ele>
      </trkpt>
      <trkpt lat="40.896531" lon="-3.985937">
        <ele>1395.684286</ele>
      </trkpt>
      <trkpt lat="40.896602" lon="-3.985878">
        <ele>1395.951048</ele>
      </trkpt>
      <trkpt lat="40.89667" lon="-3.985833"/>
      <trkpt lat="40.896731" lon="-3.985799">
        <ele>1396.403556</ele>
      </trkpt>
      <trkpt lat="40.896931" lon="-3.985772">
        <ele>1397.043183</ele>
      </trkpt>
      <trkpt lat="40.897265" lon="-3.985898">
        <ele>1398.148201</ele>
      </trkpt>
      <trkpt lat="40.897604" lon="-3.985924">
        <ele>1399.228578</ele>
      </trkpt>
      <trkpt lat="40.897666" lon="-3.985922">
        <ele>1399.425897</ele>
      </trkpt>
      <trkpt lat="40.897793" lon="-3.985916">
        <ele>1399.830219</ele>
      </trkpt>
      <trkpt lat="40.897995" lon="-3.985895">
        <ele>1400.818045</ele>
      </trkpt>
      <trkpt lat="40.89823" lon="-3.98577"/>
      <trkpt lat="40.898274" lon="-3.985733">
        <ele>1404.109424</ele>
      </trkpt>
      <trkpt lat="40.898338" lon="-3.98566"/>
      <trkpt lat="40.898381" lon="-3.985601">
        <ele>1405.687689</ele>
      </trkpt>
      <trkpt lat="40.898426" lon="-3.985564">
        <ele>1406.258662</ele>
      </trkpt>
      <trkpt lat="40.898447" lon="-3.985548">
        <ele>1406.519817</ele>
      </trkpt>
      <trkpt lat="40.898471" lon="-3.985529">
        <ele>1406.821226</ele>
      </trkpt>
      <trkpt lat="40.898499" lon="-3.985505">
        <ele>1407.180766</ele>
      </trkpt>
      <trkpt lat="40.89853" lon="-3.985475"/>
      <trkpt lat="40.898555" lon="-3.985439">
        <ele>1407.992895</ele>
      </trkpt>
      <trkpt lat="40.898582" lon="-3.985363">
        <ele>1408.676938</ele>
      </trkpt>
      <trkpt lat="40.89859" lon="-3.985336"/>
      <trkpt lat="40.898584" lon="-3.985273">
        <ele>1409.430403</ele>
      </trkpt>
      <trkpt lat="40.898503" lon="-3.985235">
        <ele>1410.356564</ele>
      </trkpt>
      <trkpt lat="40.898447" lon="-3.985254">
        <ele>1410.979583</ele>
      </trkpt>
      <trkpt lat="40.898388" lon="-3.985289">
        <ele>1411.676396</ele>
      </trkpt>
      <trkpt lat="40.898325" lon="-3.985328">
        <ele>1412.425971</ele>
      </trkpt>
      <trkpt lat="40.898259" lon="-3.985355">
        <ele>1413.170455</ele>
      </trkpt>
      <trkpt lat="40.898196" lon="-3.985373">
        <ele>1413.865033</ele>
      </trkpt>
      <trkpt lat="40.898142" lon="-3.985379">
        <ele>1414.449018</ele>
      </trkpt>
      <trkpt lat="40.898099" lon="-3.985369">
        <ele>1414.919517</ele>
      </trkpt>
      <trkpt lat="40.898072" lon="-3.985343">
        <ele>1415.279402</ele>
      </trkpt>
      <trkpt lat="40.898062" lon="-3.985303">
        <ele>1415.622592</ele>
      </trkpt>
      <trkpt lat="40.898068" lon="-3.985253">
        <ele>1416.034981</ele>
      </trkpt>
      <trkpt lat="40.898091" lon="-3.985197">
        <ele>1416.554134</ele>
      </trkpt>
      <trkpt lat="40.898127" lon="-3.985129">
        <ele>1417.230395</ele>
      </trkpt>
      <trkpt lat="40.89817" lon="-3.985044"/>
      <trkpt lat="40.898216" lon="-3.984942">
        <ele>1419.031057</ele>
      </trkpt>
      <trkpt lat="40.89831" lon="-3.98471"/>
      <trkpt lat="40.898346" lon="-3.98459"/>
      <trkpt lat="40.898373" lon="-3.984475">
        <ele>1424.338083</ele>
      </trkpt>
      <trkpt lat="40.89839" lon="-3.984367"/>
      <trkpt lat="40.898402" lon="-3.98427"/>
      <trkpt lat="40.898411" lon="-3.984185">
        <ele>1427.512470</ele>
      </trkpt>
      <trkpt lat="40.898413" lon="-3.984114">
        <ele>1428.278465</ele>
      </trkpt>
      <trkpt lat="40.898379" lon="-3.984026">
        <ele>1429.343967</ele>
      </trkpt>
      <trkpt lat="40.898248" lon="-3.984018">
        <ele>1431.214443</ele>
      </trkpt>
      <trkpt lat="40.898042" lon="-3.984144">
        <ele>1434.451502</ele>
      </trkpt>
      <trkpt lat="40.897863" lon="-3.984224">
        <ele>1437.146375</ele>
      </trkpt>
      <trkpt lat="40.8977" lon="-3.984279"/>
      <trkpt lat="40.897628" lon="-3.984302">
        <ele>1440.602182</ele>
      </trkpt>
      <trkpt lat="40.897561" lon="-3.984319">
        <ele>1441.575237</ele>
      </trkpt>
      <trkpt lat="40.897499" lon="-3.984335">
        <ele>1442.476226</ele>
      </trkpt>
      <trkpt lat="40.897442" lon="-3.984345">
        <ele>1443.296349</ele>
      </trkpt>
      <trkpt lat="40.897392" lon="-3.984341">
        <ele>1444.010815</ele>
      </trkpt>
      <trkpt lat="40.897352" lon="-3.98432"/>
      <trkpt lat="40.897328" lon="-3.984286">
        <ele>1445.126177</ele>
      </trkpt>
      <trkpt lat="40.897325" lon="-3.984245">
        <ele>1445.614374</ele>
      </trkpt>
      <trkpt lat="40.897345" lon="-3.984198">
        <ele>1446.323202</ele>
      </trkpt>
      <trkpt lat="40.897382" lon="-3.984148">
        <ele>1447.242771</ele>
      </trkpt>
      <trkpt lat="40.897487" lon="-3.984038">
        <ele>1449.571396</ele>
      </trkpt>
      <trkpt lat="40.897549" lon="-3.983965">
        <ele>1451.014434</ele>
      </trkpt>
      <trkpt lat="40.897615" lon="-3.98388"/>
      <trkpt lat="40.897677" lon="-3.983789">
        <ele>1454.225898</ele>
      </trkpt>
      <trkpt lat="40.897728" lon="-3.983694">
        <ele>1455.757223</ele>
      </trkpt>
      <trkpt lat="40.89777" lon="-3.983594"/>
      <trkpt lat="40.897801" lon="-3.983493">
        <ele>1458.693254</ele>
      </trkpt>
      <trkpt lat="40.897827" lon="-3.983391">
        <ele>1460.107900</ele>
      </trkpt>
      <trkpt lat="40.897857" lon="-3.983296">
        <ele>1461.460957</ele>
      </trkpt>
      <trkpt lat="40.897893" lon="-3.983214">
        <ele>1462.707176</ele>
      </trkpt>
      <trkpt lat="40.897929" lon="-3.983142">
        <ele>1463.841675</ele>
      </trkpt>
      <trkpt lat="40.897957" lon="-3.983066">
        <ele>1464.952783</ele>
      </trkpt>
      <trkpt lat="40.897977" lon="-3.982982">
        <ele>1466.110173</ele>
      </trkpt>
      <trkpt lat="40.897991" lon="-3.982897">
        <ele>1467.253446</ele>
      </trkpt>
      <trkpt lat="40.897999" lon="-3.982809">
        <ele>1468.418267</ele>
      </trkpt>
      <trkpt lat="40.898" lon="-3.982711"/>
      <trkpt lat="40.897996" lon="-3.982605">
        <ele>1471.101066</ele>
      </trkpt>
      <trkpt lat="40.897991" lon="-3.982491">
        <ele>1472.601762</ele>
      </trkpt>
      <trkpt lat="40.897988" lon="-3.982365">
        <ele>1474.258462</ele>
      </trkpt>
      <trkpt lat="40.897984" lon="-3.982235">
        <ele>1475.968323</ele>
      </trkpt>
      <trkpt lat="40.897982" lon="-3.982114">
        <ele>1477.632632</ele>
      </trkpt>
      <trkpt lat="40.897984" lon="-3.982007">
        <ele>1479.152236</ele>
      </trkpt>
      <trkpt lat="40.897986" lon="-3.981911">
        <ele>1480.515720</ele>
      </trkpt>
      <trkpt lat="40.897982" lon="-3.981822">
        <ele>1481.781534</ele>
      </trkpt>
      <trkpt lat="40.897975" lon="-3.981737">
        <ele>1482.995468</ele>
      </trkpt>
      <trkpt lat="40.897968" lon="-3.981653">
        <ele>1484.195290</ele>
      </trkpt>
      <trkpt lat="40.897945" lon="-3.981484">
        <ele>1486.633260</ele>
      </trkpt>
      <trkpt lat="40.897918" lon="-3.981323">
        <ele>1488.974651</ele>
      </trkpt>
      <trkpt lat="40.897906" lon="-3.981239">
        <ele>1490.188360</ele>
      </trkpt>
      <trkpt lat="40.897882" lon="-3.981047">
        <ele>1492.951318</ele>
      </trkpt>
      <trkpt lat="40.897863" lon="-3.980825">
        <ele>1496.123322</ele>
      </trkpt>
      <trkpt lat="40.897844" lon="-3.980588">
        <ele>1499.507023</ele>
      </trkpt>
      <trkpt lat="40.897838" lon="-3.980482">
        <ele>1501.016182</ele>
      </trkpt>
      <trkpt lat="40.897835" lon="-3.980387">
        <ele>1502.366130</ele>
      </trkpt>
      <trkpt lat="40.897835" lon="-3.980305">
        <ele>1503.530332</ele>
      </trkpt>
      <trkpt lat="40.897835" lon="-3.980229">
        <ele>1504.609350</ele>
      </trkpt>
      <trkpt lat="40.897827" lon="-3.98016"/>
      <trkpt lat="40.897813" lon="-3.9801"/>
      <trkpt lat="40.897796" lon="-3.98005"/>
      <trkpt lat="40.897772" lon="-3.98001"/>
      <trkpt lat="40.89774" lon="-3.979985"/>
      <trkpt lat="40.897704" lon="-3.97998"/>
      <trkpt lat="40.89764" lon="-3.980026"/>
      <trkpt lat="40.897609" lon="-3.980073">
        <ele>1511.425307</ele>
      </trkpt>
      <trkpt lat="40.897569" lon="-3.980135">
        <ele>1512.388483</ele>
      </trkpt>
      <trkpt lat="40.897515" lon="-3.9802"/>
      <trkpt lat="40.897356" lon="-3.980289">
        <ele>1516.228630</ele>
      </trkpt>
      <trkpt lat="40.89726" lon="-3.980328"/>
      <trkpt lat="40.897165" lon="-3.980376">
        <ele>1519.388205</ele>
      </trkpt>
      <trkpt lat="40.897013" lon="-3.980515">
        <ele>1522.276748</ele>
      </trkpt>
      <trkpt lat="40.896962" lon="-3.980605">
        <ele>1523.605876</ele>
      </trkpt>
      <trkpt lat="40.896922" lon="-3.980704">
        <ele>1524.932327</ele>
      </trkpt>
      <trkpt lat="40.896884" lon="-3.980809">
        <ele>1526.307919</ele>
      </trkpt>
      <trkpt lat="40.896843" lon="-3.980914">
        <ele>1527.704405</ele>
      </trkpt>
      <trkpt lat="40.896804" lon="-3.981013">
        <ele>1529.023560</ele>
      </trkpt>
      <trkpt lat="40.896768" lon="-3.981101">
        <ele>1530.205921</ele>
      </trkpt>
      <trkpt lat="40.896735" lon="-3.981179">
        <ele>1531.262146</ele>
      </trkpt>
      <trkpt lat="40.896704" lon="-3.981247">
        <ele>1532.200484</ele>
      </trkpt>
      <trkpt lat="40.896672" lon="-3.9813"/>
      <trkpt lat="40.896638" lon="-3.981339">
        <ele>1533.705482</ele>
      </trkpt>
      <trkpt lat="40.8966" lon="-3.98136"/>
      <trkpt lat="40.896518" lon="-3.981353">
        <ele>1535.633782</ele>
      </trkpt>
      <trkpt lat="40.896491" lon="-3.98133"/>
      <trkpt lat="40.896469" lon="-3.981294">
        <ele>1536.682812</ele>
      </trkpt>
      <trkpt lat="40.896448" lon="-3.981246">
        <ele>1537.338152</ele>
      </trkpt>
      <trkpt lat="40.896429" lon="-3.981189">
        <ele>1538.074271</ele>
      </trkpt>
      <trkpt lat="40.896415" lon="-3.98113"/>
      <trkpt lat="40.896402" lon="-3.981071">
        <ele>1539.606153</ele>
      </trkpt>
      <trkpt lat="40.896384" lon="-3.981007">
        <ele>1540.474194</ele>
      </trkpt>
      <trkpt lat="40.896357" lon="-3.980931">
        <ele>1541.541667</ele>
      </trkpt>
      <trkpt lat="40.896325" lon="-3.98085"/>
      <trkpt lat="40.896297" lon="-3.98077"/>
      <trkpt lat="40.896274" lon="-3.980687">
        <ele>1544.947869</ele>
      </trkpt>
      <trkpt lat="40.896245" lon="-3.980596">
        <ele>1546.203240</ele>
      </trkpt>
      <trkpt lat="40.896205" lon="-3.980492">
        <ele>1547.686560</ele>
      </trkpt>
      <trkpt lat="40.896156" lon="-3.980374">
        <ele>1549.397988</ele>
      </trkpt>
      <trkpt lat="40.896103" lon="-3.980256">
        <ele>1551.142801</ele>
      </trkpt>
      <trkpt lat="40.896049" lon="-3.980147">
        <ele>1552.799457</ele>
      </trkpt>
      <trkpt lat="40.895933" lon="-3.979939">
        <ele>1556.085256</ele>
      </trkpt>
      <trkpt lat="40.895878" lon="-3.979832">
        <ele>1557.730108</ele>
      </trkpt>
      <trkpt lat="40.895827" lon="-3.979716">
        <ele>1559.435964</ele>
      </trkpt>
      <trkpt lat="40.895773" lon="-3.979588">
        <ele>1561.299340</ele>
      </trkpt>
      <trkpt lat="40.895714" lon="-3.979448">
        <ele>1563.336897</ele>
      </trkpt>
      <trkpt lat="40.895654" lon="-3.979305">
        <ele>1565.415957</ele>
      </trkpt>
      <trkpt lat="40.895597" lon="-3.979169">
        <ele>1567.392733</ele>
      </trkpt>
      <trkpt lat="40.895542" lon="-3.979039">
        <ele>1569.388845</ele>
      </trkpt>
      <trkpt lat="40.895492" lon="-3.978913">
        <ele>1571.569915</ele>
      </trkpt>
      <trkpt lat="40.895446" lon="-3.978792">
        <ele>1573.645753</ele>
      </trkpt>
      <trkpt lat="40.895405" lon="-3.97868"/>
      <trkpt lat="40.895367" lon="-3.978581">
        <ele>1577.254764</ele>
      </trkpt>
      <trkpt lat="40.895332" lon="-3.978495">
        <ele>1578.751744</ele>
      </trkpt>
      <trkpt lat="40.895296" lon="-3.978428">
        <ele>1580.011614</ele>
      </trkpt>
      <trkpt lat="40.895205" lon="-3.978341">
        <ele>1582.288091</ele>
      </trkpt>
      <trkpt lat="40.895154" lon="-3.978305">
        <ele>1583.460148</ele>
      </trkpt>
      <trkpt lat="40.895101" lon="-3.978275">
        <ele>1584.628997</ele>
      </trkpt>
      <trkpt lat="40.895045" lon="-3.978255">
        <ele>1585.805087</ele>
      </trkpt>
      <trkpt lat="40.894988" lon="-3.978244">
        <ele>1586.973035</ele>
      </trkpt>
      <trkpt lat="40.894929" lon="-3.978241">
        <ele>1588.170186</ele>
      </trkpt>
      <trkpt lat="40.894863" lon="-3.978247">
        <ele>1589.511539</ele>
      </trkpt>
      <trkpt lat="40.894793" lon="-3.978258">
        <ele>1590.940818</ele>
      </trkpt>
      <trkpt lat="40.894723" lon="-3.978271">
        <ele>1592.374035</ele>
      </trkpt>
      <trkpt lat="40.89466" lon="-3.978281"/>
      <trkpt lat="40.894602" lon="-3.978285">
        <ele>1594.838157</ele>
      </trkpt>
      <trkpt lat="40.894543" lon="-3.978283">
        <ele>1596.034817</ele>
      </trkpt>
      <trkpt lat="40.894483" lon="-3.978276">
        <ele>1597.256082</ele>
      </trkpt>
      <trkpt lat="40.894418" lon="-3.978261">
        <ele>1598.593905</ele>
      </trkpt>
      <trkpt lat="40.894347" lon="-3.978237">
        <ele>1600.079734</ele>
      </trkpt>
      <trkpt lat="40.89427" lon="-3.978206"/>
      <trkpt lat="40.894191" lon="-3.978167">
        <ele>1603.421342</ele>
      </trkpt>
      <trkpt lat="40.894031" lon="-3.978065">
        <ele>1606.786398</ele>
      </trkpt>
      <trkpt lat="40.893947" lon="-3.978003">
        <ele>1608.475794</ele>
      </trkpt>
      <trkpt lat="40.893871" lon="-3.977931">
        <ele>1610.117568</ele>
      </trkpt>
      <trkpt lat="40.893797" lon="-3.977854">
        <ele>1611.771110</ele>
      </trkpt>
      <trkpt lat="40.893728" lon="-3.977773">
        <ele>1613.391310</ele>
      </trkpt>
      <trkpt lat="40.893613" lon="-3.977611">
        <ele>1616.341778</ele>
      </trkpt>
      <trkpt lat="40.893527" lon="-3.977474">
        <ele>1618.706028</ele>
      </trkpt>
      <trkpt lat="40.893501" lon="-3.977408">
        <ele>1619.694120</ele>
      </trkpt>
      <trkpt lat="40.89348" lon="-3.977278"/>
      <trkpt lat="40.893477" lon="-3.977227">
        <ele>1622.138172</ele>
      </trkpt>
      <trkpt lat="40.893477" lon="-3.977192">
        <ele>1622.602847</ele>
      </trkpt>
      <trkpt lat="40.893479" lon="-3.977171">
        <ele>1622.883856</ele>
      </trkpt>
      <trkpt lat="40.893479" lon="-3.977154">
        <ele>1623.109556</ele>
      </trkpt>
      <trkpt lat="40.893477" lon="-3.977135">
        <ele>1623.364242</ele>
      </trkpt>
      <trkpt lat="40.893477" lon="-3.977116">
        <ele>1623.616495</ele>
      </trkpt>
      <trkpt lat="40.893479" lon="-3.977094">
        <ele>1623.910681</ele>
      </trkpt>
      <trkpt lat="40.893483" lon="-3.977072">
        <ele>1624.211093</ele>
      </trkpt>
      <trkpt lat="40.893487" lon="-3.977048">
        <ele>1624.537380</ele>
      </trkpt>
      <trkpt lat="40.893491" lon="-3.977016">
        <ele>1624.967995</ele>
      </trkpt>
      <trkpt lat="40.8935" lon="-3.976976"/>
      <trkpt lat="40.89352" lon="-3.976929"/>
      <trkpt lat="40.893554" lon="-3.976873">
        <ele>1627.191741</ele>
      </trkpt>
      <trkpt lat="40.893604" lon="-3.976804">
        <ele>1628.460736</ele>
      </trkpt>
      <trkpt lat="40.893738" lon="-3.976629">
        <ele>1631.767820</ele>
      </trkpt>
      <trkpt lat="40.893815" lon="-3.97652"/>
      <trkpt lat="40.893896" lon="-3.976408">
        <ele>1635.806365</ele>
      </trkpt>
      <trkpt lat="40.89398" lon="-3.9763"/>
      <trkpt lat="40.89406" lon="-3.976197"/>
      <trkpt lat="40.894135" lon="-3.976102">
        <ele>1641.806634</ele>
      </trkpt>
      <trkpt lat="40.894205" lon="-3.976013">
        <ele>1643.568163</ele>
      </trkpt>
      <trkpt lat="40.894269" lon="-3.975927">
        <ele>1645.223325</ele>
      </trkpt>
      <trkpt lat="40.894381" lon="-3.975777">
        <ele>1648.114975</ele>
      </trkpt>
      <trkpt lat="40.894464" lon="-3.975654">
        <ele>1650.376294</ele>
      </trkpt>
      <trkpt lat="40.894496" lon="-3.975598">
        <ele>1651.339089</ele>
      </trkpt>
      <trkpt lat="40.894522" lon="-3.975543">
        <ele>1652.228773</ele>
      </trkpt>
      <trkpt lat="40.894542" lon="-3.975485">
        <ele>1653.103100</ele>
      </trkpt>
      <trkpt lat="40.894562" lon="-3.975421">
        <ele>1654.052908</ele>
      </trkpt>
      <trkpt lat="40.894584" lon="-3.975348">
        <ele>1655.130738</ele>
      </trkpt>
      <trkpt lat="40.89461" lon="-3.975264"/>
      <trkpt lat="40.894636" lon="-3.975172">
        <ele>1657.722711</ele>
      </trkpt>
      <trkpt lat="40.894657" lon="-3.975083">
        <ele>1659.001427</ele>
      </trkpt>
      <trkpt lat="40.894684" lon="-3.97494"/>
      <trkpt lat="40.894701" lon="-3.974817">
        <ele>1662.737828</ele>
      </trkpt>
      <trkpt lat="40.894711" lon="-3.974754">
        <ele>1663.620714</ele>
      </trkpt>
      <trkpt lat="40.894727" lon="-3.974685">
        <ele>1664.610570</ele>
      </trkpt>
      <trkpt lat="40.894781" lon="-3.974506">
        <ele>1667.253829</ele>
      </trkpt>
      <trkpt lat="40.894895" lon="-3.973943">
        <ele>1673.701989</ele>
      </trkpt>
      <trkpt lat="40.894961" lon="-3.973481">
        <ele>1678.422021</ele>
      </trkpt>
      <trkpt lat="40.894984" lon="-3.973222">
        <ele>1681.039953</ele>
      </trkpt>
      <trkpt lat="40.894986" lon="-3.97317"/>
      <trkpt lat="40.894987" lon="-3.97317"/>
      <trkpt lat="40.894987" lon="-3.973142">
        <ele>1681.857014</ele>
      </trkpt>
      <trkpt lat="40.894989" lon="-3.973128">
        <ele>1682.000045</ele>
      </trkpt>
      <trkpt lat="40.894988" lon="-3.97309"/>
      <trkpt lat="40.894985" lon="-3.973039">
        <ele>1682.895278</ele>
      </trkpt>
      <trkpt lat="40.894983" lon="-3.973006">
        <ele>1683.227622</ele>
      </trkpt>
      <trkpt lat="40.894978" lon="-3.972967">
        <ele>1683.624726</ele>
      </trkpt>
      <trkpt lat="40.894971" lon="-3.972873">
        <ele>1684.572943</ele>
      </trkpt>
      <trkpt lat="40.89497" lon="-3.972814"/>
      <trkpt lat="40.894967" lon="-3.972748">
        <ele>1685.829140</ele>
      </trkpt>
      <trkpt lat="40.89496" lon="-3.972682"/>
      <trkpt lat="40.894953" lon="-3.972619">
        <ele>1687.137433</ele>
      </trkpt>
      <trkpt lat="40.89495" lon="-3.972552"/>
      <trkpt lat="40.894954" lon="-3.972475">
        <ele>1688.586024</ele>
      </trkpt>
      <trkpt lat="40.894964" lon="-3.972395">
        <ele>1689.400036</ele>
      </trkpt>
      <trkpt lat="40.895002" lon="-3.972232">
        <ele>1691.112414</ele>
      </trkpt>
      <trkpt lat="40.895039" lon="-3.97215"/>
      <trkpt lat="40.895092" lon="-3.972066">
        <ele>1693.169511</ele>
      </trkpt>
      <trkpt lat="40.895157" lon="-3.971976">
        <ele>1694.694717</ele>
      </trkpt>
      <trkpt lat="40.895236" lon="-3.971876">
        <ele>1696.527553</ele>
      </trkpt>
      <trkpt lat="40.895319" lon="-3.97177"/>
      <trkpt lat="40.895401" lon="-3.971669">
        <ele>1700.339517</ele>
      </trkpt>
      <trkpt lat="40.895482" lon="-3.971576">
        <ele>1702.137371</ele>
      </trkpt>
      <trkpt lat="40.895558" lon="-3.971486">
        <ele>1703.847210</ele>
      </trkpt>
      <trkpt lat="40.895629" lon="-3.971398">
        <ele>1705.478116</ele>
      </trkpt>
      <trkpt lat="40.895694" lon="-3.971318">
        <ele>1706.966327</ele>
      </trkpt>
      <trkpt lat="40.895756" lon="-3.971249">
        <ele>1708.324472</ele>
      </trkpt>
      <trkpt lat="40.895812" lon="-3.971187">
        <ele>1709.548556</ele>
      </trkpt>
      <trkpt lat="40.895863" lon="-3.971125">
        <ele>1710.709610</ele>
      </trkpt>
      <trkpt lat="40.89591" lon="-3.971063"/>
      <trkpt lat="40.895953" lon="-3.971"/>
      <trkpt lat="40.895993" lon="-3.970931">
        <ele>1713.999584</ele>
      </trkpt>
      <trkpt lat="40.896032" lon="-3.970858">
        <ele>1715.132278</ele>
      </trkpt>
      <trkpt lat="40.896072" lon="-3.970784">
        <ele>1716.285012</ele>
      </trkpt>
      <trkpt lat="40.896115" lon="-3.970712">
        <ele>1717.447715</ele>
      </trkpt>
      <trkpt lat="40.896159" lon="-3.970642">
        <ele>1718.601286</ele>
      </trkpt>
      <trkpt lat="40.896204" lon="-3.970576">
        <ele>1719.727516</ele>
      </trkpt>
      <trkpt lat="40.896254" lon="-3.970512">
        <ele>1720.893757</ele>
      </trkpt>
      <trkpt lat="40.896309" lon="-3.970445">
        <ele>1722.147049</ele>
      </trkpt>
      <trkpt lat="40.896371" lon="-3.970374">
        <ele>1723.521712</ele>
      </trkpt>
      <trkpt lat="40.896435" lon="-3.970303">
        <ele>1724.954371</ele>
      </trkpt>
      <trkpt lat="40.896497" lon="-3.970238">
        <ele>1726.311277</ele>
      </trkpt>
      <trkpt lat="40.896561" lon="-3.970181">
        <ele>1727.634631</ele>
      </trkpt>
      <trkpt lat="40.896629" lon="-3.970127">
        <ele>1728.995009</ele>
      </trkpt>
      <trkpt lat="40.896699" lon="-3.970069">
        <ele>1730.411745</ele>
      </trkpt>
      <trkpt lat="40.896771" lon="-3.97"/>
      <trkpt lat="40.896844" lon="-3.969925">
        <ele>1733.522098</ele>
      </trkpt>
      <trkpt lat="40.896979" lon="-3.969783">
        <ele>1736.480415</ele>
      </trkpt>
      <trkpt lat="40.897033" lon="-3.969712">
        <ele>1737.786297</ele>
      </trkpt>
      <trkpt lat="40.897078" lon="-3.969634">
        <ele>1739.058505</ele>
      </trkpt>
      <trkpt lat="40.89712" lon="-3.969547"/>
      <trkpt lat="40.897164" lon="-3.969453">
        <ele>1741.830427</ele>
      </trkpt>
      <trkpt lat="40.897252" lon="-3.969247">
        <ele>1744.898315</ele>
      </trkpt>
      <trkpt lat="40.897296" lon="-3.969139">
        <ele>1746.489015</ele>
      </trkpt>
      <trkpt lat="40.89734" lon="-3.969031"/>
      <trkpt lat="40.897415" lon="-3.968829">
        <ele>1750.997611</ele>
      </trkpt>
      <trkpt lat="40.897444" lon="-3.968733">
        <ele>1752.338002</ele>
      </trkpt>
      <trkpt lat="40.897473" lon="-3.968645">
        <ele>1753.582671</ele>
      </trkpt>
      <trkpt lat="40.897505" lon="-3.968559">
        <ele>1754.828081</ele>
      </trkpt>
      <trkpt lat="40.897533" lon="-3.968467">
        <ele>1756.121330</ele>
      </trkpt>
      <trkpt lat="40.897555" lon="-3.968374">
        <ele>1757.392026</ele>
      </trkpt>
      <trkpt lat="40.897572" lon="-3.96829"/>
      <trkpt lat="40.897584" lon="-3.968213">
        <ele>1759.551122</ele>
      </trkpt>
      <trkpt lat="40.897595" lon="-3.968145">
        <ele>1760.457902</ele>
      </trkpt>
      <trkpt lat="40.897612" lon="-3.968082">
        <ele>1761.330182</ele>
      </trkpt>
      <trkpt lat="40.897639" lon="-3.968023">
        <ele>1762.229537</ele>
      </trkpt>
      <trkpt lat="40.897673" lon="-3.967966">
        <ele>1763.176355</ele>
      </trkpt>
      <trkpt lat="40.897712" lon="-3.967909">
        <ele>1764.178895</ele>
      </trkpt>
      <trkpt lat="40.897756" lon="-3.967846">
        <ele>1765.297383</ele>
      </trkpt>
      <trkpt lat="40.89781" lon="-3.967777"/>
      <trkpt lat="40.897873" lon="-3.967696">
        <ele>1768.108004</ele>
      </trkpt>
      <trkpt lat="40.897939" lon="-3.967609">
        <ele>1769.715274</ele>
      </trkpt>
      <trkpt lat="40.898005" lon="-3.967524">
        <ele>1771.304244</ele>
      </trkpt>
      <trkpt lat="40.898069" lon="-3.967445">
        <ele>1772.814255</ele>
      </trkpt>
      <trkpt lat="40.898134" lon="-3.967371">
        <ele>1774.293595</ele>
      </trkpt>
      <trkpt lat="40.898204" lon="-3.967307">
        <ele>1775.761478</ele>
      </trkpt>
      <trkpt lat="40.898275" lon="-3.967255">
        <ele>1777.161463</ele>
      </trkpt>
      <trkpt lat="40.898347" lon="-3.967211">
        <ele>1778.529647</ele>
      </trkpt>
      <trkpt lat="40.898425" lon="-3.967167">
        <ele>1779.992441</ele>
      </trkpt>
      <trkpt lat="40.89851" lon="-3.967114"/>
      <trkpt lat="40.898596" lon="-3.967055">
        <ele>1783.284679</ele>
      </trkpt>
      <trkpt lat="40.898676" lon="-3.966994">
        <ele>1784.877571</ele>
      </trkpt>
      <trkpt lat="40.898743" lon="-3.966935">
        <ele>1786.069313</ele>
      </trkpt>
      <trkpt lat="40.898795" lon="-3.966877">
        <ele>1786.976633</ele>
      </trkpt>
      <trkpt lat="40.898835" lon="-3.966812">
        <ele>1787.821797</ele>
      </trkpt>
      <trkpt lat="40.898868" lon="-3.966734">
        <ele>1788.723117</ele>
      </trkpt>
      <trkpt lat="40.898898" lon="-3.966645">
        <ele>1789.705724</ele>
      </trkpt>
      <trkpt lat="40.89897" lon="-3.966452"/>
      <trkpt lat="40.899008" lon="-3.966355">
        <ele>1792.977562</ele>
      </trkpt>
      <trkpt lat="40.899049" lon="-3.966263">
        <ele>1794.054459</ele>
      </trkpt>
      <trkpt lat="40.899211" lon="-3.965992">
        <ele>1797.538316</ele>
      </trkpt>
      <trkpt lat="40.899273" lon="-3.9659"/>
      <trkpt lat="40.899392" lon="-3.965726">
        <ele>1801.147213</ele>
      </trkpt>
      <trkpt lat="40.899553" lon="-3.965439">
        <ele>1804.751020</ele>
      </trkpt>
      <trkpt lat="40.899842" lon="-3.96493"/>
      <trkpt lat="40.899962" lon="-3.964699">
        <ele>1810.196226</ele>
      </trkpt>
      <trkpt lat="40.899986" lon="-3.964623">
        <ele>1810.341228</ele>
      </trkpt>
      <trkpt lat="40.90004" lon="-3.964398"/>
      <trkpt lat="40.900107" lon="-3.964308">
        <ele>1810.979203</ele>
      </trkpt>
      <trkpt lat="40.900191" lon="-3.964294">
        <ele>1811.176393</ele>
      </trkpt>
      <trkpt lat="40.900346" lon="-3.964334">
        <ele>1811.544207</ele>
      </trkpt>
      <trkpt lat="40.900455" lon="-3.964339">
        <ele>1811.798231</ele>
      </trkpt>
      <trkpt lat="40.900493" lon="-3.964292">
        <ele>1811.919389</ele>
      </trkpt>
      <trkpt lat="40.90052" lon="-3.964218"/>
      <trkpt lat="40.900527" lon="-3.964227">
        <ele>1812.086780</ele>
      </trkpt>
      <trkpt lat="40.900528" lon="-3.964191">
        <ele>1812.150198</ele>
      </trkpt>
      <trkpt lat="40.900509" lon="-3.964171">
        <ele>1812.206749</ele>
      </trkpt>
      <trkpt lat="40.900489" lon="-3.964159">
        <ele>1812.257897</ele>
      </trkpt>
      <trkpt lat="40.900421" lon="-3.964137">
        <ele>1812.420942</ele>
      </trkpt>
      <trkpt lat="40.900373" lon="-3.964126">
        <ele>1812.534404</ele>
      </trkpt>
      <trkpt lat="40.900364" lon="-3.964114">
        <ele>1812.564164</ele>
      </trkpt>
      <trkpt lat="40.900355" lon="-3.964097">
        <ele>1812.600702</ele>
      </trkpt>
      <trkpt lat="40.900314" lon="-3.964045">
        <ele>1812.732986</ele>
      </trkpt>
      <trkpt lat="40.900313" lon="-3.964038">
        <ele>1812.745528</ele>
      </trkpt>
      <trkpt lat="40.900306" lon="-3.964035">
        <ele>1812.762665</ele>
      </trkpt>
      <trkpt lat="40.900276" lon="-3.964018">
        <ele>1812.838678</ele>
      </trkpt>
      <trkpt lat="40.900254" lon="-3.964029">
        <ele>1812.893455</ele>
      </trkpt>
      <trkpt lat="40.900152" lon="-3.964128">
        <ele>1813.188096</ele>
      </trkpt>
      <trkpt lat="40.900074" lon="-3.964248">
        <ele>1813.466722</ele>
      </trkpt>
      <trkpt lat="40.900094" lon="-3.964334">
        <ele>1813.413441</ele>
      </trkpt>
      <trkpt lat="40.900094" lon="-3.964329">
        <ele>1813.379414</ele>
      </trkpt>
      <trkpt lat="40.900088" lon="-3.964316">
        <ele>1813.275755</ele>
      </trkpt>
      <trkpt lat="40.900078" lon="-3.964323">
        <ele>1813.173894</ele>
      </trkpt>
      <trkpt lat="40.900082" lon="-3.964324">
        <ele>1813.137243</ele>
      </trkpt>
      <trkpt lat="40.900073" lon="-3.964338">
        <ele>1813.012169</ele>
      </trkpt>
      <trkpt lat="40.900045" lon="-3.964391">
        <ele>1812.572116</ele>
      </trkpt>
      <trkpt lat="40.900014" lon="-3.964562">
        <ele>1811.375398</ele>
      </trkpt>
      <trkpt lat="40.899987" lon="-3.964639">
        <ele>1810.797744</ele>
      </trkpt>
      <trkpt lat="40.899941" lon="-3.964754">
        <ele>1809.912296</ele>
      </trkpt>
      <trkpt lat="40.899928" lon="-3.964783">
        <ele>1809.682842</ele>
      </trkpt>
      <trkpt lat="40.899853" lon="-3.96491"/>
      <trkpt lat="40.899838" lon="-3.964936">
        <ele>1808.363453</ele>
      </trkpt>
      <trkpt lat="40.899741" lon="-3.96511"/>
      <trkpt lat="40.899725" lon="-3.965139">
        <ele>1806.647753</ele>
      </trkpt>
      <trkpt lat="40.899677" lon="-3.96522"/>
      <trkpt lat="40.899635" lon="-3.965293">
        <ele>1805.322962</ele>
      </trkpt>
      <trkpt lat="40.899622" lon="-3.965316">
        <ele>1805.127515</ele>
      </trkpt>
      <trkpt lat="40.899569" lon="-3.965405">
        <ele>1804.356440</ele>
      </trkpt>
      <trkpt lat="40.899526" lon="-3.965482">
        <ele>1803.704920</ele>
      </trkpt>
      <trkpt lat="40.89947" lon="-3.965595"/>
      <trkpt lat="40.899447" lon="-3.965634">
        <ele>1802.448720</ele>
      </trkpt>
      <trkpt lat="40.899389" lon="-3.965727">
        <ele>1801.628192</ele>
      </trkpt>
      <trkpt lat="40.899368" lon="-3.965757">
        <ele>1801.349927</ele>
      </trkpt>
      <trkpt lat="40.899357" lon="-3.96577"/>
      <trkpt lat="40.899335" lon="-3.965796">
        <ele>1800.951529</ele>
      </trkpt>
      <trkpt lat="40.899332" lon="-3.965811">
        <ele>1800.845934</ele>
      </trkpt>
      <trkpt lat="40.899331" lon="-3.965828">
        <ele>1800.729892</ele>
      </trkpt>
      <trkpt lat="40.899312" lon="-3.965866">
        <ele>1800.419826</ele>
      </trkpt>
      <trkpt lat="40.899281" lon="-3.965897">
        <ele>1800.069955</ele>
      </trkpt>
      <trkpt lat="40.899247" lon="-3.965914">
        <ele>1799.742703</ele>
      </trkpt>
      <trkpt lat="40.899234" lon="-3.965953">
        <ele>1799.452628</ele>
      </trkpt>
      <trkpt lat="40.899225" lon="-3.965982">
        <ele>1799.239283</ele>
      </trkpt>
      <trkpt lat="40.899184" lon="-3.966022">
        <ele>1798.780622</ele>
      </trkpt>
      <trkpt lat="40.899176" lon="-3.966034">
        <ele>1798.671730</ele>
      </trkpt>
      <trkpt lat="40.899156" lon="-3.96609"/>
      <trkpt lat="40.899139" lon="-3.96611"/>
      <trkpt lat="40.899123" lon="-3.966132">
        <ele>1797.837632</ele>
      </trkpt>
      <trkpt lat="40.899081" lon="-3.966193">
        <ele>1797.178588</ele>
      </trkpt>
      <trkpt lat="40.899073" lon="-3.966207">
        <ele>1796.954598</ele>
      </trkpt>
      <trkpt lat="40.899055" lon="-3.96625"/>
      <trkpt lat="40.899033" lon="-3.966301">
        <ele>1795.577835</ele>
      </trkpt>
      <trkpt lat="40.899026" lon="-3.966312">
        <ele>1795.394317</ele>
      </trkpt>
      <trkpt lat="40.899002" lon="-3.96639"/>
      <trkpt lat="40.898999" lon="-3.966406">
        <ele>1794.109122</ele>
      </trkpt>
      <trkpt lat="40.898972" lon="-3.96646"/>
      <trkpt lat="40.898953" lon="-3.9665"/>
      <trkpt lat="40.898943" lon="-3.966527">
        <ele>1792.296126</ele>
      </trkpt>
      <trkpt lat="40.898922" lon="-3.966597">
        <ele>1791.334948</ele>
      </trkpt>
      <trkpt lat="40.898918" lon="-3.966613">
        <ele>1791.119866</ele>
      </trkpt>
      <trkpt lat="40.898903" lon="-3.966657">
        <ele>1790.503837</ele>
      </trkpt>
      <trkpt lat="40.898897" lon="-3.966702">
        <ele>1789.920651</ele>
      </trkpt>
      <trkpt lat="40.898879" lon="-3.966759">
        <ele>1789.132245</ele>
      </trkpt>
      <trkpt lat="40.898876" lon="-3.966773">
        <ele>1788.946526</ele>
      </trkpt>
      <trkpt lat="40.898863" lon="-3.966799">
        <ele>1788.548667</ele>
      </trkpt>
      <trkpt lat="40.898855" lon="-3.96681"/>
      <trkpt lat="40.898847" lon="-3.966824">
        <ele>1788.129856</ele>
      </trkpt>
      <trkpt lat="40.898815" lon="-3.966872">
        <ele>1787.313016</ele>
      </trkpt>
      <trkpt lat="40.898791" lon="-3.966879">
        <ele>1786.898050</ele>
      </trkpt>
      <trkpt lat="40.898775" lon="-3.966899">
        <ele>1786.526380</ele>
      </trkpt>
      <trkpt lat="40.898762" lon="-3.966923">
        <ele>1786.149546</ele>
      </trkpt>
      <trkpt lat="40.898754" lon="-3.966933">
        <ele>1785.963711</ele>
      </trkpt>
      <trkpt lat="40.8987" lon="-3.966969"/>
      <trkpt lat="40.898688" lon="-3.966976">
        <ele>1784.721272</ele>
      </trkpt>
      <trkpt lat="40.898644" lon="-3.967002">
        <ele>1783.907602</ele>
      </trkpt>
      <trkpt lat="40.898622" lon="-3.967014">
        <ele>1783.505804</ele>
      </trkpt>
      <trkpt lat="40.898611" lon="-3.967023">
        <ele>1783.287422</ele>
      </trkpt>
      <trkpt lat="40.898579" lon="-3.967052">
        <ele>1782.632498</ele>
      </trkpt>
      <trkpt lat="40.89853" lon="-3.967076"/>
      <trkpt lat="40.898512" lon="-3.967095">
        <ele>1781.361452</ele>
      </trkpt>
      <trkpt lat="40.898501" lon="-3.967105">
        <ele>1781.136096</ele>
      </trkpt>
      <trkpt lat="40.898473" lon="-3.967111">
        <ele>1780.657160</ele>
      </trkpt>
      <trkpt lat="40.89846" lon="-3.967115"/>
      <trkpt lat="40.8984" lon="-3.967145"/>
      <trkpt lat="40.898331" lon="-3.967186">
        <ele>1778.071605</ele>
      </trkpt>
      <trkpt lat="40.898289" lon="-3.967214">
        <ele>1777.277493</ele>
      </trkpt>
      <trkpt lat="40.898279" lon="-3.967222">
        <ele>1777.080175</ele>
      </trkpt>
      <trkpt lat="40.898233" lon="-3.967252">
        <ele>1776.214229</ele>
      </trkpt>
      <trkpt lat="40.898198" lon="-3.967278">
        <ele>1775.536471</ele>
      </trkpt>
      <trkpt lat="40.898179" lon="-3.967297">
        <ele>1775.134323</ele>
      </trkpt>
      <trkpt lat="40.898164" lon="-3.967318">
        <ele>1774.765568</ele>
      </trkpt>
      <trkpt lat="40.898156" lon="-3.967331">
        <ele>1774.551618</ele>
      </trkpt>
      <trkpt lat="40.898145" lon="-3.967359">
        <ele>1774.148876</ele>
      </trkpt>
      <trkpt lat="40.898132" lon="-3.967384">
        <ele>1773.761595</ele>
      </trkpt>
      <trkpt lat="40.898109" lon="-3.967398">
        <ele>1773.334111</ele>
      </trkpt>
      <trkpt lat="40.89809" lon="-3.967416"/>
      <trkpt lat="40.898052" lon="-3.96746"/>
      <trkpt lat="40.898036" lon="-3.967484">
        <ele>1771.678444</ele>
      </trkpt>
      <trkpt lat="40.898005" lon="-3.967512">
        <ele>1771.044659</ele>
      </trkpt>
      <trkpt lat="40.897951" lon="-3.967586">
        <ele>1769.731904</ele>
      </trkpt>
      <trkpt lat="40.897943" lon="-3.9676"/>
      <trkpt lat="40.897901" lon="-3.967662">
        <ele>1768.445340</ele>
      </trkpt>
      <trkpt lat="40.897882" lon="-3.967682">
        <ele>1768.035370</ele>
      </trkpt>
      <trkpt lat="40.897836" lon="-3.967738">
        <ele>1766.980350</ele>
      </trkpt>
      <trkpt lat="40.89782" lon="-3.967764"/>
      <trkpt lat="40.897788" lon="-3.967788">
        <ele>1765.944757</ele>
      </trkpt>
      <trkpt lat="40.897759" lon="-3.967841">
        <ele>1765.120368</ele>
      </trkpt>
      <trkpt lat="40.897734" lon="-3.967878">
        <ele>1764.495072</ele>
      </trkpt>
      <trkpt lat="40.897697" lon="-3.96792"/>
      <trkpt lat="40.897687" lon="-3.967932">
        <ele>1763.457357</ele>
      </trkpt>
      <trkpt lat="40.89768" lon="-3.967946"/>
      <trkpt lat="40.897664" lon="-3.967971">
        <ele>1762.833122</ele>
      </trkpt>
      <trkpt lat="40.897633" lon="-3.968024">
        <ele>1761.988751</ele>
      </trkpt>
      <trkpt lat="40.897626" lon="-3.968037">
        <ele>1761.787643</ele>
      </trkpt>
      <trkpt lat="40.897626" lon="-3.968085">
        <ele>1761.182853</ele>
      </trkpt>
      <trkpt lat="40.897632" lon="-3.968116">
        <ele>1760.779658</ele>
      </trkpt>
      <trkpt lat="40.897634" lon="-3.968132">
        <ele>1760.575323</ele>
      </trkpt>
      <trkpt lat="40.897636" lon="-3.968179">
        <ele>1759.982196</ele>
      </trkpt>
      <trkpt lat="40.89763" lon="-3.968222"/>
      <trkpt lat="40.897622" lon="-3.968234">
        <ele>1759.229648</ele>
      </trkpt>
      <trkpt lat="40.89759" lon="-3.968322"/>
      <trkpt lat="40.897571" lon="-3.968381">
        <ele>1757.191190</ele>
      </trkpt>
      <trkpt lat="40.897566" lon="-3.968433">
        <ele>1756.530720</ele>
      </trkpt>
      <trkpt lat="40.89755" lon="-3.968479"/>
      <trkpt lat="40.897531" lon="-3.968545">
        <ele>1755.002854</ele>
      </trkpt>
      <trkpt lat="40.897499" lon="-3.968649">
        <ele>1753.588067</ele>
      </trkpt>
      <trkpt lat="40.89749" lon="-3.968663"/>
      <trkpt lat="40.897464" lon="-3.968744">
        <ele>1752.247707</ele>
      </trkpt>
      <trkpt lat="40.897453" lon="-3.968776">
        <ele>1751.804778</ele>
      </trkpt>
      <trkpt lat="40.897422" lon="-3.968833">
        <ele>1750.920008</ele>
      </trkpt>
      <trkpt lat="40.897392" lon="-3.968889">
        <ele>1750.055179</ele>
      </trkpt>
      <trkpt lat="40.897386" lon="-3.968903">
        <ele>1749.852401</ele>
      </trkpt>
      <trkpt lat="40.897372" lon="-3.968962">
        <ele>1749.073241</ele>
      </trkpt>
      <trkpt lat="40.897368" lon="-3.968975">
        <ele>1748.896393</ele>
      </trkpt>
      <trkpt lat="40.897353" lon="-3.969"/>
      <trkpt lat="40.897344" lon="-3.969026">
        <ele>1748.133910</ele>
      </trkpt>
      <trkpt lat="40.897328" lon="-3.969065">
        <ele>1747.574804</ele>
      </trkpt>
      <trkpt lat="40.897312" lon="-3.969088">
        <ele>1747.180960</ele>
      </trkpt>
      <trkpt lat="40.897305" lon="-3.969114">
        <ele>1746.833204</ele>
      </trkpt>
      <trkpt lat="40.897304" lon="-3.969128">
        <ele>1746.656020</ele>
      </trkpt>
      <trkpt lat="40.8973" lon="-3.969143"/>
      <trkpt lat="40.897273" lon="-3.969189">
        <ele>1745.721790</ele>
      </trkpt>
      <trkpt lat="40.897261" lon="-3.969213">
        <ele>1745.359222</ele>
      </trkpt>
      <trkpt lat="40.897252" lon="-3.969241">
        <ele>1744.975854</ele>
      </trkpt>
      <trkpt lat="40.897241" lon="-3.969285">
        <ele>1744.391924</ele>
      </trkpt>
      <trkpt lat="40.897235" lon="-3.969298">
        <ele>1744.200006</ele>
      </trkpt>
      <trkpt lat="40.897221" lon="-3.969322">
        <ele>1743.818032</ele>
      </trkpt>
      <trkpt lat="40.897192" lon="-3.969391">
        <ele>1742.823287</ele>
      </trkpt>
      <trkpt lat="40.897189" lon="-3.969406">
        <ele>1742.627785</ele>
      </trkpt>
      <trkpt lat="40.89718" lon="-3.969433"/>
      <trkpt lat="40.897163" lon="-3.969453">
        <ele>1741.876764</ele>
      </trkpt>
      <trkpt lat="40.89715" lon="-3.96948"/>
      <trkpt lat="40.89712" lon="-3.969534"/>
      <trkpt lat="40.897109" lon="-3.969561">
        <ele>1740.242552</ele>
      </trkpt>
      <trkpt lat="40.897092" lon="-3.969601">
        <ele>1739.664355</ele>
      </trkpt>
      <trkpt lat="40.897066" lon="-3.969653">
        <ele>1738.878791</ele>
      </trkpt>
      <trkpt lat="40.89706" lon="-3.96967"/>
      <trkpt lat="40.897034" lon="-3.969706">
        <ele>1738.015033</ele>
      </trkpt>
      <trkpt lat="40.896996" lon="-3.969753">
        <ele>1737.147900</ele>
      </trkpt>
      <trkpt lat="40.896928" lon="-3.969823">
        <ele>1735.692211</ele>
      </trkpt>
      <trkpt lat="40.896895" lon="-3.969855">
        <ele>1735.000163</ele>
      </trkpt>
      <trkpt lat="40.896852" lon="-3.969902">
        <ele>1734.056735</ele>
      </trkpt>
      <trkpt lat="40.896829" lon="-3.969924">
        <ele>1733.576678</ele>
      </trkpt>
      <trkpt lat="40.896806" lon="-3.969943">
        <ele>1733.118040</ele>
      </trkpt>
      <trkpt lat="40.896793" lon="-3.969974">
        <ele>1732.664791</ele>
      </trkpt>
      <trkpt lat="40.896783" lon="-3.970006">
        <ele>1732.222081</ele>
      </trkpt>
      <trkpt lat="40.896728" lon="-3.97005"/>
      <trkpt lat="40.896718" lon="-3.970061">
        <ele>1730.914971</ele>
      </trkpt>
      <trkpt lat="40.896697" lon="-3.970077">
        <ele>1730.505080</ele>
      </trkpt>
      <trkpt lat="40.896648" lon="-3.970109">
        <ele>1729.580809</ele>
      </trkpt>
      <trkpt lat="40.896622" lon="-3.970118">
        <ele>1729.126239</ele>
      </trkpt>
      <trkpt lat="40.896608" lon="-3.970123">
        <ele>1728.880965</ele>
      </trkpt>
      <trkpt lat="40.896577" lon="-3.970155">
        <ele>1728.215898</ele>
      </trkpt>
      <trkpt lat="40.896545" lon="-3.970182">
        <ele>1727.573936</ele>
      </trkpt>
      <trkpt lat="40.896526" lon="-3.970203">
        <ele>1727.155171</ele>
      </trkpt>
      <trkpt lat="40.896464" lon="-3.970259">
        <ele>1725.885395</ele>
      </trkpt>
      <trkpt lat="40.896447" lon="-3.970282">
        <ele>1725.474115</ele>
      </trkpt>
      <trkpt lat="40.896411" lon="-3.970323">
        <ele>1724.670655</ele>
      </trkpt>
      <trkpt lat="40.896403" lon="-3.970334">
        <ele>1724.475493</ele>
      </trkpt>
      <trkpt lat="40.896366" lon="-3.970388">
        <ele>1723.543661</ele>
      </trkpt>
      <trkpt lat="40.896343" lon="-3.970423">
        <ele>1722.950718</ele>
      </trkpt>
      <trkpt lat="40.896334" lon="-3.970434">
        <ele>1722.743470</ele>
      </trkpt>
      <trkpt lat="40.896281" lon="-3.970473">
        <ele>1721.717681</ele>
      </trkpt>
      <trkpt lat="40.896273" lon="-3.970486">
        <ele>1721.503356</ele>
      </trkpt>
      <trkpt lat="40.896263" lon="-3.970498">
        <ele>1721.274999</ele>
      </trkpt>
      <trkpt lat="40.89623" lon="-3.970543"/>
      <trkpt lat="40.896223" lon="-3.970557">
        <ele>1720.258790</ele>
      </trkpt>
      <trkpt lat="40.896189" lon="-3.970603">
        <ele>1719.436230</ele>
      </trkpt>
      <trkpt lat="40.896159" lon="-3.970657">
        <ele>1718.579412</ele>
      </trkpt>
      <trkpt lat="40.896153" lon="-3.970671">
        <ele>1718.373650</ele>
      </trkpt>
      <trkpt lat="40.896131" lon="-3.970728">
        <ele>1717.555383</ele>
      </trkpt>
      <trkpt lat="40.896103" lon="-3.970779">
        <ele>1716.749491</ele>
      </trkpt>
      <trkpt lat="40.896094" lon="-3.970787">
        <ele>1716.566093</ele>
      </trkpt>
      <trkpt lat="40.896071" lon="-3.9708"/>
      <trkpt lat="40.896061" lon="-3.970823">
        <ele>1715.803815</ele>
      </trkpt>
      <trkpt lat="40.896055" lon="-3.970852">
        <ele>1715.419402</ele>
      </trkpt>
      <trkpt lat="40.896037" lon="-3.970913">
        <ele>1714.582179</ele>
      </trkpt>
      <trkpt lat="40.896019" lon="-3.970935">
        <ele>1714.167681</ele>
      </trkpt>
      <trkpt lat="40.895988" lon="-3.970962">
        <ele>1713.539911</ele>
      </trkpt>
      <trkpt lat="40.895971" lon="-3.970984">
        <ele>1713.137673</ele>
      </trkpt>
      <trkpt lat="40.895944" lon="-3.971017">
        <ele>1712.515925</ele>
      </trkpt>
      <trkpt lat="40.895896" lon="-3.971076">
        <ele>1711.407699</ele>
      </trkpt>
      <trkpt lat="40.895864" lon="-3.971113">
        <ele>1710.688856</ele>
      </trkpt>
      <trkpt lat="40.895837" lon="-3.971152">
        <ele>1710.012699</ele>
      </trkpt>
      <trkpt lat="40.89579" lon="-3.971199"/>
      <trkpt lat="40.895777" lon="-3.97121"/>
      <trkpt lat="40.895741" lon="-3.971263">
        <ele>1707.844150</ele>
      </trkpt>
      <trkpt lat="40.895701" lon="-3.971307">
        <ele>1706.964259</ele>
      </trkpt>
      <trkpt lat="40.895677" lon="-3.971326">
        <ele>1706.510099</ele>
      </trkpt>
      <trkpt lat="40.895668" lon="-3.971337">
        <ele>1706.334833</ele>
      </trkpt>
      <trkpt lat="40.895646" lon="-3.971375">
        <ele>1705.817302</ele>
      </trkpt>
      <trkpt lat="40.895635" lon="-3.971385">
        <ele>1705.626391</ele>
      </trkpt>
      <trkpt lat="40.895585" lon="-3.971438">
        <ele>1704.709937</ele>
      </trkpt>
      <trkpt lat="40.89556" lon="-3.971455"/>
      <trkpt lat="40.895541" lon="-3.971479">
        <ele>1703.932103</ele>
      </trkpt>
      <trkpt lat="40.89547" lon="-3.971542"/>
      <trkpt lat="40.895457" lon="-3.971553">
        <ele>1702.488509</ele>
      </trkpt>
      <trkpt lat="40.895405" lon="-3.971619">
        <ele>1701.457742</ele>
      </trkpt>
      <trkpt lat="40.895395" lon="-3.971631">
        <ele>1701.264624</ele>
      </trkpt>
      <trkpt lat="40.895349" lon="-3.971676">
        <ele>1700.446291</ele>
      </trkpt>
      <trkpt lat="40.895316" lon="-3.971718">
        <ele>1699.791285</ele>
      </trkpt>
      <trkpt lat="40.895293" lon="-3.971747">
        <ele>1699.336805</ele>
      </trkpt>
      <trkpt lat="40.895265" lon="-3.971795">
        <ele>1698.681244</ele>
      </trkpt>
      <trkpt lat="40.895255" lon="-3.971831">
        <ele>1698.266549</ele>
      </trkpt>
      <trkpt lat="40.895184" lon="-3.971905">
        <ele>1696.973656</ele>
      </trkpt>
      <trkpt lat="40.895173" lon="-3.971918">
        <ele>1696.762673</ele>
      </trkpt>
      <trkpt lat="40.895164" lon="-3.971931">
        <ele>1696.572069</ele>
      </trkpt>
      <trkpt lat="40.895087" lon="-3.972028">
        <ele>1695.051196</ele>
      </trkpt>
      <trkpt lat="40.895072" lon="-3.972041">
        <ele>1694.794696</ele>
      </trkpt>
      <trkpt lat="40.89501" lon="-3.972169"/>
      <trkpt lat="40.894993" lon="-3.972209">
        <ele>1692.654781</ele>
      </trkpt>
      <trkpt lat="40.894968" lon="-3.972312">
        <ele>1691.485100</ele>
      </trkpt>
      <trkpt lat="40.894964" lon="-3.972356">
        <ele>1691.005925</ele>
      </trkpt>
      <trkpt lat="40.894963" lon="-3.972402">
        <ele>1690.508348</ele>
      </trkpt>
      <trkpt lat="40.894971" lon="-3.972569">
        <ele>1688.699052</ele>
      </trkpt>
      <trkpt lat="40.894974" lon="-3.972594">
        <ele>1688.425357</ele>
      </trkpt>
      <trkpt lat="40.894983" lon="-3.972768">
        <ele>1686.539598</ele>
      </trkpt>
      <trkpt lat="40.894983" lon="-3.972793">
        <ele>1686.269287</ele>
      </trkpt>
      <trkpt lat="40.894981" lon="-3.97294"/>
      <trkpt lat="40.894982" lon="-3.972965">
        <ele>1684.408916</ele>
      </trkpt>
      <trkpt lat="40.894989" lon="-3.973076">
        <ele>1683.204569</ele>
      </trkpt>
      <trkpt lat="40.894987" lon="-3.973098">
        <ele>1682.964982</ele>
      </trkpt>
      <trkpt lat="40.894969" lon="-3.973251">
        <ele>1681.290766</ele>
      </trkpt>
      <trkpt lat="40.894967" lon="-3.973271">
        <ele>1681.072634</ele>
      </trkpt>
      <trkpt lat="40.894966" lon="-3.97337"/>
      <trkpt lat="40.894966" lon="-3.973391">
        <ele>1679.691321</ele>
      </trkpt>
      <trkpt lat="40.894954" lon="-3.973508">
        <ele>1678.318485</ele>
      </trkpt>
      <trkpt lat="40.894947" lon="-3.973568">
        <ele>1677.612598</ele>
      </trkpt>
      <trkpt lat="40.894945" lon="-3.973588">
        <ele>1677.378030</ele>
      </trkpt>
      <trkpt lat="40.89493" lon="-3.97369"/>
      <trkpt lat="40.894925" lon="-3.973709">
        <ele>1675.935911</ele>
      </trkpt>
      <trkpt lat="40.894915" lon="-3.97377"/>
      <trkpt lat="40.894902" lon="-3.973831">
        <ele>1674.473267</ele>
      </trkpt>
      <trkpt lat="40.894894" lon="-3.973896">
        <ele>1673.707552</ele>
      </trkpt>
      <trkpt lat="40.894892" lon="-3.973999">
        <ele>1672.509564</ele>
      </trkpt>
      <trkpt lat="40.894874" lon="-3.974132">
        <ele>1670.938567</ele>
      </trkpt>
      <trkpt lat="40.894871" lon="-3.974148">
        <ele>1670.746896</ele>
      </trkpt>
      <trkpt lat="40.894858" lon="-3.974206">
        <ele>1670.043502</ele>
      </trkpt>
      <trkpt lat="40.894858" lon="-3.974205">
        <ele>1670.031874</ele>
      </trkpt>
      <trkpt lat="40.894857" lon="-3.974205">
        <ele>1670.016493</ele>
      </trkpt>
      <trkpt lat="40.894851" lon="-3.974255">
        <ele>1669.427857</ele>
      </trkpt>
      <trkpt lat="40.894844" lon="-3.974267">
        <ele>1669.251617</ele>
      </trkpt>
      <trkpt lat="40.894822" lon="-3.974322">
        <ele>1668.528111</ele>
      </trkpt>
      <trkpt lat="40.894806" lon="-3.974401">
        <ele>1667.577169</ele>
      </trkpt>
      <trkpt lat="40.894797" lon="-3.974471">
        <ele>1666.751581</ele>
      </trkpt>
      <trkpt lat="40.894788" lon="-3.97453"/>
      <trkpt lat="40.894779" lon="-3.974562">
        <ele>1665.654764</ele>
      </trkpt>
      <trkpt lat="40.894714" lon="-3.974762">
        <ele>1663.123514</ele>
      </trkpt>
      <trkpt lat="40.894719" lon="-3.974761">
        <ele>1663.045733</ele>
      </trkpt>
      <trkpt lat="40.894724" lon="-3.97476"/>
      <trkpt lat="40.894714" lon="-3.974779">
        <ele>1662.698761</ele>
      </trkpt>
      <trkpt lat="40.894707" lon="-3.974809">
        <ele>1662.333707</ele>
      </trkpt>
      <trkpt lat="40.894707" lon="-3.974826">
        <ele>1662.136045</ele>
      </trkpt>
      <trkpt lat="40.894706" lon="-3.974863">
        <ele>1661.705566</ele>
      </trkpt>
      <trkpt lat="40.894704" lon="-3.974877">
        <ele>1661.539904</ele>
      </trkpt>
      <trkpt lat="40.894692" lon="-3.9749"/>
      <trkpt lat="40.894683" lon="-3.97493"/>
      <trkpt lat="40.894665" lon="-3.975025">
        <ele>1659.700934</ele>
      </trkpt>
      <trkpt lat="40.894657" lon="-3.975054">
        <ele>1659.341995</ele>
      </trkpt>
      <trkpt lat="40.894649" lon="-3.975097">
        <ele>1658.827106</ele>
      </trkpt>
      <trkpt lat="40.894648" lon="-3.975126">
        <ele>1658.489568</ele>
      </trkpt>
      <trkpt lat="40.894635" lon="-3.975231">
        <ele>1657.252449</ele>
      </trkpt>
      <trkpt lat="40.894633" lon="-3.975247">
        <ele>1657.063888</ele>
      </trkpt>
      <trkpt lat="40.89462" lon="-3.975299"/>
      <trkpt lat="40.894615" lon="-3.975325">
        <ele>1656.115131</ele>
      </trkpt>
      <trkpt lat="40.894614" lon="-3.975338">
        <ele>1655.963198</ele>
      </trkpt>
      <trkpt lat="40.894606" lon="-3.975358">
        <ele>1655.700104</ele>
      </trkpt>
      <trkpt lat="40.894598" lon="-3.975365">
        <ele>1655.552570</ele>
      </trkpt>
      <trkpt lat="40.89459" lon="-3.975372"/>
      <trkpt lat="40.894576" lon="-3.975405">
        <ele>1654.965041</ele>
      </trkpt>
      <trkpt lat="40.894572" lon="-3.97546"/>
      <trkpt lat="40.89457" lon="-3.975477"/>
      <trkpt lat="40.894543" lon="-3.975506">
        <ele>1653.587601</ele>
      </trkpt>
      <trkpt lat="40.894519" lon="-3.975516">
        <ele>1653.197184</ele>
      </trkpt>
      <trkpt lat="40.894509" lon="-3.975527">
        <ele>1652.962829</ele>
      </trkpt>
      <trkpt lat="40.89448" lon="-3.975568"/>
      <trkpt lat="40.894474" lon="-3.975608">
        <ele>1651.642507</ele>
      </trkpt>
      <trkpt lat="40.894465" lon="-3.975641">
        <ele>1651.164638</ele>
      </trkpt>
      <trkpt lat="40.894447" lon="-3.975664">
        <ele>1650.713684</ele>
      </trkpt>
      <trkpt lat="40.894437" lon="-3.975674">
        <ele>1650.487796</ele>
      </trkpt>
      <trkpt lat="40.894418" lon="-3.975695">
        <ele>1650.041650</ele>
      </trkpt>
      <trkpt lat="40.894405" lon="-3.975719">
        <ele>1649.639469</ele>
      </trkpt>
      <trkpt lat="40.894398" lon="-3.975731">
        <ele>1649.433000</ele>
      </trkpt>
      <trkpt lat="40.894373" lon="-3.975766">
        <ele>1648.777076</ele>
      </trkpt>
      <trkpt lat="40.894342" lon="-3.9758"/>
      <trkpt lat="40.894298" lon="-3.975849">
        <ele>1647.015042</ele>
      </trkpt>
      <trkpt lat="40.894276" lon="-3.975866">
        <ele>1646.555930</ele>
      </trkpt>
      <trkpt lat="40.894235" lon="-3.975912">
        <ele>1645.587192</ele>
      </trkpt>
      <trkpt lat="40.894188" lon="-3.975972">
        <ele>1644.410225</ele>
      </trkpt>
      <trkpt lat="40.894174" lon="-3.975989">
        <ele>1644.067783</ele>
      </trkpt>
      <trkpt lat="40.89417" lon="-3.976"/>
      <trkpt lat="40.894146" lon="-3.976023">
        <ele>1643.367481</ele>
      </trkpt>
      <trkpt lat="40.894138" lon="-3.976032">
        <ele>1643.178244</ele>
      </trkpt>
      <trkpt lat="40.89412" lon="-3.976049"/>
      <trkpt lat="40.894112" lon="-3.976073">
        <ele>1642.422420</ele>
      </trkpt>
      <trkpt lat="40.894111" lon="-3.976087">
        <ele>1642.230869</ele>
      </trkpt>
      <trkpt lat="40.894107" lon="-3.9761"/>
      <trkpt lat="40.894084" lon="-3.976131">
        <ele>1641.448005</ele>
      </trkpt>
      <trkpt lat="40.894076" lon="-3.976142">
        <ele>1641.240080</ele>
      </trkpt>
      <trkpt lat="40.894049" lon="-3.976169">
        <ele>1640.630180</ele>
      </trkpt>
      <trkpt lat="40.894029" lon="-3.976202">
        <ele>1640.054033</ele>
      </trkpt>
      <trkpt lat="40.894012" lon="-3.976252">
        <ele>1639.307235</ele>
      </trkpt>
      <trkpt lat="40.893998" lon="-3.976276">
        <ele>1638.894297</ele>
      </trkpt>
      <trkpt lat="40.89396" lon="-3.976344"/>
      <trkpt lat="40.893949" lon="-3.976356">
        <ele>1637.485484</ele>
      </trkpt>
      <trkpt lat="40.893906" lon="-3.9764"/>
      <trkpt lat="40.89387" lon="-3.976425"/>
      <trkpt lat="40.89385" lon="-3.976446"/>
      <trkpt lat="40.893803" lon="-3.976497">
        <ele>1634.217705</ele>
      </trkpt>
      <trkpt lat="40.893788" lon="-3.976521">
        <ele>1633.793517</ele>
      </trkpt>
      <trkpt lat="40.893782" lon="-3.976535">
        <ele>1633.574298</ele>
      </trkpt>
      <trkpt lat="40.893749" lon="-3.976562">
        <ele>1632.875102</ele>
      </trkpt>
      <trkpt lat="40.893733" lon="-3.976586">
        <ele>1632.439210</ele>
      </trkpt>
      <trkpt lat="40.893717" lon="-3.976624">
        <ele>1631.846709</ele>
      </trkpt>
      <trkpt lat="40.893703" lon="-3.976648">
        <ele>1631.433769</ele>
      </trkpt>
      <trkpt lat="40.893685" lon="-3.976668">
        <ele>1631.010182</ele>
      </trkpt>
      <trkpt lat="40.893658" lon="-3.976699">
        <ele>1630.365956</ele>
      </trkpt>
      <trkpt lat="40.893609" lon="-3.976747">
        <ele>1629.267258</ele>
      </trkpt>
      <trkpt lat="40.893599" lon="-3.976756">
        <ele>1629.049311</ele>
      </trkpt>
      <trkpt lat="40.89356" lon="-3.976816"/>
      <trkpt lat="40.89355" lon="-3.976827"/>
      <trkpt lat="40.89353" lon="-3.976847"/>
      <trkpt lat="40.893507" lon="-3.976914">
        <ele>1626.282930</ele>
      </trkpt>
      <trkpt lat="40.893495" lon="-3.976969">
        <ele>1625.503158</ele>
      </trkpt>
      <trkpt lat="40.893491" lon="-3.977015">
        <ele>1624.872430</ele>
      </trkpt>
      <trkpt lat="40.893488" lon="-3.97703"/>
      <trkpt lat="40.89349" lon="-3.977109"/>
      <trkpt lat="40.893482" lon="-3.977175">
        <ele>1622.673849</ele>
      </trkpt>
      <trkpt lat="40.893483" lon="-3.977222">
        <ele>1622.033378</ele>
      </trkpt>
      <trkpt lat="40.893485" lon="-3.97724"/>
      <trkpt lat="40.893487" lon="-3.977293">
        <ele>1621.062707</ele>
      </trkpt>
      <trkpt lat="40.893488" lon="-3.97731"/>
      <trkpt lat="40.893484" lon="-3.977376">
        <ele>1619.933206</ele>
      </trkpt>
      <trkpt lat="40.893478" lon="-3.977389">
        <ele>1619.726830</ele>
      </trkpt>
      <trkpt lat="40.893489" lon="-3.977435">
        <ele>1619.073122</ele>
      </trkpt>
      <trkpt lat="40.893505" lon="-3.977452">
        <ele>1618.705290</ele>
      </trkpt>
      <trkpt lat="40.893542" lon="-3.977495">
        <ele>1617.822533</ele>
      </trkpt>
      <trkpt lat="40.893553" lon="-3.977504">
        <ele>1617.590706</ele>
      </trkpt>
      <trkpt lat="40.893596" lon="-3.977533">
        <ele>1616.725593</ele>
      </trkpt>
      <trkpt lat="40.893612" lon="-3.977555">
        <ele>1616.311952</ele>
      </trkpt>
      <trkpt lat="40.893618" lon="-3.977569">
        <ele>1616.093898</ele>
      </trkpt>
      <trkpt lat="40.893641" lon="-3.977602">
        <ele>1615.485727</ele>
      </trkpt>
      <trkpt lat="40.893649" lon="-3.977613">
        <ele>1615.278907</ele>
      </trkpt>
      <trkpt lat="40.893674" lon="-3.97765"/>
      <trkpt lat="40.893681" lon="-3.977683">
        <ele>1614.142117</ele>
      </trkpt>
      <trkpt lat="40.893722" lon="-3.977727">
        <ele>1613.195826</ele>
      </trkpt>
      <trkpt lat="40.893744" lon="-3.977746">
        <ele>1612.724904</ele>
      </trkpt>
      <trkpt lat="40.893773" lon="-3.977804">
        <ele>1611.782697</ele>
      </trkpt>
      <trkpt lat="40.893806" lon="-3.977837">
        <ele>1611.041225</ele>
      </trkpt>
      <trkpt lat="40.893835" lon="-3.977875">
        <ele>1610.309598</ele>
      </trkpt>
      <trkpt lat="40.893854" lon="-3.977901">
        <ele>1609.819620</ele>
      </trkpt>
      <trkpt lat="40.893889" lon="-3.977927">
        <ele>1609.100137</ele>
      </trkpt>
      <trkpt lat="40.893902" lon="-3.977935">
        <ele>1608.843147</ele>
      </trkpt>
      <trkpt lat="40.893922" lon="-3.977959">
        <ele>1608.359154</ele>
      </trkpt>
      <trkpt lat="40.893942" lon="-3.977983">
        <ele>1607.875160</ele>
      </trkpt>
      <trkpt lat="40.893953" lon="-3.977992">
        <ele>1607.643333</ele>
      </trkpt>
      <trkpt lat="40.894009" lon="-3.978012">
        <ele>1606.603654</ele>
      </trkpt>
      <trkpt lat="40.894022" lon="-3.978016">
        <ele>1606.364422</ele>
      </trkpt>
      <trkpt lat="40.894033" lon="-3.978023">
        <ele>1606.145632</ele>
      </trkpt>
      <trkpt lat="40.894043" lon="-3.978035">
        <ele>1605.903636</ele>
      </trkpt>
      <trkpt lat="40.894054" lon="-3.978041">
        <ele>1605.690369</ele>
      </trkpt>
      <trkpt lat="40.894078" lon="-3.978045">
        <ele>1605.256793</ele>
      </trkpt>
      <trkpt lat="40.894091" lon="-3.978067">
        <ele>1604.878445</ele>
      </trkpt>
      <trkpt lat="40.894117" lon="-3.978095">
        <ele>1604.277526</ele>
      </trkpt>
      <trkpt lat="40.89414" lon="-3.97811"/>
      <trkpt lat="40.894164" lon="-3.978123">
        <ele>1603.353059</ele>
      </trkpt>
      <trkpt lat="40.894188" lon="-3.978128">
        <ele>1602.917582</ele>
      </trkpt>
      <trkpt lat="40.894201" lon="-3.978131">
        <ele>1602.681051</ele>
      </trkpt>
      <trkpt lat="40.894245" lon="-3.978159">
        <ele>1601.805892</ele>
      </trkpt>
      <trkpt lat="40.894256" lon="-3.97816"/>
      <trkpt lat="40.894268" lon="-3.978162">
        <ele>1601.391475</ele>
      </trkpt>
      <trkpt lat="40.894301" lon="-3.978183">
        <ele>1600.735106</ele>
      </trkpt>
      <trkpt lat="40.894337" lon="-3.978198">
        <ele>1600.058592</ele>
      </trkpt>
      <trkpt lat="40.894349" lon="-3.9782"/>
      <trkpt lat="40.89436" lon="-3.978205"/>
      <trkpt lat="40.894414" lon="-3.978226">
        <ele>1598.624475</ele>
      </trkpt>
      <trkpt lat="40.894426" lon="-3.978228">
        <ele>1598.407687</ele>
      </trkpt>
      <trkpt lat="40.894474" lon="-3.978231">
        <ele>1597.546375</ele>
      </trkpt>
      <trkpt lat="40.894523" lon="-3.978247">
        <ele>1596.641740</ele>
      </trkpt>
      <trkpt lat="40.894533" lon="-3.978251">
        <ele>1596.454486</ele>
      </trkpt>
      <trkpt lat="40.894583" lon="-3.97825"/>
      <trkpt lat="40.894609" lon="-3.978247">
        <ele>1595.090391</ele>
      </trkpt>
      <trkpt lat="40.894638" lon="-3.978246">
        <ele>1594.570418</ele>
      </trkpt>
      <trkpt lat="40.894669" lon="-3.978242">
        <ele>1594.012137</ele>
      </trkpt>
      <trkpt lat="40.894678" lon="-3.978243">
        <ele>1593.850253</ele>
      </trkpt>
      <trkpt lat="40.894685" lon="-3.978244">
        <ele>1593.724056</ele>
      </trkpt>
      <trkpt lat="40.8947" lon="-3.978231"/>
      <trkpt lat="40.894708" lon="-3.978223">
        <ele>1593.222887</ele>
      </trkpt>
      <trkpt lat="40.89473" lon="-3.978227"/>
      <trkpt lat="40.894748" lon="-3.978231">
        <ele>1592.497700</ele>
      </trkpt>
      <trkpt lat="40.894768" lon="-3.978221">
        <ele>1592.114470</ele>
      </trkpt>
      <trkpt lat="40.894799" lon="-3.978215">
        <ele>1591.552911</ele>
      </trkpt>
      <trkpt lat="40.894851" lon="-3.978215">
        <ele>1590.620863</ele>
      </trkpt>
      <trkpt lat="40.89486" lon="-3.978213"/>
      <trkpt lat="40.894892" lon="-3.978206">
        <ele>1589.875930</ele>
      </trkpt>
      <trkpt lat="40.894903" lon="-3.978207">
        <ele>1589.678301</ele>
      </trkpt>
      <trkpt lat="40.894912" lon="-3.978203">
        <ele>1589.508125</ele>
      </trkpt>
      <trkpt lat="40.894922" lon="-3.978197">
        <ele>1589.311311</ele>
      </trkpt>
      <trkpt lat="40.894944" lon="-3.978189">
        <ele>1588.902357</ele>
      </trkpt>
      <trkpt lat="40.894977" lon="-3.978198">
        <ele>1588.288037</ele>
      </trkpt>
      <trkpt lat="40.894986" lon="-3.978204">
        <ele>1588.100490</ele>
      </trkpt>
      <trkpt lat="40.894997" lon="-3.978209">
        <ele>1587.884045</ele>
      </trkpt>
      <trkpt lat="40.895028" lon="-3.978213">
        <ele>1587.304426</ele>
      </trkpt>
      <trkpt lat="40.895062" lon="-3.978211">
        <ele>1586.671093</ele>
      </trkpt>
      <trkpt lat="40.895074" lon="-3.978214">
        <ele>1586.443832</ele>
      </trkpt>
      <trkpt lat="40.895121" lon="-3.978242">
        <ele>1585.484611</ele>
      </trkpt>
      <trkpt lat="40.89513" lon="-3.978252"/>
      <trkpt lat="40.895166" lon="-3.978291">
        <ele>1584.400003</ele>
      </trkpt>
      <trkpt lat="40.895205" lon="-3.978317">
        <ele>1583.587303</ele>
      </trkpt>
      <trkpt lat="40.895216" lon="-3.978322">
        <ele>1583.370857</ele>
      </trkpt>
      <trkpt lat="40.895241" lon="-3.978348">
        <ele>1582.779082</ele>
      </trkpt>
      <trkpt lat="40.895265" lon="-3.978382">
        <ele>1582.124706</ele>
      </trkpt>
      <trkpt lat="40.895295" lon="-3.978432">
        <ele>1581.226736</ele>
      </trkpt>
      <trkpt lat="40.895319" lon="-3.97849"/>
      <trkpt lat="40.895325" lon="-3.978505">
        <ele>1580.057901</ele>
      </trkpt>
      <trkpt lat="40.895354" lon="-3.978571">
        <ele>1578.984044</ele>
      </trkpt>
      <trkpt lat="40.895369" lon="-3.978612">
        <ele>1578.343310</ele>
      </trkpt>
      <trkpt lat="40.89538" lon="-3.97866"/>
      <trkpt lat="40.895404" lon="-3.97874"/>
      <trkpt lat="40.895418" lon="-3.978772">
        <ele>1575.906947</ele>
      </trkpt>
      <trkpt lat="40.895447" lon="-3.978851">
        <ele>1574.671570</ele>
      </trkpt>
      <trkpt lat="40.895482" lon="-3.97894"/>
      <trkpt lat="40.895494" lon="-3.978967">
        <ele>1572.819760</ele>
      </trkpt>
      <trkpt lat="40.8955" lon="-3.978981"/>
      <trkpt lat="40.895506" lon="-3.978996">
        <ele>1572.354656</ele>
      </trkpt>
      <trkpt lat="40.895529" lon="-3.979076">
        <ele>1571.150675</ele>
      </trkpt>
      <trkpt lat="40.895566" lon="-3.979163">
        <ele>1569.746479</ele>
      </trkpt>
      <trkpt lat="40.895571" lon="-3.979177">
        <ele>1569.528671</ele>
      </trkpt>
      <trkpt lat="40.8956" lon="-3.979249"/>
      <trkpt lat="40.895612" lon="-3.979292">
        <ele>1567.736294</ele>
      </trkpt>
      <trkpt lat="40.895627" lon="-3.979318">
        <ele>1567.276210</ele>
      </trkpt>
      <trkpt lat="40.895633" lon="-3.979332">
        <ele>1567.049826</ele>
      </trkpt>
      <trkpt lat="40.895652" lon="-3.979374">
        <ele>1566.361308</ele>
      </trkpt>
      <trkpt lat="40.895664" lon="-3.979403">
        <ele>1565.896254</ele>
      </trkpt>
      <trkpt lat="40.895693" lon="-3.979474">
        <ele>1564.761044</ele>
      </trkpt>
      <trkpt lat="40.895697" lon="-3.979489">
        <ele>1564.537300</ele>
      </trkpt>
      <trkpt lat="40.895731" lon="-3.979562">
        <ele>1563.331161</ele>
      </trkpt>
      <trkpt lat="40.895737" lon="-3.979579">
        <ele>1563.067246</ele>
      </trkpt>
      <trkpt lat="40.89577" lon="-3.979658"/>
      <trkpt lat="40.89579" lon="-3.979722"/>
      <trkpt lat="40.895799" lon="-3.979754">
        <ele>1560.343148</ele>
      </trkpt>
      <trkpt lat="40.89581" lon="-3.979784"/>
      <trkpt lat="40.895824" lon="-3.979814">
        <ele>1559.378182</ele>
      </trkpt>
      <trkpt lat="40.89583" lon="-3.97983"/>
      <trkpt lat="40.895877" lon="-3.97992"/>
      <trkpt lat="40.895938" lon="-3.979995">
        <ele>1556.038500</ele>
      </trkpt>
      <trkpt lat="40.89597" lon="-3.980025"/>
      <trkpt lat="40.896002" lon="-3.980076">
        <ele>1554.487275</ele>
      </trkpt>
      <trkpt lat="40.896024" lon="-3.980117">
        <ele>1553.888583</ele>
      </trkpt>
      <trkpt lat="40.896032" lon="-3.980132">
        <ele>1553.669994</ele>
      </trkpt>
      <trkpt lat="40.896071" lon="-3.980205">
        <ele>1552.605586</ele>
      </trkpt>
      <trkpt lat="40.896078" lon="-3.98022"/>
      <trkpt lat="40.896111" lon="-3.980297">
        <ele>1551.341721</ele>
      </trkpt>
      <trkpt lat="40.896116" lon="-3.98031"/>
      <trkpt lat="40.89614" lon="-3.980361"/>
      <trkpt lat="40.896146" lon="-3.980375">
        <ele>1550.261083</ele>
      </trkpt>
      <trkpt lat="40.89615" lon="-3.980391"/>
      <trkpt lat="40.896186" lon="-3.980474">
        <ele>1548.920986</ele>
      </trkpt>
      <trkpt lat="40.896196" lon="-3.980503">
        <ele>1548.541446</ele>
      </trkpt>
      <trkpt lat="40.896206" lon="-3.980533">
        <ele>1548.151042</ele>
      </trkpt>
      <trkpt lat="40.89622" lon="-3.980561"/>
      <trkpt lat="40.896237" lon="-3.980605">
        <ele>1547.162919</ele>
      </trkpt>
      <trkpt lat="40.896246" lon="-3.980619">
        <ele>1546.944086</ele>
      </trkpt>
      <trkpt lat="40.896258" lon="-3.980687">
        <ele>1546.112628</ele>
      </trkpt>
      <trkpt lat="40.896268" lon="-3.980721">
        <ele>1545.678220</ele>
      </trkpt>
      <trkpt lat="40.896281" lon="-3.980754">
        <ele>1545.235125</ele>
      </trkpt>
      <trkpt lat="40.896296" lon="-3.980785">
        <ele>1544.796855</ele>
      </trkpt>
      <trkpt lat="40.896305" lon="-3.980799">
        <ele>1544.578022</ele>
      </trkpt>
      <trkpt lat="40.896331" lon="-3.98088"/>
      <trkpt lat="40.896342" lon="-3.980908">
        <ele>1543.154449</ele>
      </trkpt>
      <trkpt lat="40.896358" lon="-3.980965">
        <ele>1542.430458</ele>
      </trkpt>
      <trkpt lat="40.896371" lon="-3.98099"/>
      <trkpt lat="40.896383" lon="-3.981036">
        <ele>1541.489717</ele>
      </trkpt>
      <trkpt lat="40.896384" lon="-3.981052">
        <ele>1541.298553</ele>
      </trkpt>
      <trkpt lat="40.896395" lon="-3.981112">
        <ele>1540.563414</ele>
      </trkpt>
      <trkpt lat="40.896424" lon="-3.981185">
        <ele>1539.581465</ele>
      </trkpt>
      <trkpt lat="40.896484" lon="-3.981455">
        <ele>1536.230499</ele>
      </trkpt>
      <trkpt lat="40.896487" lon="-3.981455">
        <ele>1536.183242</ele>
      </trkpt>
      <trkpt lat="40.896507" lon="-3.981434">
        <ele>1535.781025</ele>
      </trkpt>
      <trkpt lat="40.896515" lon="-3.981419">
        <ele>1535.562437</ele>
      </trkpt>
      <trkpt lat="40.896549" lon="-3.981377">
        <ele>1534.829673</ele>
      </trkpt>
      <trkpt lat="40.896575" lon="-3.981353">
        <ele>1534.330269</ele>
      </trkpt>
      <trkpt lat="40.896586" lon="-3.981339">
        <ele>1534.089825</ele>
      </trkpt>
      <trkpt lat="40.896649" lon="-3.981238">
        <ele>1532.530617</ele>
      </trkpt>
      <trkpt lat="40.896664" lon="-3.981206">
        <ele>1532.082274</ele>
      </trkpt>
      <trkpt lat="40.896697" lon="-3.981146">
        <ele>1531.198747</ele>
      </trkpt>
      <trkpt lat="40.896718" lon="-3.9811"/>
      <trkpt lat="40.896734" lon="-3.981069">
        <ele>1530.111922</ele>
      </trkpt>
      <trkpt lat="40.896768" lon="-3.980992">
        <ele>1529.050110</ele>
      </trkpt>
      <trkpt lat="40.896802" lon="-3.980915">
        <ele>1527.988298</ele>
      </trkpt>
      <trkpt lat="40.89681" lon="-3.980883"/>
      <trkpt lat="40.896828" lon="-3.980841">
        <ele>1527.012090</ele>
      </trkpt>
      <trkpt lat="40.896833" lon="-3.980811">
        <ele>1526.650376</ele>
      </trkpt>
      <trkpt lat="40.896842" lon="-3.980778">
        <ele>1526.246833</ele>
      </trkpt>
      <trkpt lat="40.896874" lon="-3.980681">
        <ele>1525.029430</ele>
      </trkpt>
      <trkpt lat="40.896885" lon="-3.980646">
        <ele>1524.593420</ele>
      </trkpt>
      <trkpt lat="40.896916" lon="-3.980564">
        <ele>1523.538803</ele>
      </trkpt>
      <trkpt lat="40.896923" lon="-3.980548">
        <ele>1523.326155</ele>
      </trkpt>
      <trkpt lat="40.89696" lon="-3.980474"/>
      <trkpt lat="40.896968" lon="-3.98046"/>
      <trkpt lat="40.897044" lon="-3.980393">
        <ele>1520.713913</ele>
      </trkpt>
      <trkpt lat="40.897055" lon="-3.980384">
        <ele>1520.517095</ele>
      </trkpt>
      <trkpt lat="40.897142" lon="-3.980356">
        <ele>1519.154557</ele>
      </trkpt>
      <trkpt lat="40.897155" lon="-3.980352">
        <ele>1518.951449</ele>
      </trkpt>
      <trkpt lat="40.897195" lon="-3.980342">
        <ele>1518.331974</ele>
      </trkpt>
      <trkpt lat="40.897235" lon="-3.98032"/>
      <trkpt lat="40.897248" lon="-3.980317">
        <ele>1517.471951</ele>
      </trkpt>
      <trkpt lat="40.897329" lon="-3.980307">
        <ele>1516.233976</ele>
      </trkpt>
      <trkpt lat="40.897343" lon="-3.980302">
        <ele>1516.013304</ele>
      </trkpt>
      <trkpt lat="40.897419" lon="-3.980277">
        <ele>1514.821557</ele>
      </trkpt>
      <trkpt lat="40.89743" lon="-3.980266"/>
      <trkpt lat="40.897479" lon="-3.980225">
        <ele>1513.729441</ele>
      </trkpt>
      <trkpt lat="40.897558" lon="-3.980091">
        <ele>1511.774697</ele>
      </trkpt>
      <trkpt lat="40.897565" lon="-3.980075">
        <ele>1511.562050</ele>
      </trkpt>
      <trkpt lat="40.897572" lon="-3.980058">
        <ele>1511.339374</ele>
      </trkpt>
      <trkpt lat="40.897574" lon="-3.980014">
        <ele>1510.832343</ele>
      </trkpt>
      <trkpt lat="40.897575" lon="-3.979992">
        <ele>1510.578828</ele>
      </trkpt>
      <trkpt lat="40.897589" lon="-3.979972">
        <ele>1510.265280</ele>
      </trkpt>
      <trkpt lat="40.897604" lon="-3.979951">
        <ele>1509.932935</ele>
      </trkpt>
      <trkpt lat="40.897629" lon="-3.979942">
        <ele>1509.538663</ele>
      </trkpt>
      <trkpt lat="40.897642" lon="-3.97994"/>
      <trkpt lat="40.897695" lon="-3.979952">
        <ele>1508.521247</ele>
      </trkpt>
      <trkpt lat="40.897708" lon="-3.979963">
        <ele>1508.286416</ele>
      </trkpt>
      <trkpt lat="40.897726" lon="-3.979994">
        <ele>1507.836772</ele>
      </trkpt>
      <trkpt lat="40.897764" lon="-3.980051">
        <ele>1506.962549</ele>
      </trkpt>
      <trkpt lat="40.89778" lon="-3.98008"/>
      <trkpt lat="40.897785" lon="-3.980134">
        <ele>1505.923782</ele>
      </trkpt>
      <trkpt lat="40.8978" lon="-3.980205"/>
      <trkpt lat="40.897794" lon="-3.980237">
        <ele>1504.696558</ele>
      </trkpt>
      <trkpt lat="40.897789" lon="-3.980286">
        <ele>1504.127818</ele>
      </trkpt>
      <trkpt lat="40.897788" lon="-3.980318">
        <ele>1503.759420</ele>
      </trkpt>
      <trkpt lat="40.897795" lon="-3.980341">
        <ele>1503.474220</ele>
      </trkpt>
      <trkpt lat="40.897802" lon="-3.980398">
        <ele>1502.809975</ele>
      </trkpt>
      <trkpt lat="40.897802" lon="-3.980412">
        <ele>1502.648939</ele>
      </trkpt>
      <trkpt lat="40.897814" lon="-3.980445">
        <ele>1502.227712</ele>
      </trkpt>
      <trkpt lat="40.89782" lon="-3.980469"/>
      <trkpt lat="40.897821" lon="-3.980527">
        <ele>1501.269618</ele>
      </trkpt>
      <trkpt lat="40.897817" lon="-3.980576">
        <ele>1500.702713</ele>
      </trkpt>
      <trkpt lat="40.897817" lon="-3.980593">
        <ele>1500.507169</ele>
      </trkpt>
      <trkpt lat="40.897822" lon="-3.980663">
        <ele>1499.698400</ele>
      </trkpt>
      <trkpt lat="40.897824" lon="-3.980681">
        <ele>1499.489128</ele>
      </trkpt>
      <trkpt lat="40.897833" lon="-3.980736">
        <ele>1498.695676</ele>
      </trkpt>
      <trkpt lat="40.897835" lon="-3.980806">
        <ele>1497.677209</ele>
      </trkpt>
      <trkpt lat="40.897843" lon="-3.980861">
        <ele>1496.862886</ele>
      </trkpt>
      <trkpt lat="40.897842" lon="-3.980909">
        <ele>1496.164742</ele>
      </trkpt>
      <trkpt lat="40.897848" lon="-3.980938">
        <ele>1495.727598</ele>
      </trkpt>
      <trkpt lat="40.897851" lon="-3.980953">
        <ele>1495.502006</ele>
      </trkpt>
      <trkpt lat="40.897847" lon="-3.981031">
        <ele>1494.365346</ele>
      </trkpt>
      <trkpt lat="40.897848" lon="-3.981045">
        <ele>1494.160892</ele>
      </trkpt>
      <trkpt lat="40.897852" lon="-3.981056">
        <ele>1493.983417</ele>
      </trkpt>
      <trkpt lat="40.897868" lon="-3.981094">
        <ele>1493.350996</ele>
      </trkpt>
      <trkpt lat="40.897869" lon="-3.981108">
        <ele>1493.146541</ele>
      </trkpt>
      <trkpt lat="40.897872" lon="-3.981201">
        <ele>1491.793171</ele>
      </trkpt>
      <trkpt lat="40.897876" lon="-3.981254">
        <ele>1491.018766</ele>
      </trkpt>
      <trkpt lat="40.897882" lon="-3.981283">
        <ele>1490.581622</ele>
      </trkpt>
      <trkpt lat="40.897882" lon="-3.98131"/>
      <trkpt lat="40.897888" lon="-3.981322">
        <ele>1489.979879</ele>
      </trkpt>
      <trkpt lat="40.897907" lon="-3.981336">
        <ele>1489.561558</ele>
      </trkpt>
      <trkpt lat="40.897919" lon="-3.981343">
        <ele>1489.309299</ele>
      </trkpt>
      <trkpt lat="40.897928" lon="-3.981352">
        <ele>1489.092296</ele>
      </trkpt>
      <trkpt lat="40.897935" lon="-3.981381">
        <ele>1488.649685</ele>
      </trkpt>
      <trkpt lat="40.897934" lon="-3.981396">
        <ele>1488.430752</ele>
      </trkpt>
      <trkpt lat="40.897933" lon="-3.98141"/>
      <trkpt lat="40.897939" lon="-3.981459">
        <ele>1487.504593</ele>
      </trkpt>
      <trkpt lat="40.897945" lon="-3.981474">
        <ele>1487.257852</ele>
      </trkpt>
      <trkpt lat="40.897948" lon="-3.981489">
        <ele>1487.032261</ele>
      </trkpt>
      <trkpt lat="40.897944" lon="-3.981536">
        <ele>1486.344605</ele>
      </trkpt>
      <trkpt lat="40.897948" lon="-3.981594">
        <ele>1485.497833</ele>
      </trkpt>
      <trkpt lat="40.897949" lon="-3.981609">
        <ele>1485.278900</ele>
      </trkpt>
      <trkpt lat="40.897944" lon="-3.981655">
        <ele>1484.603221</ele>
      </trkpt>
      <trkpt lat="40.897943" lon="-3.98167"/>
      <trkpt lat="40.897952" lon="-3.981695">
        <ele>1483.981691</ele>
      </trkpt>
      <trkpt lat="40.89797" lon="-3.981733"/>
      <trkpt lat="40.897966" lon="-3.981799">
        <ele>1482.367023</ele>
      </trkpt>
      <trkpt lat="40.89797" lon="-3.981861"/>
      <trkpt lat="40.89797" lon="-3.981905"/>
      <trkpt lat="40.897967" lon="-3.981921">
        <ele>1480.582924</ele>
      </trkpt>
      <trkpt lat="40.89797" lon="-3.981983"/>
      <trkpt lat="40.897973" lon="-3.982026">
        <ele>1479.051815</ele>
      </trkpt>
      <trkpt lat="40.897971" lon="-3.982042">
        <ele>1478.816030</ele>
      </trkpt>
      <trkpt lat="40.897968" lon="-3.982057">
        <ele>1478.590438</ele>
      </trkpt>
      <trkpt lat="40.897968" lon="-3.982104">
        <ele>1477.907100</ele>
      </trkpt>
      <trkpt lat="40.897966" lon="-3.982135">
        <ele>1477.454749</ele>
      </trkpt>
      <trkpt lat="40.897968" lon="-3.982166">
        <ele>1477.002398</ele>
      </trkpt>
      <trkpt lat="40.897974" lon="-3.982197">
        <ele>1476.537144</ele>
      </trkpt>
      <trkpt lat="40.89797" lon="-3.982243"/>
      <trkpt lat="40.897967" lon="-3.982258">
        <ele>1475.638343</ele>
      </trkpt>
      <trkpt lat="40.897976" lon="-3.982322">
        <ele>1474.691874</ele>
      </trkpt>
      <trkpt lat="40.897982" lon="-3.982338">
        <ele>1474.432193</ele>
      </trkpt>
      <trkpt lat="40.897995" lon="-3.982387">
        <ele>1473.677168</ele>
      </trkpt>
      <trkpt lat="40.897993" lon="-3.982405">
        <ele>1473.412652</ele>
      </trkpt>
      <trkpt lat="40.897985" lon="-3.982421">
        <ele>1473.133738</ele>
      </trkpt>
      <trkpt lat="40.897967" lon="-3.982467">
        <ele>1472.380635</ele>
      </trkpt>
      <trkpt lat="40.897973" lon="-3.982483">
        <ele>1472.120954</ele>
      </trkpt>
      <trkpt lat="40.897993" lon="-3.982509">
        <ele>1471.581615</ele>
      </trkpt>
      <trkpt lat="40.897998" lon="-3.982526">
        <ele>1471.316398</ele>
      </trkpt>
      <trkpt lat="40.897988" lon="-3.98256"/>
      <trkpt lat="40.897975" lon="-3.982592">
        <ele>1470.257775</ele>
      </trkpt>
      <trkpt lat="40.897979" lon="-3.982609">
        <ele>1469.998912</ele>
      </trkpt>
      <trkpt lat="40.897996" lon="-3.982641">
        <ele>1469.430245</ele>
      </trkpt>
      <trkpt lat="40.897992" lon="-3.982718">
        <ele>1468.308093</ele>
      </trkpt>
      <trkpt lat="40.897989" lon="-3.982738">
        <ele>1468.011641</ele>
      </trkpt>
      <trkpt lat="40.898011" lon="-3.982823">
        <ele>1466.705376</ele>
      </trkpt>
      <trkpt lat="40.898007" lon="-3.982852">
        <ele>1466.276779</ele>
      </trkpt>
      <trkpt lat="40.898" lon="-3.982896"/>
      <trkpt lat="40.897983" lon="-3.982975">
        <ele>1464.519577</ele>
      </trkpt>
      <trkpt lat="40.897959" lon="-3.983051">
        <ele>1463.615664</ele>
      </trkpt>
      <trkpt lat="40.897952" lon="-3.983067">
        <ele>1463.412783</ele>
      </trkpt>
      <trkpt lat="40.897931" lon="-3.983114">
        <ele>1462.813613</ele>
      </trkpt>
      <trkpt lat="40.897884" lon="-3.983186">
        <ele>1461.769589</ele>
      </trkpt>
      <trkpt lat="40.897849" lon="-3.983248">
        <ele>1460.920365</ele>
      </trkpt>
      <trkpt lat="40.897846" lon="-3.983265">
        <ele>1460.728783</ele>
      </trkpt>
      <trkpt lat="40.897846" lon="-3.9833"/>
      <trkpt lat="40.897836" lon="-3.983396">
        <ele>1459.281182</ele>
      </trkpt>
      <trkpt lat="40.89783" lon="-3.983414"/>
      <trkpt lat="40.897808" lon="-3.983507">
        <ele>1457.995856</ele>
      </trkpt>
      <trkpt lat="40.897789" lon="-3.98354"/>
      <trkpt lat="40.897772" lon="-3.983577">
        <ele>1457.065424</ele>
      </trkpt>
      <trkpt lat="40.897734" lon="-3.983645">
        <ele>1456.137368</ele>
      </trkpt>
      <trkpt lat="40.897713" lon="-3.983681">
        <ele>1455.638323</ele>
      </trkpt>
      <trkpt lat="40.89767" lon="-3.98376"/>
      <trkpt lat="40.897637" lon="-3.983816">
        <ele>1453.790695</ele>
      </trkpt>
      <trkpt lat="40.897625" lon="-3.983833">
        <ele>1453.535429</ele>
      </trkpt>
      <trkpt lat="40.897609" lon="-3.983841">
        <ele>1453.287093</ele>
      </trkpt>
      <trkpt lat="40.897567" lon="-3.983878">
        <ele>1452.554482</ele>
      </trkpt>
      <trkpt lat="40.897526" lon="-3.983923">
        <ele>1451.781028</ele>
      </trkpt>
      <trkpt lat="40.897497" lon="-3.983958">
        <ele>1451.211103</ele>
      </trkpt>
      <trkpt lat="40.897453" lon="-3.984009">
        <ele>1450.361777</ele>
      </trkpt>
      <trkpt lat="40.897377" lon="-3.984083">
        <ele>1448.991717</ele>
      </trkpt>
      <trkpt lat="40.897362" lon="-3.984096">
        <ele>1448.731366</ele>
      </trkpt>
      <trkpt lat="40.897319" lon="-3.984213">
        <ele>1447.303625</ele>
      </trkpt>
      <trkpt lat="40.897317" lon="-3.98424"/>
      <trkpt lat="40.897387" lon="-3.984334">
        <ele>1445.557763</ele>
      </trkpt>
      <trkpt lat="40.897425" lon="-3.984337">
        <ele>1445.005071</ele>
      </trkpt>
      <trkpt lat="40.897512" lon="-3.984312">
        <ele>1443.712489</ele>
      </trkpt>
      <trkpt lat="40.897546" lon="-3.984303">
        <ele>1443.209068</ele>
      </trkpt>
      <trkpt lat="40.897627" lon="-3.984273">
        <ele>1441.987836</ele>
      </trkpt>
      <trkpt lat="40.897658" lon="-3.984262">
        <ele>1441.521847</ele>
      </trkpt>
      <trkpt lat="40.89769" lon="-3.984257"/>
      <trkpt lat="40.897792" lon="-3.984239">
        <ele>1439.559993</ele>
      </trkpt>
      <trkpt lat="40.8979" lon="-3.984182"/>
      <trkpt lat="40.897933" lon="-3.984177">
        <ele>1437.374739</ele>
      </trkpt>
      <trkpt lat="40.897964" lon="-3.984173">
        <ele>1436.917352</ele>
      </trkpt>
      <trkpt lat="40.897994" lon="-3.984165">
        <ele>1436.467950</ele>
      </trkpt>
      <trkpt lat="40.898035" lon="-3.984161">
        <ele>1435.864241</ele>
      </trkpt>
      <trkpt lat="40.898055" lon="-3.984137">
        <ele>1435.467727</ele>
      </trkpt>
      <trkpt lat="40.898067" lon="-3.984125">
        <ele>1435.246833</ele>
      </trkpt>
      <trkpt lat="40.898107" lon="-3.984104">
        <ele>1434.614884</ele>
      </trkpt>
      <trkpt lat="40.898118" lon="-3.98409"/>
      <trkpt lat="40.898127" lon="-3.984073">
        <ele>1434.160362</ele>
      </trkpt>
      <trkpt lat="40.898151" lon="-3.984044">
        <ele>1433.683051</ele>
      </trkpt>
      <trkpt lat="40.898192" lon="-3.98401"/>
      <trkpt lat="40.898203" lon="-3.983994">
        <ele>1432.732405</ele>
      </trkpt>
      <trkpt lat="40.898223" lon="-3.983958">
        <ele>1432.236491</ele>
      </trkpt>
      <trkpt lat="40.898237" lon="-3.983948">
        <ele>1432.002854</ele>
      </trkpt>
      <trkpt lat="40.898252" lon="-3.983941">
        <ele>1431.769281</ele>
      </trkpt>
      <trkpt lat="40.898283" lon="-3.983931">
        <ele>1431.300717</ele>
      </trkpt>
      <trkpt lat="40.898333" lon="-3.983936">
        <ele>1430.564386</ele>
      </trkpt>
      <trkpt lat="40.898369" lon="-3.983975">
        <ele>1429.881110</ele>
      </trkpt>
      <trkpt lat="40.898377" lon="-3.983993">
        <ele>1429.649335</ele>
      </trkpt>
      <trkpt lat="40.898383" lon="-3.984057">
        <ele>1428.933506</ele>
      </trkpt>
      <trkpt lat="40.898377" lon="-3.984076">
        <ele>1428.704945</ele>
      </trkpt>
      <trkpt lat="40.898369" lon="-3.984095">
        <ele>1428.463537</ele>
      </trkpt>
      <trkpt lat="40.898363" lon="-3.984133">
        <ele>1428.032641</ele>
      </trkpt>
      <trkpt lat="40.898364" lon="-3.984193">
        <ele>1427.366492</ele>
      </trkpt>
      <trkpt lat="40.898364" lon="-3.984251">
        <ele>1426.722705</ele>
      </trkpt>
      <trkpt lat="40.898358" lon="-3.984331">
        <ele>1425.830362</ele>
      </trkpt>
      <trkpt lat="40.898356" lon="-3.98435"/>
      <trkpt lat="40.898342" lon="-3.984444">
        <ele>1424.553990</ele>
      </trkpt>
      <trkpt lat="40.898341" lon="-3.984481">
        <ele>1424.143036</ele>
      </trkpt>
      <trkpt lat="40.898332" lon="-3.984532">
        <ele>1423.561724</ele>
      </trkpt>
      <trkpt lat="40.898321" lon="-3.984602">
        <ele>1422.768125</ele>
      </trkpt>
      <trkpt lat="40.898315" lon="-3.984622">
        <ele>1422.529284</ele>
      </trkpt>
      <trkpt lat="40.898288" lon="-3.984689">
        <ele>1421.686508</ele>
      </trkpt>
      <trkpt lat="40.898281" lon="-3.984727">
        <ele>1421.252371</ele>
      </trkpt>
      <trkpt lat="40.898278" lon="-3.984746">
        <ele>1421.036923</ele>
      </trkpt>
      <trkpt lat="40.898273" lon="-3.984762">
        <ele>1420.844747</ele>
      </trkpt>
      <trkpt lat="40.898245" lon="-3.984805">
        <ele>1420.214771</ele>
      </trkpt>
      <trkpt lat="40.898237" lon="-3.984818">
        <ele>1420.028699</ele>
      </trkpt>
      <trkpt lat="40.898218" lon="-3.984848">
        <ele>1419.594266</ele>
      </trkpt>
      <trkpt lat="40.898188" lon="-3.984912">
        <ele>1418.758367</ele>
      </trkpt>
      <trkpt lat="40.898172" lon="-3.984981">
        <ele>1417.957251</ele>
      </trkpt>
      <trkpt lat="40.898156" lon="-3.985012">
        <ele>1417.540591</ele>
      </trkpt>
      <trkpt lat="40.898138" lon="-3.985046">
        <ele>1417.079838</ele>
      </trkpt>
      <trkpt lat="40.898086" lon="-3.985122">
        <ele>1415.941975</ele>
      </trkpt>
      <trkpt lat="40.898074" lon="-3.985138">
        <ele>1415.691789</ele>
      </trkpt>
      <trkpt lat="40.898027" lon="-3.985247">
        <ele>1414.298890</ele>
      </trkpt>
      <trkpt lat="40.898022" lon="-3.985267">
        <ele>1414.065066</ele>
      </trkpt>
      <trkpt lat="40.898017" lon="-3.985289">
        <ele>1413.810071</ele>
      </trkpt>
      <trkpt lat="40.898038" lon="-3.985351">
        <ele>1413.055946</ele>
      </trkpt>
      <trkpt lat="40.898122" lon="-3.985378">
        <ele>1412.044132</ele>
      </trkpt>
      <trkpt lat="40.89814" lon="-3.985374"/>
      <trkpt lat="40.898212" lon="-3.985368">
        <ele>1411.420465</ele>
      </trkpt>
      <trkpt lat="40.898267" lon="-3.98534"/>
      <trkpt lat="40.898285" lon="-3.985328">
        <ele>1410.874810</ele>
      </trkpt>
      <trkpt lat="40.898355" lon="-3.985294">
        <ele>1410.360334</ele>
      </trkpt>
      <trkpt lat="40.898371" lon="-3.985282">
        <ele>1410.233440</ele>
      </trkpt>
      <trkpt lat="40.898402" lon="-3.985257">
        <ele>1409.982955</ele>
      </trkpt>
      <trkpt lat="40.898473" lon="-3.985224">
        <ele>1409.463750</ele>
      </trkpt>
      <trkpt lat="40.898491" lon="-3.985221">
        <ele>1409.338580</ele>
      </trkpt>
      <trkpt lat="40.898508" lon="-3.985225">
        <ele>1409.219450</ele>
      </trkpt>
      <trkpt lat="40.898547" lon="-3.985293">
        <ele>1408.774301</ele>
      </trkpt>
      <trkpt lat="40.898527" lon="-3.985414">
        <ele>1408.128372</ele>
      </trkpt>
      <trkpt lat="40.89839" lon="-3.985583"/>
      <trkpt lat="40.898329" lon="-3.985647">
        <ele>1406.298874</ele>
      </trkpt>
      <trkpt lat="40.898275" lon="-3.985696">
        <ele>1405.847095</ele>
      </trkpt>
      <trkpt lat="40.898162" lon="-3.985786">
        <ele>1404.937089</ele>
      </trkpt>
      <trkpt lat="40.89807" lon="-3.985832"/>
      <trkpt lat="40.89802" lon="-3.98585"/>
      <trkpt lat="40.897741" lon="-3.985876">
        <ele>1401.971325</ele>
      </trkpt>
      <trkpt lat="40.897339" lon="-3.985888">
        <ele>1399.351479</ele>
      </trkpt>
      <trkpt lat="40.897117" lon="-3.985825">
        <ele>1398.148236</ele>
      </trkpt>
      <trkpt lat="40.897053" lon="-3.985796">
        <ele>1397.789728</ele>
      </trkpt>
      <trkpt lat="40.896947" lon="-3.985754">
        <ele>1397.203331</ele>
      </trkpt>
      <trkpt lat="40.896922" lon="-3.985748">
        <ele>1397.068682</ele>
      </trkpt>
      <trkpt lat="40.896833" lon="-3.985754">
        <ele>1396.596418</ele>
      </trkpt>
      <trkpt lat="40.896776" lon="-3.98578"/>
      <trkpt lat="40.896706" lon="-3.985823">
        <ele>1395.867895</ele>
      </trkpt>
      <trkpt lat="40.896637" lon="-3.985872">
        <ele>1395.452880</ele>
      </trkpt>
      <trkpt lat="40.89662" lon="-3.985887"/>
      <trkpt lat="40.896549" lon="-3.985949">
        <ele>1394.893750</ele>
      </trkpt>
      <trkpt lat="40.896513" lon="-3.985982">
        <ele>1394.661646</ele>
      </trkpt>
      <trkpt lat="40.896431" lon="-3.986076">
        <ele>1394.086644</ele>
      </trkpt>
      <trkpt lat="40.8964" lon="-3.986123"/>
      <trkpt lat="40.896312" lon="-3.986217">
        <ele>1393.237378</ele>
      </trkpt>
      <trkpt lat="40.896231" lon="-3.986279">
        <ele>1392.741449</ele>
      </trkpt>
      <trkpt lat="40.896146" lon="-3.986328">
        <ele>1392.250086</ele>
      </trkpt>
      <trkpt lat="40.89606" lon="-3.986374"/>
      <trkpt lat="40.895992" lon="-3.986402">
        <ele>1391.381075</ele>
      </trkpt>
      <trkpt lat="40.895896" lon="-3.986436">
        <ele>1390.854411</ele>
      </trkpt>
      <trkpt lat="40.895777" lon="-3.986454">
        <ele>1390.212292</ele>
      </trkpt>
      <trkpt lat="40.895732" lon="-3.98646"/>
      <trkpt lat="40.895566" lon="-3.986467">
        <ele>1389.018337</ele>
      </trkpt>
      <trkpt lat="40.895448" lon="-3.986462">
        <ele>1388.351272</ele>
      </trkpt>
      <trkpt lat="40.895238" lon="-3.986443">
        <ele>1387.161960</ele>
      </trkpt>
      <trkpt lat="40.895039" lon="-3.986407">
        <ele>1386.027107</ele>
      </trkpt>
      <trkpt lat="40.894975" lon="-3.986391">
        <ele>1385.659094</ele>
      </trkpt>
      <trkpt lat="40.894781" lon="-3.986389">
        <ele>1384.562923</ele>
      </trkpt>
      <trkpt lat="40.894732" lon="-3.986398">
        <ele>1384.283408</ele>
      </trkpt>
      <trkpt lat="40.894567" lon="-3.986413">
        <ele>1383.348927</ele>
      </trkpt>
      <trkpt lat="40.894368" lon="-3.986453">
        <ele>1382.211633</ele>
      </trkpt>
      <trkpt lat="40.894345" lon="-3.98646"/>
      <trkpt lat="40.894235" lon="-3.986494">
        <ele>1381.440023</ele>
      </trkpt>
      <trkpt lat="40.894197" lon="-3.986508">
        <ele>1381.217145</ele>
      </trkpt>
      <trkpt lat="40.894126" lon="-3.986536">
        <ele>1380.798535</ele>
      </trkpt>
      <trkpt lat="40.894032" lon="-3.986563">
        <ele>1380.255041</ele>
      </trkpt>
      <trkpt lat="40.894013" lon="-3.986569">
        <ele>1380.120217</ele>
      </trkpt>
      <trkpt lat="40.893924" lon="-3.986595">
        <ele>1379.074375</ele>
      </trkpt>
      <trkpt lat="40.893905" lon="-3.986598">
        <ele>1378.854811</ele>
      </trkpt>
      <trkpt lat="40.893853" lon="-3.986624">
        <ele>1378.216936</ele>
      </trkpt>
      <trkpt lat="40.893833" lon="-3.986626">
        <ele>1377.986790</ele>
      </trkpt>
      <trkpt lat="40.8938" lon="-3.986642"/>
      <trkpt lat="40.893749" lon="-3.986676">
        <ele>1376.928183</ele>
      </trkpt>
      <trkpt lat="40.893697" lon="-3.9867"/>
      <trkpt lat="40.893678" lon="-3.986707">
        <ele>1376.069919</ele>
      </trkpt>
      <trkpt lat="40.893639" lon="-3.986725">
        <ele>1375.595956</ele>
      </trkpt>
      <trkpt lat="40.893573" lon="-3.986757">
        <ele>1374.789371</ele>
      </trkpt>
      <trkpt lat="40.893532" lon="-3.986788">
        <ele>1374.247491</ele>
      </trkpt>
      <trkpt lat="40.893434" lon="-3.986864">
        <ele>1372.943999</ele>
      </trkpt>
      <trkpt lat="40.893417" lon="-3.986879">
        <ele>1372.709521</ele>
      </trkpt>
      <trkpt lat="40.893321" lon="-3.986966">
        <ele>1371.374266</ele>
      </trkpt>
      <trkpt lat="40.893295" lon="-3.987001">
        <ele>1370.948622</ele>
      </trkpt>
      <trkpt lat="40.893218" lon="-3.987089">
        <ele>1369.781022</ele>
      </trkpt>
      <trkpt lat="40.893175" lon="-3.987143">
        <ele>1369.100695</ele>
      </trkpt>
      <trkpt lat="40.893143" lon="-3.987172">
        <ele>1368.655610</ele>
      </trkpt>
      <trkpt lat="40.893094" lon="-3.987157"/>
      <trkpt lat="40.893062" lon="-3.987228">
        <ele>1367.606891</ele>
      </trkpt>
      <trkpt lat="40.893047" lon="-3.987237">
        <ele>1367.417896</ele>
      </trkpt>
      <trkpt lat="40.893022" lon="-3.987266">
        <ele>1367.036364</ele>
      </trkpt>
      <trkpt lat="40.892985" lon="-3.987314">
        <ele>1366.441721</ele>
      </trkpt>
      <trkpt lat="40.892971" lon="-3.987349">
        <ele>1366.098247</ele>
      </trkpt>
      <trkpt lat="40.892938" lon="-3.987399">
        <ele>1365.522504</ele>
      </trkpt>
      <trkpt lat="40.892914" lon="-3.987458">
        <ele>1364.941345</ele>
      </trkpt>
      <trkpt lat="40.892906" lon="-3.987476">
        <ele>1364.760226</ele>
      </trkpt>
      <trkpt lat="40.892896" lon="-3.987494">
        <ele>1364.566463</ele>
      </trkpt>
      <trkpt lat="40.892853" lon="-3.98755"/>
      <trkpt lat="40.892851" lon="-3.98757"/>
      <trkpt lat="40.89286" lon="-3.98765"/>
      <trkpt lat="40.892878" lon="-3.987678">
        <ele>1362.678698</ele>
      </trkpt>
      <trkpt lat="40.892917" lon="-3.987705">
        <ele>1362.173611</ele>
      </trkpt>
      <trkpt lat="40.892981" lon="-3.987708">
        <ele>1361.438777</ele>
      </trkpt>
      <trkpt lat="40.892995" lon="-3.987709">
        <ele>1361.277899</ele>
      </trkpt>
      <trkpt lat="40.893037" lon="-3.987691">
        <ele>1360.771307</ele>
      </trkpt>
      <trkpt lat="40.893084" lon="-3.98769"/>
      <trkpt lat="40.893101" lon="-3.987694">
        <ele>1360.033802</ele>
      </trkpt>
      <trkpt lat="40.89315" lon="-3.987706"/>
      <trkpt lat="40.893213" lon="-3.987705">
        <ele>1358.526938</ele>
      </trkpt>
      <trkpt lat="40.893227" lon="-3.987704">
        <ele>1358.322903</ele>
      </trkpt>
      <trkpt lat="40.893277" lon="-3.987698">
        <ele>1357.592279</ele>
      </trkpt>
      <trkpt lat="40.893352" lon="-3.987705">
        <ele>1356.498112</ele>
      </trkpt>
      <trkpt lat="40.89346" lon="-3.987679"/>
      <trkpt lat="40.893554" lon="-3.987655">
        <ele>1353.507403</ele>
      </trkpt>
      <trkpt lat="40.893571" lon="-3.987651">
        <ele>1353.256124</ele>
      </trkpt>
      <trkpt lat="40.893656" lon="-3.987643">
        <ele>1352.016015</ele>
      </trkpt>
      <trkpt lat="40.893685" lon="-3.987638">
        <ele>1351.590417</ele>
      </trkpt>
      <trkpt lat="40.893778" lon="-3.98767"/>
      <trkpt lat="40.893797" lon="-3.98767"/>
      <trkpt lat="40.893816" lon="-3.98767"/>
      <trkpt lat="40.893885" lon="-3.987663">
        <ele>1348.631891</ele>
      </trkpt>
      <trkpt lat="40.893901" lon="-3.987662">
        <ele>1348.398788</ele>
      </trkpt>
      <trkpt lat="40.893913" lon="-3.987663">
        <ele>1348.223809</ele>
      </trkpt>
      <trkpt lat="40.89395" lon="-3.987693"/>
      <trkpt lat="40.893991" lon="-3.98772"/>
      <trkpt lat="40.894033" lon="-3.987737">
        <ele>1346.286581</ele>
      </trkpt>
      <trkpt lat="40.894089" lon="-3.987746">
        <ele>1345.465637</ele>
      </trkpt>
      <trkpt lat="40.894103" lon="-3.987743">
        <ele>1345.259243</ele>
      </trkpt>
      <trkpt lat="40.894141" lon="-3.987766">
        <ele>1344.651107</ele>
      </trkpt>
      <trkpt lat="40.894195" lon="-3.987802">
        <ele>1343.771111</ele>
      </trkpt>
      <trkpt lat="40.894249" lon="-3.987812">
        <ele>1342.977602</ele>
      </trkpt>
      <trkpt lat="40.894284" lon="-3.987832">
        <ele>1342.422770</ele>
      </trkpt>
      <trkpt lat="40.894295" lon="-3.987844">
        <ele>1342.215281</ele>
      </trkpt>
      <trkpt lat="40.89435" lon="-3.987872"/>
      <trkpt lat="40.894377" lon="-3.987884">
        <ele>1340.943153</ele>
      </trkpt>
      <trkpt lat="40.894401" lon="-3.987908">
        <ele>1340.505328</ele>
      </trkpt>
      <trkpt lat="40.894442" lon="-3.98797"/>
      <trkpt lat="40.894475" lon="-3.988016">
        <ele>1338.901499</ele>
      </trkpt>
      <trkpt lat="40.894522" lon="-3.988079">
        <ele>1337.927779</ele>
      </trkpt>
      <trkpt lat="40.894555" lon="-3.988131">
        <ele>1337.180884</ele>
      </trkpt>
      <trkpt lat="40.894586" lon="-3.988172">
        <ele>1336.542960</ele>
      </trkpt>
      <trkpt lat="40.894618" lon="-3.98822"/>
      <trkpt lat="40.894627" lon="-3.988236">
        <ele>1335.619520</ele>
      </trkpt>
      <trkpt lat="40.894667" lon="-3.988294">
        <ele>1334.755842</ele>
      </trkpt>
      <trkpt lat="40.894675" lon="-3.988305">
        <ele>1334.587923</ele>
      </trkpt>
      <trkpt lat="40.8947" lon="-3.988346"/>
      <trkpt lat="40.894735" lon="-3.988367">
        <ele>1333.449167</ele>
      </trkpt>
      <trkpt lat="40.89476" lon="-3.98838"/>
      <trkpt lat="40.894834" lon="-3.988409">
        <ele>1331.620665</ele>
      </trkpt>
      <trkpt lat="40.894849" lon="-3.988418">
        <ele>1331.327878</ele>
      </trkpt>
      <trkpt lat="40.894891" lon="-3.988437">
        <ele>1330.538828</ele>
      </trkpt>
      <trkpt lat="40.894904" lon="-3.988451">
        <ele>1330.240845</ele>
      </trkpt>
      <trkpt lat="40.894915" lon="-3.988465">
        <ele>1329.969505</ele>
      </trkpt>
      <trkpt lat="40.894927" lon="-3.988475">
        <ele>1329.717395</ele>
      </trkpt>
      <trkpt lat="40.894956" lon="-3.988512">
        <ele>1329.001196</ele>
      </trkpt>
      <trkpt lat="40.894967" lon="-3.988521">
        <ele>1328.771281</ele>
      </trkpt>
      <trkpt lat="40.894978" lon="-3.988524">
        <ele>1328.571630</ele>
      </trkpt>
      <trkpt lat="40.895039" lon="-3.988551">
        <ele>1327.428192</ele>
      </trkpt>
      <trkpt lat="40.895056" lon="-3.98857"/>
      <trkpt lat="40.895094" lon="-3.988612">
        <ele>1326.152354</ele>
      </trkpt>
      <trkpt lat="40.895136" lon="-3.988645">
        <ele>1325.283995</ele>
      </trkpt>
      <trkpt lat="40.895152" lon="-3.988669">
        <ele>1324.853998</ele>
      </trkpt>
      <trkpt lat="40.895174" lon="-3.988701">
        <ele>1324.272762</ele>
      </trkpt>
      <trkpt lat="40.895214" lon="-3.988737">
        <ele>1323.412763</ele>
      </trkpt>
      <trkpt lat="40.89523" lon="-3.988761"/>
      <trkpt lat="40.895279" lon="-3.988799">
        <ele>1321.973096</ele>
      </trkpt>
      <trkpt lat="40.895288" lon="-3.988808">
        <ele>1321.772544</ele>
      </trkpt>
      <trkpt lat="40.895318" lon="-3.98886"/>
      <trkpt lat="40.895337" lon="-3.988884">
        <ele>1320.426565</ele>
      </trkpt>
      <trkpt lat="40.895334" lon="-3.988933">
        <ele>1319.765986</ele>
      </trkpt>
      <trkpt lat="40.89533" lon="-3.988944"/>
      <trkpt lat="40.89534" lon="-3.988988"/>
      <trkpt lat="40.895342" lon="-3.989017">
        <ele>1318.593283</ele>
      </trkpt>
      <trkpt lat="40.895328" lon="-3.989041">
        <ele>1318.185929</ele>
      </trkpt>
      <trkpt lat="40.89529" lon="-3.989074"/>
      <trkpt lat="40.89528" lon="-3.989081"/>
      <trkpt lat="40.895236" lon="-3.989109">
        <ele>1316.308831</ele>
      </trkpt>
      <trkpt lat="40.89518" lon="-3.989111"/>
      <trkpt lat="40.895112" lon="-3.989116">
        <ele>1314.102344</ele>
      </trkpt>
      <trkpt lat="40.895074" lon="-3.989112">
        <ele>1313.424710</ele>
      </trkpt>
      <trkpt lat="40.895037" lon="-3.989109">
        <ele>1312.765754</ele>
      </trkpt>
      <trkpt lat="40.895004" lon="-3.989136">
        <ele>1312.076009</ele>
      </trkpt>
      <trkpt lat="40.894923" lon="-3.989183">
        <ele>1310.503714</ele>
      </trkpt>
      <trkpt lat="40.894896" lon="-3.989194">
        <ele>1310.001510</ele>
      </trkpt>
      <trkpt lat="40.894854" lon="-3.989194">
        <ele>1309.254906</ele>
      </trkpt>
      <trkpt lat="40.894785" lon="-3.98919"/>
      <trkpt lat="40.894758" lon="-3.989183">
        <ele>1307.538076</ele>
      </trkpt>
      <trkpt lat="40.894717" lon="-3.989183">
        <ele>1306.809248</ele>
      </trkpt>
      <trkpt lat="40.894704" lon="-3.989182">
        <ele>1306.577766</ele>
      </trkpt>
      <trkpt lat="40.89465" lon="-3.989169"/>
      <trkpt lat="40.894607" lon="-3.989164">
        <ele>1304.834755</ele>
      </trkpt>
      <trkpt lat="40.894593" lon="-3.989165">
        <ele>1304.585524</ele>
      </trkpt>
      <trkpt lat="40.894545" lon="-3.989193">
        <ele>1303.652992</ele>
      </trkpt>
      <trkpt lat="40.894536" lon="-3.989222">
        <ele>1303.231745</ele>
      </trkpt>
      <trkpt lat="40.894535" lon="-3.989238">
        <ele>1303.016013</ele>
      </trkpt>
      <trkpt lat="40.894542" lon="-3.989283">
        <ele>1302.398661</ele>
      </trkpt>
      <trkpt lat="40.894557" lon="-3.989324">
        <ele>1301.786594</ele>
      </trkpt>
      <trkpt lat="40.894564" lon="-3.989336">
        <ele>1301.582916</ele>
      </trkpt>
      <trkpt lat="40.894573" lon="-3.989347">
        <ele>1301.367786</ele>
      </trkpt>
      <trkpt lat="40.894623" lon="-3.989369">
        <ele>1300.585685</ele>
      </trkpt>
      <trkpt lat="40.89464" lon="-3.989397"/>
      <trkpt lat="40.894677" lon="-3.98944"/>
      <trkpt lat="40.894713" lon="-3.989478">
        <ele>1298.768173</ele>
      </trkpt>
      <trkpt lat="40.894749" lon="-3.989526">
        <ele>1298.009527</ele>
      </trkpt>
      <trkpt lat="40.894769" lon="-3.989601">
        <ele>1297.117224</ele>
      </trkpt>
      <trkpt lat="40.894763" lon="-3.989642">
        <ele>1296.648675</ele>
      </trkpt>
      <trkpt lat="40.894748" lon="-3.989672">
        <ele>1296.245114</ele>
      </trkpt>
      <trkpt lat="40.894701" lon="-3.989722">
        <ele>1295.349932</ele>
      </trkpt>
      <trkpt lat="40.894686" lon="-3.989726">
        <ele>1295.122815</ele>
      </trkpt>
      <trkpt lat="40.894671" lon="-3.98973"/>
      <trkpt lat="40.894593" lon="-3.989796">
        <ele>1293.521412</ele>
      </trkpt>
      <trkpt lat="40.894578" lon="-3.989807">
        <ele>1293.266855</ele>
      </trkpt>
      <trkpt lat="40.894498" lon="-3.989874">
        <ele>1291.861501</ele>
      </trkpt>
      <trkpt lat="40.894439" lon="-3.989937">
        <ele>1290.736112</ele>
      </trkpt>
      <trkpt lat="40.894418" lon="-3.989964">
        <ele>1290.301460</ele>
      </trkpt>
      <trkpt lat="40.894408" lon="-3.989978">
        <ele>1290.085351</ele>
      </trkpt>
      <trkpt lat="40.894381" lon="-3.990043">
        <ele>1289.253211</ele>
      </trkpt>
      <trkpt lat="40.894375" lon="-3.990058">
        <ele>1289.062805</ele>
      </trkpt>
      <trkpt lat="40.894347" lon="-3.990122">
        <ele>1288.233146</ele>
      </trkpt>
      <trkpt lat="40.894324" lon="-3.990191">
        <ele>1287.387055</ele>
      </trkpt>
      <trkpt lat="40.894322" lon="-3.99021"/>
      <trkpt lat="40.894316" lon="-3.990247">
        <ele>1286.747246</ele>
      </trkpt>
      <trkpt lat="40.894292" lon="-3.990299">
        <ele>1286.063665</ele>
      </trkpt>
      <trkpt lat="40.894256" lon="-3.990365">
        <ele>1285.150505</ele>
      </trkpt>
      <trkpt lat="40.894246" lon="-3.990381">
        <ele>1284.917575</ele>
      </trkpt>
      <trkpt lat="40.894239" lon="-3.990399">
        <ele>1284.690461</ele>
      </trkpt>
      <trkpt lat="40.8942" lon="-3.99046"/>
      <trkpt lat="40.894179" lon="-3.990488">
        <ele>1283.351538</ele>
      </trkpt>
      <trkpt lat="40.894139" lon="-3.990521">
        <ele>1282.651845</ele>
      </trkpt>
      <trkpt lat="40.894117" lon="-3.990552">
        <ele>1282.174769</ele>
      </trkpt>
      <trkpt lat="40.894067" lon="-3.990596">
        <ele>1281.283441</ele>
      </trkpt>
      <trkpt lat="40.894055" lon="-3.99061"/>
      <trkpt lat="40.894032" lon="-3.990663">
        <ele>1280.360286</ele>
      </trkpt>
      <trkpt lat="40.894027" lon="-3.990682">
        <ele>1280.134561</ele>
      </trkpt>
      <trkpt lat="40.894026" lon="-3.990723">
        <ele>1279.674309</ele>
      </trkpt>
      <trkpt lat="40.89403" lon="-3.990741"/>
      <trkpt lat="40.894064" lon="-3.990805">
        <ele>1278.586144</ele>
      </trkpt>
      <trkpt lat="40.894076" lon="-3.990815">
        <ele>1278.375640</ele>
      </trkpt>
      <trkpt lat="40.894117" lon="-3.990817">
        <ele>1277.766680</ele>
      </trkpt>
      <trkpt lat="40.894133" lon="-3.990822">
        <ele>1277.522663</ele>
      </trkpt>
      <trkpt lat="40.894231" lon="-3.990849">
        <ele>1276.036881</ele>
      </trkpt>
      <trkpt lat="40.894288" lon="-3.990847">
        <ele>1275.190556</ele>
      </trkpt>
      <trkpt lat="40.89433" lon="-3.990843"/>
      <trkpt lat="40.894346" lon="-3.99084"/>
      <trkpt lat="40.894389" lon="-3.990877">
        <ele>1273.519371</ele>
      </trkpt>
      <trkpt lat="40.894392" lon="-3.990894">
        <ele>1273.315647</ele>
      </trkpt>
      <trkpt lat="40.894375" lon="-3.990963">
        <ele>1272.468726</ele>
      </trkpt>
      <trkpt lat="40.894364" lon="-3.990975">
        <ele>1272.248612</ele>
      </trkpt>
      <trkpt lat="40.894296" lon="-3.991012">
        <ele>1271.113483</ele>
      </trkpt>
      <trkpt lat="40.894281" lon="-3.991019">
        <ele>1270.867924</ele>
      </trkpt>
      <trkpt lat="40.894253" lon="-3.99104"/>
      <trkpt lat="40.894236" lon="-3.991077">
        <ele>1269.865722</ele>
      </trkpt>
      <trkpt lat="40.894229" lon="-3.991096">
        <ele>1269.619058</ele>
      </trkpt>
      <trkpt lat="40.894224" lon="-3.991116">
        <ele>1269.373224</ele>
      </trkpt>
      <trkpt lat="40.894227" lon="-3.99119"/>
      <trkpt lat="40.894249" lon="-3.991215">
        <ele>1268.060658</ele>
      </trkpt>
      <trkpt lat="40.894281" lon="-3.99123"/>
      <trkpt lat="40.894296" lon="-3.991242">
        <ele>1267.265915</ele>
      </trkpt>
      <trkpt lat="40.894315" lon="-3.991252">
        <ele>1266.950227</ele>
      </trkpt>
      <trkpt lat="40.894339" lon="-3.991258">
        <ele>1266.573152</ele>
      </trkpt>
      <trkpt lat="40.894363" lon="-3.991252">
        <ele>1266.196077</ele>
      </trkpt>
      <trkpt lat="40.894451" lon="-3.99126"/>
      <trkpt lat="40.894452" lon="-3.99126"/>
      <trkpt lat="40.894455" lon="-3.991259">
        <ele>1264.771112</ele>
      </trkpt>
      <trkpt lat="40.894504" lon="-3.991251">
        <ele>1264.008901</ele>
      </trkpt>
      <trkpt lat="40.894543" lon="-3.991252">
        <ele>1263.406698</ele>
      </trkpt>
      <trkpt lat="40.894571" lon="-3.991255">
        <ele>1262.973013</ele>
      </trkpt>
      <trkpt lat="40.894599" lon="-3.991247">
        <ele>1262.530777</ele>
      </trkpt>
      <trkpt lat="40.894614" lon="-3.991246">
        <ele>1262.298910</ele>
      </trkpt>
      <trkpt lat="40.894629" lon="-3.991248">
        <ele>1262.066164</ele>
      </trkpt>
      <trkpt lat="40.894688" lon="-3.991246">
        <ele>1261.155012</ele>
      </trkpt>
      <trkpt lat="40.894715" lon="-3.991269">
        <ele>1260.659238</ele>
      </trkpt>
      <trkpt lat="40.894727" lon="-3.991313">
        <ele>1260.113363</ele>
      </trkpt>
      <trkpt lat="40.894727" lon="-3.991335">
        <ele>1259.856624</ele>
      </trkpt>
      <trkpt lat="40.894718" lon="-3.991391">
        <ele>1259.188500</ele>
      </trkpt>
      <trkpt lat="40.894703" lon="-3.991457">
        <ele>1258.384224</ele>
      </trkpt>
      <trkpt lat="40.894698" lon="-3.991501">
        <ele>1257.864977</ele>
      </trkpt>
      <trkpt lat="40.894688" lon="-3.991612">
        <ele>1256.560445</ele>
      </trkpt>
      <trkpt lat="40.894718" lon="-3.991724">
        <ele>1255.173780</ele>
      </trkpt>
      <trkpt lat="40.894759" lon="-3.991786">
        <ele>1254.212452</ele>
      </trkpt>
      <trkpt lat="40.894774" lon="-3.991806">
        <ele>1253.883665</ele>
      </trkpt>
      <trkpt lat="40.894858" lon="-3.991892">
        <ele>1252.243862</ele>
      </trkpt>
      <trkpt lat="40.894894" lon="-3.991918">
        <ele>1251.610657</ele>
      </trkpt>
      <trkpt lat="40.89493" lon="-3.991949"/>
      <trkpt lat="40.894976" lon="-3.992006">
        <ele>1249.974479</ele>
      </trkpt>
      <trkpt lat="40.894998" lon="-3.992051">
        <ele>1249.349073</ele>
      </trkpt>
      <trkpt lat="40.895017" lon="-3.992096">
        <ele>1248.747560</ele>
      </trkpt>
      <trkpt lat="40.895029" lon="-3.992174">
        <ele>1247.818648</ele>
      </trkpt>
      <trkpt lat="40.895035" lon="-3.992226">
        <ele>1247.204785</ele>
      </trkpt>
      <trkpt lat="40.89506" lon="-3.992356"/>
      <trkpt lat="40.895077" lon="-3.992408">
        <ele>1245.809185</ele>
      </trkpt>
      <trkpt lat="40.895129" lon="-3.992497">
        <ele>1245.059087</ele>
      </trkpt>
      <trkpt lat="40.895182" lon="-3.992562">
        <ele>1244.421537</ele>
      </trkpt>
      <trkpt lat="40.895237" lon="-3.992607">
        <ele>1243.851053</ele>
      </trkpt>
      <trkpt lat="40.89525" lon="-3.992624"/>
      <trkpt lat="40.895272" lon="-3.992667">
        <ele>1243.343557</ele>
      </trkpt>
      <trkpt lat="40.895373" lon="-3.9928"/>
      <trkpt lat="40.895389" lon="-3.992827">
        <ele>1241.857637</ele>
      </trkpt>
      <trkpt lat="40.895466" lon="-3.992992">
        <ele>1240.564581</ele>
      </trkpt>
      <trkpt lat="40.895478" lon="-3.993017">
        <ele>1240.367103</ele>
      </trkpt>
      <trkpt lat="40.895533" lon="-3.993149">
        <ele>1239.362023</ele>
      </trkpt>
      <trkpt lat="40.895548" lon="-3.993171">
        <ele>1239.164460</ele>
      </trkpt>
      <trkpt lat="40.895591" lon="-3.993276">
        <ele>1238.368138</ele>
      </trkpt>
      <trkpt lat="40.895615" lon="-3.993325">
        <ele>1237.978796</ele>
      </trkpt>
      <trkpt lat="40.895709" lon="-3.993483">
        <ele>1236.638023</ele>
      </trkpt>
      <trkpt lat="40.895785" lon="-3.993609">
        <ele>1235.563113</ele>
      </trkpt>
      <trkpt lat="40.895803" lon="-3.993632">
        <ele>1235.342350</ele>
      </trkpt>
      <trkpt lat="40.895863" lon="-3.993727">
        <ele>1234.516846</ele>
      </trkpt>
      <trkpt lat="40.895879" lon="-3.993749">
        <ele>1234.313269</ele>
      </trkpt>
      <trkpt lat="40.895951" lon="-3.993829">
        <ele>1233.483810</ele>
      </trkpt>
      <trkpt lat="40.895974" lon="-3.993843">
        <ele>1233.260466</ele>
      </trkpt>
      <trkpt lat="40.89612" lon="-3.993959"/>
      <trkpt lat="40.896183" lon="-3.994011">
        <ele>1231.103023</ele>
      </trkpt>
      <trkpt lat="40.896248" lon="-3.994058">
        <ele>1230.437761</ele>
      </trkpt>
      <trkpt lat="40.896295" lon="-3.994056">
        <ele>1230.014782</ele>
      </trkpt>
      <trkpt lat="40.896404" lon="-3.994021">
        <ele>1229.005872</ele>
      </trkpt>
      <trkpt lat="40.896485" lon="-3.994065">
        <ele>1228.218257</ele>
      </trkpt>
      <trkpt lat="40.896503" lon="-3.994081">
        <ele>1228.023196</ele>
      </trkpt>
      <trkpt lat="40.896544" lon="-3.994153">
        <ele>1227.410287</ele>
      </trkpt>
      <trkpt lat="40.896611" lon="-3.99428"/>
      <trkpt lat="40.896662" lon="-3.994375">
        <ele>1225.565035</ele>
      </trkpt>
      <trkpt lat="40.896732" lon="-3.994496">
        <ele>1224.529041</ele>
      </trkpt>
      <trkpt lat="40.896758" lon="-3.994548">
        <ele>1224.105136</ele>
      </trkpt>
      <trkpt lat="40.896812" lon="-3.994654">
        <ele>1223.236027</ele>
      </trkpt>
      <trkpt lat="40.896826" lon="-3.99468"/>
      <trkpt lat="40.896897" lon="-3.994808">
        <ele>1221.939508</ele>
      </trkpt>
      <trkpt lat="40.896941" lon="-3.994883">
        <ele>1221.294007</ele>
      </trkpt>
      <trkpt lat="40.896959" lon="-3.994907">
        <ele>1221.064134</ele>
      </trkpt>
      <trkpt lat="40.897021" lon="-3.994988">
        <ele>1220.280352</ele>
      </trkpt>
      <trkpt lat="40.897057" lon="-3.99503"/>
      <trkpt lat="40.897096" lon="-3.99507"/>
      <trkpt lat="40.89719" lon="-3.995178"/>
      <trkpt lat="40.897209" lon="-3.9952"/>
      <trkpt lat="40.897302" lon="-3.995313">
        <ele>1216.921938</ele>
      </trkpt>
      <trkpt lat="40.897358" lon="-3.995374">
        <ele>1216.269450</ele>
      </trkpt>
      <trkpt lat="40.897376" lon="-3.995394">
        <ele>1216.058013</ele>
      </trkpt>
      <trkpt lat="40.897474" lon="-3.995512">
        <ele>1214.866962</ele>
      </trkpt>
      <trkpt lat="40.89749" lon="-3.995535"/>
      <trkpt lat="40.897588" lon="-3.995653">
        <ele>1213.689731</ele>
      </trkpt>
      <trkpt lat="40.897645" lon="-3.995718">
        <ele>1213.122355</ele>
      </trkpt>
      <trkpt lat="40.897663" lon="-3.99574"/>
      <trkpt lat="40.897813" lon="-3.99591"/>
      <trkpt lat="40.897833" lon="-3.995931">
        <ele>1211.255894</ele>
      </trkpt>
      <trkpt lat="40.897906" lon="-3.996017">
        <ele>1210.518912</ele>
      </trkpt>
      <trkpt lat="40.897967" lon="-3.996108">
        <ele>1209.825746</ele>
      </trkpt>
      <trkpt lat="40.897981" lon="-3.99613"/>
      <trkpt lat="40.898064" lon="-3.996268">
        <ele>1208.656798</ele>
      </trkpt>
      <trkpt lat="40.898107" lon="-3.996341">
        <ele>1208.129365</ele>
      </trkpt>
      <trkpt lat="40.8982" lon="-3.996498"/>
      <trkpt lat="40.898232" lon="-3.996549">
        <ele>1206.614868</ele>
      </trkpt>
      <trkpt lat="40.898298" lon="-3.996634">
        <ele>1205.920407</ele>
      </trkpt>
      <trkpt lat="40.898406" lon="-3.996751">
        <ele>1204.867962</ele>
      </trkpt>
      <trkpt lat="40.898461" lon="-3.996913">
        <ele>1203.855876</ele>
      </trkpt>
      <trkpt lat="40.89846" lon="-3.996953"/>
      <trkpt lat="40.898435" lon="-3.997104">
        <ele>1202.746848</ele>
      </trkpt>
      <trkpt lat="40.898432" lon="-3.997173">
        <ele>1202.352969</ele>
      </trkpt>
      <trkpt lat="40.898452" lon="-3.997284">
        <ele>1201.702660</ele>
      </trkpt>
      <trkpt lat="40.898464" lon="-3.997314">
        <ele>1201.509227</ele>
      </trkpt>
      <trkpt lat="40.898519" lon="-3.997451">
        <ele>1200.769948</ele>
      </trkpt>
      <trkpt lat="40.898528" lon="-3.997482">
        <ele>1200.620675</ele>
      </trkpt>
      <trkpt lat="40.898579" lon="-3.997596">
        <ele>1200.025206</ele>
      </trkpt>
      <trkpt lat="40.898597" lon="-3.997651">
        <ele>1199.755797</ele>
      </trkpt>
      <trkpt lat="40.898622" lon="-3.997774">
        <ele>1199.183260</ele>
      </trkpt>
      <trkpt lat="40.898642" lon="-3.997885">
        <ele>1198.670324</ele>
      </trkpt>
      <trkpt lat="40.898676" lon="-3.998069">
        <ele>1197.818871</ele>
      </trkpt>
      <trkpt lat="40.898687" lon="-3.998107">
        <ele>1197.635960</ele>
      </trkpt>
      <trkpt lat="40.89876" lon="-3.998322"/>
      <trkpt lat="40.898772" lon="-3.998354">
        <ele>1196.415917</ele>
      </trkpt>
      <trkpt lat="40.898879" lon="-3.998589">
        <ele>1195.182723</ele>
      </trkpt>
      <trkpt lat="40.898969" lon="-3.99882"/>
      <trkpt lat="40.898984" lon="-3.998851">
        <ele>1193.849083</ele>
      </trkpt>
      <trkpt lat="40.899055" lon="-3.998967">
        <ele>1193.178138</ele>
      </trkpt>
      <trkpt lat="40.899109" lon="-3.999066">
        <ele>1192.629356</ele>
      </trkpt>
      <trkpt lat="40.899126" lon="-3.9991"/>
      <trkpt lat="40.899214" lon="-3.999248">
        <ele>1191.599675</ele>
      </trkpt>
      <trkpt lat="40.899243" lon="-3.999298">
        <ele>1191.316379</ele>
      </trkpt>
      <trkpt lat="40.899351" lon="-3.999475">
        <ele>1190.312712</ele>
      </trkpt>
      <trkpt lat="40.899369" lon="-3.999503">
        <ele>1190.157207</ele>
      </trkpt>
      <trkpt lat="40.89944" lon="-3.999615"/>
      <trkpt lat="40.899492" lon="-3.999702">
        <ele>1189.069570</ele>
      </trkpt>
      <trkpt lat="40.899537" lon="-3.999793">
        <ele>1188.609518</ele>
      </trkpt>
      <trkpt lat="40.899602" lon="-3.999912">
        <ele>1187.988386</ele>
      </trkpt>
      <trkpt lat="40.899739" lon="-4.000114">
        <ele>1186.840228</ele>
      </trkpt>
      <trkpt lat="40.899883" lon="-4.000333">
        <ele>1185.612230</ele>
      </trkpt>
      <trkpt lat="40.900006" lon="-4.000508">
        <ele>1184.601263</ele>
      </trkpt>
      <trkpt lat="40.900132" lon="-4.000691">
        <ele>1183.554024</ele>
      </trkpt>
      <trkpt lat="40.900153" lon="-4.000722">
        <ele>1183.377914</ele>
      </trkpt>
      <trkpt lat="40.900278" lon="-4.000924">
        <ele>1182.273485</ele>
      </trkpt>
      <trkpt lat="40.900448" lon="-4.001181">
        <ele>1180.828687</ele>
      </trkpt>
      <trkpt lat="40.900586" lon="-4.001404">
        <ele>1179.829981</ele>
      </trkpt>
      <trkpt lat="40.90062" lon="-4.001467"/>
      <trkpt lat="40.900745" lon="-4.001692">
        <ele>1178.676088</ele>
      </trkpt>
      <trkpt lat="40.90076" lon="-4.001719"/>
      <trkpt lat="40.900835" lon="-4.001845">
        <ele>1178.048787</ele>
      </trkpt>
      <trkpt lat="40.900883" lon="-4.001938">
        <ele>1177.684441</ele>
      </trkpt>
      <trkpt lat="40.900923" lon="-4.001997">
        <ele>1177.428018</ele>
      </trkpt>
      <trkpt lat="40.901086" lon="-4.002244">
        <ele>1176.367163</ele>
      </trkpt>
      <trkpt lat="40.901278" lon="-4.002517">
        <ele>1175.160699</ele>
      </trkpt>
      <trkpt lat="40.901301" lon="-4.002547">
        <ele>1175.022449</ele>
      </trkpt>
      <trkpt lat="40.901366" lon="-4.002669">
        <ele>1174.539533</ele>
      </trkpt>
      <trkpt lat="40.901393" lon="-4.002723">
        <ele>1174.330059</ele>
      </trkpt>
      <trkpt lat="40.901433" lon="-4.0028"/>
      <trkpt lat="40.901509" lon="-4.0029"/>
      <trkpt lat="40.901604" lon="-4.003044">
        <ele>1172.950577</ele>
      </trkpt>
      <trkpt lat="40.901622" lon="-4.003068">
        <ele>1172.840061</ele>
      </trkpt>
      <trkpt lat="40.9017" lon="-4.003193"/>
      <trkpt lat="40.901729" lon="-4.003253">
        <ele>1171.960851</ele>
      </trkpt>
      <trkpt lat="40.901759" lon="-4.003307">
        <ele>1171.708304</ele>
      </trkpt>
      <trkpt lat="40.901797" lon="-4.003395">
        <ele>1171.326384</ele>
      </trkpt>
      <trkpt lat="40.901859" lon="-4.003503">
        <ele>1170.815321</ele>
      </trkpt>
      <trkpt lat="40.901921" lon="-4.003614">
        <ele>1170.295211</ele>
      </trkpt>
      <trkpt lat="40.902005" lon="-4.003753">
        <ele>1169.624570</ele>
      </trkpt>
      <trkpt lat="40.90204" lon="-4.003803"/>
      <trkpt lat="40.902098" lon="-4.003871">
        <ele>1168.981390</ele>
      </trkpt>
      <trkpt lat="40.902137" lon="-4.003947">
        <ele>1168.635227</ele>
      </trkpt>
      <trkpt lat="40.902167" lon="-4.00399"/>
      <trkpt lat="40.902229" lon="-4.004073">
        <ele>1167.974963</ele>
      </trkpt>
      <trkpt lat="40.902257" lon="-4.004116">
        <ele>1167.761083</ele>
      </trkpt>
      <trkpt lat="40.902269" lon="-4.004142">
        <ele>1167.646284</ele>
      </trkpt>
      <trkpt lat="40.90234" lon="-4.004262"/>
      <trkpt lat="40.902346" lon="-4.004322">
        <ele>1166.843942</ele>
      </trkpt>
      <trkpt lat="40.902337" lon="-4.004343">
        <ele>1166.752971</ele>
      </trkpt>
      <trkpt lat="40.902235" lon="-4.004443">
        <ele>1166.120027</ele>
      </trkpt>
      <trkpt lat="40.90213" lon="-4.004518"/>
      <trkpt lat="40.901956" lon="-4.004426">
        <ele>1164.590888</ele>
      </trkpt>
      <trkpt lat="40.901871" lon="-4.004355">
        <ele>1164.089712</ele>
      </trkpt>
      <trkpt lat="40.901793" lon="-4.004291">
        <ele>1164.108114</ele>
      </trkpt>
      <trkpt lat="40.901682" lon="-4.00428"/>
      <trkpt lat="40.90166" lon="-4.004282"/>
      <trkpt lat="40.901532" lon="-4.004202">
        <ele>1165.363690</ele>
      </trkpt>
      <trkpt lat="40.901494" lon="-4.004181">
        <ele>1165.551766</ele>
      </trkpt>
      <trkpt lat="40.901422" lon="-4.004157">
        <ele>1165.890862</ele>
      </trkpt>
      <trkpt lat="40.901385" lon="-4.004154">
        <ele>1166.060156</ele>
      </trkpt>
      <trkpt lat="40.901348" lon="-4.004169">
        <ele>1166.236889</ele>
      </trkpt>
      <trkpt lat="40.901207" lon="-4.00432"/>
      <trkpt lat="40.901052" lon="-4.00452"/>
      <trkpt lat="40.901023" lon="-4.004559">
        <ele>1168.242992</ele>
      </trkpt>
      <trkpt lat="40.900903" lon="-4.004673">
        <ele>1168.917675</ele>
      </trkpt>
      <trkpt lat="40.900782" lon="-4.004755">
        <ele>1169.538553</ele>
      </trkpt>
      <trkpt lat="40.900711" lon="-4.004816">
        <ele>1169.925178</ele>
      </trkpt>
      <trkpt lat="40.900618" lon="-4.004897">
        <ele>1170.433678</ele>
      </trkpt>
      <trkpt lat="40.900578" lon="-4.00502"/>
      <trkpt lat="40.900588" lon="-4.00507"/>
      <trkpt lat="40.900628" lon="-4.005236">
        <ele>1171.675863</ele>
      </trkpt>
      <trkpt lat="40.900614" lon="-4.005372">
        <ele>1172.134987</ele>
      </trkpt>
      <trkpt lat="40.900562" lon="-4.005511">
        <ele>1172.526993</ele>
      </trkpt>
      <trkpt lat="40.900475" lon="-4.005617">
        <ele>1172.922492</ele>
      </trkpt>
      <trkpt lat="40.900367" lon="-4.005684">
        <ele>1173.321376</ele>
      </trkpt>
      <trkpt lat="40.900256" lon="-4.005758">
        <ele>1173.737021</ele>
      </trkpt>
      <trkpt lat="40.900205" lon="-4.005809">
        <ele>1173.950800</ele>
      </trkpt>
      <trkpt lat="40.900124" lon="-4.005949">
        <ele>1174.396427</ele>
      </trkpt>
      <trkpt lat="40.900034" lon="-4.006122">
        <ele>1174.927257</ele>
      </trkpt>
      <trkpt lat="40.899841" lon="-4.006519">
        <ele>1176.120333</ele>
      </trkpt>
      <trkpt lat="40.899777" lon="-4.00671"/>
      <trkpt lat="40.899724" lon="-4.006886">
        <ele>1177.127270</ele>
      </trkpt>
      <trkpt lat="40.899694" lon="-4.006962">
        <ele>1177.343984</ele>
      </trkpt>
      <trkpt lat="40.899596" lon="-4.007128">
        <ele>1177.876376</ele>
      </trkpt>
      <trkpt lat="40.899455" lon="-4.007303">
        <ele>1177.521505</ele>
      </trkpt>
      <trkpt lat="40.899415" lon="-4.007411">
        <ele>1177.089076</ele>
      </trkpt>
      <trkpt lat="40.899426" lon="-4.007472">
        <ele>1176.863593</ele>
      </trkpt>
      <trkpt lat="40.899482" lon="-4.007584">
        <ele>1176.380760</ele>
      </trkpt>
      <trkpt lat="40.899538" lon="-4.007665">
        <ele>1175.986069</ele>
      </trkpt>
      <trkpt lat="40.899644" lon="-4.007837">
        <ele>1175.188132</ele>
      </trkpt>
      <trkpt lat="40.899663" lon="-4.007866">
        <ele>1175.050143</ele>
      </trkpt>
      <trkpt lat="40.89977" lon="-4.008031"/>
      <trkpt lat="40.899804" lon="-4.008087">
        <ele>1174.010201</ele>
      </trkpt>
      <trkpt lat="40.899881" lon="-4.008199">
        <ele>1173.465843</ele>
      </trkpt>
      <trkpt lat="40.900014" lon="-4.008387">
        <ele>1172.540003</ele>
      </trkpt>
      <trkpt lat="40.900032" lon="-4.008413">
        <ele>1172.413233</ele>
      </trkpt>
      <trkpt lat="40.900149" lon="-4.00862"/>
      <trkpt lat="40.900252" lon="-4.008806">
        <ele>1170.654848</ele>
      </trkpt>
      <trkpt lat="40.900276" lon="-4.008988">
        <ele>1169.990585</ele>
      </trkpt>
      <trkpt lat="40.900207" lon="-4.009099">
        <ele>1169.512015</ele>
      </trkpt>
      <trkpt lat="40.900168" lon="-4.009157">
        <ele>1169.366478</ele>
      </trkpt>
      <trkpt lat="40.900112" lon="-4.009246">
        <ele>1169.149375</ele>
      </trkpt>
      <trkpt lat="40.900067" lon="-4.009283">
        <ele>1169.017960</ele>
      </trkpt>
      <trkpt lat="40.899973" lon="-4.009338">
        <ele>1168.763024</ele>
      </trkpt>
      <trkpt lat="40.89988" lon="-4.009399"/>
      <trkpt lat="40.899858" lon="-4.009419">
        <ele>1168.439351</ele>
      </trkpt>
      <trkpt lat="40.899674" lon="-4.009606">
        <ele>1167.863855</ele>
      </trkpt>
      <trkpt lat="40.899522" lon="-4.009783">
        <ele>1167.361605</ele>
      </trkpt>
      <trkpt lat="40.899408" lon="-4.009911">
        <ele>1166.990741</ele>
      </trkpt>
      <trkpt lat="40.899377" lon="-4.009928">
        <ele>1166.907507</ele>
      </trkpt>
      <trkpt lat="40.899201" lon="-4.009999">
        <ele>1166.451123</ele>
      </trkpt>
      <trkpt lat="40.899147" lon="-4.010016">
        <ele>1166.313444</ele>
      </trkpt>
      <trkpt lat="40.899092" lon="-4.01004"/>
      <trkpt lat="40.898978" lon="-4.010133">
        <ele>1165.837602</ele>
      </trkpt>
      <trkpt lat="40.898789" lon="-4.010321">
        <ele>1165.251094</ele>
      </trkpt>
      <trkpt lat="40.898597" lon="-4.01054"/>
      <trkpt lat="40.898353" lon="-4.010812">
        <ele>1164.326595</ele>
      </trkpt>
      <trkpt lat="40.898122" lon="-4.011066">
        <ele>1163.874338</ele>
      </trkpt>
      <trkpt lat="40.898053" lon="-4.011128">
        <ele>1163.748750</ele>
      </trkpt>
      <trkpt lat="40.897948" lon="-4.011248">
        <ele>1163.539833</ele>
      </trkpt>
      <trkpt lat="40.897819" lon="-4.011392">
        <ele>1163.285698</ele>
      </trkpt>
      <trkpt lat="40.897776" lon="-4.011433">
        <ele>1163.205891</ele>
      </trkpt>
      <trkpt lat="40.897713" lon="-4.0115"/>
      <trkpt lat="40.897609" lon="-4.011607">
        <ele>1162.885817</ele>
      </trkpt>
      <trkpt lat="40.897513" lon="-4.011718">
        <ele>1162.693847</ele>
      </trkpt>
      <trkpt lat="40.897458" lon="-4.011784">
        <ele>1162.582043</ele>
      </trkpt>
      <trkpt lat="40.897404" lon="-4.011841">
        <ele>1162.478028</ele>
      </trkpt>
      <trkpt lat="40.897306" lon="-4.011942">
        <ele>1161.638798</ele>
      </trkpt>
      <trkpt lat="40.897242" lon="-4.012007">
        <ele>1160.667108</ele>
      </trkpt>
      <trkpt lat="40.897199" lon="-4.012055">
        <ele>1159.989539</ele>
      </trkpt>
      <trkpt lat="40.897155" lon="-4.012098">
        <ele>1159.330743</ele>
      </trkpt>
      <trkpt lat="40.897122" lon="-4.012157">
        <ele>1158.662605</ele>
      </trkpt>
      <trkpt lat="40.897097" lon="-4.012194">
        <ele>1158.210837</ele>
      </trkpt>
      <trkpt lat="40.897097" lon="-4.012267">
        <ele>1157.546303</ele>
      </trkpt>
      <trkpt lat="40.897097" lon="-4.012268">
        <ele>1157.537200</ele>
      </trkpt>
      <trkpt lat="40.897098" lon="-4.01226"/>
      <trkpt lat="40.897084" lon="-4.012262">
        <ele>1157.293802</ele>
      </trkpt>
      <trkpt lat="40.897045" lon="-4.012325">
        <ele>1156.552517</ele>
      </trkpt>
      <trkpt lat="40.897038" lon="-4.012342">
        <ele>1156.376290</ele>
      </trkpt>
      <trkpt lat="40.896992" lon="-4.012411">
        <ele>1155.538775</ele>
      </trkpt>
      <trkpt lat="40.896975" lon="-4.012461">
        <ele>1155.039689</ele>
      </trkpt>
      <trkpt lat="40.896963" lon="-4.01251"/>
      <trkpt lat="40.896952" lon="-4.012554">
        <ele>1154.148924</ele>
      </trkpt>
      <trkpt lat="40.896921" lon="-4.012621">
        <ele>1153.433817</ele>
      </trkpt>
      <trkpt lat="40.896905" lon="-4.012644">
        <ele>1153.149271</ele>
      </trkpt>
      <trkpt lat="40.896822" lon="-4.012736">
        <ele>1151.845218</ele>
      </trkpt>
      <trkpt lat="40.896789" lon="-4.012777">
        <ele>1151.300014</ele>
      </trkpt>
      <trkpt lat="40.896707" lon="-4.012897">
        <ele>1149.827419</ele>
      </trkpt>
      <trkpt lat="40.896648" lon="-4.013068">
        <ele>1148.116264</ele>
      </trkpt>
      <trkpt lat="40.896643" lon="-4.013078">
        <ele>1148.007118</ele>
      </trkpt>
      <trkpt lat="40.896635" lon="-4.013154">
        <ele>1147.308593</ele>
      </trkpt>
      <trkpt lat="40.896633" lon="-4.013174">
        <ele>1147.124942</ele>
      </trkpt>
      <trkpt lat="40.896632" lon="-4.013242">
        <ele>1146.505802</ele>
      </trkpt>
      <trkpt lat="40.896636" lon="-4.013292">
        <ele>1146.048097</ele>
      </trkpt>
      <trkpt lat="40.896665" lon="-4.013339">
        <ele>1145.495798</ele>
      </trkpt>
      <trkpt lat="40.896731" lon="-4.013413">
        <ele>1144.453892</ele>
      </trkpt>
      <trkpt lat="40.896749" lon="-4.013433">
        <ele>1144.170803</ele>
      </trkpt>
      <trkpt lat="40.89687" lon="-4.013555"/>
      <trkpt lat="40.896982" lon="-4.013623">
        <ele>1140.854534</ele>
      </trkpt>
      <trkpt lat="40.897" lon="-4.013641"/>
      <trkpt lat="40.897107" lon="-4.013754">
        <ele>1140.528918</ele>
      </trkpt>
      <trkpt lat="40.897131" lon="-4.013779">
        <ele>1140.489015</ele>
      </trkpt>
      <trkpt lat="40.897222" lon="-4.013882">
        <ele>1140.332574</ele>
      </trkpt>
      <trkpt lat="40.897279" lon="-4.013927">
        <ele>1140.245866</ele>
      </trkpt>
      <trkpt lat="40.897482" lon="-4.014097">
        <ele>1139.932028</ele>
      </trkpt>
      <trkpt lat="40.897517" lon="-4.014128">
        <ele>1139.877007</ele>
      </trkpt>
      <trkpt lat="40.897583" lon="-4.014201">
        <ele>1139.764631</ele>
      </trkpt>
      <trkpt lat="40.897616" lon="-4.014236">
        <ele>1139.709381</ele>
      </trkpt>
      <trkpt lat="40.897679" lon="-4.014303">
        <ele>1139.603791</ele>
      </trkpt>
      <trkpt lat="40.89774" lon="-4.014379"/>
      <trkpt lat="40.897818" lon="-4.014457">
        <ele>1139.366612</ele>
      </trkpt>
      <trkpt lat="40.898025" lon="-4.014668">
        <ele>1139.025259</ele>
      </trkpt>
      <trkpt lat="40.898254" lon="-4.014905">
        <ele>1138.645462</ele>
      </trkpt>
      <trkpt lat="40.898286" lon="-4.01494"/>
      <trkpt lat="40.898339" lon="-4.015009">
        <ele>1138.494093</ele>
      </trkpt>
      <trkpt lat="40.898387" lon="-4.015061">
        <ele>1138.413051</ele>
      </trkpt>
      <trkpt lat="40.898438" lon="-4.015087">
        <ele>1138.323133</ele>
      </trkpt>
      <trkpt lat="40.898541" lon="-4.015077">
        <ele>1138.109577</ele>
      </trkpt>
      <trkpt lat="40.898564" lon="-4.015076">
        <ele>1138.061991</ele>
      </trkpt>
      <trkpt lat="40.898598" lon="-4.015097">
        <ele>1137.984402</ele>
      </trkpt>
      <trkpt lat="40.898616" lon="-4.015147">
        <ele>1137.897841</ele>
      </trkpt>
      <trkpt lat="40.898626" lon="-4.015201">
        <ele>1137.810944</ele>
      </trkpt>
      <trkpt lat="40.898649" lon="-4.015281">
        <ele>1137.677165</ele>
      </trkpt>
      <trkpt lat="40.89866" lon="-4.015346"/>
      <trkpt lat="40.898677" lon="-4.015382">
        <ele>1137.506710</ele>
      </trkpt>
      <trkpt lat="40.898818" lon="-4.0155"/>
      <trkpt lat="40.899034" lon="-4.015775">
        <ele>1136.541844</ele>
      </trkpt>
      <trkpt lat="40.89911" lon="-4.015838"/>
      <trkpt lat="40.899164" lon="-4.015898">
        <ele>1136.210574</ele>
      </trkpt>
      <trkpt lat="40.899187" lon="-4.015921">
        <ele>1136.150956</ele>
      </trkpt>
      <trkpt lat="40.899257" lon="-4.015976">
        <ele>1135.982608</ele>
      </trkpt>
      <trkpt lat="40.899277" lon="-4.015992">
        <ele>1135.934279</ele>
      </trkpt>
      <trkpt lat="40.899303" lon="-4.016041">
        <ele>1135.840706</ele>
      </trkpt>
      <trkpt lat="40.899324" lon="-4.016061">
        <ele>1135.787201</ele>
      </trkpt>
      <trkpt lat="40.899352" lon="-4.016071">
        <ele>1135.727230</ele>
      </trkpt>
      <trkpt lat="40.899463" lon="-4.016121">
        <ele>1135.484765</ele>
      </trkpt>
      <trkpt lat="40.899485" lon="-4.016151">
        <ele>1135.419434</ele>
      </trkpt>
      <trkpt lat="40.899611" lon="-4.016307">
        <ele>1135.062598</ele>
      </trkpt>
      <trkpt lat="40.899737" lon="-4.016398">
        <ele>1134.765761</ele>
      </trkpt>
      <trkpt lat="40.899769" lon="-4.016409">
        <ele>1134.697394</ele>
      </trkpt>
      <trkpt lat="40.899871" lon="-4.016455">
        <ele>1134.299235</ele>
      </trkpt>
      <trkpt lat="40.899966" lon="-4.016494">
        <ele>1133.892796</ele>
      </trkpt>
      <trkpt lat="40.900142" lon="-4.01658"/>
      <trkpt lat="40.900173" lon="-4.016596">
        <ele>1132.990192</ele>
      </trkpt>
      <trkpt lat="40.900291" lon="-4.016644">
        <ele>1132.485756</ele>
      </trkpt>
      <trkpt lat="40.900313" lon="-4.016661">
        <ele>1132.381651</ele>
      </trkpt>
      <trkpt lat="40.900342" lon="-4.016754">
        <ele>1132.070939</ele>
      </trkpt>
      <trkpt lat="40.90031" lon="-4.016947"/>
      <trkpt lat="40.900308" lon="-4.016985">
        <ele>1131.343043</ele>
      </trkpt>
      <trkpt lat="40.900344" lon="-4.017172">
        <ele>1130.747058</ele>
      </trkpt>
      <trkpt lat="40.900453" lon="-4.017364">
        <ele>1130.005436</ele>
      </trkpt>
      <trkpt lat="40.900573" lon="-4.017595">
        <ele>1129.139746</ele>
      </trkpt>
      <trkpt lat="40.900592" lon="-4.017627">
        <ele>1129.014068</ele>
      </trkpt>
      <trkpt lat="40.900714" lon="-4.017822">
        <ele>1128.232267</ele>
      </trkpt>
      <trkpt lat="40.900746" lon="-4.017891">
        <ele>1127.982246</ele>
      </trkpt>
      <trkpt lat="40.900811" lon="-4.018029">
        <ele>1127.480056</ele>
      </trkpt>
      <trkpt lat="40.900848" lon="-4.018097">
        <ele>1127.237828</ele>
      </trkpt>
      <trkpt lat="40.900916" lon="-4.018218">
        <ele>1126.864471</ele>
      </trkpt>
      <trkpt lat="40.900955" lon="-4.018313">
        <ele>1126.596777</ele>
      </trkpt>
      <trkpt lat="40.901006" lon="-4.01839"/>
      <trkpt lat="40.901061" lon="-4.018456">
        <ele>1126.100010</ele>
      </trkpt>
      <trkpt lat="40.901197" lon="-4.018657">
        <ele>1125.432014</ele>
      </trkpt>
      <trkpt lat="40.901256" lon="-4.018767">
        <ele>1125.098026</ele>
      </trkpt>
      <trkpt lat="40.901346" lon="-4.018938">
        <ele>1124.582063</ele>
      </trkpt>
      <trkpt lat="40.901421" lon="-4.019075">
        <ele>1124.163198</ele>
      </trkpt>
      <trkpt lat="40.901453" lon="-4.019146">
        <ele>1123.958508</ele>
      </trkpt>
      <trkpt lat="40.901595" lon="-4.019434">
        <ele>1123.107063</ele>
      </trkpt>
      <trkpt lat="40.901752" lon="-4.019688">
        <ele>1122.294594</ele>
      </trkpt>
      <trkpt lat="40.901798" lon="-4.01979"/>
      <trkpt lat="40.901862" lon="-4.019915">
        <ele>1121.626642</ele>
      </trkpt>
      <trkpt lat="40.902011" lon="-4.020165">
        <ele>1121.102090</ele>
      </trkpt>
      <trkpt lat="40.902085" lon="-4.020366">
        <ele>1120.802884</ele>
      </trkpt>
      <trkpt lat="40.902097" lon="-4.020395">
        <ele>1120.758639</ele>
      </trkpt>
      <trkpt lat="40.902172" lon="-4.020552">
        <ele>1120.510084</ele>
      </trkpt>
      <trkpt lat="40.902202" lon="-4.020594">
        <ele>1120.432748</ele>
      </trkpt>
      <trkpt lat="40.902268" lon="-4.020747">
        <ele>1120.196993</ele>
      </trkpt>
      <trkpt lat="40.902292" lon="-4.020829">
        <ele>1120.079315</ele>
      </trkpt>
      <trkpt lat="40.902345" lon="-4.020977">
        <ele>1119.860146</ele>
      </trkpt>
      <trkpt lat="40.902376" lon="-4.021041">
        <ele>1119.758418</ele>
      </trkpt>
      <trkpt lat="40.902424" lon="-4.021105">
        <ele>1119.637758</ele>
      </trkpt>
      <trkpt lat="40.902435" lon="-4.02112"/>
      <trkpt lat="40.902539" lon="-4.021171">
        <ele>1119.413405</ele>
      </trkpt>
      <trkpt lat="40.902616" lon="-4.021153">
        <ele>1119.274958</ele>
      </trkpt>
      <trkpt lat="40.902675" lon="-4.021119">
        <ele>1119.161013</ele>
      </trkpt>
      <trkpt lat="40.902712" lon="-4.021114">
        <ele>1119.095161</ele>
      </trkpt>
      <trkpt lat="40.9028" lon="-4.021125"/>
      <trkpt lat="40.902823" lon="-4.021135">
        <ele>1118.895788</ele>
      </trkpt>
      <trkpt lat="40.902838" lon="-4.021184">
        <ele>1118.825039</ele>
      </trkpt>
      <trkpt lat="40.902818" lon="-4.021421">
        <ele>1118.505903</ele>
      </trkpt>
      <trkpt lat="40.902804" lon="-4.021646">
        <ele>1118.234484</ele>
      </trkpt>
      <trkpt lat="40.902796" lon="-4.021864">
        <ele>1118.317889</ele>
      </trkpt>
      <trkpt lat="40.902814" lon="-4.022102">
        <ele>1118.409294</ele>
      </trkpt>
      <trkpt lat="40.902879" lon="-4.022272">
        <ele>1118.482097</ele>
      </trkpt>
      <trkpt lat="40.902894" lon="-4.022302">
        <ele>1118.495843</ele>
      </trkpt>
      <trkpt lat="40.902899" lon="-4.022489">
        <ele>1118.567349</ele>
      </trkpt>
      <trkpt lat="40.902941" lon="-4.022688">
        <ele>1118.646304</ele>
      </trkpt>
      <trkpt lat="40.902959" lon="-4.022738">
        <ele>1118.667468</ele>
      </trkpt>
      <trkpt lat="40.902986" lon="-4.022818">
        <ele>1118.700949</ele>
      </trkpt>
      <trkpt lat="40.903009" lon="-4.02287"/>
      <trkpt lat="40.903028" lon="-4.022901">
        <ele>1118.739225</ele>
      </trkpt>
      <trkpt lat="40.903182" lon="-4.022939">
        <ele>1118.818430</ele>
      </trkpt>
      <trkpt lat="40.903224" lon="-4.022964">
        <ele>1118.841715</ele>
      </trkpt>
      <trkpt lat="40.903362" lon="-4.023053">
        <ele>1118.919336</ele>
      </trkpt>
      <trkpt lat="40.903465" lon="-4.023168">
        <ele>1118.987477</ele>
      </trkpt>
      <trkpt lat="40.903551" lon="-4.023318">
        <ele>1119.059424</ele>
      </trkpt>
      <trkpt lat="40.903563" lon="-4.023349">
        <ele>1119.072733</ele>
      </trkpt>
      <trkpt lat="40.903627" lon="-4.023461">
        <ele>1119.126389</ele>
      </trkpt>
      <trkpt lat="40.903653" lon="-4.023484">
        <ele>1119.093462</ele>
      </trkpt>
      <trkpt lat="40.903765" lon="-4.023608">
        <ele>1118.467738</ele>
      </trkpt>
      <trkpt lat="40.903779" lon="-4.023638">
        <ele>1118.353561</ele>
      </trkpt>
      <trkpt lat="40.903809" lon="-4.02375"/>
      <trkpt lat="40.90383" lon="-4.023966"/>
      <trkpt lat="40.903866" lon="-4.024185">
        <ele>1116.537732</ele>
      </trkpt>
      <trkpt lat="40.903884" lon="-4.024249">
        <ele>1116.316593</ele>
      </trkpt>
      <trkpt lat="40.90392" lon="-4.024335"/>
      <trkpt lat="40.903937" lon="-4.024369">
        <ele>1115.866216</ele>
      </trkpt>
      <trkpt lat="40.903971" lon="-4.024459">
        <ele>1115.540385</ele>
      </trkpt>
      <trkpt lat="40.904087" lon="-4.024539">
        <ele>1114.979902</ele>
      </trkpt>
      <trkpt lat="40.9042" lon="-4.024542"/>
      <trkpt lat="40.90423" lon="-4.024598"/>
      <trkpt lat="40.904235" lon="-4.024719">
        <ele>1113.880937</ele>
      </trkpt>
      <trkpt lat="40.904236" lon="-4.024759">
        <ele>1113.751332</ele>
      </trkpt>
      <trkpt lat="40.904237" lon="-4.024882">
        <ele>1113.352994</ele>
      </trkpt>
      <trkpt lat="40.904232" lon="-4.024972">
        <ele>1113.060757</ele>
      </trkpt>
      <trkpt lat="40.904216" lon="-4.025151">
        <ele>1112.477054</ele>
      </trkpt>
      <trkpt lat="40.904207" lon="-4.025242">
        <ele>1112.179853</ele>
      </trkpt>
      <trkpt lat="40.904185" lon="-4.025433">
        <ele>1111.554189</ele>
      </trkpt>
      <trkpt lat="40.904174" lon="-4.025622">
        <ele>1111.179181</ele>
      </trkpt>
      <trkpt lat="40.904168" lon="-4.025716">
        <ele>1111.022537</ele>
      </trkpt>
      <trkpt lat="40.904155" lon="-4.025953">
        <ele>1110.627958</ele>
      </trkpt>
      <trkpt lat="40.904125" lon="-4.026334">
        <ele>1109.991874</ele>
      </trkpt>
      <trkpt lat="40.904093" lon="-4.026664">
        <ele>1109.439410</ele>
      </trkpt>
      <trkpt lat="40.904063" lon="-4.027014">
        <ele>1108.854501</ele>
      </trkpt>
      <trkpt lat="40.904043" lon="-4.027222">
        <ele>1108.506328</ele>
      </trkpt>
      <trkpt lat="40.904011" lon="-4.027555">
        <ele>1107.948921</ele>
      </trkpt>
      <trkpt lat="40.903995" lon="-4.027659">
        <ele>1107.772685</ele>
      </trkpt>
      <trkpt lat="40.90397" lon="-4.02795"/>
      <trkpt lat="40.903962" lon="-4.028344">
        <ele>1107.953788</ele>
      </trkpt>
      <trkpt lat="40.90396" lon="-4.028493"/>
      <trkpt lat="40.903945" lon="-4.028653">
        <ele>1108.242632</ele>
      </trkpt>
      <trkpt lat="40.903931" lon="-4.028834">
        <ele>1108.412024</ele>
      </trkpt>
      <trkpt lat="40.903954" lon="-4.028981">
        <ele>1108.551783</ele>
      </trkpt>
      <trkpt lat="40.903974" lon="-4.02913"/>
      <trkpt lat="40.904002" lon="-4.029284">
        <ele>1108.840138</ele>
      </trkpt>
      <trkpt lat="40.904018" lon="-4.02952"/>
      <trkpt lat="40.904023" lon="-4.029673">
        <ele>1109.203314</ele>
      </trkpt>
      <trkpt lat="40.904024" lon="-4.029961">
        <ele>1109.471446</ele>
      </trkpt>
      <trkpt lat="40.904026" lon="-4.030028">
        <ele>1109.533872</ele>
      </trkpt>
      <trkpt lat="40.904028" lon="-4.030095">
        <ele>1109.596298</ele>
      </trkpt>
      <trkpt lat="40.904033" lon="-4.030163">
        <ele>1109.659905</ele>
      </trkpt>
      <trkpt lat="40.904084" lon="-4.030356">
        <ele>1110.071371</ele>
      </trkpt>
      <trkpt lat="40.904236" lon="-4.030501">
        <ele>1110.629806</ele>
      </trkpt>
      <trkpt lat="40.90435" lon="-4.030602"/>
      <trkpt lat="40.904406" lon="-4.030695">
        <ele>1111.306490</ele>
      </trkpt>
      <trkpt lat="40.904576" lon="-4.031138">
        <ele>1112.425534</ele>
      </trkpt>
      <trkpt lat="40.904651" lon="-4.031372">
        <ele>1112.998019</ele>
      </trkpt>
      <trkpt lat="40.90469" lon="-4.031488"/>
      <trkpt lat="40.904827" lon="-4.031838">
        <ele>1114.171750</ele>
      </trkpt>
      <trkpt lat="40.904955" lon="-4.032197">
        <ele>1115.070314</ele>
      </trkpt>
      <trkpt lat="40.905085" lon="-4.032566">
        <ele>1116.356353</ele>
      </trkpt>
      <trkpt lat="40.905247" lon="-4.033034">
        <ele>1117.982379</ele>
      </trkpt>
      <trkpt lat="40.905445" lon="-4.033577">
        <ele>1119.886834</ele>
      </trkpt>
      <trkpt lat="40.905665" lon="-4.034223">
        <ele>1122.125044</ele>
      </trkpt>
      <trkpt lat="40.9057" lon="-4.034328"/>
      <trkpt lat="40.905893" lon="-4.034901">
        <ele>1123.477909</ele>
      </trkpt>
      <trkpt lat="40.90598" lon="-4.035161"/>
      <trkpt lat="40.906211" lon="-4.035835">
        <ele>1125.023007</ele>
      </trkpt>
      <trkpt lat="40.906267" lon="-4.036002">
        <ele>1125.298570</ele>
      </trkpt>
      <trkpt lat="40.906496" lon="-4.036669">
        <ele>1126.238084</ele>
      </trkpt>
      <trkpt lat="40.906523" lon="-4.036753">
        <ele>1126.281628</ele>
      </trkpt>
      <trkpt lat="40.906752" lon="-4.037446">
        <ele>1126.642424</ele>
      </trkpt>
      <trkpt lat="40.90688" lon="-4.037813"/>
      <trkpt lat="40.907015" lon="-4.038207">
        <ele>1127.041594</ele>
      </trkpt>
      <trkpt lat="40.907237" lon="-4.038865">
        <ele>1127.394240</ele>
      </trkpt>
      <trkpt lat="40.907457" lon="-4.039519">
        <ele>1127.770089</ele>
      </trkpt>
      <trkpt lat="40.907536" lon="-4.03975"/>
      <trkpt lat="40.907765" lon="-4.040434">
        <ele>1128.295991</ele>
      </trkpt>
      <trkpt lat="40.907943" lon="-4.041083">
        <ele>1128.393402</ele>
      </trkpt>
      <trkpt lat="40.908009" lon="-4.041417">
        <ele>1128.146262</ele>
      </trkpt>
      <trkpt lat="40.90803" lon="-4.041546"/>
      <trkpt lat="40.908084" lon="-4.04199"/>
      <trkpt lat="40.908092" lon="-4.042054">
        <ele>1127.683421</ele>
      </trkpt>
      <trkpt lat="40.9082" lon="-4.042667"/>
      <trkpt lat="40.908266" lon="-4.043067">
        <ele>1126.939731</ele>
      </trkpt>
      <trkpt lat="40.908309" lon="-4.043404">
        <ele>1126.687898</ele>
      </trkpt>
      <trkpt lat="40.908399" lon="-4.044005">
        <ele>1126.227981</ele>
      </trkpt>
      <trkpt lat="40.908419" lon="-4.044197">
        <ele>1126.082492</ele>
      </trkpt>
      <trkpt lat="40.908431" lon="-4.044451">
        <ele>1125.891453</ele>
      </trkpt>
      <trkpt lat="40.908428" lon="-4.044514">
        <ele>1125.844067</ele>
      </trkpt>
      <trkpt lat="40.908402" lon="-4.044704">
        <ele>1125.699123</ele>
      </trkpt>
      <trkpt lat="40.908344" lon="-4.044945">
        <ele>1125.509263</ele>
      </trkpt>
      <trkpt lat="40.90842" lon="-4.04519"/>
      <trkpt lat="40.908558" lon="-4.045403">
        <ele>1125.099862</ele>
      </trkpt>
      <trkpt lat="40.908597" lon="-4.045529">
        <ele>1124.984675</ele>
      </trkpt>
      <trkpt lat="40.908613" lon="-4.045592">
        <ele>1124.923707</ele>
      </trkpt>
      <trkpt lat="40.908685" lon="-4.045987">
        <ele>1124.550969</ele>
      </trkpt>
      <trkpt lat="40.908789" lon="-4.046659">
        <ele>1123.921728</ele>
      </trkpt>
      <trkpt lat="40.908799" lon="-4.046728">
        <ele>1123.857278</ele>
      </trkpt>
      <trkpt lat="40.908888" lon="-4.047253">
        <ele>1123.363711</ele>
      </trkpt>
      <trkpt lat="40.908898" lon="-4.047319">
        <ele>1123.301962</ele>
      </trkpt>
      <trkpt lat="40.908996" lon="-4.04804"/>
      <trkpt lat="40.909006" lon="-4.048107">
        <ele>1122.334000</ele>
      </trkpt>
      <trkpt lat="40.909075" lon="-4.048587">
        <ele>1121.543605</ele>
      </trkpt>
      <trkpt lat="40.909108" lon="-4.048938">
        <ele>1120.971432</ele>
      </trkpt>
      <trkpt lat="40.909115" lon="-4.049003">
        <ele>1120.865223</ele>
      </trkpt>
      <trkpt lat="40.909189" lon="-4.049417">
        <ele>1120.177039</ele>
      </trkpt>
      <trkpt lat="40.909201" lon="-4.049474">
        <ele>1120.081322</ele>
      </trkpt>
      <trkpt lat="40.909289" lon="-4.05003"/>
      <trkpt lat="40.909299" lon="-4.050095">
        <ele>1119.055094</ele>
      </trkpt>
      <trkpt lat="40.909369" lon="-4.050549">
        <ele>1118.171818</ele>
      </trkpt>
      <trkpt lat="40.909395" lon="-4.050746">
        <ele>1117.788016</ele>
      </trkpt>
      <trkpt lat="40.909452" lon="-4.051141">
        <ele>1117.016240</ele>
      </trkpt>
      <trkpt lat="40.909479" lon="-4.051338">
        <ele>1116.631993</ele>
      </trkpt>
      <trkpt lat="40.909539" lon="-4.051731">
        <ele>1115.862516</ele>
      </trkpt>
      <trkpt lat="40.909567" lon="-4.051931">
        <ele>1115.472148</ele>
      </trkpt>
      <trkpt lat="40.909605" lon="-4.052203">
        <ele>1114.941285</ele>
      </trkpt>
      <trkpt lat="40.909676" lon="-4.052672">
        <ele>1114.045011</ele>
      </trkpt>
      <trkpt lat="40.909704" lon="-4.05287"/>
      <trkpt lat="40.909771" lon="-4.053327">
        <ele>1112.829298</ele>
      </trkpt>
      <trkpt lat="40.9098" lon="-4.053521"/>
      <trkpt lat="40.909855" lon="-4.053908">
        <ele>1111.751049</ele>
      </trkpt>
      <trkpt lat="40.909874" lon="-4.054036">
        <ele>1111.513276</ele>
      </trkpt>
      <trkpt lat="40.90996" lon="-4.054602"/>
      <trkpt lat="40.910061" lon="-4.055289">
        <ele>1109.286826</ele>
      </trkpt>
      <trkpt lat="40.910137" lon="-4.055785">
        <ele>1108.464901</ele>
      </trkpt>
      <trkpt lat="40.910154" lon="-4.055906">
        <ele>1108.265023</ele>
      </trkpt>
      <trkpt lat="40.910241" lon="-4.056518">
        <ele>1107.253669</ele>
      </trkpt>
      <trkpt lat="40.910249" lon="-4.056577">
        <ele>1107.156319</ele>
      </trkpt>
      <trkpt lat="40.910318" lon="-4.057179">
        <ele>1106.208275</ele>
      </trkpt>
      <trkpt lat="40.910387" lon="-4.057722">
        <ele>1105.745790</ele>
      </trkpt>
      <trkpt lat="40.910414" lon="-4.05797"/>
      <trkpt lat="40.910419" lon="-4.058226">
        <ele>1105.320242</ele>
      </trkpt>
      <trkpt lat="40.910402" lon="-4.058427">
        <ele>1105.150362</ele>
      </trkpt>
      <trkpt lat="40.910385" lon="-4.058486">
        <ele>1105.097327</ele>
      </trkpt>
      <trkpt lat="40.910367" lon="-4.058539">
        <ele>1105.048522</ele>
      </trkpt>
      <trkpt lat="40.910352" lon="-4.058738">
        <ele>1104.880546</ele>
      </trkpt>
      <trkpt lat="40.910362" lon="-4.058782">
        <ele>1104.841954</ele>
      </trkpt>
      <trkpt lat="40.910416" lon="-4.058872">
        <ele>1104.745433</ele>
      </trkpt>
      <trkpt lat="40.910493" lon="-4.058984">
        <ele>1104.618259</ele>
      </trkpt>
      <trkpt lat="40.910517" lon="-4.059036">
        <ele>1104.567082</ele>
      </trkpt>
      <trkpt lat="40.910557" lon="-4.059151">
        <ele>1104.460750</ele>
      </trkpt>
      <trkpt lat="40.910685" lon="-4.059721">
        <ele>1103.827757</ele>
      </trkpt>
      <trkpt lat="40.910746" lon="-4.060047">
        <ele>1103.416514</ele>
      </trkpt>
      <trkpt lat="40.910789" lon="-4.060237">
        <ele>1103.173649</ele>
      </trkpt>
      <trkpt lat="40.9109" lon="-4.060595"/>
      <trkpt lat="40.910946" lon="-4.060712">
        <ele>1102.538322</ele>
      </trkpt>
      <trkpt lat="40.911132" lon="-4.061107">
        <ele>1101.968435</ele>
      </trkpt>
      <trkpt lat="40.911188" lon="-4.061221">
        <ele>1101.801944</ele>
      </trkpt>
      <trkpt lat="40.911404" lon="-4.061614">
        <ele>1101.182081</ele>
      </trkpt>
      <trkpt lat="40.911627" lon="-4.061989">
        <ele>1100.487659</ele>
      </trkpt>
      <trkpt lat="40.911728" lon="-4.062147">
        <ele>1100.186501</ele>
      </trkpt>
      <trkpt lat="40.912002" lon="-4.062578">
        <ele>1099.366867</ele>
      </trkpt>
      <trkpt lat="40.912036" lon="-4.062629">
        <ele>1099.267897</ele>
      </trkpt>
      <trkpt lat="40.912233" lon="-4.062936">
        <ele>1098.681800</ele>
      </trkpt>
      <trkpt lat="40.912299" lon="-4.06304"/>
      <trkpt lat="40.912592" lon="-4.063502">
        <ele>1097.541293</ele>
      </trkpt>
      <trkpt lat="40.912624" lon="-4.063554">
        <ele>1097.420025</ele>
      </trkpt>
      <trkpt lat="40.912947" lon="-4.064068">
        <ele>1096.211165</ele>
      </trkpt>
      <trkpt lat="40.912979" lon="-4.064119">
        <ele>1096.091294</ele>
      </trkpt>
      <trkpt lat="40.913258" lon="-4.064503">
        <ele>1095.128012</ele>
      </trkpt>
      <trkpt lat="40.913456" lon="-4.064799">
        <ele>1094.413174</ele>
      </trkpt>
      <trkpt lat="40.913556" lon="-4.064953">
        <ele>1094.046005</ele>
      </trkpt>
      <trkpt lat="40.913785" lon="-4.065324">
        <ele>1093.119393</ele>
      </trkpt>
      <trkpt lat="40.913816" lon="-4.06538"/>
      <trkpt lat="40.913903" lon="-4.065626">
        <ele>1092.407559</ele>
      </trkpt>
      <trkpt lat="40.913928" lon="-4.065759">
        <ele>1092.121484</ele>
      </trkpt>
      <trkpt lat="40.913964" lon="-4.065887">
        <ele>1091.836400</ele>
      </trkpt>
      <trkpt lat="40.914082" lon="-4.06602"/>
      <trkpt lat="40.914182" lon="-4.06608"/>
      <trkpt lat="40.914279" lon="-4.066148">
        <ele>1090.801777</ele>
      </trkpt>
      <trkpt lat="40.914398" lon="-4.06629"/>
      <trkpt lat="40.914709" lon="-4.066776">
        <ele>1089.029888</ele>
      </trkpt>
      <trkpt lat="40.914929" lon="-4.067123">
        <ele>1088.670018</ele>
      </trkpt>
      <trkpt lat="40.915055" lon="-4.067309">
        <ele>1088.737488</ele>
      </trkpt>
      <trkpt lat="40.915136" lon="-4.067434">
        <ele>1088.781964</ele>
      </trkpt>
      <trkpt lat="40.915203" lon="-4.067584">
        <ele>1088.829028</ele>
      </trkpt>
      <trkpt lat="40.915242" lon="-4.067667">
        <ele>1088.855427</ele>
      </trkpt>
      <trkpt lat="40.915551" lon="-4.068143">
        <ele>1089.024921</ele>
      </trkpt>
      <trkpt lat="40.915704" lon="-4.06838"/>
      <trkpt lat="40.915733" lon="-4.068442">
        <ele>1089.128808</ele>
      </trkpt>
      <trkpt lat="40.915814" lon="-4.068632">
        <ele>1089.187730</ele>
      </trkpt>
      <trkpt lat="40.915849" lon="-4.068687">
        <ele>1089.207152</ele>
      </trkpt>
      <trkpt lat="40.915979" lon="-4.068827">
        <ele>1089.227697</ele>
      </trkpt>
      <trkpt lat="40.916067" lon="-4.068923">
        <ele>1089.192940</ele>
      </trkpt>
      <trkpt lat="40.916392" lon="-4.069424">
        <ele>1089.040877</ele>
      </trkpt>
      <trkpt lat="40.916464" lon="-4.069537">
        <ele>1089.006837</ele>
      </trkpt>
      <trkpt lat="40.916736" lon="-4.069961">
        <ele>1088.878749</ele>
      </trkpt>
      <trkpt lat="40.916767" lon="-4.07001"/>
      <trkpt lat="40.916889" lon="-4.070209">
        <ele>1088.805017</ele>
      </trkpt>
      <trkpt lat="40.917013" lon="-4.070431">
        <ele>1088.741440</ele>
      </trkpt>
      <trkpt lat="40.917056" lon="-4.070519">
        <ele>1088.717306</ele>
      </trkpt>
      <trkpt lat="40.917133" lon="-4.070626">
        <ele>1088.606500</ele>
      </trkpt>
      <trkpt lat="40.917156" lon="-4.070661">
        <ele>1088.538766</ele>
      </trkpt>
      <trkpt lat="40.917265" lon="-4.070833">
        <ele>1088.210954</ele>
      </trkpt>
      <trkpt lat="40.917454" lon="-4.071139">
        <ele>1087.633818</ele>
      </trkpt>
      <trkpt lat="40.9175" lon="-4.071209"/>
      <trkpt lat="40.917692" lon="-4.071499">
        <ele>1086.935306</ele>
      </trkpt>
      <trkpt lat="40.91786" lon="-4.071767"/>
      <trkpt lat="40.918022" lon="-4.072014">
        <ele>1085.949196</ele>
      </trkpt>
      <trkpt lat="40.918173" lon="-4.072236">
        <ele>1085.513019</ele>
      </trkpt>
      <trkpt lat="40.918277" lon="-4.072395">
        <ele>1085.205408</ele>
      </trkpt>
      <trkpt lat="40.91838" lon="-4.072555"/>
      <trkpt lat="40.918448" lon="-4.072654">
        <ele>1084.686582</ele>
      </trkpt>
      <trkpt lat="40.91848" lon="-4.072703"/>
      <trkpt lat="40.918796" lon="-4.07321"/>
      <trkpt lat="40.918953" lon="-4.073455">
        <ele>1083.113092</ele>
      </trkpt>
      <trkpt lat="40.919015" lon="-4.073551">
        <ele>1082.922615</ele>
      </trkpt>
      <trkpt lat="40.919129" lon="-4.073741">
        <ele>1082.556683</ele>
      </trkpt>
      <trkpt lat="40.919156" lon="-4.073794">
        <ele>1082.460273</ele>
      </trkpt>
      <trkpt lat="40.919352" lon="-4.074139">
        <ele>1081.809246</ele>
      </trkpt>
      <trkpt lat="40.91938" lon="-4.074188"/>
      <trkpt lat="40.919575" lon="-4.074476">
        <ele>1081.084918</ele>
      </trkpt>
      <trkpt lat="40.919687" lon="-4.074628">
        <ele>1080.733588</ele>
      </trkpt>
      <trkpt lat="40.91972" lon="-4.074679"/>
      <trkpt lat="40.919842" lon="-4.074871">
        <ele>1080.207343</ele>
      </trkpt>
      <trkpt lat="40.919961" lon="-4.075059">
        <ele>1079.801503</ele>
      </trkpt>
      <trkpt lat="40.920136" lon="-4.075333">
        <ele>1079.207808</ele>
      </trkpt>
      <trkpt lat="40.920284" lon="-4.07556"/>
      <trkpt lat="40.920487" lon="-4.075877">
        <ele>1078.024038</ele>
      </trkpt>
      <trkpt lat="40.920546" lon="-4.075965">
        <ele>1077.829354</ele>
      </trkpt>
      <trkpt lat="40.920746" lon="-4.076284">
        <ele>1077.077707</ele>
      </trkpt>
      <trkpt lat="40.920865" lon="-4.076465">
        <ele>1076.633165</ele>
      </trkpt>
      <trkpt lat="40.921103" lon="-4.076832">
        <ele>1075.737071</ele>
      </trkpt>
      <trkpt lat="40.921309" lon="-4.077148">
        <ele>1074.963788</ele>
      </trkpt>
      <trkpt lat="40.921425" lon="-4.077331">
        <ele>1074.521209</ele>
      </trkpt>
      <trkpt lat="40.921512" lon="-4.077467">
        <ele>1074.191045</ele>
      </trkpt>
      <trkpt lat="40.921683" lon="-4.077739">
        <ele>1073.535449</ele>
      </trkpt>
      <trkpt lat="40.921888" lon="-4.078054">
        <ele>1072.557585</ele>
      </trkpt>
      <trkpt lat="40.922117" lon="-4.078419">
        <ele>1071.325514</ele>
      </trkpt>
      <trkpt lat="40.922144" lon="-4.078465">
        <ele>1071.174244</ele>
      </trkpt>
      <trkpt lat="40.92219" lon="-4.078564"/>
      <trkpt lat="40.922231" lon="-4.078658">
        <ele>1070.590551</ele>
      </trkpt>
      <trkpt lat="40.922317" lon="-4.078857">
        <ele>1069.995194</ele>
      </trkpt>
      <trkpt lat="40.922358" lon="-4.078953">
        <ele>1069.708815</ele>
      </trkpt>
      <trkpt lat="40.922376" lon="-4.079001">
        <ele>1069.569652</ele>
      </trkpt>
      <trkpt lat="40.922438" lon="-4.0792"/>
      <trkpt lat="40.92255" lon="-4.079482"/>
      <trkpt lat="40.922571" lon="-4.079528">
        <ele>1068.043720</ele>
      </trkpt>
      <trkpt lat="40.922707" lon="-4.079788">
        <ele>1067.222500</ele>
      </trkpt>
      <trkpt lat="40.92273" lon="-4.079834"/>
      <trkpt lat="40.922879" lon="-4.080105">
        <ele>1066.460972</ele>
      </trkpt>
      <trkpt lat="40.923032" lon="-4.080257">
        <ele>1065.989434</ele>
      </trkpt>
      <trkpt lat="40.923201" lon="-4.080482">
        <ele>1065.398587</ele>
      </trkpt>
      <trkpt lat="40.923441" lon="-4.080844">
        <ele>1064.501681</ele>
      </trkpt>
      <trkpt lat="40.923807" lon="-4.081385">
        <ele>1063.149303</ele>
      </trkpt>
      <trkpt lat="40.923934" lon="-4.081568">
        <ele>1062.686554</ele>
      </trkpt>
      <trkpt lat="40.924265" lon="-4.082055">
        <ele>1063.289343</ele>
      </trkpt>
      <trkpt lat="40.924475" lon="-4.082362">
        <ele>1063.689357</ele>
      </trkpt>
      <trkpt lat="40.924726" lon="-4.082723">
        <ele>1064.163231</ele>
      </trkpt>
      <trkpt lat="40.925073" lon="-4.083231">
        <ele>1064.824719</ele>
      </trkpt>
      <trkpt lat="40.925447" lon="-4.083775">
        <ele>1065.417460</ele>
      </trkpt>
      <trkpt lat="40.92552" lon="-4.083886"/>
      <trkpt lat="40.925816" lon="-4.084348">
        <ele>1065.994253</ele>
      </trkpt>
      <trkpt lat="40.925937" lon="-4.084526">
        <ele>1066.177685</ele>
      </trkpt>
      <trkpt lat="40.926137" lon="-4.084828">
        <ele>1066.485338</ele>
      </trkpt>
      <trkpt lat="40.926401" lon="-4.085248">
        <ele>1066.789965</ele>
      </trkpt>
      <trkpt lat="40.926475" lon="-4.085365">
        <ele>1066.789965</ele>
      </trkpt>
      <trkpt lat="40.92669" lon="-4.085689"/>
      <trkpt lat="40.926882" lon="-4.086"/>
      <trkpt lat="40.926911" lon="-4.086041">
        <ele>1066.789965</ele>
      </trkpt>
      <trkpt lat="40.927028" lon="-4.086415">
        <ele>1071.370787</ele>
        <time>2021-09-14T23:00:00.000Z</time>
      </trkpt>
      <trkpt lat="40.927046" lon="-4.086482">
        <ele>1071.370787</ele>
        <time>2021-09-14T23:00:01.000Z</time>
      </trkpt>
      <trkpt lat="40.927051" lon="-4.086628">
        <ele>1071.370787</ele>
        <time>2021-09-14T23:00:03.000Z</time>
      </trkpt>
      <trkpt lat="40.927054" lon="-4.086703">
        <ele>1071.370787</ele>
        <time>2021-09-14T23:00:04.000Z</time>
      </trkpt>
      <trkpt lat="40.927067" lon="-4.086777">
        <ele>1071.370787</ele>
        <time>2021-09-14T23:00:05.000Z</time>
      </trkpt>
      <trkpt lat="40.92712" lon="-4.086911"/>
      <trkpt lat="40.927154" lon="-4.086971">
        <ele>1071.370787</ele>
        <time>2021-09-14T23:00:08.000Z</time>
      </trkpt>
      <trkpt lat="40.927299" lon="-4.087259">
        <ele>1071.370787</ele>
        <time>2021-09-14T23:00:13.000Z</time>
      </trkpt>
      <trkpt lat="40.927345" lon="-4.087387">
        <ele>1071.370787</ele>
        <time>2021-09-14T23:00:16.000Z</time>
      </trkpt>
      <trkpt lat="40.927354" lon="-4.087404">
        <ele>1071.370787</ele>
        <time>2021-09-14T23:00:17.000Z</time>
      </trkpt>
      <trkpt lat="40.92739" lon="-4.087478"/>
      <trkpt lat="40.927412" lon="-4.087516">
        <ele>1071.409335</ele>
        <time>2021-09-14T23:00:22.000Z</time>
      </trkpt>
      <trkpt lat="40.927496" lon="-4.087542">
        <ele>1071.499596</ele>
        <time>2021-09-14T23:00:24.000Z</time>
      </trkpt>
      <trkpt lat="40.927714" lon="-4.087608">
        <ele>1071.733582</ele>
        <time>2021-09-14T23:00:28.000Z</time>
      </trkpt>
      <trkpt lat="40.927768" lon="-4.087642">
        <ele>1071.796149</ele>
        <time>2021-09-14T23:00:29.000Z</time>
      </trkpt>
      <trkpt lat="40.927893" lon="-4.087791">
        <ele>1071.972159</ele>
        <time>2021-09-14T23:00:32.000Z</time>
      </trkpt>
      <trkpt lat="40.92793" lon="-4.087844"/>
      <trkpt lat="40.92824" lon="-4.088235"/>
      <trkpt lat="40.92864" lon="-4.088798"/>
      <trkpt lat="40.928735" lon="-4.089023">
        <ele>1073.401515</ele>
        <time>2021-09-14T23:00:52.000Z</time>
      </trkpt>
      <trkpt lat="40.928812" lon="-4.089267">
        <ele>1074.194590</ele>
        <time>2021-09-14T23:00:55.000Z</time>
      </trkpt>
      <trkpt lat="40.928904" lon="-4.089605">
        <ele>1075.272097</ele>
        <time>2021-09-14T23:00:59.000Z</time>
      </trkpt>
      <trkpt lat="40.928907" lon="-4.089694">
        <ele>1075.539291</ele>
        <time>2021-09-14T23:01:00.000Z</time>
      </trkpt>
      <trkpt lat="40.928842" lon="-4.089909">
        <ele>1076.233827</ele>
        <time>2021-09-14T23:01:03.000Z</time>
      </trkpt>
      <trkpt lat="40.928822" lon="-4.089974">
        <ele>1076.444321</ele>
        <time>2021-09-14T23:01:04.000Z</time>
      </trkpt>
      <trkpt lat="40.928733" lon="-4.090151">
        <ele>1077.081999</ele>
        <time>2021-09-14T23:01:07.000Z</time>
      </trkpt>
      <trkpt lat="40.928639" lon="-4.090252">
        <ele>1077.562625</ele>
        <time>2021-09-14T23:01:09.000Z</time>
      </trkpt>
      <trkpt lat="40.928593" lon="-4.090301">
        <ele>1077.797023</ele>
        <time>2021-09-14T23:01:10.000Z</time>
      </trkpt>
      <trkpt lat="40.928465" lon="-4.090449">
        <ele>1078.471721</ele>
        <time>2021-09-14T23:01:13.000Z</time>
      </trkpt>
      <trkpt lat="40.928427" lon="-4.090584">
        <ele>1078.903802</ele>
        <time>2021-09-14T23:01:15.000Z</time>
      </trkpt>
      <trkpt lat="40.928431" lon="-4.090657">
        <ele>1079.123319</ele>
        <time>2021-09-14T23:01:16.000Z</time>
      </trkpt>
      <trkpt lat="40.928512" lon="-4.090854">
        <ele>1079.795992</ele>
        <time>2021-09-14T23:01:19.000Z</time>
      </trkpt>
      <trkpt lat="40.928548" lon="-4.090911">
        <ele>1080.018811</ele>
        <time>2021-09-14T23:01:20.000Z</time>
      </trkpt>
      <trkpt lat="40.928652" lon="-4.091078">
        <ele>1080.488204</ele>
        <time>2021-09-14T23:01:23.000Z</time>
      </trkpt>
      <trkpt lat="40.928758" lon="-4.091248">
        <ele>1080.717523</ele>
        <time>2021-09-14T23:01:26.000Z</time>
      </trkpt>
      <trkpt lat="40.928796" lon="-4.091303">
        <ele>1080.795063</ele>
        <time>2021-09-14T23:01:27.000Z</time>
      </trkpt>
      <trkpt lat="40.928873" lon="-4.091416">
        <ele>1080.953379</ele>
        <time>2021-09-14T23:01:29.000Z</time>
      </trkpt>
      <trkpt lat="40.929052" lon="-4.091696">
        <ele>1081.334976</ele>
        <time>2021-09-14T23:01:34.000Z</time>
      </trkpt>
      <trkpt lat="40.929125" lon="-4.091805">
        <ele>1081.486517</ele>
        <time>2021-09-14T23:01:36.000Z</time>
      </trkpt>
      <trkpt lat="40.929234" lon="-4.091982">
        <ele>1081.724087</ele>
        <time>2021-09-14T23:01:39.000Z</time>
      </trkpt>
      <trkpt lat="40.929421" lon="-4.092294">
        <ele>1082.138420</ele>
        <time>2021-09-14T23:01:44.000Z</time>
      </trkpt>
      <trkpt lat="40.92975" lon="-4.092818"/>
      <trkpt lat="40.930131" lon="-4.093425">
        <ele>1082.607892</ele>
        <time>2021-09-14T23:02:01.000Z</time>
      </trkpt>
      <trkpt lat="40.930173" lon="-4.093493">
        <ele>1082.577955</ele>
        <time>2021-09-14T23:02:02.000Z</time>
      </trkpt>
      <trkpt lat="40.930557" lon="-4.094104">
        <ele>1082.307067</ele>
        <time>2021-09-14T23:02:11.000Z</time>
      </trkpt>
      <trkpt lat="40.93064" lon="-4.094241"/>
      <trkpt lat="40.930987" lon="-4.094795">
        <ele>1082.044654</ele>
        <time>2021-09-14T23:02:21.000Z</time>
      </trkpt>
      <trkpt lat="40.931031" lon="-4.094868">
        <ele>1082.037025</ele>
        <time>2021-09-14T23:02:22.000Z</time>
      </trkpt>
      <trkpt lat="40.931331" lon="-4.095343">
        <ele>1081.986447</ele>
        <time>2021-09-14T23:02:28.000Z</time>
      </trkpt>
      <trkpt lat="40.931702" lon="-4.095933">
        <ele>1081.923737</ele>
        <time>2021-09-14T23:02:35.000Z</time>
      </trkpt>
      <trkpt lat="40.931904" lon="-4.096247">
        <ele>1081.890045</ele>
        <time>2021-09-14T23:02:39.000Z</time>
      </trkpt>
      <trkpt lat="40.931971" lon="-4.096348">
        <ele>1081.879065</ele>
        <time>2021-09-14T23:02:42.000Z</time>
      </trkpt>
      <trkpt lat="40.931988" lon="-4.096407">
        <ele>1081.873906</ele>
        <time>2021-09-14T23:02:44.000Z</time>
      </trkpt>
      <trkpt lat="40.931939" lon="-4.096465">
        <ele>1081.866798</ele>
        <time>2021-09-14T23:02:46.000Z</time>
      </trkpt>
      <trkpt lat="40.931845" lon="-4.096521">
        <ele>1081.699015</ele>
        <time>2021-09-14T23:02:48.000Z</time>
      </trkpt>
      <trkpt lat="40.931744" lon="-4.096612">
        <ele>1081.426370</ele>
        <time>2021-09-14T23:02:50.000Z</time>
      </trkpt>
      <trkpt lat="40.931307" lon="-4.097065">
        <ele>1080.187721</ele>
        <time>2021-09-14T23:02:58.000Z</time>
      </trkpt>
      <trkpt lat="40.931017" lon="-4.097347">
        <ele>1079.384705</ele>
        <time>2021-09-14T23:03:04.000Z</time>
      </trkpt>
      <trkpt lat="40.930863" lon="-4.097512">
        <ele>1078.942570</ele>
        <time>2021-09-14T23:03:08.000Z</time>
      </trkpt>
      <trkpt lat="40.9308" lon="-4.097588"/>
      <trkpt lat="40.930791" lon="-4.097596">
        <ele>1078.728161</ele>
        <time>2021-09-14T23:03:12.000Z</time>
      </trkpt>
      <trkpt lat="40.930768" lon="-4.097597">
        <ele>1078.676808</ele>
        <time>2021-09-14T23:03:14.000Z</time>
      </trkpt>
      <trkpt lat="40.930761" lon="-4.097597">
        <ele>1078.661187</ele>
        <time>2021-09-14T23:03:16.000Z</time>
      </trkpt>
      <trkpt lat="40.930737" lon="-4.097631">
        <ele>1078.582739</ele>
        <time>2021-09-14T23:03:23.000Z</time>
      </trkpt>
      <trkpt lat="40.930701" lon="-4.097661">
        <ele>1078.487808</ele>
        <time>2021-09-14T23:03:25.000Z</time>
      </trkpt>
      <trkpt lat="40.93062" lon="-4.097745"/>
      <trkpt lat="40.930447" lon="-4.097937">
        <ele>1077.671591</ele>
        <time>2021-09-14T23:03:35.000Z</time>
      </trkpt>
      <trkpt lat="40.930262" lon="-4.098138">
        <ele>1076.674526</ele>
        <time>2021-09-14T23:03:40.000Z</time>
      </trkpt>
      <trkpt lat="40.930222" lon="-4.098185">
        <ele>1076.451708</ele>
        <time>2021-09-14T23:03:41.000Z</time>
      </trkpt>
      <trkpt lat="40.930067" lon="-4.098352">
        <ele>1075.619128</ele>
        <time>2021-09-14T23:03:44.000Z</time>
      </trkpt>
      <trkpt lat="40.929895" lon="-4.09853"/>
      <trkpt lat="40.929793" lon="-4.09864"/>
      <trkpt lat="40.929564" lon="-4.098905">
        <ele>1072.894335</ele>
        <time>2021-09-14T23:03:53.000Z</time>
      </trkpt>
      <trkpt lat="40.92958" lon="-4.099038"/>
      <trkpt lat="40.929497" lon="-4.098979">
        <ele>1072.530815</ele>
        <time>2021-09-14T23:03:54.000Z</time>
      </trkpt>
      <trkpt lat="40.929309" lon="-4.099181">
        <ele>1071.522073</ele>
        <time>2021-09-14T23:03:57.000Z</time>
      </trkpt>
      <trkpt lat="40.92925" lon="-4.099237"/>
      <trkpt lat="40.929049" lon="-4.099437">
        <ele>1070.247042</ele>
        <time>2021-09-14T23:04:01.000Z</time>
      </trkpt>
      <trkpt lat="40.92899" lon="-4.099527"/>
      <trkpt lat="40.928925" lon="-4.099612">
        <ele>1069.797627</ele>
        <time>2021-09-14T23:04:03.000Z</time>
      </trkpt>
      <trkpt lat="40.928803" lon="-4.099764">
        <ele>1069.382529</ele>
        <time>2021-09-14T23:04:05.000Z</time>
      </trkpt>
      <trkpt lat="40.928759" lon="-4.099942">
        <ele>1069.031968</ele>
        <time>2021-09-14T23:04:07.000Z</time>
      </trkpt>
      <trkpt lat="40.928811" lon="-4.100122">
        <ele>1068.671252</ele>
        <time>2021-09-14T23:04:09.000Z</time>
      </trkpt>
      <trkpt lat="40.928853" lon="-4.100217">
        <ele>1068.465223</ele>
        <time>2021-09-14T23:04:10.000Z</time>
      </trkpt>
      <trkpt lat="40.928951" lon="-4.100407">
        <ele>1068.034606</ele>
        <time>2021-09-14T23:04:12.000Z</time>
      </trkpt>
      <trkpt lat="40.92907" lon="-4.100577"/>
      <trkpt lat="40.929135" lon="-4.100655">
        <ele>1067.383446</ele>
        <time>2021-09-14T23:04:15.000Z</time>
      </trkpt>
      <trkpt lat="40.929351" lon="-4.100855">
        <ele>1066.730362</ele>
        <time>2021-09-14T23:04:18.000Z</time>
      </trkpt>
      <trkpt lat="40.929428" lon="-4.10091"/>
      <trkpt lat="40.929913" lon="-4.10122"/>
      <trkpt lat="40.930079" lon="-4.101327">
        <ele>1065.236690</ele>
        <time>2021-09-14T23:04:27.000Z</time>
      </trkpt>
      <trkpt lat="40.930567" lon="-4.101616">
        <ele>1064.490558</ele>
        <time>2021-09-14T23:04:33.000Z</time>
      </trkpt>
      <trkpt lat="40.930916" lon="-4.101736">
        <ele>1063.987316</ele>
        <time>2021-09-14T23:04:38.000Z</time>
      </trkpt>
      <trkpt lat="40.931047" lon="-4.101765">
        <ele>1063.801948</ele>
        <time>2021-09-14T23:04:41.000Z</time>
      </trkpt>
      <trkpt lat="40.931071" lon="-4.10177"/>
      <trkpt lat="40.931155" lon="-4.101801">
        <ele>1063.646336</ele>
        <time>2021-09-14T23:04:45.000Z</time>
      </trkpt>
      <trkpt lat="40.931237" lon="-4.10183"/>
      <trkpt lat="40.931445" lon="-4.101918">
        <ele>1063.465010</ele>
        <time>2021-09-14T23:04:51.000Z</time>
      </trkpt>
      <trkpt lat="40.931572" lon="-4.101896">
        <ele>1063.544320</ele>
        <time>2021-09-14T23:04:54.000Z</time>
      </trkpt>
      <trkpt lat="40.931666" lon="-4.101923">
        <ele>1063.603881</ele>
        <time>2021-09-14T23:04:57.000Z</time>
      </trkpt>
      <trkpt lat="40.931724" lon="-4.101866">
        <ele>1063.648611</ele>
        <time>2021-09-14T23:05:00.000Z</time>
      </trkpt>
      <trkpt lat="40.931747" lon="-4.101812">
        <ele>1063.677611</ele>
        <time>2021-09-14T23:05:02.000Z</time>
      </trkpt>
      <trkpt lat="40.931756" lon="-4.101784">
        <ele>1063.691846</ele>
        <time>2021-09-14T23:05:05.000Z</time>
      </trkpt>
      <trkpt lat="40.931755" lon="-4.101781">
        <ele>1063.693380</ele>
        <time>2021-09-14T23:05:07.000Z</time>
      </trkpt>
      <trkpt lat="40.931618" lon="-4.10165"/>
      <trkpt lat="40.931633" lon="-4.101644">
        <ele>1063.807735</ele>
        <time>2021-09-14T23:07:14.000Z</time>
      </trkpt>
      <trkpt lat="40.931668" lon="-4.10168"/>
      <trkpt lat="40.931817" lon="-4.101735">
        <ele>1063.930964</ele>
        <time>2021-09-14T23:08:36.000Z</time>
      </trkpt>
      <trkpt lat="40.931862" lon="-4.10179"/>
      <trkpt lat="40.931833" lon="-4.101762">
        <ele>1063.991118</ele>
        <time>2021-09-14T23:08:44.000Z</time>
      </trkpt>
      <trkpt lat="40.931692" lon="-4.101753">
        <ele>1064.078528</ele>
        <time>2021-09-14T23:10:03.000Z</time>
      </trkpt>
      <trkpt lat="40.931709" lon="-4.101832">
        <ele>1064.116954</ele>
        <time>2021-09-14T23:10:07.000Z</time>
      </trkpt>
      <trkpt lat="40.931686" lon="-4.101896">
        <ele>1064.150109</ele>
        <time>2021-09-14T23:10:09.000Z</time>
      </trkpt>
      <trkpt lat="40.931685" lon="-4.101941">
        <ele>1064.171169</ele>
        <time>2021-09-14T23:10:10.000Z</time>
      </trkpt>
      <trkpt lat="40.931723" lon="-4.102077">
        <ele>1064.239003</ele>
        <time>2021-09-14T23:10:14.000Z</time>
      </trkpt>
      <trkpt lat="40.931719" lon="-4.102108">
        <ele>1064.253715</ele>
        <time>2021-09-14T23:10:17.000Z</time>
      </trkpt>
      <trkpt lat="40.931715" lon="-4.102183">
        <ele>1064.288888</ele>
        <time>2021-09-14T23:10:30.000Z</time>
      </trkpt>
      <trkpt lat="40.931736" lon="-4.102219">
        <ele>1064.310165</ele>
        <time>2021-09-14T23:10:31.000Z</time>
      </trkpt>
      <trkpt lat="40.931815" lon="-4.102289">
        <ele>1064.369031</ele>
        <time>2021-09-14T23:10:33.000Z</time>
      </trkpt>
      <trkpt lat="40.931953" lon="-4.102411">
        <ele>1064.471789</ele>
        <time>2021-09-14T23:10:36.000Z</time>
      </trkpt>
      <trkpt lat="40.932069" lon="-4.102503">
        <ele>1064.482295</ele>
        <time>2021-09-14T23:10:38.000Z</time>
      </trkpt>
      <trkpt lat="40.932477" lon="-4.102789">
        <ele>1064.358612</ele>
        <time>2021-09-14T23:10:44.000Z</time>
      </trkpt>
      <trkpt lat="40.932552" lon="-4.10283"/>
      <trkpt lat="40.932712" lon="-4.102841">
        <ele>1064.293953</ele>
        <time>2021-09-14T23:10:47.000Z</time>
      </trkpt>
      <trkpt lat="40.93279" lon="-4.102841"/>
      <trkpt lat="40.932914" lon="-4.102932">
        <ele>1064.235074</ele>
        <time>2021-09-14T23:10:50.000Z</time>
      </trkpt>
      <trkpt lat="40.932968" lon="-4.103006">
        <ele>1064.214251</ele>
        <time>2021-09-14T23:10:51.000Z</time>
      </trkpt>
      <trkpt lat="40.933028" lon="-4.103079">
        <ele>1064.192419</ele>
        <time>2021-09-14T23:10:52.000Z</time>
      </trkpt>
      <trkpt lat="40.933172" lon="-4.103199">
        <ele>1064.146833</ele>
        <time>2021-09-14T23:10:54.000Z</time>
      </trkpt>
      <trkpt lat="40.933595" lon="-4.103516">
        <ele>1063.899853</ele>
        <time>2021-09-14T23:11:00.000Z</time>
      </trkpt>
      <trkpt lat="40.933693" lon="-4.103575">
        <ele>1063.304797</ele>
        <time>2021-09-14T23:11:02.000Z</time>
      </trkpt>
      <trkpt lat="40.933806" lon="-4.103584">
        <ele>1062.679098</ele>
        <time>2021-09-14T23:11:04.000Z</time>
      </trkpt>
      <trkpt lat="40.93387" lon="-4.103587"/>
      <trkpt lat="40.933971" lon="-4.103666">
        <ele>1061.676716</ele>
        <time>2021-09-14T23:11:07.000Z</time>
      </trkpt>
      <trkpt lat="40.933985" lon="-4.103741">
        <ele>1061.354129</ele>
        <time>2021-09-14T23:11:08.000Z</time>
      </trkpt>
      <trkpt lat="40.933966" lon="-4.10382"/>
      <trkpt lat="40.933886" lon="-4.103976">
        <ele>1060.220653</ele>
        <time>2021-09-14T23:11:11.000Z</time>
      </trkpt>
      <trkpt lat="40.933846" lon="-4.104062">
        <ele>1059.798952</ele>
        <time>2021-09-14T23:11:12.000Z</time>
      </trkpt>
      <trkpt lat="40.933809" lon="-4.104154">
        <ele>1059.363754</ele>
        <time>2021-09-14T23:11:13.000Z</time>
      </trkpt>
      <trkpt lat="40.933559" lon="-4.104765">
        <ele>1056.462300</ele>
        <time>2021-09-14T23:11:19.000Z</time>
      </trkpt>
      <trkpt lat="40.933327" lon="-4.105348">
        <ele>1053.682059</ele>
        <time>2021-09-14T23:11:24.000Z</time>
      </trkpt>
      <trkpt lat="40.933277" lon="-4.10547"/>
      <trkpt lat="40.933175" lon="-4.105717">
        <ele>1051.790688</ele>
        <time>2021-09-14T23:11:27.000Z</time>
      </trkpt>
      <trkpt lat="40.933023" lon="-4.106092">
        <ele>1049.875566</ele>
        <time>2021-09-14T23:11:30.000Z</time>
      </trkpt>
      <trkpt lat="40.932922" lon="-4.106333">
        <ele>1048.635323</ele>
        <time>2021-09-14T23:11:32.000Z</time>
      </trkpt>
      <trkpt lat="40.932876" lon="-4.106452">
        <ele>1048.033768</ele>
        <time>2021-09-14T23:11:33.000Z</time>
      </trkpt>
      <trkpt lat="40.932832" lon="-4.106569">
        <ele>1047.445616</ele>
        <time>2021-09-14T23:11:34.000Z</time>
      </trkpt>
      <trkpt lat="40.932744" lon="-4.106791">
        <ele>1046.317400</ele>
        <time>2021-09-14T23:11:36.000Z</time>
      </trkpt>
      <trkpt lat="40.932659" lon="-4.107"/>
      <trkpt lat="40.932618" lon="-4.1071"/>
      <trkpt lat="40.93258" lon="-4.1072"/>
      <trkpt lat="40.932556" lon="-4.107309">
        <ele>1043.722531</ele>
        <time>2021-09-14T23:11:41.000Z</time>
      </trkpt>
      <trkpt lat="40.932551" lon="-4.107423">
        <ele>1043.211457</ele>
        <time>2021-09-14T23:11:42.000Z</time>
      </trkpt>
      <trkpt lat="40.932616" lon="-4.107639">
        <ele>1042.183725</ele>
        <time>2021-09-14T23:11:44.000Z</time>
      </trkpt>
      <trkpt lat="40.932671" lon="-4.107742">
        <ele>1041.626194</ele>
        <time>2021-09-14T23:11:45.000Z</time>
      </trkpt>
      <trkpt lat="40.932731" lon="-4.107846">
        <ele>1041.047774</ele>
        <time>2021-09-14T23:11:46.000Z</time>
      </trkpt>
      <trkpt lat="40.932923" lon="-4.108162">
        <ele>1039.255285</ele>
        <time>2021-09-14T23:11:49.000Z</time>
      </trkpt>
      <trkpt lat="40.932993" lon="-4.108266">
        <ele>1038.639598</ele>
        <time>2021-09-14T23:11:50.000Z</time>
      </trkpt>
      <trkpt lat="40.933207" lon="-4.108588">
        <ele>1036.743928</ele>
        <time>2021-09-14T23:11:53.000Z</time>
      </trkpt>
      <trkpt lat="40.933289" lon="-4.108681">
        <ele>1036.112129</ele>
        <time>2021-09-14T23:11:54.000Z</time>
      </trkpt>
      <trkpt lat="40.933378" lon="-4.108759">
        <ele>1035.487603</ele>
        <time>2021-09-14T23:11:55.000Z</time>
      </trkpt>
      <trkpt lat="40.933562" lon="-4.108908">
        <ele>1034.225554</ele>
        <time>2021-09-14T23:11:57.000Z</time>
      </trkpt>
      <trkpt lat="40.933721" lon="-4.109035">
        <ele>1033.139009</ele>
        <time>2021-09-14T23:11:59.000Z</time>
      </trkpt>
      <trkpt lat="40.933844" lon="-4.109108">
        <ele>1032.443180</ele>
        <time>2021-09-14T23:12:01.000Z</time>
      </trkpt>
      <trkpt lat="40.933904" lon="-4.109127">
        <ele>1032.150204</ele>
        <time>2021-09-14T23:12:02.000Z</time>
      </trkpt>
      <trkpt lat="40.934039" lon="-4.109148">
        <ele>1031.504689</ele>
        <time>2021-09-14T23:12:04.000Z</time>
      </trkpt>
      <trkpt lat="40.934108" lon="-4.109168">
        <ele>1031.169249</ele>
        <time>2021-09-14T23:12:05.000Z</time>
      </trkpt>
      <trkpt lat="40.934162" lon="-4.109215">
        <ele>1030.862338</ele>
        <time>2021-09-14T23:12:06.000Z</time>
      </trkpt>
      <trkpt lat="40.934191" lon="-4.109291">
        <ele>1030.556871</ele>
        <time>2021-09-14T23:12:07.000Z</time>
      </trkpt>
      <trkpt lat="40.9342" lon="-4.109385"/>
      <trkpt lat="40.934195" lon="-4.109485">
        <ele>1029.857389</ele>
        <time>2021-09-14T23:12:09.000Z</time>
      </trkpt>
      <trkpt lat="40.934193" lon="-4.109588">
        <ele>1029.487741</ele>
        <time>2021-09-14T23:12:10.000Z</time>
      </trkpt>
      <trkpt lat="40.934218" lon="-4.109684">
        <ele>1029.123440</ele>
        <time>2021-09-14T23:12:11.000Z</time>
      </trkpt>
      <trkpt lat="40.934265" lon="-4.109771">
        <ele>1028.739723</ele>
        <time>2021-09-14T23:12:12.000Z</time>
      </trkpt>
      <trkpt lat="40.934323" lon="-4.109853">
        <ele>1028.336721</ele>
        <time>2021-09-14T23:12:13.000Z</time>
      </trkpt>
      <trkpt lat="40.934389" lon="-4.109937">
        <ele>1027.901916</ele>
        <time>2021-09-14T23:12:14.000Z</time>
      </trkpt>
      <trkpt lat="40.934524" lon="-4.110116">
        <ele>1026.994494</ele>
        <time>2021-09-14T23:12:16.000Z</time>
      </trkpt>
      <trkpt lat="40.934727" lon="-4.110394">
        <ele>1025.607386</ele>
        <time>2021-09-14T23:12:19.000Z</time>
      </trkpt>
      <trkpt lat="40.935016" lon="-4.110764">
        <ele>1024.107995</ele>
        <time>2021-09-14T23:12:23.000Z</time>
      </trkpt>
      <trkpt lat="40.935091" lon="-4.110861">
        <ele>1023.948185</ele>
        <time>2021-09-14T23:12:24.000Z</time>
      </trkpt>
      <trkpt lat="40.935236" lon="-4.111048">
        <ele>1023.639648</ele>
        <time>2021-09-14T23:12:26.000Z</time>
      </trkpt>
      <trkpt lat="40.935495" lon="-4.111381">
        <ele>1023.089359</ele>
        <time>2021-09-14T23:12:30.000Z</time>
      </trkpt>
      <trkpt lat="40.935593" lon="-4.111509">
        <ele>1022.879530</ele>
        <time>2021-09-14T23:12:32.000Z</time>
      </trkpt>
      <trkpt lat="40.935722" lon="-4.111674">
        <ele>1022.606135</ele>
        <time>2021-09-14T23:12:35.000Z</time>
      </trkpt>
      <trkpt lat="40.935765" lon="-4.111727">
        <ele>1022.516588</ele>
        <time>2021-09-14T23:12:36.000Z</time>
      </trkpt>
      <trkpt lat="40.935879" lon="-4.111868">
        <ele>1022.278801</ele>
        <time>2021-09-14T23:12:39.000Z</time>
      </trkpt>
      <trkpt lat="40.935906" lon="-4.111903">
        <ele>1022.221205</ele>
        <time>2021-09-14T23:12:40.000Z</time>
      </trkpt>
      <trkpt lat="40.935957" lon="-4.111963">
        <ele>1022.117215</ele>
        <time>2021-09-14T23:12:42.000Z</time>
      </trkpt>
      <trkpt lat="40.936033" lon="-4.112049">
        <ele>1021.964831</ele>
        <time>2021-09-14T23:12:46.000Z</time>
      </trkpt>
      <trkpt lat="40.936085" lon="-4.11211"/>
      <trkpt lat="40.936155" lon="-4.112176">
        <ele>1021.727954</ele>
        <time>2021-09-14T23:12:56.000Z</time>
      </trkpt>
      <trkpt lat="40.936169" lon="-4.112183">
        <ele>1021.705145</ele>
        <time>2021-09-14T23:12:57.000Z</time>
      </trkpt>
      <trkpt lat="40.936265" lon="-4.11224"/>
      <trkpt lat="40.936386" lon="-4.11246"/>
      <trkpt lat="40.936402" lon="-4.112515">
        <ele>1021.313914</ele>
        <time>2021-09-14T23:13:05.000Z</time>
      </trkpt>
      <trkpt lat="40.936444" lon="-4.112679">
        <ele>1021.190049</ele>
        <time>2021-09-14T23:13:09.000Z</time>
      </trkpt>
      <trkpt lat="40.93646" lon="-4.112733"/>
      <trkpt lat="40.936476" lon="-4.112769">
        <ele>1021.118683</ele>
        <time>2021-09-14T23:13:15.000Z</time>
      </trkpt>
      <trkpt lat="40.936492" lon="-4.112805">
        <ele>1021.088807</ele>
        <time>2021-09-14T23:13:16.000Z</time>
      </trkpt>
      <trkpt lat="40.936634" lon="-4.113066">
        <ele>1020.858740</ele>
        <time>2021-09-14T23:13:20.000Z</time>
      </trkpt>
      <trkpt lat="40.936879" lon="-4.113306">
        <ele>1020.570151</ele>
        <time>2021-09-14T23:13:24.000Z</time>
      </trkpt>
      <trkpt lat="40.937233" lon="-4.113582">
        <ele>1020.181149</ele>
        <time>2021-09-14T23:13:29.000Z</time>
      </trkpt>
      <trkpt lat="40.937293" lon="-4.113652">
        <ele>1020.105423</ele>
        <time>2021-09-14T23:13:30.000Z</time>
      </trkpt>
      <trkpt lat="40.937344" lon="-4.113833">
        <ele>1019.967245</ele>
        <time>2021-09-14T23:13:32.000Z</time>
      </trkpt>
      <trkpt lat="40.937274" lon="-4.113923">
        <ele>1019.874849</ele>
        <time>2021-09-14T23:13:34.000Z</time>
      </trkpt>
      <trkpt lat="40.937074" lon="-4.113886">
        <ele>1019.475953</ele>
        <time>2021-09-14T23:13:37.000Z</time>
      </trkpt>
      <trkpt lat="40.936915" lon="-4.113861">
        <ele>1019.143148</ele>
        <time>2021-09-14T23:13:39.000Z</time>
      </trkpt>
      <trkpt lat="40.936577" lon="-4.1138"/>
      <trkpt lat="40.936491" lon="-4.113786">
        <ele>1018.254016</ele>
        <time>2021-09-14T23:13:44.000Z</time>
      </trkpt>
      <trkpt lat="40.935979" lon="-4.113695">
        <ele>1017.180272</ele>
        <time>2021-09-14T23:13:50.000Z</time>
      </trkpt>
      <trkpt lat="40.935691" lon="-4.113653">
        <ele>1016.578041</ele>
        <time>2021-09-14T23:13:54.000Z</time>
      </trkpt>
      <trkpt lat="40.935625" lon="-4.11364"/>
      <trkpt lat="40.935515" lon="-4.113622">
        <ele>1016.208973</ele>
        <time>2021-09-14T23:13:57.000Z</time>
      </trkpt>
      <trkpt lat="40.935476" lon="-4.113627">
        <ele>1016.127532</ele>
        <time>2021-09-14T23:13:58.000Z</time>
      </trkpt>
      <trkpt lat="40.935429" lon="-4.113662">
        <ele>1015.972854</ele>
        <time>2021-09-14T23:14:00.000Z</time>
      </trkpt>
      <trkpt lat="40.935385" lon="-4.113672">
        <ele>1015.841867</ele>
        <time>2021-09-14T23:14:02.000Z</time>
      </trkpt>
      <trkpt lat="40.935352" lon="-4.113667">
        <ele>1015.744411</ele>
        <time>2021-09-14T23:14:04.000Z</time>
      </trkpt>
      <trkpt lat="40.935342" lon="-4.113666">
        <ele>1015.714987</ele>
        <time>2021-09-14T23:14:05.000Z</time>
      </trkpt>
      <trkpt lat="40.935343" lon="-4.113667">
        <ele>1015.711310</ele>
        <time>2021-09-14T23:14:06.000Z</time>
      </trkpt>
      <trkpt lat="40.935347" lon="-4.113664">
        <ele>1015.697821</ele>
        <time>2021-09-14T23:14:07.000Z</time>
      </trkpt>
      <trkpt lat="40.935424" lon="-4.113528">
        <ele>1015.321110</ele>
        <time>2021-09-14T23:17:21.000Z</time>
      </trkpt>
      <trkpt lat="40.935359" lon="-4.113491">
        <ele>1015.113511</ele>
        <time>2021-09-14T23:17:23.000Z</time>
      </trkpt>
      <trkpt lat="40.93525" lon="-4.113484"/>
      <trkpt lat="40.935123" lon="-4.113506">
        <ele>1014.417523</ele>
        <time>2021-09-14T23:17:27.000Z</time>
      </trkpt>
      <trkpt lat="40.934639" lon="-4.113627">
        <ele>1012.972340</ele>
        <time>2021-09-14T23:17:34.000Z</time>
      </trkpt>
      <trkpt lat="40.934358" lon="-4.113766">
        <ele>1012.092186</ele>
        <time>2021-09-14T23:17:38.000Z</time>
      </trkpt>
      <trkpt lat="40.934221" lon="-4.113856">
        <ele>1011.643442</ele>
        <time>2021-09-14T23:17:40.000Z</time>
      </trkpt>
      <trkpt lat="40.93373" lon="-4.11413"/>
      <trkpt lat="40.933196" lon="-4.114434">
        <ele>1007.815063</ele>
        <time>2021-09-14T23:17:54.000Z</time>
      </trkpt>
      <trkpt lat="40.932785" lon="-4.114663">
        <ele>1006.210011</ele>
        <time>2021-09-14T23:17:59.000Z</time>
      </trkpt>
      <trkpt lat="40.932455" lon="-4.11486"/>
      <trkpt lat="40.932135" lon="-4.115074">
        <ele>1004.123041</ele>
        <time>2021-09-14T23:18:07.000Z</time>
      </trkpt>
      <trkpt lat="40.931982" lon="-4.115183">
        <ele>1003.919360</ele>
        <time>2021-09-14T23:18:09.000Z</time>
      </trkpt>
      <trkpt lat="40.93183" lon="-4.115292"/>
      <trkpt lat="40.931303" lon="-4.115652">
        <ele>1003.021516</ele>
        <time>2021-09-14T23:18:18.000Z</time>
      </trkpt>
      <trkpt lat="40.931157" lon="-4.115747">
        <ele>1002.830806</ele>
        <time>2021-09-14T23:18:20.000Z</time>
      </trkpt>
      <trkpt lat="40.930737" lon="-4.116022">
        <ele>1002.281518</ele>
        <time>2021-09-14T23:18:26.000Z</time>
      </trkpt>
      <trkpt lat="40.930439" lon="-4.116213">
        <ele>1003.874038</ele>
        <time>2021-09-14T23:18:31.000Z</time>
      </trkpt>
      <trkpt lat="40.930382" lon="-4.116222">
        <ele>1004.171083</ele>
        <time>2021-09-14T23:18:32.000Z</time>
      </trkpt>
      <trkpt lat="40.93033" lon="-4.116203"/>
      <trkpt lat="40.93024" lon="-4.116039"/>
      <trkpt lat="40.930215" lon="-4.115983">
        <ele>1005.496965</ele>
        <time>2021-09-14T23:18:37.000Z</time>
      </trkpt>
      <trkpt lat="40.930151" lon="-4.115913">
        <ele>1005.926579</ele>
        <time>2021-09-14T23:18:39.000Z</time>
      </trkpt>
      <trkpt lat="40.930005" lon="-4.115922">
        <ele>1006.682892</ele>
        <time>2021-09-14T23:18:43.000Z</time>
      </trkpt>
      <trkpt lat="40.92993" lon="-4.115982"/>
      <trkpt lat="40.92983" lon="-4.116061"/>
      <trkpt lat="40.929683" lon="-4.116191">
        <ele>1008.653824</ele>
        <time>2021-09-14T23:18:53.000Z</time>
      </trkpt>
      <trkpt lat="40.929658" lon="-4.116219">
        <ele>1008.823288</ele>
        <time>2021-09-14T23:18:54.000Z</time>
      </trkpt>
      <trkpt lat="40.929572" lon="-4.116305">
        <ele>1009.381035</ele>
        <time>2021-09-14T23:18:57.000Z</time>
      </trkpt>
      <trkpt lat="40.929456" lon="-4.116426">
        <ele>1010.145289</ele>
        <time>2021-09-14T23:19:01.000Z</time>
      </trkpt>
      <trkpt lat="40.929349" lon="-4.116541">
        <ele>1010.858521</ele>
        <time>2021-09-14T23:19:05.000Z</time>
      </trkpt>
      <trkpt lat="40.929246" lon="-4.116663">
        <ele>1011.573783</ele>
        <time>2021-09-14T23:19:09.000Z</time>
      </trkpt>
      <trkpt lat="40.929223" lon="-4.116696">
        <ele>1011.749882</ele>
        <time>2021-09-14T23:19:10.000Z</time>
      </trkpt>
      <trkpt lat="40.929162" lon="-4.116809">
        <ele>1012.294611</ele>
        <time>2021-09-14T23:19:13.000Z</time>
      </trkpt>
      <trkpt lat="40.929088" lon="-4.116955">
        <ele>1012.984190</ele>
        <time>2021-09-14T23:19:17.000Z</time>
      </trkpt>
      <trkpt lat="40.92907" lon="-4.116991"/>
      <trkpt lat="40.928985" lon="-4.117171">
        <ele>1013.986087</ele>
        <time>2021-09-14T23:19:23.000Z</time>
      </trkpt>
      <trkpt lat="40.92895" lon="-4.117235"/>
      <trkpt lat="40.92893" lon="-4.11726"/>
      <trkpt lat="40.928849" lon="-4.117269">
        <ele>1014.860780</ele>
        <time>2021-09-14T23:19:29.000Z</time>
      </trkpt>
      <trkpt lat="40.928787" lon="-4.117231">
        <ele>1015.215487</ele>
        <time>2021-09-14T23:19:31.000Z</time>
      </trkpt>
      <trkpt lat="40.928757" lon="-4.117207">
        <ele>1015.397470</ele>
        <time>2021-09-14T23:19:32.000Z</time>
      </trkpt>
      <trkpt lat="40.928669" lon="-4.117134">
        <ele>1015.936634</ele>
        <time>2021-09-14T23:19:35.000Z</time>
      </trkpt>
      <trkpt lat="40.928528" lon="-4.117008">
        <ele>1016.819851</ele>
        <time>2021-09-14T23:19:40.000Z</time>
      </trkpt>
      <trkpt lat="40.928433" lon="-4.116919">
        <ele>1017.424086</ele>
        <time>2021-09-14T23:19:44.000Z</time>
      </trkpt>
      <trkpt lat="40.928355" lon="-4.116862">
        <ele>1017.886643</ele>
        <time>2021-09-14T23:19:47.000Z</time>
      </trkpt>
      <trkpt lat="40.928234" lon="-4.116814">
        <ele>1018.542422</ele>
        <time>2021-09-14T23:19:51.000Z</time>
      </trkpt>
      <trkpt lat="40.928156" lon="-4.116897">
        <ele>1019.061998</ele>
        <time>2021-09-14T23:19:54.000Z</time>
      </trkpt>
      <trkpt lat="40.928129" lon="-4.116922">
        <ele>1019.233063</ele>
        <time>2021-09-14T23:19:55.000Z</time>
      </trkpt>
      <trkpt lat="40.928064" lon="-4.116962">
        <ele>1019.605201</ele>
        <time>2021-09-14T23:19:57.000Z</time>
      </trkpt>
      <trkpt lat="40.928029" lon="-4.116976">
        <ele>1019.795020</ele>
        <time>2021-09-14T23:19:58.000Z</time>
      </trkpt>
      <trkpt lat="40.927954" lon="-4.116986">
        <ele>1020.186353</ele>
        <time>2021-09-14T23:20:00.000Z</time>
      </trkpt>
      <trkpt lat="40.927883" lon="-4.116967">
        <ele>1020.562408</ele>
        <time>2021-09-14T23:20:02.000Z</time>
      </trkpt>
      <trkpt lat="40.927826" lon="-4.116908">
        <ele>1020.883734</ele>
        <time>2021-09-14T23:20:04.000Z</time>
      </trkpt>
      <trkpt lat="40.927761" lon="-4.116709">
        <ele>1020.371810</ele>
        <time>2021-09-14T23:20:09.000Z</time>
      </trkpt>
      <trkpt lat="40.92773" lon="-4.11656"/>
      <trkpt lat="40.927714" lon="-4.116553">
        <ele>1019.954219</ele>
        <time>2021-09-14T23:20:15.000Z</time>
      </trkpt>
      <trkpt lat="40.92766" lon="-4.116572"/>
      <trkpt lat="40.927487" lon="-4.116631">
        <ele>1019.221256</ele>
        <time>2021-09-14T23:20:21.000Z</time>
      </trkpt>
      <trkpt lat="40.927431" lon="-4.116643">
        <ele>1019.043961</ele>
        <time>2021-09-14T23:20:22.000Z</time>
      </trkpt>
      <trkpt lat="40.927374" lon="-4.116661">
        <ele>1018.860819</ele>
        <time>2021-09-14T23:20:23.000Z</time>
      </trkpt>
      <trkpt lat="40.927134" lon="-4.116728">
        <ele>1018.094246</ele>
        <time>2021-09-14T23:20:27.000Z</time>
      </trkpt>
      <trkpt lat="40.926799" lon="-4.11674"/>
      <trkpt lat="40.926733" lon="-4.116765">
        <ele>1016.832339</ele>
        <time>2021-09-14T23:20:33.000Z</time>
      </trkpt>
      <trkpt lat="40.926536" lon="-4.116808">
        <ele>1016.208341</ele>
        <time>2021-09-14T23:20:36.000Z</time>
      </trkpt>
      <trkpt lat="40.926483" lon="-4.116802">
        <ele>1016.042095</ele>
        <time>2021-09-14T23:20:37.000Z</time>
      </trkpt>
      <trkpt lat="40.926404" lon="-4.116824">
        <ele>1015.789791</ele>
        <time>2021-09-14T23:20:39.000Z</time>
      </trkpt>
      <trkpt lat="40.926369" lon="-4.116857">
        <ele>1015.655489</ele>
        <time>2021-09-14T23:20:40.000Z</time>
      </trkpt>
      <trkpt lat="40.926251" lon="-4.116956">
        <ele>1015.222644</ele>
        <time>2021-09-14T23:20:43.000Z</time>
      </trkpt>
      <trkpt lat="40.926212" lon="-4.116947">
        <ele>1015.106247</ele>
        <time>2021-09-14T23:20:44.000Z</time>
      </trkpt>
      <trkpt lat="40.926172" lon="-4.116928">
        <ele>1014.981294</ele>
        <time>2021-09-14T23:20:45.000Z</time>
      </trkpt>
      <trkpt lat="40.926127" lon="-4.11691"/>
      <trkpt lat="40.926078" lon="-4.116901">
        <ele>1014.697624</ele>
        <time>2021-09-14T23:20:47.000Z</time>
      </trkpt>
      <trkpt lat="40.925847" lon="-4.116885">
        <ele>1014.017509</ele>
        <time>2021-09-14T23:20:51.000Z</time>
      </trkpt>
      <trkpt lat="40.925659" lon="-4.116919">
        <ele>1013.459616</ele>
        <time>2021-09-14T23:20:54.000Z</time>
      </trkpt>
      <trkpt lat="40.925536" lon="-4.116889">
        <ele>1013.091882</ele>
        <time>2021-09-14T23:20:56.000Z</time>
      </trkpt>
      <trkpt lat="40.925474" lon="-4.116873">
        <ele>1012.906157</ele>
        <time>2021-09-14T23:20:57.000Z</time>
      </trkpt>
      <trkpt lat="40.92535" lon="-4.116854"/>
      <trkpt lat="40.92529" lon="-4.116834"/>
      <trkpt lat="40.925055" lon="-4.116737">
        <ele>1011.633447</ele>
        <time>2021-09-14T23:21:04.000Z</time>
      </trkpt>
      <trkpt lat="40.924988" lon="-4.11673"/>
      <trkpt lat="40.924918" lon="-4.116731">
        <ele>1011.230015</ele>
        <time>2021-09-14T23:21:06.000Z</time>
      </trkpt>
      <trkpt lat="40.924614" lon="-4.116779">
        <ele>1010.329857</ele>
        <time>2021-09-14T23:21:10.000Z</time>
      </trkpt>
      <trkpt lat="40.924468" lon="-4.116829">
        <ele>1009.854395</ele>
        <time>2021-09-14T23:21:12.000Z</time>
      </trkpt>
      <trkpt lat="40.924319" lon="-4.116845">
        <ele>1009.284475</ele>
        <time>2021-09-14T23:21:14.000Z</time>
      </trkpt>
      <trkpt lat="40.924169" lon="-4.116843">
        <ele>1008.712579</ele>
        <time>2021-09-14T23:21:16.000Z</time>
      </trkpt>
      <trkpt lat="40.924094" lon="-4.116851">
        <ele>1008.425719</ele>
        <time>2021-09-14T23:21:17.000Z</time>
      </trkpt>
      <trkpt lat="40.923952" lon="-4.11689"/>
      <trkpt lat="40.923809" lon="-4.116926">
        <ele>1007.317863</ele>
        <time>2021-09-14T23:21:21.000Z</time>
      </trkpt>
      <trkpt lat="40.923731" lon="-4.116935">
        <ele>1007.019364</ele>
        <time>2021-09-14T23:21:22.000Z</time>
      </trkpt>
      <trkpt lat="40.92366" lon="-4.116939"/>
      <trkpt lat="40.92356" lon="-4.116967"/>
      <trkpt lat="40.923518" lon="-4.116984">
        <ele>1006.191309</ele>
        <time>2021-09-14T23:21:26.000Z</time>
      </trkpt>
      <trkpt lat="40.923367" lon="-4.116984">
        <ele>1005.615630</ele>
        <time>2021-09-14T23:21:29.000Z</time>
      </trkpt>
      <trkpt lat="40.92332" lon="-4.116987"/>
      <trkpt lat="40.923285" lon="-4.116989">
        <ele>1005.302677</ele>
        <time>2021-09-14T23:21:31.000Z</time>
      </trkpt>
      <trkpt lat="40.923243" lon="-4.116985">
        <ele>1005.142140</ele>
        <time>2021-09-14T23:21:33.000Z</time>
      </trkpt>
      <trkpt lat="40.923229" lon="-4.116974">
        <ele>1005.080069</ele>
        <time>2021-09-14T23:21:34.000Z</time>
      </trkpt>
      <trkpt lat="40.923214" lon="-4.116963">
        <ele>1005.014690</ele>
        <time>2021-09-14T23:21:36.000Z</time>
      </trkpt>
      <trkpt lat="40.923216" lon="-4.116962">
        <ele>1005.006539</ele>
        <time>2021-09-14T23:21:37.000Z</time>
      </trkpt>
      <trkpt lat="40.923133" lon="-4.11695"/>
      <trkpt lat="40.923107" lon="-4.11698"/>
      <trkpt lat="40.923072" lon="-4.117004">
        <ele>1004.406436</ele>
        <time>2021-09-14T23:21:50.000Z</time>
      </trkpt>
      <trkpt lat="40.922976" lon="-4.117061">
        <ele>1004.005297</ele>
        <time>2021-09-14T23:21:54.000Z</time>
      </trkpt>
      <trkpt lat="40.92293" lon="-4.117107"/>
      <trkpt lat="40.922872" lon="-4.117144">
        <ele>1003.540023</ele>
        <time>2021-09-14T23:21:58.000Z</time>
      </trkpt>
      <trkpt lat="40.922619" lon="-4.117203">
        <ele>1004.276407</ele>
        <time>2021-09-14T23:22:05.000Z</time>
      </trkpt>
      <trkpt lat="40.922308" lon="-4.117195">
        <ele>1006.619014</ele>
        <time>2021-09-14T23:22:13.000Z</time>
      </trkpt>
      <trkpt lat="40.922117" lon="-4.117285">
        <ele>1008.145903</ele>
        <time>2021-09-14T23:22:18.000Z</time>
      </trkpt>
      <trkpt lat="40.922086" lon="-4.117319">
        <ele>1008.449116</ele>
        <time>2021-09-14T23:22:19.000Z</time>
      </trkpt>
      <trkpt lat="40.922058" lon="-4.117357">
        <ele>1008.751151</ele>
        <time>2021-09-14T23:22:20.000Z</time>
      </trkpt>
      <trkpt lat="40.921958" lon="-4.11752"/>
      <trkpt lat="40.921867" lon="-4.117692">
        <ele>1011.140788</ele>
        <time>2021-09-14T23:22:29.000Z</time>
      </trkpt>
      <trkpt lat="40.921814" lon="-4.117857">
        <ele>1012.161041</ele>
        <time>2021-09-14T23:22:34.000Z</time>
      </trkpt>
      <trkpt lat="40.921767" lon="-4.117943">
        <ele>1012.765016</ele>
        <time>2021-09-14T23:22:37.000Z</time>
      </trkpt>
      <trkpt lat="40.921744" lon="-4.117999">
        <ele>1013.127718</ele>
        <time>2021-09-14T23:22:39.000Z</time>
      </trkpt>
      <trkpt lat="40.921732" lon="-4.118025">
        <ele>1013.301089</ele>
        <time>2021-09-14T23:22:40.000Z</time>
      </trkpt>
      <trkpt lat="40.921707" lon="-4.118079">
        <ele>1013.661470</ele>
        <time>2021-09-14T23:22:42.000Z</time>
      </trkpt>
      <trkpt lat="40.921693" lon="-4.118104">
        <ele>1013.838545</ele>
        <time>2021-09-14T23:22:43.000Z</time>
      </trkpt>
      <trkpt lat="40.921646" lon="-4.118172">
        <ele>1014.362971</ele>
        <time>2021-09-14T23:22:46.000Z</time>
      </trkpt>
      <trkpt lat="40.921589" lon="-4.118232">
        <ele>1014.911468</ele>
        <time>2021-09-14T23:22:49.000Z</time>
      </trkpt>
      <trkpt lat="40.921508" lon="-4.118291">
        <ele>1015.607776</ele>
        <time>2021-09-14T23:22:53.000Z</time>
      </trkpt>
      <trkpt lat="40.92144" lon="-4.118321"/>
      <trkpt lat="40.921416" lon="-4.118336">
        <ele>1016.347482</ele>
        <time>2021-09-14T23:22:57.000Z</time>
      </trkpt>
      <trkpt lat="40.921321" lon="-4.118432">
        <ele>1017.029130</ele>
        <time>2021-09-14T23:23:02.000Z</time>
      </trkpt>
      <trkpt lat="40.921238" lon="-4.118512">
        <ele>1017.503154</ele>
        <time>2021-09-14T23:23:06.000Z</time>
      </trkpt>
      <trkpt lat="40.921168" lon="-4.118595">
        <ele>1017.937041</ele>
        <time>2021-09-14T23:23:10.000Z</time>
      </trkpt>
      <trkpt lat="40.921087" lon="-4.118729">
        <ele>1018.535643</ele>
        <time>2021-09-14T23:23:15.000Z</time>
      </trkpt>
      <trkpt lat="40.921038" lon="-4.118803">
        <ele>1018.878871</ele>
        <time>2021-09-14T23:23:18.000Z</time>
      </trkpt>
      <trkpt lat="40.921004" lon="-4.118838">
        <ele>1019.077726</ele>
        <time>2021-09-14T23:23:20.000Z</time>
      </trkpt>
      <trkpt lat="40.920948" lon="-4.118907">
        <ele>1019.430953</ele>
        <time>2021-09-14T23:23:24.000Z</time>
      </trkpt>
      <trkpt lat="40.920931" lon="-4.118928">
        <ele>1019.538310</ele>
        <time>2021-09-14T23:23:25.000Z</time>
      </trkpt>
      <trkpt lat="40.920834" lon="-4.119038">
        <ele>1020.128027</ele>
        <time>2021-09-14T23:23:30.000Z</time>
      </trkpt>
      <trkpt lat="40.920813" lon="-4.119062">
        <ele>1020.256120</ele>
        <time>2021-09-14T23:23:31.000Z</time>
      </trkpt>
      <trkpt lat="40.920734" lon="-4.119175">
        <ele>1020.793139</ele>
        <time>2021-09-14T23:23:35.000Z</time>
      </trkpt>
      <trkpt lat="40.92068" lon="-4.119266"/>
      <trkpt lat="40.920591" lon="-4.119388">
        <ele>1021.788315</ele>
        <time>2021-09-14T23:23:42.000Z</time>
      </trkpt>
      <trkpt lat="40.920511" lon="-4.119477">
        <ele>1022.270795</ele>
        <time>2021-09-14T23:23:45.000Z</time>
      </trkpt>
      <trkpt lat="40.920277" lon="-4.11974"/>
      <trkpt lat="40.920249" lon="-4.119773">
        <ele>1023.861162</ele>
        <time>2021-09-14T23:23:54.000Z</time>
      </trkpt>
      <trkpt lat="40.919962" lon="-4.120092">
        <ele>1025.275863</ele>
        <time>2021-09-14T23:24:04.000Z</time>
      </trkpt>
      <trkpt lat="40.919931" lon="-4.120117">
        <ele>1025.356031</ele>
        <time>2021-09-14T23:24:05.000Z</time>
      </trkpt>
      <trkpt lat="40.919743" lon="-4.120265">
        <ele>1025.839098</ele>
        <time>2021-09-14T23:24:11.000Z</time>
      </trkpt>
      <trkpt lat="40.919694" lon="-4.120318">
        <ele>1025.978850</ele>
        <time>2021-09-14T23:24:13.000Z</time>
      </trkpt>
      <trkpt lat="40.919575" lon="-4.120473">
        <ele>1026.347573</ele>
        <time>2021-09-14T23:24:18.000Z</time>
      </trkpt>
      <trkpt lat="40.919546" lon="-4.120499">
        <ele>1026.424927</ele>
        <time>2021-09-14T23:24:19.000Z</time>
      </trkpt>
      <trkpt lat="40.919395" lon="-4.120628">
        <ele>1026.821829</ele>
        <time>2021-09-14T23:24:24.000Z</time>
      </trkpt>
      <trkpt lat="40.91933" lon="-4.120679"/>
      <trkpt lat="40.919324" lon="-4.120679">
        <ele>1027.001953</ele>
        <time>2021-09-14T23:24:29.000Z</time>
      </trkpt>
      <trkpt lat="40.919304" lon="-4.120704">
        <ele>1027.062706</ele>
        <time>2021-09-14T23:26:24.000Z</time>
      </trkpt>
      <trkpt lat="40.919287" lon="-4.120718">
        <ele>1027.106923</ele>
        <time>2021-09-14T23:26:25.000Z</time>
      </trkpt>
      <trkpt lat="40.919115" lon="-4.120856">
        <ele>1027.551110</ele>
        <time>2021-09-14T23:26:32.000Z</time>
      </trkpt>
      <trkpt lat="40.918962" lon="-4.120994">
        <ele>1027.959996</ele>
        <time>2021-09-14T23:26:38.000Z</time>
      </trkpt>
      <trkpt lat="40.918955" lon="-4.121031">
        <ele>1028.023644</ele>
        <time>2021-09-14T23:26:39.000Z</time>
      </trkpt>
      <trkpt lat="40.91893" lon="-4.12129"/>
      <trkpt lat="40.918916" lon="-4.121354">
        <ele>1028.570530</ele>
        <time>2021-09-14T23:26:45.000Z</time>
      </trkpt>
      <trkpt lat="40.918823" lon="-4.12152"/>
      <trkpt lat="40.918657" lon="-4.121624">
        <ele>1029.102895</ele>
        <time>2021-09-14T23:26:52.000Z</time>
      </trkpt>
      <trkpt lat="40.918589" lon="-4.121651">
        <ele>1029.165353</ele>
        <time>2021-09-14T23:26:54.000Z</time>
      </trkpt>
      <trkpt lat="40.918477" lon="-4.121668">
        <ele>1029.264533</ele>
        <time>2021-09-14T23:26:57.000Z</time>
      </trkpt>
      <trkpt lat="40.918244" lon="-4.121688">
        <ele>1029.469949</ele>
        <time>2021-09-14T23:27:02.000Z</time>
      </trkpt>
      <trkpt lat="40.918163" lon="-4.121745">
        <ele>1029.550658</ele>
        <time>2021-09-14T23:27:04.000Z</time>
      </trkpt>
      <trkpt lat="40.918088" lon="-4.121818">
        <ele>1029.632566</ele>
        <time>2021-09-14T23:27:06.000Z</time>
      </trkpt>
      <trkpt lat="40.917845" lon="-4.122034">
        <ele>1029.890097</ele>
        <time>2021-09-14T23:27:12.000Z</time>
      </trkpt>
      <trkpt lat="40.917802" lon="-4.122066">
        <ele>1029.933498</ele>
        <time>2021-09-14T23:27:13.000Z</time>
      </trkpt>
      <trkpt lat="40.917632" lon="-4.122144">
        <ele>1030.091793</ele>
        <time>2021-09-14T23:27:17.000Z</time>
      </trkpt>
      <trkpt lat="40.917545" lon="-4.122132">
        <ele>1030.168747</ele>
        <time>2021-09-14T23:27:19.000Z</time>
      </trkpt>
      <trkpt lat="40.917461" lon="-4.122088">
        <ele>1030.248225</ele>
        <time>2021-09-14T23:27:21.000Z</time>
      </trkpt>
      <trkpt lat="40.917361" lon="-4.12192"/>
      <trkpt lat="40.91735" lon="-4.121873"/>
      <trkpt lat="40.9173" lon="-4.121615"/>
      <trkpt lat="40.917267" lon="-4.121533">
        <ele>1030.621651</ele>
        <time>2021-09-14T23:27:36.000Z</time>
      </trkpt>
      <trkpt lat="40.917266" lon="-4.121532">
        <ele>1030.622386</ele>
        <time>2021-09-14T23:27:37.000Z</time>
      </trkpt>
      <trkpt lat="40.917217" lon="-4.121543">
        <ele>1030.651558</ele>
        <time>2021-09-14T23:31:36.000Z</time>
      </trkpt>
      <trkpt lat="40.917163" lon="-4.121546">
        <ele>1030.683282</ele>
        <time>2021-09-14T23:31:38.000Z</time>
      </trkpt>
      <trkpt lat="40.917091" lon="-4.121565">
        <ele>1030.726375</ele>
        <time>2021-09-14T23:31:40.000Z</time>
      </trkpt>
      <trkpt lat="40.916953" lon="-4.121617">
        <ele>1030.810595</ele>
        <time>2021-09-14T23:31:44.000Z</time>
      </trkpt>
      <trkpt lat="40.916679" lon="-4.12174"/>
      <trkpt lat="40.916433" lon="-4.121899">
        <ele>1031.141119</ele>
        <time>2021-09-14T23:31:59.000Z</time>
      </trkpt>
      <trkpt lat="40.916293" lon="-4.122004">
        <ele>1031.235573</ele>
        <time>2021-09-14T23:32:03.000Z</time>
      </trkpt>
      <trkpt lat="40.916229" lon="-4.12207"/>
      <trkpt lat="40.916162" lon="-4.122133">
        <ele>1031.331441</ele>
        <time>2021-09-14T23:32:07.000Z</time>
      </trkpt>
      <trkpt lat="40.916046" lon="-4.122226">
        <ele>1031.411049</ele>
        <time>2021-09-14T23:32:10.000Z</time>
      </trkpt>
      <trkpt lat="40.916011" lon="-4.122263">
        <ele>1031.437343</ele>
        <time>2021-09-14T23:32:11.000Z</time>
      </trkpt>
      <trkpt lat="40.915941" lon="-4.122334">
        <ele>1031.489111</ele>
        <time>2021-09-14T23:32:13.000Z</time>
      </trkpt>
      <trkpt lat="40.915784" lon="-4.122447">
        <ele>1031.594012</ele>
        <time>2021-09-14T23:32:17.000Z</time>
      </trkpt>
      <trkpt lat="40.915742" lon="-4.122466">
        <ele>1031.699989</ele>
        <time>2021-09-14T23:32:18.000Z</time>
      </trkpt>
      <trkpt lat="40.915699" lon="-4.122484">
        <ele>1031.816685</ele>
        <time>2021-09-14T23:32:19.000Z</time>
      </trkpt>
      <trkpt lat="40.915402" lon="-4.12256"/>
      <trkpt lat="40.915097" lon="-4.122575">
        <ele>1033.389144</ele>
        <time>2021-09-14T23:32:33.000Z</time>
      </trkpt>
      <trkpt lat="40.914801" lon="-4.122649">
        <ele>1034.168594</ele>
        <time>2021-09-14T23:32:39.000Z</time>
      </trkpt>
      <trkpt lat="40.914483" lon="-4.122677">
        <ele>1034.993240</ele>
        <time>2021-09-14T23:32:45.000Z</time>
      </trkpt>
      <trkpt lat="40.914299" lon="-4.122675">
        <ele>1035.469357</ele>
        <time>2021-09-14T23:32:49.000Z</time>
      </trkpt>
      <trkpt lat="40.914215" lon="-4.122681">
        <ele>1035.687024</ele>
        <time>2021-09-14T23:32:51.000Z</time>
      </trkpt>
      <trkpt lat="40.914171" lon="-4.122685">
        <ele>1035.801142</ele>
        <time>2021-09-14T23:32:52.000Z</time>
      </trkpt>
      <trkpt lat="40.914084" lon="-4.122687">
        <ele>1036.026289</ele>
        <time>2021-09-14T23:32:54.000Z</time>
      </trkpt>
      <trkpt lat="40.913957" lon="-4.122683">
        <ele>1036.359099</ele>
        <time>2021-09-14T23:32:57.000Z</time>
      </trkpt>
      <trkpt lat="40.913778" lon="-4.122663">
        <ele>1036.842185</ele>
        <time>2021-09-14T23:33:01.000Z</time>
      </trkpt>
      <trkpt lat="40.91368" lon="-4.122655"/>
      <trkpt lat="40.913628" lon="-4.122649">
        <ele>1037.246602</ele>
        <time>2021-09-14T23:33:04.000Z</time>
      </trkpt>
      <trkpt lat="40.913527" lon="-4.122626">
        <ele>1037.522207</ele>
        <time>2021-09-14T23:33:06.000Z</time>
      </trkpt>
      <trkpt lat="40.913228" lon="-4.122553">
        <ele>1038.339859</ele>
        <time>2021-09-14T23:33:12.000Z</time>
      </trkpt>
      <trkpt lat="40.913177" lon="-4.122545">
        <ele>1038.477970</ele>
        <time>2021-09-14T23:33:13.000Z</time>
      </trkpt>
      <trkpt lat="40.91284" lon="-4.122469"/>
      <trkpt lat="40.912456" lon="-4.122368">
        <ele>1040.450177</ele>
        <time>2021-09-14T23:33:26.000Z</time>
      </trkpt>
      <trkpt lat="40.912407" lon="-4.122357">
        <ele>1040.583832</ele>
        <time>2021-09-14T23:33:27.000Z</time>
      </trkpt>
      <trkpt lat="40.912075" lon="-4.122274">
        <ele>1041.673973</ele>
        <time>2021-09-14T23:33:34.000Z</time>
      </trkpt>
      <trkpt lat="40.911907" lon="-4.122317">
        <ele>1042.340452</ele>
        <time>2021-09-14T23:33:38.000Z</time>
      </trkpt>
      <trkpt lat="40.911867" lon="-4.122331">
        <ele>1042.501608</ele>
        <time>2021-09-14T23:33:39.000Z</time>
      </trkpt>
      <trkpt lat="40.911714" lon="-4.122384">
        <ele>1043.117616</ele>
        <time>2021-09-14T23:33:43.000Z</time>
      </trkpt>
      <trkpt lat="40.911634" lon="-4.12241"/>
      <trkpt lat="40.911482" lon="-4.122472">
        <ele>1044.057994</ele>
        <time>2021-09-14T23:33:49.000Z</time>
      </trkpt>
      <trkpt lat="40.911301" lon="-4.122564">
        <ele>1044.813201</ele>
        <time>2021-09-14T23:33:54.000Z</time>
      </trkpt>
      <trkpt lat="40.911163" lon="-4.122655">
        <ele>1045.413749</ele>
        <time>2021-09-14T23:33:58.000Z</time>
      </trkpt>
      <trkpt lat="40.911105" lon="-4.122723">
        <ele>1045.715572</ele>
        <time>2021-09-14T23:34:00.000Z</time>
      </trkpt>
      <trkpt lat="40.91102" lon="-4.122821"/>
      <trkpt lat="40.910947" lon="-4.122864">
        <ele>1046.465915</ele>
        <time>2021-09-14T23:34:05.000Z</time>
      </trkpt>
      <trkpt lat="40.910864" lon="-4.122889">
        <ele>1046.797465</ele>
        <time>2021-09-14T23:34:07.000Z</time>
      </trkpt>
      <trkpt lat="40.910726" lon="-4.122896">
        <ele>1047.335362</ele>
        <time>2021-09-14T23:34:10.000Z</time>
      </trkpt>
      <trkpt lat="40.910441" lon="-4.122957">
        <ele>1048.457094</ele>
        <time>2021-09-14T23:34:15.000Z</time>
      </trkpt>
      <trkpt lat="40.910311" lon="-4.122999">
        <ele>1048.974393</ele>
        <time>2021-09-14T23:34:17.000Z</time>
      </trkpt>
      <trkpt lat="40.910174" lon="-4.123011">
        <ele>1049.505148</ele>
        <time>2021-09-14T23:34:19.000Z</time>
      </trkpt>
      <trkpt lat="40.910048" lon="-4.122981">
        <ele>1050.000044</ele>
        <time>2021-09-14T23:34:21.000Z</time>
      </trkpt>
      <trkpt lat="40.909935" lon="-4.122948">
        <ele>1050.447377</ele>
        <time>2021-09-14T23:34:23.000Z</time>
      </trkpt>
      <trkpt lat="40.909883" lon="-4.122941">
        <ele>1050.649429</ele>
        <time>2021-09-14T23:34:24.000Z</time>
      </trkpt>
      <trkpt lat="40.909734" lon="-4.122965">
        <ele>1051.229665</ele>
        <time>2021-09-14T23:34:27.000Z</time>
      </trkpt>
      <trkpt lat="40.909622" lon="-4.123006">
        <ele>1051.678883</ele>
        <time>2021-09-14T23:34:29.000Z</time>
      </trkpt>
      <trkpt lat="40.909565" lon="-4.123039">
        <ele>1051.919394</ele>
        <time>2021-09-14T23:34:30.000Z</time>
      </trkpt>
      <trkpt lat="40.909506" lon="-4.123082">
        <ele>1052.179777</ele>
        <time>2021-09-14T23:34:31.000Z</time>
      </trkpt>
      <trkpt lat="40.909449" lon="-4.123122">
        <ele>1052.429190</ele>
        <time>2021-09-14T23:34:32.000Z</time>
      </trkpt>
      <trkpt lat="40.909395" lon="-4.123167">
        <ele>1052.675884</ele>
        <time>2021-09-14T23:34:33.000Z</time>
      </trkpt>
      <trkpt lat="40.909289" lon="-4.12326"/>
      <trkpt lat="40.909231" lon="-4.1233"/>
      <trkpt lat="40.909172" lon="-4.123334">
        <ele>1053.669138</ele>
        <time>2021-09-14T23:34:37.000Z</time>
      </trkpt>
      <trkpt lat="40.908921" lon="-4.123452">
        <ele>1054.698841</ele>
        <time>2021-09-14T23:34:41.000Z</time>
      </trkpt>
      <trkpt lat="40.908791" lon="-4.123517">
        <ele>1054.949448</ele>
        <time>2021-09-14T23:34:43.000Z</time>
      </trkpt>
      <trkpt lat="40.908674" lon="-4.123625">
        <ele>1054.668603</ele>
        <time>2021-09-14T23:34:45.000Z</time>
      </trkpt>
      <trkpt lat="40.908623" lon="-4.123692">
        <ele>1054.527119</ele>
        <time>2021-09-14T23:34:46.000Z</time>
      </trkpt>
      <trkpt lat="40.908498" lon="-4.123868">
        <ele>1054.167775</ele>
        <time>2021-09-14T23:34:49.000Z</time>
      </trkpt>
      <trkpt lat="40.908465" lon="-4.123912">
        <ele>1054.075546</ele>
        <time>2021-09-14T23:34:50.000Z</time>
      </trkpt>
      <trkpt lat="40.908368" lon="-4.124045">
        <ele>1053.800548</ele>
        <time>2021-09-14T23:34:54.000Z</time>
      </trkpt>
      <trkpt lat="40.908349" lon="-4.124073">
        <ele>1053.744560</ele>
        <time>2021-09-14T23:34:55.000Z</time>
      </trkpt>
      <trkpt lat="40.90827" lon="-4.124198"/>
      <trkpt lat="40.908215" lon="-4.124275">
        <ele>1053.344486</ele>
        <time>2021-09-14T23:35:03.000Z</time>
      </trkpt>
      <trkpt lat="40.908168" lon="-4.124375">
        <ele>1053.169277</ele>
        <time>2021-09-14T23:35:06.000Z</time>
      </trkpt>
      <trkpt lat="40.908185" lon="-4.124517">
        <ele>1052.955369</ele>
        <time>2021-09-14T23:35:09.000Z</time>
      </trkpt>
      <trkpt lat="40.908337" lon="-4.124865">
        <ele>1052.357349</ele>
        <time>2021-09-14T23:35:14.000Z</time>
      </trkpt>
      <trkpt lat="40.90862" lon="-4.125448"/>
      <trkpt lat="40.908888" lon="-4.125807">
        <ele>1050.212564</ele>
        <time>2021-09-14T23:35:26.000Z</time>
      </trkpt>
      <trkpt lat="40.908997" lon="-4.125948">
        <ele>1049.795254</ele>
        <time>2021-09-14T23:35:28.000Z</time>
      </trkpt>
      <trkpt lat="40.909155" lon="-4.126148">
        <ele>1049.196653</ele>
        <time>2021-09-14T23:35:31.000Z</time>
      </trkpt>
      <trkpt lat="40.909398" lon="-4.126456">
        <ele>1048.275443</ele>
        <time>2021-09-14T23:35:36.000Z</time>
      </trkpt>
      <trkpt lat="40.909479" lon="-4.126574">
        <ele>1047.945632</ele>
        <time>2021-09-14T23:35:38.000Z</time>
      </trkpt>
      <trkpt lat="40.909531" lon="-4.126701">
        <ele>1047.646789</ele>
        <time>2021-09-14T23:35:40.000Z</time>
      </trkpt>
      <trkpt lat="40.909562" lon="-4.126826">
        <ele>1047.374601</ele>
        <time>2021-09-14T23:35:42.000Z</time>
      </trkpt>
      <trkpt lat="40.909577" lon="-4.126885">
        <ele>1047.245811</ele>
        <time>2021-09-14T23:35:43.000Z</time>
      </trkpt>
      <trkpt lat="40.909638" lon="-4.126977">
        <ele>1046.992595</ele>
        <time>2021-09-14T23:35:45.000Z</time>
      </trkpt>
      <trkpt lat="40.909657" lon="-4.127009">
        <ele>1046.908399</ele>
        <time>2021-09-14T23:35:46.000Z</time>
      </trkpt>
      <trkpt lat="40.909662" lon="-4.127097">
        <ele>1046.725818</ele>
        <time>2021-09-14T23:35:48.000Z</time>
      </trkpt>
      <trkpt lat="40.909629" lon="-4.127262">
        <ele>1046.550211</ele>
        <time>2021-09-14T23:35:51.000Z</time>
      </trkpt>
      <trkpt lat="40.909606" lon="-4.127316">
        <ele>1046.531160</ele>
        <time>2021-09-14T23:35:52.000Z</time>
      </trkpt>
      <trkpt lat="40.909563" lon="-4.127429">
        <ele>1046.492276</ele>
        <time>2021-09-14T23:35:54.000Z</time>
      </trkpt>
      <trkpt lat="40.909501" lon="-4.127679">
        <ele>1046.411408</ele>
        <time>2021-09-14T23:35:58.000Z</time>
      </trkpt>
      <trkpt lat="40.909488" lon="-4.127745">
        <ele>1046.390446</ele>
        <time>2021-09-14T23:35:59.000Z</time>
      </trkpt>
      <trkpt lat="40.909422" lon="-4.128147">
        <ele>1046.264011</ele>
        <time>2021-09-14T23:36:05.000Z</time>
      </trkpt>
      <trkpt lat="40.909317" lon="-4.128716">
        <ele>1046.083993</ele>
        <time>2021-09-14T23:36:14.000Z</time>
      </trkpt>
      <trkpt lat="40.909303" lon="-4.128828">
        <ele>1046.049103</ele>
        <time>2021-09-14T23:36:16.000Z</time>
      </trkpt>
      <trkpt lat="40.909246" lon="-4.129101">
        <ele>1045.962054</ele>
        <time>2021-09-14T23:36:21.000Z</time>
      </trkpt>
      <trkpt lat="40.909175" lon="-4.129575">
        <ele>1046.481090</ele>
        <time>2021-09-14T23:36:30.000Z</time>
      </trkpt>
      <trkpt lat="40.909147" lon="-4.129953">
        <ele>1048.518491</ele>
        <time>2021-09-14T23:36:38.000Z</time>
      </trkpt>
      <trkpt lat="40.909169" lon="-4.130297">
        <ele>1050.370387</ele>
        <time>2021-09-14T23:36:45.000Z</time>
      </trkpt>
      <trkpt lat="40.909206" lon="-4.130584">
        <ele>1051.932165</ele>
        <time>2021-09-14T23:36:51.000Z</time>
      </trkpt>
      <trkpt lat="40.909221" lon="-4.130682">
        <ele>1052.468533</ele>
        <time>2021-09-14T23:36:53.000Z</time>
      </trkpt>
      <trkpt lat="40.909237" lon="-4.130777">
        <ele>1052.990637</ele>
        <time>2021-09-14T23:36:55.000Z</time>
      </trkpt>
      <trkpt lat="40.909236" lon="-4.130865">
        <ele>1053.462744</ele>
        <time>2021-09-14T23:36:57.000Z</time>
      </trkpt>
      <trkpt lat="40.909223" lon="-4.130901">
        <ele>1053.676769</ele>
        <time>2021-09-14T23:36:58.000Z</time>
      </trkpt>
      <trkpt lat="40.909158" lon="-4.13096"/>
      <trkpt lat="40.909133" lon="-4.130967">
        <ele>1054.417632</ele>
        <time>2021-09-14T23:37:02.000Z</time>
      </trkpt>
      <trkpt lat="40.90906" lon="-4.130987"/>
      <trkpt lat="40.908998" lon="-4.131025">
        <ele>1055.431759</ele>
        <time>2021-09-14T23:37:08.000Z</time>
      </trkpt>
      <trkpt lat="40.908981" lon="-4.131046">
        <ele>1055.596835</ele>
        <time>2021-09-14T23:37:09.000Z</time>
      </trkpt>
      <trkpt lat="40.908961" lon="-4.131136">
        <ele>1056.100056</ele>
        <time>2021-09-14T23:37:12.000Z</time>
      </trkpt>
      <trkpt lat="40.908964" lon="-4.13117"/>
      <trkpt lat="40.908984" lon="-4.131233">
        <ele>1056.650233</ele>
        <time>2021-09-14T23:37:15.000Z</time>
      </trkpt>
      <trkpt lat="40.909031" lon="-4.131309">
        <ele>1057.177013</ele>
        <time>2021-09-14T23:37:18.000Z</time>
      </trkpt>
      <trkpt lat="40.909088" lon="-4.131406">
        <ele>1057.836127</ele>
        <time>2021-09-14T23:37:22.000Z</time>
      </trkpt>
      <trkpt lat="40.909118" lon="-4.131461">
        <ele>1058.199978</ele>
        <time>2021-09-14T23:37:24.000Z</time>
      </trkpt>
      <trkpt lat="40.909129" lon="-4.131493">
        <ele>1058.388557</ele>
        <time>2021-09-14T23:37:25.000Z</time>
      </trkpt>
      <trkpt lat="40.909153" lon="-4.131591">
        <ele>1058.904719</ele>
        <time>2021-09-14T23:37:29.000Z</time>
      </trkpt>
      <trkpt lat="40.909153" lon="-4.13159"/>
      <trkpt lat="40.909164" lon="-4.131637">
        <ele>1059.143800</ele>
        <time>2021-09-14T23:37:39.000Z</time>
      </trkpt>
      <trkpt lat="40.909178" lon="-4.131688">
        <ele>1059.402207</ele>
        <time>2021-09-14T23:37:41.000Z</time>
      </trkpt>
      <trkpt lat="40.909192" lon="-4.131825">
        <ele>1060.060589</ele>
        <time>2021-09-14T23:37:46.000Z</time>
      </trkpt>
      <trkpt lat="40.909195" lon="-4.131937">
        <ele>1060.594310</ele>
        <time>2021-09-14T23:37:50.000Z</time>
      </trkpt>
      <trkpt lat="40.909189" lon="-4.132017">
        <ele>1060.977171</ele>
        <time>2021-09-14T23:37:53.000Z</time>
      </trkpt>
      <trkpt lat="40.909199" lon="-4.13213"/>
      <trkpt lat="40.909219" lon="-4.132205">
        <ele>1061.897756</ele>
        <time>2021-09-14T23:38:00.000Z</time>
      </trkpt>
      <trkpt lat="40.909241" lon="-4.132302">
        <ele>1062.380059</ele>
        <time>2021-09-14T23:38:04.000Z</time>
      </trkpt>
      <trkpt lat="40.909252" lon="-4.132343">
        <ele>1062.587255</ele>
        <time>2021-09-14T23:38:06.000Z</time>
      </trkpt>
      <trkpt lat="40.909253" lon="-4.132353">
        <ele>1062.635294</ele>
        <time>2021-09-14T23:38:08.000Z</time>
      </trkpt>
      <trkpt lat="40.909253" lon="-4.132393">
        <ele>1062.825788</ele>
        <time>2021-09-14T23:41:27.000Z</time>
      </trkpt>
      <trkpt lat="40.909253" lon="-4.132414">
        <ele>1062.925798</ele>
        <time>2021-09-14T23:41:28.000Z</time>
      </trkpt>
      <trkpt lat="40.909261" lon="-4.13255"/>
      <trkpt lat="40.909257" lon="-4.13259"/>
      <trkpt lat="40.90919" lon="-4.1328"/>
      <trkpt lat="40.909147" lon="-4.132945">
        <ele>1065.594961</ele>
        <time>2021-09-14T23:41:44.000Z</time>
      </trkpt>
      <trkpt lat="40.909144" lon="-4.133083">
        <ele>1066.252440</ele>
        <time>2021-09-14T23:41:48.000Z</time>
      </trkpt>
      <trkpt lat="40.909147" lon="-4.133151">
        <ele>1066.576833</ele>
        <time>2021-09-14T23:41:50.000Z</time>
      </trkpt>
      <trkpt lat="40.909116" lon="-4.133423">
        <ele>1067.886845</ele>
        <time>2021-09-14T23:41:58.000Z</time>
      </trkpt>
      <trkpt lat="40.909086" lon="-4.133608">
        <ele>1068.787938</ele>
        <time>2021-09-14T23:42:04.000Z</time>
      </trkpt>
      <trkpt lat="40.909033" lon="-4.133853">
        <ele>1069.948766</ele>
        <time>2021-09-14T23:42:11.000Z</time>
      </trkpt>
      <trkpt lat="40.909022" lon="-4.133923">
        <ele>1069.936926</ele>
        <time>2021-09-14T23:42:13.000Z</time>
      </trkpt>
      <trkpt lat="40.908966" lon="-4.134156">
        <ele>1069.896438</ele>
        <time>2021-09-14T23:42:19.000Z</time>
      </trkpt>
      <trkpt lat="40.908899" lon="-4.134356">
        <ele>1069.860211</ele>
        <time>2021-09-14T23:42:24.000Z</time>
      </trkpt>
      <trkpt lat="40.908843" lon="-4.134508">
        <ele>1069.832209</ele>
        <time>2021-09-14T23:42:28.000Z</time>
      </trkpt>
      <trkpt lat="40.908728" lon="-4.134794">
        <ele>1069.778563</ele>
        <time>2021-09-14T23:42:35.000Z</time>
      </trkpt>
      <trkpt lat="40.908629" lon="-4.135061">
        <ele>1069.729314</ele>
        <time>2021-09-14T23:42:41.000Z</time>
      </trkpt>
      <trkpt lat="40.908487" lon="-4.135439">
        <ele>1069.659412</ele>
        <time>2021-09-14T23:42:49.000Z</time>
      </trkpt>
      <trkpt lat="40.908358" lon="-4.135867">
        <ele>1069.583109</ele>
        <time>2021-09-14T23:42:56.000Z</time>
      </trkpt>
      <trkpt lat="40.908292" lon="-4.136411">
        <ele>1068.686246</ele>
        <time>2021-09-14T23:43:04.000Z</time>
      </trkpt>
      <trkpt lat="40.908308" lon="-4.136981">
        <ele>1067.413169</ele>
        <time>2021-09-14T23:43:12.000Z</time>
      </trkpt>
      <trkpt lat="40.908308" lon="-4.13706"/>
      <trkpt lat="40.90829" lon="-4.137492"/>
      <trkpt lat="40.908279" lon="-4.137753">
        <ele>1065.687749</ele>
        <time>2021-09-14T23:43:21.000Z</time>
      </trkpt>
      <trkpt lat="40.908283" lon="-4.138265">
        <ele>1064.544939</ele>
        <time>2021-09-14T23:43:27.000Z</time>
      </trkpt>
      <trkpt lat="40.908287" lon="-4.13835"/>
      <trkpt lat="40.908294" lon="-4.138599">
        <ele>1063.652468</ele>
        <time>2021-09-14T23:43:31.000Z</time>
      </trkpt>
      <trkpt lat="40.908296" lon="-4.138921">
        <ele>1062.698029</ele>
        <time>2021-09-14T23:43:35.000Z</time>
      </trkpt>
      <trkpt lat="40.908292" lon="-4.139077">
        <ele>1062.235379</ele>
        <time>2021-09-14T23:43:37.000Z</time>
      </trkpt>
      <trkpt lat="40.908296" lon="-4.139771">
        <ele>1060.178304</ele>
        <time>2021-09-14T23:43:46.000Z</time>
      </trkpt>
      <trkpt lat="40.908304" lon="-4.139848">
        <ele>1059.947929</ele>
        <time>2021-09-14T23:43:47.000Z</time>
      </trkpt>
      <trkpt lat="40.908346" lon="-4.140246">
        <ele>1058.756814</ele>
        <time>2021-09-14T23:43:52.000Z</time>
      </trkpt>
      <trkpt lat="40.90837" lon="-4.140417"/>
      <trkpt lat="40.908386" lon="-4.14087"/>
      <trkpt lat="40.90836" lon="-4.141057"/>
      <trkpt lat="40.908322" lon="-4.141346">
        <ele>1055.373725</ele>
        <time>2021-09-14T23:44:04.000Z</time>
      </trkpt>
      <trkpt lat="40.908311" lon="-4.141546">
        <ele>1054.748238</ele>
        <time>2021-09-14T23:44:06.000Z</time>
      </trkpt>
      <trkpt lat="40.908315" lon="-4.141866">
        <ele>1053.749962</ele>
        <time>2021-09-14T23:44:09.000Z</time>
      </trkpt>
      <trkpt lat="40.90832" lon="-4.141976"/>
      <trkpt lat="40.908328" lon="-4.142187">
        <ele>1052.747255</ele>
        <time>2021-09-14T23:44:12.000Z</time>
      </trkpt>
      <trkpt lat="40.908331" lon="-4.142499">
        <ele>1051.773990</ele>
        <time>2021-09-14T23:44:15.000Z</time>
      </trkpt>
      <trkpt lat="40.908335" lon="-4.1426"/>
      <trkpt lat="40.908355" lon="-4.142795">
        <ele>1050.844703</ele>
        <time>2021-09-14T23:44:18.000Z</time>
      </trkpt>
      <trkpt lat="40.908402" lon="-4.143068">
        <ele>1049.971351</ele>
        <time>2021-09-14T23:44:21.000Z</time>
      </trkpt>
      <trkpt lat="40.90842" lon="-4.143153"/>
      <trkpt lat="40.90845" lon="-4.143323"/>
      <trkpt lat="40.908482" lon="-4.143661">
        <ele>1049.329651</ele>
        <time>2021-09-14T23:44:28.000Z</time>
      </trkpt>
      <trkpt lat="40.90847" lon="-4.143994"/>
      <trkpt lat="40.908435" lon="-4.144231">
        <ele>1048.862203</ele>
        <time>2021-09-14T23:44:35.000Z</time>
      </trkpt>
      <trkpt lat="40.908423" lon="-4.144309">
        <ele>1048.797477</ele>
        <time>2021-09-14T23:44:36.000Z</time>
      </trkpt>
      <trkpt lat="40.908406" lon="-4.144623">
        <ele>1048.541494</ele>
        <time>2021-09-14T23:44:40.000Z</time>
      </trkpt>
      <trkpt lat="40.908413" lon="-4.14539"/>
      <trkpt lat="40.908413" lon="-4.145898">
        <ele>1046.303180</ele>
        <time>2021-09-14T23:44:57.000Z</time>
      </trkpt>
      <trkpt lat="40.908413" lon="-4.14612"/>
      <trkpt lat="40.908445" lon="-4.146653">
        <ele>1043.428662</ele>
        <time>2021-09-14T23:45:07.000Z</time>
      </trkpt>
      <trkpt lat="40.908517" lon="-4.147115">
        <ele>1041.636664</ele>
        <time>2021-09-14T23:45:12.000Z</time>
      </trkpt>
      <trkpt lat="40.908591" lon="-4.147627">
        <ele>1039.656404</ele>
        <time>2021-09-14T23:45:17.000Z</time>
      </trkpt>
      <trkpt lat="40.908612" lon="-4.147846">
        <ele>1038.817786</ele>
        <time>2021-09-14T23:45:19.000Z</time>
      </trkpt>
      <trkpt lat="40.90862" lon="-4.147959"/>
      <trkpt lat="40.908624" lon="-4.148421">
        <ele>1035.312008</ele>
        <time>2021-09-14T23:45:24.000Z</time>
      </trkpt>
      <trkpt lat="40.908618" lon="-4.148536">
        <ele>1034.606537</ele>
        <time>2021-09-14T23:45:25.000Z</time>
      </trkpt>
      <trkpt lat="40.90861" lon="-4.148651"/>
      <trkpt lat="40.908593" lon="-4.148883">
        <ele>1032.473276</ele>
        <time>2021-09-14T23:45:28.000Z</time>
      </trkpt>
      <trkpt lat="40.908563" lon="-4.14911"/>
      <trkpt lat="40.908524" lon="-4.149333">
        <ele>1029.662144</ele>
        <time>2021-09-14T23:45:32.000Z</time>
      </trkpt>
      <trkpt lat="40.908503" lon="-4.149444">
        <ele>1028.961865</ele>
        <time>2021-09-14T23:45:33.000Z</time>
      </trkpt>
      <trkpt lat="40.908463" lon="-4.149665">
        <ele>1027.571104</ele>
        <time>2021-09-14T23:45:35.000Z</time>
      </trkpt>
      <trkpt lat="40.908421" lon="-4.14988"/>
      <trkpt lat="40.908384" lon="-4.150094">
        <ele>1024.868551</ele>
        <time>2021-09-14T23:45:39.000Z</time>
      </trkpt>
      <trkpt lat="40.908354" lon="-4.150309">
        <ele>1023.637284</ele>
        <time>2021-09-14T23:45:41.000Z</time>
      </trkpt>
      <trkpt lat="40.90829" lon="-4.150633"/>
      <trkpt lat="40.908213" lon="-4.150949">
        <ele>1020.182564</ele>
        <time>2021-09-14T23:45:47.000Z</time>
      </trkpt>
      <trkpt lat="40.90817" lon="-4.151163"/>
      <trkpt lat="40.908157" lon="-4.151276">
        <ele>1018.443365</ele>
        <time>2021-09-14T23:45:50.000Z</time>
      </trkpt>
      <trkpt lat="40.908137" lon="-4.151506">
        <ele>1017.244045</ele>
        <time>2021-09-14T23:45:52.000Z</time>
      </trkpt>
      <trkpt lat="40.908121" lon="-4.151736">
        <ele>1016.047548</ele>
        <time>2021-09-14T23:45:54.000Z</time>
      </trkpt>
      <trkpt lat="40.908106" lon="-4.151964">
        <ele>1014.861982</ele>
        <time>2021-09-14T23:45:56.000Z</time>
      </trkpt>
      <trkpt lat="40.90809" lon="-4.152194"/>
      <trkpt lat="40.908078" lon="-4.152424">
        <ele>1012.471189</ele>
        <time>2021-09-14T23:46:00.000Z</time>
      </trkpt>
      <trkpt lat="40.908064" lon="-4.152654">
        <ele>1011.352953</ele>
        <time>2021-09-14T23:46:02.000Z</time>
      </trkpt>
      <trkpt lat="40.908053" lon="-4.152884">
        <ele>1010.307201</ele>
        <time>2021-09-14T23:46:04.000Z</time>
      </trkpt>
      <trkpt lat="40.908043" lon="-4.15311"/>
      <trkpt lat="40.908036" lon="-4.153221">
        <ele>1008.774498</ele>
        <time>2021-09-14T23:46:07.000Z</time>
      </trkpt>
      <trkpt lat="40.908004" lon="-4.153552">
        <ele>1007.260289</ele>
        <time>2021-09-14T23:46:10.000Z</time>
      </trkpt>
      <trkpt lat="40.907968" lon="-4.15377"/>
      <trkpt lat="40.907877" lon="-4.154202">
        <ele>1004.212737</ele>
        <time>2021-09-14T23:46:16.000Z</time>
      </trkpt>
      <trkpt lat="40.907855" lon="-4.154311">
        <ele>1003.700795</ele>
        <time>2021-09-14T23:46:17.000Z</time>
      </trkpt>
      <trkpt lat="40.907832" lon="-4.154418">
        <ele>1003.196006</ele>
        <time>2021-09-14T23:46:18.000Z</time>
      </trkpt>
      <trkpt lat="40.907787" lon="-4.154632">
        <ele>1002.188053</ele>
        <time>2021-09-14T23:46:20.000Z</time>
      </trkpt>
      <trkpt lat="40.907737" lon="-4.154839">
        <ele>1001.201944</ele>
        <time>2021-09-14T23:46:22.000Z</time>
      </trkpt>
      <trkpt lat="40.907658" lon="-4.15515"/>
      <trkpt lat="40.907632" lon="-4.155258">
        <ele>999.093370</ele>
        <time>2021-09-14T23:46:26.000Z</time>
      </trkpt>
      <trkpt lat="40.907524" lon="-4.155706">
        <ele>996.841104</ele>
        <time>2021-09-14T23:46:30.000Z</time>
      </trkpt>
      <trkpt lat="40.90747" lon="-4.155936"/>
      <trkpt lat="40.907444" lon="-4.156051">
        <ele>995.112634</ele>
        <time>2021-09-14T23:46:33.000Z</time>
      </trkpt>
      <trkpt lat="40.90742" lon="-4.156167"/>
      <trkpt lat="40.907367" lon="-4.156398">
        <ele>993.380329</ele>
        <time>2021-09-14T23:46:36.000Z</time>
      </trkpt>
      <trkpt lat="40.907283" lon="-4.156745">
        <ele>991.635151</ele>
        <time>2021-09-14T23:46:39.000Z</time>
      </trkpt>
      <trkpt lat="40.907255" lon="-4.156861">
        <ele>991.051904</ele>
        <time>2021-09-14T23:46:40.000Z</time>
      </trkpt>
      <trkpt lat="40.907201" lon="-4.157091">
        <ele>989.898354</ele>
        <time>2021-09-14T23:46:42.000Z</time>
      </trkpt>
      <trkpt lat="40.907155" lon="-4.157318">
        <ele>988.645179</ele>
        <time>2021-09-14T23:46:44.000Z</time>
      </trkpt>
      <trkpt lat="40.907144" lon="-4.157431">
        <ele>988.024374</ele>
        <time>2021-09-14T23:46:45.000Z</time>
      </trkpt>
      <trkpt lat="40.907143" lon="-4.157545">
        <ele>987.403165</ele>
        <time>2021-09-14T23:46:46.000Z</time>
      </trkpt>
      <trkpt lat="40.907168" lon="-4.15777"/>
      <trkpt lat="40.907188" lon="-4.157881">
        <ele>985.542226</ele>
        <time>2021-09-14T23:46:49.000Z</time>
      </trkpt>
      <trkpt lat="40.907208" lon="-4.157992">
        <ele>984.920455</ele>
        <time>2021-09-14T23:46:50.000Z</time>
      </trkpt>
      <trkpt lat="40.907228" lon="-4.158103">
        <ele>984.298684</ele>
        <time>2021-09-14T23:46:51.000Z</time>
      </trkpt>
      <trkpt lat="40.907278" lon="-4.158317">
        <ele>983.078184</ele>
        <time>2021-09-14T23:46:53.000Z</time>
      </trkpt>
      <trkpt lat="40.907357" lon="-4.158637">
        <ele>981.243893</ele>
        <time>2021-09-14T23:46:56.000Z</time>
      </trkpt>
      <trkpt lat="40.907407" lon="-4.158851">
        <ele>980.023396</ele>
        <time>2021-09-14T23:46:58.000Z</time>
      </trkpt>
      <trkpt lat="40.90748" lon="-4.159171"/>
      <trkpt lat="40.907504" lon="-4.159277">
        <ele>977.599140</ele>
        <time>2021-09-14T23:47:02.000Z</time>
      </trkpt>
      <trkpt lat="40.907549" lon="-4.159489">
        <ele>976.425501</ele>
        <time>2021-09-14T23:47:04.000Z</time>
      </trkpt>
      <trkpt lat="40.907566" lon="-4.159595">
        <ele>975.881611</ele>
        <time>2021-09-14T23:47:05.000Z</time>
      </trkpt>
      <trkpt lat="40.907581" lon="-4.159702">
        <ele>975.335388</ele>
        <time>2021-09-14T23:47:06.000Z</time>
      </trkpt>
      <trkpt lat="40.907598" lon="-4.159915">
        <ele>974.260340</ele>
        <time>2021-09-14T23:47:08.000Z</time>
      </trkpt>
      <trkpt lat="40.907599" lon="-4.160129">
        <ele>973.186197</ele>
        <time>2021-09-14T23:47:10.000Z</time>
      </trkpt>
      <trkpt lat="40.907597" lon="-4.160236">
        <ele>972.648971</ele>
        <time>2021-09-14T23:47:11.000Z</time>
      </trkpt>
      <trkpt lat="40.907595" lon="-4.160345">
        <ele>972.101710</ele>
        <time>2021-09-14T23:47:12.000Z</time>
      </trkpt>
      <trkpt lat="40.907579" lon="-4.160678">
        <ele>970.426921</ele>
        <time>2021-09-14T23:47:15.000Z</time>
      </trkpt>
      <trkpt lat="40.907567" lon="-4.16079"/>
      <trkpt lat="40.907544" lon="-4.160899">
        <ele>969.291118</ele>
        <time>2021-09-14T23:47:17.000Z</time>
      </trkpt>
      <trkpt lat="40.907508" lon="-4.161004">
        <ele>968.712399</ele>
        <time>2021-09-14T23:47:18.000Z</time>
      </trkpt>
      <trkpt lat="40.907398" lon="-4.161178">
        <ele>967.573787</ele>
        <time>2021-09-14T23:47:20.000Z</time>
      </trkpt>
      <trkpt lat="40.907261" lon="-4.161315">
        <ele>966.433308</ele>
        <time>2021-09-14T23:47:22.000Z</time>
      </trkpt>
      <trkpt lat="40.907186" lon="-4.161376">
        <ele>965.848634</ele>
        <time>2021-09-14T23:47:23.000Z</time>
      </trkpt>
      <trkpt lat="40.907113" lon="-4.161438">
        <ele>965.272537</ele>
        <time>2021-09-14T23:47:24.000Z</time>
      </trkpt>
      <trkpt lat="40.90697" lon="-4.161568"/>
      <trkpt lat="40.906835" lon="-4.161716">
        <ele>963.803563</ele>
        <time>2021-09-14T23:47:28.000Z</time>
      </trkpt>
      <trkpt lat="40.906708" lon="-4.161888">
        <ele>963.155516</ele>
        <time>2021-09-14T23:47:30.000Z</time>
      </trkpt>
      <trkpt lat="40.906511" lon="-4.162156">
        <ele>962.147966</ele>
        <time>2021-09-14T23:47:33.000Z</time>
      </trkpt>
      <trkpt lat="40.906286" lon="-4.162386">
        <ele>961.134082</ele>
        <time>2021-09-14T23:47:36.000Z</time>
      </trkpt>
      <trkpt lat="40.906123" lon="-4.162516">
        <ele>960.455412</ele>
        <time>2021-09-14T23:47:38.000Z</time>
      </trkpt>
      <trkpt lat="40.90596" lon="-4.16264"/>
      <trkpt lat="40.905726" lon="-4.162815">
        <ele>958.826456</ele>
        <time>2021-09-14T23:47:43.000Z</time>
      </trkpt>
      <trkpt lat="40.905649" lon="-4.162875">
        <ele>958.507803</ele>
        <time>2021-09-14T23:47:44.000Z</time>
      </trkpt>
      <trkpt lat="40.90518" lon="-4.16323"/>
      <trkpt lat="40.905102" lon="-4.163288">
        <ele>958.399663</ele>
        <time>2021-09-14T23:47:51.000Z</time>
      </trkpt>
      <trkpt lat="40.904938" lon="-4.163412">
        <ele>958.408303</ele>
        <time>2021-09-14T23:47:53.000Z</time>
      </trkpt>
      <trkpt lat="40.904677" lon="-4.1636"/>
      <trkpt lat="40.904311" lon="-4.163732">
        <ele>958.439247</ele>
        <time>2021-09-14T23:48:00.000Z</time>
      </trkpt>
      <trkpt lat="40.904145" lon="-4.163795">
        <ele>958.447146</ele>
        <time>2021-09-14T23:48:02.000Z</time>
      </trkpt>
      <trkpt lat="40.904005" lon="-4.163877">
        <ele>958.454149</ele>
        <time>2021-09-14T23:48:04.000Z</time>
      </trkpt>
      <trkpt lat="40.903729" lon="-4.164061">
        <ele>959.186645</ele>
        <time>2021-09-14T23:48:09.000Z</time>
      </trkpt>
      <trkpt lat="40.903373" lon="-4.1643"/>
      <trkpt lat="40.903174" lon="-4.164421">
        <ele>960.728017</ele>
        <time>2021-09-14T23:48:22.000Z</time>
      </trkpt>
      <trkpt lat="40.903067" lon="-4.164488">
        <ele>961.023164</ele>
        <time>2021-09-14T23:48:25.000Z</time>
      </trkpt>
      <trkpt lat="40.902963" lon="-4.16457"/>
      <trkpt lat="40.902895" lon="-4.16464"/>
      <trkpt lat="40.90286" lon="-4.164674"/>
      <trkpt lat="40.902668" lon="-4.164885">
        <ele>962.270392</ele>
        <time>2021-09-14T23:48:37.000Z</time>
      </trkpt>
      <trkpt lat="40.902637" lon="-4.164922">
        <ele>962.374485</ele>
        <time>2021-09-14T23:48:38.000Z</time>
      </trkpt>
      <trkpt lat="40.902534" lon="-4.165039">
        <ele>962.712955</ele>
        <time>2021-09-14T23:48:41.000Z</time>
      </trkpt>
      <trkpt lat="40.90247" lon="-4.165129"/>
      <trkpt lat="40.902402" lon="-4.165214">
        <ele>962.687770</ele>
        <time>2021-09-14T23:48:45.000Z</time>
      </trkpt>
      <trkpt lat="40.902079" lon="-4.165631">
        <ele>961.506964</ele>
        <time>2021-09-14T23:48:54.000Z</time>
      </trkpt>
      <trkpt lat="40.901889" lon="-4.165936">
        <ele>960.725325</ele>
        <time>2021-09-14T23:49:00.000Z</time>
      </trkpt>
      <trkpt lat="40.901832" lon="-4.166036">
        <ele>960.477631</ele>
        <time>2021-09-14T23:49:02.000Z</time>
      </trkpt>
      <trkpt lat="40.901756" lon="-4.166176">
        <ele>960.136753</ele>
        <time>2021-09-14T23:49:05.000Z</time>
      </trkpt>
      <trkpt lat="40.90165" lon="-4.166387"/>
      <trkpt lat="40.901513" lon="-4.166622">
        <ele>959.048788</ele>
        <time>2021-09-14T23:49:15.000Z</time>
      </trkpt>
      <trkpt lat="40.901363" lon="-4.166946">
        <ele>958.297389</ele>
        <time>2021-09-14T23:49:21.000Z</time>
      </trkpt>
      <trkpt lat="40.901236" lon="-4.167187">
        <ele>957.347939</ele>
        <time>2021-09-14T23:49:25.000Z</time>
      </trkpt>
      <trkpt lat="40.90112" lon="-4.167384"/>
      <trkpt lat="40.900935" lon="-4.167664">
        <ele>955.242242</ele>
        <time>2021-09-14T23:49:32.000Z</time>
      </trkpt>
      <trkpt lat="40.900736" lon="-4.167941">
        <ele>953.947700</ele>
        <time>2021-09-14T23:49:36.000Z</time>
      </trkpt>
      <trkpt lat="40.900634" lon="-4.168075">
        <ele>953.303489</ele>
        <time>2021-09-14T23:49:38.000Z</time>
      </trkpt>
      <trkpt lat="40.900383" lon="-4.168416">
        <ele>951.691132</ele>
        <time>2021-09-14T23:49:43.000Z</time>
      </trkpt>
      <trkpt lat="40.900229" lon="-4.168609">
        <ele>950.740464</ele>
        <time>2021-09-14T23:49:46.000Z</time>
      </trkpt>
      <trkpt lat="40.900175" lon="-4.168669">
        <ele>950.424428</ele>
        <time>2021-09-14T23:49:47.000Z</time>
      </trkpt>
      <trkpt lat="40.90007" lon="-4.168792"/>
      <trkpt lat="40.899912" lon="-4.169"/>
      <trkpt lat="40.899855" lon="-4.16907"/>
      <trkpt lat="40.899679" lon="-4.169282">
        <ele>948.005853</ele>
        <time>2021-09-14T23:49:56.000Z</time>
      </trkpt>
      <trkpt lat="40.899558" lon="-4.169418">
        <ele>947.453443</ele>
        <time>2021-09-14T23:49:58.000Z</time>
      </trkpt>
      <trkpt lat="40.899375" lon="-4.169617">
        <ele>946.629256</ele>
        <time>2021-09-14T23:50:01.000Z</time>
      </trkpt>
      <trkpt lat="40.899252" lon="-4.169744">
        <ele>946.086399</ele>
        <time>2021-09-14T23:50:03.000Z</time>
      </trkpt>
      <trkpt lat="40.899074" lon="-4.169929">
        <ele>945.298836</ele>
        <time>2021-09-14T23:50:06.000Z</time>
      </trkpt>
      <trkpt lat="40.898903" lon="-4.170108">
        <ele>944.540167</ele>
        <time>2021-09-14T23:50:09.000Z</time>
      </trkpt>
      <trkpt lat="40.898737" lon="-4.170289">
        <ele>943.914319</ele>
        <time>2021-09-14T23:50:12.000Z</time>
      </trkpt>
      <trkpt lat="40.898684" lon="-4.170351">
        <ele>943.914319</ele>
        <time>2021-09-14T23:50:13.000Z</time>
      </trkpt>
      <trkpt lat="40.898533" lon="-4.170533">
        <ele>943.914319</ele>
        <time>2021-09-14T23:50:16.000Z</time>
      </trkpt>
      <trkpt lat="40.898327" lon="-4.170771">
        <ele>943.914319</ele>
        <time>2021-09-14T23:50:20.000Z</time>
      </trkpt>
      <trkpt lat="40.898181" lon="-4.170949">
        <ele>943.914319</ele>
        <time>2021-09-14T23:50:23.000Z</time>
      </trkpt>
      <trkpt lat="40.898129" lon="-4.171106">
        <ele>943.914319</ele>
        <time>2021-09-14T23:50:25.000Z</time>
      </trkpt>
      <trkpt lat="40.898129" lon="-4.171281">
        <ele>943.914319</ele>
        <time>2021-09-14T23:50:27.000Z</time>
      </trkpt>
      <trkpt lat="40.89812" lon="-4.171429"/>
      <trkpt lat="40.898101" lon="-4.171479">
        <ele>943.914319</ele>
        <time>2021-09-14T23:50:30.000Z</time>
      </trkpt>
      <trkpt lat="40.898049" lon="-4.171553">
        <ele>943.914319</ele>
        <time>2021-09-14T23:50:32.000Z</time>
      </trkpt>
      <trkpt lat="40.897987" lon="-4.171608">
        <ele>943.914319</ele>
        <time>2021-09-14T23:50:34.000Z</time>
      </trkpt>
    </trkseg>
  </trk>
</gpx>
